<?xml version="1.0" encoding="UTF-8"?>
<TrainingCenterDatabase xmlns="http://www.garmin.com/xmlschemas/TrainingCenterDatabase/v2" xmlns:xsi="http://www.w3.org/2001/XMLSchema-instance" xsi:schemaLocation="http://www.garmin.com/xmlschemas/TrainingCenterDatabase/v2 http://www.garmin.com/xmlschemas/TrainingCenterDatabasev2.xsd">
  <Activities>
    <Activity Sport="Other">
      <Id>2019-07-06T13:14:08.000Z</Id>
      <Lap StartTime="2019-07-06T13:14:08.000Z">
        <TotalTimeSeconds>11620</TotalTimeSeconds>
        <DistanceMeters>6680</DistanceMeters>
        <Track>
          <Trackpoint>
            <Time>2019-07-06T13:14:08.000Z</Time>
            <Position>
              <LatitudeDegrees>42.53368240781128406524658203125</LatitudeDegrees>
              <LongitudeDegrees>-0.16812278889119625091552734375</LongitudeDegrees>
            </Position>
            <AltitudeMeters>1053.4000244140625</AltitudeMeters>
            <DistanceMeters>0</DistanceMeters>
          </Trackpoint>
          <Trackpoint>
            <Time>2019-07-06T13:14:09.000Z</Time>
            <Position>
              <LatitudeDegrees>42.5336791388690471649169921875</LatitudeDegrees>
              <LongitudeDegrees>-0.16812195070087909698486328125</LongitudeDegrees>
            </Position>
            <AltitudeMeters>1053.4000244140625</AltitudeMeters>
            <DistanceMeters>0.38010685747993</DistanceMeters>
          </Trackpoint>
          <Trackpoint>
            <Time>2019-07-06T13:14:20.000Z</Time>
            <Position>
              <LatitudeDegrees>42.53367461264133453369140625</LatitudeDegrees>
              <LongitudeDegrees>-0.1681119762361049652099609375</LongitudeDegrees>
            </Position>
            <AltitudeMeters>1052.800048828125</AltitudeMeters>
            <DistanceMeters>1.3398296285359</DistanceMeters>
          </Trackpoint>
          <Trackpoint>
            <Time>2019-07-06T13:14:26.000Z</Time>
            <Position>
              <LatitudeDegrees>42.53368676640093326568603515625</LatitudeDegrees>
              <LongitudeDegrees>-0.1681005768477916717529296875</LongitudeDegrees>
            </Position>
            <AltitudeMeters>1053.199951171875</AltitudeMeters>
            <DistanceMeters>2.9857406021874</DistanceMeters>
          </Trackpoint>
          <Trackpoint>
            <Time>2019-07-06T13:14:30.000Z</Time>
            <Position>
              <LatitudeDegrees>42.533690035343170166015625</LatitudeDegrees>
              <LongitudeDegrees>-0.1680992357432842254638671875</LongitudeDegrees>
            </Position>
            <AltitudeMeters>1053.199951171875</AltitudeMeters>
            <DistanceMeters>3.3658474596673</DistanceMeters>
          </Trackpoint>
          <Trackpoint>
            <Time>2019-07-06T13:14:33.000Z</Time>
            <Position>
              <LatitudeDegrees>42.533692382276058197021484375</LatitudeDegrees>
              <LongitudeDegrees>-0.1681101322174072265625</LongitudeDegrees>
            </Position>
            <AltitudeMeters>1053</AltitudeMeters>
            <DistanceMeters>4.2969153082259</DistanceMeters>
          </Trackpoint>
          <Trackpoint>
            <Time>2019-07-06T13:14:35.000Z</Time>
            <Position>
              <LatitudeDegrees>42.533697076141834259033203125</LatitudeDegrees>
              <LongitudeDegrees>-0.16810686327517032623291015625</LongitudeDegrees>
            </Position>
            <AltitudeMeters>1053.4000244140625</AltitudeMeters>
            <DistanceMeters>4.8826993169444</DistanceMeters>
          </Trackpoint>
          <Trackpoint>
            <Time>2019-07-06T13:14:41.000Z</Time>
            <Position>
              <LatitudeDegrees>42.5336875207722187042236328125</LatitudeDegrees>
              <LongitudeDegrees>-0.16808331012725830078125</LongitudeDegrees>
            </Position>
            <AltitudeMeters>1053.4000244140625</AltitudeMeters>
            <DistanceMeters>7.086827518036</DistanceMeters>
          </Trackpoint>
          <Trackpoint>
            <Time>2019-07-06T13:15:12.000Z</Time>
            <Position>
              <LatitudeDegrees>42.5336727686226367950439453125</LatitudeDegrees>
              <LongitudeDegrees>-0.1680895127356052398681640625</LongitudeDegrees>
            </Position>
            <AltitudeMeters>1053.800048828125</AltitudeMeters>
            <DistanceMeters>8.8078345121</DistanceMeters>
          </Trackpoint>
          <Trackpoint>
            <Time>2019-07-06T13:15:29.000Z</Time>
            <Position>
              <LatitudeDegrees>42.533707134425640106201171875</LatitudeDegrees>
              <LongitudeDegrees>-0.1680630259215831756591796875</LongitudeDegrees>
            </Position>
            <AltitudeMeters>1052.4000244140625</AltitudeMeters>
            <DistanceMeters>13.206863248014</DistanceMeters>
          </Trackpoint>
          <Trackpoint>
            <Time>2019-07-06T13:15:36.000Z</Time>
            <Position>
              <LatitudeDegrees>42.53373772837221622467041015625</LatitudeDegrees>
              <LongitudeDegrees>-0.16798884607851505279541015625</LongitudeDegrees>
            </Position>
            <AltitudeMeters>1052.199951171875</AltitudeMeters>
            <DistanceMeters>20.179519239403</DistanceMeters>
          </Trackpoint>
          <Trackpoint>
            <Time>2019-07-06T13:15:48.000Z</Time>
            <Position>
              <LatitudeDegrees>42.53377159126102924346923828125</LatitudeDegrees>
              <LongitudeDegrees>-0.16782355494797229766845703125</LongitudeDegrees>
            </Position>
            <AltitudeMeters>1052.4000244140625</AltitudeMeters>
            <DistanceMeters>34.249892225125</DistanceMeters>
          </Trackpoint>
          <Trackpoint>
            <Time>2019-07-06T13:15:51.000Z</Time>
            <Position>
              <LatitudeDegrees>42.53377846442162990570068359375</LatitudeDegrees>
              <LongitudeDegrees>-0.1677897758781909942626953125</LongitudeDegrees>
            </Position>
            <AltitudeMeters>1052.4000244140625</AltitudeMeters>
            <DistanceMeters>37.124352165047</DistanceMeters>
          </Trackpoint>
          <Trackpoint>
            <Time>2019-07-06T13:15:56.000Z</Time>
            <Position>
              <LatitudeDegrees>42.53379992209374904632568359375</LatitudeDegrees>
              <LongitudeDegrees>-0.1677210442721843719482421875</LongitudeDegrees>
            </Position>
            <AltitudeMeters>1052.199951171875</AltitudeMeters>
            <DistanceMeters>43.246757519061</DistanceMeters>
          </Trackpoint>
          <Trackpoint>
            <Time>2019-07-06T13:15:57.000Z</Time>
            <Position>
              <LatitudeDegrees>42.533804364502429962158203125</LatitudeDegrees>
              <LongitudeDegrees>-0.1677059568464756011962890625</LongitudeDegrees>
            </Position>
            <AltitudeMeters>1052</AltitudeMeters>
            <DistanceMeters>44.577131520241</DistanceMeters>
          </Trackpoint>
          <Trackpoint>
            <Time>2019-07-06T13:16:00.000Z</Time>
            <Position>
              <LatitudeDegrees>42.53381031565368175506591796875</LatitudeDegrees>
              <LongitudeDegrees>-0.1676539890468120574951171875</LongitudeDegrees>
            </Position>
            <AltitudeMeters>1051.5999755859375</AltitudeMeters>
            <DistanceMeters>48.891176901433</DistanceMeters>
          </Trackpoint>
          <Trackpoint>
            <Time>2019-07-06T13:16:03.000Z</Time>
            <Position>
              <LatitudeDegrees>42.533817775547504425048828125</LatitudeDegrees>
              <LongitudeDegrees>-0.16759640537202358245849609375</LongitudeDegrees>
            </Position>
            <AltitudeMeters>1051.4000244140625</AltitudeMeters>
            <DistanceMeters>53.686967211982</DistanceMeters>
          </Trackpoint>
          <Trackpoint>
            <Time>2019-07-06T13:16:07.000Z</Time>
            <Position>
              <LatitudeDegrees>42.5338209606707096099853515625</LatitudeDegrees>
              <LongitudeDegrees>-0.1675267517566680908203125</LongitudeDegrees>
            </Position>
            <AltitudeMeters>1051.4000244140625</AltitudeMeters>
            <DistanceMeters>59.410700027084</DistanceMeters>
          </Trackpoint>
          <Trackpoint>
            <Time>2019-07-06T13:16:08.000Z</Time>
            <Position>
              <LatitudeDegrees>42.5338253192603588104248046875</LatitudeDegrees>
              <LongitudeDegrees>-0.1675118319690227508544921875</LongitudeDegrees>
            </Position>
            <AltitudeMeters>1051.199951171875</AltitudeMeters>
            <DistanceMeters>60.727428806005</DistanceMeters>
          </Trackpoint>
          <Trackpoint>
            <Time>2019-07-06T13:16:10.000Z</Time>
            <Position>
              <LatitudeDegrees>42.53382749855518341064453125</LatitudeDegrees>
              <LongitudeDegrees>-0.16747084446251392364501953125</LongitudeDegrees>
            </Position>
            <AltitudeMeters>1051</AltitudeMeters>
            <DistanceMeters>64.097864410863</DistanceMeters>
          </Trackpoint>
          <Trackpoint>
            <Time>2019-07-06T13:16:11.000Z</Time>
            <Position>
              <LatitudeDegrees>42.5338273309171199798583984375</LatitudeDegrees>
              <LongitudeDegrees>-0.167451985180377960205078125</LongitudeDegrees>
            </Position>
            <AltitudeMeters>1051</AltitudeMeters>
            <DistanceMeters>65.644787245928</DistanceMeters>
          </Trackpoint>
          <Trackpoint>
            <Time>2019-07-06T13:16:24.000Z</Time>
            <Position>
              <LatitudeDegrees>42.53384761512279510498046875</LatitudeDegrees>
              <LongitudeDegrees>-0.16726364381611347198486328125</LongitudeDegrees>
            </Position>
            <AltitudeMeters>1050.5999755859375</AltitudeMeters>
            <DistanceMeters>81.255799483114</DistanceMeters>
          </Trackpoint>
          <Trackpoint>
            <Time>2019-07-06T13:16:26.000Z</Time>
            <Position>
              <LatitudeDegrees>42.5338523089885711669921875</LatitudeDegrees>
              <LongitudeDegrees>-0.1672275178134441375732421875</LongitudeDegrees>
            </Position>
            <AltitudeMeters>1050.199951171875</AltitudeMeters>
            <DistanceMeters>84.265312180095</DistanceMeters>
          </Trackpoint>
          <Trackpoint>
            <Time>2019-07-06T13:16:37.000Z</Time>
            <Position>
              <LatitudeDegrees>42.533843256533145904541015625</LatitudeDegrees>
              <LongitudeDegrees>-0.16706448979675769805908203125</LongitudeDegrees>
            </Position>
            <AltitudeMeters>1049.199951171875</AltitudeMeters>
            <DistanceMeters>97.673847595985</DistanceMeters>
          </Trackpoint>
          <Trackpoint>
            <Time>2019-07-06T13:16:38.000Z</Time>
            <Position>
              <LatitudeDegrees>42.53384149633347988128662109375</LatitudeDegrees>
              <LongitudeDegrees>-0.1670498214662075042724609375</LongitudeDegrees>
            </Position>
            <AltitudeMeters>1049.199951171875</AltitudeMeters>
            <DistanceMeters>98.890783311957</DistanceMeters>
          </Trackpoint>
          <Trackpoint>
            <Time>2019-07-06T13:16:47.000Z</Time>
            <Position>
              <LatitudeDegrees>42.53380746580660343170166015625</LatitudeDegrees>
              <LongitudeDegrees>-0.16689366661012172698974609375</LongitudeDegrees>
            </Position>
            <AltitudeMeters>1048.5999755859375</AltitudeMeters>
            <DistanceMeters>112.2463476953</DistanceMeters>
          </Trackpoint>
          <Trackpoint>
            <Time>2019-07-06T13:16:52.000Z</Time>
            <Position>
              <LatitudeDegrees>42.53380461595952510833740234375</LatitudeDegrees>
              <LongitudeDegrees>-0.1668141223490238189697265625</LongitudeDegrees>
            </Position>
            <AltitudeMeters>1048.199951171875</AltitudeMeters>
            <DistanceMeters>118.77766311573</DistanceMeters>
          </Trackpoint>
          <Trackpoint>
            <Time>2019-07-06T13:16:58.000Z</Time>
            <Position>
              <LatitudeDegrees>42.5337924621999263763427734375</LatitudeDegrees>
              <LongitudeDegrees>-0.16671001911163330078125</LongitudeDegrees>
            </Position>
            <AltitudeMeters>1048</AltitudeMeters>
            <DistanceMeters>127.42196080691</DistanceMeters>
          </Trackpoint>
          <Trackpoint>
            <Time>2019-07-06T13:17:11.000Z</Time>
            <Position>
              <LatitudeDegrees>42.53381417132914066314697265625</LatitudeDegrees>
              <LongitudeDegrees>-0.16650675795972347259521484375</LongitudeDegrees>
            </Position>
            <AltitudeMeters>1048</AltitudeMeters>
            <DistanceMeters>144.26663539629</DistanceMeters>
          </Trackpoint>
          <Trackpoint>
            <Time>2019-07-06T13:17:15.000Z</Time>
            <Position>
              <LatitudeDegrees>42.53383730538189411163330078125</LatitudeDegrees>
              <LongitudeDegrees>-0.1664547063410282135009765625</LongitudeDegrees>
            </Position>
            <AltitudeMeters>1047.800048828125</AltitudeMeters>
            <DistanceMeters>149.25169009747</DistanceMeters>
          </Trackpoint>
          <Trackpoint>
            <Time>2019-07-06T13:17:17.000Z</Time>
            <Position>
              <LatitudeDegrees>42.5338638760149478912353515625</LatitudeDegrees>
              <LongitudeDegrees>-0.1664433069527149200439453125</LongitudeDegrees>
            </Position>
            <AltitudeMeters>1047.800048828125</AltitudeMeters>
            <DistanceMeters>152.35427957874</DistanceMeters>
          </Trackpoint>
          <Trackpoint>
            <Time>2019-07-06T13:17:20.000Z</Time>
            <Position>
              <LatitudeDegrees>42.5338799692690372467041015625</LatitudeDegrees>
              <LongitudeDegrees>-0.16647038049995899200439453125</LongitudeDegrees>
            </Position>
            <AltitudeMeters>1047.5999755859375</AltitudeMeters>
            <DistanceMeters>155.20824680918</DistanceMeters>
          </Trackpoint>
          <Trackpoint>
            <Time>2019-07-06T13:17:23.000Z</Time>
            <Position>
              <LatitudeDegrees>42.53387334756553173065185546875</LatitudeDegrees>
              <LongitudeDegrees>-0.16650675795972347259521484375</LongitudeDegrees>
            </Position>
            <AltitudeMeters>1047.199951171875</AltitudeMeters>
            <DistanceMeters>158.28453029957</DistanceMeters>
          </Trackpoint>
          <Trackpoint>
            <Time>2019-07-06T13:17:25.000Z</Time>
            <Position>
              <LatitudeDegrees>42.53386798314750194549560546875</LatitudeDegrees>
              <LongitudeDegrees>-0.16652955673635005950927734375</LongitudeDegrees>
            </Position>
            <AltitudeMeters>1047</AltitudeMeters>
            <DistanceMeters>160.25045825299</DistanceMeters>
          </Trackpoint>
          <Trackpoint>
            <Time>2019-07-06T13:17:29.000Z</Time>
            <Position>
              <LatitudeDegrees>42.5338544882833957672119140625</LatitudeDegrees>
              <LongitudeDegrees>-0.16660482622683048248291015625</LongitudeDegrees>
            </Position>
            <AltitudeMeters>1046.4000244140625</AltitudeMeters>
            <DistanceMeters>166.60375989107</DistanceMeters>
          </Trackpoint>
          <Trackpoint>
            <Time>2019-07-06T13:17:31.000Z</Time>
            <Position>
              <LatitudeDegrees>42.5338504649698734283447265625</LatitudeDegrees>
              <LongitudeDegrees>-0.166637934744358062744140625</LongitudeDegrees>
            </Position>
            <AltitudeMeters>1046</AltitudeMeters>
            <DistanceMeters>169.35625587408</DistanceMeters>
          </Trackpoint>
          <Trackpoint>
            <Time>2019-07-06T13:17:39.000Z</Time>
            <Position>
              <LatitudeDegrees>42.533868737518787384033203125</LatitudeDegrees>
              <LongitudeDegrees>-0.1667775772511959075927734375</LongitudeDegrees>
            </Position>
            <AltitudeMeters>1044.800048828125</AltitudeMeters>
            <DistanceMeters>180.98839520596</DistanceMeters>
          </Trackpoint>
          <Trackpoint>
            <Time>2019-07-06T13:17:46.000Z</Time>
            <Position>
              <LatitudeDegrees>42.5339047797024250030517578125</LatitudeDegrees>
              <LongitudeDegrees>-0.16688645817339420318603515625</LongitudeDegrees>
            </Position>
            <AltitudeMeters>1043.800048828125</AltitudeMeters>
            <DistanceMeters>190.77753057244</DistanceMeters>
          </Trackpoint>
          <Trackpoint>
            <Time>2019-07-06T13:17:47.000Z</Time>
            <Position>
              <LatitudeDegrees>42.53391827456653118133544921875</LatitudeDegrees>
              <LongitudeDegrees>-0.1668969355523586273193359375</LongitudeDegrees>
            </Position>
            <AltitudeMeters>1043.800048828125</AltitudeMeters>
            <DistanceMeters>192.50899971146</DistanceMeters>
          </Trackpoint>
          <Trackpoint>
            <Time>2019-07-06T13:17:50.000Z</Time>
            <Position>
              <LatitudeDegrees>42.53393738530576229095458984375</LatitudeDegrees>
              <LongitudeDegrees>-0.1669385097920894622802734375</LongitudeDegrees>
            </Position>
            <AltitudeMeters>1043.199951171875</AltitudeMeters>
            <DistanceMeters>196.52718047915</DistanceMeters>
          </Trackpoint>
          <Trackpoint>
            <Time>2019-07-06T13:17:53.000Z</Time>
            <Position>
              <LatitudeDegrees>42.533953897655010223388671875</LatitudeDegrees>
              <LongitudeDegrees>-0.16698067076504230499267578125</LongitudeDegrees>
            </Position>
            <AltitudeMeters>1042.800048828125</AltitudeMeters>
            <DistanceMeters>200.44292687056</DistanceMeters>
          </Trackpoint>
          <Trackpoint>
            <Time>2019-07-06T13:18:01.000Z</Time>
            <Position>
              <LatitudeDegrees>42.53401064313948154449462890625</LatitudeDegrees>
              <LongitudeDegrees>-0.167068429291248321533203125</LongitudeDegrees>
            </Position>
            <AltitudeMeters>1041.800048828125</AltitudeMeters>
            <DistanceMeters>210.01896082457</DistanceMeters>
          </Trackpoint>
          <Trackpoint>
            <Time>2019-07-06T13:18:02.000Z</Time>
            <Position>
              <LatitudeDegrees>42.53401835449039936065673828125</LatitudeDegrees>
              <LongitudeDegrees>-0.1670746318995952606201171875</LongitudeDegrees>
            </Position>
            <AltitudeMeters>1041.5999755859375</AltitudeMeters>
            <DistanceMeters>211.02012938444</DistanceMeters>
          </Trackpoint>
          <Trackpoint>
            <Time>2019-07-06T13:18:11.000Z</Time>
            <Position>
              <LatitudeDegrees>42.53408054821193218231201171875</LatitudeDegrees>
              <LongitudeDegrees>-0.1671504043042659759521484375</LongitudeDegrees>
            </Position>
            <AltitudeMeters>1040.800048828125</AltitudeMeters>
            <DistanceMeters>220.32256038727</DistanceMeters>
          </Trackpoint>
          <Trackpoint>
            <Time>2019-07-06T13:18:16.000Z</Time>
            <Position>
              <LatitudeDegrees>42.5341136567294597625732421875</LatitudeDegrees>
              <LongitudeDegrees>-0.16720698215067386627197265625</LongitudeDegrees>
            </Position>
            <AltitudeMeters>1039.5999755859375</AltitudeMeters>
            <DistanceMeters>226.24783989242</DistanceMeters>
          </Trackpoint>
          <Trackpoint>
            <Time>2019-07-06T13:18:23.000Z</Time>
            <Position>
              <LatitudeDegrees>42.53419085405766963958740234375</LatitudeDegrees>
              <LongitudeDegrees>-0.16727303154766559600830078125</LongitudeDegrees>
            </Position>
            <AltitudeMeters>1038.4000244140625</AltitudeMeters>
            <DistanceMeters>236.40548004398</DistanceMeters>
          </Trackpoint>
          <Trackpoint>
            <Time>2019-07-06T13:18:24.000Z</Time>
            <Position>
              <LatitudeDegrees>42.53419898450374603271484375</LatitudeDegrees>
              <LongitudeDegrees>-0.167286694049835205078125</LongitudeDegrees>
            </Position>
            <AltitudeMeters>1038.199951171875</AltitudeMeters>
            <DistanceMeters>237.84663152183</DistanceMeters>
          </Trackpoint>
          <Trackpoint>
            <Time>2019-07-06T13:18:28.000Z</Time>
            <Position>
              <LatitudeDegrees>42.5342189334332942962646484375</LatitudeDegrees>
              <LongitudeDegrees>-0.16733841039240360260009765625</LongitudeDegrees>
            </Position>
            <AltitudeMeters>1037.199951171875</AltitudeMeters>
            <DistanceMeters>242.63394120627</DistanceMeters>
          </Trackpoint>
          <Trackpoint>
            <Time>2019-07-06T13:18:34.000Z</Time>
            <Position>
              <LatitudeDegrees>42.53428070805966854095458984375</LatitudeDegrees>
              <LongitudeDegrees>-0.16738367266952991485595703125</LongitudeDegrees>
            </Position>
            <AltitudeMeters>1036.199951171875</AltitudeMeters>
            <DistanceMeters>250.44754132642</DistanceMeters>
          </Trackpoint>
          <Trackpoint>
            <Time>2019-07-06T13:18:35.000Z</Time>
            <Position>
              <LatitudeDegrees>42.53429059870541095733642578125</LatitudeDegrees>
              <LongitudeDegrees>-0.1674001850187778472900390625</LongitudeDegrees>
            </Position>
            <AltitudeMeters>1036.199951171875</AltitudeMeters>
            <DistanceMeters>252.19199991338</DistanceMeters>
          </Trackpoint>
          <Trackpoint>
            <Time>2019-07-06T13:18:39.000Z</Time>
            <Position>
              <LatitudeDegrees>42.534309960901737213134765625</LatitudeDegrees>
              <LongitudeDegrees>-0.167458020150661468505859375</LongitudeDegrees>
            </Position>
            <AltitudeMeters>1035.4000244140625</AltitudeMeters>
            <DistanceMeters>257.40202964367</DistanceMeters>
          </Trackpoint>
          <Trackpoint>
            <Time>2019-07-06T13:18:42.000Z</Time>
            <Position>
              <LatitudeDegrees>42.53431859426200389862060546875</LatitudeDegrees>
              <LongitudeDegrees>-0.1674883626401424407958984375</LongitudeDegrees>
            </Position>
            <AltitudeMeters>1035</AltitudeMeters>
            <DistanceMeters>260.07124868944</DistanceMeters>
          </Trackpoint>
          <Trackpoint>
            <Time>2019-07-06T13:18:47.000Z</Time>
            <Position>
              <LatitudeDegrees>42.53432798199355602264404296875</LatitudeDegrees>
              <LongitudeDegrees>-0.16754913143813610076904296875</LongitudeDegrees>
            </Position>
            <AltitudeMeters>1033.800048828125</AltitudeMeters>
            <DistanceMeters>265.16471603728</DistanceMeters>
          </Trackpoint>
          <Trackpoint>
            <Time>2019-07-06T13:18:53.000Z</Time>
            <Position>
              <LatitudeDegrees>42.53436435945332050323486328125</LatitudeDegrees>
              <LongitudeDegrees>-0.1676447689533233642578125</LongitudeDegrees>
            </Position>
            <AltitudeMeters>1033</AltitudeMeters>
            <DistanceMeters>273.99146513071</DistanceMeters>
          </Trackpoint>
          <Trackpoint>
            <Time>2019-07-06T13:18:55.000Z</Time>
            <Position>
              <LatitudeDegrees>42.53437659703195095062255859375</LatitudeDegrees>
              <LongitudeDegrees>-0.16767519526183605194091796875</LongitudeDegrees>
            </Position>
            <AltitudeMeters>1032.800048828125</AltitudeMeters>
            <DistanceMeters>276.83274799957</DistanceMeters>
          </Trackpoint>
          <Trackpoint>
            <Time>2019-07-06T13:18:56.000Z</Time>
            <Position>
              <LatitudeDegrees>42.534379027783870697021484375</LatitudeDegrees>
              <LongitudeDegrees>-0.16768969595432281494140625</LongitudeDegrees>
            </Position>
            <AltitudeMeters>1032.5999755859375</AltitudeMeters>
            <DistanceMeters>278.04596787262</DistanceMeters>
          </Trackpoint>
          <Trackpoint>
            <Time>2019-07-06T13:19:01.000Z</Time>
            <Position>
              <LatitudeDegrees>42.5343815423548221588134765625</LatitudeDegrees>
              <LongitudeDegrees>-0.16775499098002910614013671875</LongitudeDegrees>
            </Position>
            <AltitudeMeters>1032.4000244140625</AltitudeMeters>
            <DistanceMeters>283.40803495515</DistanceMeters>
          </Trackpoint>
          <Trackpoint>
            <Time>2019-07-06T13:19:10.000Z</Time>
            <Position>
              <LatitudeDegrees>42.534425295889377593994140625</LatitudeDegrees>
              <LongitudeDegrees>-0.16789932735264301300048828125</LongitudeDegrees>
            </Position>
            <AltitudeMeters>1032.4000244140625</AltitudeMeters>
            <DistanceMeters>296.20810163463</DistanceMeters>
          </Trackpoint>
          <Trackpoint>
            <Time>2019-07-06T13:19:24.000Z</Time>
            <Position>
              <LatitudeDegrees>42.53442831337451934814453125</LatitudeDegrees>
              <LongitudeDegrees>-0.168144665658473968505859375</LongitudeDegrees>
            </Position>
            <AltitudeMeters>1032.199951171875</AltitudeMeters>
            <DistanceMeters>316.33223809707</DistanceMeters>
          </Trackpoint>
          <Trackpoint>
            <Time>2019-07-06T13:19:31.000Z</Time>
            <Position>
              <LatitudeDegrees>42.534424960613250732421875</LatitudeDegrees>
              <LongitudeDegrees>-0.1682455837726593017578125</LongitudeDegrees>
            </Position>
            <AltitudeMeters>1032.199951171875</AltitudeMeters>
            <DistanceMeters>324.61756495405</DistanceMeters>
          </Trackpoint>
          <Trackpoint>
            <Time>2019-07-06T13:19:45.000Z</Time>
            <Position>
              <LatitudeDegrees>42.5344133935868740081787109375</LatitudeDegrees>
              <LongitudeDegrees>-0.16848027706146240234375</LongitudeDegrees>
            </Position>
            <AltitudeMeters>1031.800048828125</AltitudeMeters>
            <DistanceMeters>343.9091582154</DistanceMeters>
          </Trackpoint>
          <Trackpoint>
            <Time>2019-07-06T13:20:01.000Z</Time>
            <Position>
              <LatitudeDegrees>42.53437592647969722747802734375</LatitudeDegrees>
              <LongitudeDegrees>-0.16872393898665904998779296875</LongitudeDegrees>
            </Position>
            <AltitudeMeters>1030.800048828125</AltitudeMeters>
            <DistanceMeters>364.3237629885</DistanceMeters>
          </Trackpoint>
          <Trackpoint>
            <Time>2019-07-06T13:20:06.000Z</Time>
            <Position>
              <LatitudeDegrees>42.5343627668917179107666015625</LatitudeDegrees>
              <LongitudeDegrees>-0.16876794397830963134765625</LongitudeDegrees>
            </Position>
            <AltitudeMeters>1030.800048828125</AltitudeMeters>
            <DistanceMeters>368.21985827767</DistanceMeters>
          </Trackpoint>
          <Trackpoint>
            <Time>2019-07-06T13:20:08.000Z</Time>
            <Position>
              <LatitudeDegrees>42.5343688018620014190673828125</LatitudeDegrees>
              <LongitudeDegrees>-0.1687788404524326324462890625</LongitudeDegrees>
            </Position>
            <AltitudeMeters>1030.800048828125</AltitudeMeters>
            <DistanceMeters>369.33616941228</DistanceMeters>
          </Trackpoint>
          <Trackpoint>
            <Time>2019-07-06T13:20:10.000Z</Time>
            <Position>
              <LatitudeDegrees>42.53437978215515613555908203125</LatitudeDegrees>
              <LongitudeDegrees>-0.168794430792331695556640625</LongitudeDegrees>
            </Position>
            <AltitudeMeters>1030.5999755859375</AltitudeMeters>
            <DistanceMeters>371.10376847587</DistanceMeters>
          </Trackpoint>
          <Trackpoint>
            <Time>2019-07-06T13:20:12.000Z</Time>
            <Position>
              <LatitudeDegrees>42.53438414074480533599853515625</LatitudeDegrees>
              <LongitudeDegrees>-0.168799795210361480712890625</LongitudeDegrees>
            </Position>
            <AltitudeMeters>1030.4000244140625</AltitudeMeters>
            <DistanceMeters>371.76213286533</DistanceMeters>
          </Trackpoint>
          <Trackpoint>
            <Time>2019-07-06T13:20:14.000Z</Time>
            <Position>
              <LatitudeDegrees>42.53438942134380340576171875</LatitudeDegrees>
              <LongitudeDegrees>-0.16880976967513561248779296875</LongitudeDegrees>
            </Position>
            <AltitudeMeters>1030.4000244140625</AltitudeMeters>
            <DistanceMeters>372.76780108186</DistanceMeters>
          </Trackpoint>
          <Trackpoint>
            <Time>2019-07-06T13:20:19.000Z</Time>
            <Position>
              <LatitudeDegrees>42.53442697227001190185546875</LatitudeDegrees>
              <LongitudeDegrees>-0.16883038915693759918212890625</LongitudeDegrees>
            </Position>
            <AltitudeMeters>1029.800048828125</AltitudeMeters>
            <DistanceMeters>377.27631547967</DistanceMeters>
          </Trackpoint>
          <Trackpoint>
            <Time>2019-07-06T13:20:20.000Z</Time>
            <Position>
              <LatitudeDegrees>42.53443426452577114105224609375</LatitudeDegrees>
              <LongitudeDegrees>-0.16883307136595249176025390625</LongitudeDegrees>
            </Position>
            <AltitudeMeters>1029.5999755859375</AltitudeMeters>
            <DistanceMeters>378.1155686969</DistanceMeters>
          </Trackpoint>
          <Trackpoint>
            <Time>2019-07-06T13:20:27.000Z</Time>
            <Position>
              <LatitudeDegrees>42.53448002971708774566650390625</LatitudeDegrees>
              <LongitudeDegrees>-0.16885737888514995574951171875</LongitudeDegrees>
            </Position>
            <AltitudeMeters>1028.5999755859375</AltitudeMeters>
            <DistanceMeters>383.586004999</DistanceMeters>
          </Trackpoint>
          <Trackpoint>
            <Time>2019-07-06T13:20:28.000Z</Time>
            <Position>
              <LatitudeDegrees>42.53449092619121074676513671875</LatitudeDegrees>
              <LongitudeDegrees>-0.16886316239833831787109375</LongitudeDegrees>
            </Position>
            <AltitudeMeters>1028.4000244140625</AltitudeMeters>
            <DistanceMeters>384.88547577397</DistanceMeters>
          </Trackpoint>
          <Trackpoint>
            <Time>2019-07-06T13:20:31.000Z</Time>
            <Position>
              <LatitudeDegrees>42.53453182987868785858154296875</LatitudeDegrees>
              <LongitudeDegrees>-0.16885553486645221710205078125</LongitudeDegrees>
            </Position>
            <AltitudeMeters>1027.800048828125</AltitudeMeters>
            <DistanceMeters>389.48029010384</DistanceMeters>
          </Trackpoint>
          <Trackpoint>
            <Time>2019-07-06T13:20:32.000Z</Time>
            <Position>
              <LatitudeDegrees>42.53454289399087429046630859375</LatitudeDegrees>
              <LongitudeDegrees>-0.16885871998965740203857421875</LongitudeDegrees>
            </Position>
            <AltitudeMeters>1027.5999755859375</AltitudeMeters>
            <DistanceMeters>390.74096193034</DistanceMeters>
          </Trackpoint>
          <Trackpoint>
            <Time>2019-07-06T13:20:35.000Z</Time>
            <Position>
              <LatitudeDegrees>42.53453350625932216644287109375</LatitudeDegrees>
              <LongitudeDegrees>-0.16892359592020511627197265625</LongitudeDegrees>
            </Position>
            <AltitudeMeters>1027</AltitudeMeters>
            <DistanceMeters>396.16331648363</DistanceMeters>
          </Trackpoint>
          <Trackpoint>
            <Time>2019-07-06T13:20:37.000Z</Time>
            <Position>
              <LatitudeDegrees>42.53453535027801990509033203125</LatitudeDegrees>
              <LongitudeDegrees>-0.1689468137919902801513671875</LongitudeDegrees>
            </Position>
            <AltitudeMeters>1027</AltitudeMeters>
            <DistanceMeters>398.08040832094</DistanceMeters>
          </Trackpoint>
          <Trackpoint>
            <Time>2019-07-06T13:20:39.000Z</Time>
            <Position>
              <LatitudeDegrees>42.53453853540122509002685546875</LatitudeDegrees>
              <LongitudeDegrees>-0.16897288151085376739501953125</LongitudeDegrees>
            </Position>
            <AltitudeMeters>1026.800048828125</AltitudeMeters>
            <DistanceMeters>400.24735080999</DistanceMeters>
          </Trackpoint>
          <Trackpoint>
            <Time>2019-07-06T13:20:42.000Z</Time>
            <Position>
              <LatitudeDegrees>42.53450249321758747100830078125</LatitudeDegrees>
              <LongitudeDegrees>-0.16904396004974842071533203125</LongitudeDegrees>
            </Position>
            <AltitudeMeters>1026.4000244140625</AltitudeMeters>
            <DistanceMeters>407.32349198169</DistanceMeters>
          </Trackpoint>
          <Trackpoint>
            <Time>2019-07-06T13:20:44.000Z</Time>
            <Position>
              <LatitudeDegrees>42.53451104275882244110107421875</LatitudeDegrees>
              <LongitudeDegrees>-0.1690775714814662933349609375</LongitudeDegrees>
            </Position>
            <AltitudeMeters>1026.199951171875</AltitudeMeters>
            <DistanceMeters>410.24005365774</DistanceMeters>
          </Trackpoint>
          <Trackpoint>
            <Time>2019-07-06T13:20:46.000Z</Time>
            <Position>
              <LatitudeDegrees>42.534548342227935791015625</LatitudeDegrees>
              <LongitudeDegrees>-0.16909307800233364105224609375</LongitudeDegrees>
            </Position>
            <AltitudeMeters>1025.800048828125</AltitudeMeters>
            <DistanceMeters>414.58226503156</DistanceMeters>
          </Trackpoint>
          <Trackpoint>
            <Time>2019-07-06T13:20:47.000Z</Time>
            <Position>
              <LatitudeDegrees>42.53455638885498046875</LatitudeDegrees>
              <LongitudeDegrees>-0.16910900361835956573486328125</LongitudeDegrees>
            </Position>
            <AltitudeMeters>1025.800048828125</AltitudeMeters>
            <DistanceMeters>416.16667698917</DistanceMeters>
          </Trackpoint>
          <Trackpoint>
            <Time>2019-07-06T13:20:51.000Z</Time>
            <Position>
              <LatitudeDegrees>42.5345625914633274078369140625</LatitudeDegrees>
              <LongitudeDegrees>-0.16918293200433254241943359375</LongitudeDegrees>
            </Position>
            <AltitudeMeters>1025.4000244140625</AltitudeMeters>
            <DistanceMeters>422.2683984822</DistanceMeters>
          </Trackpoint>
          <Trackpoint>
            <Time>2019-07-06T13:20:52.000Z</Time>
            <Position>
              <LatitudeDegrees>42.53456150181591510772705078125</LatitudeDegrees>
              <LongitudeDegrees>-0.169198103249073028564453125</LongitudeDegrees>
            </Position>
            <AltitudeMeters>1025.4000244140625</AltitudeMeters>
            <DistanceMeters>423.52188693497</DistanceMeters>
          </Trackpoint>
          <Trackpoint>
            <Time>2019-07-06T13:20:53.000Z</Time>
            <Position>
              <LatitudeDegrees>42.53456108272075653076171875</LatitudeDegrees>
              <LongitudeDegrees>-0.1692096702754497528076171875</LongitudeDegrees>
            </Position>
            <AltitudeMeters>1025.199951171875</AltitudeMeters>
            <DistanceMeters>424.47215407867</DistanceMeters>
          </Trackpoint>
          <Trackpoint>
            <Time>2019-07-06T13:20:55.000Z</Time>
            <Position>
              <LatitudeDegrees>42.534550689160823822021484375</LatitudeDegrees>
              <LongitudeDegrees>-0.16922567971050739288330078125</LongitudeDegrees>
            </Position>
            <AltitudeMeters>1025</AltitudeMeters>
            <DistanceMeters>426.21919896592</DistanceMeters>
          </Trackpoint>
          <Trackpoint>
            <Time>2019-07-06T13:21:04.000Z</Time>
            <Position>
              <LatitudeDegrees>42.53453317098319530487060546875</LatitudeDegrees>
              <LongitudeDegrees>-0.16935241408646106719970703125</LongitudeDegrees>
            </Position>
            <AltitudeMeters>1024.4000244140625</AltitudeMeters>
            <DistanceMeters>436.79452386676</DistanceMeters>
          </Trackpoint>
          <Trackpoint>
            <Time>2019-07-06T13:21:23.000Z</Time>
            <Position>
              <LatitudeDegrees>42.53451548516750335693359375</LatitudeDegrees>
              <LongitudeDegrees>-0.16959766857326030731201171875</LongitudeDegrees>
            </Position>
            <AltitudeMeters>1023.5999755859375</AltitudeMeters>
            <DistanceMeters>457.00507749268</DistanceMeters>
          </Trackpoint>
          <Trackpoint>
            <Time>2019-07-06T13:21:25.000Z</Time>
            <Position>
              <LatitudeDegrees>42.53451875410974025726318359375</LatitudeDegrees>
              <LongitudeDegrees>-0.16962583176791667938232421875</LongitudeDegrees>
            </Position>
            <AltitudeMeters>1023.5999755859375</AltitudeMeters>
            <DistanceMeters>459.34435651089</DistanceMeters>
          </Trackpoint>
          <Trackpoint>
            <Time>2019-07-06T13:21:28.000Z</Time>
            <Position>
              <LatitudeDegrees>42.53450349904596805572509765625</LatitudeDegrees>
              <LongitudeDegrees>-0.1696156896650791168212890625</LongitudeDegrees>
            </Position>
            <AltitudeMeters>1023.79998779296875</AltitudeMeters>
            <DistanceMeters>461.23536425065</DistanceMeters>
          </Trackpoint>
          <Trackpoint>
            <Time>2019-07-06T13:21:31.000Z</Time>
            <Position>
              <LatitudeDegrees>42.53449277020990848541259765625</LatitudeDegrees>
              <LongitudeDegrees>-0.16960420645773410797119140625</LongitudeDegrees>
            </Position>
            <AltitudeMeters>1024</AltitudeMeters>
            <DistanceMeters>462.75579168057</DistanceMeters>
          </Trackpoint>
          <Trackpoint>
            <Time>2019-07-06T13:21:37.000Z</Time>
            <Position>
              <LatitudeDegrees>42.53451573662459850311279296875</LatitudeDegrees>
              <LongitudeDegrees>-0.16965248622000217437744140625</LongitudeDegrees>
            </Position>
            <AltitudeMeters>1023.79998779296875</AltitudeMeters>
            <DistanceMeters>467.46896344193</DistanceMeters>
          </Trackpoint>
          <Trackpoint>
            <Time>2019-07-06T13:21:39.000Z</Time>
            <Position>
              <LatitudeDegrees>42.5345183350145816802978515625</LatitudeDegrees>
              <LongitudeDegrees>-0.16967855393886566162109375</LongitudeDegrees>
            </Position>
            <AltitudeMeters>1023.5999755859375</AltitudeMeters>
            <DistanceMeters>469.62755544717</DistanceMeters>
          </Trackpoint>
          <Trackpoint>
            <Time>2019-07-06T13:21:43.000Z</Time>
            <Position>
              <LatitudeDegrees>42.53451875410974025726318359375</LatitudeDegrees>
              <LongitudeDegrees>-0.16974301077425479888916015625</LongitudeDegrees>
            </Position>
            <AltitudeMeters>1023.4000244140625</AltitudeMeters>
            <DistanceMeters>474.91500442286</DistanceMeters>
          </Trackpoint>
          <Trackpoint>
            <Time>2019-07-06T13:21:44.000Z</Time>
            <Position>
              <LatitudeDegrees>42.53451154567301273345947265625</LatitudeDegrees>
              <LongitudeDegrees>-0.1697556674480438232421875</LongitudeDegrees>
            </Position>
            <AltitudeMeters>1023.20001220703125</AltitudeMeters>
            <DistanceMeters>476.22485728648</DistanceMeters>
          </Trackpoint>
          <Trackpoint>
            <Time>2019-07-06T13:21:55.000Z</Time>
            <Position>
              <LatitudeDegrees>42.53448472358286380767822265625</LatitudeDegrees>
              <LongitudeDegrees>-0.16994367353618144989013671875</LongitudeDegrees>
            </Position>
            <AltitudeMeters>1022</AltitudeMeters>
            <DistanceMeters>491.93044763334</DistanceMeters>
          </Trackpoint>
          <Trackpoint>
            <Time>2019-07-06T13:22:00.000Z</Time>
            <Position>
              <LatitudeDegrees>42.53448254428803920745849609375</LatitudeDegrees>
              <LongitudeDegrees>-0.17001911066472530364990234375</LongitudeDegrees>
            </Position>
            <AltitudeMeters>1021.4000244140625</AltitudeMeters>
            <DistanceMeters>498.12178630156</DistanceMeters>
          </Trackpoint>
          <Trackpoint>
            <Time>2019-07-06T13:22:03.000Z</Time>
            <Position>
              <LatitudeDegrees>42.534485645592212677001953125</LatitudeDegrees>
              <LongitudeDegrees>-0.17007878981530666351318359375</LongitudeDegrees>
            </Position>
            <AltitudeMeters>1021</AltitudeMeters>
            <DistanceMeters>503.02833129774</DistanceMeters>
          </Trackpoint>
          <Trackpoint>
            <Time>2019-07-06T13:22:14.000Z</Time>
            <Position>
              <LatitudeDegrees>42.53448924981057643890380859375</LatitudeDegrees>
              <LongitudeDegrees>-0.17025698907673358917236328125</LongitudeDegrees>
            </Position>
            <AltitudeMeters>1020</AltitudeMeters>
            <DistanceMeters>517.64886376347</DistanceMeters>
          </Trackpoint>
          <Trackpoint>
            <Time>2019-07-06T13:22:23.000Z</Time>
            <Position>
              <LatitudeDegrees>42.534517161548137664794921875</LatitudeDegrees>
              <LongitudeDegrees>-0.17038003541529178619384765625</LongitudeDegrees>
            </Position>
            <AltitudeMeters>1019</AltitudeMeters>
            <DistanceMeters>528.20795244827</DistanceMeters>
          </Trackpoint>
          <Trackpoint>
            <Time>2019-07-06T13:22:32.000Z</Time>
            <Position>
              <LatitudeDegrees>42.53452294506132602691650390625</LatitudeDegrees>
              <LongitudeDegrees>-0.17049084417521953582763671875</LongitudeDegrees>
            </Position>
            <AltitudeMeters>1018</AltitudeMeters>
            <DistanceMeters>537.31863094511</DistanceMeters>
          </Trackpoint>
          <Trackpoint>
            <Time>2019-07-06T13:22:33.000Z</Time>
            <Position>
              <LatitudeDegrees>42.53451992757618427276611328125</LatitudeDegrees>
              <LongitudeDegrees>-0.17049486748874187469482421875</LongitudeDegrees>
            </Position>
            <AltitudeMeters>1018</AltitudeMeters>
            <DistanceMeters>537.79376451696</DistanceMeters>
          </Trackpoint>
          <Trackpoint>
            <Time>2019-07-06T13:22:36.000Z</Time>
            <Position>
              <LatitudeDegrees>42.534503750503063201904296875</LatitudeDegrees>
              <LongitudeDegrees>-0.17050391994416713714599609375</LongitudeDegrees>
            </Position>
            <AltitudeMeters>1017.79998779296875</AltitudeMeters>
            <DistanceMeters>539.74123264416</DistanceMeters>
          </Trackpoint>
          <Trackpoint>
            <Time>2019-07-06T13:22:53.000Z</Time>
            <Position>
              <LatitudeDegrees>42.53451640717685222625732421875</LatitudeDegrees>
              <LongitudeDegrees>-0.1704959571361541748046875</LongitudeDegrees>
            </Position>
            <AltitudeMeters>1017.4000244140625</AltitudeMeters>
            <DistanceMeters>541.29107145323</DistanceMeters>
          </Trackpoint>
          <Trackpoint>
            <Time>2019-07-06T13:22:57.000Z</Time>
            <Position>
              <LatitudeDegrees>42.5345243699848651885986328125</LatitudeDegrees>
              <LongitudeDegrees>-0.1704951189458370208740234375</LongitudeDegrees>
            </Position>
            <AltitudeMeters>1017.5999755859375</AltitudeMeters>
            <DistanceMeters>542.1825010506</DistanceMeters>
          </Trackpoint>
          <Trackpoint>
            <Time>2019-07-06T13:23:23.000Z</Time>
            <Position>
              <LatitudeDegrees>42.53455848433077335357666015625</LatitudeDegrees>
              <LongitudeDegrees>-0.17050140537321567535400390625</LongitudeDegrees>
            </Position>
            <AltitudeMeters>1018</AltitudeMeters>
            <DistanceMeters>546.01432885178</DistanceMeters>
          </Trackpoint>
          <Trackpoint>
            <Time>2019-07-06T13:23:26.000Z</Time>
            <Position>
              <LatitudeDegrees>42.5345602445304393768310546875</LatitudeDegrees>
              <LongitudeDegrees>-0.17050039954483509063720703125</LongitudeDegrees>
            </Position>
            <AltitudeMeters>1018</AltitudeMeters>
            <DistanceMeters>546.22681504479</DistanceMeters>
          </Trackpoint>
          <Trackpoint>
            <Time>2019-07-06T13:23:27.000Z</Time>
            <Position>
              <LatitudeDegrees>42.534558065235614776611328125</LatitudeDegrees>
              <LongitudeDegrees>-0.170500315725803375244140625</LongitudeDegrees>
            </Position>
            <AltitudeMeters>1018</AltitudeMeters>
            <DistanceMeters>546.45958200693</DistanceMeters>
          </Trackpoint>
          <Trackpoint>
            <Time>2019-07-06T13:23:28.000Z</Time>
            <Position>
              <LatitudeDegrees>42.53455496393144130706787109375</LatitudeDegrees>
              <LongitudeDegrees>-0.1705004833638668060302734375</LongitudeDegrees>
            </Position>
            <AltitudeMeters>1018</AltitudeMeters>
            <DistanceMeters>546.80220569813</DistanceMeters>
          </Trackpoint>
          <Trackpoint>
            <Time>2019-07-06T13:23:31.000Z</Time>
            <Position>
              <LatitudeDegrees>42.53454457037150859832763671875</LatitudeDegrees>
              <LongitudeDegrees>-0.1704986393451690673828125</LongitudeDegrees>
            </Position>
            <AltitudeMeters>1018.20001220703125</AltitudeMeters>
            <DistanceMeters>547.96604050883</DistanceMeters>
          </Trackpoint>
          <Trackpoint>
            <Time>2019-07-06T13:23:57.000Z</Time>
            <Position>
              <LatitudeDegrees>42.53455798141658306121826171875</LatitudeDegrees>
              <LongitudeDegrees>-0.17050961963832378387451171875</LongitudeDegrees>
            </Position>
            <AltitudeMeters>1017.79998779296875</AltitudeMeters>
            <DistanceMeters>549.71049909578</DistanceMeters>
          </Trackpoint>
          <Trackpoint>
            <Time>2019-07-06T13:24:00.000Z</Time>
            <Position>
              <LatitudeDegrees>42.534591592848300933837890625</LatitudeDegrees>
              <LongitudeDegrees>-0.17051833681762218475341796875</LongitudeDegrees>
            </Position>
            <AltitudeMeters>1018.20001220703125</AltitudeMeters>
            <DistanceMeters>553.51868800509</DistanceMeters>
          </Trackpoint>
          <Trackpoint>
            <Time>2019-07-06T13:24:03.000Z</Time>
            <Position>
              <LatitudeDegrees>42.53459905274212360382080078125</LatitudeDegrees>
              <LongitudeDegrees>-0.170519091188907623291015625</LongitudeDegrees>
            </Position>
            <AltitudeMeters>1017.5999755859375</AltitudeMeters>
            <DistanceMeters>554.35794122232</DistanceMeters>
          </Trackpoint>
          <Trackpoint>
            <Time>2019-07-06T13:24:29.000Z</Time>
            <Position>
              <LatitudeDegrees>42.53462352789938449859619140625</LatitudeDegrees>
              <LongitudeDegrees>-0.170523785054683685302734375</LongitudeDegrees>
            </Position>
            <AltitudeMeters>1017.20001220703125</AltitudeMeters>
            <DistanceMeters>557.108796373</DistanceMeters>
          </Trackpoint>
          <Trackpoint>
            <Time>2019-07-06T13:24:34.000Z</Time>
            <Position>
              <LatitudeDegrees>42.53461799584329128265380859375</LatitudeDegrees>
              <LongitudeDegrees>-0.1705454103648662567138671875</LongitudeDegrees>
            </Position>
            <AltitudeMeters>1017</AltitudeMeters>
            <DistanceMeters>558.98782800914</DistanceMeters>
          </Trackpoint>
          <Trackpoint>
            <Time>2019-07-06T13:24:36.000Z</Time>
            <Position>
              <LatitudeDegrees>42.5346232764422893524169921875</LatitudeDegrees>
              <LongitudeDegrees>-0.17056561075150966644287109375</LongitudeDegrees>
            </Position>
            <AltitudeMeters>1016.79998779296875</AltitudeMeters>
            <DistanceMeters>560.74518003529</DistanceMeters>
          </Trackpoint>
          <Trackpoint>
            <Time>2019-07-06T13:24:40.000Z</Time>
            <Position>
              <LatitudeDegrees>42.5346319936215877532958984375</LatitudeDegrees>
              <LongitudeDegrees>-0.17056812532246112823486328125</LongitudeDegrees>
            </Position>
            <AltitudeMeters>1016.5999755859375</AltitudeMeters>
            <DistanceMeters>561.74182862373</DistanceMeters>
          </Trackpoint>
          <Trackpoint>
            <Time>2019-07-06T13:24:43.000Z</Time>
            <Position>
              <LatitudeDegrees>42.5346175767481327056884765625</LatitudeDegrees>
              <LongitudeDegrees>-0.1705430634319782257080078125</LongitudeDegrees>
            </Position>
            <AltitudeMeters>1016.79998779296875</AltitudeMeters>
            <DistanceMeters>564.34944200809</DistanceMeters>
          </Trackpoint>
          <Trackpoint>
            <Time>2019-07-06T13:24:52.000Z</Time>
            <Position>
              <LatitudeDegrees>42.53462604247033596038818359375</LatitudeDegrees>
              <LongitudeDegrees>-0.1705455780029296875</LongitudeDegrees>
            </Position>
            <AltitudeMeters>1016.79998779296875</AltitudeMeters>
            <DistanceMeters>565.31385782802</DistanceMeters>
          </Trackpoint>
          <Trackpoint>
            <Time>2019-07-06T13:24:56.000Z</Time>
            <Position>
              <LatitudeDegrees>42.53462872467935085296630859375</LatitudeDegrees>
              <LongitudeDegrees>-0.17055119387805461883544921875</LongitudeDegrees>
            </Position>
            <AltitudeMeters>1017.20001220703125</AltitudeMeters>
            <DistanceMeters>565.86795402823</DistanceMeters>
          </Trackpoint>
          <Trackpoint>
            <Time>2019-07-06T13:25:00.000Z</Time>
            <Position>
              <LatitudeDegrees>42.5346274673938751220703125</LatitudeDegrees>
              <LongitudeDegrees>-0.17055102623999118804931640625</LongitudeDegrees>
            </Position>
            <AltitudeMeters>1017.20001220703125</AltitudeMeters>
            <DistanceMeters>566.00234209648</DistanceMeters>
          </Trackpoint>
          <Trackpoint>
            <Time>2019-07-06T13:25:01.000Z</Time>
            <Position>
              <LatitudeDegrees>42.53462721593677997589111328125</LatitudeDegrees>
              <LongitudeDegrees>-0.17055236734449863433837890625</LongitudeDegrees>
            </Position>
            <AltitudeMeters>1017</AltitudeMeters>
            <DistanceMeters>566.09736881085</DistanceMeters>
          </Trackpoint>
          <Trackpoint>
            <Time>2019-07-06T13:25:08.000Z</Time>
            <Position>
              <LatitudeDegrees>42.53462947905063629150390625</LatitudeDegrees>
              <LongitudeDegrees>-0.17055504955351352691650390625</LongitudeDegrees>
            </Position>
            <AltitudeMeters>1016.5999755859375</AltitudeMeters>
            <DistanceMeters>566.42655100558</DistanceMeters>
          </Trackpoint>
          <Trackpoint>
            <Time>2019-07-06T13:25:10.000Z</Time>
            <Position>
              <LatitudeDegrees>42.5346286408603191375732421875</LatitudeDegrees>
              <LongitudeDegrees>-0.17055437900125980377197265625</LongitudeDegrees>
            </Position>
            <AltitudeMeters>1016.79998779296875</AltitudeMeters>
            <DistanceMeters>566.56093907383</DistanceMeters>
          </Trackpoint>
          <Trackpoint>
            <Time>2019-07-06T13:25:16.000Z</Time>
            <Position>
              <LatitudeDegrees>42.5346293114125728607177734375</LatitudeDegrees>
              <LongitudeDegrees>-0.1705534569919109344482421875</LongitudeDegrees>
            </Position>
            <AltitudeMeters>1017.79998779296875</AltitudeMeters>
            <DistanceMeters>566.69532714208</DistanceMeters>
          </Trackpoint>
          <Trackpoint>
            <Time>2019-07-06T13:25:35.000Z</Time>
            <Position>
              <LatitudeDegrees>42.534676752984523773193359375</LatitudeDegrees>
              <LongitudeDegrees>-0.1704579032957553863525390625</LongitudeDegrees>
            </Position>
            <AltitudeMeters>1017.79998779296875</AltitudeMeters>
            <DistanceMeters>576.14511158165</DistanceMeters>
          </Trackpoint>
          <Trackpoint>
            <Time>2019-07-06T13:25:39.000Z</Time>
            <Position>
              <LatitudeDegrees>42.53470131196081638336181640625</LatitudeDegrees>
              <LongitudeDegrees>-0.17040652222931385040283203125</LongitudeDegrees>
            </Position>
            <AltitudeMeters>1017.79998779296875</AltitudeMeters>
            <DistanceMeters>581.1680622667</DistanceMeters>
          </Trackpoint>
          <Trackpoint>
            <Time>2019-07-06T13:25:42.000Z</Time>
            <Position>
              <LatitudeDegrees>42.53470768220722675323486328125</LatitudeDegrees>
              <LongitudeDegrees>-0.17036209814250469207763671875</LongitudeDegrees>
            </Position>
            <AltitudeMeters>1015.79998779296875</AltitudeMeters>
            <DistanceMeters>584.88019058526</DistanceMeters>
          </Trackpoint>
          <Trackpoint>
            <Time>2019-07-06T13:26:00.000Z</Time>
            <Position>
              <LatitudeDegrees>42.53475847654044628143310546875</LatitudeDegrees>
              <LongitudeDegrees>-0.1701048575341701507568359375</LongitudeDegrees>
            </Position>
            <AltitudeMeters>1015</AltitudeMeters>
            <DistanceMeters>606.72228294583</DistanceMeters>
          </Trackpoint>
          <Trackpoint>
            <Time>2019-07-06T13:26:03.000Z</Time>
            <Position>
              <LatitudeDegrees>42.53474439494311809539794921875</LatitudeDegrees>
              <LongitudeDegrees>-0.1700874231755733489990234375</LongitudeDegrees>
            </Position>
            <AltitudeMeters>1014.79998779296875</AltitudeMeters>
            <DistanceMeters>608.8450189505</DistanceMeters>
          </Trackpoint>
          <Trackpoint>
            <Time>2019-07-06T13:26:08.000Z</Time>
            <Position>
              <LatitudeDegrees>42.53475227393209934234619140625</LatitudeDegrees>
              <LongitudeDegrees>-0.170030929148197174072265625</LongitudeDegrees>
            </Position>
            <AltitudeMeters>1015.4000244140625</AltitudeMeters>
            <DistanceMeters>613.56010624609</DistanceMeters>
          </Trackpoint>
          <Trackpoint>
            <Time>2019-07-06T13:26:12.000Z</Time>
            <Position>
              <LatitudeDegrees>42.53474154509603977203369140625</LatitudeDegrees>
              <LongitudeDegrees>-0.17000586725771427154541015625</LongitudeDegrees>
            </Position>
            <AltitudeMeters>1015.5999755859375</AltitudeMeters>
            <DistanceMeters>615.93767388002</DistanceMeters>
          </Trackpoint>
          <Trackpoint>
            <Time>2019-07-06T13:26:15.000Z</Time>
            <Position>
              <LatitudeDegrees>42.53471706993877887725830078125</LatitudeDegrees>
              <LongitudeDegrees>-0.16999916173517704010009765625</LongitudeDegrees>
            </Position>
            <AltitudeMeters>1015.5999755859375</AltitudeMeters>
            <DistanceMeters>618.71791585438</DistanceMeters>
          </Trackpoint>
          <Trackpoint>
            <Time>2019-07-06T13:26:16.000Z</Time>
            <Position>
              <LatitudeDegrees>42.53470265306532382965087890625</LatitudeDegrees>
              <LongitudeDegrees>-0.16999631188809871673583984375</LongitudeDegrees>
            </Position>
            <AltitudeMeters>1015.5999755859375</AltitudeMeters>
            <DistanceMeters>620.34173306135</DistanceMeters>
          </Trackpoint>
          <Trackpoint>
            <Time>2019-07-06T13:26:17.000Z</Time>
            <Position>
              <LatitudeDegrees>42.53468857146799564361572265625</LatitudeDegrees>
              <LongitudeDegrees>-0.16998373903334140777587890625</LongitudeDegrees>
            </Position>
            <AltitudeMeters>1015.5999755859375</AltitudeMeters>
            <DistanceMeters>622.21836030541</DistanceMeters>
          </Trackpoint>
          <Trackpoint>
            <Time>2019-07-06T13:26:19.000Z</Time>
            <Position>
              <LatitudeDegrees>42.5346744060516357421875</LatitudeDegrees>
              <LongitudeDegrees>-0.1699600182473659515380859375</LongitudeDegrees>
            </Position>
            <AltitudeMeters>1015.79998779296875</AltitudeMeters>
            <DistanceMeters>624.7217326413</DistanceMeters>
          </Trackpoint>
          <Trackpoint>
            <Time>2019-07-06T13:26:21.000Z</Time>
            <Position>
              <LatitudeDegrees>42.5346730649471282958984375</LatitudeDegrees>
              <LongitudeDegrees>-0.1699244789779186248779296875</LongitudeDegrees>
            </Position>
            <AltitudeMeters>1016</AltitudeMeters>
            <DistanceMeters>627.63984197555</DistanceMeters>
          </Trackpoint>
          <Trackpoint>
            <Time>2019-07-06T13:26:26.000Z</Time>
            <Position>
              <LatitudeDegrees>42.53468655981123447418212890625</LatitudeDegrees>
              <LongitudeDegrees>-0.169856250286102294921875</LongitudeDegrees>
            </Position>
            <AltitudeMeters>1016.20001220703125</AltitudeMeters>
            <DistanceMeters>633.43257570547</DistanceMeters>
          </Trackpoint>
          <Trackpoint>
            <Time>2019-07-06T13:26:30.000Z</Time>
            <Position>
              <LatitudeDegrees>42.5347131304442882537841796875</LatitudeDegrees>
              <LongitudeDegrees>-0.16980973072350025177001953125</LongitudeDegrees>
            </Position>
            <AltitudeMeters>1016.20001220703125</AltitudeMeters>
            <DistanceMeters>638.25933416487</DistanceMeters>
          </Trackpoint>
          <Trackpoint>
            <Time>2019-07-06T13:26:35.000Z</Time>
            <Position>
              <LatitudeDegrees>42.5347070954740047454833984375</LatitudeDegrees>
              <LongitudeDegrees>-0.1697316952049732208251953125</LongitudeDegrees>
            </Position>
            <AltitudeMeters>1017</AltitudeMeters>
            <DistanceMeters>644.69454438459</DistanceMeters>
          </Trackpoint>
          <Trackpoint>
            <Time>2019-07-06T13:26:38.000Z</Time>
            <Position>
              <LatitudeDegrees>42.53470080904662609100341796875</LatitudeDegrees>
              <LongitudeDegrees>-0.169676207005977630615234375</LongitudeDegrees>
            </Position>
            <AltitudeMeters>1017</AltitudeMeters>
            <DistanceMeters>649.29917460757</DistanceMeters>
          </Trackpoint>
          <Trackpoint>
            <Time>2019-07-06T13:26:39.000Z</Time>
            <Position>
              <LatitudeDegrees>42.534704916179180145263671875</LatitudeDegrees>
              <LongitudeDegrees>-0.16966648399829864501953125</LongitudeDegrees>
            </Position>
            <AltitudeMeters>1017</AltitudeMeters>
            <DistanceMeters>650.22049278591</DistanceMeters>
          </Trackpoint>
          <Trackpoint>
            <Time>2019-07-06T13:26:42.000Z</Time>
            <Position>
              <LatitudeDegrees>42.53471941687166690826416015625</LatitudeDegrees>
              <LongitudeDegrees>-0.16963572241365909576416015625</LongitudeDegrees>
            </Position>
            <AltitudeMeters>1017.20001220703125</AltitudeMeters>
            <DistanceMeters>653.21647275668</DistanceMeters>
          </Trackpoint>
          <Trackpoint>
            <Time>2019-07-06T13:26:46.000Z</Time>
            <Position>
              <LatitudeDegrees>42.53473886288702487945556640625</LatitudeDegrees>
              <LongitudeDegrees>-0.1695969142019748687744140625</LongitudeDegrees>
            </Position>
            <AltitudeMeters>1017.20001220703125</AltitudeMeters>
            <DistanceMeters>657.06476138516</DistanceMeters>
          </Trackpoint>
          <Trackpoint>
            <Time>2019-07-06T13:26:48.000Z</Time>
            <Position>
              <LatitudeDegrees>42.5347508490085601806640625</LatitudeDegrees>
              <LongitudeDegrees>-0.1695821620523929595947265625</LongitudeDegrees>
            </Position>
            <AltitudeMeters>1017</AltitudeMeters>
            <DistanceMeters>658.86275119796</DistanceMeters>
          </Trackpoint>
          <Trackpoint>
            <Time>2019-07-06T13:26:50.000Z</Time>
            <Position>
              <LatitudeDegrees>42.53476015292108058929443359375</LatitudeDegrees>
              <LongitudeDegrees>-0.16956833191215991973876953125</LongitudeDegrees>
            </Position>
            <AltitudeMeters>1016.5999755859375</AltitudeMeters>
            <DistanceMeters>660.39795475185</DistanceMeters>
          </Trackpoint>
          <Trackpoint>
            <Time>2019-07-06T13:26:54.000Z</Time>
            <Position>
              <LatitudeDegrees>42.53477968275547027587890625</LatitudeDegrees>
              <LongitudeDegrees>-0.16952910460531711578369140625</LongitudeDegrees>
            </Position>
            <AltitudeMeters>1016.20001220703125</AltitudeMeters>
            <DistanceMeters>664.2801187856</DistanceMeters>
          </Trackpoint>
          <Trackpoint>
            <Time>2019-07-06T13:26:56.000Z</Time>
            <Position>
              <LatitudeDegrees>42.53478638827800750732421875</LatitudeDegrees>
              <LongitudeDegrees>-0.1695114187896251678466796875</LongitudeDegrees>
            </Position>
            <AltitudeMeters>1016</AltitudeMeters>
            <DistanceMeters>665.90948752058</DistanceMeters>
          </Trackpoint>
          <Trackpoint>
            <Time>2019-07-06T13:26:57.000Z</Time>
            <Position>
              <LatitudeDegrees>42.53479083068668842315673828125</LatitudeDegrees>
              <LongitudeDegrees>-0.1695050485432147979736328125</LongitudeDegrees>
            </Position>
            <AltitudeMeters>1016</AltitudeMeters>
            <DistanceMeters>666.63318941622</DistanceMeters>
          </Trackpoint>
          <Trackpoint>
            <Time>2019-07-06T13:26:58.000Z</Time>
            <Position>
              <LatitudeDegrees>42.53479669801890850067138671875</LatitudeDegrees>
              <LongitudeDegrees>-0.1695013605058193206787109375</LongitudeDegrees>
            </Position>
            <AltitudeMeters>1015.79998779296875</AltitudeMeters>
            <DistanceMeters>667.35689131186</DistanceMeters>
          </Trackpoint>
          <Trackpoint>
            <Time>2019-07-06T13:27:01.000Z</Time>
            <Position>
              <LatitudeDegrees>42.534824945032596588134765625</LatitudeDegrees>
              <LongitudeDegrees>-0.16950152814388275146484375</LongitudeDegrees>
            </Position>
            <AltitudeMeters>1015.4000244140625</AltitudeMeters>
            <DistanceMeters>670.49996363519</DistanceMeters>
          </Trackpoint>
          <Trackpoint>
            <Time>2019-07-06T13:27:04.000Z</Time>
            <Position>
              <LatitudeDegrees>42.5348479114472866058349609375</LatitudeDegrees>
              <LongitudeDegrees>-0.169489122927188873291015625</LongitudeDegrees>
            </Position>
            <AltitudeMeters>1015</AltitudeMeters>
            <DistanceMeters>673.2524596182</DistanceMeters>
          </Trackpoint>
          <Trackpoint>
            <Time>2019-07-06T13:27:11.000Z</Time>
            <Position>
              <LatitudeDegrees>42.53491236828267574310302734375</LatitudeDegrees>
              <LongitudeDegrees>-0.1694767177104949951171875</LongitudeDegrees>
            </Position>
            <AltitudeMeters>1013.79998779296875</AltitudeMeters>
            <DistanceMeters>680.49883074598</DistanceMeters>
          </Trackpoint>
          <Trackpoint>
            <Time>2019-07-06T13:27:13.000Z</Time>
            <Position>
              <LatitudeDegrees>42.5349206663668155670166015625</LatitudeDegrees>
              <LongitudeDegrees>-0.169475041329860687255859375</LongitudeDegrees>
            </Position>
            <AltitudeMeters>1013.20001220703125</AltitudeMeters>
            <DistanceMeters>681.42989859454</DistanceMeters>
          </Trackpoint>
          <Trackpoint>
            <Time>2019-07-06T13:27:14.000Z</Time>
            <Position>
              <LatitudeDegrees>42.53492276184260845184326171875</LatitudeDegrees>
              <LongitudeDegrees>-0.1694713532924652099609375</LongitudeDegrees>
            </Position>
            <AltitudeMeters>1013</AltitudeMeters>
            <DistanceMeters>681.81000545202</DistanceMeters>
          </Trackpoint>
          <Trackpoint>
            <Time>2019-07-06T13:27:15.000Z</Time>
            <Position>
              <LatitudeDegrees>42.5349230132997035980224609375</LatitudeDegrees>
              <LongitudeDegrees>-0.16946808435022830963134765625</LongitudeDegrees>
            </Position>
            <AltitudeMeters>1012.79998779296875</AltitudeMeters>
            <DistanceMeters>682.07878158852</DistanceMeters>
          </Trackpoint>
          <Trackpoint>
            <Time>2019-07-06T13:27:17.000Z</Time>
            <Position>
              <LatitudeDegrees>42.5349253602325916290283203125</LatitudeDegrees>
              <LongitudeDegrees>-0.16946523450314998626708984375</LongitudeDegrees>
            </Position>
            <AltitudeMeters>1012.5999755859375</AltitudeMeters>
            <DistanceMeters>682.43433899628</DistanceMeters>
          </Trackpoint>
          <Trackpoint>
            <Time>2019-07-06T13:27:23.000Z</Time>
            <Position>
              <LatitudeDegrees>42.534971795976161956787109375</LatitudeDegrees>
              <LongitudeDegrees>-0.16942181624472141265869140625</LongitudeDegrees>
            </Position>
            <AltitudeMeters>1011.5999755859375</AltitudeMeters>
            <DistanceMeters>688.71042005444</DistanceMeters>
          </Trackpoint>
          <Trackpoint>
            <Time>2019-07-06T13:27:27.000Z</Time>
            <Position>
              <LatitudeDegrees>42.53499937243759632110595703125</LatitudeDegrees>
              <LongitudeDegrees>-0.16939365305006504058837890625</LongitudeDegrees>
            </Position>
            <AltitudeMeters>1010.5999755859375</AltitudeMeters>
            <DistanceMeters>692.55166268013</DistanceMeters>
          </Trackpoint>
          <Trackpoint>
            <Time>2019-07-06T13:27:31.000Z</Time>
            <Position>
              <LatitudeDegrees>42.535025775432586669921875</LatitudeDegrees>
              <LongitudeDegrees>-0.1693675853312015533447265625</LongitudeDegrees>
            </Position>
            <AltitudeMeters>1010</AltitudeMeters>
            <DistanceMeters>696.1851144496</DistanceMeters>
          </Trackpoint>
          <Trackpoint>
            <Time>2019-07-06T13:27:33.000Z</Time>
            <Position>
              <LatitudeDegrees>42.53502401523292064666748046875</LatitudeDegrees>
              <LongitudeDegrees>-0.169363729655742645263671875</LongitudeDegrees>
            </Position>
            <AltitudeMeters>1010</AltitudeMeters>
            <DistanceMeters>696.56522130708</DistanceMeters>
          </Trackpoint>
          <Trackpoint>
            <Time>2019-07-06T13:27:38.000Z</Time>
            <Position>
              <LatitudeDegrees>42.5350242666900157928466796875</LatitudeDegrees>
              <LongitudeDegrees>-0.1693618856370449066162109375</LongitudeDegrees>
            </Position>
            <AltitudeMeters>1009.79998779296875</AltitudeMeters>
            <DistanceMeters>696.69960937533</DistanceMeters>
          </Trackpoint>
          <Trackpoint>
            <Time>2019-07-06T13:27:41.000Z</Time>
            <Position>
              <LatitudeDegrees>42.53502233885228633880615234375</LatitudeDegrees>
              <LongitudeDegrees>-0.16936071217060089111328125</LongitudeDegrees>
            </Position>
            <AltitudeMeters>1009.5999755859375</AltitudeMeters>
            <DistanceMeters>696.93237633747</DistanceMeters>
          </Trackpoint>
          <Trackpoint>
            <Time>2019-07-06T13:27:42.000Z</Time>
            <Position>
              <LatitudeDegrees>42.53502351231873035430908203125</LatitudeDegrees>
              <LongitudeDegrees>-0.16935828141868114471435546875</LongitudeDegrees>
            </Position>
            <AltitudeMeters>1009.5999755859375</AltitudeMeters>
            <DistanceMeters>697.16514329961</DistanceMeters>
          </Trackpoint>
          <Trackpoint>
            <Time>2019-07-06T13:27:44.000Z</Time>
            <Position>
              <LatitudeDegrees>42.5350329838693141937255859375</LatitudeDegrees>
              <LongitudeDegrees>-0.16934654675424098968505859375</LongitudeDegrees>
            </Position>
            <AltitudeMeters>1009.5999755859375</AltitudeMeters>
            <DistanceMeters>698.59370806059</DistanceMeters>
          </Trackpoint>
          <Trackpoint>
            <Time>2019-07-06T13:27:46.000Z</Time>
            <Position>
              <LatitudeDegrees>42.53504547290503978729248046875</LatitudeDegrees>
              <LongitudeDegrees>-0.16932995058596134185791015625</LongitudeDegrees>
            </Position>
            <AltitudeMeters>1009.5999755859375</AltitudeMeters>
            <DistanceMeters>700.5388563917</DistanceMeters>
          </Trackpoint>
          <Trackpoint>
            <Time>2019-07-06T13:27:50.000Z</Time>
            <Position>
              <LatitudeDegrees>42.53505301661789417266845703125</LatitudeDegrees>
              <LongitudeDegrees>-0.1692903041839599609375</LongitudeDegrees>
            </Position>
            <AltitudeMeters>1009</AltitudeMeters>
            <DistanceMeters>703.89586926062</DistanceMeters>
          </Trackpoint>
          <Trackpoint>
            <Time>2019-07-06T13:27:51.000Z</Time>
            <Position>
              <LatitudeDegrees>42.535052262246608734130859375</LatitudeDegrees>
              <LongitudeDegrees>-0.169283263385295867919921875</LongitudeDegrees>
            </Position>
            <AltitudeMeters>1009</AltitudeMeters>
            <DistanceMeters>704.48165326934</DistanceMeters>
          </Trackpoint>
          <Trackpoint>
            <Time>2019-07-06T13:27:54.000Z</Time>
            <Position>
              <LatitudeDegrees>42.53506022505462169647216796875</LatitudeDegrees>
              <LongitudeDegrees>-0.16927077434957027435302734375</LongitudeDegrees>
            </Position>
            <AltitudeMeters>1008.4000244140625</AltitudeMeters>
            <DistanceMeters>705.83890622828</DistanceMeters>
          </Trackpoint>
          <Trackpoint>
            <Time>2019-07-06T13:28:04.000Z</Time>
            <Position>
              <LatitudeDegrees>42.5351127795875072479248046875</LatitudeDegrees>
              <LongitudeDegrees>-0.16920170746743679046630859375</LongitudeDegrees>
            </Position>
            <AltitudeMeters>1007.4000244140625</AltitudeMeters>
            <DistanceMeters>713.98131503965</DistanceMeters>
          </Trackpoint>
          <Trackpoint>
            <Time>2019-07-06T13:28:05.000Z</Time>
            <Position>
              <LatitudeDegrees>42.535116635262966156005859375</LatitudeDegrees>
              <LongitudeDegrees>-0.1691965945065021514892578125</LongitudeDegrees>
            </Position>
            <AltitudeMeters>1007.4000244140625</AltitudeMeters>
            <DistanceMeters>714.5823167516</DistanceMeters>
          </Trackpoint>
          <Trackpoint>
            <Time>2019-07-06T13:28:13.000Z</Time>
            <Position>
              <LatitudeDegrees>42.53511839546263217926025390625</LatitudeDegrees>
              <LongitudeDegrees>-0.16913783736526966094970703125</LongitudeDegrees>
            </Position>
            <AltitudeMeters>1006.4000244140625</AltitudeMeters>
            <DistanceMeters>719.40345943427</DistanceMeters>
          </Trackpoint>
          <Trackpoint>
            <Time>2019-07-06T13:28:21.000Z</Time>
            <Position>
              <LatitudeDegrees>42.5351178087294101715087890625</LatitudeDegrees>
              <LongitudeDegrees>-0.16905091702938079833984375</LongitudeDegrees>
            </Position>
            <AltitudeMeters>1005.4000244140625</AltitudeMeters>
            <DistanceMeters>726.5329966074</DistanceMeters>
          </Trackpoint>
          <Trackpoint>
            <Time>2019-07-06T13:28:27.000Z</Time>
            <Position>
              <LatitudeDegrees>42.53513180650770664215087890625</LatitudeDegrees>
              <LongitudeDegrees>-0.16904546879231929779052734375</LongitudeDegrees>
            </Position>
            <AltitudeMeters>1004.79998779296875</AltitudeMeters>
            <DistanceMeters>728.15403092079</DistanceMeters>
          </Trackpoint>
          <Trackpoint>
            <Time>2019-07-06T13:28:39.000Z</Time>
            <Position>
              <LatitudeDegrees>42.5351156294345855712890625</LatitudeDegrees>
              <LongitudeDegrees>-0.16904890537261962890625</LongitudeDegrees>
            </Position>
            <AltitudeMeters>1004.5999755859375</AltitudeMeters>
            <DistanceMeters>729.97695937012</DistanceMeters>
          </Trackpoint>
          <Trackpoint>
            <Time>2019-07-06T13:28:42.000Z</Time>
            <Position>
              <LatitudeDegrees>42.5351147912442684173583984375</LatitudeDegrees>
              <LongitudeDegrees>-0.16904714517295360565185546875</LongitudeDegrees>
            </Position>
            <AltitudeMeters>1004.5999755859375</AltitudeMeters>
            <DistanceMeters>730.16701279886</DistanceMeters>
          </Trackpoint>
          <Trackpoint>
            <Time>2019-07-06T13:28:44.000Z</Time>
            <Position>
              <LatitudeDegrees>42.53511353395879268646240234375</LatitudeDegrees>
              <LongitudeDegrees>-0.16904689371585845947265625</LongitudeDegrees>
            </Position>
            <AltitudeMeters>1004.5999755859375</AltitudeMeters>
            <DistanceMeters>730.30140086711</DistanceMeters>
          </Trackpoint>
          <Trackpoint>
            <Time>2019-07-06T13:28:50.000Z</Time>
            <Position>
              <LatitudeDegrees>42.535113953053951263427734375</LatitudeDegrees>
              <LongitudeDegrees>-0.169044546782970428466796875</LongitudeDegrees>
            </Position>
            <AltitudeMeters>1004.5999755859375</AltitudeMeters>
            <DistanceMeters>730.49145429585</DistanceMeters>
          </Trackpoint>
          <Trackpoint>
            <Time>2019-07-06T13:28:55.000Z</Time>
            <Position>
              <LatitudeDegrees>42.535121999680995941162109375</LatitudeDegrees>
              <LongitudeDegrees>-0.1690245978534221649169921875</LongitudeDegrees>
            </Position>
            <AltitudeMeters>1004.5999755859375</AltitudeMeters>
            <DistanceMeters>732.35601307233</DistanceMeters>
          </Trackpoint>
          <Trackpoint>
            <Time>2019-07-06T13:28:59.000Z</Time>
            <Position>
              <LatitudeDegrees>42.5351261906325817108154296875</LatitudeDegrees>
              <LongitudeDegrees>-0.16896416433155536651611328125</LongitudeDegrees>
            </Position>
            <AltitudeMeters>1004.20001220703125</AltitudeMeters>
            <DistanceMeters>737.33381678101</DistanceMeters>
          </Trackpoint>
          <Trackpoint>
            <Time>2019-07-06T13:29:00.000Z</Time>
            <Position>
              <LatitudeDegrees>42.535122334957122802734375</LatitudeDegrees>
              <LongitudeDegrees>-0.16894899308681488037109375</LongitudeDegrees>
            </Position>
            <AltitudeMeters>1004</AltitudeMeters>
            <DistanceMeters>738.65054555993</DistanceMeters>
          </Trackpoint>
          <Trackpoint>
            <Time>2019-07-06T13:29:04.000Z</Time>
            <Position>
              <LatitudeDegrees>42.5351248495280742645263671875</LatitudeDegrees>
              <LongitudeDegrees>-0.1689040660858154296875</LongitudeDegrees>
            </Position>
            <AltitudeMeters>1003.5999755859375</AltitudeMeters>
            <DistanceMeters>742.34560653146</DistanceMeters>
          </Trackpoint>
          <Trackpoint>
            <Time>2019-07-06T13:29:05.000Z</Time>
            <Position>
              <LatitudeDegrees>42.5351263582706451416015625</LatitudeDegrees>
              <LongitudeDegrees>-0.16889945603907108306884765625</LongitudeDegrees>
            </Position>
            <AltitudeMeters>1003.5999755859375</AltitudeMeters>
            <DistanceMeters>742.77057891748</DistanceMeters>
          </Trackpoint>
          <Trackpoint>
            <Time>2019-07-06T13:29:08.000Z</Time>
            <Position>
              <LatitudeDegrees>42.53513214178383350372314453125</LatitudeDegrees>
              <LongitudeDegrees>-0.1688784174621105194091796875</LongitudeDegrees>
            </Position>
            <AltitudeMeters>1003.4000244140625</AltitudeMeters>
            <DistanceMeters>744.61321527415</DistanceMeters>
          </Trackpoint>
          <Trackpoint>
            <Time>2019-07-06T13:29:11.000Z</Time>
            <Position>
              <LatitudeDegrees>42.5351349078118801116943359375</LatitudeDegrees>
              <LongitudeDegrees>-0.168870203197002410888671875</LongitudeDegrees>
            </Position>
            <AltitudeMeters>1003.20001220703125</AltitudeMeters>
            <DistanceMeters>745.35539763926</DistanceMeters>
          </Trackpoint>
          <Trackpoint>
            <Time>2019-07-06T13:29:21.000Z</Time>
            <Position>
              <LatitudeDegrees>42.53516231663525104522705078125</LatitudeDegrees>
              <LongitudeDegrees>-0.1688713766634464263916015625</LongitudeDegrees>
            </Position>
            <AltitudeMeters>1003.5999755859375</AltitudeMeters>
            <DistanceMeters>748.4081077287</DistanceMeters>
          </Trackpoint>
          <Trackpoint>
            <Time>2019-07-06T13:29:26.000Z</Time>
            <Position>
              <LatitudeDegrees>42.53515519201755523681640625</LatitudeDegrees>
              <LongitudeDegrees>-0.16891152597963809967041015625</LongitudeDegrees>
            </Position>
            <AltitudeMeters>1003.4000244140625</AltitudeMeters>
            <DistanceMeters>751.79458038971</DistanceMeters>
          </Trackpoint>
          <Trackpoint>
            <Time>2019-07-06T13:29:29.000Z</Time>
            <Position>
              <LatitudeDegrees>42.53514270298182964324951171875</LatitudeDegrees>
              <LongitudeDegrees>-0.16890733502805233001708984375</LongitudeDegrees>
            </Position>
            <AltitudeMeters>1003.4000244140625</AltitudeMeters>
            <DistanceMeters>753.22630220375</DistanceMeters>
          </Trackpoint>
          <Trackpoint>
            <Time>2019-07-06T13:29:44.000Z</Time>
            <Position>
              <LatitudeDegrees>42.53518511541187763214111328125</LatitudeDegrees>
              <LongitudeDegrees>-0.1687319017946720123291015625</LongitudeDegrees>
            </Position>
            <AltitudeMeters>1002.20001220703125</AltitudeMeters>
            <DistanceMeters>768.36868316134</DistanceMeters>
          </Trackpoint>
          <Trackpoint>
            <Time>2019-07-06T13:29:54.000Z</Time>
            <Position>
              <LatitudeDegrees>42.53516986034810543060302734375</LatitudeDegrees>
              <LongitudeDegrees>-0.16859770752489566802978515625</LongitudeDegrees>
            </Position>
            <AltitudeMeters>1001.20001220703125</AltitudeMeters>
            <DistanceMeters>779.50506811703</DistanceMeters>
          </Trackpoint>
          <Trackpoint>
            <Time>2019-07-06T13:29:59.000Z</Time>
            <Position>
              <LatitudeDegrees>42.53514848649501800537109375</LatitudeDegrees>
              <LongitudeDegrees>-0.168525874614715576171875</LongitudeDegrees>
            </Position>
            <AltitudeMeters>1000.5999755859375</AltitudeMeters>
            <DistanceMeters>785.85836975512</DistanceMeters>
          </Trackpoint>
          <Trackpoint>
            <Time>2019-07-06T13:30:03.000Z</Time>
            <Position>
              <LatitudeDegrees>42.53513566218316555023193359375</LatitudeDegrees>
              <LongitudeDegrees>-0.168482623994350433349609375</LongitudeDegrees>
            </Position>
            <AltitudeMeters>1000.20001220703125</AltitudeMeters>
            <DistanceMeters>789.68075954245</DistanceMeters>
          </Trackpoint>
          <Trackpoint>
            <Time>2019-07-06T13:30:05.000Z</Time>
            <Position>
              <LatitudeDegrees>42.5351268611848354339599609375</LatitudeDegrees>
              <LongitudeDegrees>-0.1684670336544513702392578125</LongitudeDegrees>
            </Position>
            <AltitudeMeters>1000.20001220703125</AltitudeMeters>
            <DistanceMeters>791.29341636145</DistanceMeters>
          </Trackpoint>
          <Trackpoint>
            <Time>2019-07-06T13:30:06.000Z</Time>
            <Position>
              <LatitudeDegrees>42.53511789254844188690185546875</LatitudeDegrees>
              <LongitudeDegrees>-0.168455801904201507568359375</LongitudeDegrees>
            </Position>
            <AltitudeMeters>1000</AltitudeMeters>
            <DistanceMeters>792.65399185403</DistanceMeters>
          </Trackpoint>
          <Trackpoint>
            <Time>2019-07-06T13:30:11.000Z</Time>
            <Position>
              <LatitudeDegrees>42.53513180650770664215087890625</LatitudeDegrees>
              <LongitudeDegrees>-0.168411545455455780029296875</LongitudeDegrees>
            </Position>
            <AltitudeMeters>999.4000244140625</AltitudeMeters>
            <DistanceMeters>796.59960356698</DistanceMeters>
          </Trackpoint>
          <Trackpoint>
            <Time>2019-07-06T13:30:12.000Z</Time>
            <Position>
              <LatitudeDegrees>42.5351302139461040496826171875</LatitudeDegrees>
              <LongitudeDegrees>-0.16839838586747646331787109375</LongitudeDegrees>
            </Position>
            <AltitudeMeters>999.20001220703125</AltitudeMeters>
            <DistanceMeters>797.69137739457</DistanceMeters>
          </Trackpoint>
          <Trackpoint>
            <Time>2019-07-06T13:30:14.000Z</Time>
            <Position>
              <LatitudeDegrees>42.53513767383992671966552734375</LatitudeDegrees>
              <LongitudeDegrees>-0.16837709583342075347900390625</LongitudeDegrees>
            </Position>
            <AltitudeMeters>999</AltitudeMeters>
            <DistanceMeters>799.62488499677</DistanceMeters>
          </Trackpoint>
          <Trackpoint>
            <Time>2019-07-06T13:30:16.000Z</Time>
            <Position>
              <LatitudeDegrees>42.5351506657898426055908203125</LatitudeDegrees>
              <LongitudeDegrees>-0.16836603172123432159423828125</LongitudeDegrees>
            </Position>
            <AltitudeMeters>998.5999755859375</AltitudeMeters>
            <DistanceMeters>801.33272418458</DistanceMeters>
          </Trackpoint>
          <Trackpoint>
            <Time>2019-07-06T13:30:19.000Z</Time>
            <Position>
              <LatitudeDegrees>42.5351513363420963287353515625</LatitudeDegrees>
              <LongitudeDegrees>-0.1683555543422698974609375</LongitudeDegrees>
            </Position>
            <AltitudeMeters>998.4000244140625</AltitudeMeters>
            <DistanceMeters>802.19322768161</DistanceMeters>
          </Trackpoint>
          <Trackpoint>
            <Time>2019-07-06T13:30:20.000Z</Time>
            <Position>
              <LatitudeDegrees>42.53515125252306461334228515625</LatitudeDegrees>
              <LongitudeDegrees>-0.16834859736263751983642578125</LongitudeDegrees>
            </Position>
            <AltitudeMeters>998.5999755859375</AltitudeMeters>
            <DistanceMeters>802.76338796783</DistanceMeters>
          </Trackpoint>
          <Trackpoint>
            <Time>2019-07-06T13:30:22.000Z</Time>
            <Position>
              <LatitudeDegrees>42.53514018841087818145751953125</LatitudeDegrees>
              <LongitudeDegrees>-0.16833518631756305694580078125</LongitudeDegrees>
            </Position>
            <AltitudeMeters>998.5999755859375</AltitudeMeters>
            <DistanceMeters>804.4147761978</DistanceMeters>
          </Trackpoint>
          <Trackpoint>
            <Time>2019-07-06T13:30:26.000Z</Time>
            <Position>
              <LatitudeDegrees>42.53514655865728855133056640625</LatitudeDegrees>
              <LongitudeDegrees>-0.16829579137265682220458984375</LongitudeDegrees>
            </Position>
            <AltitudeMeters>997.79998779296875</AltitudeMeters>
            <DistanceMeters>807.72301631152</DistanceMeters>
          </Trackpoint>
          <Trackpoint>
            <Time>2019-07-06T13:30:31.000Z</Time>
            <Position>
              <LatitudeDegrees>42.53517807461321353912353515625</LatitudeDegrees>
              <LongitudeDegrees>-0.16826176084578037261962890625</LongitudeDegrees>
            </Position>
            <AltitudeMeters>997.20001220703125</AltitudeMeters>
            <DistanceMeters>812.20642463157</DistanceMeters>
          </Trackpoint>
          <Trackpoint>
            <Time>2019-07-06T13:30:36.000Z</Time>
            <Position>
              <LatitudeDegrees>42.53521109931170940399169921875</LatitudeDegrees>
              <LongitudeDegrees>-0.16821540892124176025390625</LongitudeDegrees>
            </Position>
            <AltitudeMeters>996.5999755859375</AltitudeMeters>
            <DistanceMeters>817.49387360725</DistanceMeters>
          </Trackpoint>
          <Trackpoint>
            <Time>2019-07-06T13:30:37.000Z</Time>
            <Position>
              <LatitudeDegrees>42.535215876996517181396484375</LatitudeDegrees>
              <LongitudeDegrees>-0.1682102121412754058837890625</LongitudeDegrees>
            </Position>
            <AltitudeMeters>996.5999755859375</AltitudeMeters>
            <DistanceMeters>818.17912098965</DistanceMeters>
          </Trackpoint>
          <Trackpoint>
            <Time>2019-07-06T13:30:40.000Z</Time>
            <Position>
              <LatitudeDegrees>42.53523808903992176055908203125</LatitudeDegrees>
              <LongitudeDegrees>-0.168198980391025543212890625</LongitudeDegrees>
            </Position>
            <AltitudeMeters>996.4000244140625</AltitudeMeters>
            <DistanceMeters>820.81942760343</DistanceMeters>
          </Trackpoint>
          <Trackpoint>
            <Time>2019-07-06T13:30:45.000Z</Time>
            <Position>
              <LatitudeDegrees>42.53521344624459743499755859375</LatitudeDegrees>
              <LongitudeDegrees>-0.1681760139763355255126953125</LongitudeDegrees>
            </Position>
            <AltitudeMeters>996.20001220703125</AltitudeMeters>
            <DistanceMeters>824.14807654808</DistanceMeters>
          </Trackpoint>
          <Trackpoint>
            <Time>2019-07-06T13:30:46.000Z</Time>
            <Position>
              <LatitudeDegrees>42.53520338796079158782958984375</LatitudeDegrees>
              <LongitudeDegrees>-0.16817123629152774810791015625</LongitudeDegrees>
            </Position>
            <AltitudeMeters>996.20001220703125</AltitudeMeters>
            <DistanceMeters>825.33495983015</DistanceMeters>
          </Trackpoint>
          <Trackpoint>
            <Time>2019-07-06T13:31:07.000Z</Time>
            <Position>
              <LatitudeDegrees>42.5353032164275646209716796875</LatitudeDegrees>
              <LongitudeDegrees>-0.16810409724712371826171875</LongitudeDegrees>
            </Position>
            <AltitudeMeters>995.5999755859375</AltitudeMeters>
            <DistanceMeters>837.73585503334</DistanceMeters>
          </Trackpoint>
          <Trackpoint>
            <Time>2019-07-06T13:31:09.000Z</Time>
            <Position>
              <LatitudeDegrees>42.53532207570970058441162109375</LatitudeDegrees>
              <LongitudeDegrees>-0.16809663735330104827880859375</LongitudeDegrees>
            </Position>
            <AltitudeMeters>995.20001220703125</AltitudeMeters>
            <DistanceMeters>839.91940268851</DistanceMeters>
          </Trackpoint>
          <Trackpoint>
            <Time>2019-07-06T13:31:14.000Z</Time>
            <Position>
              <LatitudeDegrees>42.535359375178813934326171875</LatitudeDegrees>
              <LongitudeDegrees>-0.16806428320705890655517578125</LongitudeDegrees>
            </Position>
            <AltitudeMeters>994.5999755859375</AltitudeMeters>
            <DistanceMeters>844.8470669991</DistanceMeters>
          </Trackpoint>
          <Trackpoint>
            <Time>2019-07-06T13:31:16.000Z</Time>
            <Position>
              <LatitudeDegrees>42.5353759713470935821533203125</LatitudeDegrees>
              <LongitudeDegrees>-0.16805003397166728973388671875</LongitudeDegrees>
            </Position>
            <AltitudeMeters>994.4000244140625</AltitudeMeters>
            <DistanceMeters>847.03474625239</DistanceMeters>
          </Trackpoint>
          <Trackpoint>
            <Time>2019-07-06T13:31:17.000Z</Time>
            <Position>
              <LatitudeDegrees>42.5353796593844890594482421875</LatitudeDegrees>
              <LongitudeDegrees>-0.1680457592010498046875</LongitudeDegrees>
            </Position>
            <AltitudeMeters>994.4000244140625</AltitudeMeters>
            <DistanceMeters>847.58063316619</DistanceMeters>
          </Trackpoint>
          <Trackpoint>
            <Time>2019-07-06T13:31:19.000Z</Time>
            <Position>
              <LatitudeDegrees>42.53538058139383792877197265625</LatitudeDegrees>
              <LongitudeDegrees>-0.1680331863462924957275390625</LongitudeDegrees>
            </Position>
            <AltitudeMeters>994.20001220703125</AltitudeMeters>
            <DistanceMeters>848.61288750519</DistanceMeters>
          </Trackpoint>
          <Trackpoint>
            <Time>2019-07-06T13:31:21.000Z</Time>
            <Position>
              <LatitudeDegrees>42.53539952449500560760498046875</LatitudeDegrees>
              <LongitudeDegrees>-0.1680137403309345245361328125</LongitudeDegrees>
            </Position>
            <AltitudeMeters>994</AltitudeMeters>
            <DistanceMeters>851.25661199303</DistanceMeters>
          </Trackpoint>
          <Trackpoint>
            <Time>2019-07-06T13:31:22.000Z</Time>
            <Position>
              <LatitudeDegrees>42.5354048050940036773681640625</LatitudeDegrees>
              <LongitudeDegrees>-0.168009214103221893310546875</LongitudeDegrees>
            </Position>
            <AltitudeMeters>994</AltitudeMeters>
            <DistanceMeters>851.94185937543</DistanceMeters>
          </Trackpoint>
          <Trackpoint>
            <Time>2019-07-06T13:31:23.000Z</Time>
            <Position>
              <LatitudeDegrees>42.53540866076946258544921875</LatitudeDegrees>
              <LongitudeDegrees>-0.16800611279904842376708984375</LongitudeDegrees>
            </Position>
            <AltitudeMeters>994</AltitudeMeters>
            <DistanceMeters>852.43563266752</DistanceMeters>
          </Trackpoint>
          <Trackpoint>
            <Time>2019-07-06T13:31:24.000Z</Time>
            <Position>
              <LatitudeDegrees>42.53540941514074802398681640625</LatitudeDegrees>
              <LongitudeDegrees>-0.1680013351142406463623046875</LongitudeDegrees>
            </Position>
            <AltitudeMeters>994</AltitudeMeters>
            <DistanceMeters>852.83879687227</DistanceMeters>
          </Trackpoint>
          <Trackpoint>
            <Time>2019-07-06T13:31:25.000Z</Time>
            <Position>
              <LatitudeDegrees>42.53541310317814350128173828125</LatitudeDegrees>
              <LongitudeDegrees>-0.1679942943155765533447265625</LongitudeDegrees>
            </Position>
            <AltitudeMeters>993.79998779296875</AltitudeMeters>
            <DistanceMeters>853.5499116878</DistanceMeters>
          </Trackpoint>
          <Trackpoint>
            <Time>2019-07-06T13:31:26.000Z</Time>
            <Position>
              <LatitudeDegrees>42.53542031161487102508544921875</LatitudeDegrees>
              <LongitudeDegrees>-0.16798465512692928314208984375</LongitudeDegrees>
            </Position>
            <AltitudeMeters>993.79998779296875</AltitudeMeters>
            <DistanceMeters>854.67829140164</DistanceMeters>
          </Trackpoint>
          <Trackpoint>
            <Time>2019-07-06T13:31:27.000Z</Time>
            <Position>
              <LatitudeDegrees>42.53542969934642314910888671875</LatitudeDegrees>
              <LongitudeDegrees>-0.1679719984531402587890625</LongitudeDegrees>
            </Position>
            <AltitudeMeters>993.79998779296875</AltitudeMeters>
            <DistanceMeters>856.15043893044</DistanceMeters>
          </Trackpoint>
          <Trackpoint>
            <Time>2019-07-06T13:31:28.000Z</Time>
            <Position>
              <LatitudeDegrees>42.5354420207440853118896484375</LatitudeDegrees>
              <LongitudeDegrees>-0.16796587966382503509521484375</LongitudeDegrees>
            </Position>
            <AltitudeMeters>993.5999755859375</AltitudeMeters>
            <DistanceMeters>857.61026701647</DistanceMeters>
          </Trackpoint>
          <Trackpoint>
            <Time>2019-07-06T13:31:29.000Z</Time>
            <Position>
              <LatitudeDegrees>42.53545735962688922882080078125</LatitudeDegrees>
              <LongitudeDegrees>-0.16795657575130462646484375</LongitudeDegrees>
            </Position>
            <AltitudeMeters>993.4000244140625</AltitudeMeters>
            <DistanceMeters>859.48207621087</DistanceMeters>
          </Trackpoint>
          <Trackpoint>
            <Time>2019-07-06T13:31:31.000Z</Time>
            <Position>
              <LatitudeDegrees>42.5354654900729656219482421875</LatitudeDegrees>
              <LongitudeDegrees>-0.16794584691524505615234375</LongitudeDegrees>
            </Position>
            <AltitudeMeters>993.20001220703125</AltitudeMeters>
            <DistanceMeters>860.74274803738</DistanceMeters>
          </Trackpoint>
          <Trackpoint>
            <Time>2019-07-06T13:31:38.000Z</Time>
            <Position>
              <LatitudeDegrees>42.5355104170739650726318359375</LatitudeDegrees>
              <LongitudeDegrees>-0.1679057814180850982666015625</LongitudeDegrees>
            </Position>
            <AltitudeMeters>993</AltitudeMeters>
            <DistanceMeters>866.72641356114</DistanceMeters>
          </Trackpoint>
          <Trackpoint>
            <Time>2019-07-06T13:31:39.000Z</Time>
            <Position>
              <LatitudeDegrees>42.53551787696778774261474609375</LatitudeDegrees>
              <LongitudeDegrees>-0.1678960584104061126708984375</LongitudeDegrees>
            </Position>
            <AltitudeMeters>992.79998779296875</AltitudeMeters>
            <DistanceMeters>867.88246343623</DistanceMeters>
          </Trackpoint>
          <Trackpoint>
            <Time>2019-07-06T13:31:40.000Z</Time>
            <Position>
              <LatitudeDegrees>42.53552659414708614349365234375</LatitudeDegrees>
              <LongitudeDegrees>-0.16789094544947147369384765625</LongitudeDegrees>
            </Position>
            <AltitudeMeters>992.79998779296875</AltitudeMeters>
            <DistanceMeters>868.94489440128</DistanceMeters>
          </Trackpoint>
          <Trackpoint>
            <Time>2019-07-06T13:31:41.000Z</Time>
            <Position>
              <LatitudeDegrees>42.53553112037479877471923828125</LatitudeDegrees>
              <LongitudeDegrees>-0.16788004897534847259521484375</LongitudeDegrees>
            </Position>
            <AltitudeMeters>992.5999755859375</AltitudeMeters>
            <DistanceMeters>869.97276547488</DistanceMeters>
          </Trackpoint>
          <Trackpoint>
            <Time>2019-07-06T13:31:43.000Z</Time>
            <Position>
              <LatitudeDegrees>42.53555190749466419219970703125</LatitudeDegrees>
              <LongitudeDegrees>-0.1678564958274364471435546875</LongitudeDegrees>
            </Position>
            <AltitudeMeters>992.4000244140625</AltitudeMeters>
            <DistanceMeters>872.98527718875</DistanceMeters>
          </Trackpoint>
          <Trackpoint>
            <Time>2019-07-06T13:31:46.000Z</Time>
            <Position>
              <LatitudeDegrees>42.53556397743523120880126953125</LatitudeDegrees>
              <LongitudeDegrees>-0.167830847203731536865234375</LongitudeDegrees>
            </Position>
            <AltitudeMeters>992</AltitudeMeters>
            <DistanceMeters>875.48142476979</DistanceMeters>
          </Trackpoint>
          <Trackpoint>
            <Time>2019-07-06T13:31:48.000Z</Time>
            <Position>
              <LatitudeDegrees>42.53556397743523120880126953125</LatitudeDegrees>
              <LongitudeDegrees>-0.1678051985800266265869140625</LongitudeDegrees>
            </Position>
            <AltitudeMeters>991.79998779296875</AltitudeMeters>
            <DistanceMeters>877.58493076159</DistanceMeters>
          </Trackpoint>
          <Trackpoint>
            <Time>2019-07-06T13:31:49.000Z</Time>
            <Position>
              <LatitudeDegrees>42.535563893616199493408203125</LatitudeDegrees>
              <LongitudeDegrees>-0.16779907979071140289306640625</LongitudeDegrees>
            </Position>
            <AltitudeMeters>991.5999755859375</AltitudeMeters>
            <DistanceMeters>878.08776486985</DistanceMeters>
          </Trackpoint>
          <Trackpoint>
            <Time>2019-07-06T13:31:50.000Z</Time>
            <Position>
              <LatitudeDegrees>42.53557085059583187103271484375</LatitudeDegrees>
              <LongitudeDegrees>-0.16778969205915927886962890625</LongitudeDegrees>
            </Position>
            <AltitudeMeters>991.5999755859375</AltitudeMeters>
            <DistanceMeters>879.17953869743</DistanceMeters>
          </Trackpoint>
          <Trackpoint>
            <Time>2019-07-06T13:31:55.000Z</Time>
            <Position>
              <LatitudeDegrees>42.53559985198080539703369140625</LatitudeDegrees>
              <LongitudeDegrees>-0.16774660907685756683349609375</LongitudeDegrees>
            </Position>
            <AltitudeMeters>991.5999755859375</AltitudeMeters>
            <DistanceMeters>883.9649617573</DistanceMeters>
          </Trackpoint>
          <Trackpoint>
            <Time>2019-07-06T13:31:58.000Z</Time>
            <Position>
              <LatitudeDegrees>42.53562994301319122314453125</LatitudeDegrees>
              <LongitudeDegrees>-0.16773127019405364990234375</LongitudeDegrees>
            </Position>
            <AltitudeMeters>991.20001220703125</AltitudeMeters>
            <DistanceMeters>887.54205811064</DistanceMeters>
          </Trackpoint>
          <Trackpoint>
            <Time>2019-07-06T13:32:00.000Z</Time>
            <Position>
              <LatitudeDegrees>42.5356467068195343017578125</LatitudeDegrees>
              <LongitudeDegrees>-0.16772146336734294891357421875</LongitudeDegrees>
            </Position>
            <AltitudeMeters>991.20001220703125</AltitudeMeters>
            <DistanceMeters>889.57127344136</DistanceMeters>
          </Trackpoint>
          <Trackpoint>
            <Time>2019-07-06T13:32:03.000Z</Time>
            <Position>
              <LatitudeDegrees>42.53566355444490909576416015625</LatitudeDegrees>
              <LongitudeDegrees>-0.167710147798061370849609375</LongitudeDegrees>
            </Position>
            <AltitudeMeters>991</AltitudeMeters>
            <DistanceMeters>891.6618611575</DistanceMeters>
          </Trackpoint>
          <Trackpoint>
            <Time>2019-07-06T13:32:04.000Z</Time>
            <Position>
              <LatitudeDegrees>42.53566891886293888092041015625</LatitudeDegrees>
              <LongitudeDegrees>-0.16770754940807819366455078125</LongitudeDegrees>
            </Position>
            <AltitudeMeters>991</AltitudeMeters>
            <DistanceMeters>892.29219707075</DistanceMeters>
          </Trackpoint>
          <Trackpoint>
            <Time>2019-07-06T13:32:05.000Z</Time>
            <Position>
              <LatitudeDegrees>42.5356815755367279052734375</LatitudeDegrees>
              <LongitudeDegrees>-0.16770000569522380828857421875</LongitudeDegrees>
            </Position>
            <AltitudeMeters>990.79998779296875</AltitudeMeters>
            <DistanceMeters>893.83033881595</DistanceMeters>
          </Trackpoint>
          <Trackpoint>
            <Time>2019-07-06T13:32:06.000Z</Time>
            <Position>
              <LatitudeDegrees>42.535689957439899444580078125</LatitudeDegrees>
              <LongitudeDegrees>-0.1676903665065765380859375</LongitudeDegrees>
            </Position>
            <AltitudeMeters>990.79998779296875</AltitudeMeters>
            <DistanceMeters>895.04727453192</DistanceMeters>
          </Trackpoint>
          <Trackpoint>
            <Time>2019-07-06T13:32:10.000Z</Time>
            <Position>
              <LatitudeDegrees>42.53570663742721080780029296875</LatitudeDegrees>
              <LongitudeDegrees>-0.16765591688454151153564453125</LongitudeDegrees>
            </Position>
            <AltitudeMeters>990</AltitudeMeters>
            <DistanceMeters>898.42840995926</DistanceMeters>
          </Trackpoint>
          <Trackpoint>
            <Time>2019-07-06T13:32:16.000Z</Time>
            <Position>
              <LatitudeDegrees>42.53574972040951251983642578125</LatitudeDegrees>
              <LongitudeDegrees>-0.16762356273829936981201171875</LongitudeDegrees>
            </Position>
            <AltitudeMeters>989.4000244140625</AltitudeMeters>
            <DistanceMeters>903.90874154162</DistanceMeters>
          </Trackpoint>
          <Trackpoint>
            <Time>2019-07-06T13:32:21.000Z</Time>
            <Position>
              <LatitudeDegrees>42.53578391857445240020751953125</LatitudeDegrees>
              <LongitudeDegrees>-0.16758785583078861236572265625</LongitudeDegrees>
            </Position>
            <AltitudeMeters>989.20001220703125</AltitudeMeters>
            <DistanceMeters>908.71111754084</DistanceMeters>
          </Trackpoint>
          <Trackpoint>
            <Time>2019-07-06T13:32:22.000Z</Time>
            <Position>
              <LatitudeDegrees>42.535793893039226531982421875</LatitudeDegrees>
              <LongitudeDegrees>-0.16758517362177371978759765625</LongitudeDegrees>
            </Position>
            <AltitudeMeters>989</AltitudeMeters>
            <DistanceMeters>909.83949725468</DistanceMeters>
          </Trackpoint>
          <Trackpoint>
            <Time>2019-07-06T13:32:26.000Z</Time>
            <Position>
              <LatitudeDegrees>42.53583588637411594390869140625</LatitudeDegrees>
              <LongitudeDegrees>-0.16757628880441188812255859375</LongitudeDegrees>
            </Position>
            <AltitudeMeters>988.79998779296875</AltitudeMeters>
            <DistanceMeters>914.5698808996</DistanceMeters>
          </Trackpoint>
          <Trackpoint>
            <Time>2019-07-06T13:32:30.000Z</Time>
            <Position>
              <LatitudeDegrees>42.53584426827728748321533203125</LatitudeDegrees>
              <LongitudeDegrees>-0.167544521391391754150390625</LongitudeDegrees>
            </Position>
            <AltitudeMeters>988.4000244140625</AltitudeMeters>
            <DistanceMeters>917.33710059172</DistanceMeters>
          </Trackpoint>
          <Trackpoint>
            <Time>2019-07-06T13:32:32.000Z</Time>
            <Position>
              <LatitudeDegrees>42.5358523987233638763427734375</LatitudeDegrees>
              <LongitudeDegrees>-0.1675463654100894927978515625</LongitudeDegrees>
            </Position>
            <AltitudeMeters>988.20001220703125</AltitudeMeters>
            <DistanceMeters>918.25841877006</DistanceMeters>
          </Trackpoint>
          <Trackpoint>
            <Time>2019-07-06T13:32:33.000Z</Time>
            <Position>
              <LatitudeDegrees>42.5358587689697742462158203125</LatitudeDegrees>
              <LongitudeDegrees>-0.16754946671426296234130859375</LongitudeDegrees>
            </Position>
            <AltitudeMeters>988</AltitudeMeters>
            <DistanceMeters>919.01863248501</DistanceMeters>
          </Trackpoint>
          <Trackpoint>
            <Time>2019-07-06T13:32:34.000Z</Time>
            <Position>
              <LatitudeDegrees>42.5358586013317108154296875</LatitudeDegrees>
              <LongitudeDegrees>-0.16754753887653350830078125</LongitudeDegrees>
            </Position>
            <AltitudeMeters>988</AltitudeMeters>
            <DistanceMeters>919.18322358238</DistanceMeters>
          </Trackpoint>
          <Trackpoint>
            <Time>2019-07-06T13:32:35.000Z</Time>
            <Position>
              <LatitudeDegrees>42.5358597747981548309326171875</LatitudeDegrees>
              <LongitudeDegrees>-0.16755231656134128570556640625</LongitudeDegrees>
            </Position>
            <AltitudeMeters>987.79998779296875</AltitudeMeters>
            <DistanceMeters>919.6081959684</DistanceMeters>
          </Trackpoint>
          <Trackpoint>
            <Time>2019-07-06T13:32:38.000Z</Time>
            <Position>
              <LatitudeDegrees>42.53586539067327976226806640625</LatitudeDegrees>
              <LongitudeDegrees>-0.16755080781877040863037109375</LongitudeDegrees>
            </Position>
            <AltitudeMeters>987.5999755859375</AltitudeMeters>
            <DistanceMeters>920.25269850247</DistanceMeters>
          </Trackpoint>
          <Trackpoint>
            <Time>2019-07-06T13:32:41.000Z</Time>
            <Position>
              <LatitudeDegrees>42.5358725152909755706787109375</LatitudeDegrees>
              <LongitudeDegrees>-0.16756488941609859466552734375</LongitudeDegrees>
            </Position>
            <AltitudeMeters>987</AltitudeMeters>
            <DistanceMeters>921.65575112614</DistanceMeters>
          </Trackpoint>
          <Trackpoint>
            <Time>2019-07-06T13:32:46.000Z</Time>
            <Position>
              <LatitudeDegrees>42.53588366322219371795654296875</LatitudeDegrees>
              <LongitudeDegrees>-0.16756706871092319488525390625</LongitudeDegrees>
            </Position>
            <AltitudeMeters>986.4000244140625</AltitudeMeters>
            <DistanceMeters>922.90923957892</DistanceMeters>
          </Trackpoint>
          <Trackpoint>
            <Time>2019-07-06T13:32:50.000Z</Time>
            <Position>
              <LatitudeDegrees>42.53589120693504810333251953125</LatitudeDegrees>
              <LongitudeDegrees>-0.16758064739406108856201171875</LongitudeDegrees>
            </Position>
            <AltitudeMeters>986</AltitudeMeters>
            <DistanceMeters>924.30260472684</DistanceMeters>
          </Trackpoint>
          <Trackpoint>
            <Time>2019-07-06T13:32:54.000Z</Time>
            <Position>
              <LatitudeDegrees>42.5358986668288707733154296875</LatitudeDegrees>
              <LongitudeDegrees>-0.1675869338214397430419921875</LongitudeDegrees>
            </Position>
            <AltitudeMeters>985.5999755859375</AltitudeMeters>
            <DistanceMeters>925.28096463151</DistanceMeters>
          </Trackpoint>
          <Trackpoint>
            <Time>2019-07-06T13:32:55.000Z</Time>
            <Position>
              <LatitudeDegrees>42.53590076230466365814208984375</LatitudeDegrees>
              <LongitudeDegrees>-0.1675889454782009124755859375</LongitudeDegrees>
            </Position>
            <AltitudeMeters>985.4000244140625</AltitudeMeters>
            <DistanceMeters>925.58146548748</DistanceMeters>
          </Trackpoint>
          <Trackpoint>
            <Time>2019-07-06T13:32:59.000Z</Time>
            <Position>
              <LatitudeDegrees>42.5359053723514080047607421875</LatitudeDegrees>
              <LongitudeDegrees>-0.167596824467182159423828125</LongitudeDegrees>
            </Position>
            <AltitudeMeters>985.20001220703125</AltitudeMeters>
            <DistanceMeters>926.4044209743</DistanceMeters>
          </Trackpoint>
          <Trackpoint>
            <Time>2019-07-06T13:33:02.000Z</Time>
            <Position>
              <LatitudeDegrees>42.53592154942452907562255859375</LatitudeDegrees>
              <LongitudeDegrees>-0.16760746948421001434326171875</LongitudeDegrees>
            </Position>
            <AltitudeMeters>985</AltitudeMeters>
            <DistanceMeters>928.40224323572</DistanceMeters>
          </Trackpoint>
          <Trackpoint>
            <Time>2019-07-06T13:33:09.000Z</Time>
            <Position>
              <LatitudeDegrees>42.53592590801417827606201171875</LatitudeDegrees>
              <LongitudeDegrees>-0.167644433677196502685546875</LongitudeDegrees>
            </Position>
            <AltitudeMeters>984</AltitudeMeters>
            <DistanceMeters>931.47117948971</DistanceMeters>
          </Trackpoint>
          <Trackpoint>
            <Time>2019-07-06T13:33:10.000Z</Time>
            <Position>
              <LatitudeDegrees>42.53592632710933685302734375</LatitudeDegrees>
              <LongitudeDegrees>-0.1676516421139240264892578125</LongitudeDegrees>
            </Position>
            <AltitudeMeters>984</AltitudeMeters>
            <DistanceMeters>932.06462113075</DistanceMeters>
          </Trackpoint>
          <Trackpoint>
            <Time>2019-07-06T13:33:14.000Z</Time>
            <Position>
              <LatitudeDegrees>42.53594837151467800140380859375</LatitudeDegrees>
              <LongitudeDegrees>-0.16766999848186969757080078125</LongitudeDegrees>
            </Position>
            <AltitudeMeters>983.5999755859375</AltitudeMeters>
            <DistanceMeters>934.94222084216</DistanceMeters>
          </Trackpoint>
          <Trackpoint>
            <Time>2019-07-06T13:33:20.000Z</Time>
            <Position>
              <LatitudeDegrees>42.5359700806438922882080078125</LatitudeDegrees>
              <LongitudeDegrees>-0.1676462776958942413330078125</LongitudeDegrees>
            </Position>
            <AltitudeMeters>982.79998779296875</AltitudeMeters>
            <DistanceMeters>938.04335473363</DistanceMeters>
          </Trackpoint>
          <Trackpoint>
            <Time>2019-07-06T13:33:27.000Z</Time>
            <Position>
              <LatitudeDegrees>42.5360156781971454620361328125</LatitudeDegrees>
              <LongitudeDegrees>-0.16758031211793422698974609375</LongitudeDegrees>
            </Position>
            <AltitudeMeters>982</AltitudeMeters>
            <DistanceMeters>945.46152740952</DistanceMeters>
          </Trackpoint>
          <Trackpoint>
            <Time>2019-07-06T13:33:28.000Z</Time>
            <Position>
              <LatitudeDegrees>42.53601349890232086181640625</LatitudeDegrees>
              <LongitudeDegrees>-0.16757478006184101104736328125</LongitudeDegrees>
            </Position>
            <AltitudeMeters>981.79998779296875</AltitudeMeters>
            <DistanceMeters>945.98201015979</DistanceMeters>
          </Trackpoint>
          <Trackpoint>
            <Time>2019-07-06T13:33:36.000Z</Time>
            <Position>
              <LatitudeDegrees>42.53604032099246978759765625</LatitudeDegrees>
              <LongitudeDegrees>-0.1675302721560001373291015625</LongitudeDegrees>
            </Position>
            <AltitudeMeters>980.79998779296875</AltitudeMeters>
            <DistanceMeters>950.69805493072</DistanceMeters>
          </Trackpoint>
          <Trackpoint>
            <Time>2019-07-06T13:33:42.000Z</Time>
            <Position>
              <LatitudeDegrees>42.536066472530364990234375</LatitudeDegrees>
              <LongitudeDegrees>-0.1675296016037464141845703125</LongitudeDegrees>
            </Position>
            <AltitudeMeters>980.20001220703125</AltitudeMeters>
            <DistanceMeters>953.60996869676</DistanceMeters>
          </Trackpoint>
          <Trackpoint>
            <Time>2019-07-06T13:33:45.000Z</Time>
            <Position>
              <LatitudeDegrees>42.53608298487961292266845703125</LatitudeDegrees>
              <LongitudeDegrees>-0.167514346539974212646484375</LongitudeDegrees>
            </Position>
            <AltitudeMeters>979.79998779296875</AltitudeMeters>
            <DistanceMeters>955.83245645035</DistanceMeters>
          </Trackpoint>
          <Trackpoint>
            <Time>2019-07-06T13:33:46.000Z</Time>
            <Position>
              <LatitudeDegrees>42.53608591854572296142578125</LatitudeDegrees>
              <LongitudeDegrees>-0.16751258634030818939208984375</LongitudeDegrees>
            </Position>
            <AltitudeMeters>979.5999755859375</AltitudeMeters>
            <DistanceMeters>956.18801385811</DistanceMeters>
          </Trackpoint>
          <Trackpoint>
            <Time>2019-07-06T13:33:47.000Z</Time>
            <Position>
              <LatitudeDegrees>42.53609086386859416961669921875</LatitudeDegrees>
              <LongitudeDegrees>-0.1675091497600078582763671875</LongitudeDegrees>
            </Position>
            <AltitudeMeters>979.4000244140625</AltitudeMeters>
            <DistanceMeters>956.81114569576</DistanceMeters>
          </Trackpoint>
          <Trackpoint>
            <Time>2019-07-06T13:33:48.000Z</Time>
            <Position>
              <LatitudeDegrees>42.53609840758144855499267578125</LatitudeDegrees>
              <LongitudeDegrees>-0.167506970465183258056640625</LongitudeDegrees>
            </Position>
            <AltitudeMeters>979.4000244140625</AltitudeMeters>
            <DistanceMeters>957.67164919279</DistanceMeters>
          </Trackpoint>
          <Trackpoint>
            <Time>2019-07-06T13:33:49.000Z</Time>
            <Position>
              <LatitudeDegrees>42.5361045263707637786865234375</LatitudeDegrees>
              <LongitudeDegrees>-0.16750185750424861907958984375</LongitudeDegrees>
            </Position>
            <AltitudeMeters>979.20001220703125</AltitudeMeters>
            <DistanceMeters>958.46669972646</DistanceMeters>
          </Trackpoint>
          <Trackpoint>
            <Time>2019-07-06T13:33:51.000Z</Time>
            <Position>
              <LatitudeDegrees>42.53611600957810878753662109375</LatitudeDegrees>
              <LongitudeDegrees>-0.16748727299273014068603515625</LongitudeDegrees>
            </Position>
            <AltitudeMeters>979</AltitudeMeters>
            <DistanceMeters>960.21632709092</DistanceMeters>
          </Trackpoint>
          <Trackpoint>
            <Time>2019-07-06T13:33:54.000Z</Time>
            <Position>
              <LatitudeDegrees>42.53613864071667194366455078125</LatitudeDegrees>
              <LongitudeDegrees>-0.16745542176067829132080078125</LongitudeDegrees>
            </Position>
            <AltitudeMeters>978.5999755859375</AltitudeMeters>
            <DistanceMeters>963.84480493367</DistanceMeters>
          </Trackpoint>
          <Trackpoint>
            <Time>2019-07-06T13:34:02.000Z</Time>
            <Position>
              <LatitudeDegrees>42.53614450804889202117919921875</LatitudeDegrees>
              <LongitudeDegrees>-0.167403034865856170654296875</LongitudeDegrees>
            </Position>
            <AltitudeMeters>977.5999755859375</AltitudeMeters>
            <DistanceMeters>968.19117352374</DistanceMeters>
          </Trackpoint>
          <Trackpoint>
            <Time>2019-07-06T13:34:11.000Z</Time>
            <Position>
              <LatitudeDegrees>42.53619329072535037994384765625</LatitudeDegrees>
              <LongitudeDegrees>-0.16735802404582500457763671875</LongitudeDegrees>
            </Position>
            <AltitudeMeters>976.4000244140625</AltitudeMeters>
            <DistanceMeters>974.75696250477</DistanceMeters>
          </Trackpoint>
          <Trackpoint>
            <Time>2019-07-06T13:34:20.000Z</Time>
            <Position>
              <LatitudeDegrees>42.5362332724034786224365234375</LatitudeDegrees>
              <LongitudeDegrees>-0.16729700379073619842529296875</LongitudeDegrees>
            </Position>
            <AltitudeMeters>975.4000244140625</AltitudeMeters>
            <DistanceMeters>981.45415517761</DistanceMeters>
          </Trackpoint>
          <Trackpoint>
            <Time>2019-07-06T13:34:32.000Z</Time>
            <Position>
              <LatitudeDegrees>42.53622832708060741424560546875</LatitudeDegrees>
              <LongitudeDegrees>-0.16734327189624309539794921875</LongitudeDegrees>
            </Position>
            <AltitudeMeters>974.4000244140625</AltitudeMeters>
            <DistanceMeters>985.28833885223</DistanceMeters>
          </Trackpoint>
          <Trackpoint>
            <Time>2019-07-06T13:34:43.000Z</Time>
            <Position>
              <LatitudeDegrees>42.53623117692768573760986328125</LatitudeDegrees>
              <LongitudeDegrees>-0.167308486998081207275390625</LongitudeDegrees>
            </Position>
            <AltitudeMeters>973.79998779296875</AltitudeMeters>
            <DistanceMeters>988.15808269392</DistanceMeters>
          </Trackpoint>
          <Trackpoint>
            <Time>2019-07-06T13:34:47.000Z</Time>
            <Position>
              <LatitudeDegrees>42.53623771481215953826904296875</LatitudeDegrees>
              <LongitudeDegrees>-0.16727437265217304229736328125</LongitudeDegrees>
            </Position>
            <AltitudeMeters>973.5999755859375</AltitudeMeters>
            <DistanceMeters>991.04976918922</DistanceMeters>
          </Trackpoint>
          <Trackpoint>
            <Time>2019-07-06T13:34:48.000Z</Time>
            <Position>
              <LatitudeDegrees>42.53624274395406246185302734375</LatitudeDegrees>
              <LongitudeDegrees>-0.16726590692996978759765625</LongitudeDegrees>
            </Position>
            <AltitudeMeters>973.20001220703125</AltitudeMeters>
            <DistanceMeters>991.94119878659</DistanceMeters>
          </Trackpoint>
          <Trackpoint>
            <Time>2019-07-06T13:34:49.000Z</Time>
            <Position>
              <LatitudeDegrees>42.536247186362743377685546875</LatitudeDegrees>
              <LongitudeDegrees>-0.16726196743547916412353515625</LongitudeDegrees>
            </Position>
            <AltitudeMeters>973</AltitudeMeters>
            <DistanceMeters>992.52698279531</DistanceMeters>
          </Trackpoint>
          <Trackpoint>
            <Time>2019-07-06T13:34:56.000Z</Time>
            <Position>
              <LatitudeDegrees>42.53626973368227481842041015625</LatitudeDegrees>
              <LongitudeDegrees>-0.16721586696803569793701171875</LongitudeDegrees>
            </Position>
            <AltitudeMeters>972</AltitudeMeters>
            <DistanceMeters>997.06444621579</DistanceMeters>
          </Trackpoint>
          <Trackpoint>
            <Time>2019-07-06T13:34:57.000Z</Time>
            <Position>
              <LatitudeDegrees>42.53627660684287548065185546875</LatitudeDegrees>
              <LongitudeDegrees>-0.1672102510929107666015625</LongitudeDegrees>
            </Position>
            <AltitudeMeters>971.79998779296875</AltitudeMeters>
            <DistanceMeters>997.95587581316</DistanceMeters>
          </Trackpoint>
          <Trackpoint>
            <Time>2019-07-06T13:34:58.000Z</Time>
            <Position>
              <LatitudeDegrees>42.53628280945122241973876953125</LatitudeDegrees>
              <LongitudeDegrees>-0.1672057248651981353759765625</LongitudeDegrees>
            </Position>
            <AltitudeMeters>971.5999755859375</AltitudeMeters>
            <DistanceMeters>998.73948617437</DistanceMeters>
          </Trackpoint>
          <Trackpoint>
            <Time>2019-07-06T13:35:00.000Z</Time>
            <Position>
              <LatitudeDegrees>42.53629219718277454376220703125</LatitudeDegrees>
              <LongitudeDegrees>-0.16719482839107513427734375</LongitudeDegrees>
            </Position>
            <AltitudeMeters>971.4000244140625</AltitudeMeters>
            <DistanceMeters>1000.1165540933</DistanceMeters>
          </Trackpoint>
          <Trackpoint>
            <Time>2019-07-06T13:35:02.000Z</Time>
            <Position>
              <LatitudeDegrees>42.53630694933235645294189453125</LatitudeDegrees>
              <LongitudeDegrees>-0.16717932187020778656005859375</LongitudeDegrees>
            </Position>
            <AltitudeMeters>971.4000244140625</AltitudeMeters>
            <DistanceMeters>1002.1941432105</DistanceMeters>
          </Trackpoint>
          <Trackpoint>
            <Time>2019-07-06T13:35:03.000Z</Time>
            <Position>
              <LatitudeDegrees>42.536315582692623138427734375</LatitudeDegrees>
              <LongitudeDegrees>-0.1671715267002582550048828125</LongitudeDegrees>
            </Position>
            <AltitudeMeters>971.20001220703125</AltitudeMeters>
            <DistanceMeters>1003.3501930856</DistanceMeters>
          </Trackpoint>
          <Trackpoint>
            <Time>2019-07-06T13:35:04.000Z</Time>
            <Position>
              <LatitudeDegrees>42.53631801344454288482666015625</LatitudeDegrees>
              <LongitudeDegrees>-0.16716691665351390838623046875</LongitudeDegrees>
            </Position>
            <AltitudeMeters>971</AltitudeMeters>
            <DistanceMeters>1003.8157270099</DistanceMeters>
          </Trackpoint>
          <Trackpoint>
            <Time>2019-07-06T13:35:06.000Z</Time>
            <Position>
              <LatitudeDegrees>42.53633678890764713287353515625</LatitudeDegrees>
              <LongitudeDegrees>-0.16715769656002521514892578125</LongitudeDegrees>
            </Position>
            <AltitudeMeters>970.79998779296875</AltitudeMeters>
            <DistanceMeters>1006.0402453603</DistanceMeters>
          </Trackpoint>
          <Trackpoint>
            <Time>2019-07-06T13:35:07.000Z</Time>
            <Position>
              <LatitudeDegrees>42.5363355316221714019775390625</LatitudeDegrees>
              <LongitudeDegrees>-0.16715032048523426055908203125</LongitudeDegrees>
            </Position>
            <AltitudeMeters>970.5999755859375</AltitudeMeters>
            <DistanceMeters>1006.6705812736</DistanceMeters>
          </Trackpoint>
          <Trackpoint>
            <Time>2019-07-06T13:35:11.000Z</Time>
            <Position>
              <LatitudeDegrees>42.53633326850831508636474609375</LatitudeDegrees>
              <LongitudeDegrees>-0.16711880452930927276611328125</LongitudeDegrees>
            </Position>
            <AltitudeMeters>970</AltitudeMeters>
            <DistanceMeters>1009.2695228235</DistanceMeters>
          </Trackpoint>
          <Trackpoint>
            <Time>2019-07-06T13:35:13.000Z</Time>
            <Position>
              <LatitudeDegrees>42.53633980639278888702392578125</LatitudeDegrees>
              <LongitudeDegrees>-0.16710271127521991729736328125</LongitudeDegrees>
            </Position>
            <AltitudeMeters>969.5999755859375</AltitudeMeters>
            <DistanceMeters>1010.7780251483</DistanceMeters>
          </Trackpoint>
          <Trackpoint>
            <Time>2019-07-06T13:35:16.000Z</Time>
            <Position>
              <LatitudeDegrees>42.53634634427726268768310546875</LatitudeDegrees>
              <LongitudeDegrees>-0.1670840196311473846435546875</LongitudeDegrees>
            </Position>
            <AltitudeMeters>968.79998779296875</AltitudeMeters>
            <DistanceMeters>1012.4752565367</DistanceMeters>
          </Trackpoint>
          <Trackpoint>
            <Time>2019-07-06T13:35:19.000Z</Time>
            <Position>
              <LatitudeDegrees>42.53634785301983356475830078125</LatitudeDegrees>
              <LongitudeDegrees>-0.1670672558248043060302734375</LongitudeDegrees>
            </Position>
            <AltitudeMeters>968.20001220703125</AltitudeMeters>
            <DistanceMeters>1013.8621257744</DistanceMeters>
          </Trackpoint>
          <Trackpoint>
            <Time>2019-07-06T13:35:21.000Z</Time>
            <Position>
              <LatitudeDegrees>42.536369226872920989990234375</LatitudeDegrees>
              <LongitudeDegrees>-0.1670451276004314422607421875</LongitudeDegrees>
            </Position>
            <AltitudeMeters>967.79998779296875</AltitudeMeters>
            <DistanceMeters>1016.8535812322</DistanceMeters>
          </Trackpoint>
          <Trackpoint>
            <Time>2019-07-06T13:35:22.000Z</Time>
            <Position>
              <LatitudeDegrees>42.53638205118477344512939453125</LatitudeDegrees>
              <LongitudeDegrees>-0.1670340634882450103759765625</LongitudeDegrees>
            </Position>
            <AltitudeMeters>967.5999755859375</AltitudeMeters>
            <DistanceMeters>1018.5428130565</DistanceMeters>
          </Trackpoint>
          <Trackpoint>
            <Time>2019-07-06T13:35:24.000Z</Time>
            <Position>
              <LatitudeDegrees>42.53639965318143367767333984375</LatitudeDegrees>
              <LongitudeDegrees>-0.16701646149158477783203125</LongitudeDegrees>
            </Position>
            <AltitudeMeters>967.20001220703125</AltitudeMeters>
            <DistanceMeters>1020.9785388669</DistanceMeters>
          </Trackpoint>
          <Trackpoint>
            <Time>2019-07-06T13:35:25.000Z</Time>
            <Position>
              <LatitudeDegrees>42.53640334121882915496826171875</LatitudeDegrees>
              <LongitudeDegrees>-0.16701101325452327728271484375</LongitudeDegrees>
            </Position>
            <AltitudeMeters>967</AltitudeMeters>
            <DistanceMeters>1021.5795405789</DistanceMeters>
          </Trackpoint>
          <Trackpoint>
            <Time>2019-07-06T13:35:27.000Z</Time>
            <Position>
              <LatitudeDegrees>42.5364084541797637939453125</LatitudeDegrees>
              <LongitudeDegrees>-0.1669914834201335906982421875</LongitudeDegrees>
            </Position>
            <AltitudeMeters>966.79998779296875</AltitudeMeters>
            <DistanceMeters>1023.279430123</DistanceMeters>
          </Trackpoint>
          <Trackpoint>
            <Time>2019-07-06T13:35:29.000Z</Time>
            <Position>
              <LatitudeDegrees>42.5364079512655735015869140625</LatitudeDegrees>
              <LongitudeDegrees>-0.166970528662204742431640625</LongitudeDegrees>
            </Position>
            <AltitudeMeters>966.5999755859375</AltitudeMeters>
            <DistanceMeters>1025.000437117</DistanceMeters>
          </Trackpoint>
          <Trackpoint>
            <Time>2019-07-06T13:35:30.000Z</Time>
            <Position>
              <LatitudeDegrees>42.5364206917583942413330078125</LatitudeDegrees>
              <LongitudeDegrees>-0.16696658916771411895751953125</LongitudeDegrees>
            </Position>
            <AltitudeMeters>966.4000244140625</AltitudeMeters>
            <DistanceMeters>1026.4478409083</DistanceMeters>
          </Trackpoint>
          <Trackpoint>
            <Time>2019-07-06T13:35:34.000Z</Time>
            <Position>
              <LatitudeDegrees>42.536428906023502349853515625</LatitudeDegrees>
              <LongitudeDegrees>-0.16692526638507843017578125</LongitudeDegrees>
            </Position>
            <AltitudeMeters>965.79998779296875</AltitudeMeters>
            <DistanceMeters>1029.9586890033</DistanceMeters>
          </Trackpoint>
          <Trackpoint>
            <Time>2019-07-06T13:35:36.000Z</Time>
            <Position>
              <LatitudeDegrees>42.53642764873802661895751953125</LatitudeDegrees>
              <LongitudeDegrees>-0.16691730357706546783447265625</LongitudeDegrees>
            </Position>
            <AltitudeMeters>965.5999755859375</AltitudeMeters>
            <DistanceMeters>1030.6238760039</DistanceMeters>
          </Trackpoint>
          <Trackpoint>
            <Time>2019-07-06T13:35:37.000Z</Time>
            <Position>
              <LatitudeDegrees>42.53643033094704151153564453125</LatitudeDegrees>
              <LongitudeDegrees>-0.1669173873960971832275390625</LongitudeDegrees>
            </Position>
            <AltitudeMeters>965.5999755859375</AltitudeMeters>
            <DistanceMeters>1030.908956147</DistanceMeters>
          </Trackpoint>
          <Trackpoint>
            <Time>2019-07-06T13:35:39.000Z</Time>
            <Position>
              <LatitudeDegrees>42.53643351607024669647216796875</LatitudeDegrees>
              <LongitudeDegrees>-0.16691696830093860626220703125</LongitudeDegrees>
            </Position>
            <AltitudeMeters>965.5999755859375</AltitudeMeters>
            <DistanceMeters>1031.2645135547</DistanceMeters>
          </Trackpoint>
          <Trackpoint>
            <Time>2019-07-06T13:35:43.000Z</Time>
            <Position>
              <LatitudeDegrees>42.53642429597675800323486328125</LatitudeDegrees>
              <LongitudeDegrees>-0.16690489836037158966064453125</LongitudeDegrees>
            </Position>
            <AltitudeMeters>965.5999755859375</AltitudeMeters>
            <DistanceMeters>1032.6930783157</DistanceMeters>
          </Trackpoint>
          <Trackpoint>
            <Time>2019-07-06T13:35:45.000Z</Time>
            <Position>
              <LatitudeDegrees>42.53642211668193340301513671875</LatitudeDegrees>
              <LongitudeDegrees>-0.16689307987689971923828125</LongitudeDegrees>
            </Position>
            <AltitudeMeters>965.5999755859375</AltitudeMeters>
            <DistanceMeters>1033.6897269042</DistanceMeters>
          </Trackpoint>
          <Trackpoint>
            <Time>2019-07-06T13:36:09.000Z</Time>
            <Position>
              <LatitudeDegrees>42.53645606338977813720703125</LatitudeDegrees>
              <LongitudeDegrees>-0.166798196732997894287109375</LongitudeDegrees>
            </Position>
            <AltitudeMeters>964.4000244140625</AltitudeMeters>
            <DistanceMeters>1042.3397681419</DistanceMeters>
          </Trackpoint>
          <Trackpoint>
            <Time>2019-07-06T13:36:16.000Z</Time>
            <Position>
              <LatitudeDegrees>42.53650124184787273406982421875</LatitudeDegrees>
              <LongitudeDegrees>-0.1667623221874237060546875</LongitudeDegrees>
            </Position>
            <AltitudeMeters>964.5999755859375</AltitudeMeters>
            <DistanceMeters>1048.1651460074</DistanceMeters>
          </Trackpoint>
          <Trackpoint>
            <Time>2019-07-06T13:36:18.000Z</Time>
            <Position>
              <LatitudeDegrees>42.53650560043752193450927734375</LatitudeDegrees>
              <LongitudeDegrees>-0.16673943959176540374755859375</LongitudeDegrees>
            </Position>
            <AltitudeMeters>964.5999755859375</AltitudeMeters>
            <DistanceMeters>1050.0986536097</DistanceMeters>
          </Trackpoint>
          <Trackpoint>
            <Time>2019-07-06T13:36:23.000Z</Time>
            <Position>
              <LatitudeDegrees>42.536506690084934234619140625</LatitudeDegrees>
              <LongitudeDegrees>-0.1667220890522003173828125</LongitudeDegrees>
            </Position>
            <AltitudeMeters>964.20001220703125</AltitudeMeters>
            <DistanceMeters>1051.5240543252</DistanceMeters>
          </Trackpoint>
          <Trackpoint>
            <Time>2019-07-06T13:36:27.000Z</Time>
            <Position>
              <LatitudeDegrees>42.5364808738231658935546875</LatitudeDegrees>
              <LongitudeDegrees>-0.1666853763163089752197265625</LongitudeDegrees>
            </Position>
            <AltitudeMeters>964</AltitudeMeters>
            <DistanceMeters>1055.6857470841</DistanceMeters>
          </Trackpoint>
          <Trackpoint>
            <Time>2019-07-06T13:36:28.000Z</Time>
            <Position>
              <LatitudeDegrees>42.53648363985121250152587890625</LatitudeDegrees>
              <LongitudeDegrees>-0.16667037270963191986083984375</LongitudeDegrees>
            </Position>
            <AltitudeMeters>964</AltitudeMeters>
            <DistanceMeters>1056.9535615844</DistanceMeters>
          </Trackpoint>
          <Trackpoint>
            <Time>2019-07-06T13:36:34.000Z</Time>
            <Position>
              <LatitudeDegrees>42.53649185411632061004638671875</LatitudeDegrees>
              <LongitudeDegrees>-0.16657599247992038726806640625</LongitudeDegrees>
            </Position>
            <AltitudeMeters>963.79998779296875</AltitudeMeters>
            <DistanceMeters>1064.7480695428</DistanceMeters>
          </Trackpoint>
          <Trackpoint>
            <Time>2019-07-06T13:36:37.000Z</Time>
            <Position>
              <LatitudeDegrees>42.53649763762950897216796875</LatitudeDegrees>
              <LongitudeDegrees>-0.16654011793434619903564453125</LongitudeDegrees>
            </Position>
            <AltitudeMeters>963.5999755859375</AltitudeMeters>
            <DistanceMeters>1067.7590821216</DistanceMeters>
          </Trackpoint>
          <Trackpoint>
            <Time>2019-07-06T13:36:39.000Z</Time>
            <Position>
              <LatitudeDegrees>42.53650342114269733428955078125</LatitudeDegrees>
              <LongitudeDegrees>-0.166519917547702789306640625</LongitudeDegrees>
            </Position>
            <AltitudeMeters>963.5999755859375</AltitudeMeters>
            <DistanceMeters>1069.5368691605</DistanceMeters>
          </Trackpoint>
          <Trackpoint>
            <Time>2019-07-06T13:36:40.000Z</Time>
            <Position>
              <LatitudeDegrees>42.536502666771411895751953125</LatitudeDegrees>
              <LongitudeDegrees>-0.1665117032825946807861328125</LongitudeDegrees>
            </Position>
            <AltitudeMeters>963.4000244140625</AltitudeMeters>
            <DistanceMeters>1070.2088095017</DistanceMeters>
          </Trackpoint>
          <Trackpoint>
            <Time>2019-07-06T13:36:41.000Z</Time>
            <Position>
              <LatitudeDegrees>42.53650543279945850372314453125</LatitudeDegrees>
              <LongitudeDegrees>-0.16650290228426456451416015625</LongitudeDegrees>
            </Position>
            <AltitudeMeters>963.4000244140625</AltitudeMeters>
            <DistanceMeters>1070.9924198629</DistanceMeters>
          </Trackpoint>
          <Trackpoint>
            <Time>2019-07-06T13:36:46.000Z</Time>
            <Position>
              <LatitudeDegrees>42.53650610335171222686767578125</LatitudeDegrees>
              <LongitudeDegrees>-0.1664516888558864593505859375</LongitudeDegrees>
            </Position>
            <AltitudeMeters>963.4000244140625</AltitudeMeters>
            <DistanceMeters>1075.1951367847</DistanceMeters>
          </Trackpoint>
          <Trackpoint>
            <Time>2019-07-06T13:36:47.000Z</Time>
            <Position>
              <LatitudeDegrees>42.5365035049617290496826171875</LatitudeDegrees>
              <LongitudeDegrees>-0.16644204966723918914794921875</LongitudeDegrees>
            </Position>
            <AltitudeMeters>963.4000244140625</AltitudeMeters>
            <DistanceMeters>1076.0397526968</DistanceMeters>
          </Trackpoint>
          <Trackpoint>
            <Time>2019-07-06T13:36:48.000Z</Time>
            <Position>
              <LatitudeDegrees>42.53650157712399959564208984375</LatitudeDegrees>
              <LongitudeDegrees>-0.16643148846924304962158203125</LongitudeDegrees>
            </Position>
            <AltitudeMeters>963.4000244140625</AltitudeMeters>
            <DistanceMeters>1076.9311822942</DistanceMeters>
          </Trackpoint>
          <Trackpoint>
            <Time>2019-07-06T13:36:49.000Z</Time>
            <Position>
              <LatitudeDegrees>42.53650166094303131103515625</LatitudeDegrees>
              <LongitudeDegrees>-0.16641958616673946380615234375</LongitudeDegrees>
            </Position>
            <AltitudeMeters>963.4000244140625</AltitudeMeters>
            <DistanceMeters>1077.9095421989</DistanceMeters>
          </Trackpoint>
          <Trackpoint>
            <Time>2019-07-06T13:36:52.000Z</Time>
            <Position>
              <LatitudeDegrees>42.53650191240012645721435546875</LatitudeDegrees>
              <LongitudeDegrees>-0.1663829572498798370361328125</LongitudeDegrees>
            </Position>
            <AltitudeMeters>963.4000244140625</AltitudeMeters>
            <DistanceMeters>1080.9145507586</DistanceMeters>
          </Trackpoint>
          <Trackpoint>
            <Time>2019-07-06T13:36:53.000Z</Time>
            <Position>
              <LatitudeDegrees>42.5365058518946170806884765625</LatitudeDegrees>
              <LongitudeDegrees>-0.16636963002383708953857421875</LongitudeDegrees>
            </Position>
            <AltitudeMeters>963.4000244140625</AltitudeMeters>
            <DistanceMeters>1082.0899663004</DistanceMeters>
          </Trackpoint>
          <Trackpoint>
            <Time>2019-07-06T13:36:54.000Z</Time>
            <Position>
              <LatitudeDegrees>42.53651062957942485809326171875</LatitudeDegrees>
              <LongitudeDegrees>-0.166355632245540618896484375</LongitudeDegrees>
            </Position>
            <AltitudeMeters>963.5999755859375</AltitudeMeters>
            <DistanceMeters>1083.354214508</DistanceMeters>
          </Trackpoint>
          <Trackpoint>
            <Time>2019-07-06T13:36:55.000Z</Time>
            <Position>
              <LatitudeDegrees>42.53651616163551807403564453125</LatitudeDegrees>
              <LongitudeDegrees>-0.16634213738143444061279296875</LongitudeDegrees>
            </Position>
            <AltitudeMeters>963.4000244140625</AltitudeMeters>
            <DistanceMeters>1084.6220290083</DistanceMeters>
          </Trackpoint>
          <Trackpoint>
            <Time>2019-07-06T13:36:56.000Z</Time>
            <Position>
              <LatitudeDegrees>42.53651884384453296661376953125</LatitudeDegrees>
              <LongitudeDegrees>-0.16632889397442340850830078125</LongitudeDegrees>
            </Position>
            <AltitudeMeters>963.4000244140625</AltitudeMeters>
            <DistanceMeters>1085.7464002558</DistanceMeters>
          </Trackpoint>
          <Trackpoint>
            <Time>2019-07-06T13:36:57.000Z</Time>
            <Position>
              <LatitudeDegrees>42.53652772866189479827880859375</LatitudeDegrees>
              <LongitudeDegrees>-0.16631766222417354583740234375</LongitudeDegrees>
            </Position>
            <AltitudeMeters>963.4000244140625</AltitudeMeters>
            <DistanceMeters>1087.0969836266</DistanceMeters>
          </Trackpoint>
          <Trackpoint>
            <Time>2019-07-06T13:36:58.000Z</Time>
            <Position>
              <LatitudeDegrees>42.53653208725154399871826171875</LatitudeDegrees>
              <LongitudeDegrees>-0.16630701720714569091796875</LongitudeDegrees>
            </Position>
            <AltitudeMeters>963.4000244140625</AltitudeMeters>
            <DistanceMeters>1088.0890916512</DistanceMeters>
          </Trackpoint>
          <Trackpoint>
            <Time>2019-07-06T13:37:00.000Z</Time>
            <Position>
              <LatitudeDegrees>42.53654189407825469970703125</LatitudeDegrees>
              <LongitudeDegrees>-0.1662830449640750885009765625</LongitudeDegrees>
            </Position>
            <AltitudeMeters>963.20001220703125</AltitudeMeters>
            <DistanceMeters>1090.3378341462</DistanceMeters>
          </Trackpoint>
          <Trackpoint>
            <Time>2019-07-06T13:37:01.000Z</Time>
            <Position>
              <LatitudeDegrees>42.5365487672388553619384765625</LatitudeDegrees>
              <LongitudeDegrees>-0.16627273522317409515380859375</LongitudeDegrees>
            </Position>
            <AltitudeMeters>963.20001220703125</AltitudeMeters>
            <DistanceMeters>1091.4741883742</DistanceMeters>
          </Trackpoint>
          <Trackpoint>
            <Time>2019-07-06T13:37:04.000Z</Time>
            <Position>
              <LatitudeDegrees>42.53655354492366313934326171875</LatitudeDegrees>
              <LongitudeDegrees>-0.16623635776340961456298828125</LongitudeDegrees>
            </Position>
            <AltitudeMeters>963</AltitudeMeters>
            <DistanceMeters>1094.5031416037</DistanceMeters>
          </Trackpoint>
          <Trackpoint>
            <Time>2019-07-06T13:37:05.000Z</Time>
            <Position>
              <LatitudeDegrees>42.5365558080375194549560546875</LatitudeDegrees>
              <LongitudeDegrees>-0.1662263832986354827880859375</LongitudeDegrees>
            </Position>
            <AltitudeMeters>963</AltitudeMeters>
            <DistanceMeters>1095.3636451008</DistanceMeters>
          </Trackpoint>
          <Trackpoint>
            <Time>2019-07-06T13:37:06.000Z</Time>
            <Position>
              <LatitudeDegrees>42.5365584902465343475341796875</LatitudeDegrees>
              <LongitudeDegrees>-0.166213810443878173828125</LongitudeDegrees>
            </Position>
            <AltitudeMeters>962.79998779296875</AltitudeMeters>
            <DistanceMeters>1096.4387496468</DistanceMeters>
          </Trackpoint>
          <Trackpoint>
            <Time>2019-07-06T13:37:07.000Z</Time>
            <Position>
              <LatitudeDegrees>42.53656142391264438629150390625</LatitudeDegrees>
              <LongitudeDegrees>-0.16619696281850337982177734375</LongitudeDegrees>
            </Position>
            <AltitudeMeters>962.79998779296875</AltitudeMeters>
            <DistanceMeters>1097.8546158024</DistanceMeters>
          </Trackpoint>
          <Trackpoint>
            <Time>2019-07-06T13:37:10.000Z</Time>
            <Position>
              <LatitudeDegrees>42.53657651133835315704345703125</LatitudeDegrees>
              <LongitudeDegrees>-0.166161172091960906982421875</LongitudeDegrees>
            </Position>
            <AltitudeMeters>962.79998779296875</AltitudeMeters>
            <DistanceMeters>1101.2357512297</DistanceMeters>
          </Trackpoint>
          <Trackpoint>
            <Time>2019-07-06T13:37:11.000Z</Time>
            <Position>
              <LatitudeDegrees>42.53657466731965541839599609375</LatitudeDegrees>
              <LongitudeDegrees>-0.16614482738077640533447265625</LongitudeDegrees>
            </Position>
            <AltitudeMeters>962.79998779296875</AltitudeMeters>
            <DistanceMeters>1102.5863346006</DistanceMeters>
          </Trackpoint>
          <Trackpoint>
            <Time>2019-07-06T13:37:15.000Z</Time>
            <Position>
              <LatitudeDegrees>42.53658221103250980377197265625</LatitudeDegrees>
              <LongitudeDegrees>-0.16609244048595428466796875</LongitudeDegrees>
            </Position>
            <AltitudeMeters>962.20001220703125</AltitudeMeters>
            <DistanceMeters>1106.9627249097</DistanceMeters>
          </Trackpoint>
          <Trackpoint>
            <Time>2019-07-06T13:37:18.000Z</Time>
            <Position>
              <LatitudeDegrees>42.53658807836472988128662109375</LatitudeDegrees>
              <LongitudeDegrees>-0.16606637276709079742431640625</LongitudeDegrees>
            </Position>
            <AltitudeMeters>962</AltitudeMeters>
            <DistanceMeters>1109.1973685666</DistanceMeters>
          </Trackpoint>
          <Trackpoint>
            <Time>2019-07-06T13:37:26.000Z</Time>
            <Position>
              <LatitudeDegrees>42.5365933589637279510498046875</LatitudeDegrees>
              <LongitudeDegrees>-0.1659893430769443511962890625</LongitudeDegrees>
            </Position>
            <AltitudeMeters>961.20001220703125</AltitudeMeters>
            <DistanceMeters>1115.5421365519</DistanceMeters>
          </Trackpoint>
          <Trackpoint>
            <Time>2019-07-06T13:37:29.000Z</Time>
            <Position>
              <LatitudeDegrees>42.53659277223050594329833984375</LatitudeDegrees>
              <LongitudeDegrees>-0.165951959788799285888671875</LongitudeDegrees>
            </Position>
            <AltitudeMeters>961</AltitudeMeters>
            <DistanceMeters>1118.6096012468</DistanceMeters>
          </Trackpoint>
          <Trackpoint>
            <Time>2019-07-06T13:37:32.000Z</Time>
            <Position>
              <LatitudeDegrees>42.53660760819911956787109375</LatitudeDegrees>
              <LongitudeDegrees>-0.16593293286859989166259765625</LongitudeDegrees>
            </Position>
            <AltitudeMeters>960.4000244140625</AltitudeMeters>
            <DistanceMeters>1120.8823097028</DistanceMeters>
          </Trackpoint>
          <Trackpoint>
            <Time>2019-07-06T13:37:33.000Z</Time>
            <Position>
              <LatitudeDegrees>42.536613643169403076171875</LatitudeDegrees>
              <LongitudeDegrees>-0.1659273169934749603271484375</LongitudeDegrees>
            </Position>
            <AltitudeMeters>960.20001220703125</AltitudeMeters>
            <DistanceMeters>1121.6942183063</DistanceMeters>
          </Trackpoint>
          <Trackpoint>
            <Time>2019-07-06T13:37:37.000Z</Time>
            <Position>
              <LatitudeDegrees>42.5366198457777500152587890625</LatitudeDegrees>
              <LongitudeDegrees>-0.165897645056247711181640625</LongitudeDegrees>
            </Position>
            <AltitudeMeters>959.4000244140625</AltitudeMeters>
            <DistanceMeters>1124.2227147216</DistanceMeters>
          </Trackpoint>
          <Trackpoint>
            <Time>2019-07-06T13:37:38.000Z</Time>
            <Position>
              <LatitudeDegrees>42.53662210889160633087158203125</LatitudeDegrees>
              <LongitudeDegrees>-0.16589462757110595703125</LongitudeDegrees>
            </Position>
            <AltitudeMeters>959.4000244140625</AltitudeMeters>
            <DistanceMeters>1124.5782721294</DistanceMeters>
          </Trackpoint>
          <Trackpoint>
            <Time>2019-07-06T13:37:39.000Z</Time>
            <Position>
              <LatitudeDegrees>42.53661976195871829986572265625</LatitudeDegrees>
              <LongitudeDegrees>-0.16588984988629817962646484375</LongitudeDegrees>
            </Position>
            <AltitudeMeters>959.20001220703125</AltitudeMeters>
            <DistanceMeters>1125.0438060537</DistanceMeters>
          </Trackpoint>
          <Trackpoint>
            <Time>2019-07-06T13:37:40.000Z</Time>
            <Position>
              <LatitudeDegrees>42.5366176664829254150390625</LatitudeDegrees>
              <LongitudeDegrees>-0.16588415019214153289794921875</LongitudeDegrees>
            </Position>
            <AltitudeMeters>959</AltitudeMeters>
            <DistanceMeters>1125.5642888039</DistanceMeters>
          </Trackpoint>
          <Trackpoint>
            <Time>2019-07-06T13:37:42.000Z</Time>
            <Position>
              <LatitudeDegrees>42.5366176664829254150390625</LatitudeDegrees>
              <LongitudeDegrees>-0.1658726669847965240478515625</LongitudeDegrees>
            </Position>
            <AltitudeMeters>958.79998779296875</AltitudeMeters>
            <DistanceMeters>1126.5050052817</DistanceMeters>
          </Trackpoint>
          <Trackpoint>
            <Time>2019-07-06T13:37:43.000Z</Time>
            <Position>
              <LatitudeDegrees>42.53662194125354290008544921875</LatitudeDegrees>
              <LongitudeDegrees>-0.1658637821674346923828125</LongitudeDegrees>
            </Position>
            <AltitudeMeters>958.79998779296875</AltitudeMeters>
            <DistanceMeters>1127.3811082995</DistanceMeters>
          </Trackpoint>
          <Trackpoint>
            <Time>2019-07-06T13:37:44.000Z</Time>
            <Position>
              <LatitudeDegrees>42.5366265513002872467041015625</LatitudeDegrees>
              <LongitudeDegrees>-0.1658535562455654144287109375</LongitudeDegrees>
            </Position>
            <AltitudeMeters>958.5999755859375</AltitudeMeters>
            <DistanceMeters>1128.3640722762</DistanceMeters>
          </Trackpoint>
          <Trackpoint>
            <Time>2019-07-06T13:37:49.000Z</Time>
            <Position>
              <LatitudeDegrees>42.53665454685688018798828125</LatitudeDegrees>
              <LongitudeDegrees>-0.16579697839915752410888671875</LongitudeDegrees>
            </Position>
            <AltitudeMeters>958.4000244140625</AltitudeMeters>
            <DistanceMeters>1133.9529034974</DistanceMeters>
          </Trackpoint>
          <Trackpoint>
            <Time>2019-07-06T13:37:52.000Z</Time>
            <Position>
              <LatitudeDegrees>42.53666921518743038177490234375</LatitudeDegrees>
              <LongitudeDegrees>-0.16578323207795619964599609375</LongitudeDegrees>
            </Position>
            <AltitudeMeters>958.20001220703125</AltitudeMeters>
            <DistanceMeters>1135.9371195465</DistanceMeters>
          </Trackpoint>
          <Trackpoint>
            <Time>2019-07-06T13:37:54.000Z</Time>
            <Position>
              <LatitudeDegrees>42.5366708077490329742431640625</LatitudeDegrees>
              <LongitudeDegrees>-0.16577702946960926055908203125</LongitudeDegrees>
            </Position>
            <AltitudeMeters>958.20001220703125</AltitudeMeters>
            <DistanceMeters>1136.4830064603</DistanceMeters>
          </Trackpoint>
          <Trackpoint>
            <Time>2019-07-06T13:37:55.000Z</Time>
            <Position>
              <LatitudeDegrees>42.53666460514068603515625</LatitudeDegrees>
              <LongitudeDegrees>-0.16577552072703838348388671875</LongitudeDegrees>
            </Position>
            <AltitudeMeters>958.20001220703125</AltitudeMeters>
            <DistanceMeters>1137.1813073467</DistanceMeters>
          </Trackpoint>
          <Trackpoint>
            <Time>2019-07-06T13:37:56.000Z</Time>
            <Position>
              <LatitudeDegrees>42.53665764816105365753173828125</LatitudeDegrees>
              <LongitudeDegrees>-0.16577661037445068359375</LongitudeDegrees>
            </Position>
            <AltitudeMeters>958.20001220703125</AltitudeMeters>
            <DistanceMeters>1137.964917708</DistanceMeters>
          </Trackpoint>
          <Trackpoint>
            <Time>2019-07-06T13:37:58.000Z</Time>
            <Position>
              <LatitudeDegrees>42.53665764816105365753173828125</LatitudeDegrees>
              <LongitudeDegrees>-0.16578541137278079986572265625</LongitudeDegrees>
            </Position>
            <AltitudeMeters>958</AltitudeMeters>
            <DistanceMeters>1138.694831751</DistanceMeters>
          </Trackpoint>
          <Trackpoint>
            <Time>2019-07-06T13:38:04.000Z</Time>
            <Position>
              <LatitudeDegrees>42.5366651080548763275146484375</LatitudeDegrees>
              <LongitudeDegrees>-0.165723301470279693603515625</LongitudeDegrees>
            </Position>
            <AltitudeMeters>957.4000244140625</AltitudeMeters>
            <DistanceMeters>1143.856103446</DistanceMeters>
          </Trackpoint>
          <Trackpoint>
            <Time>2019-07-06T13:38:06.000Z</Time>
            <Position>
              <LatitudeDegrees>42.5366560555994510650634765625</LatitudeDegrees>
              <LongitudeDegrees>-0.16569740138947963714599609375</LongitudeDegrees>
            </Position>
            <AltitudeMeters>957</AltitudeMeters>
            <DistanceMeters>1146.2069345296</DistanceMeters>
          </Trackpoint>
          <Trackpoint>
            <Time>2019-07-06T13:38:07.000Z</Time>
            <Position>
              <LatitudeDegrees>42.53665831871330738067626953125</LatitudeDegrees>
              <LongitudeDegrees>-0.16568466089665889739990234375</LongitudeDegrees>
            </Position>
            <AltitudeMeters>956.79998779296875</AltitudeMeters>
            <DistanceMeters>1147.2820390756</DistanceMeters>
          </Trackpoint>
          <Trackpoint>
            <Time>2019-07-06T13:38:10.000Z</Time>
            <Position>
              <LatitudeDegrees>42.53665563650429248809814453125</LatitudeDegrees>
              <LongitudeDegrees>-0.16565029509365558624267578125</LongitudeDegrees>
            </Position>
            <AltitudeMeters>956.4000244140625</AltitudeMeters>
            <DistanceMeters>1150.116958481</DistanceMeters>
          </Trackpoint>
          <Trackpoint>
            <Time>2019-07-06T13:38:14.000Z</Time>
            <Position>
              <LatitudeDegrees>42.53665379248559474945068359375</LatitudeDegrees>
              <LongitudeDegrees>-0.165625400841236114501953125</LongitudeDegrees>
            </Position>
            <AltitudeMeters>955.79998779296875</AltitudeMeters>
            <DistanceMeters>1152.1683033138</DistanceMeters>
          </Trackpoint>
          <Trackpoint>
            <Time>2019-07-06T13:38:21.000Z</Time>
            <Position>
              <LatitudeDegrees>42.5366838835179805755615234375</LatitudeDegrees>
              <LongitudeDegrees>-0.16558122821152210235595703125</LongitudeDegrees>
            </Position>
            <AltitudeMeters>954.5999755859375</AltitudeMeters>
            <DistanceMeters>1157.1023772991</DistanceMeters>
          </Trackpoint>
          <Trackpoint>
            <Time>2019-07-06T13:38:25.000Z</Time>
            <Position>
              <LatitudeDegrees>42.53667776472866535186767578125</LatitudeDegrees>
              <LongitudeDegrees>-0.1655595190823078155517578125</LongitudeDegrees>
            </Position>
            <AltitudeMeters>954.20001220703125</AltitudeMeters>
            <DistanceMeters>1159.0123906193</DistanceMeters>
          </Trackpoint>
          <Trackpoint>
            <Time>2019-07-06T13:38:26.000Z</Time>
            <Position>
              <LatitudeDegrees>42.5366741605103015899658203125</LatitudeDegrees>
              <LongitudeDegrees>-0.1655541546642780303955078125</LongitudeDegrees>
            </Position>
            <AltitudeMeters>954.20001220703125</AltitudeMeters>
            <DistanceMeters>1159.6133923312</DistanceMeters>
          </Trackpoint>
          <Trackpoint>
            <Time>2019-07-06T13:38:30.000Z</Time>
            <Position>
              <LatitudeDegrees>42.53667868673801422119140625</LatitudeDegrees>
              <LongitudeDegrees>-0.1655377261340618133544921875</LongitudeDegrees>
            </Position>
            <AltitudeMeters>953.4000244140625</AltitudeMeters>
            <DistanceMeters>1161.0545438091</DistanceMeters>
          </Trackpoint>
          <Trackpoint>
            <Time>2019-07-06T13:38:31.000Z</Time>
            <Position>
              <LatitudeDegrees>42.53667608834803104400634765625</LatitudeDegrees>
              <LongitudeDegrees>-0.165538229048252105712890625</LongitudeDegrees>
            </Position>
            <AltitudeMeters>953.20001220703125</AltitudeMeters>
            <DistanceMeters>1161.3396239522</DistanceMeters>
          </Trackpoint>
          <Trackpoint>
            <Time>2019-07-06T13:38:32.000Z</Time>
            <Position>
              <LatitudeDegrees>42.53667424432933330535888671875</LatitudeDegrees>
              <LongitudeDegrees>-0.165539570152759552001953125</LongitudeDegrees>
            </Position>
            <AltitudeMeters>953.20001220703125</AltitudeMeters>
            <DistanceMeters>1161.5521101452</DistanceMeters>
          </Trackpoint>
          <Trackpoint>
            <Time>2019-07-06T13:38:36.000Z</Time>
            <Position>
              <LatitudeDegrees>42.5366969592869281768798828125</LatitudeDegrees>
              <LongitudeDegrees>-0.16555340029299259185791015625</LongitudeDegrees>
            </Position>
            <AltitudeMeters>952.79998779296875</AltitudeMeters>
            <DistanceMeters>1164.3225911463</DistanceMeters>
          </Trackpoint>
          <Trackpoint>
            <Time>2019-07-06T13:38:37.000Z</Time>
            <Position>
              <LatitudeDegrees>42.53671087324619293212890625</LatitudeDegrees>
              <LongitudeDegrees>-0.16556262038648128509521484375</LongitudeDegrees>
            </Position>
            <AltitudeMeters>952.5999755859375</AltitudeMeters>
            <DistanceMeters>1166.0488371388</DistanceMeters>
          </Trackpoint>
          <Trackpoint>
            <Time>2019-07-06T13:38:39.000Z</Time>
            <Position>
              <LatitudeDegrees>42.5367237813770771026611328125</LatitudeDegrees>
              <LongitudeDegrees>-0.16557770781219005584716796875</LongitudeDegrees>
            </Position>
            <AltitudeMeters>952.20001220703125</AltitudeMeters>
            <DistanceMeters>1167.9422310091</DistanceMeters>
          </Trackpoint>
          <Trackpoint>
            <Time>2019-07-06T13:38:46.000Z</Time>
            <Position>
              <LatitudeDegrees>42.53672487102448940277099609375</LatitudeDegrees>
              <LongitudeDegrees>-0.16560872085392475128173828125</LongitudeDegrees>
            </Position>
            <AltitudeMeters>951.20001220703125</AltitudeMeters>
            <DistanceMeters>1170.4885214259</DistanceMeters>
          </Trackpoint>
          <Trackpoint>
            <Time>2019-07-06T13:38:54.000Z</Time>
            <Position>
              <LatitudeDegrees>42.53675781190395355224609375</LatitudeDegrees>
              <LongitudeDegrees>-0.165603272616863250732421875</LongitudeDegrees>
            </Position>
            <AltitudeMeters>950.20001220703125</AltitudeMeters>
            <DistanceMeters>1174.1823602836</DistanceMeters>
          </Trackpoint>
          <Trackpoint>
            <Time>2019-07-06T13:39:04.000Z</Time>
            <Position>
              <LatitudeDegrees>42.53675739280879497528076171875</LatitudeDegrees>
              <LongitudeDegrees>-0.16552858985960483551025390625</LongitudeDegrees>
            </Position>
            <AltitudeMeters>949</AltitudeMeters>
            <DistanceMeters>1180.3077147734</DistanceMeters>
          </Trackpoint>
          <Trackpoint>
            <Time>2019-07-06T13:39:05.000Z</Time>
            <Position>
              <LatitudeDegrees>42.53675647079944610595703125</LatitudeDegrees>
              <LongitudeDegrees>-0.1655226387083530426025390625</LongitudeDegrees>
            </Position>
            <AltitudeMeters>949</AltitudeMeters>
            <DistanceMeters>1180.8014880655</DistanceMeters>
          </Trackpoint>
          <Trackpoint>
            <Time>2019-07-06T13:39:20.000Z</Time>
            <Position>
              <LatitudeDegrees>42.5368295609951019287109375</LatitudeDegrees>
              <LongitudeDegrees>-0.16549087129533290863037109375</LongitudeDegrees>
            </Position>
            <AltitudeMeters>948</AltitudeMeters>
            <DistanceMeters>1189.3433273093</DistanceMeters>
          </Trackpoint>
          <Trackpoint>
            <Time>2019-07-06T13:39:32.000Z</Time>
            <Position>
              <LatitudeDegrees>42.53680081106722354888916015625</LatitudeDegrees>
              <LongitudeDegrees>-0.16552641056478023529052734375</LongitudeDegrees>
            </Position>
            <AltitudeMeters>947.5999755859375</AltitudeMeters>
            <DistanceMeters>1193.6709569774</DistanceMeters>
          </Trackpoint>
          <Trackpoint>
            <Time>2019-07-06T13:39:43.000Z</Time>
            <Position>
              <LatitudeDegrees>42.5368672795593738555908203125</LatitudeDegrees>
              <LongitudeDegrees>-0.16561794094741344451904296875</LongitudeDegrees>
            </Position>
            <AltitudeMeters>947</AltitudeMeters>
            <DistanceMeters>1204.2099294255</DistanceMeters>
          </Trackpoint>
          <Trackpoint>
            <Time>2019-07-06T13:39:45.000Z</Time>
            <Position>
              <LatitudeDegrees>42.53687272779643535614013671875</LatitudeDegrees>
              <LongitudeDegrees>-0.16562565229833126068115234375</LongitudeDegrees>
            </Position>
            <AltitudeMeters>946.79998779296875</AltitudeMeters>
            <DistanceMeters>1205.0911709214</DistanceMeters>
          </Trackpoint>
          <Trackpoint>
            <Time>2019-07-06T13:39:53.000Z</Time>
            <Position>
              <LatitudeDegrees>42.53689996898174285888671875</LatitudeDegrees>
              <LongitudeDegrees>-0.16568516381084918975830078125</LongitudeDegrees>
            </Position>
            <AltitudeMeters>945.79998779296875</AltitudeMeters>
            <DistanceMeters>1210.8377342036</DistanceMeters>
          </Trackpoint>
          <Trackpoint>
            <Time>2019-07-06T13:39:58.000Z</Time>
            <Position>
              <LatitudeDegrees>42.536928467452526092529296875</LatitudeDegrees>
              <LongitudeDegrees>-0.1657187752425670623779296875</LongitudeDegrees>
            </Position>
            <AltitudeMeters>945.5999755859375</AltitudeMeters>
            <DistanceMeters>1215.0404511253</DistanceMeters>
          </Trackpoint>
          <Trackpoint>
            <Time>2019-07-06T13:39:59.000Z</Time>
            <Position>
              <LatitudeDegrees>42.5369326584041118621826171875</LatitudeDegrees>
              <LongitudeDegrees>-0.16572455875575542449951171875</LongitudeDegrees>
            </Position>
            <AltitudeMeters>945.5999755859375</AltitudeMeters>
            <DistanceMeters>1215.7056381259</DistanceMeters>
          </Trackpoint>
          <Trackpoint>
            <Time>2019-07-06T13:40:00.000Z</Time>
            <Position>
              <LatitudeDegrees>42.5369356758892536163330078125</LatitudeDegrees>
              <LongitudeDegrees>-0.16573076136410236358642578125</LongitudeDegrees>
            </Position>
            <AltitudeMeters>945.4000244140625</AltitudeMeters>
            <DistanceMeters>1216.3214816211</DistanceMeters>
          </Trackpoint>
          <Trackpoint>
            <Time>2019-07-06T13:40:03.000Z</Time>
            <Position>
              <LatitudeDegrees>42.5369333289563655853271484375</LatitudeDegrees>
              <LongitudeDegrees>-0.1657484471797943115234375</LongitudeDegrees>
            </Position>
            <AltitudeMeters>945.20001220703125</AltitudeMeters>
            <DistanceMeters>1217.7936291499</DistanceMeters>
          </Trackpoint>
          <Trackpoint>
            <Time>2019-07-06T13:40:06.000Z</Time>
            <Position>
              <LatitudeDegrees>42.53693441860377788543701171875</LatitudeDegrees>
              <LongitudeDegrees>-0.165762193500995635986328125</LongitudeDegrees>
            </Position>
            <AltitudeMeters>944.79998779296875</AltitudeMeters>
            <DistanceMeters>1218.9339497224</DistanceMeters>
          </Trackpoint>
          <Trackpoint>
            <Time>2019-07-06T13:40:09.000Z</Time>
            <Position>
              <LatitudeDegrees>42.53694732673466205596923828125</LatitudeDegrees>
              <LongitudeDegrees>-0.165768563747406005859375</LongitudeDegrees>
            </Position>
            <AltitudeMeters>944.4000244140625</AltitudeMeters>
            <DistanceMeters>1220.4662094508</DistanceMeters>
          </Trackpoint>
          <Trackpoint>
            <Time>2019-07-06T13:40:12.000Z</Time>
            <Position>
              <LatitudeDegrees>42.53696274943649768829345703125</LatitudeDegrees>
              <LongitudeDegrees>-0.16575716435909271240234375</LongitudeDegrees>
            </Position>
            <AltitudeMeters>944.20001220703125</AltitudeMeters>
            <DistanceMeters>1222.4229292602</DistanceMeters>
          </Trackpoint>
          <Trackpoint>
            <Time>2019-07-06T13:40:15.000Z</Time>
            <Position>
              <LatitudeDegrees>42.536973059177398681640625</LatitudeDegrees>
              <LongitudeDegrees>-0.16573210246860980987548828125</LongitudeDegrees>
            </Position>
            <AltitudeMeters>943.79998779296875</AltitudeMeters>
            <DistanceMeters>1224.7775984379</DistanceMeters>
          </Trackpoint>
          <Trackpoint>
            <Time>2019-07-06T13:40:16.000Z</Time>
            <Position>
              <LatitudeDegrees>42.5369708798825740814208984375</LatitudeDegrees>
              <LongitudeDegrees>-0.16572455875575542449951171875</LongitudeDegrees>
            </Position>
            <AltitudeMeters>943.79998779296875</AltitudeMeters>
            <DistanceMeters>1225.4427854385</DistanceMeters>
          </Trackpoint>
          <Trackpoint>
            <Time>2019-07-06T13:40:19.000Z</Time>
            <Position>
              <LatitudeDegrees>42.5369695387780666351318359375</LatitudeDegrees>
              <LongitudeDegrees>-0.16569974832236766815185546875</LongitudeDegrees>
            </Position>
            <AltitudeMeters>943.4000244140625</AltitudeMeters>
            <DistanceMeters>1227.4808814039</DistanceMeters>
          </Trackpoint>
          <Trackpoint>
            <Time>2019-07-06T13:40:25.000Z</Time>
            <Position>
              <LatitudeDegrees>42.53697548992931842803955078125</LatitudeDegrees>
              <LongitudeDegrees>-0.165662281215190887451171875</LongitudeDegrees>
            </Position>
            <AltitudeMeters>942.79998779296875</AltitudeMeters>
            <DistanceMeters>1230.6239537272</DistanceMeters>
          </Trackpoint>
          <Trackpoint>
            <Time>2019-07-06T13:40:34.000Z</Time>
            <Position>
              <LatitudeDegrees>42.53696710802614688873291015625</LatitudeDegrees>
              <LongitudeDegrees>-0.16562649048864841461181640625</LongitudeDegrees>
            </Position>
            <AltitudeMeters>941.79998779296875</AltitudeMeters>
            <DistanceMeters>1233.7031712035</DistanceMeters>
          </Trackpoint>
          <Trackpoint>
            <Time>2019-07-06T13:40:35.000Z</Time>
            <Position>
              <LatitudeDegrees>42.53696300089359283447265625</LatitudeDegrees>
              <LongitudeDegrees>-0.1656228862702846527099609375</LongitudeDegrees>
            </Position>
            <AltitudeMeters>941.5999755859375</AltitudeMeters>
            <DistanceMeters>1234.2572674037</DistanceMeters>
          </Trackpoint>
          <Trackpoint>
            <Time>2019-07-06T13:40:43.000Z</Time>
            <Position>
              <LatitudeDegrees>42.5369510985910892486572265625</LatitudeDegrees>
              <LongitudeDegrees>-0.1655963994562625885009765625</LongitudeDegrees>
            </Position>
            <AltitudeMeters>940.5999755859375</AltitudeMeters>
            <DistanceMeters>1236.800008982</DistanceMeters>
          </Trackpoint>
          <Trackpoint>
            <Time>2019-07-06T13:40:46.000Z</Time>
            <Position>
              <LatitudeDegrees>42.536974735558032989501953125</LatitudeDegrees>
              <LongitudeDegrees>-0.16557401977479457855224609375</LongitudeDegrees>
            </Position>
            <AltitudeMeters>940.20001220703125</AltitudeMeters>
            <DistanceMeters>1240.008480136</DistanceMeters>
          </Trackpoint>
          <Trackpoint>
            <Time>2019-07-06T13:40:53.000Z</Time>
            <Position>
              <LatitudeDegrees>42.5369889847934246063232421875</LatitudeDegrees>
              <LongitudeDegrees>-0.16552523709833621978759765625</LongitudeDegrees>
            </Position>
            <AltitudeMeters>939.4000244140625</AltitudeMeters>
            <DistanceMeters>1244.3120468877</DistanceMeters>
          </Trackpoint>
          <Trackpoint>
            <Time>2019-07-06T13:40:55.000Z</Time>
            <Position>
              <LatitudeDegrees>42.53699711523950099945068359375</LatitudeDegrees>
              <LongitudeDegrees>-0.165516771376132965087890625</LongitudeDegrees>
            </Position>
            <AltitudeMeters>939</AltitudeMeters>
            <DistanceMeters>1245.4523674602</DistanceMeters>
          </Trackpoint>
          <Trackpoint>
            <Time>2019-07-06T13:40:57.000Z</Time>
            <Position>
              <LatitudeDegrees>42.53699443303048610687255859375</LatitudeDegrees>
              <LongitudeDegrees>-0.16552004031836986541748046875</LongitudeDegrees>
            </Position>
            <AltitudeMeters>939</AltitudeMeters>
            <DistanceMeters>1245.8555316649</DistanceMeters>
          </Trackpoint>
          <Trackpoint>
            <Time>2019-07-06T13:41:02.000Z</Time>
            <Position>
              <LatitudeDegrees>42.53703097812831401824951171875</LatitudeDegrees>
              <LongitudeDegrees>-0.16551367007195949554443359375</LongitudeDegrees>
            </Position>
            <AltitudeMeters>938.4000244140625</AltitudeMeters>
            <DistanceMeters>1249.9571206759</DistanceMeters>
          </Trackpoint>
          <Trackpoint>
            <Time>2019-07-06T13:41:10.000Z</Time>
            <Position>
              <LatitudeDegrees>42.5370255298912525177001953125</LatitudeDegrees>
              <LongitudeDegrees>-0.1654572598636150360107421875</LongitudeDegrees>
            </Position>
            <AltitudeMeters>937.4000244140625</AltitudeMeters>
            <DistanceMeters>1254.6240837551</DistanceMeters>
          </Trackpoint>
          <Trackpoint>
            <Time>2019-07-06T13:41:34.000Z</Time>
            <Position>
              <LatitudeDegrees>42.53696928732097148895263671875</LatitudeDegrees>
              <LongitudeDegrees>-0.165353156626224517822265625</LongitudeDegrees>
            </Position>
            <AltitudeMeters>936.4000244140625</AltitudeMeters>
            <DistanceMeters>1265.2109297832</DistanceMeters>
          </Trackpoint>
          <Trackpoint>
            <Time>2019-07-06T13:41:37.000Z</Time>
            <Position>
              <LatitudeDegrees>42.5369893200695514678955078125</LatitudeDegrees>
              <LongitudeDegrees>-0.1653040386736392974853515625</LongitudeDegrees>
            </Position>
            <AltitudeMeters>935.20001220703125</AltitudeMeters>
            <DistanceMeters>1269.8135985023</DistanceMeters>
          </Trackpoint>
          <Trackpoint>
            <Time>2019-07-06T13:41:41.000Z</Time>
            <Position>
              <LatitudeDegrees>42.53699921071529388427734375</LatitudeDegrees>
              <LongitudeDegrees>-0.1652671582996845245361328125</LongitudeDegrees>
            </Position>
            <AltitudeMeters>934.20001220703125</AltitudeMeters>
            <DistanceMeters>1273.0319051504</DistanceMeters>
          </Trackpoint>
          <Trackpoint>
            <Time>2019-07-06T13:41:46.000Z</Time>
            <Position>
              <LatitudeDegrees>42.5370307266712188720703125</LatitudeDegrees>
              <LongitudeDegrees>-0.1652450300753116607666015625</LongitudeDegrees>
            </Position>
            <AltitudeMeters>933</AltitudeMeters>
            <DistanceMeters>1276.9820914872</DistanceMeters>
          </Trackpoint>
          <Trackpoint>
            <Time>2019-07-06T13:41:52.000Z</Time>
            <Position>
              <LatitudeDegrees>42.53702578134834766387939453125</LatitudeDegrees>
              <LongitudeDegrees>-0.165282748639583587646484375</LongitudeDegrees>
            </Position>
            <AltitudeMeters>932.20001220703125</AltitudeMeters>
            <DistanceMeters>1280.1251638105</DistanceMeters>
          </Trackpoint>
          <Trackpoint>
            <Time>2019-07-06T13:41:53.000Z</Time>
            <Position>
              <LatitudeDegrees>42.53702058456838130950927734375</LatitudeDegrees>
              <LongitudeDegrees>-0.16529045999050140380859375</LongitudeDegrees>
            </Position>
            <AltitudeMeters>932</AltitudeMeters>
            <DistanceMeters>1280.9856673075</DistanceMeters>
          </Trackpoint>
          <Trackpoint>
            <Time>2019-07-06T13:41:55.000Z</Time>
            <Position>
              <LatitudeDegrees>42.53701421432197093963623046875</LatitudeDegrees>
              <LongitudeDegrees>-0.165301859378814697265625</LongitudeDegrees>
            </Position>
            <AltitudeMeters>931.5999755859375</AltitudeMeters>
            <DistanceMeters>1282.157235325</DistanceMeters>
          </Trackpoint>
          <Trackpoint>
            <Time>2019-07-06T13:41:56.000Z</Time>
            <Position>
              <LatitudeDegrees>42.5370127893984317779541015625</LatitudeDegrees>
              <LongitudeDegrees>-0.165305547416210174560546875</LongitudeDegrees>
            </Position>
            <AltitudeMeters>931.4000244140625</AltitudeMeters>
            <DistanceMeters>1282.5127927327</DistanceMeters>
          </Trackpoint>
          <Trackpoint>
            <Time>2019-07-06T13:41:57.000Z</Time>
            <Position>
              <LatitudeDegrees>42.5370077602565288543701171875</LatitudeDegrees>
              <LongitudeDegrees>-0.1653094030916690826416015625</LongitudeDegrees>
            </Position>
            <AltitudeMeters>931.4000244140625</AltitudeMeters>
            <DistanceMeters>1283.1572952668</DistanceMeters>
          </Trackpoint>
          <Trackpoint>
            <Time>2019-07-06T13:42:03.000Z</Time>
            <Position>
              <LatitudeDegrees>42.53700348548591136932373046875</LatitudeDegrees>
              <LongitudeDegrees>-0.165360867977142333984375</LongitudeDegrees>
            </Position>
            <AltitudeMeters>930.79998779296875</AltitudeMeters>
            <DistanceMeters>1287.4048937336</DistanceMeters>
          </Trackpoint>
          <Trackpoint>
            <Time>2019-07-06T13:42:05.000Z</Time>
            <Position>
              <LatitudeDegrees>42.53700801171362400054931640625</LatitudeDegrees>
              <LongitudeDegrees>-0.1653741113841533660888671875</LongitudeDegrees>
            </Position>
            <AltitudeMeters>930.79998779296875</AltitudeMeters>
            <DistanceMeters>1288.6031350092</DistanceMeters>
          </Trackpoint>
          <Trackpoint>
            <Time>2019-07-06T13:42:08.000Z</Time>
            <Position>
              <LatitudeDegrees>42.53701907582581043243408203125</LatitudeDegrees>
              <LongitudeDegrees>-0.1653670705854892730712890625</LongitudeDegrees>
            </Position>
            <AltitudeMeters>930.5999755859375</AltitudeMeters>
            <DistanceMeters>1289.9603879681</DistanceMeters>
          </Trackpoint>
          <Trackpoint>
            <Time>2019-07-06T13:42:10.000Z</Time>
            <Position>
              <LatitudeDegrees>42.53702293150126934051513671875</LatitudeDegrees>
              <LongitudeDegrees>-0.16535659320652484893798828125</LongitudeDegrees>
            </Position>
            <AltitudeMeters>930.4000244140625</AltitudeMeters>
            <DistanceMeters>1290.9201107392</DistanceMeters>
          </Trackpoint>
          <Trackpoint>
            <Time>2019-07-06T13:42:12.000Z</Time>
            <Position>
              <LatitudeDegrees>42.537027709186077117919921875</LatitudeDegrees>
              <LongitudeDegrees>-0.1653405837714672088623046875</LongitudeDegrees>
            </Position>
            <AltitudeMeters>930</AltitudeMeters>
            <DistanceMeters>1292.3391621995</DistanceMeters>
          </Trackpoint>
          <Trackpoint>
            <Time>2019-07-06T13:42:14.000Z</Time>
            <Position>
              <LatitudeDegrees>42.5370312295854091644287109375</LatitudeDegrees>
              <LongitudeDegrees>-0.1653327047824859619140625</LongitudeDegrees>
            </Position>
            <AltitudeMeters>929.79998779296875</AltitudeMeters>
            <DistanceMeters>1293.0934133619</DistanceMeters>
          </Trackpoint>
          <Trackpoint>
            <Time>2019-07-06T13:42:16.000Z</Time>
            <Position>
              <LatitudeDegrees>42.53704556263983249664306640625</LatitudeDegrees>
              <LongitudeDegrees>-0.16531384550034999847412109375</LongitudeDegrees>
            </Position>
            <AltitudeMeters>929.4000244140625</AltitudeMeters>
            <DistanceMeters>1295.3138686617</DistanceMeters>
          </Trackpoint>
          <Trackpoint>
            <Time>2019-07-06T13:42:19.000Z</Time>
            <Position>
              <LatitudeDegrees>42.5370553694665431976318359375</LatitudeDegrees>
              <LongitudeDegrees>-0.165270678699016571044921875</LongitudeDegrees>
            </Position>
            <AltitudeMeters>928.79998779296875</AltitudeMeters>
            <DistanceMeters>1299.0186920306</DistanceMeters>
          </Trackpoint>
          <Trackpoint>
            <Time>2019-07-06T13:42:25.000Z</Time>
            <Position>
              <LatitudeDegrees>42.53706266172230243682861328125</LatitudeDegrees>
              <LongitudeDegrees>-0.1652168668806552886962890625</LongitudeDegrees>
            </Position>
            <AltitudeMeters>927.5999755859375</AltitudeMeters>
            <DistanceMeters>1303.5061267622</DistanceMeters>
          </Trackpoint>
          <Trackpoint>
            <Time>2019-07-06T13:42:29.000Z</Time>
            <Position>
              <LatitudeDegrees>42.5370717979967594146728515625</LatitudeDegrees>
              <LongitudeDegrees>-0.165199935436248779296875</LongitudeDegrees>
            </Position>
            <AltitudeMeters>927.20001220703125</AltitudeMeters>
            <DistanceMeters>1305.2297552459</DistanceMeters>
          </Trackpoint>
          <Trackpoint>
            <Time>2019-07-06T13:42:34.000Z</Time>
            <Position>
              <LatitudeDegrees>42.53710524179041385650634765625</LatitudeDegrees>
              <LongitudeDegrees>-0.16521669924259185791015625</LongitudeDegrees>
            </Position>
            <AltitudeMeters>926.4000244140625</AltitudeMeters>
            <DistanceMeters>1309.1981873441</DistanceMeters>
          </Trackpoint>
          <Trackpoint>
            <Time>2019-07-06T13:42:47.000Z</Time>
            <Position>
              <LatitudeDegrees>42.5371472351253032684326171875</LatitudeDegrees>
              <LongitudeDegrees>-0.1653003506362438201904296875</LongitudeDegrees>
            </Position>
            <AltitudeMeters>925.5999755859375</AltitudeMeters>
            <DistanceMeters>1317.4987586057</DistanceMeters>
          </Trackpoint>
          <Trackpoint>
            <Time>2019-07-06T13:42:51.000Z</Time>
            <Position>
              <LatitudeDegrees>42.5371455587446689605712890625</LatitudeDegrees>
              <LongitudeDegrees>-0.16527847386896610260009765625</LongitudeDegrees>
            </Position>
            <AltitudeMeters>925.20001220703125</AltitudeMeters>
            <DistanceMeters>1319.3042661787</DistanceMeters>
          </Trackpoint>
          <Trackpoint>
            <Time>2019-07-06T13:43:03.000Z</Time>
            <Position>
              <LatitudeDegrees>42.5371961854398250579833984375</LatitudeDegrees>
              <LongitudeDegrees>-0.16519716940820217132568359375</LongitudeDegrees>
            </Position>
            <AltitudeMeters>924.20001220703125</AltitudeMeters>
            <DistanceMeters>1328.0343203129</DistanceMeters>
          </Trackpoint>
          <Trackpoint>
            <Time>2019-07-06T13:43:09.000Z</Time>
            <Position>
              <LatitudeDegrees>42.537219822406768798828125</LatitudeDegrees>
              <LongitudeDegrees>-0.165223069489002227783203125</LongitudeDegrees>
            </Position>
            <AltitudeMeters>923.4000244140625</AltitudeMeters>
            <DistanceMeters>1331.4141201149</DistanceMeters>
          </Trackpoint>
          <Trackpoint>
            <Time>2019-07-06T13:43:13.000Z</Time>
            <Position>
              <LatitudeDegrees>42.53722493536770343780517578125</LatitudeDegrees>
              <LongitudeDegrees>-0.16520940698683261871337890625</LongitudeDegrees>
            </Position>
            <AltitudeMeters>923.20001220703125</AltitudeMeters>
            <DistanceMeters>1332.6747919414</DistanceMeters>
          </Trackpoint>
          <Trackpoint>
            <Time>2019-07-06T13:43:28.000Z</Time>
            <Position>
              <LatitudeDegrees>42.53727137111127376556396484375</LatitudeDegrees>
              <LongitudeDegrees>-0.16520085744559764862060546875</LongitudeDegrees>
            </Position>
            <AltitudeMeters>922</AltitudeMeters>
            <DistanceMeters>1337.8900187102</DistanceMeters>
          </Trackpoint>
          <Trackpoint>
            <Time>2019-07-06T13:43:36.000Z</Time>
            <Position>
              <LatitudeDegrees>42.5372612290084362030029296875</LatitudeDegrees>
              <LongitudeDegrees>-0.16525768674910068511962890625</LongitudeDegrees>
            </Position>
            <AltitudeMeters>920.79998779296875</AltitudeMeters>
            <DistanceMeters>1342.6848674696</DistanceMeters>
          </Trackpoint>
          <Trackpoint>
            <Time>2019-07-06T13:43:53.000Z</Time>
            <Position>
              <LatitudeDegrees>42.53725796006619930267333984375</LatitudeDegrees>
              <LongitudeDegrees>-0.16528685577213764190673828125</LongitudeDegrees>
            </Position>
            <AltitudeMeters>919.5999755859375</AltitudeMeters>
            <DistanceMeters>1345.1057184795</DistanceMeters>
          </Trackpoint>
          <Trackpoint>
            <Time>2019-07-06T13:44:01.000Z</Time>
            <Position>
              <LatitudeDegrees>42.53726650960743427276611328125</LatitudeDegrees>
              <LongitudeDegrees>-0.16529942862689495086669921875</LongitudeDegrees>
            </Position>
            <AltitudeMeters>918.5999755859375</AltitudeMeters>
            <DistanceMeters>1346.5087711032</DistanceMeters>
          </Trackpoint>
          <Trackpoint>
            <Time>2019-07-06T13:44:11.000Z</Time>
            <Position>
              <LatitudeDegrees>42.537289559841156005859375</LatitudeDegrees>
              <LongitudeDegrees>-0.16539498232305049896240234375</LongitudeDegrees>
            </Position>
            <AltitudeMeters>918.4000244140625</AltitudeMeters>
            <DistanceMeters>1354.7547686549</DistanceMeters>
          </Trackpoint>
          <Trackpoint>
            <Time>2019-07-06T13:44:16.000Z</Time>
            <Position>
              <LatitudeDegrees>42.53731881268322467803955078125</LatitudeDegrees>
              <LongitudeDegrees>-0.16544443555176258087158203125</LongitudeDegrees>
            </Position>
            <AltitudeMeters>918.5999755859375</AltitudeMeters>
            <DistanceMeters>1359.9561251151</DistanceMeters>
          </Trackpoint>
          <Trackpoint>
            <Time>2019-07-06T13:44:17.000Z</Time>
            <Position>
              <LatitudeDegrees>42.53732434473931789398193359375</LatitudeDegrees>
              <LongitudeDegrees>-0.1654472015798091888427734375</LongitudeDegrees>
            </Position>
            <AltitudeMeters>918.79998779296875</AltitudeMeters>
            <DistanceMeters>1360.6144895046</DistanceMeters>
          </Trackpoint>
          <Trackpoint>
            <Time>2019-07-06T13:44:21.000Z</Time>
            <Position>
              <LatitudeDegrees>42.53734429366886615753173828125</LatitudeDegrees>
              <LongitudeDegrees>-0.16545516438782215118408203125</LongitudeDegrees>
            </Position>
            <AltitudeMeters>918.79998779296875</AltitudeMeters>
            <DistanceMeters>1362.9304915356</DistanceMeters>
          </Trackpoint>
          <Trackpoint>
            <Time>2019-07-06T13:44:22.000Z</Time>
            <Position>
              <LatitudeDegrees>42.53735192120075225830078125</LatitudeDegrees>
              <LongitudeDegrees>-0.16545885242521762847900390625</LongitudeDegrees>
            </Position>
            <AltitudeMeters>918.5999755859375</AltitudeMeters>
            <DistanceMeters>1363.8319941035</DistanceMeters>
          </Trackpoint>
          <Trackpoint>
            <Time>2019-07-06T13:44:25.000Z</Time>
            <Position>
              <LatitudeDegrees>42.53737245686352252960205078125</LatitudeDegrees>
              <LongitudeDegrees>-0.16548433341085910797119140625</LongitudeDegrees>
            </Position>
            <AltitudeMeters>918.4000244140625</AltitudeMeters>
            <DistanceMeters>1366.9287571205</DistanceMeters>
          </Trackpoint>
          <Trackpoint>
            <Time>2019-07-06T13:44:27.000Z</Time>
            <Position>
              <LatitudeDegrees>42.5373822636902332305908203125</LatitudeDegrees>
              <LongitudeDegrees>-0.16549388878047466278076171875</LongitudeDegrees>
            </Position>
            <AltitudeMeters>918.4000244140625</AltitudeMeters>
            <DistanceMeters>1368.272637803</DistanceMeters>
          </Trackpoint>
          <Trackpoint>
            <Time>2019-07-06T13:44:34.000Z</Time>
            <Position>
              <LatitudeDegrees>42.537400536239147186279296875</LatitudeDegrees>
              <LongitudeDegrees>-0.16547997482120990753173828125</LongitudeDegrees>
            </Position>
            <AltitudeMeters>918</AltitudeMeters>
            <DistanceMeters>1370.6041836463</DistanceMeters>
          </Trackpoint>
          <Trackpoint>
            <Time>2019-07-06T13:44:35.000Z</Time>
            <Position>
              <LatitudeDegrees>42.53739894367754459381103515625</LatitudeDegrees>
              <LongitudeDegrees>-0.1654807291924953460693359375</LongitudeDegrees>
            </Position>
            <AltitudeMeters>917.79998779296875</AltitudeMeters>
            <DistanceMeters>1370.794237075</DistanceMeters>
          </Trackpoint>
          <Trackpoint>
            <Time>2019-07-06T13:44:42.000Z</Time>
            <Position>
              <LatitudeDegrees>42.53738955594599246978759765625</LatitudeDegrees>
              <LongitudeDegrees>-0.1654720120131969451904296875</LongitudeDegrees>
            </Position>
            <AltitudeMeters>918.4000244140625</AltitudeMeters>
            <DistanceMeters>1372.0549089015</DistanceMeters>
          </Trackpoint>
          <Trackpoint>
            <Time>2019-07-06T13:44:44.000Z</Time>
            <Position>
              <LatitudeDegrees>42.537375725805759429931640625</LatitudeDegrees>
              <LongitudeDegrees>-0.1654760353267192840576171875</LongitudeDegrees>
            </Position>
            <AltitudeMeters>918.4000244140625</AltitudeMeters>
            <DistanceMeters>1373.627880912</DistanceMeters>
          </Trackpoint>
          <Trackpoint>
            <Time>2019-07-06T13:44:46.000Z</Time>
            <Position>
              <LatitudeDegrees>42.53737983293831348419189453125</LatitudeDegrees>
              <LongitudeDegrees>-0.165485925972461700439453125</LongitudeDegrees>
            </Position>
            <AltitudeMeters>918.4000244140625</AltitudeMeters>
            <DistanceMeters>1374.5589487606</DistanceMeters>
          </Trackpoint>
          <Trackpoint>
            <Time>2019-07-06T13:44:50.000Z</Time>
            <Position>
              <LatitudeDegrees>42.53741051070392131805419921875</LatitudeDegrees>
              <LongitudeDegrees>-0.165522806346416473388671875</LongitudeDegrees>
            </Position>
            <AltitudeMeters>917.79998779296875</AltitudeMeters>
            <DistanceMeters>1379.1202310503</DistanceMeters>
          </Trackpoint>
          <Trackpoint>
            <Time>2019-07-06T13:44:53.000Z</Time>
            <Position>
              <LatitudeDegrees>42.5374157913029193878173828125</LatitudeDegrees>
              <LongitudeDegrees>-0.165534876286983489990234375</LongitudeDegrees>
            </Position>
            <AltitudeMeters>917.4000244140625</AltitudeMeters>
            <DistanceMeters>1380.2762809254</DistanceMeters>
          </Trackpoint>
          <Trackpoint>
            <Time>2019-07-06T13:45:00.000Z</Time>
            <Position>
              <LatitudeDegrees>42.537428028881549835205078125</LatitudeDegrees>
              <LongitudeDegrees>-0.16560134477913379669189453125</LongitudeDegrees>
            </Position>
            <AltitudeMeters>916.20001220703125</AltitudeMeters>
            <DistanceMeters>1385.8957272793</DistanceMeters>
          </Trackpoint>
          <Trackpoint>
            <Time>2019-07-06T13:45:05.000Z</Time>
            <Position>
              <LatitudeDegrees>42.537449486553668975830078125</LatitudeDegrees>
              <LongitudeDegrees>-0.16564744524657726287841796875</LongitudeDegrees>
            </Position>
            <AltitudeMeters>915.20001220703125</AltitudeMeters>
            <DistanceMeters>1390.369053715</DistanceMeters>
          </Trackpoint>
          <Trackpoint>
            <Time>2019-07-06T13:45:06.000Z</Time>
            <Position>
              <LatitudeDegrees>42.5374540127813816070556640625</LatitudeDegrees>
              <LongitudeDegrees>-0.1656554080545902252197265625</LongitudeDegrees>
            </Position>
            <AltitudeMeters>915</AltitudeMeters>
            <DistanceMeters>1391.1974774047</DistanceMeters>
          </Trackpoint>
          <Trackpoint>
            <Time>2019-07-06T13:45:12.000Z</Time>
            <Position>
              <LatitudeDegrees>42.53747622482478618621826171875</LatitudeDegrees>
              <LongitudeDegrees>-0.16569958068430423736572265625</LongitudeDegrees>
            </Position>
            <AltitudeMeters>914.20001220703125</AltitudeMeters>
            <DistanceMeters>1395.5831430128</DistanceMeters>
          </Trackpoint>
          <Trackpoint>
            <Time>2019-07-06T13:45:18.000Z</Time>
            <Position>
              <LatitudeDegrees>42.537495754659175872802734375</LatitudeDegrees>
              <LongitudeDegrees>-0.1657573319971561431884765625</LongitudeDegrees>
            </Position>
            <AltitudeMeters>913</AltitudeMeters>
            <DistanceMeters>1400.7940392761</DistanceMeters>
          </Trackpoint>
          <Trackpoint>
            <Time>2019-07-06T13:45:27.000Z</Time>
            <Position>
              <LatitudeDegrees>42.53750606440007686614990234375</LatitudeDegrees>
              <LongitudeDegrees>-0.16581424511969089508056640625</LongitudeDegrees>
            </Position>
            <AltitudeMeters>912</AltitudeMeters>
            <DistanceMeters>1405.6001744743</DistanceMeters>
          </Trackpoint>
          <Trackpoint>
            <Time>2019-07-06T13:45:33.000Z</Time>
            <Position>
              <LatitudeDegrees>42.5375403463840484619140625</LatitudeDegrees>
              <LongitudeDegrees>-0.16584106720983982086181640625</LongitudeDegrees>
            </Position>
            <AltitudeMeters>911</AltitudeMeters>
            <DistanceMeters>1410.0043320784</DistanceMeters>
          </Trackpoint>
          <Trackpoint>
            <Time>2019-07-06T13:45:41.000Z</Time>
            <Position>
              <LatitudeDegrees>42.5375227443873882293701171875</LatitudeDegrees>
              <LongitudeDegrees>-0.16591482795774936676025390625</LongitudeDegrees>
            </Position>
            <AltitudeMeters>910</AltitudeMeters>
            <DistanceMeters>1416.3626063914</DistanceMeters>
          </Trackpoint>
          <Trackpoint>
            <Time>2019-07-06T13:45:47.000Z</Time>
            <Position>
              <LatitudeDegrees>42.53754026256501674652099609375</LatitudeDegrees>
              <LongitudeDegrees>-0.16595405526459217071533203125</LongitudeDegrees>
            </Position>
            <AltitudeMeters>908.79998779296875</AltitudeMeters>
            <DistanceMeters>1420.1230717497</DistanceMeters>
          </Trackpoint>
          <Trackpoint>
            <Time>2019-07-06T13:45:49.000Z</Time>
            <Position>
              <LatitudeDegrees>42.53754730336368083953857421875</LatitudeDegrees>
              <LongitudeDegrees>-0.165972411632537841796875</LongitudeDegrees>
            </Position>
            <AltitudeMeters>908.4000244140625</AltitudeMeters>
            <DistanceMeters>1421.8176408127</DistanceMeters>
          </Trackpoint>
          <Trackpoint>
            <Time>2019-07-06T13:45:51.000Z</Time>
            <Position>
              <LatitudeDegrees>42.53756205551326274871826171875</LatitudeDegrees>
              <LongitudeDegrees>-0.1659876666963100433349609375</LongitudeDegrees>
            </Position>
            <AltitudeMeters>908.20001220703125</AltitudeMeters>
            <DistanceMeters>1423.8799613516</DistanceMeters>
          </Trackpoint>
          <Trackpoint>
            <Time>2019-07-06T13:45:53.000Z</Time>
            <Position>
              <LatitudeDegrees>42.537583597004413604736328125</LatitudeDegrees>
              <LongitudeDegrees>-0.16599546186625957489013671875</LongitudeDegrees>
            </Position>
            <AltitudeMeters>907.79998779296875</AltitudeMeters>
            <DistanceMeters>1426.3615963237</DistanceMeters>
          </Trackpoint>
          <Trackpoint>
            <Time>2019-07-06T13:45:54.000Z</Time>
            <Position>
              <LatitudeDegrees>42.5375894643366336822509765625</LatitudeDegrees>
              <LongitudeDegrees>-0.166000239551067352294921875</LongitudeDegrees>
            </Position>
            <AltitudeMeters>907.79998779296875</AltitudeMeters>
            <DistanceMeters>1427.1218100387</DistanceMeters>
          </Trackpoint>
          <Trackpoint>
            <Time>2019-07-06T13:46:00.000Z</Time>
            <Position>
              <LatitudeDegrees>42.53761469386518001556396484375</LatitudeDegrees>
              <LongitudeDegrees>-0.166006274521350860595703125</LongitudeDegrees>
            </Position>
            <AltitudeMeters>906.79998779296875</AltitudeMeters>
            <DistanceMeters>1429.9741948086</DistanceMeters>
          </Trackpoint>
          <Trackpoint>
            <Time>2019-07-06T13:46:02.000Z</Time>
            <Position>
              <LatitudeDegrees>42.53760647960007190704345703125</LatitudeDegrees>
              <LongitudeDegrees>-0.16599898226559162139892578125</LongitudeDegrees>
            </Position>
            <AltitudeMeters>906.4000244140625</AltitudeMeters>
            <DistanceMeters>1431.0659686362</DistanceMeters>
          </Trackpoint>
          <Trackpoint>
            <Time>2019-07-06T13:46:05.000Z</Time>
            <Position>
              <LatitudeDegrees>42.53759658895432949066162109375</LatitudeDegrees>
              <LongitudeDegrees>-0.16597098670899868011474609375</LongitudeDegrees>
            </Position>
            <AltitudeMeters>906</AltitudeMeters>
            <DistanceMeters>1433.612259053</DistanceMeters>
          </Trackpoint>
          <Trackpoint>
            <Time>2019-07-06T13:46:06.000Z</Time>
            <Position>
              <LatitudeDegrees>42.53759801387786865234375</LatitudeDegrees>
              <LongitudeDegrees>-0.16596578992903232574462890625</LongitudeDegrees>
            </Position>
            <AltitudeMeters>905.79998779296875</AltitudeMeters>
            <DistanceMeters>1434.0679911654</DistanceMeters>
          </Trackpoint>
          <Trackpoint>
            <Time>2019-07-06T13:46:08.000Z</Time>
            <Position>
              <LatitudeDegrees>42.537598349153995513916015625</LatitudeDegrees>
              <LongitudeDegrees>-0.165945254266262054443359375</LongitudeDegrees>
            </Position>
            <AltitudeMeters>905.5999755859375</AltitudeMeters>
            <DistanceMeters>1435.7518688341</DistanceMeters>
          </Trackpoint>
          <Trackpoint>
            <Time>2019-07-06T13:46:09.000Z</Time>
            <Position>
              <LatitudeDegrees>42.5375954993069171905517578125</LatitudeDegrees>
              <LongitudeDegrees>-0.1659346930682659149169921875</LongitudeDegrees>
            </Position>
            <AltitudeMeters>905.5999755859375</AltitudeMeters>
            <DistanceMeters>1436.6731870125</DistanceMeters>
          </Trackpoint>
          <Trackpoint>
            <Time>2019-07-06T13:46:15.000Z</Time>
            <Position>
              <LatitudeDegrees>42.53761083818972110748291015625</LatitudeDegrees>
              <LongitudeDegrees>-0.1658840663731098175048828125</LongitudeDegrees>
            </Position>
            <AltitudeMeters>904.5999755859375</AltitudeMeters>
            <DistanceMeters>1441.1626335956</DistanceMeters>
          </Trackpoint>
          <Trackpoint>
            <Time>2019-07-06T13:46:18.000Z</Time>
            <Position>
              <LatitudeDegrees>42.53761670552194118499755859375</LatitudeDegrees>
              <LongitudeDegrees>-0.165850706398487091064453125</LongitudeDegrees>
            </Position>
            <AltitudeMeters>904</AltitudeMeters>
            <DistanceMeters>1443.97677237</DistanceMeters>
          </Trackpoint>
          <Trackpoint>
            <Time>2019-07-06T13:46:22.000Z</Time>
            <Position>
              <LatitudeDegrees>42.53760849125683307647705078125</LatitudeDegrees>
              <LongitudeDegrees>-0.1658181846141815185546875</LongitudeDegrees>
            </Position>
            <AltitudeMeters>903.5999755859375</AltitudeMeters>
            <DistanceMeters>1446.7957202714</DistanceMeters>
          </Trackpoint>
          <Trackpoint>
            <Time>2019-07-06T13:46:29.000Z</Time>
            <Position>
              <LatitudeDegrees>42.53760631196200847625732421875</LatitudeDegrees>
              <LongitudeDegrees>-0.1657590083777904510498046875</LongitudeDegrees>
            </Position>
            <AltitudeMeters>902.5999755859375</AltitudeMeters>
            <DistanceMeters>1451.6541788566</DistanceMeters>
          </Trackpoint>
          <Trackpoint>
            <Time>2019-07-06T13:46:36.000Z</Time>
            <Position>
              <LatitudeDegrees>42.53762206993997097015380859375</LatitudeDegrees>
              <LongitudeDegrees>-0.1657013408839702606201171875</LongitudeDegrees>
            </Position>
            <AltitudeMeters>901.4000244140625</AltitudeMeters>
            <DistanceMeters>1456.6986565718</DistanceMeters>
          </Trackpoint>
          <Trackpoint>
            <Time>2019-07-06T13:46:38.000Z</Time>
            <Position>
              <LatitudeDegrees>42.53763849847018718719482421875</LatitudeDegrees>
              <LongitudeDegrees>-0.165681056678295135498046875</LongitudeDegrees>
            </Position>
            <AltitudeMeters>901.20001220703125</AltitudeMeters>
            <DistanceMeters>1459.1693511454</DistanceMeters>
          </Trackpoint>
          <Trackpoint>
            <Time>2019-07-06T13:46:41.000Z</Time>
            <Position>
              <LatitudeDegrees>42.53767437301576137542724609375</LatitudeDegrees>
              <LongitudeDegrees>-0.1656409911811351776123046875</LongitudeDegrees>
            </Position>
            <AltitudeMeters>900.5999755859375</AltitudeMeters>
            <DistanceMeters>1464.3411096884</DistanceMeters>
          </Trackpoint>
          <Trackpoint>
            <Time>2019-07-06T13:46:44.000Z</Time>
            <Position>
              <LatitudeDegrees>42.53767311573028564453125</LatitudeDegrees>
              <LongitudeDegrees>-0.16562431119382381439208984375</LongitudeDegrees>
            </Position>
            <AltitudeMeters>900.4000244140625</AltitudeMeters>
            <DistanceMeters>1465.7181776073</DistanceMeters>
          </Trackpoint>
          <Trackpoint>
            <Time>2019-07-06T13:46:47.000Z</Time>
            <Position>
              <LatitudeDegrees>42.53768510185182094573974609375</LatitudeDegrees>
              <LongitudeDegrees>-0.1656331121921539306640625</LongitudeDegrees>
            </Position>
            <AltitudeMeters>900.20001220703125</AltitudeMeters>
            <DistanceMeters>1467.2386050372</DistanceMeters>
          </Trackpoint>
          <Trackpoint>
            <Time>2019-07-06T13:46:48.000Z</Time>
            <Position>
              <LatitudeDegrees>42.5376890413463115692138671875</LatitudeDegrees>
              <LongitudeDegrees>-0.16563839279115200042724609375</LongitudeDegrees>
            </Position>
            <AltitudeMeters>900</AltitudeMeters>
            <DistanceMeters>1467.8544485325</DistanceMeters>
          </Trackpoint>
          <Trackpoint>
            <Time>2019-07-06T13:46:53.000Z</Time>
            <Position>
              <LatitudeDegrees>42.5377182103693485260009765625</LatitudeDegrees>
              <LongitudeDegrees>-0.1656731776893138885498046875</LongitudeDegrees>
            </Position>
            <AltitudeMeters>899.20001220703125</AltitudeMeters>
            <DistanceMeters>1472.1758138359</DistanceMeters>
          </Trackpoint>
          <Trackpoint>
            <Time>2019-07-06T13:46:57.000Z</Time>
            <Position>
              <LatitudeDegrees>42.53774411045014858245849609375</LatitudeDegrees>
              <LongitudeDegrees>-0.1656936295330524444580078125</LongitudeDegrees>
            </Position>
            <AltitudeMeters>898.79998779296875</AltitudeMeters>
            <DistanceMeters>1475.5125913615</DistanceMeters>
          </Trackpoint>
          <Trackpoint>
            <Time>2019-07-06T13:46:58.000Z</Time>
            <Position>
              <LatitudeDegrees>42.5377477146685123443603515625</LatitudeDegrees>
              <LongitudeDegrees>-0.16569773666560649871826171875</LongitudeDegrees>
            </Position>
            <AltitudeMeters>898.5999755859375</AltitudeMeters>
            <DistanceMeters>1476.0330741118</DistanceMeters>
          </Trackpoint>
          <Trackpoint>
            <Time>2019-07-06T13:47:00.000Z</Time>
            <Position>
              <LatitudeDegrees>42.53775157034397125244140625</LatitudeDegrees>
              <LongitudeDegrees>-0.1657073758542537689208984375</LongitudeDegrees>
            </Position>
            <AltitudeMeters>898.4000244140625</AltitudeMeters>
            <DistanceMeters>1476.9345766797</DistanceMeters>
          </Trackpoint>
          <Trackpoint>
            <Time>2019-07-06T13:47:01.000Z</Time>
            <Position>
              <LatitudeDegrees>42.537760622799396514892578125</LatitudeDegrees>
              <LongitudeDegrees>-0.165710560977458953857421875</LongitudeDegrees>
            </Position>
            <AltitudeMeters>898.20001220703125</AltitudeMeters>
            <DistanceMeters>1477.9798705378</DistanceMeters>
          </Trackpoint>
          <Trackpoint>
            <Time>2019-07-06T13:47:02.000Z</Time>
            <Position>
              <LatitudeDegrees>42.53775668330490589141845703125</LatitudeDegrees>
              <LongitudeDegrees>-0.16572707332670688629150390625</LongitudeDegrees>
            </Position>
            <AltitudeMeters>898</AltitudeMeters>
            <DistanceMeters>1479.4021001688</DistanceMeters>
          </Trackpoint>
          <Trackpoint>
            <Time>2019-07-06T13:47:03.000Z</Time>
            <Position>
              <LatitudeDegrees>42.53776690922677516937255859375</LatitudeDegrees>
              <LongitudeDegrees>-0.16573260538280010223388671875</LongitudeDegrees>
            </Position>
            <AltitudeMeters>898</AltitudeMeters>
            <DistanceMeters>1480.6264337385</DistanceMeters>
          </Trackpoint>
          <Trackpoint>
            <Time>2019-07-06T13:47:04.000Z</Time>
            <Position>
              <LatitudeDegrees>42.5377805717289447784423828125</LatitudeDegrees>
              <LongitudeDegrees>-0.16573436558246612548828125</LongitudeDegrees>
            </Position>
            <AltitudeMeters>897.79998779296875</AltitudeMeters>
            <DistanceMeters>1482.1527887832</DistanceMeters>
          </Trackpoint>
          <Trackpoint>
            <Time>2019-07-06T13:47:05.000Z</Time>
            <Position>
              <LatitudeDegrees>42.53778551705181598663330078125</LatitudeDegrees>
              <LongitudeDegrees>-0.16573796980082988739013671875</LongitudeDegrees>
            </Position>
            <AltitudeMeters>897.79998779296875</AltitudeMeters>
            <DistanceMeters>1482.7831246964</DistanceMeters>
          </Trackpoint>
          <Trackpoint>
            <Time>2019-07-06T13:47:06.000Z</Time>
            <Position>
              <LatitudeDegrees>42.5377902947366237640380859375</LatitudeDegrees>
              <LongitudeDegrees>-0.16574098728597164154052734375</LongitudeDegrees>
            </Position>
            <AltitudeMeters>897.79998779296875</AltitudeMeters>
            <DistanceMeters>1483.3841264084</DistanceMeters>
          </Trackpoint>
          <Trackpoint>
            <Time>2019-07-06T13:47:07.000Z</Time>
            <Position>
              <LatitudeDegrees>42.537796162068843841552734375</LatitudeDegrees>
              <LongitudeDegrees>-0.16574635170400142669677734375</LongitudeDegrees>
            </Position>
            <AltitudeMeters>897.5999755859375</AltitudeMeters>
            <DistanceMeters>1484.1734775816</DistanceMeters>
          </Trackpoint>
          <Trackpoint>
            <Time>2019-07-06T13:47:08.000Z</Time>
            <Position>
              <LatitudeDegrees>42.5378006882965564727783203125</LatitudeDegrees>
              <LongitudeDegrees>-0.16575087793171405792236328125</LongitudeDegrees>
            </Position>
            <AltitudeMeters>897.5999755859375</AltitudeMeters>
            <DistanceMeters>1484.7966094192</DistanceMeters>
          </Trackpoint>
          <Trackpoint>
            <Time>2019-07-06T13:47:11.000Z</Time>
            <Position>
              <LatitudeDegrees>42.53781653009355068206787109375</LatitudeDegrees>
              <LongitudeDegrees>-0.16575942747294902801513671875</LongitudeDegrees>
            </Position>
            <AltitudeMeters>897.20001220703125</AltitudeMeters>
            <DistanceMeters>1486.6947665521</DistanceMeters>
          </Trackpoint>
          <Trackpoint>
            <Time>2019-07-06T13:47:12.000Z</Time>
            <Position>
              <LatitudeDegrees>42.53781795501708984375</LatitudeDegrees>
              <LongitudeDegrees>-0.16576521098613739013671875</LongitudeDegrees>
            </Position>
            <AltitudeMeters>897</AltitudeMeters>
            <DistanceMeters>1487.1976006604</DistanceMeters>
          </Trackpoint>
          <Trackpoint>
            <Time>2019-07-06T13:47:13.000Z</Time>
            <Position>
              <LatitudeDegrees>42.537818960845470428466796875</LatitudeDegrees>
              <LongitudeDegrees>-0.16577283851802349090576171875</LongitudeDegrees>
            </Position>
            <AltitudeMeters>896.79998779296875</AltitudeMeters>
            <DistanceMeters>1487.8279365736</DistanceMeters>
          </Trackpoint>
          <Trackpoint>
            <Time>2019-07-06T13:47:14.000Z</Time>
            <Position>
              <LatitudeDegrees>42.537818290293216705322265625</LatitudeDegrees>
              <LongitudeDegrees>-0.1657781191170215606689453125</LongitudeDegrees>
            </Position>
            <AltitudeMeters>896.79998779296875</AltitudeMeters>
            <DistanceMeters>1488.2529089596</DistanceMeters>
          </Trackpoint>
          <Trackpoint>
            <Time>2019-07-06T13:47:15.000Z</Time>
            <Position>
              <LatitudeDegrees>42.537820637226104736328125</LatitudeDegrees>
              <LongitudeDegrees>-0.16578591428697109222412109375</LongitudeDegrees>
            </Position>
            <AltitudeMeters>896.5999755859375</AltitudeMeters>
            <DistanceMeters>1488.938156342</DistanceMeters>
          </Trackpoint>
          <Trackpoint>
            <Time>2019-07-06T13:47:19.000Z</Time>
            <Position>
              <LatitudeDegrees>42.5378368981182575225830078125</LatitudeDegrees>
              <LongitudeDegrees>-0.16583226621150970458984375</LongitudeDegrees>
            </Position>
            <AltitudeMeters>896</AltitudeMeters>
            <DistanceMeters>1493.147314213</DistanceMeters>
          </Trackpoint>
          <Trackpoint>
            <Time>2019-07-06T13:47:21.000Z</Time>
            <Position>
              <LatitudeDegrees>42.53783111460506916046142578125</LatitudeDegrees>
              <LongitudeDegrees>-0.1658458448946475982666015625</LongitudeDegrees>
            </Position>
            <AltitudeMeters>895.79998779296875</AltitudeMeters>
            <DistanceMeters>1494.4328117779</DistanceMeters>
          </Trackpoint>
          <Trackpoint>
            <Time>2019-07-06T13:47:26.000Z</Time>
            <Position>
              <LatitudeDegrees>42.53782474435865879058837890625</LatitudeDegrees>
              <LongitudeDegrees>-0.1658968068659305572509765625</LongitudeDegrees>
            </Position>
            <AltitudeMeters>895</AltitudeMeters>
            <DistanceMeters>1498.6718980148</DistanceMeters>
          </Trackpoint>
          <Trackpoint>
            <Time>2019-07-06T13:47:27.000Z</Time>
            <Position>
              <LatitudeDegrees>42.53782424144446849822998046875</LatitudeDegrees>
              <LongitudeDegrees>-0.1659028418362140655517578125</LongitudeDegrees>
            </Position>
            <AltitudeMeters>894.79998779296875</AltitudeMeters>
            <DistanceMeters>1499.174732123</DistanceMeters>
          </Trackpoint>
          <Trackpoint>
            <Time>2019-07-06T13:47:28.000Z</Time>
            <Position>
              <LatitudeDegrees>42.537824325263500213623046875</LatitudeDegrees>
              <LongitudeDegrees>-0.16590141691267490386962890625</LongitudeDegrees>
            </Position>
            <AltitudeMeters>894.5999755859375</AltitudeMeters>
            <DistanceMeters>1499.3091201913</DistanceMeters>
          </Trackpoint>
          <Trackpoint>
            <Time>2019-07-06T13:47:29.000Z</Time>
            <Position>
              <LatitudeDegrees>42.537824995815753936767578125</LatitudeDegrees>
              <LongitudeDegrees>-0.16589663922786712646484375</LongitudeDegrees>
            </Position>
            <AltitudeMeters>894.4000244140625</AltitudeMeters>
            <DistanceMeters>1499.712284396</DistanceMeters>
          </Trackpoint>
          <Trackpoint>
            <Time>2019-07-06T13:47:32.000Z</Time>
            <Position>
              <LatitudeDegrees>42.53782222978770732879638671875</LatitudeDegrees>
              <LongitudeDegrees>-0.1658852398395538330078125</LongitudeDegrees>
            </Position>
            <AltitudeMeters>894</AltitudeMeters>
            <DistanceMeters>1500.6998309802</DistanceMeters>
          </Trackpoint>
          <Trackpoint>
            <Time>2019-07-06T13:47:45.000Z</Time>
            <Position>
              <LatitudeDegrees>42.5378368981182575225830078125</LatitudeDegrees>
              <LongitudeDegrees>-0.16584643162786960601806640625</LongitudeDegrees>
            </Position>
            <AltitudeMeters>893.4000244140625</AltitudeMeters>
            <DistanceMeters>1504.2769273335</DistanceMeters>
          </Trackpoint>
          <Trackpoint>
            <Time>2019-07-06T13:47:46.000Z</Time>
            <Position>
              <LatitudeDegrees>42.53783471882343292236328125</LatitudeDegrees>
              <LongitudeDegrees>-0.165841318666934967041015625</LongitudeDegrees>
            </Position>
            <AltitudeMeters>893.4000244140625</AltitudeMeters>
            <DistanceMeters>1504.7614704044</DistanceMeters>
          </Trackpoint>
          <Trackpoint>
            <Time>2019-07-06T13:47:52.000Z</Time>
            <Position>
              <LatitudeDegrees>42.5378379039466381072998046875</LatitudeDegrees>
              <LongitudeDegrees>-0.165825225412845611572265625</LongitudeDegrees>
            </Position>
            <AltitudeMeters>893.4000244140625</AltitudeMeters>
            <DistanceMeters>1506.1286667414</DistanceMeters>
          </Trackpoint>
          <Trackpoint>
            <Time>2019-07-06T13:47:56.000Z</Time>
            <Position>
              <LatitudeDegrees>42.53788509406149387359619140625</LatitudeDegrees>
              <LongitudeDegrees>-0.16582061536610126495361328125</LongitudeDegrees>
            </Position>
            <AltitudeMeters>893.4000244140625</AltitudeMeters>
            <DistanceMeters>1511.3955818571</DistanceMeters>
          </Trackpoint>
          <Trackpoint>
            <Time>2019-07-06T13:47:59.000Z</Time>
            <Position>
              <LatitudeDegrees>42.537902779877185821533203125</LatitudeDegrees>
              <LongitudeDegrees>-0.16582078300416469573974609375</LongitudeDegrees>
            </Position>
            <AltitudeMeters>893.5999755859375</AltitudeMeters>
            <DistanceMeters>1513.3660977466</DistanceMeters>
          </Trackpoint>
          <Trackpoint>
            <Time>2019-07-06T13:48:01.000Z</Time>
            <Position>
              <LatitudeDegrees>42.537921555340290069580078125</LatitudeDegrees>
              <LongitudeDegrees>-0.1658203639090061187744140625</LongitudeDegrees>
            </Position>
            <AltitudeMeters>893.5999755859375</AltitudeMeters>
            <DistanceMeters>1515.4566854628</DistanceMeters>
          </Trackpoint>
          <Trackpoint>
            <Time>2019-07-06T13:48:02.000Z</Time>
            <Position>
              <LatitudeDegrees>42.53794544376432895660400390625</LatitudeDegrees>
              <LongitudeDegrees>-0.1658139936625957489013671875</LongitudeDegrees>
            </Position>
            <AltitudeMeters>893.5999755859375</AltitudeMeters>
            <DistanceMeters>1518.1645300064</DistanceMeters>
          </Trackpoint>
          <Trackpoint>
            <Time>2019-07-06T13:48:07.000Z</Time>
            <Position>
              <LatitudeDegrees>42.5379582680761814117431640625</LatitudeDegrees>
              <LongitudeDegrees>-0.16582028008997440338134765625</LongitudeDegrees>
            </Position>
            <AltitudeMeters>893.20001220703125</AltitudeMeters>
            <DistanceMeters>1519.6790066212</DistanceMeters>
          </Trackpoint>
          <Trackpoint>
            <Time>2019-07-06T13:48:16.000Z</Time>
            <Position>
              <LatitudeDegrees>42.5378077290952205657958984375</LatitudeDegrees>
              <LongitudeDegrees>-0.165800750255584716796875</LongitudeDegrees>
            </Position>
            <AltitudeMeters>893.20001220703125</AltitudeMeters>
            <DistanceMeters>1536.5105421506</DistanceMeters>
          </Trackpoint>
          <Trackpoint>
            <Time>2019-07-06T13:48:20.000Z</Time>
            <Position>
              <LatitudeDegrees>42.537831030786037445068359375</LatitudeDegrees>
              <LongitudeDegrees>-0.1657720841467380523681640625</LongitudeDegrees>
            </Position>
            <AltitudeMeters>893</AltitudeMeters>
            <DistanceMeters>1540.0097968795</DistanceMeters>
          </Trackpoint>
          <Trackpoint>
            <Time>2019-07-06T13:48:25.000Z</Time>
            <Position>
              <LatitudeDegrees>42.53785659559071063995361328125</LatitudeDegrees>
              <LongitudeDegrees>-0.1657509617507457733154296875</LongitudeDegrees>
            </Position>
            <AltitudeMeters>892.79998779296875</AltitudeMeters>
            <DistanceMeters>1543.3398019656</DistanceMeters>
          </Trackpoint>
          <Trackpoint>
            <Time>2019-07-06T13:48:26.000Z</Time>
            <Position>
              <LatitudeDegrees>42.537852823734283447265625</LatitudeDegrees>
              <LongitudeDegrees>-0.16574517823755741119384765625</LongitudeDegrees>
            </Position>
            <AltitudeMeters>892.79998779296875</AltitudeMeters>
            <DistanceMeters>1543.9701378788</DistanceMeters>
          </Trackpoint>
          <Trackpoint>
            <Time>2019-07-06T13:48:35.000Z</Time>
            <Position>
              <LatitudeDegrees>42.5378798134624958038330078125</LatitudeDegrees>
              <LongitudeDegrees>-0.16572690568864345550537109375</LongitudeDegrees>
            </Position>
            <AltitudeMeters>892</AltitudeMeters>
            <DistanceMeters>1547.3271507477</DistanceMeters>
          </Trackpoint>
          <Trackpoint>
            <Time>2019-07-06T13:48:39.000Z</Time>
            <Position>
              <LatitudeDegrees>42.5379029475152492523193359375</LatitudeDegrees>
              <LongitudeDegrees>-0.16571936197578907012939453125</LongitudeDegrees>
            </Position>
            <AltitudeMeters>891.79998779296875</AltitudeMeters>
            <DistanceMeters>1549.9742886966</DistanceMeters>
          </Trackpoint>
          <Trackpoint>
            <Time>2019-07-06T13:49:17.000Z</Time>
            <Position>
              <LatitudeDegrees>42.53799959085881710052490234375</LatitudeDegrees>
              <LongitudeDegrees>-0.16574484296143054962158203125</LongitudeDegrees>
            </Position>
            <AltitudeMeters>891</AltitudeMeters>
            <DistanceMeters>1560.9324799959</DistanceMeters>
          </Trackpoint>
          <Trackpoint>
            <Time>2019-07-06T13:49:23.000Z</Time>
            <Position>
              <LatitudeDegrees>42.53801576793193817138671875</LatitudeDegrees>
              <LongitudeDegrees>-0.165768899023532867431640625</LongitudeDegrees>
            </Position>
            <AltitudeMeters>890.79998779296875</AltitudeMeters>
            <DistanceMeters>1563.6033900264</DistanceMeters>
          </Trackpoint>
          <Trackpoint>
            <Time>2019-07-06T13:49:27.000Z</Time>
            <Position>
              <LatitudeDegrees>42.53802247345447540283203125</LatitudeDegrees>
              <LongitudeDegrees>-0.16575045883655548095703125</LongitudeDegrees>
            </Position>
            <AltitudeMeters>890.4000244140625</AltitudeMeters>
            <DistanceMeters>1565.2872676951</DistanceMeters>
          </Trackpoint>
          <Trackpoint>
            <Time>2019-07-06T13:49:31.000Z</Time>
            <Position>
              <LatitudeDegrees>42.53802875988185405731201171875</LatitudeDegrees>
              <LongitudeDegrees>-0.16572841443121433258056640625</LongitudeDegrees>
            </Position>
            <AltitudeMeters>890.4000244140625</AltitudeMeters>
            <DistanceMeters>1567.2254399787</DistanceMeters>
          </Trackpoint>
          <Trackpoint>
            <Time>2019-07-06T13:49:36.000Z</Time>
            <Position>
              <LatitudeDegrees>42.53798198886215686798095703125</LatitudeDegrees>
              <LongitudeDegrees>-0.16577200032770633697509765625</LongitudeDegrees>
            </Position>
            <AltitudeMeters>890.5999755859375</AltitudeMeters>
            <DistanceMeters>1573.5402493643</DistanceMeters>
          </Trackpoint>
          <Trackpoint>
            <Time>2019-07-06T13:49:37.000Z</Time>
            <Position>
              <LatitudeDegrees>42.5379706732928752899169921875</LatitudeDegrees>
              <LongitudeDegrees>-0.16578205861151218414306640625</LongitudeDegrees>
            </Position>
            <AltitudeMeters>890.79998779296875</AltitudeMeters>
            <DistanceMeters>1575.0487516891</DistanceMeters>
          </Trackpoint>
          <Trackpoint>
            <Time>2019-07-06T13:49:39.000Z</Time>
            <Position>
              <LatitudeDegrees>42.5379606150090694427490234375</LatitudeDegrees>
              <LongitudeDegrees>-0.165794380009174346923828125</LongitudeDegrees>
            </Position>
            <AltitudeMeters>891</AltitudeMeters>
            <DistanceMeters>1576.5572540139</DistanceMeters>
          </Trackpoint>
          <Trackpoint>
            <Time>2019-07-06T13:49:44.000Z</Time>
            <Position>
              <LatitudeDegrees>42.53797947429120540618896484375</LatitudeDegrees>
              <LongitudeDegrees>-0.1658181846141815185546875</LongitudeDegrees>
            </Position>
            <AltitudeMeters>891.5999755859375</AltitudeMeters>
            <DistanceMeters>1579.4238494796</DistanceMeters>
          </Trackpoint>
          <Trackpoint>
            <Time>2019-07-06T13:49:47.000Z</Time>
            <Position>
              <LatitudeDegrees>42.5380045361816883087158203125</LatitudeDegrees>
              <LongitudeDegrees>-0.165843330323696136474609375</LongitudeDegrees>
            </Position>
            <AltitudeMeters>891.4000244140625</AltitudeMeters>
            <DistanceMeters>1582.8933007186</DistanceMeters>
          </Trackpoint>
          <Trackpoint>
            <Time>2019-07-06T13:49:48.000Z</Time>
            <Position>
              <LatitudeDegrees>42.5380109064280986785888671875</LatitudeDegrees>
              <LongitudeDegrees>-0.16584173776209354400634765625</LongitudeDegrees>
            </Position>
            <AltitudeMeters>891.4000244140625</AltitudeMeters>
            <DistanceMeters>1583.6170026142</DistanceMeters>
          </Trackpoint>
          <Trackpoint>
            <Time>2019-07-06T13:49:50.000Z</Time>
            <Position>
              <LatitudeDegrees>42.5380209647119045257568359375</LatitudeDegrees>
              <LongitudeDegrees>-0.165841989219188690185546875</LongitudeDegrees>
            </Position>
            <AltitudeMeters>891.4000244140625</AltitudeMeters>
            <DistanceMeters>1584.7333137488</DistanceMeters>
          </Trackpoint>
          <Trackpoint>
            <Time>2019-07-06T13:49:51.000Z</Time>
            <Position>
              <LatitudeDegrees>42.53802456893026828765869140625</LatitudeDegrees>
              <LongitudeDegrees>-0.16584458760917186737060546875</LongitudeDegrees>
            </Position>
            <AltitudeMeters>891.4000244140625</AltitudeMeters>
            <DistanceMeters>1585.1988476731</DistanceMeters>
          </Trackpoint>
          <Trackpoint>
            <Time>2019-07-06T13:50:01.000Z</Time>
            <Position>
              <LatitudeDegrees>42.53802792169153690338134765625</LatitudeDegrees>
              <LongitudeDegrees>-0.1658609323203563690185546875</LongitudeDegrees>
            </Position>
            <AltitudeMeters>891.4000244140625</AltitudeMeters>
            <DistanceMeters>1586.592212821</DistanceMeters>
          </Trackpoint>
          <Trackpoint>
            <Time>2019-07-06T13:50:14.000Z</Time>
            <Position>
              <LatitudeDegrees>42.5379123352468013763427734375</LatitudeDegrees>
              <LongitudeDegrees>-0.16587459482252597808837890625</LongitudeDegrees>
            </Position>
            <AltitudeMeters>891.4000244140625</AltitudeMeters>
            <DistanceMeters>1599.5060601086</DistanceMeters>
          </Trackpoint>
          <Trackpoint>
            <Time>2019-07-06T13:50:22.000Z</Time>
            <Position>
              <LatitudeDegrees>42.537926249206066131591796875</LatitudeDegrees>
              <LongitudeDegrees>-0.16582799144089221954345703125</LongitudeDegrees>
            </Position>
            <AltitudeMeters>891.4000244140625</AltitudeMeters>
            <DistanceMeters>1603.6296063911</DistanceMeters>
          </Trackpoint>
          <Trackpoint>
            <Time>2019-07-06T13:50:29.000Z</Time>
            <Position>
              <LatitudeDegrees>42.537948377430438995361328125</LatitudeDegrees>
              <LongitudeDegrees>-0.1658237166702747344970703125</LongitudeDegrees>
            </Position>
            <AltitudeMeters>891.79998779296875</AltitudeMeters>
            <DistanceMeters>1606.1185082454</DistanceMeters>
          </Trackpoint>
          <Trackpoint>
            <Time>2019-07-06T13:50:31.000Z</Time>
            <Position>
              <LatitudeDegrees>42.53794200718402862548828125</LatitudeDegrees>
              <LongitudeDegrees>-0.16582153737545013427734375</LongitudeDegrees>
            </Position>
            <AltitudeMeters>892</AltitudeMeters>
            <DistanceMeters>1606.8545820098</DistanceMeters>
          </Trackpoint>
          <Trackpoint>
            <Time>2019-07-06T13:50:40.000Z</Time>
            <Position>
              <LatitudeDegrees>42.5379136763513088226318359375</LatitudeDegrees>
              <LongitudeDegrees>-0.16583285294473171234130859375</LongitudeDegrees>
            </Position>
            <AltitudeMeters>892</AltitudeMeters>
            <DistanceMeters>1610.1436596282</DistanceMeters>
          </Trackpoint>
          <Trackpoint>
            <Time>2019-07-06T13:50:45.000Z</Time>
            <Position>
              <LatitudeDegrees>42.53800512291491031646728515625</LatitudeDegrees>
              <LongitudeDegrees>-0.16584299504756927490234375</LongitudeDegrees>
            </Position>
            <AltitudeMeters>892.20001220703125</AltitudeMeters>
            <DistanceMeters>1620.3562686449</DistanceMeters>
          </Trackpoint>
          <Trackpoint>
            <Time>2019-07-06T13:50:46.000Z</Time>
            <Position>
              <LatitudeDegrees>42.5380231440067291259765625</LatitudeDegrees>
              <LongitudeDegrees>-0.16584492288529872894287109375</LongitudeDegrees>
            </Position>
            <AltitudeMeters>892.4000244140625</AltitudeMeters>
            <DistanceMeters>1622.3698486218</DistanceMeters>
          </Trackpoint>
          <Trackpoint>
            <Time>2019-07-06T13:50:48.000Z</Time>
            <Position>
              <LatitudeDegrees>42.53804066218435764312744140625</LatitudeDegrees>
              <LongitudeDegrees>-0.1658421568572521209716796875</LongitudeDegrees>
            </Position>
            <AltitudeMeters>892.5999755859375</AltitudeMeters>
            <DistanceMeters>1624.3311779071</DistanceMeters>
          </Trackpoint>
          <Trackpoint>
            <Time>2019-07-06T13:50:51.000Z</Time>
            <Position>
              <LatitudeDegrees>42.5380367226898670196533203125</LatitudeDegrees>
              <LongitudeDegrees>-0.165832601487636566162109375</LongitudeDegrees>
            </Position>
            <AltitudeMeters>892.5999755859375</AltitudeMeters>
            <DistanceMeters>1625.2276581375</DistanceMeters>
          </Trackpoint>
          <Trackpoint>
            <Time>2019-07-06T13:50:54.000Z</Time>
            <Position>
              <LatitudeDegrees>42.53801752813160419464111328125</LatitudeDegrees>
              <LongitudeDegrees>-0.16584441997110843658447265625</LongitudeDegrees>
            </Position>
            <AltitudeMeters>892.4000244140625</AltitudeMeters>
            <DistanceMeters>1627.5727203018</DistanceMeters>
          </Trackpoint>
          <Trackpoint>
            <Time>2019-07-06T13:51:02.000Z</Time>
            <Position>
              <LatitudeDegrees>42.537949718534946441650390625</LatitudeDegrees>
              <LongitudeDegrees>-0.16587945632636547088623046875</LongitudeDegrees>
            </Position>
            <AltitudeMeters>890.79998779296875</AltitudeMeters>
            <DistanceMeters>1635.6483139071</DistanceMeters>
          </Trackpoint>
          <Trackpoint>
            <Time>2019-07-06T13:51:09.000Z</Time>
            <Position>
              <LatitudeDegrees>42.5379280932247638702392578125</LatitudeDegrees>
              <LongitudeDegrees>-0.1658445037901401519775390625</LongitudeDegrees>
            </Position>
            <AltitudeMeters>891.4000244140625</AltitudeMeters>
            <DistanceMeters>1639.3919322959</DistanceMeters>
          </Trackpoint>
          <Trackpoint>
            <Time>2019-07-06T13:51:14.000Z</Time>
            <Position>
              <LatitudeDegrees>42.53792163915932178497314453125</LatitudeDegrees>
              <LongitudeDegrees>-0.16580200754106044769287109375</LongitudeDegrees>
            </Position>
            <AltitudeMeters>891.5999755859375</AltitudeMeters>
            <DistanceMeters>1642.9500451629</DistanceMeters>
          </Trackpoint>
          <Trackpoint>
            <Time>2019-07-06T13:51:17.000Z</Time>
            <Position>
              <LatitudeDegrees>42.53791644237935543060302734375</LatitudeDegrees>
              <LongitudeDegrees>-0.16581139527261257171630859375</LongitudeDegrees>
            </Position>
            <AltitudeMeters>890.79998779296875</AltitudeMeters>
            <DistanceMeters>1643.909767934</DistanceMeters>
          </Trackpoint>
          <Trackpoint>
            <Time>2019-07-06T13:51:20.000Z</Time>
            <Position>
              <LatitudeDegrees>42.53791376017034053802490234375</LatitudeDegrees>
              <LongitudeDegrees>-0.16581977717578411102294921875</LongitudeDegrees>
            </Position>
            <AltitudeMeters>890.79998779296875</AltitudeMeters>
            <DistanceMeters>1644.6580090311</DistanceMeters>
          </Trackpoint>
          <Trackpoint>
            <Time>2019-07-06T13:51:26.000Z</Time>
            <Position>
              <LatitudeDegrees>42.537906803190708160400390625</LatitudeDegrees>
              <LongitudeDegrees>-0.16581357456743717193603515625</LongitudeDegrees>
            </Position>
            <AltitudeMeters>890.5999755859375</AltitudeMeters>
            <DistanceMeters>1645.5890768797</DistanceMeters>
          </Trackpoint>
          <Trackpoint>
            <Time>2019-07-06T13:52:08.000Z</Time>
            <Position>
              <LatitudeDegrees>42.53796388395130634307861328125</LatitudeDegrees>
              <LongitudeDegrees>-0.16584827564656734466552734375</LongitudeDegrees>
            </Position>
            <AltitudeMeters>891.4000244140625</AltitudeMeters>
            <DistanceMeters>1652.5513646037</DistanceMeters>
          </Trackpoint>
          <Trackpoint>
            <Time>2019-07-06T13:52:36.000Z</Time>
            <Position>
              <LatitudeDegrees>42.5379143469035625457763671875</LatitudeDegrees>
              <LongitudeDegrees>-0.165833272039890289306640625</LongitudeDegrees>
            </Position>
            <AltitudeMeters>890.4000244140625</AltitudeMeters>
            <DistanceMeters>1658.2012601982</DistanceMeters>
          </Trackpoint>
          <Trackpoint>
            <Time>2019-07-06T13:52:40.000Z</Time>
            <Position>
              <LatitudeDegrees>42.5378694199025630950927734375</LatitudeDegrees>
              <LongitudeDegrees>-0.16584928147494792938232421875</LongitudeDegrees>
            </Position>
            <AltitudeMeters>890.4000244140625</AltitudeMeters>
            <DistanceMeters>1663.3712724104</DistanceMeters>
          </Trackpoint>
          <Trackpoint>
            <Time>2019-07-06T13:53:06.000Z</Time>
            <Position>
              <LatitudeDegrees>42.53800177015364170074462890625</LatitudeDegrees>
              <LongitudeDegrees>-0.16583318822085857391357421875</LongitudeDegrees>
            </Position>
            <AltitudeMeters>892</AltitudeMeters>
            <DistanceMeters>1678.1612883596</DistanceMeters>
          </Trackpoint>
          <Trackpoint>
            <Time>2019-07-06T13:53:17.000Z</Time>
            <Position>
              <LatitudeDegrees>42.53801417537033557891845703125</LatitudeDegrees>
              <LongitudeDegrees>-0.1658022589981555938720703125</LongitudeDegrees>
            </Position>
            <AltitudeMeters>892</AltitudeMeters>
            <DistanceMeters>1681.0498503953</DistanceMeters>
          </Trackpoint>
          <Trackpoint>
            <Time>2019-07-06T13:53:21.000Z</Time>
            <Position>
              <LatitudeDegrees>42.53797327168285846710205078125</LatitudeDegrees>
              <LongitudeDegrees>-0.16581390984356403350830078125</LongitudeDegrees>
            </Position>
            <AltitudeMeters>892</AltitudeMeters>
            <DistanceMeters>1685.7032495092</DistanceMeters>
          </Trackpoint>
          <Trackpoint>
            <Time>2019-07-06T13:53:22.000Z</Time>
            <Position>
              <LatitudeDegrees>42.5379753671586513519287109375</LatitudeDegrees>
              <LongitudeDegrees>-0.16582095064222812652587890625</LongitudeDegrees>
            </Position>
            <AltitudeMeters>892</AltitudeMeters>
            <DistanceMeters>1686.3263813468</DistanceMeters>
          </Trackpoint>
          <Trackpoint>
            <Time>2019-07-06T13:53:38.000Z</Time>
            <Position>
              <LatitudeDegrees>42.53801417537033557891845703125</LatitudeDegrees>
              <LongitudeDegrees>-0.1658227108418941497802734375</LongitudeDegrees>
            </Position>
            <AltitudeMeters>891</AltitudeMeters>
            <DistanceMeters>1690.6477466503</DistanceMeters>
          </Trackpoint>
          <Trackpoint>
            <Time>2019-07-06T13:53:50.000Z</Time>
            <Position>
              <LatitudeDegrees>42.5380150973796844482421875</LatitudeDegrees>
              <LongitudeDegrees>-0.1657995767891407012939453125</LongitudeDegrees>
            </Position>
            <AltitudeMeters>891.4000244140625</AltitudeMeters>
            <DistanceMeters>1692.5482809377</DistanceMeters>
          </Trackpoint>
          <Trackpoint>
            <Time>2019-07-06T13:53:54.000Z</Time>
            <Position>
              <LatitudeDegrees>42.5380606949329376220703125</LatitudeDegrees>
              <LongitudeDegrees>-0.1658290810883045196533203125</LongitudeDegrees>
            </Position>
            <AltitudeMeters>891.20001220703125</AltitudeMeters>
            <DistanceMeters>1698.1701371751</DistanceMeters>
          </Trackpoint>
          <Trackpoint>
            <Time>2019-07-06T13:53:57.000Z</Time>
            <Position>
              <LatitudeDegrees>42.53808290697634220123291015625</LatitudeDegrees>
              <LongitudeDegrees>-0.16583134420216083526611328125</LongitudeDegrees>
            </Position>
            <AltitudeMeters>890.5999755859375</AltitudeMeters>
            <DistanceMeters>1700.6481307146</DistanceMeters>
          </Trackpoint>
          <Trackpoint>
            <Time>2019-07-06T13:53:59.000Z</Time>
            <Position>
              <LatitudeDegrees>42.53810067661106586456298828125</LatitudeDegrees>
              <LongitudeDegrees>-0.16582153737545013427734375</LongitudeDegrees>
            </Position>
            <AltitudeMeters>890.20001220703125</AltitudeMeters>
            <DistanceMeters>1702.7835905256</DistanceMeters>
          </Trackpoint>
          <Trackpoint>
            <Time>2019-07-06T13:54:06.000Z</Time>
            <Position>
              <LatitudeDegrees>42.538111992180347442626953125</LatitudeDegrees>
              <LongitudeDegrees>-0.16578960232436656951904296875</LongitudeDegrees>
            </Position>
            <AltitudeMeters>890.20001220703125</AltitudeMeters>
            <DistanceMeters>1705.6908489509</DistanceMeters>
          </Trackpoint>
          <Trackpoint>
            <Time>2019-07-06T13:54:22.000Z</Time>
            <Position>
              <LatitudeDegrees>42.53798626363277435302734375</LatitudeDegrees>
              <LongitudeDegrees>-0.16581776551902294158935546875</LongitudeDegrees>
            </Position>
            <AltitudeMeters>890.79998779296875</AltitudeMeters>
            <DistanceMeters>1719.8743620213</DistanceMeters>
          </Trackpoint>
          <Trackpoint>
            <Time>2019-07-06T13:54:35.000Z</Time>
            <Position>
              <LatitudeDegrees>42.53799288533627986907958984375</LatitudeDegrees>
              <LongitudeDegrees>-0.1658280752599239349365234375</LongitudeDegrees>
            </Position>
            <AltitudeMeters>891.20001220703125</AltitudeMeters>
            <DistanceMeters>1720.9947104607</DistanceMeters>
          </Trackpoint>
          <Trackpoint>
            <Time>2019-07-06T13:54:53.000Z</Time>
            <Position>
              <LatitudeDegrees>42.5380280055105686187744140625</LatitudeDegrees>
              <LongitudeDegrees>-0.1658374629914760589599609375</LongitudeDegrees>
            </Position>
            <AltitudeMeters>892.5999755859375</AltitudeMeters>
            <DistanceMeters>1724.9790390602</DistanceMeters>
          </Trackpoint>
          <Trackpoint>
            <Time>2019-07-06T13:55:05.000Z</Time>
            <Position>
              <LatitudeDegrees>42.53798534162342548370361328125</LatitudeDegrees>
              <LongitudeDegrees>-0.16585313715040683746337890625</LongitudeDegrees>
            </Position>
            <AltitudeMeters>891.4000244140625</AltitudeMeters>
            <DistanceMeters>1729.8984500889</DistanceMeters>
          </Trackpoint>
          <Trackpoint>
            <Time>2019-07-06T13:55:12.000Z</Time>
            <Position>
              <LatitudeDegrees>42.53798970021307468414306640625</LatitudeDegrees>
              <LongitudeDegrees>-0.1658610999584197998046875</LongitudeDegrees>
            </Position>
            <AltitudeMeters>891.4000244140625</AltitudeMeters>
            <DistanceMeters>1730.715900795</DistanceMeters>
          </Trackpoint>
          <Trackpoint>
            <Time>2019-07-06T13:55:15.000Z</Time>
            <Position>
              <LatitudeDegrees>42.5380038656294345855712890625</LatitudeDegrees>
              <LongitudeDegrees>-0.16585967503488063812255859375</LongitudeDegrees>
            </Position>
            <AltitudeMeters>890.4000244140625</AltitudeMeters>
            <DistanceMeters>1732.3003127526</DistanceMeters>
          </Trackpoint>
          <Trackpoint>
            <Time>2019-07-06T13:55:17.000Z</Time>
            <Position>
              <LatitudeDegrees>42.53801484592258930206298828125</LatitudeDegrees>
              <LongitudeDegrees>-0.16585263423621654510498046875</LongitudeDegrees>
            </Position>
            <AltitudeMeters>890.5999755859375</AltitudeMeters>
            <DistanceMeters>1733.6508961235</DistanceMeters>
          </Trackpoint>
          <Trackpoint>
            <Time>2019-07-06T13:55:19.000Z</Time>
            <Position>
              <LatitudeDegrees>42.5380070507526397705078125</LatitudeDegrees>
              <LongitudeDegrees>-0.16585506498813629150390625</LongitudeDegrees>
            </Position>
            <AltitudeMeters>890.4000244140625</AltitudeMeters>
            <DistanceMeters>1734.5423257208</DistanceMeters>
          </Trackpoint>
          <Trackpoint>
            <Time>2019-07-06T13:55:20.000Z</Time>
            <Position>
              <LatitudeDegrees>42.53800663165748119354248046875</LatitudeDegrees>
              <LongitudeDegrees>-0.16585640609264373779296875</LongitudeDegrees>
            </Position>
            <AltitudeMeters>890.5999755859375</AltitudeMeters>
            <DistanceMeters>1734.6767137891</DistanceMeters>
          </Trackpoint>
          <Trackpoint>
            <Time>2019-07-06T13:55:24.000Z</Time>
            <Position>
              <LatitudeDegrees>42.53801316954195499420166015625</LatitudeDegrees>
              <LongitudeDegrees>-0.16585950739681720733642578125</LongitudeDegrees>
            </Position>
            <AltitudeMeters>890.79998779296875</AltitudeMeters>
            <DistanceMeters>1735.4487144661</DistanceMeters>
          </Trackpoint>
          <Trackpoint>
            <Time>2019-07-06T13:55:26.000Z</Time>
            <Position>
              <LatitudeDegrees>42.5380209647119045257568359375</LatitudeDegrees>
              <LongitudeDegrees>-0.16586084850132465362548828125</LongitudeDegrees>
            </Position>
            <AltitudeMeters>890.79998779296875</AltitudeMeters>
            <DistanceMeters>1736.3196486894</DistanceMeters>
          </Trackpoint>
          <Trackpoint>
            <Time>2019-07-06T13:55:29.000Z</Time>
            <Position>
              <LatitudeDegrees>42.538067400455474853515625</LatitudeDegrees>
              <LongitudeDegrees>-0.1658351160585880279541015625</LongitudeDegrees>
            </Position>
            <AltitudeMeters>892.5999755859375</AltitudeMeters>
            <DistanceMeters>1741.9012043625</DistanceMeters>
          </Trackpoint>
          <Trackpoint>
            <Time>2019-07-06T13:55:56.000Z</Time>
            <Position>
              <LatitudeDegrees>42.53812448121607303619384765625</LatitudeDegrees>
              <LongitudeDegrees>-0.165754817426204681396484375</LongitudeDegrees>
            </Position>
            <AltitudeMeters>892.5999755859375</AltitudeMeters>
            <DistanceMeters>1751.0514430909</DistanceMeters>
          </Trackpoint>
          <Trackpoint>
            <Time>2019-07-06T13:56:09.000Z</Time>
            <Position>
              <LatitudeDegrees>42.5381306000053882598876953125</LatitudeDegrees>
              <LongitudeDegrees>-0.16581214964389801025390625</LongitudeDegrees>
            </Position>
            <AltitudeMeters>892.5999755859375</AltitudeMeters>
            <DistanceMeters>1755.8027788094</DistanceMeters>
          </Trackpoint>
          <Trackpoint>
            <Time>2019-07-06T13:56:18.000Z</Time>
            <Position>
              <LatitudeDegrees>42.53813051618635654449462890625</LatitudeDegrees>
              <LongitudeDegrees>-0.1657858304679393768310546875</LongitudeDegrees>
            </Position>
            <AltitudeMeters>892.4000244140625</AltitudeMeters>
            <DistanceMeters>1757.9613708147</DistanceMeters>
          </Trackpoint>
          <Trackpoint>
            <Time>2019-07-06T13:56:25.000Z</Time>
            <Position>
              <LatitudeDegrees>42.53812364302575588226318359375</LatitudeDegrees>
              <LongitudeDegrees>-0.16577417962253093719482421875</LongitudeDegrees>
            </Position>
            <AltitudeMeters>892.79998779296875</AltitudeMeters>
            <DistanceMeters>1759.182011062</DistanceMeters>
          </Trackpoint>
          <Trackpoint>
            <Time>2019-07-06T13:56:29.000Z</Time>
            <Position>
              <LatitudeDegrees>42.5381031073629856109619140625</LatitudeDegrees>
              <LongitudeDegrees>-0.1657895185053348541259765625</LongitudeDegrees>
            </Position>
            <AltitudeMeters>892.79998779296875</AltitudeMeters>
            <DistanceMeters>1761.7896244463</DistanceMeters>
          </Trackpoint>
          <Trackpoint>
            <Time>2019-07-06T13:56:36.000Z</Time>
            <Position>
              <LatitudeDegrees>42.53806128166615962982177734375</LatitudeDegrees>
              <LongitudeDegrees>-0.16583251766860485076904296875</LongitudeDegrees>
            </Position>
            <AltitudeMeters>892.5999755859375</AltitudeMeters>
            <DistanceMeters>1767.6297099533</DistanceMeters>
          </Trackpoint>
          <Trackpoint>
            <Time>2019-07-06T13:56:40.000Z</Time>
            <Position>
              <LatitudeDegrees>42.53805424086749553680419921875</LatitudeDegrees>
              <LongitudeDegrees>-0.16584475524723529815673828125</LongitudeDegrees>
            </Position>
            <AltitudeMeters>892.79998779296875</AltitudeMeters>
            <DistanceMeters>1768.8975244535</DistanceMeters>
          </Trackpoint>
          <Trackpoint>
            <Time>2019-07-06T13:56:45.000Z</Time>
            <Position>
              <LatitudeDegrees>42.53797746263444423675537109375</LatitudeDegrees>
              <LongitudeDegrees>-0.16587090678513050079345703125</LongitudeDegrees>
            </Position>
            <AltitudeMeters>893</AltitudeMeters>
            <DistanceMeters>1777.7068647784</DistanceMeters>
          </Trackpoint>
          <Trackpoint>
            <Time>2019-07-06T13:56:51.000Z</Time>
            <Position>
              <LatitudeDegrees>42.53797645680606365203857421875</LatitudeDegrees>
              <LongitudeDegrees>-0.1658750139176845550537109375</LongitudeDegrees>
            </Position>
            <AltitudeMeters>893</AltitudeMeters>
            <DistanceMeters>1778.0494884696</DistanceMeters>
          </Trackpoint>
          <Trackpoint>
            <Time>2019-07-06T13:56:56.000Z</Time>
            <Position>
              <LatitudeDegrees>42.537981569766998291015625</LatitudeDegrees>
              <LongitudeDegrees>-0.16586118377745151519775390625</LongitudeDegrees>
            </Position>
            <AltitudeMeters>892.79998779296875</AltitudeMeters>
            <DistanceMeters>1779.3173029698</DistanceMeters>
          </Trackpoint>
          <Trackpoint>
            <Time>2019-07-06T13:57:00.000Z</Time>
            <Position>
              <LatitudeDegrees>42.53799288533627986907958984375</LatitudeDegrees>
              <LongitudeDegrees>-0.16584693454205989837646484375</LongitudeDegrees>
            </Position>
            <AltitudeMeters>891.4000244140625</AltitudeMeters>
            <DistanceMeters>1781.0330549685</DistanceMeters>
          </Trackpoint>
          <Trackpoint>
            <Time>2019-07-06T13:57:21.000Z</Time>
            <Position>
              <LatitudeDegrees>42.53803831525146961212158203125</LatitudeDegrees>
              <LongitudeDegrees>-0.1658136583864688873291015625</LongitudeDegrees>
            </Position>
            <AltitudeMeters>890.79998779296875</AltitudeMeters>
            <DistanceMeters>1786.7788325032</DistanceMeters>
          </Trackpoint>
          <Trackpoint>
            <Time>2019-07-06T13:57:31.000Z</Time>
            <Position>
              <LatitudeDegrees>42.53801166079938411712646484375</LatitudeDegrees>
              <LongitudeDegrees>-0.1658274047076702117919921875</LongitudeDegrees>
            </Position>
            <AltitudeMeters>891.4000244140625</AltitudeMeters>
            <DistanceMeters>1789.9533506259</DistanceMeters>
          </Trackpoint>
          <Trackpoint>
            <Time>2019-07-06T13:57:33.000Z</Time>
            <Position>
              <LatitudeDegrees>42.5380373932421207427978515625</LatitudeDegrees>
              <LongitudeDegrees>-0.1658280752599239349365234375</LongitudeDegrees>
            </Position>
            <AltitudeMeters>892.5999755859375</AltitudeMeters>
            <DistanceMeters>1792.8199460916</DistanceMeters>
          </Trackpoint>
          <Trackpoint>
            <Time>2019-07-06T13:57:36.000Z</Time>
            <Position>
              <LatitudeDegrees>42.53806916065514087677001953125</LatitudeDegrees>
              <LongitudeDegrees>-0.1658230461180210113525390625</LongitudeDegrees>
            </Position>
            <AltitudeMeters>890.79998779296875</AltitudeMeters>
            <DistanceMeters>1796.3793276743</DistanceMeters>
          </Trackpoint>
          <Trackpoint>
            <Time>2019-07-06T13:57:48.000Z</Time>
            <Position>
              <LatitudeDegrees>42.53799154423177242279052734375</LatitudeDegrees>
              <LongitudeDegrees>-0.1659011654555797576904296875</LongitudeDegrees>
            </Position>
            <AltitudeMeters>890.5999755859375</AltitudeMeters>
            <DistanceMeters>1807.1345719415</DistanceMeters>
          </Trackpoint>
          <Trackpoint>
            <Time>2019-07-06T13:57:50.000Z</Time>
            <Position>
              <LatitudeDegrees>42.5379730202257633209228515625</LatitudeDegrees>
              <LongitudeDegrees>-0.16591834835708141326904296875</LongitudeDegrees>
            </Position>
            <AltitudeMeters>890.5999755859375</AltitudeMeters>
            <DistanceMeters>1809.6325276702</DistanceMeters>
          </Trackpoint>
          <Trackpoint>
            <Time>2019-07-06T13:57:52.000Z</Time>
            <Position>
              <LatitudeDegrees>42.53796438686549663543701171875</LatitudeDegrees>
              <LongitudeDegrees>-0.16592077910900115966796875</LongitudeDegrees>
            </Position>
            <AltitudeMeters>890.4000244140625</AltitudeMeters>
            <DistanceMeters>1810.6108875749</DistanceMeters>
          </Trackpoint>
          <Trackpoint>
            <Time>2019-07-06T13:57:53.000Z</Time>
            <Position>
              <LatitudeDegrees>42.5379622913897037506103515625</LatitudeDegrees>
              <LongitudeDegrees>-0.16591717489063739776611328125</LongitudeDegrees>
            </Position>
            <AltitudeMeters>890.4000244140625</AltitudeMeters>
            <DistanceMeters>1810.9909944324</DistanceMeters>
          </Trackpoint>
          <Trackpoint>
            <Time>2019-07-06T13:57:54.000Z</Time>
            <Position>
              <LatitudeDegrees>42.53796556033194065093994140625</LatitudeDegrees>
              <LongitudeDegrees>-0.1659129001200199127197265625</LongitudeDegrees>
            </Position>
            <AltitudeMeters>890.4000244140625</AltitudeMeters>
            <DistanceMeters>1811.5027289503</DistanceMeters>
          </Trackpoint>
          <Trackpoint>
            <Time>2019-07-06T13:57:57.000Z</Time>
            <Position>
              <LatitudeDegrees>42.53802138380706310272216796875</LatitudeDegrees>
              <LongitudeDegrees>-0.1658944599330425262451171875</LongitudeDegrees>
            </Position>
            <AltitudeMeters>890.4000244140625</AltitudeMeters>
            <DistanceMeters>1817.8971160311</DistanceMeters>
          </Trackpoint>
          <Trackpoint>
            <Time>2019-07-06T13:58:00.000Z</Time>
            <Position>
              <LatitudeDegrees>42.53804862499237060546875</LatitudeDegrees>
              <LongitudeDegrees>-0.16588264144957065582275390625</LongitudeDegrees>
            </Position>
            <AltitudeMeters>890.5999755859375</AltitudeMeters>
            <DistanceMeters>1821.0801563654</DistanceMeters>
          </Trackpoint>
          <Trackpoint>
            <Time>2019-07-06T13:58:04.000Z</Time>
            <Position>
              <LatitudeDegrees>42.5380739383399486541748046875</LatitudeDegrees>
              <LongitudeDegrees>-0.1658746786415576934814453125</LongitudeDegrees>
            </Position>
            <AltitudeMeters>890.79998779296875</AltitudeMeters>
            <DistanceMeters>1823.9718428607</DistanceMeters>
          </Trackpoint>
          <Trackpoint>
            <Time>2019-07-06T13:58:09.000Z</Time>
            <Position>
              <LatitudeDegrees>42.53811073489487171173095703125</LatitudeDegrees>
              <LongitudeDegrees>-0.16587945632636547088623046875</LongitudeDegrees>
            </Position>
            <AltitudeMeters>890.79998779296875</AltitudeMeters>
            <DistanceMeters>1828.0855228745</DistanceMeters>
          </Trackpoint>
          <Trackpoint>
            <Time>2019-07-06T13:58:12.000Z</Time>
            <Position>
              <LatitudeDegrees>42.538118027150630950927734375</LatitudeDegrees>
              <LongitudeDegrees>-0.16585833393037319183349609375</LongitudeDegrees>
            </Position>
            <AltitudeMeters>890.79998779296875</AltitudeMeters>
            <DistanceMeters>1829.9978986116</DistanceMeters>
          </Trackpoint>
          <Trackpoint>
            <Time>2019-07-06T13:58:13.000Z</Time>
            <Position>
              <LatitudeDegrees>42.53811844624578952789306640625</LatitudeDegrees>
              <LongitudeDegrees>-0.16586101613938808441162109375</LongitudeDegrees>
            </Position>
            <AltitudeMeters>890.79998779296875</AltitudeMeters>
            <DistanceMeters>1830.2103848046</DistanceMeters>
          </Trackpoint>
          <Trackpoint>
            <Time>2019-07-06T13:58:29.000Z</Time>
            <Position>
              <LatitudeDegrees>42.53810034133493900299072265625</LatitudeDegrees>
              <LongitudeDegrees>-0.16581349074840545654296875</LongitudeDegrees>
            </Position>
            <AltitudeMeters>891.79998779296875</AltitudeMeters>
            <DistanceMeters>1834.5981089275</DistanceMeters>
          </Trackpoint>
          <Trackpoint>
            <Time>2019-07-06T13:58:34.000Z</Time>
            <Position>
              <LatitudeDegrees>42.5380521453917026519775390625</LatitudeDegrees>
              <LongitudeDegrees>-0.165800414979457855224609375</LongitudeDegrees>
            </Position>
            <AltitudeMeters>890.79998779296875</AltitudeMeters>
            <DistanceMeters>1840.0685452296</DistanceMeters>
          </Trackpoint>
          <Trackpoint>
            <Time>2019-07-06T13:58:38.000Z</Time>
            <Position>
              <LatitudeDegrees>42.53802624531090259552001953125</LatitudeDegrees>
              <LongitudeDegrees>-0.165830589830875396728515625</LongitudeDegrees>
            </Position>
            <AltitudeMeters>892.5999755859375</AltitudeMeters>
            <DistanceMeters>1843.8684257848</DistanceMeters>
          </Trackpoint>
          <Trackpoint>
            <Time>2019-07-06T13:58:49.000Z</Time>
            <Position>
              <LatitudeDegrees>42.538004703819751739501953125</LatitudeDegrees>
              <LongitudeDegrees>-0.16582312993705272674560546875</LongitudeDegrees>
            </Position>
            <AltitudeMeters>891.4000244140625</AltitudeMeters>
            <DistanceMeters>1846.3427725327</DistanceMeters>
          </Trackpoint>
          <Trackpoint>
            <Time>2019-07-06T13:58:54.000Z</Time>
            <Position>
              <LatitudeDegrees>42.53799590282142162322998046875</LatitudeDegrees>
              <LongitudeDegrees>-0.16583184711635112762451171875</LongitudeDegrees>
            </Position>
            <AltitudeMeters>891.79998779296875</AltitudeMeters>
            <DistanceMeters>1847.5559924058</DistanceMeters>
          </Trackpoint>
          <Trackpoint>
            <Time>2019-07-06T13:58:57.000Z</Time>
            <Position>
              <LatitudeDegrees>42.5379840843379497528076171875</LatitudeDegrees>
              <LongitudeDegrees>-0.16584022901952266693115234375</LongitudeDegrees>
            </Position>
            <AltitudeMeters>891.5999755859375</AltitudeMeters>
            <DistanceMeters>1849.040357136</DistanceMeters>
          </Trackpoint>
          <Trackpoint>
            <Time>2019-07-06T13:58:58.000Z</Time>
            <Position>
              <LatitudeDegrees>42.53797880373895168304443359375</LatitudeDegrees>
              <LongitudeDegrees>-0.16584408469498157501220703125</LongitudeDegrees>
            </Position>
            <AltitudeMeters>891.5999755859375</AltitudeMeters>
            <DistanceMeters>1849.7055441366</DistanceMeters>
          </Trackpoint>
          <Trackpoint>
            <Time>2019-07-06T13:59:00.000Z</Time>
            <Position>
              <LatitudeDegrees>42.53799657337367534637451171875</LatitudeDegrees>
              <LongitudeDegrees>-0.16585581935942173004150390625</LongitudeDegrees>
            </Position>
            <AltitudeMeters>891.79998779296875</AltitudeMeters>
            <DistanceMeters>1851.9055716305</DistanceMeters>
          </Trackpoint>
          <Trackpoint>
            <Time>2019-07-06T13:59:03.000Z</Time>
            <Position>
              <LatitudeDegrees>42.53801417537033557891845703125</LatitudeDegrees>
              <LongitudeDegrees>-0.16586118377745151519775390625</LongitudeDegrees>
            </Position>
            <AltitudeMeters>891.79998779296875</AltitudeMeters>
            <DistanceMeters>1853.9124134514</DistanceMeters>
          </Trackpoint>
          <Trackpoint>
            <Time>2019-07-06T13:59:08.000Z</Time>
            <Position>
              <LatitudeDegrees>42.5380645506083965301513671875</LatitudeDegrees>
              <LongitudeDegrees>-0.1658565737307071685791015625</LongitudeDegrees>
            </Position>
            <AltitudeMeters>892.5999755859375</AltitudeMeters>
            <DistanceMeters>1859.5326632146</DistanceMeters>
          </Trackpoint>
          <Trackpoint>
            <Time>2019-07-06T13:59:14.000Z</Time>
            <Position>
              <LatitudeDegrees>42.5380481220781803131103515625</LatitudeDegrees>
              <LongitudeDegrees>-0.16583972610533237457275390625</LongitudeDegrees>
            </Position>
            <AltitudeMeters>892.5999755859375</AltitudeMeters>
            <DistanceMeters>1861.8251519257</DistanceMeters>
          </Trackpoint>
          <Trackpoint>
            <Time>2019-07-06T13:59:21.000Z</Time>
            <Position>
              <LatitudeDegrees>42.5380350463092327117919921875</LatitudeDegrees>
              <LongitudeDegrees>-0.1658377982676029205322265625</LongitudeDegrees>
            </Position>
            <AltitudeMeters>892.5999755859375</AltitudeMeters>
            <DistanceMeters>1863.2911526739</DistanceMeters>
          </Trackpoint>
          <Trackpoint>
            <Time>2019-07-06T13:59:25.000Z</Time>
            <Position>
              <LatitudeDegrees>42.5380363874137401580810546875</LatitudeDegrees>
              <LongitudeDegrees>-0.1658186875283718109130859375</LongitudeDegrees>
            </Position>
            <AltitudeMeters>892.5999755859375</AltitudeMeters>
            <DistanceMeters>1864.866992457</DistanceMeters>
          </Trackpoint>
          <Trackpoint>
            <Time>2019-07-06T13:59:26.000Z</Time>
            <Position>
              <LatitudeDegrees>42.5380320288240909576416015625</LatitudeDegrees>
              <LongitudeDegrees>-0.16581072472035884857177734375</LongitudeDegrees>
            </Position>
            <AltitudeMeters>890.79998779296875</AltitudeMeters>
            <DistanceMeters>1865.6844431631</DistanceMeters>
          </Trackpoint>
          <Trackpoint>
            <Time>2019-07-06T13:59:27.000Z</Time>
            <Position>
              <LatitudeDegrees>42.5380266644060611724853515625</LatitudeDegrees>
              <LongitudeDegrees>-0.16580871306359767913818359375</LongitudeDegrees>
            </Position>
            <AltitudeMeters>890.79998779296875</AltitudeMeters>
            <DistanceMeters>1866.3002866583</DistanceMeters>
          </Trackpoint>
          <Trackpoint>
            <Time>2019-07-06T13:59:41.000Z</Time>
            <Position>
              <LatitudeDegrees>42.53804367966949939727783203125</LatitudeDegrees>
              <LongitudeDegrees>-0.16585665754973888397216796875</LongitudeDegrees>
            </Position>
            <AltitudeMeters>892.5999755859375</AltitudeMeters>
            <DistanceMeters>1870.6632445018</DistanceMeters>
          </Trackpoint>
          <Trackpoint>
            <Time>2019-07-06T13:59:46.000Z</Time>
            <Position>
              <LatitudeDegrees>42.53805642016232013702392578125</LatitudeDegrees>
              <LongitudeDegrees>-0.16586688347160816192626953125</LongitudeDegrees>
            </Position>
            <AltitudeMeters>892.5999755859375</AltitudeMeters>
            <DistanceMeters>1872.3091554754</DistanceMeters>
          </Trackpoint>
          <Trackpoint>
            <Time>2019-07-06T13:59:49.000Z</Time>
            <Position>
              <LatitudeDegrees>42.5380675680935382843017578125</LatitudeDegrees>
              <LongitudeDegrees>-0.165854729712009429931640625</LongitudeDegrees>
            </Position>
            <AltitudeMeters>892.4000244140625</AltitudeMeters>
            <DistanceMeters>1873.8992565427</DistanceMeters>
          </Trackpoint>
          <Trackpoint>
            <Time>2019-07-06T13:59:53.000Z</Time>
            <Position>
              <LatitudeDegrees>42.53810486756265163421630859375</LatitudeDegrees>
              <LongitudeDegrees>-0.16585280187427997589111328125</LongitudeDegrees>
            </Position>
            <AltitudeMeters>892.4000244140625</AltitudeMeters>
            <DistanceMeters>1878.0544347773</DistanceMeters>
          </Trackpoint>
          <Trackpoint>
            <Time>2019-07-06T13:59:57.000Z</Time>
            <Position>
              <LatitudeDegrees>42.53808860667049884796142578125</LatitudeDegrees>
              <LongitudeDegrees>-0.1658696494996547698974609375</LongitudeDegrees>
            </Position>
            <AltitudeMeters>892.4000244140625</AltitudeMeters>
            <DistanceMeters>1880.3311130327</DistanceMeters>
          </Trackpoint>
          <Trackpoint>
            <Time>2019-07-06T13:59:59.000Z</Time>
            <Position>
              <LatitudeDegrees>42.53807955421507358551025390625</LatitudeDegrees>
              <LongitudeDegrees>-0.16587115824222564697265625</LongitudeDegrees>
            </Position>
            <AltitudeMeters>892.5999755859375</AltitudeMeters>
            <DistanceMeters>1881.3501610154</DistanceMeters>
          </Trackpoint>
          <Trackpoint>
            <Time>2019-07-06T14:00:01.000Z</Time>
            <Position>
              <LatitudeDegrees>42.538093216717243194580078125</LatitudeDegrees>
              <LongitudeDegrees>-0.16584978438913822174072265625</LongitudeDegrees>
            </Position>
            <AltitudeMeters>892.5999755859375</AltitudeMeters>
            <DistanceMeters>1883.6700587633</DistanceMeters>
          </Trackpoint>
          <Trackpoint>
            <Time>2019-07-06T14:00:02.000Z</Time>
            <Position>
              <LatitudeDegrees>42.538095228374004364013671875</LatitudeDegrees>
              <LongitudeDegrees>-0.16584542579948902130126953125</LongitudeDegrees>
            </Position>
            <AltitudeMeters>892.5999755859375</AltitudeMeters>
            <DistanceMeters>1884.0950311493</DistanceMeters>
          </Trackpoint>
          <Trackpoint>
            <Time>2019-07-06T14:00:03.000Z</Time>
            <Position>
              <LatitudeDegrees>42.5380886904895305633544921875</LatitudeDegrees>
              <LongitudeDegrees>-0.16582799144089221954345703125</LongitudeDegrees>
            </Position>
            <AltitudeMeters>892.5999755859375</AltitudeMeters>
            <DistanceMeters>1885.7020787102</DistanceMeters>
          </Trackpoint>
          <Trackpoint>
            <Time>2019-07-06T14:00:04.000Z</Time>
            <Position>
              <LatitudeDegrees>42.53809112124145030975341796875</LatitudeDegrees>
              <LongitudeDegrees>-0.16581977717578411102294921875</LongitudeDegrees>
            </Position>
            <AltitudeMeters>892.5999755859375</AltitudeMeters>
            <DistanceMeters>1886.4257806059</DistanceMeters>
          </Trackpoint>
          <Trackpoint>
            <Time>2019-07-06T14:00:07.000Z</Time>
            <Position>
              <LatitudeDegrees>42.53809849731624126434326171875</LatitudeDegrees>
              <LongitudeDegrees>-0.16577619127929210662841796875</LongitudeDegrees>
            </Position>
            <AltitudeMeters>892.20001220703125</AltitudeMeters>
            <DistanceMeters>1890.0926299108</DistanceMeters>
          </Trackpoint>
          <Trackpoint>
            <Time>2019-07-06T14:00:08.000Z</Time>
            <Position>
              <LatitudeDegrees>42.53809715621173381805419921875</LatitudeDegrees>
              <LongitudeDegrees>-0.1657590083777904510498046875</LongitudeDegrees>
            </Position>
            <AltitudeMeters>890.20001220703125</AltitudeMeters>
            <DistanceMeters>1891.5084960664</DistanceMeters>
          </Trackpoint>
          <Trackpoint>
            <Time>2019-07-06T14:00:09.000Z</Time>
            <Position>
              <LatitudeDegrees>42.53810369409620761871337890625</LatitudeDegrees>
              <LongitudeDegrees>-0.1657511293888092041015625</LongitudeDegrees>
            </Position>
            <AltitudeMeters>890.5999755859375</AltitudeMeters>
            <DistanceMeters>1892.4775822082</DistanceMeters>
          </Trackpoint>
          <Trackpoint>
            <Time>2019-07-06T14:00:13.000Z</Time>
            <Position>
              <LatitudeDegrees>42.538114674389362335205078125</LatitudeDegrees>
              <LongitudeDegrees>-0.165723301470279693603515625</LongitudeDegrees>
            </Position>
            <AltitudeMeters>889.20001220703125</AltitudeMeters>
            <DistanceMeters>1895.0660792086</DistanceMeters>
          </Trackpoint>
          <Trackpoint>
            <Time>2019-07-06T14:00:19.000Z</Time>
            <Position>
              <LatitudeDegrees>42.5380937196314334869384765625</LatitudeDegrees>
              <LongitudeDegrees>-0.1657026819884777069091796875</LongitudeDegrees>
            </Position>
            <AltitudeMeters>889</AltitudeMeters>
            <DistanceMeters>1897.9468152694</DistanceMeters>
          </Trackpoint>
          <Trackpoint>
            <Time>2019-07-06T14:00:22.000Z</Time>
            <Position>
              <LatitudeDegrees>42.53807745873928070068359375</LatitudeDegrees>
              <LongitudeDegrees>-0.1657097227871417999267578125</LongitudeDegrees>
            </Position>
            <AltitudeMeters>889.20001220703125</AltitudeMeters>
            <DistanceMeters>1899.8473495568</DistanceMeters>
          </Trackpoint>
          <Trackpoint>
            <Time>2019-07-06T14:00:23.000Z</Time>
            <Position>
              <LatitudeDegrees>42.538063041865825653076171875</LatitudeDegrees>
              <LongitudeDegrees>-0.16571114771068096160888671875</LongitudeDegrees>
            </Position>
            <AltitudeMeters>889.20001220703125</AltitudeMeters>
            <DistanceMeters>1901.4543971177</DistanceMeters>
          </Trackpoint>
          <Trackpoint>
            <Time>2019-07-06T14:00:28.000Z</Time>
            <Position>
              <LatitudeDegrees>42.53806698136031627655029296875</LatitudeDegrees>
              <LongitudeDegrees>-0.165715254843235015869140625</LongitudeDegrees>
            </Position>
            <AltitudeMeters>890.20001220703125</AltitudeMeters>
            <DistanceMeters>1902.0084933179</DistanceMeters>
          </Trackpoint>
          <Trackpoint>
            <Time>2019-07-06T14:00:32.000Z</Time>
            <Position>
              <LatitudeDegrees>42.53807603381574153900146484375</LatitudeDegrees>
              <LongitudeDegrees>-0.1657127402722835540771484375</LongitudeDegrees>
            </Position>
            <AltitudeMeters>890</AltitudeMeters>
            <DistanceMeters>1903.0363643915</DistanceMeters>
          </Trackpoint>
          <Trackpoint>
            <Time>2019-07-06T14:00:35.000Z</Time>
            <Position>
              <LatitudeDegrees>42.53807586617767810821533203125</LatitudeDegrees>
              <LongitudeDegrees>-0.16571332700550556182861328125</LongitudeDegrees>
            </Position>
            <AltitudeMeters>889.5999755859375</AltitudeMeters>
            <DistanceMeters>1903.0363643915</DistanceMeters>
          </Trackpoint>
          <Trackpoint>
            <Time>2019-07-06T14:00:38.000Z</Time>
            <Position>
              <LatitudeDegrees>42.53808039240539073944091796875</LatitudeDegrees>
              <LongitudeDegrees>-0.16571349464356899261474609375</LongitudeDegrees>
            </Position>
            <AltitudeMeters>889.5999755859375</AltitudeMeters>
            <DistanceMeters>1903.5391984998</DistanceMeters>
          </Trackpoint>
          <Trackpoint>
            <Time>2019-07-06T14:00:39.000Z</Time>
            <Position>
              <LatitudeDegrees>42.5380809791386127471923828125</LatitudeDegrees>
              <LongitudeDegrees>-0.1657184399664402008056640625</LongitudeDegrees>
            </Position>
            <AltitudeMeters>889.79998779296875</AltitudeMeters>
            <DistanceMeters>1903.9423627045</DistanceMeters>
          </Trackpoint>
          <Trackpoint>
            <Time>2019-07-06T14:00:41.000Z</Time>
            <Position>
              <LatitudeDegrees>42.53809112124145030975341796875</LatitudeDegrees>
              <LongitudeDegrees>-0.16570075415074825286865234375</LongitudeDegrees>
            </Position>
            <AltitudeMeters>890</AltitudeMeters>
            <DistanceMeters>1905.7800918984</DistanceMeters>
          </Trackpoint>
          <Trackpoint>
            <Time>2019-07-06T14:00:55.000Z</Time>
            <Position>
              <LatitudeDegrees>42.53810335882008075714111328125</LatitudeDegrees>
              <LongitudeDegrees>-0.1657207868993282318115234375</LongitudeDegrees>
            </Position>
            <AltitudeMeters>889.4000244140625</AltitudeMeters>
            <DistanceMeters>1907.9155517094</DistanceMeters>
          </Trackpoint>
          <Trackpoint>
            <Time>2019-07-06T14:01:01.000Z</Time>
            <Position>
              <LatitudeDegrees>42.53809757530689239501953125</LatitudeDegrees>
              <LongitudeDegrees>-0.16572690568864345550537109375</LongitudeDegrees>
            </Position>
            <AltitudeMeters>889.5999755859375</AltitudeMeters>
            <DistanceMeters>1908.7330024154</DistanceMeters>
          </Trackpoint>
          <Trackpoint>
            <Time>2019-07-06T14:01:09.000Z</Time>
            <Position>
              <LatitudeDegrees>42.5381041131913661956787109375</LatitudeDegrees>
              <LongitudeDegrees>-0.1657080464065074920654296875</LongitudeDegrees>
            </Position>
            <AltitudeMeters>889.79998779296875</AltitudeMeters>
            <DistanceMeters>1910.4434832741</DistanceMeters>
          </Trackpoint>
          <Trackpoint>
            <Time>2019-07-06T14:01:15.000Z</Time>
            <Position>
              <LatitudeDegrees>42.53807184286415576934814453125</LatitudeDegrees>
              <LongitudeDegrees>-0.16573947854340076446533203125</LongitudeDegrees>
            </Position>
            <AltitudeMeters>890</AltitudeMeters>
            <DistanceMeters>1914.8640132678</DistanceMeters>
          </Trackpoint>
          <Trackpoint>
            <Time>2019-07-06T14:01:20.000Z</Time>
            <Position>
              <LatitudeDegrees>42.538083158433437347412109375</LatitudeDegrees>
              <LongitudeDegrees>-0.16575590707361698150634765625</LongitudeDegrees>
            </Position>
            <AltitudeMeters>889.79998779296875</AltitudeMeters>
            <DistanceMeters>1916.7090983117</DistanceMeters>
          </Trackpoint>
          <Trackpoint>
            <Time>2019-07-06T14:01:28.000Z</Time>
            <Position>
              <LatitudeDegrees>42.5380890257656574249267578125</LatitudeDegrees>
              <LongitudeDegrees>-0.16574601642787456512451171875</LongitudeDegrees>
            </Position>
            <AltitudeMeters>890</AltitudeMeters>
            <DistanceMeters>1917.7500638122</DistanceMeters>
          </Trackpoint>
          <Trackpoint>
            <Time>2019-07-06T14:01:34.000Z</Time>
            <Position>
              <LatitudeDegrees>42.53808810375630855560302734375</LatitudeDegrees>
              <LongitudeDegrees>-0.1657392270863056182861328125</LongitudeDegrees>
            </Position>
            <AltitudeMeters>890</AltitudeMeters>
            <DistanceMeters>1918.312249436</DistanceMeters>
          </Trackpoint>
          <Trackpoint>
            <Time>2019-07-06T14:01:48.000Z</Time>
            <Position>
              <LatitudeDegrees>42.538070417940616607666015625</LatitudeDegrees>
              <LongitudeDegrees>-0.16579379327595233917236328125</LongitudeDegrees>
            </Position>
            <AltitudeMeters>891.20001220703125</AltitudeMeters>
            <DistanceMeters>1923.2022026488</DistanceMeters>
          </Trackpoint>
          <Trackpoint>
            <Time>2019-07-06T14:01:49.000Z</Time>
            <Position>
              <LatitudeDegrees>42.53806647844612598419189453125</LatitudeDegrees>
              <LongitudeDegrees>-0.1657982356846332550048828125</LongitudeDegrees>
            </Position>
            <AltitudeMeters>891.20001220703125</AltitudeMeters>
            <DistanceMeters>1923.772362935</DistanceMeters>
          </Trackpoint>
          <Trackpoint>
            <Time>2019-07-06T14:01:51.000Z</Time>
            <Position>
              <LatitudeDegrees>42.53805910237133502960205078125</LatitudeDegrees>
              <LongitudeDegrees>-0.1658103056252002716064453125</LongitudeDegrees>
            </Position>
            <AltitudeMeters>891.4000244140625</AltitudeMeters>
            <DistanceMeters>1925.0613680031</DistanceMeters>
          </Trackpoint>
          <Trackpoint>
            <Time>2019-07-06T14:02:06.000Z</Time>
            <Position>
              <LatitudeDegrees>42.53808340989053249359130859375</LatitudeDegrees>
              <LongitudeDegrees>-0.165848694741725921630859375</LongitudeDegrees>
            </Position>
            <AltitudeMeters>891.79998779296875</AltitudeMeters>
            <DistanceMeters>1929.2143724587</DistanceMeters>
          </Trackpoint>
          <Trackpoint>
            <Time>2019-07-06T14:02:11.000Z</Time>
            <Position>
              <LatitudeDegrees>42.538044266402721405029296875</LatitudeDegrees>
              <LongitudeDegrees>-0.1658530533313751220703125</LongitudeDegrees>
            </Position>
            <AltitudeMeters>892.20001220703125</AltitudeMeters>
            <DistanceMeters>1933.5856013197</DistanceMeters>
          </Trackpoint>
          <Trackpoint>
            <Time>2019-07-06T14:02:12.000Z</Time>
            <Position>
              <LatitudeDegrees>42.53802859224379062652587890625</LatitudeDegrees>
              <LongitudeDegrees>-0.16585498116910457611083984375</LongitudeDegrees>
            </Position>
            <AltitudeMeters>892.5999755859375</AltitudeMeters>
            <DistanceMeters>1935.3378073552</DistanceMeters>
          </Trackpoint>
          <Trackpoint>
            <Time>2019-07-06T14:02:13.000Z</Time>
            <Position>
              <LatitudeDegrees>42.53802808932960033416748046875</LatitudeDegrees>
              <LongitudeDegrees>-0.16585816629230976104736328125</LongitudeDegrees>
            </Position>
            <AltitudeMeters>892.5999755859375</AltitudeMeters>
            <DistanceMeters>1935.6065834917</DistanceMeters>
          </Trackpoint>
          <Trackpoint>
            <Time>2019-07-06T14:02:15.000Z</Time>
            <Position>
              <LatitudeDegrees>42.53802188672125339508056640625</LatitudeDegrees>
              <LongitudeDegrees>-0.16586939804255962371826171875</LongitudeDegrees>
            </Position>
            <AltitudeMeters>892.20001220703125</AltitudeMeters>
            <DistanceMeters>1936.7626333668</DistanceMeters>
          </Trackpoint>
          <Trackpoint>
            <Time>2019-07-06T14:02:19.000Z</Time>
            <Position>
              <LatitudeDegrees>42.53801568411290645599365234375</LatitudeDegrees>
              <LongitudeDegrees>-0.1658733375370502471923828125</LongitudeDegrees>
            </Position>
            <AltitudeMeters>892.4000244140625</AltitudeMeters>
            <DistanceMeters>1937.5228470818</DistanceMeters>
          </Trackpoint>
          <Trackpoint>
            <Time>2019-07-06T14:02:20.000Z</Time>
            <Position>
              <LatitudeDegrees>42.5380052067339420318603515625</LatitudeDegrees>
              <LongitudeDegrees>-0.16587777994573116302490234375</LongitudeDegrees>
            </Position>
            <AltitudeMeters>892.20001220703125</AltitudeMeters>
            <DistanceMeters>1938.7434873291</DistanceMeters>
          </Trackpoint>
          <Trackpoint>
            <Time>2019-07-06T14:02:21.000Z</Time>
            <Position>
              <LatitudeDegrees>42.53799959085881710052490234375</LatitudeDegrees>
              <LongitudeDegrees>-0.1658803783357143402099609375</LongitudeDegrees>
            </Position>
            <AltitudeMeters>892.20001220703125</AltitudeMeters>
            <DistanceMeters>1939.4018517185</DistanceMeters>
          </Trackpoint>
          <Trackpoint>
            <Time>2019-07-06T14:02:23.000Z</Time>
            <Position>
              <LatitudeDegrees>42.53798249177634716033935546875</LatitudeDegrees>
              <LongitudeDegrees>-0.1658870838582515716552734375</LongitudeDegrees>
            </Position>
            <AltitudeMeters>892.20001220703125</AltitudeMeters>
            <DistanceMeters>1941.3860677676</DistanceMeters>
          </Trackpoint>
          <Trackpoint>
            <Time>2019-07-06T14:02:27.000Z</Time>
            <Position>
              <LatitudeDegrees>42.5379783846437931060791015625</LatitudeDegrees>
              <LongitudeDegrees>-0.165897645056247711181640625</LongitudeDegrees>
            </Position>
            <AltitudeMeters>892</AltitudeMeters>
            <DistanceMeters>1942.3644276723</DistanceMeters>
          </Trackpoint>
          <Trackpoint>
            <Time>2019-07-06T14:02:34.000Z</Time>
            <Position>
              <LatitudeDegrees>42.537979222834110260009765625</LatitudeDegrees>
              <LongitudeDegrees>-0.16593226231634616851806640625</LongitudeDegrees>
            </Position>
            <AltitudeMeters>892</AltitudeMeters>
            <DistanceMeters>1945.2057105412</DistanceMeters>
          </Trackpoint>
          <Trackpoint>
            <Time>2019-07-06T14:02:36.000Z</Time>
            <Position>
              <LatitudeDegrees>42.53798416815698146820068359375</LatitudeDegrees>
              <LongitudeDegrees>-0.16594416461884975433349609375</LongitudeDegrees>
            </Position>
            <AltitudeMeters>892</AltitudeMeters>
            <DistanceMeters>1946.3220216758</DistanceMeters>
          </Trackpoint>
          <Trackpoint>
            <Time>2019-07-06T14:02:43.000Z</Time>
            <Position>
              <LatitudeDegrees>42.5379921309649944305419921875</LatitudeDegrees>
              <LongitudeDegrees>-0.1659246347844600677490234375</LongitudeDegrees>
            </Position>
            <AltitudeMeters>892.4000244140625</AltitudeMeters>
            <DistanceMeters>1948.1523654579</DistanceMeters>
          </Trackpoint>
          <Trackpoint>
            <Time>2019-07-06T14:02:50.000Z</Time>
            <Position>
              <LatitudeDegrees>42.53807921893894672393798828125</LatitudeDegrees>
              <LongitudeDegrees>-0.16586721874773502349853515625</LongitudeDegrees>
            </Position>
            <AltitudeMeters>892.5999755859375</AltitudeMeters>
            <DistanceMeters>1958.9289981948</DistanceMeters>
          </Trackpoint>
          <Trackpoint>
            <Time>2019-07-06T14:02:53.000Z</Time>
            <Position>
              <LatitudeDegrees>42.5380933843553066253662109375</LatitudeDegrees>
              <LongitudeDegrees>-0.1658559031784534454345703125</LongitudeDegrees>
            </Position>
            <AltitudeMeters>892.4000244140625</AltitudeMeters>
            <DistanceMeters>1960.7618070875</DistanceMeters>
          </Trackpoint>
          <Trackpoint>
            <Time>2019-07-06T14:02:58.000Z</Time>
            <Position>
              <LatitudeDegrees>42.5381009280681610107421875</LatitudeDegrees>
              <LongitudeDegrees>-0.1658347807824611663818359375</LongitudeDegrees>
            </Position>
            <AltitudeMeters>891.20001220703125</AltitudeMeters>
            <DistanceMeters>1962.6859514017</DistanceMeters>
          </Trackpoint>
          <Trackpoint>
            <Time>2019-07-06T14:03:18.000Z</Time>
            <Position>
              <LatitudeDegrees>42.53807821311056613922119140625</LatitudeDegrees>
              <LongitudeDegrees>-0.16580737195909023284912109375</LongitudeDegrees>
            </Position>
            <AltitudeMeters>890.4000244140625</AltitudeMeters>
            <DistanceMeters>1966.0697564982</DistanceMeters>
          </Trackpoint>
          <Trackpoint>
            <Time>2019-07-06T14:03:25.000Z</Time>
            <Position>
              <LatitudeDegrees>42.53805222921073436737060546875</LatitudeDegrees>
              <LongitudeDegrees>-0.16575288958847522735595703125</LongitudeDegrees>
            </Position>
            <AltitudeMeters>890.20001220703125</AltitudeMeters>
            <DistanceMeters>1971.3912525029</DistanceMeters>
          </Trackpoint>
          <Trackpoint>
            <Time>2019-07-06T14:03:35.000Z</Time>
            <Position>
              <LatitudeDegrees>42.53801870159804821014404296875</LatitudeDegrees>
              <LongitudeDegrees>-0.16578993760049343109130859375</LongitudeDegrees>
            </Position>
            <AltitudeMeters>891.20001220703125</AltitudeMeters>
            <DistanceMeters>1976.203020993</DistanceMeters>
          </Trackpoint>
          <Trackpoint>
            <Time>2019-07-06T14:03:46.000Z</Time>
            <Position>
              <LatitudeDegrees>42.537930272519588470458984375</LatitudeDegrees>
              <LongitudeDegrees>-0.16582162119448184967041015625</LongitudeDegrees>
            </Position>
            <AltitudeMeters>890.20001220703125</AltitudeMeters>
            <DistanceMeters>1986.3828617222</DistanceMeters>
          </Trackpoint>
          <Trackpoint>
            <Time>2019-07-06T14:03:50.000Z</Time>
            <Position>
              <LatitudeDegrees>42.53793069161474704742431640625</LatitudeDegrees>
              <LongitudeDegrees>-0.16583821736276149749755859375</LongitudeDegrees>
            </Position>
            <AltitudeMeters>889</AltitudeMeters>
            <DistanceMeters>1987.7467516545</DistanceMeters>
          </Trackpoint>
          <Trackpoint>
            <Time>2019-07-06T14:03:52.000Z</Time>
            <Position>
              <LatitudeDegrees>42.53792725503444671630859375</LatitudeDegrees>
              <LongitudeDegrees>-0.1658475212752819061279296875</LongitudeDegrees>
            </Position>
            <AltitudeMeters>891</AltitudeMeters>
            <DistanceMeters>1988.5966964265</DistanceMeters>
          </Trackpoint>
          <Trackpoint>
            <Time>2019-07-06T14:04:13.000Z</Time>
            <Position>
              <LatitudeDegrees>42.5380638800561428070068359375</LatitudeDegrees>
              <LongitudeDegrees>-0.165758170187473297119140625</LongitudeDegrees>
            </Position>
            <AltitudeMeters>890.4000244140625</AltitudeMeters>
            <DistanceMeters>2005.4767151502</DistanceMeters>
          </Trackpoint>
          <Trackpoint>
            <Time>2019-07-06T14:04:37.000Z</Time>
            <Position>
              <LatitudeDegrees>42.53791225142776966094970703125</LatitudeDegrees>
              <LongitudeDegrees>-0.16585866920650005340576171875</LongitudeDegrees>
            </Position>
            <AltitudeMeters>891</AltitudeMeters>
            <DistanceMeters>2024.258379246</DistanceMeters>
          </Trackpoint>
          <Trackpoint>
            <Time>2019-07-06T14:04:39.000Z</Time>
            <Position>
              <LatitudeDegrees>42.53792993724346160888671875</LatitudeDegrees>
              <LongitudeDegrees>-0.1658498682081699371337890625</LongitudeDegrees>
            </Position>
            <AltitudeMeters>890.5999755859375</AltitudeMeters>
            <DistanceMeters>2026.3532819053</DistanceMeters>
          </Trackpoint>
          <Trackpoint>
            <Time>2019-07-06T14:04:42.000Z</Time>
            <Position>
              <LatitudeDegrees>42.53796153701841831207275390625</LatitudeDegrees>
              <LongitudeDegrees>-0.16586084850132465362548828125</LongitudeDegrees>
            </Position>
            <AltitudeMeters>890.20001220703125</AltitudeMeters>
            <DistanceMeters>2029.9830038687</DistanceMeters>
          </Trackpoint>
          <Trackpoint>
            <Time>2019-07-06T15:29:12.000Z</Time>
            <Position>
              <LatitudeDegrees>42.537976205348968505859375</LatitudeDegrees>
              <LongitudeDegrees>-0.165852047502994537353515625</LongitudeDegrees>
            </Position>
            <AltitudeMeters>886.4000244140625</AltitudeMeters>
            <DistanceMeters>2031.7683937378</DistanceMeters>
          </Trackpoint>
          <Trackpoint>
            <Time>2019-07-06T15:29:13.000Z</Time>
            <Position>
              <LatitudeDegrees>42.53797394223511219024658203125</LatitudeDegrees>
              <LongitudeDegrees>-0.16585347242653369903564453125</LongitudeDegrees>
            </Position>
            <AltitudeMeters>886.4000244140625</AltitudeMeters>
            <DistanceMeters>2032.0371698743</DistanceMeters>
          </Trackpoint>
          <Trackpoint>
            <Time>2019-07-06T15:29:16.000Z</Time>
            <Position>
              <LatitudeDegrees>42.537973858416080474853515625</LatitudeDegrees>
              <LongitudeDegrees>-0.16585296951234340667724609375</LongitudeDegrees>
            </Position>
            <AltitudeMeters>885.5999755859375</AltitudeMeters>
            <DistanceMeters>2032.0371698743</DistanceMeters>
          </Trackpoint>
          <Trackpoint>
            <Time>2019-07-06T15:29:22.000Z</Time>
            <Position>
              <LatitudeDegrees>42.53797427751123905181884765625</LatitudeDegrees>
              <LongitudeDegrees>-0.1658287458121776580810546875</LongitudeDegrees>
            </Position>
            <AltitudeMeters>885.5999755859375</AltitudeMeters>
            <DistanceMeters>2034.0236600973</DistanceMeters>
          </Trackpoint>
          <Trackpoint>
            <Time>2019-07-06T15:29:23.000Z</Time>
            <Position>
              <LatitudeDegrees>42.5379780493676662445068359375</LatitudeDegrees>
              <LongitudeDegrees>-0.16583117656409740447998046875</LongitudeDegrees>
            </Position>
            <AltitudeMeters>885.5999755859375</AltitudeMeters>
            <DistanceMeters>2034.4891940216</DistanceMeters>
          </Trackpoint>
          <Trackpoint>
            <Time>2019-07-06T15:29:25.000Z</Time>
            <Position>
              <LatitudeDegrees>42.53797997720539569854736328125</LatitudeDegrees>
              <LongitudeDegrees>-0.16583017073571681976318359375</LongitudeDegrees>
            </Position>
            <AltitudeMeters>885.4000244140625</AltitudeMeters>
            <DistanceMeters>2034.7219609837</DistanceMeters>
          </Trackpoint>
          <Trackpoint>
            <Time>2019-07-06T15:29:27.000Z</Time>
            <Position>
              <LatitudeDegrees>42.53797176294028759002685546875</LatitudeDegrees>
              <LongitudeDegrees>-0.1658356189727783203125</LongitudeDegrees>
            </Position>
            <AltitudeMeters>885.4000244140625</AltitudeMeters>
            <DistanceMeters>2035.7365686491</DistanceMeters>
          </Trackpoint>
          <Trackpoint>
            <Time>2019-07-06T15:29:28.000Z</Time>
            <Position>
              <LatitudeDegrees>42.537970840930938720703125</LatitudeDegrees>
              <LongitudeDegrees>-0.165835283696651458740234375</LongitudeDegrees>
            </Position>
            <AltitudeMeters>885.4000244140625</AltitudeMeters>
            <DistanceMeters>2035.8315953634</DistanceMeters>
          </Trackpoint>
          <Trackpoint>
            <Time>2019-07-06T15:29:30.000Z</Time>
            <Position>
              <LatitudeDegrees>42.5379694998264312744140625</LatitudeDegrees>
              <LongitudeDegrees>-0.1658408157527446746826171875</LongitudeDegrees>
            </Position>
            <AltitudeMeters>885.4000244140625</AltitudeMeters>
            <DistanceMeters>2036.3067289353</DistanceMeters>
          </Trackpoint>
          <Trackpoint>
            <Time>2019-07-06T15:29:31.000Z</Time>
            <Position>
              <LatitudeDegrees>42.53797159530222415924072265625</LatitudeDegrees>
              <LongitudeDegrees>-0.16583804972469806671142578125</LongitudeDegrees>
            </Position>
            <AltitudeMeters>885.4000244140625</AltitudeMeters>
            <DistanceMeters>2036.6218968919</DistanceMeters>
          </Trackpoint>
          <Trackpoint>
            <Time>2019-07-06T15:29:33.000Z</Time>
            <Position>
              <LatitudeDegrees>42.5379864312708377838134765625</LatitudeDegrees>
              <LongitudeDegrees>-0.1658394746482372283935546875</LongitudeDegrees>
            </Position>
            <AltitudeMeters>885.4000244140625</AltitudeMeters>
            <DistanceMeters>2038.2787442714</DistanceMeters>
          </Trackpoint>
          <Trackpoint>
            <Time>2019-07-06T15:29:40.000Z</Time>
            <Position>
              <LatitudeDegrees>42.537992298603057861328125</LatitudeDegrees>
              <LongitudeDegrees>-0.16583939082920551300048828125</LongitudeDegrees>
            </Position>
            <AltitudeMeters>885.20001220703125</AltitudeMeters>
            <DistanceMeters>2038.9371086609</DistanceMeters>
          </Trackpoint>
          <Trackpoint>
            <Time>2019-07-06T15:30:12.000Z</Time>
            <Position>
              <LatitudeDegrees>42.537959776818752288818359375</LatitudeDegrees>
              <LongitudeDegrees>-0.165888927876949310302734375</LongitudeDegrees>
            </Position>
            <AltitudeMeters>886.4000244140625</AltitudeMeters>
            <DistanceMeters>2044.3777511398</DistanceMeters>
          </Trackpoint>
          <Trackpoint>
            <Time>2019-07-06T15:30:18.000Z</Time>
            <Position>
              <LatitudeDegrees>42.53795541822910308837890625</LatitudeDegrees>
              <LongitudeDegrees>-0.16589085571467876434326171875</LongitudeDegrees>
            </Position>
            <AltitudeMeters>886.79998779296875</AltitudeMeters>
            <DistanceMeters>2044.89823389</DistanceMeters>
          </Trackpoint>
          <Trackpoint>
            <Time>2019-07-06T15:30:35.000Z</Time>
            <Position>
              <LatitudeDegrees>42.5379663147032260894775390625</LatitudeDegrees>
              <LongitudeDegrees>-0.16584777273237705230712890625</LongitudeDegrees>
            </Position>
            <AltitudeMeters>886.4000244140625</AltitudeMeters>
            <DistanceMeters>2048.6334002994</DistanceMeters>
          </Trackpoint>
          <Trackpoint>
            <Time>2019-07-06T15:30:40.000Z</Time>
            <Position>
              <LatitudeDegrees>42.5379807315766811370849609375</LatitudeDegrees>
              <LongitudeDegrees>-0.16582732088863849639892578125</LongitudeDegrees>
            </Position>
            <AltitudeMeters>885.4000244140625</AltitudeMeters>
            <DistanceMeters>2050.9571872332</DistanceMeters>
          </Trackpoint>
          <Trackpoint>
            <Time>2019-07-06T15:30:47.000Z</Time>
            <Position>
              <LatitudeDegrees>42.5379854254424571990966796875</LatitudeDegrees>
              <LongitudeDegrees>-0.165819190442562103271484375</LongitudeDegrees>
            </Position>
            <AltitudeMeters>885</AltitudeMeters>
            <DistanceMeters>2051.7964404504</DistanceMeters>
          </Trackpoint>
          <Trackpoint>
            <Time>2019-07-06T15:30:56.000Z</Time>
            <Position>
              <LatitudeDegrees>42.53798383288085460662841796875</LatitudeDegrees>
              <LongitudeDegrees>-0.16584861092269420623779296875</LongitudeDegrees>
            </Position>
            <AltitudeMeters>884.4000244140625</AltitudeMeters>
            <DistanceMeters>2054.2116897922</DistanceMeters>
          </Trackpoint>
          <Trackpoint>
            <Time>2019-07-06T15:30:59.000Z</Time>
            <Position>
              <LatitudeDegrees>42.53797662444412708282470703125</LatitudeDegrees>
              <LongitudeDegrees>-0.16586168669164180755615234375</LongitudeDegrees>
            </Position>
            <AltitudeMeters>886.4000244140625</AltitudeMeters>
            <DistanceMeters>2055.5488341882</DistanceMeters>
          </Trackpoint>
          <Trackpoint>
            <Time>2019-07-06T15:31:03.000Z</Time>
            <Position>
              <LatitudeDegrees>42.53796304576098918914794921875</LatitudeDegrees>
              <LongitudeDegrees>-0.165858753025531768798828125</LongitudeDegrees>
            </Position>
            <AltitudeMeters>885.20001220703125</AltitudeMeters>
            <DistanceMeters>2057.0810939167</DistanceMeters>
          </Trackpoint>
          <Trackpoint>
            <Time>2019-07-06T15:31:07.000Z</Time>
            <Position>
              <LatitudeDegrees>42.537949047982692718505859375</LatitudeDegrees>
              <LongitudeDegrees>-0.1658602617681026458740234375</LongitudeDegrees>
            </Position>
            <AltitudeMeters>885.5999755859375</AltitudeMeters>
            <DistanceMeters>2058.6454310658</DistanceMeters>
          </Trackpoint>
          <Trackpoint>
            <Time>2019-07-06T15:31:11.000Z</Time>
            <Position>
              <LatitudeDegrees>42.5379319489002227783203125</LatitudeDegrees>
              <LongitudeDegrees>-0.16587124206125736236572265625</LongitudeDegrees>
            </Position>
            <AltitudeMeters>885.20001220703125</AltitudeMeters>
            <DistanceMeters>2060.7532255555</DistanceMeters>
          </Trackpoint>
          <Trackpoint>
            <Time>2019-07-06T15:31:15.000Z</Time>
            <Position>
              <LatitudeDegrees>42.53792080096900463104248046875</LatitudeDegrees>
              <LongitudeDegrees>-0.165882222354412078857421875</LongitudeDegrees>
            </Position>
            <AltitudeMeters>885.20001220703125</AltitudeMeters>
            <DistanceMeters>2062.2913673006</DistanceMeters>
          </Trackpoint>
          <Trackpoint>
            <Time>2019-07-06T15:31:18.000Z</Time>
            <Position>
              <LatitudeDegrees>42.53791845403611660003662109375</LatitudeDegrees>
              <LongitudeDegrees>-0.16588817350566387176513671875</LongitudeDegrees>
            </Position>
            <AltitudeMeters>885.4000244140625</AltitudeMeters>
            <DistanceMeters>2062.8454635009</DistanceMeters>
          </Trackpoint>
          <Trackpoint>
            <Time>2019-07-06T15:31:20.000Z</Time>
            <Position>
              <LatitudeDegrees>42.53792180679738521575927734375</LatitudeDegrees>
              <LongitudeDegrees>-0.165878199040889739990234375</LongitudeDegrees>
            </Position>
            <AltitudeMeters>885.4000244140625</AltitudeMeters>
            <DistanceMeters>2063.7419437313</DistanceMeters>
          </Trackpoint>
          <Trackpoint>
            <Time>2019-07-06T15:31:22.000Z</Time>
            <Position>
              <LatitudeDegrees>42.53791711293160915374755859375</LatitudeDegrees>
              <LongitudeDegrees>-0.1658736728131771087646484375</LongitudeDegrees>
            </Position>
            <AltitudeMeters>885.5999755859375</AltitudeMeters>
            <DistanceMeters>2064.3864462653</DistanceMeters>
          </Trackpoint>
          <Trackpoint>
            <Time>2019-07-06T15:31:25.000Z</Time>
            <Position>
              <LatitudeDegrees>42.5379166938364505767822265625</LatitudeDegrees>
              <LongitudeDegrees>-0.1658557355403900146484375</LongitudeDegrees>
            </Position>
            <AltitudeMeters>885.4000244140625</AltitudeMeters>
            <DistanceMeters>2065.8585937941</DistanceMeters>
          </Trackpoint>
          <Trackpoint>
            <Time>2019-07-06T15:31:26.000Z</Time>
            <Position>
              <LatitudeDegrees>42.53792054951190948486328125</LatitudeDegrees>
              <LongitudeDegrees>-0.16584592871367931365966796875</LongitudeDegrees>
            </Position>
            <AltitudeMeters>885.4000244140625</AltitudeMeters>
            <DistanceMeters>2066.7749982405</DistanceMeters>
          </Trackpoint>
          <Trackpoint>
            <Time>2019-07-06T15:31:36.000Z</Time>
            <Position>
              <LatitudeDegrees>42.53792054951190948486328125</LatitudeDegrees>
              <LongitudeDegrees>-0.16583318822085857391357421875</LongitudeDegrees>
            </Position>
            <AltitudeMeters>885.4000244140625</AltitudeMeters>
            <DistanceMeters>2067.8202920986</DistanceMeters>
          </Trackpoint>
          <Trackpoint>
            <Time>2019-07-06T15:31:42.000Z</Time>
            <Position>
              <LatitudeDegrees>42.537929601967334747314453125</LatitudeDegrees>
              <LongitudeDegrees>-0.16584433615207672119140625</LongitudeDegrees>
            </Position>
            <AltitudeMeters>885.20001220703125</AltitudeMeters>
            <DistanceMeters>2069.1775450575</DistanceMeters>
          </Trackpoint>
          <Trackpoint>
            <Time>2019-07-06T15:31:46.000Z</Time>
            <Position>
              <LatitudeDegrees>42.537938654422760009765625</LatitudeDegrees>
              <LongitudeDegrees>-0.165846683084964752197265625</LongitudeDegrees>
            </Position>
            <AltitudeMeters>885.20001220703125</AltitudeMeters>
            <DistanceMeters>2070.2010140934</DistanceMeters>
          </Trackpoint>
          <Trackpoint>
            <Time>2019-07-06T15:31:51.000Z</Time>
            <Position>
              <LatitudeDegrees>42.53797260113060474395751953125</LatitudeDegrees>
              <LongitudeDegrees>-0.1658421568572521209716796875</LongitudeDegrees>
            </Position>
            <AltitudeMeters>886.4000244140625</AltitudeMeters>
            <DistanceMeters>2073.9973283592</DistanceMeters>
          </Trackpoint>
          <Trackpoint>
            <Time>2019-07-06T15:32:00.000Z</Time>
            <Position>
              <LatitudeDegrees>42.53796153701841831207275390625</LatitudeDegrees>
              <LongitudeDegrees>-0.165892280638217926025390625</LongitudeDegrees>
            </Position>
            <AltitudeMeters>886.79998779296875</AltitudeMeters>
            <DistanceMeters>2078.2872346277</DistanceMeters>
          </Trackpoint>
          <Trackpoint>
            <Time>2019-07-06T15:32:02.000Z</Time>
            <Position>
              <LatitudeDegrees>42.53795734606683254241943359375</LatitudeDegrees>
              <LongitudeDegrees>-0.1659129001200199127197265625</LongitudeDegrees>
            </Position>
            <AltitudeMeters>886.79998779296875</AltitudeMeters>
            <DistanceMeters>2080.0394406633</DistanceMeters>
          </Trackpoint>
          <Trackpoint>
            <Time>2019-07-06T15:32:04.000Z</Time>
            <Position>
              <LatitudeDegrees>42.53796321339905261993408203125</LatitudeDegrees>
              <LongitudeDegrees>-0.1659209467470645904541015625</LongitudeDegrees>
            </Position>
            <AltitudeMeters>886.5999755859375</AltitudeMeters>
            <DistanceMeters>2080.9656465055</DistanceMeters>
          </Trackpoint>
          <Trackpoint>
            <Time>2019-07-06T15:32:21.000Z</Time>
            <Position>
              <LatitudeDegrees>42.53797628916800022125244140625</LatitudeDegrees>
              <LongitudeDegrees>-0.16604013741016387939453125</LongitudeDegrees>
            </Position>
            <AltitudeMeters>886.79998779296875</AltitudeMeters>
            <DistanceMeters>2090.8475110393</DistanceMeters>
          </Trackpoint>
          <Trackpoint>
            <Time>2019-07-06T15:32:23.000Z</Time>
            <Position>
              <LatitudeDegrees>42.53796321339905261993408203125</LatitudeDegrees>
              <LongitudeDegrees>-0.16605086624622344970703125</LongitudeDegrees>
            </Position>
            <AltitudeMeters>887</AltitudeMeters>
            <DistanceMeters>2092.5474005834</DistanceMeters>
          </Trackpoint>
          <Trackpoint>
            <Time>2019-07-06T15:32:26.000Z</Time>
            <Position>
              <LatitudeDegrees>42.537946365773677825927734375</LatitudeDegrees>
              <LongitudeDegrees>-0.1660483516752719879150390625</LongitudeDegrees>
            </Position>
            <AltitudeMeters>887</AltitudeMeters>
            <DistanceMeters>2094.4336270064</DistanceMeters>
          </Trackpoint>
          <Trackpoint>
            <Time>2019-07-06T15:32:27.000Z</Time>
            <Position>
              <LatitudeDegrees>42.5379451923072338104248046875</LatitudeDegrees>
              <LongitudeDegrees>-0.1660463400185108184814453125</LongitudeDegrees>
            </Position>
            <AltitudeMeters>887</AltitudeMeters>
            <DistanceMeters>2094.6236804352</DistanceMeters>
          </Trackpoint>
          <Trackpoint>
            <Time>2019-07-06T15:32:30.000Z</Time>
            <Position>
              <LatitudeDegrees>42.53796488977968692779541015625</LatitudeDegrees>
              <LongitudeDegrees>-0.16603720374405384063720703125</LongitudeDegrees>
            </Position>
            <AltitudeMeters>886.5999755859375</AltitudeMeters>
            <DistanceMeters>2096.9396824662</DistanceMeters>
          </Trackpoint>
          <Trackpoint>
            <Time>2019-07-06T15:32:31.000Z</Time>
            <Position>
              <LatitudeDegrees>42.53796556033194065093994140625</LatitudeDegrees>
              <LongitudeDegrees>-0.16603720374405384063720703125</LongitudeDegrees>
            </Position>
            <AltitudeMeters>886.5999755859375</AltitudeMeters>
            <DistanceMeters>2097.0347091806</DistanceMeters>
          </Trackpoint>
          <Trackpoint>
            <Time>2019-07-06T15:32:43.000Z</Time>
            <Position>
              <LatitudeDegrees>42.538004033267498016357421875</LatitudeDegrees>
              <LongitudeDegrees>-0.1661197654902935028076171875</LongitudeDegrees>
            </Position>
            <AltitudeMeters>886.79998779296875</AltitudeMeters>
            <DistanceMeters>2105.0463122264</DistanceMeters>
          </Trackpoint>
          <Trackpoint>
            <Time>2019-07-06T15:32:45.000Z</Time>
            <Position>
              <LatitudeDegrees>42.538006715476512908935546875</LatitudeDegrees>
              <LongitudeDegrees>-0.16613963060081005096435546875</LongitudeDegrees>
            </Position>
            <AltitudeMeters>886.5999755859375</AltitudeMeters>
            <DistanceMeters>2106.7031596059</DistanceMeters>
          </Trackpoint>
          <Trackpoint>
            <Time>2019-07-06T15:32:47.000Z</Time>
            <Position>
              <LatitudeDegrees>42.53799221478402614593505859375</LatitudeDegrees>
              <LongitudeDegrees>-0.1661569811403751373291015625</LongitudeDegrees>
            </Position>
            <AltitudeMeters>886.5999755859375</AltitudeMeters>
            <DistanceMeters>2108.8533686979</DistanceMeters>
          </Trackpoint>
          <Trackpoint>
            <Time>2019-07-06T15:32:50.000Z</Time>
            <Position>
              <LatitudeDegrees>42.5379829108715057373046875</LatitudeDegrees>
              <LongitudeDegrees>-0.16617290675640106201171875</LongitudeDegrees>
            </Position>
            <AltitudeMeters>886.5999755859375</AltitudeMeters>
            <DistanceMeters>2110.5210807668</DistanceMeters>
          </Trackpoint>
          <Trackpoint>
            <Time>2019-07-06T15:32:55.000Z</Time>
            <Position>
              <LatitudeDegrees>42.53797209821641445159912109375</LatitudeDegrees>
              <LongitudeDegrees>-0.16619092784821987152099609375</LongitudeDegrees>
            </Position>
            <AltitudeMeters>886.4000244140625</AltitudeMeters>
            <DistanceMeters>2112.4287287445</DistanceMeters>
          </Trackpoint>
          <Trackpoint>
            <Time>2019-07-06T15:33:05.000Z</Time>
            <Position>
              <LatitudeDegrees>42.5379331223666667938232421875</LatitudeDegrees>
              <LongitudeDegrees>-0.166181623935699462890625</LongitudeDegrees>
            </Position>
            <AltitudeMeters>887.4000244140625</AltitudeMeters>
            <DistanceMeters>2116.8349362242</DistanceMeters>
          </Trackpoint>
          <Trackpoint>
            <Time>2019-07-06T15:33:07.000Z</Time>
            <Position>
              <LatitudeDegrees>42.53792147152125835418701171875</LatitudeDegrees>
              <LongitudeDegrees>-0.16618640162050724029541015625</LongitudeDegrees>
            </Position>
            <AltitudeMeters>887.5999755859375</AltitudeMeters>
            <DistanceMeters>2118.1921891832</DistanceMeters>
          </Trackpoint>
          <Trackpoint>
            <Time>2019-07-06T15:33:11.000Z</Time>
            <Position>
              <LatitudeDegrees>42.53789716400206089019775390625</LatitudeDegrees>
              <LongitudeDegrees>-0.16620718874037265777587890625</LongitudeDegrees>
            </Position>
            <AltitudeMeters>887.5999755859375</AltitudeMeters>
            <DistanceMeters>2121.3907945998</DistanceMeters>
          </Trackpoint>
          <Trackpoint>
            <Time>2019-07-06T15:33:13.000Z</Time>
            <Position>
              <LatitudeDegrees>42.5378975830972194671630859375</LatitudeDegrees>
              <LongitudeDegrees>-0.16621925868093967437744140625</LongitudeDegrees>
            </Position>
            <AltitudeMeters>887.79998779296875</AltitudeMeters>
            <DistanceMeters>2122.3874431882</DistanceMeters>
          </Trackpoint>
          <Trackpoint>
            <Time>2019-07-06T15:33:15.000Z</Time>
            <Position>
              <LatitudeDegrees>42.53790185786783695220947265625</LatitudeDegrees>
              <LongitudeDegrees>-0.16621758230030536651611328125</LongitudeDegrees>
            </Position>
            <AltitudeMeters>888</AltitudeMeters>
            <DistanceMeters>2122.8902772965</DistanceMeters>
          </Trackpoint>
          <Trackpoint>
            <Time>2019-07-06T15:33:20.000Z</Time>
            <Position>
              <LatitudeDegrees>42.53792784176766872406005859375</LatitudeDegrees>
              <LongitudeDegrees>-0.166204087436199188232421875</LongitudeDegrees>
            </Position>
            <AltitudeMeters>887.79998779296875</AltitudeMeters>
            <DistanceMeters>2125.9870403135</DistanceMeters>
          </Trackpoint>
          <Trackpoint>
            <Time>2019-07-06T15:33:32.000Z</Time>
            <Position>
              <LatitudeDegrees>42.53796053119003772735595703125</LatitudeDegrees>
              <LongitudeDegrees>-0.1662003993988037109375</LongitudeDegrees>
            </Position>
            <AltitudeMeters>886.4000244140625</AltitudeMeters>
            <DistanceMeters>2129.6378474614</DistanceMeters>
          </Trackpoint>
          <Trackpoint>
            <Time>2019-07-06T15:33:35.000Z</Time>
            <Position>
              <LatitudeDegrees>42.537960447371006011962890625</LatitudeDegrees>
              <LongitudeDegrees>-0.16620702110230922698974609375</LongitudeDegrees>
            </Position>
            <AltitudeMeters>886.79998779296875</AltitudeMeters>
            <DistanceMeters>2130.1753997344</DistanceMeters>
          </Trackpoint>
          <Trackpoint>
            <Time>2019-07-06T15:33:45.000Z</Time>
            <Position>
              <LatitudeDegrees>42.53793798387050628662109375</LatitudeDegrees>
              <LongitudeDegrees>-0.16628648154437541961669921875</LongitudeDegrees>
            </Position>
            <AltitudeMeters>887</AltitudeMeters>
            <DistanceMeters>2137.1558218199</DistanceMeters>
          </Trackpoint>
          <Trackpoint>
            <Time>2019-07-06T15:33:48.000Z</Time>
            <Position>
              <LatitudeDegrees>42.537935636937618255615234375</LatitudeDegrees>
              <LongitudeDegrees>-0.1663036644458770751953125</LongitudeDegrees>
            </Position>
            <AltitudeMeters>887.4000244140625</AltitudeMeters>
            <DistanceMeters>2138.5906937407</DistanceMeters>
          </Trackpoint>
          <Trackpoint>
            <Time>2019-07-06T15:33:52.000Z</Time>
            <Position>
              <LatitudeDegrees>42.53788844682276248931884765625</LatitudeDegrees>
              <LongitudeDegrees>-0.166302658617496490478515625</LongitudeDegrees>
            </Position>
            <AltitudeMeters>887.79998779296875</AltitudeMeters>
            <DistanceMeters>2143.8438750257</DistanceMeters>
          </Trackpoint>
          <Trackpoint>
            <Time>2019-07-06T15:33:54.000Z</Time>
            <Position>
              <LatitudeDegrees>42.53788358531892299652099609375</LatitudeDegrees>
              <LongitudeDegrees>-0.16630433499813079833984375</LongitudeDegrees>
            </Position>
            <AltitudeMeters>887.79998779296875</AltitudeMeters>
            <DistanceMeters>2144.3979712259</DistanceMeters>
          </Trackpoint>
          <Trackpoint>
            <Time>2019-07-06T15:34:00.000Z</Time>
            <Position>
              <LatitudeDegrees>42.53789112903177738189697265625</LatitudeDegrees>
              <LongitudeDegrees>-0.1663061790168285369873046875</LongitudeDegrees>
            </Position>
            <AltitudeMeters>888.4000244140625</AltitudeMeters>
            <DistanceMeters>2145.2584747229</DistanceMeters>
          </Trackpoint>
          <Trackpoint>
            <Time>2019-07-06T15:34:13.000Z</Time>
            <Position>
              <LatitudeDegrees>42.5378915481269359588623046875</LatitudeDegrees>
              <LongitudeDegrees>-0.16630844213068485260009765625</LongitudeDegrees>
            </Position>
            <AltitudeMeters>887.4000244140625</AltitudeMeters>
            <DistanceMeters>2145.4485281517</DistanceMeters>
          </Trackpoint>
          <Trackpoint>
            <Time>2019-07-06T15:34:21.000Z</Time>
            <Position>
              <LatitudeDegrees>42.53784586675465106964111328125</LatitudeDegrees>
              <LongitudeDegrees>-0.166384465992450714111328125</LongitudeDegrees>
            </Position>
            <AltitudeMeters>887.5999755859375</AltitudeMeters>
            <DistanceMeters>2153.4933126655</DistanceMeters>
          </Trackpoint>
          <Trackpoint>
            <Time>2019-07-06T15:34:23.000Z</Time>
            <Position>
              <LatitudeDegrees>42.53784812986850738525390625</LatitudeDegrees>
              <LongitudeDegrees>-0.16639527864754199981689453125</LongitudeDegrees>
            </Position>
            <AltitudeMeters>887.4000244140625</AltitudeMeters>
            <DistanceMeters>2154.4146308438</DistanceMeters>
          </Trackpoint>
          <Trackpoint>
            <Time>2019-07-06T15:34:31.000Z</Time>
            <Position>
              <LatitudeDegrees>42.53781460225582122802734375</LatitudeDegrees>
              <LongitudeDegrees>-0.1664091087877750396728515625</LongitudeDegrees>
            </Position>
            <AltitudeMeters>887.20001220703125</AltitudeMeters>
            <DistanceMeters>2158.3142011704</DistanceMeters>
          </Trackpoint>
          <Trackpoint>
            <Time>2019-07-06T15:34:38.000Z</Time>
            <Position>
              <LatitudeDegrees>42.53778400830924510955810546875</LatitudeDegrees>
              <LongitudeDegrees>-0.16645445488393306732177734375</LongitudeDegrees>
            </Position>
            <AltitudeMeters>887.20001220703125</AltitudeMeters>
            <DistanceMeters>2163.3559930333</DistanceMeters>
          </Trackpoint>
          <Trackpoint>
            <Time>2019-07-06T15:34:50.000Z</Time>
            <Position>
              <LatitudeDegrees>42.53777931444346904754638671875</LatitudeDegrees>
              <LongitudeDegrees>-0.166530311107635498046875</LongitudeDegrees>
            </Position>
            <AltitudeMeters>887.4000244140625</AltitudeMeters>
            <DistanceMeters>2169.5981705265</DistanceMeters>
          </Trackpoint>
          <Trackpoint>
            <Time>2019-07-06T15:34:55.000Z</Time>
            <Position>
              <LatitudeDegrees>42.53776741214096546173095703125</LatitudeDegrees>
              <LongitudeDegrees>-0.166521929204463958740234375</LongitudeDegrees>
            </Position>
            <AltitudeMeters>887.4000244140625</AltitudeMeters>
            <DistanceMeters>2171.0886063034</DistanceMeters>
          </Trackpoint>
          <Trackpoint>
            <Time>2019-07-06T15:35:02.000Z</Time>
            <Position>
              <LatitudeDegrees>42.5377218984067440032958984375</LatitudeDegrees>
              <LongitudeDegrees>-0.16651312820613384246826171875</LongitudeDegrees>
            </Position>
            <AltitudeMeters>887.5999755859375</AltitudeMeters>
            <DistanceMeters>2176.2059514831</DistanceMeters>
          </Trackpoint>
          <Trackpoint>
            <Time>2019-07-06T15:35:07.000Z</Time>
            <Position>
              <LatitudeDegrees>42.5376980938017368316650390625</LatitudeDegrees>
              <LongitudeDegrees>-0.16654112376272678375244140625</LongitudeDegrees>
            </Position>
            <AltitudeMeters>888.4000244140625</AltitudeMeters>
            <DistanceMeters>2179.712939381</DistanceMeters>
          </Trackpoint>
          <Trackpoint>
            <Time>2019-07-06T15:35:08.000Z</Time>
            <Position>
              <LatitudeDegrees>42.53769566304981708526611328125</LatitudeDegrees>
              <LongitudeDegrees>-0.16654196195304393768310546875</LongitudeDegrees>
            </Position>
            <AltitudeMeters>888.4000244140625</AltitudeMeters>
            <DistanceMeters>2179.9817155175</DistanceMeters>
          </Trackpoint>
          <Trackpoint>
            <Time>2019-07-06T15:35:12.000Z</Time>
            <Position>
              <LatitudeDegrees>42.53770253621041774749755859375</LatitudeDegrees>
              <LongitudeDegrees>-0.1665834523737430572509765625</LongitudeDegrees>
            </Position>
            <AltitudeMeters>888.4000244140625</AltitudeMeters>
            <DistanceMeters>2183.4680435132</DistanceMeters>
          </Trackpoint>
          <Trackpoint>
            <Time>2019-07-06T15:35:25.000Z</Time>
            <Position>
              <LatitudeDegrees>42.53770857118070125579833984375</LatitudeDegrees>
              <LongitudeDegrees>-0.16659510321915149688720703125</LongitudeDegrees>
            </Position>
            <AltitudeMeters>888</AltitudeMeters>
            <DistanceMeters>2184.635751329</DistanceMeters>
          </Trackpoint>
          <Trackpoint>
            <Time>2019-07-06T15:35:27.000Z</Time>
            <Position>
              <LatitudeDegrees>42.53770060837268829345703125</LatitudeDegrees>
              <LongitudeDegrees>-0.16660180874168872833251953125</LongitudeDegrees>
            </Position>
            <AltitudeMeters>888.4000244140625</AltitudeMeters>
            <DistanceMeters>2185.6810451871</DistanceMeters>
          </Trackpoint>
          <Trackpoint>
            <Time>2019-07-06T15:35:31.000Z</Time>
            <Position>
              <LatitudeDegrees>42.537655346095561981201171875</LatitudeDegrees>
              <LongitudeDegrees>-0.16662578098475933074951171875</LongitudeDegrees>
            </Position>
            <AltitudeMeters>888.79998779296875</AltitudeMeters>
            <DistanceMeters>2191.0883908877</DistanceMeters>
          </Trackpoint>
          <Trackpoint>
            <Time>2019-07-06T15:35:33.000Z</Time>
            <Position>
              <LatitudeDegrees>42.537634558975696563720703125</LatitudeDegrees>
              <LongitudeDegrees>-0.16663516871631145477294921875</LongitudeDegrees>
            </Position>
            <AltitudeMeters>888.79998779296875</AltitudeMeters>
            <DistanceMeters>2193.5259696659</DistanceMeters>
          </Trackpoint>
          <Trackpoint>
            <Time>2019-07-06T15:35:35.000Z</Time>
            <Position>
              <LatitudeDegrees>42.537619806826114654541015625</LatitudeDegrees>
              <LongitudeDegrees>-0.16665302217006683349609375</LongitudeDegrees>
            </Position>
            <AltitudeMeters>889</AltitudeMeters>
            <DistanceMeters>2195.7239439373</DistanceMeters>
          </Trackpoint>
          <Trackpoint>
            <Time>2019-07-06T15:35:43.000Z</Time>
            <Position>
              <LatitudeDegrees>42.53764805383980274200439453125</LatitudeDegrees>
              <LongitudeDegrees>-0.1666407845914363861083984375</LongitudeDegrees>
            </Position>
            <AltitudeMeters>888.20001220703125</AltitudeMeters>
            <DistanceMeters>2199.0226167181</DistanceMeters>
          </Trackpoint>
          <Trackpoint>
            <Time>2019-07-06T15:35:49.000Z</Time>
            <Position>
              <LatitudeDegrees>42.53764620982110500335693359375</LatitudeDegrees>
              <LongitudeDegrees>-0.16666668467223644256591796875</LongitudeDegrees>
            </Position>
            <AltitudeMeters>888.79998779296875</AltitudeMeters>
            <DistanceMeters>2201.1559611647</DistanceMeters>
          </Trackpoint>
          <Trackpoint>
            <Time>2019-07-06T15:36:00.000Z</Time>
            <Position>
              <LatitudeDegrees>42.53760681487619876861572265625</LatitudeDegrees>
              <LongitudeDegrees>-0.166724435985088348388671875</LongitudeDegrees>
            </Position>
            <AltitudeMeters>889.4000244140625</AltitudeMeters>
            <DistanceMeters>2207.6100871811</DistanceMeters>
          </Trackpoint>
          <Trackpoint>
            <Time>2019-07-06T15:36:08.000Z</Time>
            <Position>
              <LatitudeDegrees>42.5375881232321262359619140625</LatitudeDegrees>
              <LongitudeDegrees>-0.16675301827490329742431640625</LongitudeDegrees>
            </Position>
            <AltitudeMeters>889.5999755859375</AltitudeMeters>
            <DistanceMeters>2210.7445286259</DistanceMeters>
          </Trackpoint>
          <Trackpoint>
            <Time>2019-07-06T15:36:51.000Z</Time>
            <Position>
              <LatitudeDegrees>42.5375002808868885040283203125</LatitudeDegrees>
              <LongitudeDegrees>-0.16687455587089061737060546875</LongitudeDegrees>
            </Position>
            <AltitudeMeters>889.4000244140625</AltitudeMeters>
            <DistanceMeters>2224.706666366</DistanceMeters>
          </Trackpoint>
          <Trackpoint>
            <Time>2019-07-06T15:37:06.000Z</Time>
            <Position>
              <LatitudeDegrees>42.53751629032194614410400390625</LatitudeDegrees>
              <LongitudeDegrees>-0.16695686616003513336181640625</LongitudeDegrees>
            </Position>
            <AltitudeMeters>890</AltitudeMeters>
            <DistanceMeters>2231.6883819606</DistanceMeters>
          </Trackpoint>
          <Trackpoint>
            <Time>2019-07-06T15:37:12.000Z</Time>
            <Position>
              <LatitudeDegrees>42.537525258958339691162109375</LatitudeDegrees>
              <LongitudeDegrees>-0.16698922030627727508544921875</LongitudeDegrees>
            </Position>
            <AltitudeMeters>890</AltitudeMeters>
            <DistanceMeters>2234.523301366</DistanceMeters>
          </Trackpoint>
          <Trackpoint>
            <Time>2019-07-06T15:37:19.000Z</Time>
            <Position>
              <LatitudeDegrees>42.53752400167286396026611328125</LatitudeDegrees>
              <LongitudeDegrees>-0.16692266799509525299072265625</LongitudeDegrees>
            </Position>
            <AltitudeMeters>889.79998779296875</AltitudeMeters>
            <DistanceMeters>2239.9829975427</DistanceMeters>
          </Trackpoint>
          <Trackpoint>
            <Time>2019-07-06T15:37:26.000Z</Time>
            <Position>
              <LatitudeDegrees>42.53749449737370014190673828125</LatitudeDegrees>
              <LongitudeDegrees>-0.16686248593032360076904296875</LongitudeDegrees>
            </Position>
            <AltitudeMeters>889.4000244140625</AltitudeMeters>
            <DistanceMeters>2245.9120858028</DistanceMeters>
          </Trackpoint>
          <Trackpoint>
            <Time>2019-07-06T15:37:28.000Z</Time>
            <Position>
              <LatitudeDegrees>42.53747572191059589385986328125</LatitudeDegrees>
              <LongitudeDegrees>-0.1668630726635456085205078125</LongitudeDegrees>
            </Position>
            <AltitudeMeters>889.79998779296875</AltitudeMeters>
            <DistanceMeters>2248.0026735189</DistanceMeters>
          </Trackpoint>
          <Trackpoint>
            <Time>2019-07-06T15:37:33.000Z</Time>
            <Position>
              <LatitudeDegrees>42.5374556891620159149169921875</LatitudeDegrees>
              <LongitudeDegrees>-0.1668922416865825653076171875</LongitudeDegrees>
            </Position>
            <AltitudeMeters>890</AltitudeMeters>
            <DistanceMeters>2251.2724763432</DistanceMeters>
          </Trackpoint>
          <Trackpoint>
            <Time>2019-07-06T15:37:39.000Z</Time>
            <Position>
              <LatitudeDegrees>42.53746901638805866241455078125</LatitudeDegrees>
              <LongitudeDegrees>-0.16690925695002079010009765625</LongitudeDegrees>
            </Position>
            <AltitudeMeters>890.20001220703125</AltitudeMeters>
            <DistanceMeters>2253.3061368388</DistanceMeters>
          </Trackpoint>
          <Trackpoint>
            <Time>2019-07-06T15:37:43.000Z</Time>
            <Position>
              <LatitudeDegrees>42.537482343614101409912109375</LatitudeDegrees>
              <LongitudeDegrees>-0.1669299602508544921875</LongitudeDegrees>
            </Position>
            <AltitudeMeters>890.4000244140625</AltitudeMeters>
            <DistanceMeters>2255.5588913664</DistanceMeters>
          </Trackpoint>
          <Trackpoint>
            <Time>2019-07-06T15:37:44.000Z</Time>
            <Position>
              <LatitudeDegrees>42.537483684718608856201171875</LatitudeDegrees>
              <LongitudeDegrees>-0.16693373210728168487548828125</LongitudeDegrees>
            </Position>
            <AltitudeMeters>890.5999755859375</AltitudeMeters>
            <DistanceMeters>2255.9015150576</DistanceMeters>
          </Trackpoint>
          <Trackpoint>
            <Time>2019-07-06T15:37:45.000Z</Time>
            <Position>
              <LatitudeDegrees>42.53748611547052860260009765625</LatitudeDegrees>
              <LongitudeDegrees>-0.16693658195436000823974609375</LongitudeDegrees>
            </Position>
            <AltitudeMeters>889.5999755859375</AltitudeMeters>
            <DistanceMeters>2256.2570724653</DistanceMeters>
          </Trackpoint>
          <Trackpoint>
            <Time>2019-07-06T15:37:47.000Z</Time>
            <Position>
              <LatitudeDegrees>42.53749114461243152618408203125</LatitudeDegrees>
              <LongitudeDegrees>-0.16694932244718074798583984375</LongitudeDegrees>
            </Position>
            <AltitudeMeters>889.4000244140625</AltitudeMeters>
            <DistanceMeters>2257.4363229783</DistanceMeters>
          </Trackpoint>
          <Trackpoint>
            <Time>2019-07-06T15:37:49.000Z</Time>
            <Position>
              <LatitudeDegrees>42.5375049747526645660400390625</LatitudeDegrees>
              <LongitudeDegrees>-0.16696189530193805694580078125</LongitudeDegrees>
            </Position>
            <AltitudeMeters>889.79998779296875</AltitudeMeters>
            <DistanceMeters>2259.2887346628</DistanceMeters>
          </Trackpoint>
          <Trackpoint>
            <Time>2019-07-06T15:37:50.000Z</Time>
            <Position>
              <LatitudeDegrees>42.537508495151996612548828125</LatitudeDegrees>
              <LongitudeDegrees>-0.16696457751095294952392578125</LongitudeDegrees>
            </Position>
            <AltitudeMeters>889.5999755859375</AltitudeMeters>
            <DistanceMeters>2259.7344494615</DistanceMeters>
          </Trackpoint>
          <Trackpoint>
            <Time>2019-07-06T15:37:51.000Z</Time>
            <Position>
              <LatitudeDegrees>42.53751126118004322052001953125</LatitudeDegrees>
              <LongitudeDegrees>-0.166962482035160064697265625</LongitudeDegrees>
            </Position>
            <AltitudeMeters>889.5999755859375</AltitudeMeters>
            <DistanceMeters>2260.0900068692</DistanceMeters>
          </Trackpoint>
          <Trackpoint>
            <Time>2019-07-06T15:37:52.000Z</Time>
            <Position>
              <LatitudeDegrees>42.53751863725483417510986328125</LatitudeDegrees>
              <LongitudeDegrees>-0.16695871017873287200927734375</LongitudeDegrees>
            </Position>
            <AltitudeMeters>889.5999755859375</AltitudeMeters>
            <DistanceMeters>2260.9712483652</DistanceMeters>
          </Trackpoint>
          <Trackpoint>
            <Time>2019-07-06T15:37:53.000Z</Time>
            <Position>
              <LatitudeDegrees>42.537517882883548736572265625</LatitudeDegrees>
              <LongitudeDegrees>-0.1669525913894176483154296875</LongitudeDegrees>
            </Position>
            <AltitudeMeters>889.5999755859375</AltitudeMeters>
            <DistanceMeters>2261.4740824734</DistanceMeters>
          </Trackpoint>
          <Trackpoint>
            <Time>2019-07-06T15:37:54.000Z</Time>
            <Position>
              <LatitudeDegrees>42.53751964308321475982666015625</LatitudeDegrees>
              <LongitudeDegrees>-0.166942365467548370361328125</LongitudeDegrees>
            </Position>
            <AltitudeMeters>889.5999755859375</AltitudeMeters>
            <DistanceMeters>2262.3345859705</DistanceMeters>
          </Trackpoint>
          <Trackpoint>
            <Time>2019-07-06T15:37:58.000Z</Time>
            <Position>
              <LatitudeDegrees>42.537517212331295013427734375</LatitudeDegrees>
              <LongitudeDegrees>-0.16692568548023700714111328125</LongitudeDegrees>
            </Position>
            <AltitudeMeters>889.79998779296875</AltitudeMeters>
            <DistanceMeters>2263.7279511184</DistanceMeters>
          </Trackpoint>
          <Trackpoint>
            <Time>2019-07-06T15:38:04.000Z</Time>
            <Position>
              <LatitudeDegrees>42.5375180505216121673583984375</LatitudeDegrees>
              <LongitudeDegrees>-0.166952423751354217529296875</LongitudeDegrees>
            </Position>
            <AltitudeMeters>890.5999755859375</AltitudeMeters>
            <DistanceMeters>2265.9238702474</DistanceMeters>
          </Trackpoint>
          <Trackpoint>
            <Time>2019-07-06T15:38:07.000Z</Time>
            <Position>
              <LatitudeDegrees>42.53750572912395000457763671875</LatitudeDegrees>
              <LongitudeDegrees>-0.16697220504283905029296875</LongitudeDegrees>
            </Position>
            <AltitudeMeters>890</AltitudeMeters>
            <DistanceMeters>2268.0487321775</DistanceMeters>
          </Trackpoint>
          <Trackpoint>
            <Time>2019-07-06T15:38:09.000Z</Time>
            <Position>
              <LatitudeDegrees>42.53750656731426715850830078125</LatitudeDegrees>
              <LongitudeDegrees>-0.16697488725185394287109375</LongitudeDegrees>
            </Position>
            <AltitudeMeters>890</AltitudeMeters>
            <DistanceMeters>2268.2814991396</DistanceMeters>
          </Trackpoint>
          <Trackpoint>
            <Time>2019-07-06T15:38:11.000Z</Time>
            <Position>
              <LatitudeDegrees>42.537523247301578521728515625</LatitudeDegrees>
              <LongitudeDegrees>-0.166971869766712188720703125</LongitudeDegrees>
            </Position>
            <AltitudeMeters>889.5999755859375</AltitudeMeters>
            <DistanceMeters>2270.153308334</DistanceMeters>
          </Trackpoint>
          <Trackpoint>
            <Time>2019-07-06T15:38:14.000Z</Time>
            <Position>
              <LatitudeDegrees>42.53755736164748668670654296875</LatitudeDegrees>
              <LongitudeDegrees>-0.16695954836905002593994140625</LongitudeDegrees>
            </Position>
            <AltitudeMeters>889.5999755859375</AltitudeMeters>
            <DistanceMeters>2274.0828669249</DistanceMeters>
          </Trackpoint>
          <Trackpoint>
            <Time>2019-07-06T15:38:15.000Z</Time>
            <Position>
              <LatitudeDegrees>42.53756356425583362579345703125</LatitudeDegrees>
              <LongitudeDegrees>-0.166950412094593048095703125</LongitudeDegrees>
            </Position>
            <AltitudeMeters>889.4000244140625</AltitudeMeters>
            <DistanceMeters>2275.0974745903</DistanceMeters>
          </Trackpoint>
          <Trackpoint>
            <Time>2019-07-06T15:38:26.000Z</Time>
            <Position>
              <LatitudeDegrees>42.537493743002414703369140625</LatitudeDegrees>
              <LongitudeDegrees>-0.16699525527656078338623046875</LongitudeDegrees>
            </Position>
            <AltitudeMeters>890.20001220703125</AltitudeMeters>
            <DistanceMeters>2283.695160661</DistanceMeters>
          </Trackpoint>
          <Trackpoint>
            <Time>2019-07-06T15:38:28.000Z</Time>
            <Position>
              <LatitudeDegrees>42.53746180795133113861083984375</LatitudeDegrees>
              <LongitudeDegrees>-0.16701151616871356964111328125</LongitudeDegrees>
            </Position>
            <AltitudeMeters>890.20001220703125</AltitudeMeters>
            <DistanceMeters>2287.4914749267</DistanceMeters>
          </Trackpoint>
          <Trackpoint>
            <Time>2019-07-06T15:38:30.000Z</Time>
            <Position>
              <LatitudeDegrees>42.537439763545989990234375</LatitudeDegrees>
              <LongitudeDegrees>-0.1670273579657077789306640625</LongitudeDegrees>
            </Position>
            <AltitudeMeters>890.5999755859375</AltitudeMeters>
            <DistanceMeters>2290.2684670555</DistanceMeters>
          </Trackpoint>
          <Trackpoint>
            <Time>2019-07-06T15:38:31.000Z</Time>
            <Position>
              <LatitudeDegrees>42.53744051791727542877197265625</LatitudeDegrees>
              <LongitudeDegrees>-0.16702987253665924072265625</LongitudeDegrees>
            </Position>
            <AltitudeMeters>890.79998779296875</AltitudeMeters>
            <DistanceMeters>2290.5012340176</DistanceMeters>
          </Trackpoint>
          <Trackpoint>
            <Time>2019-07-06T15:38:47.000Z</Time>
            <Position>
              <LatitudeDegrees>42.53744286485016345977783203125</LatitudeDegrees>
              <LongitudeDegrees>-0.1670082472264766693115234375</LongitudeDegrees>
            </Position>
            <AltitudeMeters>890.20001220703125</AltitudeMeters>
            <DistanceMeters>2292.2967109154</DistanceMeters>
          </Trackpoint>
          <Trackpoint>
            <Time>2019-07-06T15:39:14.000Z</Time>
            <Position>
              <LatitudeDegrees>42.53742492757737636566162109375</LatitudeDegrees>
              <LongitudeDegrees>-0.1669837720692157745361328125</LongitudeDegrees>
            </Position>
            <AltitudeMeters>890.5999755859375</AltitudeMeters>
            <DistanceMeters>2295.1284432266</DistanceMeters>
          </Trackpoint>
          <Trackpoint>
            <Time>2019-07-06T15:39:49.000Z</Time>
            <Position>
              <LatitudeDegrees>42.537491731345653533935546875</LatitudeDegrees>
              <LongitudeDegrees>-0.1671353168785572052001953125</LongitudeDegrees>
            </Position>
            <AltitudeMeters>890.20001220703125</AltitudeMeters>
            <DistanceMeters>2309.6105893206</DistanceMeters>
          </Trackpoint>
          <Trackpoint>
            <Time>2019-07-06T15:40:07.000Z</Time>
            <Position>
              <LatitudeDegrees>42.53757915459573268890380859375</LatitudeDegrees>
              <LongitudeDegrees>-0.1670846901834011077880859375</LongitudeDegrees>
            </Position>
            <AltitudeMeters>890.4000244140625</AltitudeMeters>
            <DistanceMeters>2320.1897559913</DistanceMeters>
          </Trackpoint>
          <Trackpoint>
            <Time>2019-07-06T15:40:29.000Z</Time>
            <Position>
              <LatitudeDegrees>42.53761184401810169219970703125</LatitudeDegrees>
              <LongitudeDegrees>-0.16717378981411457061767578125</LongitudeDegrees>
            </Position>
            <AltitudeMeters>890</AltitudeMeters>
            <DistanceMeters>2328.3532089468</DistanceMeters>
          </Trackpoint>
          <Trackpoint>
            <Time>2019-07-06T15:40:47.000Z</Time>
            <Position>
              <LatitudeDegrees>42.53750388510525226593017578125</LatitudeDegrees>
              <LongitudeDegrees>-0.16710891388356685638427734375</LongitudeDegrees>
            </Position>
            <AltitudeMeters>891.20001220703125</AltitudeMeters>
            <DistanceMeters>2341.4947542132</DistanceMeters>
          </Trackpoint>
          <Trackpoint>
            <Time>2019-07-06T15:41:00.000Z</Time>
            <Position>
              <LatitudeDegrees>42.53747689537703990936279296875</LatitudeDegrees>
              <LongitudeDegrees>-0.16715551726520061492919921875</LongitudeDegrees>
            </Position>
            <AltitudeMeters>891.20001220703125</AltitudeMeters>
            <DistanceMeters>2346.3569286373</DistanceMeters>
          </Trackpoint>
          <Trackpoint>
            <Time>2019-07-06T15:41:05.000Z</Time>
            <Position>
              <LatitudeDegrees>42.53752048127353191375732421875</LatitudeDegrees>
              <LongitudeDegrees>-0.167140848934650421142578125</LongitudeDegrees>
            </Position>
            <AltitudeMeters>889.5999755859375</AltitudeMeters>
            <DistanceMeters>2351.3555505995</DistanceMeters>
          </Trackpoint>
          <Trackpoint>
            <Time>2019-07-06T15:41:10.000Z</Time>
            <Position>
              <LatitudeDegrees>42.53753003664314746856689453125</LatitudeDegrees>
              <LongitudeDegrees>-0.16713724471628665924072265625</LongitudeDegrees>
            </Position>
            <AltitudeMeters>889.5999755859375</AltitudeMeters>
            <DistanceMeters>2352.4637429999</DistanceMeters>
          </Trackpoint>
          <Trackpoint>
            <Time>2019-07-06T15:41:13.000Z</Time>
            <Position>
              <LatitudeDegrees>42.53752936609089374542236328125</LatitudeDegrees>
              <LongitudeDegrees>-0.16713020391762256622314453125</LongitudeDegrees>
            </Position>
            <AltitudeMeters>889.5999755859375</AltitudeMeters>
            <DistanceMeters>2353.0495270086</DistanceMeters>
          </Trackpoint>
          <Trackpoint>
            <Time>2019-07-06T15:41:15.000Z</Time>
            <Position>
              <LatitudeDegrees>42.537539340555667877197265625</LatitudeDegrees>
              <LongitudeDegrees>-0.16712517477571964263916015625</LongitudeDegrees>
            </Position>
            <AltitudeMeters>889.5999755859375</AltitudeMeters>
            <DistanceMeters>2354.2326000617</DistanceMeters>
          </Trackpoint>
          <Trackpoint>
            <Time>2019-07-06T15:41:19.000Z</Time>
            <Position>
              <LatitudeDegrees>42.5375411845743656158447265625</LatitudeDegrees>
              <LongitudeDegrees>-0.16711763106286525726318359375</LongitudeDegrees>
            </Position>
            <AltitudeMeters>889.5999755859375</AltitudeMeters>
            <DistanceMeters>2354.8771025957</DistanceMeters>
          </Trackpoint>
          <Trackpoint>
            <Time>2019-07-06T15:41:31.000Z</Time>
            <Position>
              <LatitudeDegrees>42.53759558312594890594482421875</LatitudeDegrees>
              <LongitudeDegrees>-0.167103968560695648193359375</LongitudeDegrees>
            </Position>
            <AltitudeMeters>889.20001220703125</AltitudeMeters>
            <DistanceMeters>2361.0340710796</DistanceMeters>
          </Trackpoint>
          <Trackpoint>
            <Time>2019-07-06T15:41:42.000Z</Time>
            <Position>
              <LatitudeDegrees>42.53755451180040836334228515625</LatitudeDegrees>
              <LongitudeDegrees>-0.16712282784283161163330078125</LongitudeDegrees>
            </Position>
            <AltitudeMeters>890.4000244140625</AltitudeMeters>
            <DistanceMeters>2365.860829539</DistanceMeters>
          </Trackpoint>
          <Trackpoint>
            <Time>2019-07-06T15:41:43.000Z</Time>
            <Position>
              <LatitudeDegrees>42.537520229816436767578125</LatitudeDegrees>
              <LongitudeDegrees>-0.16714227385818958282470703125</LongitudeDegrees>
            </Position>
            <AltitudeMeters>890.5999755859375</AltitudeMeters>
            <DistanceMeters>2369.9964026293</DistanceMeters>
          </Trackpoint>
          <Trackpoint>
            <Time>2019-07-06T15:41:45.000Z</Time>
            <Position>
              <LatitudeDegrees>42.5375073216855525970458984375</LatitudeDegrees>
              <LongitudeDegrees>-0.16715300269424915313720703125</LongitudeDegrees>
            </Position>
            <AltitudeMeters>890</AltitudeMeters>
            <DistanceMeters>2371.6802802981</DistanceMeters>
          </Trackpoint>
          <Trackpoint>
            <Time>2019-07-06T15:41:57.000Z</Time>
            <Position>
              <LatitudeDegrees>42.53757965750992298126220703125</LatitudeDegrees>
              <LongitudeDegrees>-0.16721737571060657501220703125</LongitudeDegrees>
            </Position>
            <AltitudeMeters>890.5999755859375</AltitudeMeters>
            <DistanceMeters>2381.3080388481</DistanceMeters>
          </Trackpoint>
          <Trackpoint>
            <Time>2019-07-06T15:42:06.000Z</Time>
            <Position>
              <LatitudeDegrees>42.5375693477690219879150390625</LatitudeDegrees>
              <LongitudeDegrees>-0.16725542955100536346435546875</LongitudeDegrees>
            </Position>
            <AltitudeMeters>890.4000244140625</AltitudeMeters>
            <DistanceMeters>2384.633973851</DistanceMeters>
          </Trackpoint>
          <Trackpoint>
            <Time>2019-07-06T15:42:08.000Z</Time>
            <Position>
              <LatitudeDegrees>42.53754277713596820831298828125</LatitudeDegrees>
              <LongitudeDegrees>-0.16728308983147144317626953125</LongitudeDegrees>
            </Position>
            <AltitudeMeters>890.20001220703125</AltitudeMeters>
            <DistanceMeters>2388.363091404</DistanceMeters>
          </Trackpoint>
          <Trackpoint>
            <Time>2019-07-06T15:42:11.000Z</Time>
            <Position>
              <LatitudeDegrees>42.53754294477403163909912109375</LatitudeDegrees>
              <LongitudeDegrees>-0.16728795133531093597412109375</LongitudeDegrees>
            </Position>
            <AltitudeMeters>889.79998779296875</AltitudeMeters>
            <DistanceMeters>2388.7662556087</DistanceMeters>
          </Trackpoint>
          <Trackpoint>
            <Time>2019-07-06T15:42:13.000Z</Time>
            <Position>
              <LatitudeDegrees>42.5375505723059177398681640625</LatitudeDegrees>
              <LongitudeDegrees>-0.1672861911356449127197265625</LongitudeDegrees>
            </Position>
            <AltitudeMeters>889.5999755859375</AltitudeMeters>
            <DistanceMeters>2389.621496038</DistanceMeters>
          </Trackpoint>
          <Trackpoint>
            <Time>2019-07-06T15:42:26.000Z</Time>
            <Position>
              <LatitudeDegrees>42.537511177361011505126953125</LatitudeDegrees>
              <LongitudeDegrees>-0.167291052639484405517578125</LongitudeDegrees>
            </Position>
            <AltitudeMeters>890</AltitudeMeters>
            <DistanceMeters>2394.0236028119</DistanceMeters>
          </Trackpoint>
          <Trackpoint>
            <Time>2019-07-06T15:42:31.000Z</Time>
            <Position>
              <LatitudeDegrees>42.5375388376414775848388671875</LatitudeDegrees>
              <LongitudeDegrees>-0.16729616560041904449462890625</LongitudeDegrees>
            </Position>
            <AltitudeMeters>889</AltitudeMeters>
            <DistanceMeters>2397.1320078362</DistanceMeters>
          </Trackpoint>
          <Trackpoint>
            <Time>2019-07-06T15:42:40.000Z</Time>
            <Position>
              <LatitudeDegrees>42.53756046295166015625</LatitudeDegrees>
              <LongitudeDegrees>-0.16732097603380680084228515625</LongitudeDegrees>
            </Position>
            <AltitudeMeters>888.79998779296875</AltitudeMeters>
            <DistanceMeters>2400.2836874025</DistanceMeters>
          </Trackpoint>
          <Trackpoint>
            <Time>2019-07-06T15:42:43.000Z</Time>
            <Position>
              <LatitudeDegrees>42.5375800766050815582275390625</LatitudeDegrees>
              <LongitudeDegrees>-0.1673368178308010101318359375</LongitudeDegrees>
            </Position>
            <AltitudeMeters>888.79998779296875</AltitudeMeters>
            <DistanceMeters>2402.8264289807</DistanceMeters>
          </Trackpoint>
          <Trackpoint>
            <Time>2019-07-06T15:42:46.000Z</Time>
            <Position>
              <LatitudeDegrees>42.537659369409084320068359375</LatitudeDegrees>
              <LongitudeDegrees>-0.1673589460551738739013671875</LongitudeDegrees>
            </Position>
            <AltitudeMeters>888.79998779296875</AltitudeMeters>
            <DistanceMeters>2411.8364449203</DistanceMeters>
          </Trackpoint>
          <Trackpoint>
            <Time>2019-07-06T15:42:47.000Z</Time>
            <Position>
              <LatitudeDegrees>42.53761050291359424591064453125</LatitudeDegrees>
              <LongitudeDegrees>-0.167362131178379058837890625</LongitudeDegrees>
            </Position>
            <AltitudeMeters>888.79998779296875</AltitudeMeters>
            <DistanceMeters>2417.2820643563</DistanceMeters>
          </Trackpoint>
          <Trackpoint>
            <Time>2019-07-06T15:42:48.000Z</Time>
            <Position>
              <LatitudeDegrees>42.537582255899906158447265625</LatitudeDegrees>
              <LongitudeDegrees>-0.167355425655841827392578125</LongitudeDegrees>
            </Position>
            <AltitudeMeters>888.79998779296875</AltitudeMeters>
            <DistanceMeters>2420.4736041459</DistanceMeters>
          </Trackpoint>
          <Trackpoint>
            <Time>2019-07-06T15:43:20.000Z</Time>
            <Position>
              <LatitudeDegrees>42.53748393617570400238037109375</LatitudeDegrees>
              <LongitudeDegrees>-0.167478136718273162841796875</LongitudeDegrees>
            </Position>
            <AltitudeMeters>889.5999755859375</AltitudeMeters>
            <DistanceMeters>2435.3409580193</DistanceMeters>
          </Trackpoint>
          <Trackpoint>
            <Time>2019-07-06T15:43:21.000Z</Time>
            <Position>
              <LatitudeDegrees>42.53748527728021144866943359375</LatitudeDegrees>
              <LongitudeDegrees>-0.16747855581343173980712890625</LongitudeDegrees>
            </Position>
            <AltitudeMeters>889.5999755859375</AltitudeMeters>
            <DistanceMeters>2435.4753460875</DistanceMeters>
          </Trackpoint>
          <Trackpoint>
            <Time>2019-07-06T15:43:28.000Z</Time>
            <Position>
              <LatitudeDegrees>42.53753657452762126922607421875</LatitudeDegrees>
              <LongitudeDegrees>-0.1674865186214447021484375</LongitudeDegrees>
            </Position>
            <AltitudeMeters>889.4000244140625</AltitudeMeters>
            <DistanceMeters>2441.2226950096</DistanceMeters>
          </Trackpoint>
          <Trackpoint>
            <Time>2019-07-06T15:43:47.000Z</Time>
            <Position>
              <LatitudeDegrees>42.5376206450164318084716796875</LatitudeDegrees>
              <LongitudeDegrees>-0.1674360595643520355224609375</LongitudeDegrees>
            </Position>
            <AltitudeMeters>889.4000244140625</AltitudeMeters>
            <DistanceMeters>2451.4534142444</DistanceMeters>
          </Trackpoint>
          <Trackpoint>
            <Time>2019-07-06T15:43:59.000Z</Time>
            <Position>
              <LatitudeDegrees>42.537610419094562530517578125</LatitudeDegrees>
              <LongitudeDegrees>-0.1674632169306278228759765625</LongitudeDegrees>
            </Position>
            <AltitudeMeters>889.79998779296875</AltitudeMeters>
            <DistanceMeters>2453.953176813</DistanceMeters>
          </Trackpoint>
          <Trackpoint>
            <Time>2019-07-06T15:44:07.000Z</Time>
            <Position>
              <LatitudeDegrees>42.53757110796868801116943359375</LatitudeDegrees>
              <LongitudeDegrees>-0.16751493327319622039794921875</LongitudeDegrees>
            </Position>
            <AltitudeMeters>889.20001220703125</AltitudeMeters>
            <DistanceMeters>2460.0474942</DistanceMeters>
          </Trackpoint>
          <Trackpoint>
            <Time>2019-07-06T15:44:11.000Z</Time>
            <Position>
              <LatitudeDegrees>42.5375908054411411285400390625</LatitudeDegrees>
              <LongitudeDegrees>-0.16752582974731922149658203125</LongitudeDegrees>
            </Position>
            <AltitudeMeters>889.4000244140625</AltitudeMeters>
            <DistanceMeters>2462.4155477196</DistanceMeters>
          </Trackpoint>
          <Trackpoint>
            <Time>2019-07-06T15:44:13.000Z</Time>
            <Position>
              <LatitudeDegrees>42.53759491257369518280029296875</LatitudeDegrees>
              <LongitudeDegrees>-0.16753035597503185272216796875</LongitudeDegrees>
            </Position>
            <AltitudeMeters>889.4000244140625</AltitudeMeters>
            <DistanceMeters>2463.0165494316</DistanceMeters>
          </Trackpoint>
          <Trackpoint>
            <Time>2019-07-06T15:44:16.000Z</Time>
            <Position>
              <LatitudeDegrees>42.537576891481876373291015625</LatitudeDegrees>
              <LongitudeDegrees>-0.167554579675197601318359375</LongitudeDegrees>
            </Position>
            <AltitudeMeters>889.5999755859375</AltitudeMeters>
            <DistanceMeters>2465.8402982696</DistanceMeters>
          </Trackpoint>
          <Trackpoint>
            <Time>2019-07-06T15:44:18.000Z</Time>
            <Position>
              <LatitudeDegrees>42.5375644862651824951171875</LatitudeDegrees>
              <LongitudeDegrees>-0.16757058911025524139404296875</LongitudeDegrees>
            </Position>
            <AltitudeMeters>889.5999755859375</AltitudeMeters>
            <DistanceMeters>2467.7455779683</DistanceMeters>
          </Trackpoint>
          <Trackpoint>
            <Time>2019-07-06T15:44:19.000Z</Time>
            <Position>
              <LatitudeDegrees>42.5375636480748653411865234375</LatitudeDegrees>
              <LongitudeDegrees>-0.167577378451824188232421875</LongitudeDegrees>
            </Position>
            <AltitudeMeters>889.5999755859375</AltitudeMeters>
            <DistanceMeters>2468.3157382545</DistanceMeters>
          </Trackpoint>
          <Trackpoint>
            <Time>2019-07-06T15:44:20.000Z</Time>
            <Position>
              <LatitudeDegrees>42.53756524063646793365478515625</LatitudeDegrees>
              <LongitudeDegrees>-0.16758467070758342742919921875</LongitudeDegrees>
            </Position>
            <AltitudeMeters>889.79998779296875</AltitudeMeters>
            <DistanceMeters>2468.9460741678</DistanceMeters>
          </Trackpoint>
          <Trackpoint>
            <Time>2019-07-06T15:44:21.000Z</Time>
            <Position>
              <LatitudeDegrees>42.5375636480748653411865234375</LatitudeDegrees>
              <LongitudeDegrees>-0.1675899513065814971923828125</LongitudeDegrees>
            </Position>
            <AltitudeMeters>889.79998779296875</AltitudeMeters>
            <DistanceMeters>2469.4116080921</DistanceMeters>
          </Trackpoint>
          <Trackpoint>
            <Time>2019-07-06T15:44:22.000Z</Time>
            <Position>
              <LatitudeDegrees>42.53755752928555011749267578125</LatitudeDegrees>
              <LongitudeDegrees>-0.16759372316300868988037109375</LongitudeDegrees>
            </Position>
            <AltitudeMeters>889.79998779296875</AltitudeMeters>
            <DistanceMeters>2470.1598491893</DistanceMeters>
          </Trackpoint>
          <Trackpoint>
            <Time>2019-07-06T15:44:23.000Z</Time>
            <Position>
              <LatitudeDegrees>42.53755115903913974761962890625</LatitudeDegrees>
              <LongitudeDegrees>-0.1675991714000701904296875</LongitudeDegrees>
            </Position>
            <AltitudeMeters>889.79998779296875</AltitudeMeters>
            <DistanceMeters>2470.9937052237</DistanceMeters>
          </Trackpoint>
          <Trackpoint>
            <Time>2019-07-06T15:44:25.000Z</Time>
            <Position>
              <LatitudeDegrees>42.53753925673663616180419921875</LatitudeDegrees>
              <LongitudeDegrees>-0.1676144264638423919677734375</LongitudeDegrees>
            </Position>
            <AltitudeMeters>889.79998779296875</AltitudeMeters>
            <DistanceMeters>2472.8116733143</DistanceMeters>
          </Trackpoint>
          <Trackpoint>
            <Time>2019-07-06T15:44:26.000Z</Time>
            <Position>
              <LatitudeDegrees>42.53753640688955783843994140625</LatitudeDegrees>
              <LongitudeDegrees>-0.16761618666350841522216796875</LongitudeDegrees>
            </Position>
            <AltitudeMeters>889.79998779296875</AltitudeMeters>
            <DistanceMeters>2473.1542970055</DistanceMeters>
          </Trackpoint>
          <Trackpoint>
            <Time>2019-07-06T15:44:27.000Z</Time>
            <Position>
              <LatitudeDegrees>42.53753707744181156158447265625</LatitudeDegrees>
              <LongitudeDegrees>-0.16761467792093753814697265625</LongitudeDegrees>
            </Position>
            <AltitudeMeters>889.5999755859375</AltitudeMeters>
            <DistanceMeters>2473.2886850738</DistanceMeters>
          </Trackpoint>
          <Trackpoint>
            <Time>2019-07-06T15:44:28.000Z</Time>
            <Position>
              <LatitudeDegrees>42.537539005279541015625</LatitudeDegrees>
              <LongitudeDegrees>-0.16760746948421001434326171875</LongitudeDegrees>
            </Position>
            <AltitudeMeters>889.5999755859375</AltitudeMeters>
            <DistanceMeters>2473.919020987</DistanceMeters>
          </Trackpoint>
          <Trackpoint>
            <Time>2019-07-06T15:44:34.000Z</Time>
            <Position>
              <LatitudeDegrees>42.537548057734966278076171875</LatitudeDegrees>
              <LongitudeDegrees>-0.16759020276367664337158203125</LongitudeDegrees>
            </Position>
            <AltitudeMeters>889.20001220703125</AltitudeMeters>
            <DistanceMeters>2475.6556975638</DistanceMeters>
          </Trackpoint>
          <Trackpoint>
            <Time>2019-07-06T15:45:02.000Z</Time>
            <Position>
              <LatitudeDegrees>42.53760513849556446075439453125</LatitudeDegrees>
              <LongitudeDegrees>-0.16764543950557708740234375</LongitudeDegrees>
            </Position>
            <AltitudeMeters>889.5999755859375</AltitudeMeters>
            <DistanceMeters>2483.4588895685</DistanceMeters>
          </Trackpoint>
          <Trackpoint>
            <Time>2019-07-06T15:45:19.000Z</Time>
            <Position>
              <LatitudeDegrees>42.53758468665182590484619140625</LatitudeDegrees>
              <LongitudeDegrees>-0.16760512255132198333740234375</LongitudeDegrees>
            </Position>
            <AltitudeMeters>889.4000244140625</AltitudeMeters>
            <DistanceMeters>2487.4736979639</DistanceMeters>
          </Trackpoint>
          <Trackpoint>
            <Time>2019-07-06T15:45:28.000Z</Time>
            <Position>
              <LatitudeDegrees>42.537641264498233795166015625</LatitudeDegrees>
              <LongitudeDegrees>-0.1676241494715213775634765625</LongitudeDegrees>
            </Position>
            <AltitudeMeters>889.5999755859375</AltitudeMeters>
            <DistanceMeters>2493.9613158862</DistanceMeters>
          </Trackpoint>
          <Trackpoint>
            <Time>2019-07-06T15:45:40.000Z</Time>
            <Position>
              <LatitudeDegrees>42.53769733943045139312744140625</LatitudeDegrees>
              <LongitudeDegrees>-0.167570002377033233642578125</LongitudeDegrees>
            </Position>
            <AltitudeMeters>889.5999755859375</AltitudeMeters>
            <DistanceMeters>2501.6214357764</DistanceMeters>
          </Trackpoint>
          <Trackpoint>
            <Time>2019-07-06T15:45:55.000Z</Time>
            <Position>
              <LatitudeDegrees>42.53767454065382480621337890625</LatitudeDegrees>
              <LongitudeDegrees>-0.167605541646480560302734375</LongitudeDegrees>
            </Position>
            <AltitudeMeters>890</AltitudeMeters>
            <DistanceMeters>2505.4872832275</DistanceMeters>
          </Trackpoint>
          <Trackpoint>
            <Time>2019-07-06T15:46:02.000Z</Time>
            <Position>
              <LatitudeDegrees>42.53768359310925006866455078125</LatitudeDegrees>
              <LongitudeDegrees>-0.1676164381206035614013671875</LongitudeDegrees>
            </Position>
            <AltitudeMeters>890</AltitudeMeters>
            <DistanceMeters>2506.8378665984</DistanceMeters>
          </Trackpoint>
          <Trackpoint>
            <Time>2019-07-06T15:46:14.000Z</Time>
            <Position>
              <LatitudeDegrees>42.53764159977436065673828125</LatitudeDegrees>
              <LongitudeDegrees>-0.16762959770858287811279296875</LongitudeDegrees>
            </Position>
            <AltitudeMeters>889.79998779296875</AltitudeMeters>
            <DistanceMeters>2511.6345982752</DistanceMeters>
          </Trackpoint>
          <Trackpoint>
            <Time>2019-07-06T15:46:38.000Z</Time>
            <Position>
              <LatitudeDegrees>42.53763061948120594024658203125</LatitudeDegrees>
              <LongitudeDegrees>-0.167714171111583709716796875</LongitudeDegrees>
            </Position>
            <AltitudeMeters>889.5999755859375</AltitudeMeters>
            <DistanceMeters>2518.6781229598</DistanceMeters>
          </Trackpoint>
          <Trackpoint>
            <Time>2019-07-06T15:46:52.000Z</Time>
            <Position>
              <LatitudeDegrees>42.537710666656494140625</LatitudeDegrees>
              <LongitudeDegrees>-0.1676010154187679290771484375</LongitudeDegrees>
            </Position>
            <AltitudeMeters>889.5999755859375</AltitudeMeters>
            <DistanceMeters>2531.542227317</DistanceMeters>
          </Trackpoint>
          <Trackpoint>
            <Time>2019-07-06T15:47:09.000Z</Time>
            <Position>
              <LatitudeDegrees>42.5377738662064075469970703125</LatitudeDegrees>
              <LongitudeDegrees>-0.16759221442043781280517578125</LongitudeDegrees>
            </Position>
            <AltitudeMeters>889.5999755859375</AltitudeMeters>
            <DistanceMeters>2538.6139006229</DistanceMeters>
          </Trackpoint>
          <Trackpoint>
            <Time>2019-07-06T15:47:15.000Z</Time>
            <Position>
              <LatitudeDegrees>42.53780446015298366546630859375</LatitudeDegrees>
              <LongitudeDegrees>-0.167582072317600250244140625</LongitudeDegrees>
            </Position>
            <AltitudeMeters>889.5999755859375</AltitudeMeters>
            <DistanceMeters>2542.119600844</DistanceMeters>
          </Trackpoint>
          <Trackpoint>
            <Time>2019-07-06T15:47:29.000Z</Time>
            <Position>
              <LatitudeDegrees>42.537692897021770477294921875</LatitudeDegrees>
              <LongitudeDegrees>-0.16763445921242237091064453125</LongitudeDegrees>
            </Position>
            <AltitudeMeters>889.5999755859375</AltitudeMeters>
            <DistanceMeters>2555.2590845299</DistanceMeters>
          </Trackpoint>
          <Trackpoint>
            <Time>2019-07-06T15:47:38.000Z</Time>
            <Position>
              <LatitudeDegrees>42.53770857118070125579833984375</LatitudeDegrees>
              <LongitudeDegrees>-0.1676285080611705780029296875</LongitudeDegrees>
            </Position>
            <AltitudeMeters>889.4000244140625</AltitudeMeters>
            <DistanceMeters>2557.0720786903</DistanceMeters>
          </Trackpoint>
          <Trackpoint>
            <Time>2019-07-06T15:47:40.000Z</Time>
            <Position>
              <LatitudeDegrees>42.53771544434130191802978515625</LatitudeDegrees>
              <LongitudeDegrees>-0.1676271669566631317138671875</LongitudeDegrees>
            </Position>
            <AltitudeMeters>889.20001220703125</AltitudeMeters>
            <DistanceMeters>2557.8440793673</DistanceMeters>
          </Trackpoint>
          <Trackpoint>
            <Time>2019-07-06T15:47:53.000Z</Time>
            <Position>
              <LatitudeDegrees>42.53779180347919464111328125</LatitudeDegrees>
              <LongitudeDegrees>-0.1676308549940586090087890625</LongitudeDegrees>
            </Position>
            <AltitudeMeters>889.5999755859375</AltitudeMeters>
            <DistanceMeters>2566.3483066832</DistanceMeters>
          </Trackpoint>
          <Trackpoint>
            <Time>2019-07-06T15:47:57.000Z</Time>
            <Position>
              <LatitudeDegrees>42.5378407537937164306640625</LatitudeDegrees>
              <LongitudeDegrees>-0.16761970706284046173095703125</LongitudeDegrees>
            </Position>
            <AltitudeMeters>889.79998779296875</AltitudeMeters>
            <DistanceMeters>2571.8729477014</DistanceMeters>
          </Trackpoint>
          <Trackpoint>
            <Time>2019-07-06T15:47:59.000Z</Time>
            <Position>
              <LatitudeDegrees>42.53785307519137859344482421875</LatitudeDegrees>
              <LongitudeDegrees>-0.16761836595833301544189453125</LongitudeDegrees>
            </Position>
            <AltitudeMeters>889.79998779296875</AltitudeMeters>
            <DistanceMeters>2573.2500156203</DistanceMeters>
          </Trackpoint>
          <Trackpoint>
            <Time>2019-07-06T15:48:32.000Z</Time>
            <Position>
              <LatitudeDegrees>42.53783245570957660675048828125</LatitudeDegrees>
              <LongitudeDegrees>-0.16759975813329219818115234375</LongitudeDegrees>
            </Position>
            <AltitudeMeters>889.79998779296875</AltitudeMeters>
            <DistanceMeters>2576.0057903371</DistanceMeters>
          </Trackpoint>
          <Trackpoint>
            <Time>2019-07-06T15:48:45.000Z</Time>
            <Position>
              <LatitudeDegrees>42.5377604551613330841064453125</LatitudeDegrees>
              <LongitudeDegrees>-0.16757679171860218048095703125</LongitudeDegrees>
            </Position>
            <AltitudeMeters>889.79998779296875</AltitudeMeters>
            <DistanceMeters>2584.2380879332</DistanceMeters>
          </Trackpoint>
          <Trackpoint>
            <Time>2019-07-06T15:49:06.000Z</Time>
            <Position>
              <LatitudeDegrees>42.53770354203879833221435546875</LatitudeDegrees>
              <LongitudeDegrees>-0.16756002791225910186767578125</LongitudeDegrees>
            </Position>
            <AltitudeMeters>889.5999755859375</AltitudeMeters>
            <DistanceMeters>2590.720832396</DistanceMeters>
          </Trackpoint>
          <Trackpoint>
            <Time>2019-07-06T15:49:37.000Z</Time>
            <Position>
              <LatitudeDegrees>42.53758686594665050506591796875</LatitudeDegrees>
              <LongitudeDegrees>-0.16759338788688182830810546875</LongitudeDegrees>
            </Position>
            <AltitudeMeters>889.4000244140625</AltitudeMeters>
            <DistanceMeters>2603.9919518275</DistanceMeters>
          </Trackpoint>
          <Trackpoint>
            <Time>2019-07-06T15:50:08.000Z</Time>
            <Position>
              <LatitudeDegrees>42.53763916902244091033935546875</LatitudeDegrees>
              <LongitudeDegrees>-0.16759506426751613616943359375</LongitudeDegrees>
            </Position>
            <AltitudeMeters>889.4000244140625</AltitudeMeters>
            <DistanceMeters>2609.8142286133</DistanceMeters>
          </Trackpoint>
          <Trackpoint>
            <Time>2019-07-06T15:50:34.000Z</Time>
            <Position>
              <LatitudeDegrees>42.53764562308788299560546875</LatitudeDegrees>
              <LongitudeDegrees>-0.1675946451723575592041015625</LongitudeDegrees>
            </Position>
            <AltitudeMeters>890</AltitudeMeters>
            <DistanceMeters>2610.5379305089</DistanceMeters>
          </Trackpoint>
          <Trackpoint>
            <Time>2019-07-06T15:51:00.000Z</Time>
            <Position>
              <LatitudeDegrees>42.5377446971833705902099609375</LatitudeDegrees>
              <LongitudeDegrees>-0.1675684936344623565673828125</LongitudeDegrees>
            </Position>
            <AltitudeMeters>890</AltitudeMeters>
            <DistanceMeters>2621.771599469</DistanceMeters>
          </Trackpoint>
          <Trackpoint>
            <Time>2019-07-06T15:51:06.000Z</Time>
            <Position>
              <LatitudeDegrees>42.53774092532694339752197265625</LatitudeDegrees>
              <LongitudeDegrees>-0.167580731213092803955078125</LongitudeDegrees>
            </Position>
            <AltitudeMeters>890.5999755859375</AltitudeMeters>
            <DistanceMeters>2622.8550707135</DistanceMeters>
          </Trackpoint>
          <Trackpoint>
            <Time>2019-07-06T15:51:10.000Z</Time>
            <Position>
              <LatitudeDegrees>42.5377195514738559722900390625</LatitudeDegrees>
              <LongitudeDegrees>-0.16756975091993808746337890625</LongitudeDegrees>
            </Position>
            <AltitudeMeters>890.4000244140625</AltitudeMeters>
            <DistanceMeters>2625.3978122918</DistanceMeters>
          </Trackpoint>
          <Trackpoint>
            <Time>2019-07-06T15:51:12.000Z</Time>
            <Position>
              <LatitudeDegrees>42.53772097639739513397216796875</LatitudeDegrees>
              <LongitudeDegrees>-0.16757167875766754150390625</LongitudeDegrees>
            </Position>
            <AltitudeMeters>890.79998779296875</AltitudeMeters>
            <DistanceMeters>2625.6305792539</DistanceMeters>
          </Trackpoint>
          <Trackpoint>
            <Time>2019-07-06T15:51:16.000Z</Time>
            <Position>
              <LatitudeDegrees>42.537724412977695465087890625</LatitudeDegrees>
              <LongitudeDegrees>-0.16757578589022159576416015625</LongitudeDegrees>
            </Position>
            <AltitudeMeters>891</AltitudeMeters>
            <DistanceMeters>2626.1423137719</DistanceMeters>
          </Trackpoint>
          <Trackpoint>
            <Time>2019-07-06T15:51:43.000Z</Time>
            <Position>
              <LatitudeDegrees>42.5377279333770275115966796875</LatitudeDegrees>
              <LongitudeDegrees>-0.167590118944644927978515625</LongitudeDegrees>
            </Position>
            <AltitudeMeters>890.4000244140625</AltitudeMeters>
            <DistanceMeters>2627.3813105416</DistanceMeters>
          </Trackpoint>
          <Trackpoint>
            <Time>2019-07-06T15:51:51.000Z</Time>
            <Position>
              <LatitudeDegrees>42.53766833804547786712646484375</LatitudeDegrees>
              <LongitudeDegrees>-0.16762171871960163116455078125</LongitudeDegrees>
            </Position>
            <AltitudeMeters>890</AltitudeMeters>
            <DistanceMeters>2634.502610234</DistanceMeters>
          </Trackpoint>
          <Trackpoint>
            <Time>2019-07-06T15:51:52.000Z</Time>
            <Position>
              <LatitudeDegrees>42.53766247071325778961181640625</LatitudeDegrees>
              <LongitudeDegrees>-0.16762129962444305419921875</LongitudeDegrees>
            </Position>
            <AltitudeMeters>890</AltitudeMeters>
            <DistanceMeters>2635.1609746235</DistanceMeters>
          </Trackpoint>
          <Trackpoint>
            <Time>2019-07-06T15:51:58.000Z</Time>
            <Position>
              <LatitudeDegrees>42.53762550652027130126953125</LatitudeDegrees>
              <LongitudeDegrees>-0.16761702485382556915283203125</LongitudeDegrees>
            </Position>
            <AltitudeMeters>890</AltitudeMeters>
            <DistanceMeters>2639.2899919795</DistanceMeters>
          </Trackpoint>
          <Trackpoint>
            <Time>2019-07-06T15:52:00.000Z</Time>
            <Position>
              <LatitudeDegrees>42.53762927837669849395751953125</LatitudeDegrees>
              <LongitudeDegrees>-0.167603529989719390869140625</LongitudeDegrees>
            </Position>
            <AltitudeMeters>890</AltitudeMeters>
            <DistanceMeters>2640.4768752616</DistanceMeters>
          </Trackpoint>
          <Trackpoint>
            <Time>2019-07-06T15:52:24.000Z</Time>
            <Position>
              <LatitudeDegrees>42.53770731389522552490234375</LatitudeDegrees>
              <LongitudeDegrees>-0.16758115030825138092041015625</LongitudeDegrees>
            </Position>
            <AltitudeMeters>890</AltitudeMeters>
            <DistanceMeters>2649.3546287614</DistanceMeters>
          </Trackpoint>
          <Trackpoint>
            <Time>2019-07-06T15:52:42.000Z</Time>
            <Position>
              <LatitudeDegrees>42.5377172045409679412841796875</LatitudeDegrees>
              <LongitudeDegrees>-0.1676047034561634063720703125</LongitudeDegrees>
            </Position>
            <AltitudeMeters>890</AltitudeMeters>
            <DistanceMeters>2651.5750840612</DistanceMeters>
          </Trackpoint>
          <Trackpoint>
            <Time>2019-07-06T15:52:44.000Z</Time>
            <Position>
              <LatitudeDegrees>42.5377410091459751129150390625</LatitudeDegrees>
              <LongitudeDegrees>-0.16758911311626434326171875</LongitudeDegrees>
            </Position>
            <AltitudeMeters>890</AltitudeMeters>
            <DistanceMeters>2654.5163105457</DistanceMeters>
          </Trackpoint>
          <Trackpoint>
            <Time>2019-07-06T15:52:52.000Z</Time>
            <Position>
              <LatitudeDegrees>42.53781703300774097442626953125</LatitudeDegrees>
              <LongitudeDegrees>-0.16750906594097614288330078125</LongitudeDegrees>
            </Position>
            <AltitudeMeters>890</AltitudeMeters>
            <DistanceMeters>2665.2261205809</DistanceMeters>
          </Trackpoint>
          <Trackpoint>
            <Time>2019-07-06T15:52:54.000Z</Time>
            <Position>
              <LatitudeDegrees>42.53782390616834163665771484375</LatitudeDegrees>
              <LongitudeDegrees>-0.1674999296665191650390625</LongitudeDegrees>
            </Position>
            <AltitudeMeters>890.20001220703125</AltitudeMeters>
            <DistanceMeters>2666.3012251269</DistanceMeters>
          </Trackpoint>
          <Trackpoint>
            <Time>2019-07-06T15:53:04.000Z</Time>
            <Position>
              <LatitudeDegrees>42.53778132610023021697998046875</LatitudeDegrees>
              <LongitudeDegrees>-0.16754359938204288482666015625</LongitudeDegrees>
            </Position>
            <AltitudeMeters>889.79998779296875</AltitudeMeters>
            <DistanceMeters>2672.2417250001</DistanceMeters>
          </Trackpoint>
          <Trackpoint>
            <Time>2019-07-06T15:53:11.000Z</Time>
            <Position>
              <LatitudeDegrees>42.53769180737435817718505859375</LatitudeDegrees>
              <LongitudeDegrees>-0.16756069846451282501220703125</LongitudeDegrees>
            </Position>
            <AltitudeMeters>889.5999755859375</AltitudeMeters>
            <DistanceMeters>2682.3037932313</DistanceMeters>
          </Trackpoint>
          <Trackpoint>
            <Time>2019-07-06T15:53:12.000Z</Time>
            <Position>
              <LatitudeDegrees>42.53768392838537693023681640625</LatitudeDegrees>
              <LongitudeDegrees>-0.16757612116634845733642578125</LongitudeDegrees>
            </Position>
            <AltitudeMeters>889.5999755859375</AltitudeMeters>
            <DistanceMeters>2683.8448675659</DistanceMeters>
          </Trackpoint>
          <Trackpoint>
            <Time>2019-07-06T15:53:27.000Z</Time>
            <Position>
              <LatitudeDegrees>42.537645287811756134033203125</LatitudeDegrees>
              <LongitudeDegrees>-0.1675745286047458648681640625</LongitudeDegrees>
            </Position>
            <AltitudeMeters>889.20001220703125</AltitudeMeters>
            <DistanceMeters>2688.1473850511</DistanceMeters>
          </Trackpoint>
          <Trackpoint>
            <Time>2019-07-06T15:53:28.000Z</Time>
            <Position>
              <LatitudeDegrees>42.5376293621957302093505859375</LatitudeDegrees>
              <LongitudeDegrees>-0.1675803959369659423828125</LongitudeDegrees>
            </Position>
            <AltitudeMeters>889.20001220703125</AltitudeMeters>
            <DistanceMeters>2689.985114245</DistanceMeters>
          </Trackpoint>
          <Trackpoint>
            <Time>2019-07-06T15:53:46.000Z</Time>
            <Position>
              <LatitudeDegrees>42.53763531334698200225830078125</LatitudeDegrees>
              <LongitudeDegrees>-0.16753504984080791473388671875</LongitudeDegrees>
            </Position>
            <AltitudeMeters>889.5999755859375</AltitudeMeters>
            <DistanceMeters>2693.763546573</DistanceMeters>
          </Trackpoint>
          <Trackpoint>
            <Time>2019-07-06T15:53:49.000Z</Time>
            <Position>
              <LatitudeDegrees>42.5376481376588344573974609375</LatitudeDegrees>
              <LongitudeDegrees>-0.167532451450824737548828125</LongitudeDegrees>
            </Position>
            <AltitudeMeters>889.5999755859375</AltitudeMeters>
            <DistanceMeters>2695.2078275909</DistanceMeters>
          </Trackpoint>
          <Trackpoint>
            <Time>2019-07-06T15:53:50.000Z</Time>
            <Position>
              <LatitudeDegrees>42.53765073604881763458251953125</LatitudeDegrees>
              <LongitudeDegrees>-0.16752339899539947509765625</LongitudeDegrees>
            </Position>
            <AltitudeMeters>889.5999755859375</AltitudeMeters>
            <DistanceMeters>2696.0028781246</DistanceMeters>
          </Trackpoint>
          <Trackpoint>
            <Time>2019-07-06T15:53:52.000Z</Time>
            <Position>
              <LatitudeDegrees>42.537642605602741241455078125</LatitudeDegrees>
              <LongitudeDegrees>-0.16750671900808811187744140625</LongitudeDegrees>
            </Position>
            <AltitudeMeters>889.5999755859375</AltitudeMeters>
            <DistanceMeters>2697.6432935537</DistanceMeters>
          </Trackpoint>
          <Trackpoint>
            <Time>2019-07-06T15:53:56.000Z</Time>
            <Position>
              <LatitudeDegrees>42.5376199744641780853271484375</LatitudeDegrees>
              <LongitudeDegrees>-0.1675098203122615814208984375</LongitudeDegrees>
            </Position>
            <AltitudeMeters>889.5999755859375</AltitudeMeters>
            <DistanceMeters>2700.1753587731</DistanceMeters>
          </Trackpoint>
          <Trackpoint>
            <Time>2019-07-06T15:53:58.000Z</Time>
            <Position>
              <LatitudeDegrees>42.5376226566731929779052734375</LatitudeDegrees>
              <LongitudeDegrees>-0.16751401126384735107421875</LongitudeDegrees>
            </Position>
            <AltitudeMeters>889.4000244140625</AltitudeMeters>
            <DistanceMeters>2700.6210735718</DistanceMeters>
          </Trackpoint>
          <Trackpoint>
            <Time>2019-07-06T15:54:01.000Z</Time>
            <Position>
              <LatitudeDegrees>42.5376176275312900543212890625</LatitudeDegrees>
              <LongitudeDegrees>-0.1675242371857166290283203125</LongitudeDegrees>
            </Position>
            <AltitudeMeters>889.20001220703125</AltitudeMeters>
            <DistanceMeters>2701.6267417883</DistanceMeters>
          </Trackpoint>
          <Trackpoint>
            <Time>2019-07-06T15:54:03.000Z</Time>
            <Position>
              <LatitudeDegrees>42.53763397224247455596923828125</LatitudeDegrees>
              <LongitudeDegrees>-0.1675581000745296478271484375</LongitudeDegrees>
            </Position>
            <AltitudeMeters>889</AltitudeMeters>
            <DistanceMeters>2704.9472422533</DistanceMeters>
          </Trackpoint>
          <Trackpoint>
            <Time>2019-07-06T15:54:10.000Z</Time>
            <Position>
              <LatitudeDegrees>42.5375966727733612060546875</LatitudeDegrees>
              <LongitudeDegrees>-0.16757343895733356475830078125</LongitudeDegrees>
            </Position>
            <AltitudeMeters>889.79998779296875</AltitudeMeters>
            <DistanceMeters>2709.285292427</DistanceMeters>
          </Trackpoint>
          <Trackpoint>
            <Time>2019-07-06T15:54:20.000Z</Time>
            <Position>
              <LatitudeDegrees>42.537594996392726898193359375</LatitudeDegrees>
              <LongitudeDegrees>-0.1675674878060817718505859375</LongitudeDegrees>
            </Position>
            <AltitudeMeters>889.79998779296875</AltitudeMeters>
            <DistanceMeters>2709.8143787808</DistanceMeters>
          </Trackpoint>
          <Trackpoint>
            <Time>2019-07-06T15:54:32.000Z</Time>
            <Position>
              <LatitudeDegrees>42.53753003664314746856689453125</LatitudeDegrees>
              <LongitudeDegrees>-0.16762406565248966217041015625</LongitudeDegrees>
            </Position>
            <AltitudeMeters>889.79998779296875</AltitudeMeters>
            <DistanceMeters>2718.404709665</DistanceMeters>
          </Trackpoint>
          <Trackpoint>
            <Time>2019-07-06T15:54:33.000Z</Time>
            <Position>
              <LatitudeDegrees>42.537522576749324798583984375</LatitudeDegrees>
              <LongitudeDegrees>-0.16763068735599517822265625</LongitudeDegrees>
            </Position>
            <AltitudeMeters>889.79998779296875</AltitudeMeters>
            <DistanceMeters>2719.3968176895</DistanceMeters>
          </Trackpoint>
          <Trackpoint>
            <Time>2019-07-06T15:54:36.000Z</Time>
            <Position>
              <LatitudeDegrees>42.537515871226787567138671875</LatitudeDegrees>
              <LongitudeDegrees>-0.1676402427256107330322265625</LongitudeDegrees>
            </Position>
            <AltitudeMeters>889.79998779296875</AltitudeMeters>
            <DistanceMeters>2720.4802889341</DistanceMeters>
          </Trackpoint>
          <Trackpoint>
            <Time>2019-07-06T15:54:38.000Z</Time>
            <Position>
              <LatitudeDegrees>42.53751109354197978973388671875</LatitudeDegrees>
              <LongitudeDegrees>-0.1676380634307861328125</LongitudeDegrees>
            </Position>
            <AltitudeMeters>890</AltitudeMeters>
            <DistanceMeters>2721.0504492203</DistanceMeters>
          </Trackpoint>
          <Trackpoint>
            <Time>2019-07-06T15:54:41.000Z</Time>
            <Position>
              <LatitudeDegrees>42.53753003664314746856689453125</LatitudeDegrees>
              <LongitudeDegrees>-0.1676231436431407928466796875</LongitudeDegrees>
            </Position>
            <AltitudeMeters>890.20001220703125</AltitudeMeters>
            <DistanceMeters>2723.4880279985</DistanceMeters>
          </Trackpoint>
          <Trackpoint>
            <Time>2019-07-06T15:54:48.000Z</Time>
            <Position>
              <LatitudeDegrees>42.5375696830451488494873046875</LatitudeDegrees>
              <LongitudeDegrees>-0.167603194713592529296875</LongitudeDegrees>
            </Position>
            <AltitudeMeters>889.5999755859375</AltitudeMeters>
            <DistanceMeters>2728.1935298252</DistanceMeters>
          </Trackpoint>
          <Trackpoint>
            <Time>2019-07-06T15:54:50.000Z</Time>
            <Position>
              <LatitudeDegrees>42.53757865168154239654541015625</LatitudeDegrees>
              <LongitudeDegrees>-0.16758986748754978179931640625</LongitudeDegrees>
            </Position>
            <AltitudeMeters>889.4000244140625</AltitudeMeters>
            <DistanceMeters>2729.6717985759</DistanceMeters>
          </Trackpoint>
          <Trackpoint>
            <Time>2019-07-06T15:55:03.000Z</Time>
            <Position>
              <LatitudeDegrees>42.53761947154998779296875</LatitudeDegrees>
              <LongitudeDegrees>-0.1675725169479846954345703125</LongitudeDegrees>
            </Position>
            <AltitudeMeters>889.5999755859375</AltitudeMeters>
            <DistanceMeters>2734.4316790154</DistanceMeters>
          </Trackpoint>
          <Trackpoint>
            <Time>2019-07-06T15:55:04.000Z</Time>
            <Position>
              <LatitudeDegrees>42.5376172922551631927490234375</LatitudeDegrees>
              <LongitudeDegrees>-0.16757846809923648834228515625</LongitudeDegrees>
            </Position>
            <AltitudeMeters>889.5999755859375</AltitudeMeters>
            <DistanceMeters>2734.9775659292</DistanceMeters>
          </Trackpoint>
          <Trackpoint>
            <Time>2019-07-06T15:55:05.000Z</Time>
            <Position>
              <LatitudeDegrees>42.53762022592127323150634765625</LatitudeDegrees>
              <LongitudeDegrees>-0.167579390108585357666015625</LongitudeDegrees>
            </Position>
            <AltitudeMeters>889.5999755859375</AltitudeMeters>
            <DistanceMeters>2735.3201896204</DistanceMeters>
          </Trackpoint>
          <Trackpoint>
            <Time>2019-07-06T15:55:10.000Z</Time>
            <Position>
              <LatitudeDegrees>42.53761251457035541534423828125</LatitudeDegrees>
              <LongitudeDegrees>-0.1675839163362979888916015625</LongitudeDegrees>
            </Position>
            <AltitudeMeters>889.5999755859375</AltitudeMeters>
            <DistanceMeters>2736.2609060981</DistanceMeters>
          </Trackpoint>
          <Trackpoint>
            <Time>2019-07-06T15:55:12.000Z</Time>
            <Position>
              <LatitudeDegrees>42.5376186333596706390380859375</LatitudeDegrees>
              <LongitudeDegrees>-0.167590118944644927978515625</LongitudeDegrees>
            </Position>
            <AltitudeMeters>889.20001220703125</AltitudeMeters>
            <DistanceMeters>2737.1108508701</DistanceMeters>
          </Trackpoint>
          <Trackpoint>
            <Time>2019-07-06T15:55:17.000Z</Time>
            <Position>
              <LatitudeDegrees>42.53763028420507907867431640625</LatitudeDegrees>
              <LongitudeDegrees>-0.1675969921052455902099609375</LongitudeDegrees>
            </Position>
            <AltitudeMeters>889.20001220703125</AltitudeMeters>
            <DistanceMeters>2738.5203248208</DistanceMeters>
          </Trackpoint>
          <Trackpoint>
            <Time>2019-07-06T15:55:20.000Z</Time>
            <Position>
              <LatitudeDegrees>42.53763179294764995574951171875</LatitudeDegrees>
              <LongitudeDegrees>-0.1675899513065814971923828125</LongitudeDegrees>
            </Position>
            <AltitudeMeters>888.79998779296875</AltitudeMeters>
            <DistanceMeters>2739.1213265328</DistanceMeters>
          </Trackpoint>
          <Trackpoint>
            <Time>2019-07-06T15:55:28.000Z</Time>
            <Position>
              <LatitudeDegrees>42.5376266799867153167724609375</LatitudeDegrees>
              <LongitudeDegrees>-0.167570002377033233642578125</LongitudeDegrees>
            </Position>
            <AltitudeMeters>889.79998779296875</AltitudeMeters>
            <DistanceMeters>2740.8527956718</DistanceMeters>
          </Trackpoint>
          <Trackpoint>
            <Time>2019-07-06T15:55:30.000Z</Time>
            <Position>
              <LatitudeDegrees>42.537627853453159332275390625</LatitudeDegrees>
              <LongitudeDegrees>-0.167565308511257171630859375</LongitudeDegrees>
            </Position>
            <AltitudeMeters>889.5999755859375</AltitudeMeters>
            <DistanceMeters>2741.2559598765</DistanceMeters>
          </Trackpoint>
          <Trackpoint>
            <Time>2019-07-06T15:55:33.000Z</Time>
            <Position>
              <LatitudeDegrees>42.53761938773095607757568359375</LatitudeDegrees>
              <LongitudeDegrees>-0.167563967406749725341796875</LongitudeDegrees>
            </Position>
            <AltitudeMeters>889</AltitudeMeters>
            <DistanceMeters>2742.2062270202</DistanceMeters>
          </Trackpoint>
          <Trackpoint>
            <Time>2019-07-06T15:55:44.000Z</Time>
            <Position>
              <LatitudeDegrees>42.53759088926017284393310546875</LatitudeDegrees>
              <LongitudeDegrees>-0.16758400015532970428466796875</LongitudeDegrees>
            </Position>
            <AltitudeMeters>888.5999755859375</AltitudeMeters>
            <DistanceMeters>2745.7795347444</DistanceMeters>
          </Trackpoint>
          <Trackpoint>
            <Time>2019-07-06T15:55:49.000Z</Time>
            <Position>
              <LatitudeDegrees>42.5376122631132602691650390625</LatitudeDegrees>
              <LongitudeDegrees>-0.16759053803980350494384765625</LongitudeDegrees>
            </Position>
            <AltitudeMeters>889.20001220703125</AltitudeMeters>
            <DistanceMeters>2748.220815239</DistanceMeters>
          </Trackpoint>
          <Trackpoint>
            <Time>2019-07-06T15:55:52.000Z</Time>
            <Position>
              <LatitudeDegrees>42.53764319233596324920654296875</LatitudeDegrees>
              <LongitudeDegrees>-0.16756874509155750274658203125</LongitudeDegrees>
            </Position>
            <AltitudeMeters>889.5999755859375</AltitudeMeters>
            <DistanceMeters>2752.1006525335</DistanceMeters>
          </Trackpoint>
          <Trackpoint>
            <Time>2019-07-06T15:55:56.000Z</Time>
            <Position>
              <LatitudeDegrees>42.537659704685211181640625</LatitudeDegrees>
              <LongitudeDegrees>-0.1675601117312908172607421875</LongitudeDegrees>
            </Position>
            <AltitudeMeters>888.5999755859375</AltitudeMeters>
            <DistanceMeters>2754.071168423</DistanceMeters>
          </Trackpoint>
          <Trackpoint>
            <Time>2019-07-06T15:56:02.000Z</Time>
            <Position>
              <LatitudeDegrees>42.53765090368688106536865234375</LatitudeDegrees>
              <LongitudeDegrees>-0.16751895658671855926513671875</LongitudeDegrees>
            </Position>
            <AltitudeMeters>888.4000244140625</AltitudeMeters>
            <DistanceMeters>2757.5858724754</DistanceMeters>
          </Trackpoint>
          <Trackpoint>
            <Time>2019-07-06T15:56:21.000Z</Time>
            <Position>
              <LatitudeDegrees>42.53761075437068939208984375</LatitudeDegrees>
              <LongitudeDegrees>-0.16743362881243228912353515625</LongitudeDegrees>
            </Position>
            <AltitudeMeters>888.79998779296875</AltitudeMeters>
            <DistanceMeters>2765.8886192241</DistanceMeters>
          </Trackpoint>
          <Trackpoint>
            <Time>2019-07-06T15:56:23.000Z</Time>
            <Position>
              <LatitudeDegrees>42.53760698251426219940185546875</LatitudeDegrees>
              <LongitudeDegrees>-0.167480148375034332275390625</LongitudeDegrees>
            </Position>
            <AltitudeMeters>888.79998779296875</AltitudeMeters>
            <DistanceMeters>2769.7263339972</DistanceMeters>
          </Trackpoint>
          <Trackpoint>
            <Time>2019-07-06T15:56:25.000Z</Time>
            <Position>
              <LatitudeDegrees>42.5376112572848796844482421875</LatitudeDegrees>
              <LongitudeDegrees>-0.1675168611109256744384765625</LongitudeDegrees>
            </Position>
            <AltitudeMeters>889.20001220703125</AltitudeMeters>
            <DistanceMeters>2772.7760845997</DistanceMeters>
          </Trackpoint>
          <Trackpoint>
            <Time>2019-07-06T15:56:26.000Z</Time>
            <Position>
              <LatitudeDegrees>42.53761075437068939208984375</LatitudeDegrees>
              <LongitudeDegrees>-0.167520046234130859375</LongitudeDegrees>
            </Position>
            <AltitudeMeters>889.5999755859375</AltitudeMeters>
            <DistanceMeters>2773.0448607362</DistanceMeters>
          </Trackpoint>
          <Trackpoint>
            <Time>2019-07-06T15:56:47.000Z</Time>
            <Position>
              <LatitudeDegrees>42.53763732500374317169189453125</LatitudeDegrees>
              <LongitudeDegrees>-0.1675564236938953399658203125</LongitudeDegrees>
            </Position>
            <AltitudeMeters>890.20001220703125</AltitudeMeters>
            <DistanceMeters>2777.2454284801</DistanceMeters>
          </Trackpoint>
          <Trackpoint>
            <Time>2019-07-06T15:56:54.000Z</Time>
            <Position>
              <LatitudeDegrees>42.53766381181776523590087890625</LatitudeDegrees>
              <LongitudeDegrees>-0.1675857603549957275390625</LongitudeDegrees>
            </Position>
            <AltitudeMeters>890</AltitudeMeters>
            <DistanceMeters>2781.0500588879</DistanceMeters>
          </Trackpoint>
          <Trackpoint>
            <Time>2019-07-06T15:56:57.000Z</Time>
            <Position>
              <LatitudeDegrees>42.53767051734030246734619140625</LatitudeDegrees>
              <LongitudeDegrees>-0.16758567653596401214599609375</LongitudeDegrees>
            </Position>
            <AltitudeMeters>890.20001220703125</AltitudeMeters>
            <DistanceMeters>2781.7982999851</DistanceMeters>
          </Trackpoint>
          <Trackpoint>
            <Time>2019-07-06T15:57:09.000Z</Time>
            <Position>
              <LatitudeDegrees>42.537744529545307159423828125</LatitudeDegrees>
              <LongitudeDegrees>-0.16755826771259307861328125</LongitudeDegrees>
            </Position>
            <AltitudeMeters>890.20001220703125</AltitudeMeters>
            <DistanceMeters>2790.3369671649</DistanceMeters>
          </Trackpoint>
          <Trackpoint>
            <Time>2019-07-06T15:57:10.000Z</Time>
            <Position>
              <LatitudeDegrees>42.537745535373687744140625</LatitudeDegrees>
              <LongitudeDegrees>-0.16755835153162479400634765625</LongitudeDegrees>
            </Position>
            <AltitudeMeters>890.20001220703125</AltitudeMeters>
            <DistanceMeters>2790.3369671649</DistanceMeters>
          </Trackpoint>
          <Trackpoint>
            <Time>2019-07-06T15:57:11.000Z</Time>
            <Position>
              <LatitudeDegrees>42.53774561919271945953369140625</LatitudeDegrees>
              <LongitudeDegrees>-0.1675587706267833709716796875</LongitudeDegrees>
            </Position>
            <AltitudeMeters>890.4000244140625</AltitudeMeters>
            <DistanceMeters>2790.3369671649</DistanceMeters>
          </Trackpoint>
          <Trackpoint>
            <Time>2019-07-06T15:57:12.000Z</Time>
            <Position>
              <LatitudeDegrees>42.537745535373687744140625</LatitudeDegrees>
              <LongitudeDegrees>-0.167559273540973663330078125</LongitudeDegrees>
            </Position>
            <AltitudeMeters>890.5999755859375</AltitudeMeters>
            <DistanceMeters>2790.3369671649</DistanceMeters>
          </Trackpoint>
          <Trackpoint>
            <Time>2019-07-06T15:57:13.000Z</Time>
            <Position>
              <LatitudeDegrees>42.5377446971833705902099609375</LatitudeDegrees>
              <LongitudeDegrees>-0.16756019555032253265380859375</LongitudeDegrees>
            </Position>
            <AltitudeMeters>890.5999755859375</AltitudeMeters>
            <DistanceMeters>2790.4713552332</DistanceMeters>
          </Trackpoint>
          <Trackpoint>
            <Time>2019-07-06T15:57:20.000Z</Time>
            <Position>
              <LatitudeDegrees>42.53773354925215244293212890625</LatitudeDegrees>
              <LongitudeDegrees>-0.16756363213062286376953125</LongitudeDegrees>
            </Position>
            <AltitudeMeters>890.5999755859375</AltitudeMeters>
            <DistanceMeters>2791.7462723913</DistanceMeters>
          </Trackpoint>
          <Trackpoint>
            <Time>2019-07-06T15:57:29.000Z</Time>
            <Position>
              <LatitudeDegrees>42.53775701858103275299072265625</LatitudeDegrees>
              <LongitudeDegrees>-0.16757410950958728790283203125</LongitudeDegrees>
            </Position>
            <AltitudeMeters>890.4000244140625</AltitudeMeters>
            <DistanceMeters>2794.4971275419</DistanceMeters>
          </Trackpoint>
          <Trackpoint>
            <Time>2019-07-06T15:57:33.000Z</Time>
            <Position>
              <LatitudeDegrees>42.5377688370645046234130859375</LatitudeDegrees>
              <LongitudeDegrees>-0.1675736904144287109375</LongitudeDegrees>
            </Position>
            <AltitudeMeters>890.4000244140625</AltitudeMeters>
            <DistanceMeters>2795.8138563209</DistanceMeters>
          </Trackpoint>
          <Trackpoint>
            <Time>2019-07-06T15:57:56.000Z</Time>
            <Position>
              <LatitudeDegrees>42.53777210600674152374267578125</LatitudeDegrees>
              <LongitudeDegrees>-0.16756623052060604095458984375</LongitudeDegrees>
            </Position>
            <AltitudeMeters>890.4000244140625</AltitudeMeters>
            <DistanceMeters>2796.5249711364</DistanceMeters>
          </Trackpoint>
          <Trackpoint>
            <Time>2019-07-06T15:58:03.000Z</Time>
            <Position>
              <LatitudeDegrees>42.53774276934564113616943359375</LatitudeDegrees>
              <LongitudeDegrees>-0.1675829105079174041748046875</LongitudeDegrees>
            </Position>
            <AltitudeMeters>890.4000244140625</AltitudeMeters>
            <DistanceMeters>2800.0639986904</DistanceMeters>
          </Trackpoint>
          <Trackpoint>
            <Time>2019-07-06T15:58:36.000Z</Time>
            <Position>
              <LatitudeDegrees>42.53767001442611217498779296875</LatitudeDegrees>
              <LongitudeDegrees>-0.16750588081777095794677734375</LongitudeDegrees>
            </Position>
            <AltitudeMeters>890</AltitudeMeters>
            <DistanceMeters>2810.3343600736</DistanceMeters>
          </Trackpoint>
          <Trackpoint>
            <Time>2019-07-06T15:59:06.000Z</Time>
            <Position>
              <LatitudeDegrees>42.53776456229388713836669921875</LatitudeDegrees>
              <LongitudeDegrees>-0.16753974370658397674560546875</LongitudeDegrees>
            </Position>
            <AltitudeMeters>890.4000244140625</AltitudeMeters>
            <DistanceMeters>2821.2185491967</DistanceMeters>
          </Trackpoint>
          <Trackpoint>
            <Time>2019-07-06T15:59:13.000Z</Time>
            <Position>
              <LatitudeDegrees>42.53778912127017974853515625</LatitudeDegrees>
              <LongitudeDegrees>-0.16757025383412837982177734375</LongitudeDegrees>
            </Position>
            <AltitudeMeters>890.5999755859375</AltitudeMeters>
            <DistanceMeters>2824.9233725656</DistanceMeters>
          </Trackpoint>
          <Trackpoint>
            <Time>2019-07-06T15:59:15.000Z</Time>
            <Position>
              <LatitudeDegrees>42.537800185382366180419921875</LatitudeDegrees>
              <LongitudeDegrees>-0.16756321303546428680419921875</LongitudeDegrees>
            </Position>
            <AltitudeMeters>890.5999755859375</AltitudeMeters>
            <DistanceMeters>2826.2806255246</DistanceMeters>
          </Trackpoint>
          <Trackpoint>
            <Time>2019-07-06T15:59:21.000Z</Time>
            <Position>
              <LatitudeDegrees>42.53775785677134990692138671875</LatitudeDegrees>
              <LongitudeDegrees>-0.16756421886384487152099609375</LongitudeDegrees>
            </Position>
            <AltitudeMeters>890.5999755859375</AltitudeMeters>
            <DistanceMeters>2830.9937972859</DistanceMeters>
          </Trackpoint>
          <Trackpoint>
            <Time>2019-07-06T15:59:26.000Z</Time>
            <Position>
              <LatitudeDegrees>42.53775559365749359130859375</LatitudeDegrees>
              <LongitudeDegrees>-0.167510993778705596923828125</LongitudeDegrees>
            </Position>
            <AltitudeMeters>890.5999755859375</AltitudeMeters>
            <DistanceMeters>2835.365026147</DistanceMeters>
          </Trackpoint>
          <Trackpoint>
            <Time>2019-07-06T15:59:28.000Z</Time>
            <Position>
              <LatitudeDegrees>42.53776104189455509185791015625</LatitudeDegrees>
              <LongitudeDegrees>-0.16751141287386417388916015625</LongitudeDegrees>
            </Position>
            <AltitudeMeters>890.5999755859375</AltitudeMeters>
            <DistanceMeters>2835.9734940049</DistanceMeters>
          </Trackpoint>
          <Trackpoint>
            <Time>2019-07-06T15:59:31.000Z</Time>
            <Position>
              <LatitudeDegrees>42.53777059726417064666748046875</LatitudeDegrees>
              <LongitudeDegrees>-0.16751325689256191253662109375</LongitudeDegrees>
            </Position>
            <AltitudeMeters>890.5999755859375</AltitudeMeters>
            <DistanceMeters>2837.0485985509</DistanceMeters>
          </Trackpoint>
          <Trackpoint>
            <Time>2019-07-06T15:59:35.000Z</Time>
            <Position>
              <LatitudeDegrees>42.5377792306244373321533203125</LatitudeDegrees>
              <LongitudeDegrees>-0.16750956885516643524169921875</LongitudeDegrees>
            </Position>
            <AltitudeMeters>890.5999755859375</AltitudeMeters>
            <DistanceMeters>2838.0542667675</DistanceMeters>
          </Trackpoint>
          <Trackpoint>
            <Time>2019-07-06T15:59:38.000Z</Time>
            <Position>
              <LatitudeDegrees>42.53778719343245029449462890625</LatitudeDegrees>
              <LongitudeDegrees>-0.1675054617226123809814453125</LongitudeDegrees>
            </Position>
            <AltitudeMeters>890.5999755859375</AltitudeMeters>
            <DistanceMeters>2838.9997706373</DistanceMeters>
          </Trackpoint>
          <Trackpoint>
            <Time>2019-07-06T15:59:54.000Z</Time>
            <Position>
              <LatitudeDegrees>42.5377534143626689910888671875</LatitudeDegrees>
              <LongitudeDegrees>-0.16749850474298000335693359375</LongitudeDegrees>
            </Position>
            <AltitudeMeters>890.5999755859375</AltitudeMeters>
            <DistanceMeters>2842.8032141381</DistanceMeters>
          </Trackpoint>
          <Trackpoint>
            <Time>2019-07-06T16:00:23.000Z</Time>
            <Position>
              <LatitudeDegrees>42.53766548819839954376220703125</LatitudeDegrees>
              <LongitudeDegrees>-0.16752029769122600555419921875</LongitudeDegrees>
            </Position>
            <AltitudeMeters>890.4000244140625</AltitudeMeters>
            <DistanceMeters>2852.7515626355</DistanceMeters>
          </Trackpoint>
          <Trackpoint>
            <Time>2019-07-06T16:00:46.000Z</Time>
            <Position>
              <LatitudeDegrees>42.537699602544307708740234375</LatitudeDegrees>
              <LongitudeDegrees>-0.16749523580074310302734375</LongitudeDegrees>
            </Position>
            <AltitudeMeters>890.5999755859375</AltitudeMeters>
            <DistanceMeters>2857.0687466459</DistanceMeters>
          </Trackpoint>
          <Trackpoint>
            <Time>2019-07-06T16:01:32.000Z</Time>
            <Position>
              <LatitudeDegrees>42.53769298084080219268798828125</LatitudeDegrees>
              <LongitudeDegrees>-0.16749246977269649505615234375</LongitudeDegrees>
            </Position>
            <AltitudeMeters>890.5999755859375</AltitudeMeters>
            <DistanceMeters>2857.8348765102</DistanceMeters>
          </Trackpoint>
          <Trackpoint>
            <Time>2019-07-06T16:01:45.000Z</Time>
            <Position>
              <LatitudeDegrees>42.5377039611339569091796875</LatitudeDegrees>
              <LongitudeDegrees>-0.16748324967920780181884765625</LongitudeDegrees>
            </Position>
            <AltitudeMeters>890.5999755859375</AltitudeMeters>
            <DistanceMeters>2859.276027988</DistanceMeters>
          </Trackpoint>
          <Trackpoint>
            <Time>2019-07-06T16:01:57.000Z</Time>
            <Position>
              <LatitudeDegrees>42.5376957468688488006591796875</LatitudeDegrees>
              <LongitudeDegrees>-0.16749121248722076416015625</LongitudeDegrees>
            </Position>
            <AltitudeMeters>890.5999755859375</AltitudeMeters>
            <DistanceMeters>2860.3963764274</DistanceMeters>
          </Trackpoint>
          <Trackpoint>
            <Time>2019-07-06T16:02:00.000Z</Time>
            <Position>
              <LatitudeDegrees>42.537691555917263031005859375</LatitudeDegrees>
              <LongitudeDegrees>-0.16749364323914051055908203125</LongitudeDegrees>
            </Position>
            <AltitudeMeters>890.5999755859375</AltitudeMeters>
            <DistanceMeters>2860.9081109454</DistanceMeters>
          </Trackpoint>
          <Trackpoint>
            <Time>2019-07-06T16:02:11.000Z</Time>
            <Position>
              <LatitudeDegrees>42.5376789830625057220458984375</LatitudeDegrees>
              <LongitudeDegrees>-0.16748308204114437103271484375</LongitudeDegrees>
            </Position>
            <AltitudeMeters>890.5999755859375</AltitudeMeters>
            <DistanceMeters>2862.554021919</DistanceMeters>
          </Trackpoint>
          <Trackpoint>
            <Time>2019-07-06T16:02:30.000Z</Time>
            <Position>
              <LatitudeDegrees>42.5376771390438079833984375</LatitudeDegrees>
              <LongitudeDegrees>-0.16751535236835479736328125</LongitudeDegrees>
            </Position>
            <AltitudeMeters>890.5999755859375</AltitudeMeters>
            <DistanceMeters>2865.2079736191</DistanceMeters>
          </Trackpoint>
          <Trackpoint>
            <Time>2019-07-06T16:02:48.000Z</Time>
            <Position>
              <LatitudeDegrees>42.53766708076000213623046875</LatitudeDegrees>
              <LongitudeDegrees>-0.16752867959439754486083984375</LongitudeDegrees>
            </Position>
            <AltitudeMeters>890.5999755859375</AltitudeMeters>
            <DistanceMeters>2866.7694218699</DistanceMeters>
          </Trackpoint>
          <Trackpoint>
            <Time>2019-07-06T16:03:10.000Z</Time>
            <Position>
              <LatitudeDegrees>42.53767236135900020599365234375</LatitudeDegrees>
              <LongitudeDegrees>-0.1675138436257839202880859375</LongitudeDegrees>
            </Position>
            <AltitudeMeters>890.5999755859375</AltitudeMeters>
            <DistanceMeters>2868.1200052408</DistanceMeters>
          </Trackpoint>
          <Trackpoint>
            <Time>2019-07-06T16:03:12.000Z</Time>
            <Position>
              <LatitudeDegrees>42.53767370246350765228271484375</LatitudeDegrees>
              <LongitudeDegrees>-0.16751375980675220489501953125</LongitudeDegrees>
            </Position>
            <AltitudeMeters>890.5999755859375</AltitudeMeters>
            <DistanceMeters>2868.254393309</DistanceMeters>
          </Trackpoint>
          <Trackpoint>
            <Time>2019-07-06T16:03:44.000Z</Time>
            <Position>
              <LatitudeDegrees>42.5376763008534908294677734375</LatitudeDegrees>
              <LongitudeDegrees>-0.167390294373035430908203125</LongitudeDegrees>
            </Position>
            <AltitudeMeters>890.5999755859375</AltitudeMeters>
            <DistanceMeters>2878.3844371741</DistanceMeters>
          </Trackpoint>
          <Trackpoint>
            <Time>2019-07-06T16:04:05.000Z</Time>
            <Position>
              <LatitudeDegrees>42.53770404495298862457275390625</LatitudeDegrees>
              <LongitudeDegrees>-0.16742893494665622711181640625</LongitudeDegrees>
            </Position>
            <AltitudeMeters>890.5999755859375</AltitudeMeters>
            <DistanceMeters>2882.8090507991</DistanceMeters>
          </Trackpoint>
          <Trackpoint>
            <Time>2019-07-06T16:04:29.000Z</Time>
            <Position>
              <LatitudeDegrees>42.5378516502678394317626953125</LatitudeDegrees>
              <LongitudeDegrees>-0.1676030270755290985107421875</LongitudeDegrees>
            </Position>
            <AltitudeMeters>891</AltitudeMeters>
            <DistanceMeters>2904.5747325132</DistanceMeters>
          </Trackpoint>
          <Trackpoint>
            <Time>2019-07-06T16:04:39.000Z</Time>
            <Position>
              <LatitudeDegrees>42.53779155202209949493408203125</LatitudeDegrees>
              <LongitudeDegrees>-0.16759984195232391357421875</LongitudeDegrees>
            </Position>
            <AltitudeMeters>889.5999755859375</AltitudeMeters>
            <DistanceMeters>2911.2692279678</DistanceMeters>
          </Trackpoint>
          <Trackpoint>
            <Time>2019-07-06T16:04:45.000Z</Time>
            <Position>
              <LatitudeDegrees>42.53774746321141719818115234375</LatitudeDegrees>
              <LongitudeDegrees>-0.16756840981543064117431640625</LongitudeDegrees>
            </Position>
            <AltitudeMeters>890</AltitudeMeters>
            <DistanceMeters>2916.8134484013</DistanceMeters>
          </Trackpoint>
          <Trackpoint>
            <Time>2019-07-06T16:05:02.000Z</Time>
            <Position>
              <LatitudeDegrees>42.537652663886547088623046875</LatitudeDegrees>
              <LongitudeDegrees>-0.167481489479541778564453125</LongitudeDegrees>
            </Position>
            <AltitudeMeters>889.79998779296875</AltitudeMeters>
            <DistanceMeters>2929.5473826992</DistanceMeters>
          </Trackpoint>
          <Trackpoint>
            <Time>2019-07-06T16:05:08.000Z</Time>
            <Position>
              <LatitudeDegrees>42.537631206214427947998046875</LatitudeDegrees>
              <LongitudeDegrees>-0.16746832989156246185302734375</LongitudeDegrees>
            </Position>
            <AltitudeMeters>889.79998779296875</AltitudeMeters>
            <DistanceMeters>2932.1670884265</DistanceMeters>
          </Trackpoint>
          <Trackpoint>
            <Time>2019-07-06T16:05:10.000Z</Time>
            <Position>
              <LatitudeDegrees>42.5376315414905548095703125</LatitudeDegrees>
              <LongitudeDegrees>-0.16746170818805694580078125</LongitudeDegrees>
            </Position>
            <AltitudeMeters>889.79998779296875</AltitudeMeters>
            <DistanceMeters>2932.7046406995</DistanceMeters>
          </Trackpoint>
          <Trackpoint>
            <Time>2019-07-06T16:05:34.000Z</Time>
            <Position>
              <LatitudeDegrees>42.537643946707248687744140625</LatitudeDegrees>
              <LongitudeDegrees>-0.16751711256802082061767578125</LongitudeDegrees>
            </Position>
            <AltitudeMeters>889.5999755859375</AltitudeMeters>
            <DistanceMeters>2937.4531247608</DistanceMeters>
          </Trackpoint>
          <Trackpoint>
            <Time>2019-07-06T16:05:35.000Z</Time>
            <Position>
              <LatitudeDegrees>42.537646628916263580322265625</LatitudeDegrees>
              <LongitudeDegrees>-0.1675151847302913665771484375</LongitudeDegrees>
            </Position>
            <AltitudeMeters>889.5999755859375</AltitudeMeters>
            <DistanceMeters>2937.8086821686</DistanceMeters>
          </Trackpoint>
          <Trackpoint>
            <Time>2019-07-06T16:05:55.000Z</Time>
            <Position>
              <LatitudeDegrees>42.53771930001676082611083984375</LatitudeDegrees>
              <LongitudeDegrees>-0.167404711246490478515625</LongitudeDegrees>
            </Position>
            <AltitudeMeters>890.20001220703125</AltitudeMeters>
            <DistanceMeters>2949.9538992812</DistanceMeters>
          </Trackpoint>
          <Trackpoint>
            <Time>2019-07-06T16:06:05.000Z</Time>
            <Position>
              <LatitudeDegrees>42.53773706965148448944091796875</LatitudeDegrees>
              <LongitudeDegrees>-0.1673706807196140289306640625</LongitudeDegrees>
            </Position>
            <AltitudeMeters>890.20001220703125</AltitudeMeters>
            <DistanceMeters>2953.3748609985</DistanceMeters>
          </Trackpoint>
          <Trackpoint>
            <Time>2019-07-06T16:06:22.000Z</Time>
            <Position>
              <LatitudeDegrees>42.5377805717289447784423828125</LatitudeDegrees>
              <LongitudeDegrees>-0.16739708371460437774658203125</LongitudeDegrees>
            </Position>
            <AltitudeMeters>889.5999755859375</AltitudeMeters>
            <DistanceMeters>2958.6785095656</DistanceMeters>
          </Trackpoint>
          <Trackpoint>
            <Time>2019-07-06T16:06:28.000Z</Time>
            <Position>
              <LatitudeDegrees>42.5377597846090793609619140625</LatitudeDegrees>
              <LongitudeDegrees>-0.16738417558372020721435546875</LongitudeDegrees>
            </Position>
            <AltitudeMeters>889.5999755859375</AltitudeMeters>
            <DistanceMeters>2961.2212511438</DistanceMeters>
          </Trackpoint>
          <Trackpoint>
            <Time>2019-07-06T16:06:29.000Z</Time>
            <Position>
              <LatitudeDegrees>42.5377587787806987762451171875</LatitudeDegrees>
              <LongitudeDegrees>-0.1673807390034198760986328125</LongitudeDegrees>
            </Position>
            <AltitudeMeters>889.5999755859375</AltitudeMeters>
            <DistanceMeters>2961.5217519998</DistanceMeters>
          </Trackpoint>
          <Trackpoint>
            <Time>2019-07-06T16:06:43.000Z</Time>
            <Position>
              <LatitudeDegrees>42.537711672484874725341796875</LatitudeDegrees>
              <LongitudeDegrees>-0.167386941611766815185546875</LongitudeDegrees>
            </Position>
            <AltitudeMeters>889.5999755859375</AltitudeMeters>
            <DistanceMeters>2966.789524291</DistanceMeters>
          </Trackpoint>
          <Trackpoint>
            <Time>2019-07-06T16:06:51.000Z</Time>
            <Position>
              <LatitudeDegrees>42.53770538605749607086181640625</LatitudeDegrees>
              <LongitudeDegrees>-0.1674221456050872802734375</LongitudeDegrees>
            </Position>
            <AltitudeMeters>889.5999755859375</AltitudeMeters>
            <DistanceMeters>2969.7582537515</DistanceMeters>
          </Trackpoint>
          <Trackpoint>
            <Time>2019-07-06T16:06:54.000Z</Time>
            <Position>
              <LatitudeDegrees>42.53770957700908184051513671875</LatitudeDegrees>
              <LongitudeDegrees>-0.16743698157370090484619140625</LongitudeDegrees>
            </Position>
            <AltitudeMeters>889.5999755859375</AltitudeMeters>
            <DistanceMeters>2971.0611944145</DistanceMeters>
          </Trackpoint>
          <Trackpoint>
            <Time>2019-07-06T16:07:04.000Z</Time>
            <Position>
              <LatitudeDegrees>42.53768526948988437652587890625</LatitudeDegrees>
              <LongitudeDegrees>-0.16746975481510162353515625</LongitudeDegrees>
            </Position>
            <AltitudeMeters>889.5999755859375</AltitudeMeters>
            <DistanceMeters>2974.8753067819</DistanceMeters>
          </Trackpoint>
          <Trackpoint>
            <Time>2019-07-06T16:07:26.000Z</Time>
            <Position>
              <LatitudeDegrees>42.5377141870558261871337890625</LatitudeDegrees>
              <LongitudeDegrees>-0.16748207621276378631591796875</LongitudeDegrees>
            </Position>
            <AltitudeMeters>889.5999755859375</AltitudeMeters>
            <DistanceMeters>2978.2484205244</DistanceMeters>
          </Trackpoint>
          <Trackpoint>
            <Time>2019-07-06T16:07:32.000Z</Time>
            <Position>
              <LatitudeDegrees>42.53770471550524234771728515625</LatitudeDegrees>
              <LongitudeDegrees>-0.1675098203122615814208984375</LongitudeDegrees>
            </Position>
            <AltitudeMeters>889.5999755859375</AltitudeMeters>
            <DistanceMeters>2980.7553974299</DistanceMeters>
          </Trackpoint>
          <Trackpoint>
            <Time>2019-07-06T16:07:42.000Z</Time>
            <Position>
              <LatitudeDegrees>42.537675797939300537109375</LatitudeDegrees>
              <LongitudeDegrees>-0.16752029769122600555419921875</LongitudeDegrees>
            </Position>
            <AltitudeMeters>889.5999755859375</AltitudeMeters>
            <DistanceMeters>2984.085402516</DistanceMeters>
          </Trackpoint>
          <Trackpoint>
            <Time>2019-07-06T16:07:59.000Z</Time>
            <Position>
              <LatitudeDegrees>42.537664063274860382080078125</LatitudeDegrees>
              <LongitudeDegrees>-0.1675413362681865692138671875</LongitudeDegrees>
            </Position>
            <AltitudeMeters>889.5999755859375</AltitudeMeters>
            <DistanceMeters>2986.2481737933</DistanceMeters>
          </Trackpoint>
          <Trackpoint>
            <Time>2019-07-06T16:08:01.000Z</Time>
            <Position>
              <LatitudeDegrees>42.5376602075994014739990234375</LatitudeDegrees>
              <LongitudeDegrees>-0.167543850839138031005859375</LongitudeDegrees>
            </Position>
            <AltitudeMeters>889.5999755859375</AltitudeMeters>
            <DistanceMeters>2986.7327168642</DistanceMeters>
          </Trackpoint>
          <Trackpoint>
            <Time>2019-07-06T16:08:10.000Z</Time>
            <Position>
              <LatitudeDegrees>42.5376742891967296600341796875</LatitudeDegrees>
              <LongitudeDegrees>-0.1675550825893878936767578125</LongitudeDegrees>
            </Position>
            <AltitudeMeters>889.5999755859375</AltitudeMeters>
            <DistanceMeters>2988.5506849548</DistanceMeters>
          </Trackpoint>
          <Trackpoint>
            <Time>2019-07-06T16:08:18.000Z</Time>
            <Position>
              <LatitudeDegrees>42.53770555369555950164794921875</LatitudeDegrees>
              <LongitudeDegrees>-0.16756824217736721038818359375</LongitudeDegrees>
            </Position>
            <AltitudeMeters>889.5999755859375</AltitudeMeters>
            <DistanceMeters>2992.1940642066</DistanceMeters>
          </Trackpoint>
          <Trackpoint>
            <Time>2019-07-06T16:08:21.000Z</Time>
            <Position>
              <LatitudeDegrees>42.53771108575165271759033203125</LatitudeDegrees>
              <LongitudeDegrees>-0.1675617881119251251220703125</LongitudeDegrees>
            </Position>
            <AltitudeMeters>889.5999755859375</AltitudeMeters>
            <DistanceMeters>2993.0003926161</DistanceMeters>
          </Trackpoint>
          <Trackpoint>
            <Time>2019-07-06T16:08:42.000Z</Time>
            <Position>
              <LatitudeDegrees>42.5376763008534908294677734375</LatitudeDegrees>
              <LongitudeDegrees>-0.16757779754698276519775390625</LongitudeDegrees>
            </Position>
            <AltitudeMeters>889.5999755859375</AltitudeMeters>
            <DistanceMeters>2997.0876461465</DistanceMeters>
          </Trackpoint>
          <Trackpoint>
            <Time>2019-07-06T16:08:56.000Z</Time>
            <Position>
              <LatitudeDegrees>42.5377044640481472015380859375</LatitudeDegrees>
              <LongitudeDegrees>-0.167556591331958770751953125</LongitudeDegrees>
            </Position>
            <AltitudeMeters>889.5999755859375</AltitudeMeters>
            <DistanceMeters>3000.6723077455</DistanceMeters>
          </Trackpoint>
          <Trackpoint>
            <Time>2019-07-06T16:09:17.000Z</Time>
            <Position>
              <LatitudeDegrees>42.53770438022911548614501953125</LatitudeDegrees>
              <LongitudeDegrees>-0.16756094992160797119140625</LongitudeDegrees>
            </Position>
            <AltitudeMeters>889.5999755859375</AltitudeMeters>
            <DistanceMeters>3001.0278651533</DistanceMeters>
          </Trackpoint>
          <Trackpoint>
            <Time>2019-07-06T16:09:46.000Z</Time>
            <Position>
              <LatitudeDegrees>42.53767621703445911407470703125</LatitudeDegrees>
              <LongitudeDegrees>-0.1675218902528285980224609375</LongitudeDegrees>
            </Position>
            <AltitudeMeters>889.5999755859375</AltitudeMeters>
            <DistanceMeters>3005.509258911</DistanceMeters>
          </Trackpoint>
          <Trackpoint>
            <Time>2019-07-06T16:09:48.000Z</Time>
            <Position>
              <LatitudeDegrees>42.53767780959606170654296875</LatitudeDegrees>
              <LongitudeDegrees>-0.16752130351960659027099609375</LongitudeDegrees>
            </Position>
            <AltitudeMeters>889.5999755859375</AltitudeMeters>
            <DistanceMeters>3005.6738500083</DistanceMeters>
          </Trackpoint>
          <Trackpoint>
            <Time>2019-07-06T16:09:51.000Z</Time>
            <Position>
              <LatitudeDegrees>42.53767906688153743743896484375</LatitudeDegrees>
              <LongitudeDegrees>-0.16751694492995738983154296875</LongitudeDegrees>
            </Position>
            <AltitudeMeters>889.5999755859375</AltitudeMeters>
            <DistanceMeters>3006.0539568658</DistanceMeters>
          </Trackpoint>
          <Trackpoint>
            <Time>2019-07-06T16:10:05.000Z</Time>
            <Position>
              <LatitudeDegrees>42.5376736186444759368896484375</LatitudeDegrees>
              <LongitudeDegrees>-0.167495571076869964599609375</LongitudeDegrees>
            </Position>
            <AltitudeMeters>889.5999755859375</AltitudeMeters>
            <DistanceMeters>3007.9088043326</DistanceMeters>
          </Trackpoint>
          <Trackpoint>
            <Time>2019-07-06T16:10:06.000Z</Time>
            <Position>
              <LatitudeDegrees>42.53767185844480991363525390625</LatitudeDegrees>
              <LongitudeDegrees>-0.16749481670558452606201171875</LongitudeDegrees>
            </Position>
            <AltitudeMeters>889.5999755859375</AltitudeMeters>
            <DistanceMeters>3008.1415712948</DistanceMeters>
          </Trackpoint>
          <Trackpoint>
            <Time>2019-07-06T16:10:07.000Z</Time>
            <Position>
              <LatitudeDegrees>42.53766934387385845184326171875</LatitudeDegrees>
              <LongitudeDegrees>-0.16749314032495021820068359375</LongitudeDegrees>
            </Position>
            <AltitudeMeters>889.5999755859375</AltitudeMeters>
            <DistanceMeters>3008.4420721507</DistanceMeters>
          </Trackpoint>
          <Trackpoint>
            <Time>2019-07-06T16:10:08.000Z</Time>
            <Position>
              <LatitudeDegrees>42.53767001442611217498779296875</LatitudeDegrees>
              <LongitudeDegrees>-0.16748182475566864013671875</LongitudeDegrees>
            </Position>
            <AltitudeMeters>889.5999755859375</AltitudeMeters>
            <DistanceMeters>3009.3731399993</DistanceMeters>
          </Trackpoint>
          <Trackpoint>
            <Time>2019-07-06T16:10:09.000Z</Time>
            <Position>
              <LatitudeDegrees>42.537669427692890167236328125</LatitudeDegrees>
              <LongitudeDegrees>-0.1674677431583404541015625</LongitudeDegrees>
            </Position>
            <AltitudeMeters>889.5999755859375</AltitudeMeters>
            <DistanceMeters>3010.5330888732</DistanceMeters>
          </Trackpoint>
          <Trackpoint>
            <Time>2019-07-06T16:10:10.000Z</Time>
            <Position>
              <LatitudeDegrees>42.53767102025449275970458984375</LatitudeDegrees>
              <LongitudeDegrees>-0.16745123080909252166748046875</LongitudeDegrees>
            </Position>
            <AltitudeMeters>889.5999755859375</AltitudeMeters>
            <DistanceMeters>3011.8969788055</DistanceMeters>
          </Trackpoint>
          <Trackpoint>
            <Time>2019-07-06T16:10:12.000Z</Time>
            <Position>
              <LatitudeDegrees>42.537672109901905059814453125</LatitudeDegrees>
              <LongitudeDegrees>-0.16742206178605556488037109375</LongitudeDegrees>
            </Position>
            <AltitudeMeters>889.5999755859375</AltitudeMeters>
            <DistanceMeters>3014.2934613568</DistanceMeters>
          </Trackpoint>
          <Trackpoint>
            <Time>2019-07-06T16:10:15.000Z</Time>
            <Position>
              <LatitudeDegrees>42.537681497633457183837890625</LatitudeDegrees>
              <LongitudeDegrees>-0.16738568432629108428955078125</LongitudeDegrees>
            </Position>
            <AltitudeMeters>889.5999755859375</AltitudeMeters>
            <DistanceMeters>3017.4537247235</DistanceMeters>
          </Trackpoint>
          <Trackpoint>
            <Time>2019-07-06T16:10:20.000Z</Time>
            <Position>
              <LatitudeDegrees>42.53768560476601123809814453125</LatitudeDegrees>
              <LongitudeDegrees>-0.16735282726585865020751953125</LongitudeDegrees>
            </Position>
            <AltitudeMeters>889.79998779296875</AltitudeMeters>
            <DistanceMeters>3020.1864656953</DistanceMeters>
          </Trackpoint>
          <Trackpoint>
            <Time>2019-07-06T16:10:22.000Z</Time>
            <Position>
              <LatitudeDegrees>42.537682168185710906982421875</LatitudeDegrees>
              <LongitudeDegrees>-0.16735098324716091156005859375</LongitudeDegrees>
            </Position>
            <AltitudeMeters>889.5999755859375</AltitudeMeters>
            <DistanceMeters>3020.6006775402</DistanceMeters>
          </Trackpoint>
          <Trackpoint>
            <Time>2019-07-06T16:10:39.000Z</Time>
            <Position>
              <LatitudeDegrees>42.53765341825783252716064453125</LatitudeDegrees>
              <LongitudeDegrees>-0.16740831546485424041748046875</LongitudeDegrees>
            </Position>
            <AltitudeMeters>890.20001220703125</AltitudeMeters>
            <DistanceMeters>3026.288008533</DistanceMeters>
          </Trackpoint>
          <Trackpoint>
            <Time>2019-07-06T16:10:40.000Z</Time>
            <Position>
              <LatitudeDegrees>42.53765542991459369659423828125</LatitudeDegrees>
              <LongitudeDegrees>-0.16741032712161540985107421875</LongitudeDegrees>
            </Position>
            <AltitudeMeters>890</AltitudeMeters>
            <DistanceMeters>3026.5730886762</DistanceMeters>
          </Trackpoint>
          <Trackpoint>
            <Time>2019-07-06T16:10:41.000Z</Time>
            <Position>
              <LatitudeDegrees>42.53765593282878398895263671875</LatitudeDegrees>
              <LongitudeDegrees>-0.1674112491309642791748046875</LongitudeDegrees>
            </Position>
            <AltitudeMeters>889.20001220703125</AltitudeMeters>
            <DistanceMeters>3026.6681153905</DistanceMeters>
          </Trackpoint>
          <Trackpoint>
            <Time>2019-07-06T16:10:42.000Z</Time>
            <Position>
              <LatitudeDegrees>42.5376565195620059967041015625</LatitudeDegrees>
              <LongitudeDegrees>-0.1674122549593448638916015625</LongitudeDegrees>
            </Position>
            <AltitudeMeters>889.5999755859375</AltitudeMeters>
            <DistanceMeters>3026.8025034588</DistanceMeters>
          </Trackpoint>
          <Trackpoint>
            <Time>2019-07-06T16:10:54.000Z</Time>
            <Position>
              <LatitudeDegrees>42.53765928559005260467529296875</LatitudeDegrees>
              <LongitudeDegrees>-0.16742273233830928802490234375</LongitudeDegrees>
            </Position>
            <AltitudeMeters>889.5999755859375</AltitudeMeters>
            <DistanceMeters>3027.7139676834</DistanceMeters>
          </Trackpoint>
          <Trackpoint>
            <Time>2019-07-06T16:11:14.000Z</Time>
            <Position>
              <LatitudeDegrees>42.5376783125102519989013671875</LatitudeDegrees>
              <LongitudeDegrees>-0.16741552390158176422119140625</LongitudeDegrees>
            </Position>
            <AltitudeMeters>889.4000244140625</AltitudeMeters>
            <DistanceMeters>3029.9139951774</DistanceMeters>
          </Trackpoint>
          <Trackpoint>
            <Time>2019-07-06T16:11:40.000Z</Time>
            <Position>
              <LatitudeDegrees>42.5376028753817081451416015625</LatitudeDegrees>
              <LongitudeDegrees>-0.16748408786952495574951171875</LongitudeDegrees>
            </Position>
            <AltitudeMeters>889.20001220703125</AltitudeMeters>
            <DistanceMeters>3040.0194953879</DistanceMeters>
          </Trackpoint>
          <Trackpoint>
            <Time>2019-07-06T16:12:08.000Z</Time>
            <Position>
              <LatitudeDegrees>42.5376261770725250244140625</LatitudeDegrees>
              <LongitudeDegrees>-0.1675011031329631805419921875</LongitudeDegrees>
            </Position>
            <AltitudeMeters>889.20001220703125</AltitudeMeters>
            <DistanceMeters>3042.9653235333</DistanceMeters>
          </Trackpoint>
          <Trackpoint>
            <Time>2019-07-06T16:12:26.000Z</Time>
            <Position>
              <LatitudeDegrees>42.53766615875065326690673828125</LatitudeDegrees>
              <LongitudeDegrees>-0.16749498434364795684814453125</LongitudeDegrees>
            </Position>
            <AltitudeMeters>889.20001220703125</AltitudeMeters>
            <DistanceMeters>3047.4436937483</DistanceMeters>
          </Trackpoint>
          <Trackpoint>
            <Time>2019-07-06T16:12:32.000Z</Time>
            <Position>
              <LatitudeDegrees>42.53762424923479557037353515625</LatitudeDegrees>
              <LongitudeDegrees>-0.16749967820942401885986328125</LongitudeDegrees>
            </Position>
            <AltitudeMeters>889.20001220703125</AltitudeMeters>
            <DistanceMeters>3052.1241814849</DistanceMeters>
          </Trackpoint>
          <Trackpoint>
            <Time>2019-07-06T16:12:41.000Z</Time>
            <Position>
              <LatitudeDegrees>42.53757479600608348846435546875</LatitudeDegrees>
              <LongitudeDegrees>-0.16754242591559886932373046875</LongitudeDegrees>
            </Position>
            <AltitudeMeters>889.20001220703125</AltitudeMeters>
            <DistanceMeters>3058.6499642357</DistanceMeters>
          </Trackpoint>
          <Trackpoint>
            <Time>2019-07-06T16:12:58.000Z</Time>
            <Position>
              <LatitudeDegrees>42.53759256564080715179443359375</LatitudeDegrees>
              <LongitudeDegrees>-0.16756840981543064117431640625</LongitudeDegrees>
            </Position>
            <AltitudeMeters>889.20001220703125</AltitudeMeters>
            <DistanceMeters>3061.557222661</DistanceMeters>
          </Trackpoint>
          <Trackpoint>
            <Time>2019-07-06T16:13:06.000Z</Time>
            <Position>
              <LatitudeDegrees>42.53761352039873600006103515625</LatitudeDegrees>
              <LongitudeDegrees>-0.1675621233880519866943359375</LongitudeDegrees>
            </Position>
            <AltitudeMeters>889.20001220703125</AltitudeMeters>
            <DistanceMeters>3063.942374262</DistanceMeters>
          </Trackpoint>
          <Trackpoint>
            <Time>2019-07-06T16:13:16.000Z</Time>
            <Position>
              <LatitudeDegrees>42.53761067055165767669677734375</LatitudeDegrees>
              <LongitudeDegrees>-0.1674467884004116058349609375</LongitudeDegrees>
            </Position>
            <AltitudeMeters>889.20001220703125</AltitudeMeters>
            <DistanceMeters>3073.4069586862</DistanceMeters>
          </Trackpoint>
          <Trackpoint>
            <Time>2019-07-06T16:13:20.000Z</Time>
            <Position>
              <LatitudeDegrees>42.53764134831726551055908203125</LatitudeDegrees>
              <LongitudeDegrees>-0.1674829982221126556396484375</LongitudeDegrees>
            </Position>
            <AltitudeMeters>889.20001220703125</AltitudeMeters>
            <DistanceMeters>3077.9324656606</DistanceMeters>
          </Trackpoint>
          <Trackpoint>
            <Time>2019-07-06T16:13:22.000Z</Time>
            <Position>
              <LatitudeDegrees>42.5376541726291179656982421875</LatitudeDegrees>
              <LongitudeDegrees>-0.16748995520174503326416015625</LongitudeDegrees>
            </Position>
            <AltitudeMeters>889.20001220703125</AltitudeMeters>
            <DistanceMeters>3079.4706074058</DistanceMeters>
          </Trackpoint>
          <Trackpoint>
            <Time>2019-07-06T16:13:23.000Z</Time>
            <Position>
              <LatitudeDegrees>42.537651993334293365478515625</LatitudeDegrees>
              <LongitudeDegrees>-0.1674918830394744873046875</LongitudeDegrees>
            </Position>
            <AltitudeMeters>889.20001220703125</AltitudeMeters>
            <DistanceMeters>3079.7711082617</DistanceMeters>
          </Trackpoint>
          <Trackpoint>
            <Time>2019-07-06T16:13:39.000Z</Time>
            <Position>
              <LatitudeDegrees>42.53764218650758266448974609375</LatitudeDegrees>
              <LongitudeDegrees>-0.167496241629123687744140625</LongitudeDegrees>
            </Position>
            <AltitudeMeters>889.20001220703125</AltitudeMeters>
            <DistanceMeters>3080.9193204202</DistanceMeters>
          </Trackpoint>
          <Trackpoint>
            <Time>2019-07-06T16:13:50.000Z</Time>
            <Position>
              <LatitudeDegrees>42.5376055575907230377197265625</LatitudeDegrees>
              <LongitudeDegrees>-0.16752398572862148284912109375</LongitudeDegrees>
            </Position>
            <AltitudeMeters>889.20001220703125</AltitudeMeters>
            <DistanceMeters>3085.588217992</DistanceMeters>
          </Trackpoint>
          <Trackpoint>
            <Time>2019-07-06T16:14:07.000Z</Time>
            <Position>
              <LatitudeDegrees>42.53764889203011989593505859375</LatitudeDegrees>
              <LongitudeDegrees>-0.16753488220274448394775390625</LongitudeDegrees>
            </Position>
            <AltitudeMeters>889.20001220703125</AltitudeMeters>
            <DistanceMeters>3090.4929222284</DistanceMeters>
          </Trackpoint>
          <Trackpoint>
            <Time>2019-07-06T16:14:11.000Z</Time>
            <Position>
              <LatitudeDegrees>42.53766439855098724365234375</LatitudeDegrees>
              <LongitudeDegrees>-0.1675245724618434906005859375</LongitudeDegrees>
            </Position>
            <AltitudeMeters>889.20001220703125</AltitudeMeters>
            <DistanceMeters>3092.4147185926</DistanceMeters>
          </Trackpoint>
          <Trackpoint>
            <Time>2019-07-06T16:14:16.000Z</Time>
            <Position>
              <LatitudeDegrees>42.5376682542264461517333984375</LatitudeDegrees>
              <LongitudeDegrees>-0.16752247698605060577392578125</LongitudeDegrees>
            </Position>
            <AltitudeMeters>889.20001220703125</AltitudeMeters>
            <DistanceMeters>3092.8704507049</DistanceMeters>
          </Trackpoint>
          <Trackpoint>
            <Time>2019-07-06T16:15:06.000Z</Time>
            <Position>
              <LatitudeDegrees>42.5377212278544902801513671875</LatitudeDegrees>
              <LongitudeDegrees>-0.1676026917994022369384765625</LongitudeDegrees>
            </Position>
            <AltitudeMeters>889.20001220703125</AltitudeMeters>
            <DistanceMeters>3101.7043581433</DistanceMeters>
          </Trackpoint>
          <Trackpoint>
            <Time>2019-07-06T16:15:08.000Z</Time>
            <Position>
              <LatitudeDegrees>42.53771276213228702545166015625</LatitudeDegrees>
              <LongitudeDegrees>-0.16760864295065402984619140625</LongitudeDegrees>
            </Position>
            <AltitudeMeters>889.20001220703125</AltitudeMeters>
            <DistanceMeters>3102.7710303665</DistanceMeters>
          </Trackpoint>
          <Trackpoint>
            <Time>2019-07-06T16:15:20.000Z</Time>
            <Position>
              <LatitudeDegrees>42.5377094931900501251220703125</LatitudeDegrees>
              <LongitudeDegrees>-0.16760210506618022918701171875</LongitudeDegrees>
            </Position>
            <AltitudeMeters>889.20001220703125</AltitudeMeters>
            <DistanceMeters>3103.4225006981</DistanceMeters>
          </Trackpoint>
          <Trackpoint>
            <Time>2019-07-06T16:15:33.000Z</Time>
            <Position>
              <LatitudeDegrees>42.53768962807953357696533203125</LatitudeDegrees>
              <LongitudeDegrees>-0.1675765402615070343017578125</LongitudeDegrees>
            </Position>
            <AltitudeMeters>889.20001220703125</AltitudeMeters>
            <DistanceMeters>3106.4722513005</DistanceMeters>
          </Trackpoint>
          <Trackpoint>
            <Time>2019-07-06T16:15:37.000Z</Time>
            <Position>
              <LatitudeDegrees>42.53766833804547786712646484375</LatitudeDegrees>
              <LongitudeDegrees>-0.1675616204738616943359375</LongitudeDegrees>
            </Position>
            <AltitudeMeters>889.20001220703125</AltitudeMeters>
            <DistanceMeters>3109.1397782897</DistanceMeters>
          </Trackpoint>
          <Trackpoint>
            <Time>2019-07-06T16:15:46.000Z</Time>
            <Position>
              <LatitudeDegrees>42.537645287811756134033203125</LatitudeDegrees>
              <LongitudeDegrees>-0.16755851916968822479248046875</LongitudeDegrees>
            </Position>
            <AltitudeMeters>889.20001220703125</AltitudeMeters>
            <DistanceMeters>3111.717788426</DistanceMeters>
          </Trackpoint>
          <Trackpoint>
            <Time>2019-07-06T16:15:48.000Z</Time>
            <Position>
              <LatitudeDegrees>42.53764872439205646514892578125</LatitudeDegrees>
              <LongitudeDegrees>-0.16755365766584873199462890625</LongitudeDegrees>
            </Position>
            <AltitudeMeters>889.20001220703125</AltitudeMeters>
            <DistanceMeters>3112.2636753398</DistanceMeters>
          </Trackpoint>
          <Trackpoint>
            <Time>2019-07-06T16:15:50.000Z</Time>
            <Position>
              <LatitudeDegrees>42.53765844739973545074462890625</LatitudeDegrees>
              <LongitudeDegrees>-0.16754510812461376190185546875</LongitudeDegrees>
            </Position>
            <AltitudeMeters>889.20001220703125</AltitudeMeters>
            <DistanceMeters>3113.5491729046</DistanceMeters>
          </Trackpoint>
          <Trackpoint>
            <Time>2019-07-06T16:15:54.000Z</Time>
            <Position>
              <LatitudeDegrees>42.5376628898084163665771484375</LatitudeDegrees>
              <LongitudeDegrees>-0.16753890551626682281494140625</LongitudeDegrees>
            </Position>
            <AltitudeMeters>889.20001220703125</AltitudeMeters>
            <DistanceMeters>3114.266608865</DistanceMeters>
          </Trackpoint>
          <Trackpoint>
            <Time>2019-07-06T16:17:36.000Z</Time>
            <Position>
              <LatitudeDegrees>42.5376234948635101318359375</LatitudeDegrees>
              <LongitudeDegrees>-0.1675460301339626312255859375</LongitudeDegrees>
            </Position>
            <AltitudeMeters>889.20001220703125</AltitudeMeters>
            <DistanceMeters>3118.69122249</DistanceMeters>
          </Trackpoint>
          <Trackpoint>
            <Time>2019-07-06T16:17:42.000Z</Time>
            <Position>
              <LatitudeDegrees>42.53760404884815216064453125</LatitudeDegrees>
              <LongitudeDegrees>-0.16755826771259307861328125</LongitudeDegrees>
            </Position>
            <AltitudeMeters>889.20001220703125</AltitudeMeters>
            <DistanceMeters>3121.076374091</DistanceMeters>
          </Trackpoint>
          <Trackpoint>
            <Time>2019-07-06T16:17:49.000Z</Time>
            <Position>
              <LatitudeDegrees>42.53758904524147510528564453125</LatitudeDegrees>
              <LongitudeDegrees>-0.16758567653596401214599609375</LongitudeDegrees>
            </Position>
            <AltitudeMeters>889.20001220703125</AltitudeMeters>
            <DistanceMeters>3123.8792594804</DistanceMeters>
          </Trackpoint>
          <Trackpoint>
            <Time>2019-07-06T16:32:34.000Z</Time>
            <Position>
              <LatitudeDegrees>42.53752282820641994476318359375</LatitudeDegrees>
              <LongitudeDegrees>-0.16765172593295574188232421875</LongitudeDegrees>
            </Position>
            <AltitudeMeters>888.5999755859375</AltitudeMeters>
            <DistanceMeters>3133.0255498857</DistanceMeters>
          </Trackpoint>
          <Trackpoint>
            <Time>2019-07-06T16:32:35.000Z</Time>
            <Position>
              <LatitudeDegrees>42.53752182237803936004638671875</LatitudeDegrees>
              <LongitudeDegrees>-0.1676509715616703033447265625</LongitudeDegrees>
            </Position>
            <AltitudeMeters>889</AltitudeMeters>
            <DistanceMeters>3133.1599379539</DistanceMeters>
          </Trackpoint>
          <Trackpoint>
            <Time>2019-07-06T16:32:39.000Z</Time>
            <Position>
              <LatitudeDegrees>42.53756339661777019500732421875</LatitudeDegrees>
              <LongitudeDegrees>-0.16766111366450786590576171875</LongitudeDegrees>
            </Position>
            <AltitudeMeters>889.20001220703125</AltitudeMeters>
            <DistanceMeters>3137.8616001212</DistanceMeters>
          </Trackpoint>
          <Trackpoint>
            <Time>2019-07-06T16:32:42.000Z</Time>
            <Position>
              <LatitudeDegrees>42.5375958345830440521240234375</LatitudeDegrees>
              <LongitudeDegrees>-0.16768575645983219146728515625</LongitudeDegrees>
            </Position>
            <AltitudeMeters>889.20001220703125</AltitudeMeters>
            <DistanceMeters>3141.999356148</DistanceMeters>
          </Trackpoint>
          <Trackpoint>
            <Time>2019-07-06T16:32:43.000Z</Time>
            <Position>
              <LatitudeDegrees>42.53759457729756832122802734375</LatitudeDegrees>
              <LongitudeDegrees>-0.16769598238170146942138671875</LongitudeDegrees>
            </Position>
            <AltitudeMeters>889.4000244140625</AltitudeMeters>
            <DistanceMeters>3142.8493009201</DistanceMeters>
          </Trackpoint>
          <Trackpoint>
            <Time>2019-07-06T16:32:44.000Z</Time>
            <Position>
              <LatitudeDegrees>42.53759223036468029022216796875</LatitudeDegrees>
              <LongitudeDegrees>-0.16770469956099987030029296875</LongitudeDegrees>
            </Position>
            <AltitudeMeters>889.20001220703125</AltitudeMeters>
            <DistanceMeters>3143.6035520824</DistanceMeters>
          </Trackpoint>
          <Trackpoint>
            <Time>2019-07-06T16:32:45.000Z</Time>
            <Position>
              <LatitudeDegrees>42.53759591840207576751708984375</LatitudeDegrees>
              <LongitudeDegrees>-0.16771073453128337860107421875</LongitudeDegrees>
            </Position>
            <AltitudeMeters>889.20001220703125</AltitudeMeters>
            <DistanceMeters>3144.2410106615</DistanceMeters>
          </Trackpoint>
          <Trackpoint>
            <Time>2019-07-06T16:32:49.000Z</Time>
            <Position>
              <LatitudeDegrees>42.53761989064514636993408203125</LatitudeDegrees>
              <LongitudeDegrees>-0.1677220501005649566650390625</LongitudeDegrees>
            </Position>
            <AltitudeMeters>889</AltitudeMeters>
            <DistanceMeters>3147.0663579988</DistanceMeters>
          </Trackpoint>
          <Trackpoint>
            <Time>2019-07-06T16:32:52.000Z</Time>
            <Position>
              <LatitudeDegrees>42.53766045905649662017822265625</LatitudeDegrees>
              <LongitudeDegrees>-0.16771945171058177947998046875</LongitudeDegrees>
            </Position>
            <AltitudeMeters>888.5999755859375</AltitudeMeters>
            <DistanceMeters>3151.5868737871</DistanceMeters>
          </Trackpoint>
          <Trackpoint>
            <Time>2019-07-06T16:32:54.000Z</Time>
            <Position>
              <LatitudeDegrees>42.537667416036128997802734375</LatitudeDegrees>
              <LongitudeDegrees>-0.16771626658737659454345703125</LongitudeDegrees>
            </Position>
            <AltitudeMeters>888.4000244140625</AltitudeMeters>
            <DistanceMeters>3152.4043244932</DistanceMeters>
          </Trackpoint>
          <Trackpoint>
            <Time>2019-07-06T16:32:55.000Z</Time>
            <Position>
              <LatitudeDegrees>42.53768174909055233001708984375</LatitudeDegrees>
              <LongitudeDegrees>-0.16771920025348663330078125</LongitudeDegrees>
            </Position>
            <AltitudeMeters>888.4000244140625</AltitudeMeters>
            <DistanceMeters>3154.0169813122</DistanceMeters>
          </Trackpoint>
          <Trackpoint>
            <Time>2019-07-06T16:32:59.000Z</Time>
            <Position>
              <LatitudeDegrees>42.53768275491893291473388671875</LatitudeDegrees>
              <LongitudeDegrees>-0.16772992908954620361328125</LongitudeDegrees>
            </Position>
            <AltitudeMeters>888.5999755859375</AltitudeMeters>
            <DistanceMeters>3154.9084109096</DistanceMeters>
          </Trackpoint>
          <Trackpoint>
            <Time>2019-07-06T16:33:01.000Z</Time>
            <Position>
              <LatitudeDegrees>42.537688203155994415283203125</LatitudeDegrees>
              <LongitudeDegrees>-0.16773487441241741180419921875</LongitudeDegrees>
            </Position>
            <AltitudeMeters>888.79998779296875</AltitudeMeters>
            <DistanceMeters>3155.6383249526</DistanceMeters>
          </Trackpoint>
          <Trackpoint>
            <Time>2019-07-06T16:33:02.000Z</Time>
            <Position>
              <LatitudeDegrees>42.5376850180327892303466796875</LatitudeDegrees>
              <LongitudeDegrees>-0.16773252747952938079833984375</LongitudeDegrees>
            </Position>
            <AltitudeMeters>889</AltitudeMeters>
            <DistanceMeters>3156.0414891573</DistanceMeters>
          </Trackpoint>
          <Trackpoint>
            <Time>2019-07-06T16:33:10.000Z</Time>
            <Position>
              <LatitudeDegrees>42.53769549541175365447998046875</LatitudeDegrees>
              <LongitudeDegrees>-0.1677445136010646820068359375</LongitudeDegrees>
            </Position>
            <AltitudeMeters>889.20001220703125</AltitudeMeters>
            <DistanceMeters>3157.5648832777</DistanceMeters>
          </Trackpoint>
          <Trackpoint>
            <Time>2019-07-06T16:33:13.000Z</Time>
            <Position>
              <LatitudeDegrees>42.53768627531826496124267578125</LatitudeDegrees>
              <LongitudeDegrees>-0.167754404246807098388671875</LongitudeDegrees>
            </Position>
            <AltitudeMeters>889</AltitudeMeters>
            <DistanceMeters>3158.8747361414</DistanceMeters>
          </Trackpoint>
          <Trackpoint>
            <Time>2019-07-06T16:33:33.000Z</Time>
            <Position>
              <LatitudeDegrees>42.5376296974718570709228515625</LatitudeDegrees>
              <LongitudeDegrees>-0.16784098930656909942626953125</LongitudeDegrees>
            </Position>
            <AltitudeMeters>888.5999755859375</AltitudeMeters>
            <DistanceMeters>3168.3659975225</DistanceMeters>
          </Trackpoint>
          <Trackpoint>
            <Time>2019-07-06T16:33:42.000Z</Time>
            <Position>
              <LatitudeDegrees>42.53762416541576385498046875</LatitudeDegrees>
              <LongitudeDegrees>-0.1678729243576526641845703125</LongitudeDegrees>
            </Position>
            <AltitudeMeters>888.5999755859375</AltitudeMeters>
            <DistanceMeters>3171.057116492</DistanceMeters>
          </Trackpoint>
          <Trackpoint>
            <Time>2019-07-06T16:33:46.000Z</Time>
            <Position>
              <LatitudeDegrees>42.53763221204280853271484375</LatitudeDegrees>
              <LongitudeDegrees>-0.16787518747150897979736328125</LongitudeDegrees>
            </Position>
            <AltitudeMeters>888.4000244140625</AltitudeMeters>
            <DistanceMeters>3171.9735209384</DistanceMeters>
          </Trackpoint>
          <Trackpoint>
            <Time>2019-07-06T16:33:51.000Z</Time>
            <Position>
              <LatitudeDegrees>42.537660710513591766357421875</LatitudeDegrees>
              <LongitudeDegrees>-0.16790024936199188232421875</LongitudeDegrees>
            </Position>
            <AltitudeMeters>888.5999755859375</AltitudeMeters>
            <DistanceMeters>3175.7531480277</DistanceMeters>
          </Trackpoint>
          <Trackpoint>
            <Time>2019-07-06T16:33:57.000Z</Time>
            <Position>
              <LatitudeDegrees>42.53768091090023517608642578125</LatitudeDegrees>
              <LongitudeDegrees>-0.167919695377349853515625</LongitudeDegrees>
            </Position>
            <AltitudeMeters>888.4000244140625</AltitudeMeters>
            <DistanceMeters>3178.5105606493</DistanceMeters>
          </Trackpoint>
          <Trackpoint>
            <Time>2019-07-06T16:34:01.000Z</Time>
            <Position>
              <LatitudeDegrees>42.5376873649656772613525390625</LatitudeDegrees>
              <LongitudeDegrees>-0.16792866401374340057373046875</LongitudeDegrees>
            </Position>
            <AltitudeMeters>888.4000244140625</AltitudeMeters>
            <DistanceMeters>3179.5384317229</DistanceMeters>
          </Trackpoint>
          <Trackpoint>
            <Time>2019-07-06T16:34:02.000Z</Time>
            <Position>
              <LatitudeDegrees>42.53769046626985073089599609375</LatitudeDegrees>
              <LongitudeDegrees>-0.1679305918514728546142578125</LongitudeDegrees>
            </Position>
            <AltitudeMeters>888.4000244140625</AltitudeMeters>
            <DistanceMeters>3179.9302369035</DistanceMeters>
          </Trackpoint>
          <Trackpoint>
            <Time>2019-07-06T16:34:03.000Z</Time>
            <Position>
              <LatitudeDegrees>42.53769256174564361572265625</LatitudeDegrees>
              <LongitudeDegrees>-0.16793184913694858551025390625</LongitudeDegrees>
            </Position>
            <AltitudeMeters>888.4000244140625</AltitudeMeters>
            <DistanceMeters>3180.19901304</DistanceMeters>
          </Trackpoint>
          <Trackpoint>
            <Time>2019-07-06T16:34:04.000Z</Time>
            <Position>
              <LatitudeDegrees>42.5376964174211025238037109375</LatitudeDegrees>
              <LongitudeDegrees>-0.16793453134596347808837890625</LongitudeDegrees>
            </Position>
            <AltitudeMeters>888.4000244140625</AltitudeMeters>
            <DistanceMeters>3180.6835561109</DistanceMeters>
          </Trackpoint>
          <Trackpoint>
            <Time>2019-07-06T16:34:05.000Z</Time>
            <Position>
              <LatitudeDegrees>42.5376997701823711395263671875</LatitudeDegrees>
              <LongitudeDegrees>-0.1679413206875324249267578125</LongitudeDegrees>
            </Position>
            <AltitudeMeters>888.4000244140625</AltitudeMeters>
            <DistanceMeters>3181.3487431115</DistanceMeters>
          </Trackpoint>
          <Trackpoint>
            <Time>2019-07-06T16:34:06.000Z</Time>
            <Position>
              <LatitudeDegrees>42.53770002163946628570556640625</LatitudeDegrees>
              <LongitudeDegrees>-0.167946517467498779296875</LongitudeDegrees>
            </Position>
            <AltitudeMeters>888.4000244140625</AltitudeMeters>
            <DistanceMeters>3181.7737154975</DistanceMeters>
          </Trackpoint>
          <Trackpoint>
            <Time>2019-07-06T16:34:07.000Z</Time>
            <Position>
              <LatitudeDegrees>42.5377024523913860321044921875</LatitudeDegrees>
              <LongitudeDegrees>-0.1679507084190845489501953125</LongitudeDegrees>
            </Position>
            <AltitudeMeters>888.4000244140625</AltitudeMeters>
            <DistanceMeters>3182.2091826091</DistanceMeters>
          </Trackpoint>
          <Trackpoint>
            <Time>2019-07-06T16:34:12.000Z</Time>
            <Position>
              <LatitudeDegrees>42.53769851289689540863037109375</LatitudeDegrees>
              <LongitudeDegrees>-0.16796923242509365081787109375</LongitudeDegrees>
            </Position>
            <AltitudeMeters>888.4000244140625</AltitudeMeters>
            <DistanceMeters>3183.7907423377</DistanceMeters>
          </Trackpoint>
          <Trackpoint>
            <Time>2019-07-06T16:34:16.000Z</Time>
            <Position>
              <LatitudeDegrees>42.5377027876675128936767578125</LatitudeDegrees>
              <LongitudeDegrees>-0.16797669231891632080078125</LongitudeDegrees>
            </Position>
            <AltitudeMeters>888.4000244140625</AltitudeMeters>
            <DistanceMeters>3184.5627430147</DistanceMeters>
          </Trackpoint>
          <Trackpoint>
            <Time>2019-07-06T16:34:17.000Z</Time>
            <Position>
              <LatitudeDegrees>42.5377068109810352325439453125</LatitudeDegrees>
              <LongitudeDegrees>-0.1679711602628231048583984375</LongitudeDegrees>
            </Position>
            <AltitudeMeters>888.4000244140625</AltitudeMeters>
            <DistanceMeters>3185.2002015937</DistanceMeters>
          </Trackpoint>
          <Trackpoint>
            <Time>2019-07-06T16:34:21.000Z</Time>
            <Position>
              <LatitudeDegrees>42.53771460615098476409912109375</LatitudeDegrees>
              <LongitudeDegrees>-0.16797526739537715911865234375</LongitudeDegrees>
            </Position>
            <AltitudeMeters>888.4000244140625</AltitudeMeters>
            <DistanceMeters>3186.1312694423</DistanceMeters>
          </Trackpoint>
          <Trackpoint>
            <Time>2019-07-06T16:34:22.000Z</Time>
            <Position>
              <LatitudeDegrees>42.5377111695706844329833984375</LatitudeDegrees>
              <LongitudeDegrees>-0.16797945834696292877197265625</LongitudeDegrees>
            </Position>
            <AltitudeMeters>888.4000244140625</AltitudeMeters>
            <DistanceMeters>3186.6517521925</DistanceMeters>
          </Trackpoint>
          <Trackpoint>
            <Time>2019-07-06T16:34:23.000Z</Time>
            <Position>
              <LatitudeDegrees>42.53770991228520870208740234375</LatitudeDegrees>
              <LongitudeDegrees>-0.16798473894596099853515625</LongitudeDegrees>
            </Position>
            <AltitudeMeters>888.4000244140625</AltitudeMeters>
            <DistanceMeters>3187.1074843049</DistanceMeters>
          </Trackpoint>
          <Trackpoint>
            <Time>2019-07-06T16:34:24.000Z</Time>
            <Position>
              <LatitudeDegrees>42.53770999610424041748046875</LatitudeDegrees>
              <LongitudeDegrees>-0.16798884607851505279541015625</LongitudeDegrees>
            </Position>
            <AltitudeMeters>888.4000244140625</AltitudeMeters>
            <DistanceMeters>3187.4366664996</DistanceMeters>
          </Trackpoint>
          <Trackpoint>
            <Time>2019-07-06T16:34:29.000Z</Time>
            <Position>
              <LatitudeDegrees>42.53768376074731349945068359375</LatitudeDegrees>
              <LongitudeDegrees>-0.16800980083644390106201171875</LongitudeDegrees>
            </Position>
            <AltitudeMeters>888.4000244140625</AltitudeMeters>
            <DistanceMeters>3190.8244721552</DistanceMeters>
          </Trackpoint>
          <Trackpoint>
            <Time>2019-07-06T16:34:32.000Z</Time>
            <Position>
              <LatitudeDegrees>42.53765978850424289703369140625</LatitudeDegrees>
              <LongitudeDegrees>-0.16801566816866397857666015625</LongitudeDegrees>
            </Position>
            <AltitudeMeters>888.4000244140625</AltitudeMeters>
            <DistanceMeters>3193.5356494319</DistanceMeters>
          </Trackpoint>
          <Trackpoint>
            <Time>2019-07-06T16:34:35.000Z</Time>
            <Position>
              <LatitudeDegrees>42.5376390852034091949462890625</LatitudeDegrees>
              <LongitudeDegrees>-0.1680175960063934326171875</LongitudeDegrees>
            </Position>
            <AltitudeMeters>888.4000244140625</AltitudeMeters>
            <DistanceMeters>3195.847749182</DistanceMeters>
          </Trackpoint>
          <Trackpoint>
            <Time>2019-07-06T16:34:43.000Z</Time>
            <Position>
              <LatitudeDegrees>42.53766213543713092803955078125</LatitudeDegrees>
              <LongitudeDegrees>-0.16806445084512233734130859375</LongitudeDegrees>
            </Position>
            <AltitudeMeters>889.4000244140625</AltitudeMeters>
            <DistanceMeters>3200.4680414578</DistanceMeters>
          </Trackpoint>
          <Trackpoint>
            <Time>2019-07-06T16:34:47.000Z</Time>
            <Position>
              <LatitudeDegrees>42.53767646849155426025390625</LatitudeDegrees>
              <LongitudeDegrees>-0.1680935360491275787353515625</LongitudeDegrees>
            </Position>
            <AltitudeMeters>889.4000244140625</AltitudeMeters>
            <DistanceMeters>3203.3393581929</DistanceMeters>
          </Trackpoint>
          <Trackpoint>
            <Time>2019-07-06T16:34:48.000Z</Time>
            <Position>
              <LatitudeDegrees>42.53768007270991802215576171875</LatitudeDegrees>
              <LongitudeDegrees>-0.16809940338134765625</LongitudeDegrees>
            </Position>
            <AltitudeMeters>889.4000244140625</AltitudeMeters>
            <DistanceMeters>3203.9696941062</DistanceMeters>
          </Trackpoint>
          <Trackpoint>
            <Time>2019-07-06T16:34:58.000Z</Time>
            <Position>
              <LatitudeDegrees>42.53766397945582866668701171875</LatitudeDegrees>
              <LongitudeDegrees>-0.16815531067550182342529296875</LongitudeDegrees>
            </Position>
            <AltitudeMeters>889.5999755859375</AltitudeMeters>
            <DistanceMeters>3208.8927749684</DistanceMeters>
          </Trackpoint>
          <Trackpoint>
            <Time>2019-07-06T16:35:08.000Z</Time>
            <Position>
              <LatitudeDegrees>42.53764000721275806427001953125</LatitudeDegrees>
              <LongitudeDegrees>-0.1681726612150669097900390625</LongitudeDegrees>
            </Position>
            <AltitudeMeters>889.4000244140625</AltitudeMeters>
            <DistanceMeters>3211.9157598114</DistanceMeters>
          </Trackpoint>
          <Trackpoint>
            <Time>2019-07-06T16:35:19.000Z</Time>
            <Position>
              <LatitudeDegrees>42.53765559755265712738037109375</LatitudeDegrees>
              <LongitudeDegrees>-0.16822052188217639923095703125</LongitudeDegrees>
            </Position>
            <AltitudeMeters>889.5999755859375</AltitudeMeters>
            <DistanceMeters>3216.2077705227</DistanceMeters>
          </Trackpoint>
          <Trackpoint>
            <Time>2019-07-06T16:35:28.000Z</Time>
            <Position>
              <LatitudeDegrees>42.53767806105315685272216796875</LatitudeDegrees>
              <LongitudeDegrees>-0.16827785409986972808837890625</LongitudeDegrees>
            </Position>
            <AltitudeMeters>890.4000244140625</AltitudeMeters>
            <DistanceMeters>3221.5326592571</DistanceMeters>
          </Trackpoint>
          <Trackpoint>
            <Time>2019-07-06T16:35:33.000Z</Time>
            <Position>
              <LatitudeDegrees>42.5377088226377964019775390625</LatitudeDegrees>
              <LongitudeDegrees>-0.16829880885779857635498046875</LongitudeDegrees>
            </Position>
            <AltitudeMeters>890.4000244140625</AltitudeMeters>
            <DistanceMeters>3225.3644870583</DistanceMeters>
          </Trackpoint>
          <Trackpoint>
            <Time>2019-07-06T16:35:37.000Z</Time>
            <Position>
              <LatitudeDegrees>42.53772734664380550384521484375</LatitudeDegrees>
              <LongitudeDegrees>-0.16833485104143619537353515625</LongitudeDegrees>
            </Position>
            <AltitudeMeters>890.4000244140625</AltitudeMeters>
            <DistanceMeters>3228.9667391108</DistanceMeters>
          </Trackpoint>
          <Trackpoint>
            <Time>2019-07-06T16:35:39.000Z</Time>
            <Position>
              <LatitudeDegrees>42.5377158634364604949951171875</LatitudeDegrees>
              <LongitudeDegrees>-0.168343484401702880859375</LongitudeDegrees>
            </Position>
            <AltitudeMeters>890.4000244140625</AltitudeMeters>
            <DistanceMeters>3230.4265671968</DistanceMeters>
          </Trackpoint>
          <Trackpoint>
            <Time>2019-07-06T16:35:40.000Z</Time>
            <Position>
              <LatitudeDegrees>42.5377125106751918792724609375</LatitudeDegrees>
              <LongitudeDegrees>-0.16834474168717861175537109375</LongitudeDegrees>
            </Position>
            <AltitudeMeters>890.5999755859375</AltitudeMeters>
            <DistanceMeters>3230.8066740543</DistanceMeters>
          </Trackpoint>
          <Trackpoint>
            <Time>2019-07-06T16:35:42.000Z</Time>
            <Position>
              <LatitudeDegrees>42.53770471550524234771728515625</LatitudeDegrees>
              <LongitudeDegrees>-0.16834809444844722747802734375</LongitudeDegrees>
            </Position>
            <AltitudeMeters>890.5999755859375</AltitudeMeters>
            <DistanceMeters>3231.7131711345</DistanceMeters>
          </Trackpoint>
          <Trackpoint>
            <Time>2019-07-06T16:35:57.000Z</Time>
            <Position>
              <LatitudeDegrees>42.53764587454497814178466796875</LatitudeDegrees>
              <LongitudeDegrees>-0.16842822544276714324951171875</LongitudeDegrees>
            </Position>
            <AltitudeMeters>890.5999755859375</AltitudeMeters>
            <DistanceMeters>3240.991302344</DistanceMeters>
          </Trackpoint>
          <Trackpoint>
            <Time>2019-07-06T16:36:01.000Z</Time>
            <Position>
              <LatitudeDegrees>42.53764721564948558807373046875</LatitudeDegrees>
              <LongitudeDegrees>-0.1684147305786609649658203125</LongitudeDegrees>
            </Position>
            <AltitudeMeters>890.79998779296875</AltitudeMeters>
            <DistanceMeters>3242.1116507834</DistanceMeters>
          </Trackpoint>
          <Trackpoint>
            <Time>2019-07-06T16:36:11.000Z</Time>
            <Position>
              <LatitudeDegrees>42.5376930646598339080810546875</LatitudeDegrees>
              <LongitudeDegrees>-0.168406181037425994873046875</LongitudeDegrees>
            </Position>
            <AltitudeMeters>890</AltitudeMeters>
            <DistanceMeters>3247.2624142795</DistanceMeters>
          </Trackpoint>
          <Trackpoint>
            <Time>2019-07-06T16:36:27.000Z</Time>
            <Position>
              <LatitudeDegrees>42.5377135165035724639892578125</LatitudeDegrees>
              <LongitudeDegrees>-0.1684325002133846282958984375</LongitudeDegrees>
            </Position>
            <AltitudeMeters>890</AltitudeMeters>
            <DistanceMeters>3250.3982958537</DistanceMeters>
          </Trackpoint>
          <Trackpoint>
            <Time>2019-07-06T16:36:42.000Z</Time>
            <Position>
              <LatitudeDegrees>42.53769717179238796234130859375</LatitudeDegrees>
              <LongitudeDegrees>-0.16847214661538600921630859375</LongitudeDegrees>
            </Position>
            <AltitudeMeters>890</AltitudeMeters>
            <DistanceMeters>3254.1225672479</DistanceMeters>
          </Trackpoint>
          <Trackpoint>
            <Time>2019-07-06T16:36:43.000Z</Time>
            <Position>
              <LatitudeDegrees>42.53769314847886562347412109375</LatitudeDegrees>
              <LongitudeDegrees>-0.1684770919382572174072265625</LongitudeDegrees>
            </Position>
            <AltitudeMeters>890</AltitudeMeters>
            <DistanceMeters>3254.7235689599</DistanceMeters>
          </Trackpoint>
          <Trackpoint>
            <Time>2019-07-06T16:36:50.000Z</Time>
            <Position>
              <LatitudeDegrees>42.53765501081943511962890625</LatitudeDegrees>
              <LongitudeDegrees>-0.1685186661779880523681640625</LongitudeDegrees>
            </Position>
            <AltitudeMeters>890</AltitudeMeters>
            <DistanceMeters>3260.1675299157</DistanceMeters>
          </Trackpoint>
          <Trackpoint>
            <Time>2019-07-06T16:36:53.000Z</Time>
            <Position>
              <LatitudeDegrees>42.53763615153729915618896484375</LatitudeDegrees>
              <LongitudeDegrees>-0.16852763481438159942626953125</LongitudeDegrees>
            </Position>
            <AltitudeMeters>889.79998779296875</AltitudeMeters>
            <DistanceMeters>3262.3920482661</DistanceMeters>
          </Trackpoint>
          <Trackpoint>
            <Time>2019-07-06T16:36:54.000Z</Time>
            <Position>
              <LatitudeDegrees>42.5376307033002376556396484375</LatitudeDegrees>
              <LongitudeDegrees>-0.1685325801372528076171875</LongitudeDegrees>
            </Position>
            <AltitudeMeters>889.79998779296875</AltitudeMeters>
            <DistanceMeters>3263.1157501618</DistanceMeters>
          </Trackpoint>
          <Trackpoint>
            <Time>2019-07-06T16:36:55.000Z</Time>
            <Position>
              <LatitudeDegrees>42.53762894310057163238525390625</LatitudeDegrees>
              <LongitudeDegrees>-0.1685397885739803314208984375</LongitudeDegrees>
            </Position>
            <AltitudeMeters>889.79998779296875</AltitudeMeters>
            <DistanceMeters>3263.7388819994</DistanceMeters>
          </Trackpoint>
          <Trackpoint>
            <Time>2019-07-06T16:36:56.000Z</Time>
            <Position>
              <LatitudeDegrees>42.53762860782444477081298828125</LatitudeDegrees>
              <LongitudeDegrees>-0.16854523681104183197021484375</LongitudeDegrees>
            </Position>
            <AltitudeMeters>889.79998779296875</AltitudeMeters>
            <DistanceMeters>3264.1946141118</DistanceMeters>
          </Trackpoint>
          <Trackpoint>
            <Time>2019-07-06T16:37:01.000Z</Time>
            <Position>
              <LatitudeDegrees>42.53762491978704929351806640625</LatitudeDegrees>
              <LongitudeDegrees>-0.16857708804309368133544921875</LongitudeDegrees>
            </Position>
            <AltitudeMeters>889.5999755859375</AltitudeMeters>
            <DistanceMeters>3266.8400458807</DistanceMeters>
          </Trackpoint>
          <Trackpoint>
            <Time>2019-07-06T16:37:17.000Z</Time>
            <Position>
              <LatitudeDegrees>42.53763849847018718719482421875</LatitudeDegrees>
              <LongitudeDegrees>-0.168627798557281494140625</LongitudeDegrees>
            </Position>
            <AltitudeMeters>889.5999755859375</AltitudeMeters>
            <DistanceMeters>3271.2646595057</DistanceMeters>
          </Trackpoint>
          <Trackpoint>
            <Time>2019-07-06T16:37:21.000Z</Time>
            <Position>
              <LatitudeDegrees>42.53763162530958652496337890625</LatitudeDegrees>
              <LongitudeDegrees>-0.16863425262272357940673828125</LongitudeDegrees>
            </Position>
            <AltitudeMeters>889.5999755859375</AltitudeMeters>
            <DistanceMeters>3272.1957273542</DistanceMeters>
          </Trackpoint>
          <Trackpoint>
            <Time>2019-07-06T16:37:26.000Z</Time>
            <Position>
              <LatitudeDegrees>42.53763145767152309417724609375</LatitudeDegrees>
              <LongitudeDegrees>-0.16864682547748088836669921875</LongitudeDegrees>
            </Position>
            <AltitudeMeters>889.79998779296875</AltitudeMeters>
            <DistanceMeters>3273.2279816932</DistanceMeters>
          </Trackpoint>
          <Trackpoint>
            <Time>2019-07-06T16:37:34.000Z</Time>
            <Position>
              <LatitudeDegrees>42.5375971756875514984130859375</LatitudeDegrees>
              <LongitudeDegrees>-0.16867985017597675323486328125</LongitudeDegrees>
            </Position>
            <AltitudeMeters>890</AltitudeMeters>
            <DistanceMeters>3277.9065397297</DistanceMeters>
          </Trackpoint>
          <Trackpoint>
            <Time>2019-07-06T16:37:44.000Z</Time>
            <Position>
              <LatitudeDegrees>42.53760798834264278411865234375</LatitudeDegrees>
              <LongitudeDegrees>-0.168752856552600860595703125</LongitudeDegrees>
            </Position>
            <AltitudeMeters>890.4000244140625</AltitudeMeters>
            <DistanceMeters>3284.0134387556</DistanceMeters>
          </Trackpoint>
          <Trackpoint>
            <Time>2019-07-06T16:37:47.000Z</Time>
            <Position>
              <LatitudeDegrees>42.5376105867326259613037109375</LatitudeDegrees>
              <LongitudeDegrees>-0.1687842048704624176025390625</LongitudeDegrees>
            </Position>
            <AltitudeMeters>890.4000244140625</AltitudeMeters>
            <DistanceMeters>3286.6001908978</DistanceMeters>
          </Trackpoint>
          <Trackpoint>
            <Time>2019-07-06T16:37:50.000Z</Time>
            <Position>
              <LatitudeDegrees>42.53760346211493015289306640625</LatitudeDegrees>
              <LongitudeDegrees>-0.1687981188297271728515625</LongitudeDegrees>
            </Position>
            <AltitudeMeters>890.5999755859375</AltitudeMeters>
            <DistanceMeters>3287.9870601355</DistanceMeters>
          </Trackpoint>
          <Trackpoint>
            <Time>2019-07-06T16:37:52.000Z</Time>
            <Position>
              <LatitudeDegrees>42.53759440965950489044189453125</LatitudeDegrees>
              <LongitudeDegrees>-0.16879635863006114959716796875</LongitudeDegrees>
            </Position>
            <AltitudeMeters>890.79998779296875</AltitudeMeters>
            <DistanceMeters>3289.0016678009</DistanceMeters>
          </Trackpoint>
          <Trackpoint>
            <Time>2019-07-06T16:37:56.000Z</Time>
            <Position>
              <LatitudeDegrees>42.537582255899906158447265625</LatitudeDegrees>
              <LongitudeDegrees>-0.16879300586879253387451171875</LongitudeDegrees>
            </Position>
            <AltitudeMeters>890.79998779296875</AltitudeMeters>
            <DistanceMeters>3290.3787357198</DistanceMeters>
          </Trackpoint>
          <Trackpoint>
            <Time>2019-07-06T16:38:03.000Z</Time>
            <Position>
              <LatitudeDegrees>42.53755769692361354827880859375</LatitudeDegrees>
              <LongitudeDegrees>-0.16881295479834079742431640625</LongitudeDegrees>
            </Position>
            <AltitudeMeters>890.4000244140625</AltitudeMeters>
            <DistanceMeters>3293.5646117254</DistanceMeters>
          </Trackpoint>
          <Trackpoint>
            <Time>2019-07-06T16:38:07.000Z</Time>
            <Position>
              <LatitudeDegrees>42.53754395060241222381591796875</LatitudeDegrees>
              <LongitudeDegrees>-0.16883122734725475311279296875</LongitudeDegrees>
            </Position>
            <AltitudeMeters>890.20001220703125</AltitudeMeters>
            <DistanceMeters>3295.7064050939</DistanceMeters>
          </Trackpoint>
          <Trackpoint>
            <Time>2019-07-06T16:38:09.000Z</Time>
            <Position>
              <LatitudeDegrees>42.53753188066184520721435546875</LatitudeDegrees>
              <LongitudeDegrees>-0.16884748823940753936767578125</LongitudeDegrees>
            </Position>
            <AltitudeMeters>890.20001220703125</AltitudeMeters>
            <DistanceMeters>3297.6021820915</DistanceMeters>
          </Trackpoint>
          <Trackpoint>
            <Time>2019-07-06T16:38:12.000Z</Time>
            <Position>
              <LatitudeDegrees>42.537535987794399261474609375</LatitudeDegrees>
              <LongitudeDegrees>-0.16888051293790340423583984375</LongitudeDegrees>
            </Position>
            <AltitudeMeters>890.5999755859375</AltitudeMeters>
            <DistanceMeters>3300.3464641022</DistanceMeters>
          </Trackpoint>
          <Trackpoint>
            <Time>2019-07-06T16:38:20.000Z</Time>
            <Position>
              <LatitudeDegrees>42.537541352212429046630859375</LatitudeDegrees>
              <LongitudeDegrees>-0.168944634497165679931640625</LongitudeDegrees>
            </Position>
            <AltitudeMeters>891</AltitudeMeters>
            <DistanceMeters>3305.6390340951</DistanceMeters>
          </Trackpoint>
          <Trackpoint>
            <Time>2019-07-06T16:38:25.000Z</Time>
            <Position>
              <LatitudeDegrees>42.537537328898906707763671875</LatitudeDegrees>
              <LongitudeDegrees>-0.1689551956951618194580078125</LongitudeDegrees>
            </Position>
            <AltitudeMeters>891.20001220703125</AltitudeMeters>
            <DistanceMeters>3306.6173939997</DistanceMeters>
          </Trackpoint>
          <Trackpoint>
            <Time>2019-07-06T16:39:02.000Z</Time>
            <Position>
              <LatitudeDegrees>42.53755568526685237884521484375</LatitudeDegrees>
              <LongitudeDegrees>-0.168957374989986419677734375</LongitudeDegrees>
            </Position>
            <AltitudeMeters>890.5999755859375</AltitudeMeters>
            <DistanceMeters>3308.6687388325</DistanceMeters>
          </Trackpoint>
          <Trackpoint>
            <Time>2019-07-06T16:39:04.000Z</Time>
            <Position>
              <LatitudeDegrees>42.5375711917877197265625</LatitudeDegrees>
              <LongitudeDegrees>-0.16895477660000324249267578125</LongitudeDegrees>
            </Position>
            <AltitudeMeters>891</AltitudeMeters>
            <DistanceMeters>3310.4054154093</DistanceMeters>
          </Trackpoint>
          <Trackpoint>
            <Time>2019-07-06T16:39:10.000Z</Time>
            <Position>
              <LatitudeDegrees>42.5376089103519916534423828125</LatitudeDegrees>
              <LongitudeDegrees>-0.16896081157028675079345703125</LongitudeDegrees>
            </Position>
            <AltitudeMeters>889.5999755859375</AltitudeMeters>
            <DistanceMeters>3314.6317011552</DistanceMeters>
          </Trackpoint>
          <Trackpoint>
            <Time>2019-07-06T16:39:32.000Z</Time>
            <Position>
              <LatitudeDegrees>42.53762542270123958587646484375</LatitudeDegrees>
              <LongitudeDegrees>-0.16910699196159839630126953125</LongitudeDegrees>
            </Position>
            <AltitudeMeters>890.4000244140625</AltitudeMeters>
            <DistanceMeters>3326.7601777814</DistanceMeters>
          </Trackpoint>
          <Trackpoint>
            <Time>2019-07-06T16:39:33.000Z</Time>
            <Position>
              <LatitudeDegrees>42.53762106411159038543701171875</LatitudeDegrees>
              <LongitudeDegrees>-0.1691184751689434051513671875</LongitudeDegrees>
            </Position>
            <AltitudeMeters>890.5999755859375</AltitudeMeters>
            <DistanceMeters>3327.8183504889</DistanceMeters>
          </Trackpoint>
          <Trackpoint>
            <Time>2019-07-06T16:39:38.000Z</Time>
            <Position>
              <LatitudeDegrees>42.537613101303577423095703125</LatitudeDegrees>
              <LongitudeDegrees>-0.16918142326176166534423828125</LongitudeDegrees>
            </Position>
            <AltitudeMeters>890.79998779296875</AltitudeMeters>
            <DistanceMeters>3333.0569001273</DistanceMeters>
          </Trackpoint>
          <Trackpoint>
            <Time>2019-07-06T16:39:47.000Z</Time>
            <Position>
              <LatitudeDegrees>42.53761435858905315399169921875</LatitudeDegrees>
              <LongitudeDegrees>-0.16924378462135791778564453125</LongitudeDegrees>
            </Position>
            <AltitudeMeters>891</AltitudeMeters>
            <DistanceMeters>3338.1733629299</DistanceMeters>
          </Trackpoint>
          <Trackpoint>
            <Time>2019-07-06T16:39:53.000Z</Time>
            <Position>
              <LatitudeDegrees>42.53760932944715023040771484375</LatitudeDegrees>
              <LongitudeDegrees>-0.16927178017795085906982421875</LongitudeDegrees>
            </Position>
            <AltitudeMeters>890.79998779296875</AltitudeMeters>
            <DistanceMeters>3340.5376000836</DistanceMeters>
          </Trackpoint>
          <Trackpoint>
            <Time>2019-07-06T16:39:54.000Z</Time>
            <Position>
              <LatitudeDegrees>42.5376122631132602691650390625</LatitudeDegrees>
              <LongitudeDegrees>-0.16928493976593017578125</LongitudeDegrees>
            </Position>
            <AltitudeMeters>890.79998779296875</AltitudeMeters>
            <DistanceMeters>3341.6619713311</DistanceMeters>
          </Trackpoint>
          <Trackpoint>
            <Time>2019-07-06T16:39:55.000Z</Time>
            <Position>
              <LatitudeDegrees>42.5376119278371334075927734375</LatitudeDegrees>
              <LongitudeDegrees>-0.169296674430370330810546875</LongitudeDegrees>
            </Position>
            <AltitudeMeters>890.79998779296875</AltitudeMeters>
            <DistanceMeters>3342.6310574728</DistanceMeters>
          </Trackpoint>
          <Trackpoint>
            <Time>2019-07-06T16:39:56.000Z</Time>
            <Position>
              <LatitudeDegrees>42.537609077990055084228515625</LatitudeDegrees>
              <LongitudeDegrees>-0.169309414923191070556640625</LongitudeDegrees>
            </Position>
            <AltitudeMeters>890.79998779296875</AltitudeMeters>
            <DistanceMeters>3343.7228313004</DistanceMeters>
          </Trackpoint>
          <Trackpoint>
            <Time>2019-07-06T16:39:57.000Z</Time>
            <Position>
              <LatitudeDegrees>42.537609077990055084228515625</LatitudeDegrees>
              <LongitudeDegrees>-0.169322155416011810302734375</LongitudeDegrees>
            </Position>
            <AltitudeMeters>890.79998779296875</AltitudeMeters>
            <DistanceMeters>3344.7724356669</DistanceMeters>
          </Trackpoint>
          <Trackpoint>
            <Time>2019-07-06T16:40:00.000Z</Time>
            <Position>
              <LatitudeDegrees>42.53760270774364471435546875</LatitudeDegrees>
              <LongitudeDegrees>-0.1693506538867950439453125</LongitudeDegrees>
            </Position>
            <AltitudeMeters>890.79998779296875</AltitudeMeters>
            <DistanceMeters>3347.2137161615</DistanceMeters>
          </Trackpoint>
          <Trackpoint>
            <Time>2019-07-06T16:40:05.000Z</Time>
            <Position>
              <LatitudeDegrees>42.53760010935366153717041015625</LatitudeDegrees>
              <LongitudeDegrees>-0.169371776282787322998046875</LongitudeDegrees>
            </Position>
            <AltitudeMeters>890.79998779296875</AltitudeMeters>
            <DistanceMeters>3348.965922197</DistanceMeters>
          </Trackpoint>
          <Trackpoint>
            <Time>2019-07-06T16:40:07.000Z</Time>
            <Position>
              <LatitudeDegrees>42.53759793005883693695068359375</LatitudeDegrees>
              <LongitudeDegrees>-0.1693950779736042022705078125</LongitudeDegrees>
            </Position>
            <AltitudeMeters>891</AltitudeMeters>
            <DistanceMeters>3350.8900665112</DistanceMeters>
          </Trackpoint>
          <Trackpoint>
            <Time>2019-07-06T16:40:08.000Z</Time>
            <Position>
              <LatitudeDegrees>42.53759642131626605987548828125</LatitudeDegrees>
              <LongitudeDegrees>-0.16940304078161716461181640625</LongitudeDegrees>
            </Position>
            <AltitudeMeters>891</AltitudeMeters>
            <DistanceMeters>3351.5620068525</DistanceMeters>
          </Trackpoint>
          <Trackpoint>
            <Time>2019-07-06T16:40:09.000Z</Time>
            <Position>
              <LatitudeDegrees>42.53759860061109066009521484375</LatitudeDegrees>
              <LongitudeDegrees>-0.16940957866609096527099609375</LongitudeDegrees>
            </Position>
            <AltitudeMeters>891</AltitudeMeters>
            <DistanceMeters>3352.1477908612</DistanceMeters>
          </Trackpoint>
          <Trackpoint>
            <Time>2019-07-06T16:40:33.000Z</Time>
            <Position>
              <LatitudeDegrees>42.5376357324421405792236328125</LatitudeDegrees>
              <LongitudeDegrees>-0.16954637132585048675537109375</LongitudeDegrees>
            </Position>
            <AltitudeMeters>891.4000244140625</AltitudeMeters>
            <DistanceMeters>3364.1030428433</DistanceMeters>
          </Trackpoint>
          <Trackpoint>
            <Time>2019-07-06T16:40:35.000Z</Time>
            <Position>
              <LatitudeDegrees>42.53764084540307521820068359375</LatitudeDegrees>
              <LongitudeDegrees>-0.16956548206508159637451171875</LongitudeDegrees>
            </Position>
            <AltitudeMeters>891.5999755859375</AltitudeMeters>
            <DistanceMeters>3365.7680453863</DistanceMeters>
          </Trackpoint>
          <Trackpoint>
            <Time>2019-07-06T16:40:39.000Z</Time>
            <Position>
              <LatitudeDegrees>42.53764755092561244964599609375</LatitudeDegrees>
              <LongitudeDegrees>-0.16959615983068943023681640625</LongitudeDegrees>
            </Position>
            <AltitudeMeters>891.79998779296875</AltitudeMeters>
            <DistanceMeters>3368.39119583</DistanceMeters>
          </Trackpoint>
          <Trackpoint>
            <Time>2019-07-06T16:40:45.000Z</Time>
            <Position>
              <LatitudeDegrees>42.53766716457903385162353515625</LatitudeDegrees>
              <LongitudeDegrees>-0.16961879096925258636474609375</LongitudeDegrees>
            </Position>
            <AltitudeMeters>891.4000244140625</AltitudeMeters>
            <DistanceMeters>3371.2577912957</DistanceMeters>
          </Trackpoint>
          <Trackpoint>
            <Time>2019-07-06T16:41:28.000Z</Time>
            <Position>
              <LatitudeDegrees>42.537723742425441741943359375</LatitudeDegrees>
              <LongitudeDegrees>-0.169682912528514862060546875</LongitudeDegrees>
            </Position>
            <AltitudeMeters>891.79998779296875</AltitudeMeters>
            <DistanceMeters>3379.4620700461</DistanceMeters>
          </Trackpoint>
          <Trackpoint>
            <Time>2019-07-06T16:41:48.000Z</Time>
            <Position>
              <LatitudeDegrees>42.53771695308387279510498046875</LatitudeDegrees>
              <LongitudeDegrees>-0.16973362304270267486572265625</LongitudeDegrees>
            </Position>
            <AltitudeMeters>892.20001220703125</AltitudeMeters>
            <DistanceMeters>3383.688355792</DistanceMeters>
          </Trackpoint>
          <Trackpoint>
            <Time>2019-07-06T16:41:55.000Z</Time>
            <Position>
              <LatitudeDegrees>42.5377393327653408050537109375</LatitudeDegrees>
              <LongitudeDegrees>-0.16973379068076610565185546875</LongitudeDegrees>
            </Position>
            <AltitudeMeters>892.5999755859375</AltitudeMeters>
            <DistanceMeters>3386.1772576463</DistanceMeters>
          </Trackpoint>
          <Trackpoint>
            <Time>2019-07-06T16:41:58.000Z</Time>
            <Position>
              <LatitudeDegrees>42.53775115124881267547607421875</LatitudeDegrees>
              <LongitudeDegrees>-0.1697394065558910369873046875</LongitudeDegrees>
            </Position>
            <AltitudeMeters>892.79998779296875</AltitudeMeters>
            <DistanceMeters>3387.5673786335</DistanceMeters>
          </Trackpoint>
          <Trackpoint>
            <Time>2019-07-06T16:42:03.000Z</Time>
            <Position>
              <LatitudeDegrees>42.53774628974497318267822265625</LatitudeDegrees>
              <LongitudeDegrees>-0.16973060555756092071533203125</LongitudeDegrees>
            </Position>
            <AltitudeMeters>893.20001220703125</AltitudeMeters>
            <DistanceMeters>3388.4688812014</DistanceMeters>
          </Trackpoint>
          <Trackpoint>
            <Time>2019-07-06T16:42:04.000Z</Time>
            <Position>
              <LatitudeDegrees>42.5377410091459751129150390625</LatitudeDegrees>
              <LongitudeDegrees>-0.169729851186275482177734375</LongitudeDegrees>
            </Position>
            <AltitudeMeters>893.20001220703125</AltitudeMeters>
            <DistanceMeters>3389.0698829134</DistanceMeters>
          </Trackpoint>
          <Trackpoint>
            <Time>2019-07-06T16:42:05.000Z</Time>
            <Position>
              <LatitudeDegrees>42.53773547708988189697265625</LatitudeDegrees>
              <LongitudeDegrees>-0.16972607932984828948974609375</LongitudeDegrees>
            </Position>
            <AltitudeMeters>893</AltitudeMeters>
            <DistanceMeters>3389.7681837998</DistanceMeters>
          </Trackpoint>
          <Trackpoint>
            <Time>2019-07-06T16:42:16.000Z</Time>
            <Position>
              <LatitudeDegrees>42.53772131167352199554443359375</LatitudeDegrees>
              <LongitudeDegrees>-0.1697699166834354400634765625</LongitudeDegrees>
            </Position>
            <AltitudeMeters>892.4000244140625</AltitudeMeters>
            <DistanceMeters>3393.6931437248</DistanceMeters>
          </Trackpoint>
          <Trackpoint>
            <Time>2019-07-06T16:42:19.000Z</Time>
            <Position>
              <LatitudeDegrees>42.537751905620098114013671875</LatitudeDegrees>
              <LongitudeDegrees>-0.16979346983134746551513671875</LongitudeDegrees>
            </Position>
            <AltitudeMeters>892.4000244140625</AltitudeMeters>
            <DistanceMeters>3397.6077368998</DistanceMeters>
          </Trackpoint>
          <Trackpoint>
            <Time>2019-07-06T16:42:24.000Z</Time>
            <Position>
              <LatitudeDegrees>42.5377805717289447784423828125</LatitudeDegrees>
              <LongitudeDegrees>-0.16985960304737091064453125</LongitudeDegrees>
            </Position>
            <AltitudeMeters>892.5999755859375</AltitudeMeters>
            <DistanceMeters>3403.9003424974</DistanceMeters>
          </Trackpoint>
          <Trackpoint>
            <Time>2019-07-06T16:42:30.000Z</Time>
            <Position>
              <LatitudeDegrees>42.5377738662064075469970703125</LatitudeDegrees>
              <LongitudeDegrees>-0.1698550768196582794189453125</LongitudeDegrees>
            </Position>
            <AltitudeMeters>892.5999755859375</AltitudeMeters>
            <DistanceMeters>3404.7287661871</DistanceMeters>
          </Trackpoint>
          <Trackpoint>
            <Time>2019-07-06T16:42:33.000Z</Time>
            <Position>
              <LatitudeDegrees>42.537751905620098114013671875</LatitudeDegrees>
              <LongitudeDegrees>-0.1698651351034641265869140625</LongitudeDegrees>
            </Position>
            <AltitudeMeters>892.5999755859375</AltitudeMeters>
            <DistanceMeters>3407.3085270945</DistanceMeters>
          </Trackpoint>
          <Trackpoint>
            <Time>2019-07-06T16:42:36.000Z</Time>
            <Position>
              <LatitudeDegrees>42.5377319566905498504638671875</LatitudeDegrees>
              <LongitudeDegrees>-0.1698815636336803436279296875</LongitudeDegrees>
            </Position>
            <AltitudeMeters>892.5999755859375</AltitudeMeters>
            <DistanceMeters>3409.905730803</DistanceMeters>
          </Trackpoint>
          <Trackpoint>
            <Time>2019-07-06T16:42:57.000Z</Time>
            <Position>
              <LatitudeDegrees>42.53778669051826000213623046875</LatitudeDegrees>
              <LongitudeDegrees>-0.16980034299194812774658203125</LongitudeDegrees>
            </Position>
            <AltitudeMeters>893.20001220703125</AltitudeMeters>
            <DistanceMeters>3418.9317681217</DistanceMeters>
          </Trackpoint>
          <Trackpoint>
            <Time>2019-07-06T16:43:09.000Z</Time>
            <Position>
              <LatitudeDegrees>42.53804300911724567413330078125</LatitudeDegrees>
              <LongitudeDegrees>-0.1698487065732479095458984375</LongitudeDegrees>
            </Position>
            <AltitudeMeters>893.20001220703125</AltitudeMeters>
            <DistanceMeters>3447.7350534067</DistanceMeters>
          </Trackpoint>
          <Trackpoint>
            <Time>2019-07-06T16:43:15.000Z</Time>
            <Position>
              <LatitudeDegrees>42.538106627762317657470703125</LatitudeDegrees>
              <LongitudeDegrees>-0.16976497136056423187255859375</LongitudeDegrees>
            </Position>
            <AltitudeMeters>893.4000244140625</AltitudeMeters>
            <DistanceMeters>3457.5990826891</DistanceMeters>
          </Trackpoint>
          <Trackpoint>
            <Time>2019-07-06T16:43:17.000Z</Time>
            <Position>
              <LatitudeDegrees>42.53792013041675090789794921875</LatitudeDegrees>
              <LongitudeDegrees>-0.16966782510280609130859375</LongitudeDegrees>
            </Position>
            <AltitudeMeters>893.4000244140625</AltitudeMeters>
            <DistanceMeters>3479.8333032736</DistanceMeters>
          </Trackpoint>
          <Trackpoint>
            <Time>2019-07-06T16:43:32.000Z</Time>
            <Position>
              <LatitudeDegrees>42.53781326115131378173828125</LatitudeDegrees>
              <LongitudeDegrees>-0.1696938090026378631591796875</LongitudeDegrees>
            </Position>
            <AltitudeMeters>892.79998779296875</AltitudeMeters>
            <DistanceMeters>3491.9177724904</DistanceMeters>
          </Trackpoint>
          <Trackpoint>
            <Time>2019-07-06T16:43:34.000Z</Time>
            <Position>
              <LatitudeDegrees>42.5377839244902133941650390625</LatitudeDegrees>
              <LongitudeDegrees>-0.1697169430553913116455078125</LongitudeDegrees>
            </Position>
            <AltitudeMeters>892.5999755859375</AltitudeMeters>
            <DistanceMeters>3495.6950096794</DistanceMeters>
          </Trackpoint>
          <Trackpoint>
            <Time>2019-07-06T16:43:37.000Z</Time>
            <Position>
              <LatitudeDegrees>42.537753246724605560302734375</LatitudeDegrees>
              <LongitudeDegrees>-0.16975793056190013885498046875</LongitudeDegrees>
            </Position>
            <AltitudeMeters>892.5999755859375</AltitudeMeters>
            <DistanceMeters>3500.4870326757</DistanceMeters>
          </Trackpoint>
          <Trackpoint>
            <Time>2019-07-06T16:43:51.000Z</Time>
            <Position>
              <LatitudeDegrees>42.5377457030117511749267578125</LatitudeDegrees>
              <LongitudeDegrees>-0.16982699744403362274169921875</LongitudeDegrees>
            </Position>
            <AltitudeMeters>893</AltitudeMeters>
            <DistanceMeters>3506.2139199318</DistanceMeters>
          </Trackpoint>
          <Trackpoint>
            <Time>2019-07-06T16:43:53.000Z</Time>
            <Position>
              <LatitudeDegrees>42.53775215707719326019287109375</LatitudeDegrees>
              <LongitudeDegrees>-0.1698423363268375396728515625</LongitudeDegrees>
            </Position>
            <AltitudeMeters>893</AltitudeMeters>
            <DistanceMeters>3507.6613237231</DistanceMeters>
          </Trackpoint>
          <Trackpoint>
            <Time>2019-07-06T16:43:57.000Z</Time>
            <Position>
              <LatitudeDegrees>42.53777009434998035430908203125</LatitudeDegrees>
              <LongitudeDegrees>-0.16984426416456699371337890625</LongitudeDegrees>
            </Position>
            <AltitudeMeters>893.20001220703125</AltitudeMeters>
            <DistanceMeters>3509.6636608428</DistanceMeters>
          </Trackpoint>
          <Trackpoint>
            <Time>2019-07-06T16:43:58.000Z</Time>
            <Position>
              <LatitudeDegrees>42.537780068814754486083984375</LatitudeDegrees>
              <LongitudeDegrees>-0.16984459944069385528564453125</LongitudeDegrees>
            </Position>
            <AltitudeMeters>893.20001220703125</AltitudeMeters>
            <DistanceMeters>3510.7718532432</DistanceMeters>
          </Trackpoint>
          <Trackpoint>
            <Time>2019-07-06T16:43:59.000Z</Time>
            <Position>
              <LatitudeDegrees>42.5377809070050716400146484375</LatitudeDegrees>
              <LongitudeDegrees>-0.16984325833618640899658203125</LongitudeDegrees>
            </Position>
            <AltitudeMeters>893.20001220703125</AltitudeMeters>
            <DistanceMeters>3510.9062413115</DistanceMeters>
          </Trackpoint>
          <Trackpoint>
            <Time>2019-07-06T16:44:00.000Z</Time>
            <Position>
              <LatitudeDegrees>42.53777981735765933990478515625</LatitudeDegrees>
              <LongitudeDegrees>-0.16984082758426666259765625</LongitudeDegrees>
            </Position>
            <AltitudeMeters>893.4000244140625</AltitudeMeters>
            <DistanceMeters>3511.1390082736</DistanceMeters>
          </Trackpoint>
          <Trackpoint>
            <Time>2019-07-06T16:44:01.000Z</Time>
            <Position>
              <LatitudeDegrees>42.53778216429054737091064453125</LatitudeDegrees>
              <LongitudeDegrees>-0.1698379777371883392333984375</LongitudeDegrees>
            </Position>
            <AltitudeMeters>893.4000244140625</AltitudeMeters>
            <DistanceMeters>3511.4945656814</DistanceMeters>
          </Trackpoint>
          <Trackpoint>
            <Time>2019-07-06T16:44:02.000Z</Time>
            <Position>
              <LatitudeDegrees>42.53778350539505481719970703125</LatitudeDegrees>
              <LongitudeDegrees>-0.16983320005238056182861328125</LongitudeDegrees>
            </Position>
            <AltitudeMeters>893.4000244140625</AltitudeMeters>
            <DistanceMeters>3511.9195380674</DistanceMeters>
          </Trackpoint>
          <Trackpoint>
            <Time>2019-07-06T16:44:03.000Z</Time>
            <Position>
              <LatitudeDegrees>42.537788115441799163818359375</LatitudeDegrees>
              <LongitudeDegrees>-0.169829763472080230712890625</LongitudeDegrees>
            </Position>
            <AltitudeMeters>893.4000244140625</AltitudeMeters>
            <DistanceMeters>3512.5053220761</DistanceMeters>
          </Trackpoint>
          <Trackpoint>
            <Time>2019-07-06T16:44:06.000Z</Time>
            <Position>
              <LatitudeDegrees>42.53780655562877655029296875</LatitudeDegrees>
              <LongitudeDegrees>-0.1698200404644012451171875</LongitudeDegrees>
            </Position>
            <AltitudeMeters>893.4000244140625</AltitudeMeters>
            <DistanceMeters>3514.7094502772</DistanceMeters>
          </Trackpoint>
          <Trackpoint>
            <Time>2019-07-06T16:44:09.000Z</Time>
            <Position>
              <LatitudeDegrees>42.53781669773161411285400390625</LatitudeDegrees>
              <LongitudeDegrees>-0.1698275841772556304931640625</LongitudeDegrees>
            </Position>
            <AltitudeMeters>893.4000244140625</AltitudeMeters>
            <DistanceMeters>3515.9949478421</DistanceMeters>
          </Trackpoint>
          <Trackpoint>
            <Time>2019-07-06T16:44:10.000Z</Time>
            <Position>
              <LatitudeDegrees>42.53781728446483612060546875</LatitudeDegrees>
              <LongitudeDegrees>-0.16982339322566986083984375</LongitudeDegrees>
            </Position>
            <AltitudeMeters>893.5999755859375</AltitudeMeters>
            <DistanceMeters>3516.3505052498</DistanceMeters>
          </Trackpoint>
          <Trackpoint>
            <Time>2019-07-06T16:44:12.000Z</Time>
            <Position>
              <LatitudeDegrees>42.53781166858971118927001953125</LatitudeDegrees>
              <LongitudeDegrees>-0.1698171906173229217529296875</LongitudeDegrees>
            </Position>
            <AltitudeMeters>893.4000244140625</AltitudeMeters>
            <DistanceMeters>3517.1568336593</DistanceMeters>
          </Trackpoint>
          <Trackpoint>
            <Time>2019-07-06T16:44:16.000Z</Time>
            <Position>
              <LatitudeDegrees>42.53782155923545360565185546875</LatitudeDegrees>
              <LongitudeDegrees>-0.16981241293251514434814453125</LongitudeDegrees>
            </Position>
            <AltitudeMeters>893.79998779296875</AltitudeMeters>
            <DistanceMeters>3518.32066847</DistanceMeters>
          </Trackpoint>
          <Trackpoint>
            <Time>2019-07-06T16:44:23.000Z</Time>
            <Position>
              <LatitudeDegrees>42.53783446736633777618408203125</LatitudeDegrees>
              <LongitudeDegrees>-0.16983236186206340789794921875</LongitudeDegrees>
            </Position>
            <AltitudeMeters>893.5999755859375</AltitudeMeters>
            <DistanceMeters>3520.495929387</DistanceMeters>
          </Trackpoint>
          <Trackpoint>
            <Time>2019-07-06T16:44:31.000Z</Time>
            <Position>
              <LatitudeDegrees>42.537849135696887969970703125</LatitudeDegrees>
              <LongitudeDegrees>-0.169904865324497222900390625</LongitudeDegrees>
            </Position>
            <AltitudeMeters>893.20001220703125</AltitudeMeters>
            <DistanceMeters>3526.6624236832</DistanceMeters>
          </Trackpoint>
          <Trackpoint>
            <Time>2019-07-06T16:44:34.000Z</Time>
            <Position>
              <LatitudeDegrees>42.5378580205142498016357421875</LatitudeDegrees>
              <LongitudeDegrees>-0.16992908902466297149658203125</LongitudeDegrees>
            </Position>
            <AltitudeMeters>893</AltitudeMeters>
            <DistanceMeters>3528.8808446671</DistanceMeters>
          </Trackpoint>
          <Trackpoint>
            <Time>2019-07-06T16:44:35.000Z</Time>
            <Position>
              <LatitudeDegrees>42.5378563441336154937744140625</LatitudeDegrees>
              <LongitudeDegrees>-0.16993713565170764923095703125</LongitudeDegrees>
            </Position>
            <AltitudeMeters>893</AltitudeMeters>
            <DistanceMeters>3529.5660920495</DistanceMeters>
          </Trackpoint>
          <Trackpoint>
            <Time>2019-07-06T16:44:56.000Z</Time>
            <Position>
              <LatitudeDegrees>42.5377799011766910552978515625</LatitudeDegrees>
              <LongitudeDegrees>-0.16986773349344730377197265625</LongitudeDegrees>
            </Position>
            <AltitudeMeters>892.5999755859375</AltitudeMeters>
            <DistanceMeters>3539.8025468585</DistanceMeters>
          </Trackpoint>
          <Trackpoint>
            <Time>2019-07-06T16:45:12.000Z</Time>
            <Position>
              <LatitudeDegrees>42.5378744490444660186767578125</LatitudeDegrees>
              <LongitudeDegrees>-0.16986287198960781097412109375</LongitudeDegrees>
            </Position>
            <AltitudeMeters>893</AltitudeMeters>
            <DistanceMeters>3550.3329475504</DistanceMeters>
          </Trackpoint>
          <Trackpoint>
            <Time>2019-07-06T16:45:19.000Z</Time>
            <Position>
              <LatitudeDegrees>42.53781728446483612060546875</LatitudeDegrees>
              <LongitudeDegrees>-0.16972842626273632049560546875</LongitudeDegrees>
            </Position>
            <AltitudeMeters>893.4000244140625</AltitudeMeters>
            <DistanceMeters>3563.0633356803</DistanceMeters>
          </Trackpoint>
          <Trackpoint>
            <Time>2019-07-06T16:45:27.000Z</Time>
            <Position>
              <LatitudeDegrees>42.53779322840273380279541015625</LatitudeDegrees>
              <LongitudeDegrees>-0.16979682259261608123779296875</LongitudeDegrees>
            </Position>
            <AltitudeMeters>893.20001220703125</AltitudeMeters>
            <DistanceMeters>3569.2786930335</DistanceMeters>
          </Trackpoint>
          <Trackpoint>
            <Time>2019-07-06T16:45:39.000Z</Time>
            <Position>
              <LatitudeDegrees>42.53776229918003082275390625</LatitudeDegrees>
              <LongitudeDegrees>-0.169886089861392974853515625</LongitudeDegrees>
            </Position>
            <AltitudeMeters>892.5999755859375</AltitudeMeters>
            <DistanceMeters>3577.3682519825</DistanceMeters>
          </Trackpoint>
          <Trackpoint>
            <Time>2019-07-06T16:45:44.000Z</Time>
            <Position>
              <LatitudeDegrees>42.53780479542911052703857421875</LatitudeDegrees>
              <LongitudeDegrees>-0.16996932215988636016845703125</LongitudeDegrees>
            </Position>
            <AltitudeMeters>893.20001220703125</AltitudeMeters>
            <DistanceMeters>3585.672086261</DistanceMeters>
          </Trackpoint>
          <Trackpoint>
            <Time>2019-07-06T16:46:07.000Z</Time>
            <Position>
              <LatitudeDegrees>42.53786246292293071746826171875</LatitudeDegrees>
              <LongitudeDegrees>-0.1699409075081348419189453125</LongitudeDegrees>
            </Position>
            <AltitudeMeters>893.4000244140625</AltitudeMeters>
            <DistanceMeters>3592.5007987866</DistanceMeters>
          </Trackpoint>
          <Trackpoint>
            <Time>2019-07-06T16:46:12.000Z</Time>
            <Position>
              <LatitudeDegrees>42.53786145709455013275146484375</LatitudeDegrees>
              <LongitudeDegrees>-0.16995641402900218963623046875</LongitudeDegrees>
            </Position>
            <AltitudeMeters>893.5999755859375</AltitudeMeters>
            <DistanceMeters>3593.7757159447</DistanceMeters>
          </Trackpoint>
          <Trackpoint>
            <Time>2019-07-06T16:46:18.000Z</Time>
            <Position>
              <LatitudeDegrees>42.537813596427440643310546875</LatitudeDegrees>
              <LongitudeDegrees>-0.16997904516756534576416015625</LongitudeDegrees>
            </Position>
            <AltitudeMeters>893.79998779296875</AltitudeMeters>
            <DistanceMeters>3599.4184147264</DistanceMeters>
          </Trackpoint>
          <Trackpoint>
            <Time>2019-07-06T16:46:19.000Z</Time>
            <Position>
              <LatitudeDegrees>42.5378030352294445037841796875</LatitudeDegrees>
              <LongitudeDegrees>-0.1699782907962799072265625</LongitudeDegrees>
            </Position>
            <AltitudeMeters>893.79998779296875</AltitudeMeters>
            <DistanceMeters>3600.5976652394</DistanceMeters>
          </Trackpoint>
          <Trackpoint>
            <Time>2019-07-06T16:46:20.000Z</Time>
            <Position>
              <LatitudeDegrees>42.53779850900173187255859375</LatitudeDegrees>
              <LongitudeDegrees>-0.1699729263782501220703125</LongitudeDegrees>
            </Position>
            <AltitudeMeters>893.79998779296875</AltitudeMeters>
            <DistanceMeters>3601.2696055806</DistanceMeters>
          </Trackpoint>
          <Trackpoint>
            <Time>2019-07-06T16:46:25.000Z</Time>
            <Position>
              <LatitudeDegrees>42.537790127098560333251953125</LatitudeDegrees>
              <LongitudeDegrees>-0.1699616946280002593994140625</LongitudeDegrees>
            </Position>
            <AltitudeMeters>894.4000244140625</AltitudeMeters>
            <DistanceMeters>3602.5829009019</DistanceMeters>
          </Trackpoint>
          <Trackpoint>
            <Time>2019-07-06T16:46:26.000Z</Time>
            <Position>
              <LatitudeDegrees>42.5377924740314483642578125</LatitudeDegrees>
              <LongitudeDegrees>-0.16996228136122226715087890625</LongitudeDegrees>
            </Position>
            <AltitudeMeters>894.4000244140625</AltitudeMeters>
            <DistanceMeters>3602.834317956</DistanceMeters>
          </Trackpoint>
          <Trackpoint>
            <Time>2019-07-06T16:46:27.000Z</Time>
            <Position>
              <LatitudeDegrees>42.5378192961215972900390625</LatitudeDegrees>
              <LongitudeDegrees>-0.16995490528643131256103515625</LongitudeDegrees>
            </Position>
            <AltitudeMeters>894.5999755859375</AltitudeMeters>
            <DistanceMeters>3605.8811061968</DistanceMeters>
          </Trackpoint>
          <Trackpoint>
            <Time>2019-07-06T16:46:28.000Z</Time>
            <Position>
              <LatitudeDegrees>42.5378335453569889068603515625</LatitudeDegrees>
              <LongitudeDegrees>-0.16993998549878597259521484375</LongitudeDegrees>
            </Position>
            <AltitudeMeters>893.20001220703125</AltitudeMeters>
            <DistanceMeters>3607.8834433166</DistanceMeters>
          </Trackpoint>
          <Trackpoint>
            <Time>2019-07-06T16:46:29.000Z</Time>
            <Position>
              <LatitudeDegrees>42.53783815540373325347900390625</LatitudeDegrees>
              <LongitudeDegrees>-0.1699352078139781951904296875</LongitudeDegrees>
            </Position>
            <AltitudeMeters>893.5999755859375</AltitudeMeters>
            <DistanceMeters>3608.5209018956</DistanceMeters>
          </Trackpoint>
          <Trackpoint>
            <Time>2019-07-06T16:46:30.000Z</Time>
            <Position>
              <LatitudeDegrees>42.5378355570137500762939453125</LatitudeDegrees>
              <LongitudeDegrees>-0.1699194498360157012939453125</LongitudeDegrees>
            </Position>
            <AltitudeMeters>894.20001220703125</AltitudeMeters>
            <DistanceMeters>3609.84447087</DistanceMeters>
          </Trackpoint>
          <Trackpoint>
            <Time>2019-07-06T16:46:31.000Z</Time>
            <Position>
              <LatitudeDegrees>42.53786799497902393341064453125</LatitudeDegrees>
              <LongitudeDegrees>-0.16987779177725315093994140625</LongitudeDegrees>
            </Position>
            <AltitudeMeters>893</AltitudeMeters>
            <DistanceMeters>3614.8150130085</DistanceMeters>
          </Trackpoint>
          <Trackpoint>
            <Time>2019-07-06T16:46:33.000Z</Time>
            <Position>
              <LatitudeDegrees>42.53792532719671726226806640625</LatitudeDegrees>
              <LongitudeDegrees>-0.1698634587228298187255859375</LongitudeDegrees>
            </Position>
            <AltitudeMeters>894</AltitudeMeters>
            <DistanceMeters>3621.3033268405</DistanceMeters>
          </Trackpoint>
          <Trackpoint>
            <Time>2019-07-06T16:46:36.000Z</Time>
            <Position>
              <LatitudeDegrees>42.53795449621975421905517578125</LatitudeDegrees>
              <LongitudeDegrees>-0.16984811984002590179443359375</LongitudeDegrees>
            </Position>
            <AltitudeMeters>894.4000244140625</AltitudeMeters>
            <DistanceMeters>3624.7844707025</DistanceMeters>
          </Trackpoint>
          <Trackpoint>
            <Time>2019-07-06T16:46:37.000Z</Time>
            <Position>
              <LatitudeDegrees>42.53796556033194065093994140625</LatitudeDegrees>
              <LongitudeDegrees>-0.16984962858259677886962890625</LongitudeDegrees>
            </Position>
            <AltitudeMeters>894.5999755859375</AltitudeMeters>
            <DistanceMeters>3626.0234674722</DistanceMeters>
          </Trackpoint>
          <Trackpoint>
            <Time>2019-07-06T16:46:45.000Z</Time>
            <Position>
              <LatitudeDegrees>42.5379106588661670684814453125</LatitudeDegrees>
              <LongitudeDegrees>-0.16987846232950687408447265625</LongitudeDegrees>
            </Position>
            <AltitudeMeters>894.20001220703125</AltitudeMeters>
            <DistanceMeters>3632.5761778649</DistanceMeters>
          </Trackpoint>
          <Trackpoint>
            <Time>2019-07-06T16:46:53.000Z</Time>
            <Position>
              <LatitudeDegrees>42.53804921172559261322021484375</LatitudeDegrees>
              <LongitudeDegrees>-0.16998323611915111541748046875</LongitudeDegrees>
            </Position>
            <AltitudeMeters>894.4000244140625</AltitudeMeters>
            <DistanceMeters>3650.2296760518</DistanceMeters>
          </Trackpoint>
          <Trackpoint>
            <Time>2019-07-06T16:46:55.000Z</Time>
            <Position>
              <LatitudeDegrees>42.5380605272948741912841796875</LatitudeDegrees>
              <LongitudeDegrees>-0.17001810483634471893310546875</LongitudeDegrees>
            </Position>
            <AltitudeMeters>894.4000244140625</AltitudeMeters>
            <DistanceMeters>3653.3554627868</DistanceMeters>
          </Trackpoint>
          <Trackpoint>
            <Time>2019-07-06T16:47:01.000Z</Time>
            <Position>
              <LatitudeDegrees>42.53807234577834606170654296875</LatitudeDegrees>
              <LongitudeDegrees>-0.1701098866760730743408203125</LongitudeDegrees>
            </Position>
            <AltitudeMeters>894.4000244140625</AltitudeMeters>
            <DistanceMeters>3660.9966979151</DistanceMeters>
          </Trackpoint>
          <Trackpoint>
            <Time>2019-07-06T16:47:07.000Z</Time>
            <Position>
              <LatitudeDegrees>42.5379802286624908447265625</LatitudeDegrees>
              <LongitudeDegrees>-0.1701115630567073822021484375</LongitudeDegrees>
            </Position>
            <AltitudeMeters>894.4000244140625</AltitudeMeters>
            <DistanceMeters>3671.2507805222</DistanceMeters>
          </Trackpoint>
          <Trackpoint>
            <Time>2019-07-06T16:47:09.000Z</Time>
            <Position>
              <LatitudeDegrees>42.537929601967334747314453125</LatitudeDegrees>
              <LongitudeDegrees>-0.170095302164554595947265625</LongitudeDegrees>
            </Position>
            <AltitudeMeters>894.4000244140625</AltitudeMeters>
            <DistanceMeters>3677.0419551796</DistanceMeters>
          </Trackpoint>
          <Trackpoint>
            <Time>2019-07-06T16:47:13.000Z</Time>
            <Position>
              <LatitudeDegrees>42.53794946707785129547119140625</LatitudeDegrees>
              <LongitudeDegrees>-0.170097313821315765380859375</LongitudeDegrees>
            </Position>
            <AltitudeMeters>895</AltitudeMeters>
            <DistanceMeters>3679.2603761636</DistanceMeters>
          </Trackpoint>
          <Trackpoint>
            <Time>2019-07-06T16:47:15.000Z</Time>
            <Position>
              <LatitudeDegrees>42.537943013012409210205078125</LatitudeDegrees>
              <LongitudeDegrees>-0.1700867526233196258544921875</LongitudeDegrees>
            </Position>
            <AltitudeMeters>895.20001220703125</AltitudeMeters>
            <DistanceMeters>3680.3847474111</DistanceMeters>
          </Trackpoint>
          <Trackpoint>
            <Time>2019-07-06T16:47:17.000Z</Time>
            <Position>
              <LatitudeDegrees>42.53793873824179172515869140625</LatitudeDegrees>
              <LongitudeDegrees>-0.1700740121304988861083984375</LongitudeDegrees>
            </Position>
            <AltitudeMeters>895.5999755859375</AltitudeMeters>
            <DistanceMeters>3681.5329595695</DistanceMeters>
          </Trackpoint>
          <Trackpoint>
            <Time>2019-07-06T16:47:19.000Z</Time>
            <Position>
              <LatitudeDegrees>42.53793706186115741729736328125</LatitudeDegrees>
              <LongitudeDegrees>-0.17008549533784389495849609375</LongitudeDegrees>
            </Position>
            <AltitudeMeters>895.79998779296875</AltitudeMeters>
            <DistanceMeters>3682.4926823406</DistanceMeters>
          </Trackpoint>
          <Trackpoint>
            <Time>2019-07-06T16:47:22.000Z</Time>
            <Position>
              <LatitudeDegrees>42.5379359722137451171875</LatitudeDegrees>
              <LongitudeDegrees>-0.17007359303534030914306640625</LongitudeDegrees>
            </Position>
            <AltitudeMeters>895.79998779296875</AltitudeMeters>
            <DistanceMeters>3683.4710422452</DistanceMeters>
          </Trackpoint>
          <Trackpoint>
            <Time>2019-07-06T16:47:24.000Z</Time>
            <Position>
              <LatitudeDegrees>42.53798617981374263763427734375</LatitudeDegrees>
              <LongitudeDegrees>-0.17007275484502315521240234375</LongitudeDegrees>
            </Position>
            <AltitudeMeters>896</AltitudeMeters>
            <DistanceMeters>3689.0598734665</DistanceMeters>
          </Trackpoint>
          <Trackpoint>
            <Time>2019-07-06T16:47:26.000Z</Time>
            <Position>
              <LatitudeDegrees>42.5379694998264312744140625</LatitudeDegrees>
              <LongitudeDegrees>-0.170060433447360992431640625</LongitudeDegrees>
            </Position>
            <AltitudeMeters>896</AltitudeMeters>
            <DistanceMeters>3691.1719477463</DistanceMeters>
          </Trackpoint>
          <Trackpoint>
            <Time>2019-07-06T16:47:29.000Z</Time>
            <Position>
              <LatitudeDegrees>42.53799992613494396209716796875</LatitudeDegrees>
              <LongitudeDegrees>-0.17005766741931438446044921875</LongitudeDegrees>
            </Position>
            <AltitudeMeters>895.79998779296875</AltitudeMeters>
            <DistanceMeters>3694.5650801436</DistanceMeters>
          </Trackpoint>
          <Trackpoint>
            <Time>2019-07-06T16:47:39.000Z</Time>
            <Position>
              <LatitudeDegrees>42.53799833357334136962890625</LatitudeDegrees>
              <LongitudeDegrees>-0.17013478092849254608154296875</LongitudeDegrees>
            </Position>
            <AltitudeMeters>895.5999755859375</AltitudeMeters>
            <DistanceMeters>3700.8927462973</DistanceMeters>
          </Trackpoint>
          <Trackpoint>
            <Time>2019-07-06T16:47:43.000Z</Time>
            <Position>
              <LatitudeDegrees>42.5379817374050617218017578125</LatitudeDegrees>
              <LongitudeDegrees>-0.1701876707375049591064453125</LongitudeDegrees>
            </Position>
            <AltitudeMeters>895.5999755859375</AltitudeMeters>
            <DistanceMeters>3705.6078335929</DistanceMeters>
          </Trackpoint>
          <Trackpoint>
            <Time>2019-07-06T16:47:44.000Z</Time>
            <Position>
              <LatitudeDegrees>42.537976205348968505859375</LatitudeDegrees>
              <LongitudeDegrees>-0.17019345425069332122802734375</LongitudeDegrees>
            </Position>
            <AltitudeMeters>895.5999755859375</AltitudeMeters>
            <DistanceMeters>3706.3856607728</DistanceMeters>
          </Trackpoint>
          <Trackpoint>
            <Time>2019-07-06T16:47:48.000Z</Time>
            <Position>
              <LatitudeDegrees>42.53793756477534770965576171875</LatitudeDegrees>
              <LongitudeDegrees>-0.17022463493049144744873046875</LongitudeDegrees>
            </Position>
            <AltitudeMeters>895.5999755859375</AltitudeMeters>
            <DistanceMeters>3711.3887969795</DistanceMeters>
          </Trackpoint>
          <Trackpoint>
            <Time>2019-07-06T16:47:50.000Z</Time>
            <Position>
              <LatitudeDegrees>42.53792281262576580047607421875</LatitudeDegrees>
              <LongitudeDegrees>-0.1702357828617095947265625</LongitudeDegrees>
            </Position>
            <AltitudeMeters>895.79998779296875</AltitudeMeters>
            <DistanceMeters>3713.2654242235</DistanceMeters>
          </Trackpoint>
          <Trackpoint>
            <Time>2019-07-06T16:47:51.000Z</Time>
            <Position>
              <LatitudeDegrees>42.53791392780840396881103515625</LatitudeDegrees>
              <LongitudeDegrees>-0.17024123109877109527587890625</LongitudeDegrees>
            </Position>
            <AltitudeMeters>895.79998779296875</AltitudeMeters>
            <DistanceMeters>3714.3447202261</DistanceMeters>
          </Trackpoint>
          <Trackpoint>
            <Time>2019-07-06T16:48:07.000Z</Time>
            <Position>
              <LatitudeDegrees>42.5378999300301074981689453125</LatitudeDegrees>
              <LongitudeDegrees>-0.1703784428536891937255859375</LongitudeDegrees>
            </Position>
            <AltitudeMeters>896.20001220703125</AltitudeMeters>
            <DistanceMeters>3725.7050834482</DistanceMeters>
          </Trackpoint>
          <Trackpoint>
            <Time>2019-07-06T16:48:12.000Z</Time>
            <Position>
              <LatitudeDegrees>42.537901438772678375244140625</LatitudeDegrees>
              <LongitudeDegrees>-0.170435272157192230224609375</LongitudeDegrees>
            </Position>
            <AltitudeMeters>896.4000244140625</AltitudeMeters>
            <DistanceMeters>3730.3701112327</DistanceMeters>
          </Trackpoint>
          <Trackpoint>
            <Time>2019-07-06T16:48:15.000Z</Time>
            <Position>
              <LatitudeDegrees>42.53790286369621753692626953125</LatitudeDegrees>
              <LongitudeDegrees>-0.170443318784236907958984375</LongitudeDegrees>
            </Position>
            <AltitudeMeters>896.4000244140625</AltitudeMeters>
            <DistanceMeters>3731.0487377121</DistanceMeters>
          </Trackpoint>
          <Trackpoint>
            <Time>2019-07-06T16:48:24.000Z</Time>
            <Position>
              <LatitudeDegrees>42.53792725503444671630859375</LatitudeDegrees>
              <LongitudeDegrees>-0.17054247669875621795654296875</LongitudeDegrees>
            </Position>
            <AltitudeMeters>896.5999755859375</AltitudeMeters>
            <DistanceMeters>3739.6217064032</DistanceMeters>
          </Trackpoint>
          <Trackpoint>
            <Time>2019-07-06T16:48:25.000Z</Time>
            <Position>
              <LatitudeDegrees>42.53794443793594837188720703125</LatitudeDegrees>
              <LongitudeDegrees>-0.1705603301525115966796875</LongitudeDegrees>
            </Position>
            <AltitudeMeters>896.5999755859375</AltitudeMeters>
            <DistanceMeters>3742.0294665816</DistanceMeters>
          </Trackpoint>
          <Trackpoint>
            <Time>2019-07-06T16:48:28.000Z</Time>
            <Position>
              <LatitudeDegrees>42.537971176207065582275390625</LatitudeDegrees>
              <LongitudeDegrees>-0.17058455385267734527587890625</LongitudeDegrees>
            </Position>
            <AltitudeMeters>896.5999755859375</AltitudeMeters>
            <DistanceMeters>3745.60782492</DistanceMeters>
          </Trackpoint>
          <Trackpoint>
            <Time>2019-07-06T16:48:31.000Z</Time>
            <Position>
              <LatitudeDegrees>42.537971176207065582275390625</LatitudeDegrees>
              <LongitudeDegrees>-0.170615650713443756103515625</LongitudeDegrees>
            </Position>
            <AltitudeMeters>896.4000244140625</AltitudeMeters>
            <DistanceMeters>3748.1558879026</DistanceMeters>
          </Trackpoint>
          <Trackpoint>
            <Time>2019-07-06T16:48:34.000Z</Time>
            <Position>
              <LatitudeDegrees>42.5379773788154125213623046875</LatitudeDegrees>
              <LongitudeDegrees>-0.17063300125300884246826171875</LongitudeDegrees>
            </Position>
            <AltitudeMeters>896</AltitudeMeters>
            <DistanceMeters>3749.734590249</DistanceMeters>
          </Trackpoint>
          <Trackpoint>
            <Time>2019-07-06T16:48:37.000Z</Time>
            <Position>
              <LatitudeDegrees>42.53796505741775035858154296875</LatitudeDegrees>
              <LongitudeDegrees>-0.170655213296413421630859375</LongitudeDegrees>
            </Position>
            <AltitudeMeters>896</AltitudeMeters>
            <DistanceMeters>3752.0152313938</DistanceMeters>
          </Trackpoint>
          <Trackpoint>
            <Time>2019-07-06T16:48:42.000Z</Time>
            <Position>
              <LatitudeDegrees>42.53796958364546298980712890625</LatitudeDegrees>
              <LongitudeDegrees>-0.17063216306269168853759765625</LongitudeDegrees>
            </Position>
            <AltitudeMeters>896.5999755859375</AltitudeMeters>
            <DistanceMeters>3753.9719512032</DistanceMeters>
          </Trackpoint>
          <Trackpoint>
            <Time>2019-07-06T16:48:45.000Z</Time>
            <Position>
              <LatitudeDegrees>42.53791560418903827667236328125</LatitudeDegrees>
              <LongitudeDegrees>-0.170597545802593231201171875</LongitudeDegrees>
            </Position>
            <AltitudeMeters>896.5999755859375</AltitudeMeters>
            <DistanceMeters>3760.61703012</DistanceMeters>
          </Trackpoint>
          <Trackpoint>
            <Time>2019-07-06T16:48:46.000Z</Time>
            <Position>
              <LatitudeDegrees>42.53790990449488162994384765625</LatitudeDegrees>
              <LongitudeDegrees>-0.170594193041324615478515625</LongitudeDegrees>
            </Position>
            <AltitudeMeters>896.79998779296875</AltitudeMeters>
            <DistanceMeters>3761.3022775024</DistanceMeters>
          </Trackpoint>
          <Trackpoint>
            <Time>2019-07-06T16:48:49.000Z</Time>
            <Position>
              <LatitudeDegrees>42.53794125281274318695068359375</LatitudeDegrees>
              <LongitudeDegrees>-0.17061640508472919464111328125</LongitudeDegrees>
            </Position>
            <AltitudeMeters>897.20001220703125</AltitudeMeters>
            <DistanceMeters>3765.2398708352</DistanceMeters>
          </Trackpoint>
          <Trackpoint>
            <Time>2019-07-06T16:48:53.000Z</Time>
            <Position>
              <LatitudeDegrees>42.53795315511524677276611328125</LatitudeDegrees>
              <LongitudeDegrees>-0.1706500165164470672607421875</LongitudeDegrees>
            </Position>
            <AltitudeMeters>897.4000244140625</AltitudeMeters>
            <DistanceMeters>3768.29996712</DistanceMeters>
          </Trackpoint>
          <Trackpoint>
            <Time>2019-07-06T16:48:56.000Z</Time>
            <Position>
              <LatitudeDegrees>42.5379399955272674560546875</LatitudeDegrees>
              <LongitudeDegrees>-0.170673988759517669677734375</LongitudeDegrees>
            </Position>
            <AltitudeMeters>897.4000244140625</AltitudeMeters>
            <DistanceMeters>3770.7523192382</DistanceMeters>
          </Trackpoint>
          <Trackpoint>
            <Time>2019-07-06T16:49:01.000Z</Time>
            <Position>
              <LatitudeDegrees>42.53794427029788494110107421875</LatitudeDegrees>
              <LongitudeDegrees>-0.1707264594733715057373046875</LongitudeDegrees>
            </Position>
            <AltitudeMeters>897.5999755859375</AltitudeMeters>
            <DistanceMeters>3775.0820350138</DistanceMeters>
          </Trackpoint>
          <Trackpoint>
            <Time>2019-07-06T16:49:03.000Z</Time>
            <Position>
              <LatitudeDegrees>42.537928260862827301025390625</LatitudeDegrees>
              <LongitudeDegrees>-0.170740373432636260986328125</LongitudeDegrees>
            </Position>
            <AltitudeMeters>897.5999755859375</AltitudeMeters>
            <DistanceMeters>3777.198380429</DistanceMeters>
          </Trackpoint>
          <Trackpoint>
            <Time>2019-07-06T16:49:09.000Z</Time>
            <Position>
              <LatitudeDegrees>42.53792725503444671630859375</LatitudeDegrees>
              <LongitudeDegrees>-0.17073266208171844482421875</LongitudeDegrees>
            </Position>
            <AltitudeMeters>897.4000244140625</AltitudeMeters>
            <DistanceMeters>3777.842882963</DistanceMeters>
          </Trackpoint>
          <Trackpoint>
            <Time>2019-07-06T16:49:15.000Z</Time>
            <Position>
              <LatitudeDegrees>42.53791610710322856903076171875</LatitudeDegrees>
              <LongitudeDegrees>-0.17070458270609378814697265625</LongitudeDegrees>
            </Position>
            <AltitudeMeters>897.4000244140625</AltitudeMeters>
            <DistanceMeters>3780.4591394383</DistanceMeters>
          </Trackpoint>
          <Trackpoint>
            <Time>2019-07-06T16:49:18.000Z</Time>
            <Position>
              <LatitudeDegrees>42.537909485399723052978515625</LatitudeDegrees>
              <LongitudeDegrees>-0.17067457549273967742919921875</LongitudeDegrees>
            </Position>
            <AltitudeMeters>897.4000244140625</AltitudeMeters>
            <DistanceMeters>3783.030134568</DistanceMeters>
          </Trackpoint>
          <Trackpoint>
            <Time>2019-07-06T16:49:20.000Z</Time>
            <Position>
              <LatitudeDegrees>42.5379163585603237152099609375</LatitudeDegrees>
              <LongitudeDegrees>-0.170660577714443206787109375</LongitudeDegrees>
            </Position>
            <AltitudeMeters>897.4000244140625</AltitudeMeters>
            <DistanceMeters>3784.4072024869</DistanceMeters>
          </Trackpoint>
          <Trackpoint>
            <Time>2019-07-06T16:49:24.000Z</Time>
            <Position>
              <LatitudeDegrees>42.5378979183733463287353515625</LatitudeDegrees>
              <LongitudeDegrees>-0.17067541368305683135986328125</LongitudeDegrees>
            </Position>
            <AltitudeMeters>897.4000244140625</AltitudeMeters>
            <DistanceMeters>3786.7942463148</DistanceMeters>
          </Trackpoint>
          <Trackpoint>
            <Time>2019-07-06T16:49:27.000Z</Time>
            <Position>
              <LatitudeDegrees>42.53784603439271450042724609375</LatitudeDegrees>
              <LongitudeDegrees>-0.17069821245968341827392578125</LongitudeDegrees>
            </Position>
            <AltitudeMeters>897.4000244140625</AltitudeMeters>
            <DistanceMeters>3792.8648098774</DistanceMeters>
          </Trackpoint>
          <Trackpoint>
            <Time>2019-07-06T16:49:30.000Z</Time>
            <Position>
              <LatitudeDegrees>42.5377809070050716400146484375</LatitudeDegrees>
              <LongitudeDegrees>-0.170690082013607025146484375</LongitudeDegrees>
            </Position>
            <AltitudeMeters>897.5999755859375</AltitudeMeters>
            <DistanceMeters>3800.1447493448</DistanceMeters>
          </Trackpoint>
          <Trackpoint>
            <Time>2019-07-06T16:49:32.000Z</Time>
            <Position>
              <LatitudeDegrees>42.5377671606838703155517578125</LatitudeDegrees>
              <LongitudeDegrees>-0.17068798653781414031982421875</LongitudeDegrees>
            </Position>
            <AltitudeMeters>897.79998779296875</AltitudeMeters>
            <DistanceMeters>3801.68289109</DistanceMeters>
          </Trackpoint>
          <Trackpoint>
            <Time>2019-07-06T16:49:36.000Z</Time>
            <Position>
              <LatitudeDegrees>42.53784234635531902313232421875</LatitudeDegrees>
              <LongitudeDegrees>-0.17077566124498844146728515625</LongitudeDegrees>
            </Position>
            <AltitudeMeters>898.20001220703125</AltitudeMeters>
            <DistanceMeters>3812.7158159273</DistanceMeters>
          </Trackpoint>
          <Trackpoint>
            <Time>2019-07-06T16:49:39.000Z</Time>
            <Position>
              <LatitudeDegrees>42.53782340325415134429931640625</LatitudeDegrees>
              <LongitudeDegrees>-0.17079678364098072052001953125</LongitudeDegrees>
            </Position>
            <AltitudeMeters>898.4000244140625</AltitudeMeters>
            <DistanceMeters>3815.4435957919</DistanceMeters>
          </Trackpoint>
          <Trackpoint>
            <Time>2019-07-06T16:49:41.000Z</Time>
            <Position>
              <LatitudeDegrees>42.53783144988119602203369140625</LatitudeDegrees>
              <LongitudeDegrees>-0.1708220131695270538330078125</LongitudeDegrees>
            </Position>
            <AltitudeMeters>898.4000244140625</AltitudeMeters>
            <DistanceMeters>3817.7003552196</DistanceMeters>
          </Trackpoint>
          <Trackpoint>
            <Time>2019-07-06T16:49:43.000Z</Time>
            <Position>
              <LatitudeDegrees>42.537815272808074951171875</LatitudeDegrees>
              <LongitudeDegrees>-0.17083215527236461639404296875</LongitudeDegrees>
            </Position>
            <AltitudeMeters>898.5999755859375</AltitudeMeters>
            <DistanceMeters>3819.6845712687</DistanceMeters>
          </Trackpoint>
          <Trackpoint>
            <Time>2019-07-06T16:49:49.000Z</Time>
            <Position>
              <LatitudeDegrees>42.53777529112994670867919921875</LatitudeDegrees>
              <LongitudeDegrees>-0.1708374358713626861572265625</LongitudeDegrees>
            </Position>
            <AltitudeMeters>899</AltitudeMeters>
            <DistanceMeters>3824.1568882659</DistanceMeters>
          </Trackpoint>
          <Trackpoint>
            <Time>2019-07-06T16:49:50.000Z</Time>
            <Position>
              <LatitudeDegrees>42.53776489757001399993896484375</LatitudeDegrees>
              <LongitudeDegrees>-0.17084062099456787109375</LongitudeDegrees>
            </Position>
            <AltitudeMeters>899</AltitudeMeters>
            <DistanceMeters>3825.343771548</DistanceMeters>
          </Trackpoint>
          <Trackpoint>
            <Time>2019-07-06T16:50:00.000Z</Time>
            <Position>
              <LatitudeDegrees>42.5377825833857059478759765625</LatitudeDegrees>
              <LongitudeDegrees>-0.170867107808589935302734375</LongitudeDegrees>
            </Position>
            <AltitudeMeters>898.5999755859375</AltitudeMeters>
            <DistanceMeters>3828.2726915915</DistanceMeters>
          </Trackpoint>
          <Trackpoint>
            <Time>2019-07-06T16:50:04.000Z</Time>
            <Position>
              <LatitudeDegrees>42.5378627143800258636474609375</LatitudeDegrees>
              <LongitudeDegrees>-0.1708924211561679840087890625</LongitudeDegrees>
            </Position>
            <AltitudeMeters>898.5999755859375</AltitudeMeters>
            <DistanceMeters>3837.4293427142</DistanceMeters>
          </Trackpoint>
          <Trackpoint>
            <Time>2019-07-06T16:50:09.000Z</Time>
            <Position>
              <LatitudeDegrees>42.53786212764680385589599609375</LatitudeDegrees>
              <LongitudeDegrees>-0.17085579223930835723876953125</LongitudeDegrees>
            </Position>
            <AltitudeMeters>898.5999755859375</AltitudeMeters>
            <DistanceMeters>3840.4358534028</DistanceMeters>
          </Trackpoint>
          <Trackpoint>
            <Time>2019-07-06T16:50:18.000Z</Time>
            <Position>
              <LatitudeDegrees>42.537802197039127349853515625</LatitudeDegrees>
              <LongitudeDegrees>-0.1707817800343036651611328125</LongitudeDegrees>
            </Position>
            <AltitudeMeters>898.20001220703125</AltitudeMeters>
            <DistanceMeters>3849.45488487</DistanceMeters>
          </Trackpoint>
          <Trackpoint>
            <Time>2019-07-06T16:50:35.000Z</Time>
            <Position>
              <LatitudeDegrees>42.53773874603211879730224609375</LatitudeDegrees>
              <LongitudeDegrees>-0.17078655771911144256591796875</LongitudeDegrees>
            </Position>
            <AltitudeMeters>898.20001220703125</AltitudeMeters>
            <DistanceMeters>3856.5291115876</DistanceMeters>
          </Trackpoint>
          <Trackpoint>
            <Time>2019-07-06T16:50:39.000Z</Time>
            <Position>
              <LatitudeDegrees>42.5377383269369602203369140625</LatitudeDegrees>
              <LongitudeDegrees>-0.1708310656249523162841796875</LongitudeDegrees>
            </Position>
            <AltitudeMeters>898.4000244140625</AltitudeMeters>
            <DistanceMeters>3860.1799187356</DistanceMeters>
          </Trackpoint>
          <Trackpoint>
            <Time>2019-07-06T16:50:44.000Z</Time>
            <Position>
              <LatitudeDegrees>42.53773279488086700439453125</LatitudeDegrees>
              <LongitudeDegrees>-0.17080684192478656768798828125</LongitudeDegrees>
            </Position>
            <AltitudeMeters>897.79998779296875</AltitudeMeters>
            <DistanceMeters>3862.2618497366</DistanceMeters>
          </Trackpoint>
          <Trackpoint>
            <Time>2019-07-06T16:50:50.000Z</Time>
            <Position>
              <LatitudeDegrees>42.53783916123211383819580078125</LatitudeDegrees>
              <LongitudeDegrees>-0.170805752277374267578125</LongitudeDegrees>
            </Position>
            <AltitudeMeters>897.5999755859375</AltitudeMeters>
            <DistanceMeters>3874.1013546519</DistanceMeters>
          </Trackpoint>
          <Trackpoint>
            <Time>2019-07-06T16:50:56.000Z</Time>
            <Position>
              <LatitudeDegrees>42.53801769576966762542724609375</LatitudeDegrees>
              <LongitudeDegrees>-0.17096257768571376800537109375</LongitudeDegrees>
            </Position>
            <AltitudeMeters>898.4000244140625</AltitudeMeters>
            <DistanceMeters>3897.7715917238</DistanceMeters>
          </Trackpoint>
          <Trackpoint>
            <Time>2019-07-06T16:50:57.000Z</Time>
            <Position>
              <LatitudeDegrees>42.53803253173828125</LatitudeDegrees>
              <LongitudeDegrees>-0.17096945084631443023681640625</LongitudeDegrees>
            </Position>
            <AltitudeMeters>898.4000244140625</AltitudeMeters>
            <DistanceMeters>3899.5134601704</DistanceMeters>
          </Trackpoint>
          <Trackpoint>
            <Time>2019-07-06T16:51:04.000Z</Time>
            <Position>
              <LatitudeDegrees>42.537968158721923828125</LatitudeDegrees>
              <LongitudeDegrees>-0.17094396986067295074462890625</LongitudeDegrees>
            </Position>
            <AltitudeMeters>898.79998779296875</AltitudeMeters>
            <DistanceMeters>3906.9765367147</DistanceMeters>
          </Trackpoint>
          <Trackpoint>
            <Time>2019-07-06T16:51:08.000Z</Time>
            <Position>
              <LatitudeDegrees>42.537893392145633697509765625</LatitudeDegrees>
              <LongitudeDegrees>-0.170890577137470245361328125</LongitudeDegrees>
            </Position>
            <AltitudeMeters>899</AltitudeMeters>
            <DistanceMeters>3916.3798610492</DistanceMeters>
          </Trackpoint>
          <Trackpoint>
            <Time>2019-07-06T16:51:10.000Z</Time>
            <Position>
              <LatitudeDegrees>42.537863887846469879150390625</LatitudeDegrees>
              <LongitudeDegrees>-0.1708712987601757049560546875</LongitudeDegrees>
            </Position>
            <AltitudeMeters>899</AltitudeMeters>
            <DistanceMeters>3920.0257179479</DistanceMeters>
          </Trackpoint>
          <Trackpoint>
            <Time>2019-07-06T16:51:13.000Z</Time>
            <Position>
              <LatitudeDegrees>42.5378295220434665679931640625</LatitudeDegrees>
              <LongitudeDegrees>-0.17083768732845783233642578125</LongitudeDegrees>
            </Position>
            <AltitudeMeters>899.4000244140625</AltitudeMeters>
            <DistanceMeters>3924.7408052435</DistanceMeters>
          </Trackpoint>
          <Trackpoint>
            <Time>2019-07-06T16:51:15.000Z</Time>
            <Position>
              <LatitudeDegrees>42.537801526486873626708984375</LatitudeDegrees>
              <LongitudeDegrees>-0.17080650664865970611572265625</LongitudeDegrees>
            </Position>
            <AltitudeMeters>899.4000244140625</AltitudeMeters>
            <DistanceMeters>3928.7713272348</DistanceMeters>
          </Trackpoint>
          <Trackpoint>
            <Time>2019-07-06T16:51:17.000Z</Time>
            <Position>
              <LatitudeDegrees>42.537767998874187469482421875</LatitudeDegrees>
              <LongitudeDegrees>-0.1707723923027515411376953125</LongitudeDegrees>
            </Position>
            <AltitudeMeters>899.4000244140625</AltitudeMeters>
            <DistanceMeters>3933.4363550193</DistanceMeters>
          </Trackpoint>
          <Trackpoint>
            <Time>2019-07-06T16:51:21.000Z</Time>
            <Position>
              <LatitudeDegrees>42.5377252511680126190185546875</LatitudeDegrees>
              <LongitudeDegrees>-0.1707856357097625732421875</LongitudeDegrees>
            </Position>
            <AltitudeMeters>897.5999755859375</AltitudeMeters>
            <DistanceMeters>3938.317066203</DistanceMeters>
          </Trackpoint>
          <Trackpoint>
            <Time>2019-07-06T16:51:22.000Z</Time>
            <Position>
              <LatitudeDegrees>42.53770957700908184051513671875</LatitudeDegrees>
              <LongitudeDegrees>-0.17078773118555545806884765625</LongitudeDegrees>
            </Position>
            <AltitudeMeters>897.79998779296875</AltitudeMeters>
            <DistanceMeters>3940.0692722385</DistanceMeters>
          </Trackpoint>
          <Trackpoint>
            <Time>2019-07-06T16:51:26.000Z</Time>
            <Position>
              <LatitudeDegrees>42.53766381181776523590087890625</LatitudeDegrees>
              <LongitudeDegrees>-0.17081622965633869171142578125</LongitudeDegrees>
            </Position>
            <AltitudeMeters>897.79998779296875</AltitudeMeters>
            <DistanceMeters>3945.6734319322</DistanceMeters>
          </Trackpoint>
          <Trackpoint>
            <Time>2019-07-06T16:51:30.000Z</Time>
            <Position>
              <LatitudeDegrees>42.53762123174965381622314453125</LatitudeDegrees>
              <LongitudeDegrees>-0.17082964070141315460205078125</LongitudeDegrees>
            </Position>
            <AltitudeMeters>897.79998779296875</AltitudeMeters>
            <DistanceMeters>3950.5393193575</DistanceMeters>
          </Trackpoint>
          <Trackpoint>
            <Time>2019-07-06T16:51:35.000Z</Time>
            <Position>
              <LatitudeDegrees>42.53758518956601619720458984375</LatitudeDegrees>
              <LongitudeDegrees>-0.1708186604082584381103515625</LongitudeDegrees>
            </Position>
            <AltitudeMeters>897.79998779296875</AltitudeMeters>
            <DistanceMeters>3954.6519016582</DistanceMeters>
          </Trackpoint>
          <Trackpoint>
            <Time>2019-07-06T16:51:37.000Z</Time>
            <Position>
              <LatitudeDegrees>42.5375693477690219879150390625</LatitudeDegrees>
              <LongitudeDegrees>-0.17082058824598789215087890625</LongitudeDegrees>
            </Position>
            <AltitudeMeters>897.79998779296875</AltitudeMeters>
            <DistanceMeters>3956.4246020284</DistanceMeters>
          </Trackpoint>
          <Trackpoint>
            <Time>2019-07-06T16:51:42.000Z</Time>
            <Position>
              <LatitudeDegrees>42.53750153817236423492431640625</LatitudeDegrees>
              <LongitudeDegrees>-0.17081019468605518341064453125</LongitudeDegrees>
            </Position>
            <AltitudeMeters>897.5999755859375</AltitudeMeters>
            <DistanceMeters>3964.0196088305</DistanceMeters>
          </Trackpoint>
          <Trackpoint>
            <Time>2019-07-06T16:51:43.000Z</Time>
            <Position>
              <LatitudeDegrees>42.53749282099306583404541015625</LatitudeDegrees>
              <LongitudeDegrees>-0.17080399207770824432373046875</LongitudeDegrees>
            </Position>
            <AltitudeMeters>897.79998779296875</AltitudeMeters>
            <DistanceMeters>3965.1196225774</DistanceMeters>
          </Trackpoint>
          <Trackpoint>
            <Time>2019-07-06T16:51:44.000Z</Time>
            <Position>
              <LatitudeDegrees>42.53748427145183086395263671875</LatitudeDegrees>
              <LongitudeDegrees>-0.1708025671541690826416015625</LongitudeDegrees>
            </Position>
            <AltitudeMeters>897.79998779296875</AltitudeMeters>
            <DistanceMeters>3966.0840383974</DistanceMeters>
          </Trackpoint>
          <Trackpoint>
            <Time>2019-07-06T16:51:47.000Z</Time>
            <Position>
              <LatitudeDegrees>42.53749215044081211090087890625</LatitudeDegrees>
              <LongitudeDegrees>-0.17081975005567073822021484375</LongitudeDegrees>
            </Position>
            <AltitudeMeters>898.20001220703125</AltitudeMeters>
            <DistanceMeters>3967.7436086175</DistanceMeters>
          </Trackpoint>
          <Trackpoint>
            <Time>2019-07-06T16:51:53.000Z</Time>
            <Position>
              <LatitudeDegrees>42.537455856800079345703125</LatitudeDegrees>
              <LongitudeDegrees>-0.17082209698855876922607421875</LongitudeDegrees>
            </Position>
            <AltitudeMeters>898</AltitudeMeters>
            <DistanceMeters>3971.7875508079</DistanceMeters>
          </Trackpoint>
          <Trackpoint>
            <Time>2019-07-06T16:51:58.000Z</Time>
            <Position>
              <LatitudeDegrees>42.53745920956134796142578125</LatitudeDegrees>
              <LongitudeDegrees>-0.17085109837353229522705078125</LongitudeDegrees>
            </Position>
            <AltitudeMeters>898</AltitudeMeters>
            <DistanceMeters>3974.1953109864</DistanceMeters>
          </Trackpoint>
          <Trackpoint>
            <Time>2019-07-06T16:52:00.000Z</Time>
            <Position>
              <LatitudeDegrees>42.53745527006685733795166015625</LatitudeDegrees>
              <LongitudeDegrees>-0.1708729751408100128173828125</LongitudeDegrees>
            </Position>
            <AltitudeMeters>898</AltitudeMeters>
            <DistanceMeters>3976.0428414722</DistanceMeters>
          </Trackpoint>
          <Trackpoint>
            <Time>2019-07-06T16:52:08.000Z</Time>
            <Position>
              <LatitudeDegrees>42.53746734000742435455322265625</LatitudeDegrees>
              <LongitudeDegrees>-0.17095126211643218994140625</LongitudeDegrees>
            </Position>
            <AltitudeMeters>898</AltitudeMeters>
            <DistanceMeters>3982.6017502365</DistanceMeters>
          </Trackpoint>
          <Trackpoint>
            <Time>2019-07-06T16:52:12.000Z</Time>
            <Position>
              <LatitudeDegrees>42.53746901638805866241455078125</LatitudeDegrees>
              <LongitudeDegrees>-0.170939527451992034912109375</LongitudeDegrees>
            </Position>
            <AltitudeMeters>898.4000244140625</AltitudeMeters>
            <DistanceMeters>3983.5847142132</DistanceMeters>
          </Trackpoint>
          <Trackpoint>
            <Time>2019-07-06T16:52:16.000Z</Time>
            <Position>
              <LatitudeDegrees>42.53745141439139842987060546875</LatitudeDegrees>
              <LongitudeDegrees>-0.170915387570858001708984375</LongitudeDegrees>
            </Position>
            <AltitudeMeters>898.4000244140625</AltitudeMeters>
            <DistanceMeters>3986.3714445091</DistanceMeters>
          </Trackpoint>
          <Trackpoint>
            <Time>2019-07-06T16:52:18.000Z</Time>
            <Position>
              <LatitudeDegrees>42.5374424457550048828125</LatitudeDegrees>
              <LongitudeDegrees>-0.17086735926568508148193359375</LongitudeDegrees>
            </Position>
            <AltitudeMeters>898.5999755859375</AltitudeMeters>
            <DistanceMeters>3990.4343227671</DistanceMeters>
          </Trackpoint>
          <Trackpoint>
            <Time>2019-07-06T16:52:23.000Z</Time>
            <Position>
              <LatitudeDegrees>42.5374464690685272216796875</LatitudeDegrees>
              <LongitudeDegrees>-0.17088211141526699066162109375</LongitudeDegrees>
            </Position>
            <AltitudeMeters>898.20001220703125</AltitudeMeters>
            <DistanceMeters>3991.7233278352</DistanceMeters>
          </Trackpoint>
          <Trackpoint>
            <Time>2019-07-06T16:52:25.000Z</Time>
            <Position>
              <LatitudeDegrees>42.53745510242879390716552734375</LatitudeDegrees>
              <LongitudeDegrees>-0.17089300788938999176025390625</LongitudeDegrees>
            </Position>
            <AltitudeMeters>898.79998779296875</AltitudeMeters>
            <DistanceMeters>3993.0331806989</DistanceMeters>
          </Trackpoint>
          <Trackpoint>
            <Time>2019-07-06T16:52:38.000Z</Time>
            <Position>
              <LatitudeDegrees>42.53747186623513698577880859375</LatitudeDegrees>
              <LongitudeDegrees>-0.1708800159394741058349609375</LongitudeDegrees>
            </Position>
            <AltitudeMeters>898</AltitudeMeters>
            <DistanceMeters>3995.1791860545</DistanceMeters>
          </Trackpoint>
          <Trackpoint>
            <Time>2019-07-06T16:52:50.000Z</Time>
            <Position>
              <LatitudeDegrees>42.5374389253556728363037109375</LatitudeDegrees>
              <LongitudeDegrees>-0.17094246111810207366943359375</LongitudeDegrees>
            </Position>
            <AltitudeMeters>898.4000244140625</AltitudeMeters>
            <DistanceMeters>4001.4768122535</DistanceMeters>
          </Trackpoint>
          <Trackpoint>
            <Time>2019-07-06T16:52:51.000Z</Time>
            <Position>
              <LatitudeDegrees>42.53742643631994724273681640625</LatitudeDegrees>
              <LongitudeDegrees>-0.17093089409172534942626953125</LongitudeDegrees>
            </Position>
            <AltitudeMeters>898.4000244140625</AltitudeMeters>
            <DistanceMeters>4003.1606899222</DistanceMeters>
          </Trackpoint>
          <Trackpoint>
            <Time>2019-07-06T16:53:03.000Z</Time>
            <Position>
              <LatitudeDegrees>42.53749298863112926483154296875</LatitudeDegrees>
              <LongitudeDegrees>-0.17088781110942363739013671875</LongitudeDegrees>
            </Position>
            <AltitudeMeters>899</AltitudeMeters>
            <DistanceMeters>4011.3671696864</DistanceMeters>
          </Trackpoint>
          <Trackpoint>
            <Time>2019-07-06T16:53:05.000Z</Time>
            <Position>
              <LatitudeDegrees>42.53754101693630218505859375</LatitudeDegrees>
              <LongitudeDegrees>-0.1708875596523284912109375</LongitudeDegrees>
            </Position>
            <AltitudeMeters>899</AltitudeMeters>
            <DistanceMeters>4016.7123695768</DistanceMeters>
          </Trackpoint>
          <Trackpoint>
            <Time>2019-07-06T16:53:07.000Z</Time>
            <Position>
              <LatitudeDegrees>42.537563145160675048828125</LatitudeDegrees>
              <LongitudeDegrees>-0.17089652828872203826904296875</LongitudeDegrees>
            </Position>
            <AltitudeMeters>898.5999755859375</AltitudeMeters>
            <DistanceMeters>4019.2833647065</DistanceMeters>
          </Trackpoint>
          <Trackpoint>
            <Time>2019-07-06T16:53:09.000Z</Time>
            <Position>
              <LatitudeDegrees>42.53756172023713588714599609375</LatitudeDegrees>
              <LongitudeDegrees>-0.1709152199327945709228515625</LongitudeDegrees>
            </Position>
            <AltitudeMeters>898.5999755859375</AltitudeMeters>
            <DistanceMeters>4020.8244390411</DistanceMeters>
          </Trackpoint>
          <Trackpoint>
            <Time>2019-07-06T16:53:14.000Z</Time>
            <Position>
              <LatitudeDegrees>42.53756557591259479522705078125</LatitudeDegrees>
              <LongitudeDegrees>-0.17093340866267681121826171875</LongitudeDegrees>
            </Position>
            <AltitudeMeters>898.5999755859375</AltitudeMeters>
            <DistanceMeters>4022.3742778502</DistanceMeters>
          </Trackpoint>
          <Trackpoint>
            <Time>2019-07-06T16:53:32.000Z</Time>
            <Position>
              <LatitudeDegrees>42.53742568194866180419921875</LatitudeDegrees>
              <LongitudeDegrees>-0.17089049331843852996826171875</LongitudeDegrees>
            </Position>
            <AltitudeMeters>897.79998779296875</AltitudeMeters>
            <DistanceMeters>4038.3376345538</DistanceMeters>
          </Trackpoint>
          <Trackpoint>
            <Time>2019-07-06T16:53:38.000Z</Time>
            <Position>
              <LatitudeDegrees>42.5374318845570087432861328125</LatitudeDegrees>
              <LongitudeDegrees>-0.170955955982208251953125</LongitudeDegrees>
            </Position>
            <AltitudeMeters>897.5999755859375</AltitudeMeters>
            <DistanceMeters>4043.7508219754</DistanceMeters>
          </Trackpoint>
          <Trackpoint>
            <Time>2019-07-06T16:53:41.000Z</Time>
            <Position>
              <LatitudeDegrees>42.53736675716936588287353515625</LatitudeDegrees>
              <LongitudeDegrees>-0.1710082590579986572265625</LongitudeDegrees>
            </Position>
            <AltitudeMeters>897.5999755859375</AltitudeMeters>
            <DistanceMeters>4052.174499361</DistanceMeters>
          </Trackpoint>
          <Trackpoint>
            <Time>2019-07-06T16:53:43.000Z</Time>
            <Position>
              <LatitudeDegrees>42.5373413600027561187744140625</LatitudeDegrees>
              <LongitudeDegrees>-0.1710275374352931976318359375</LongitudeDegrees>
            </Position>
            <AltitudeMeters>897.79998779296875</AltitudeMeters>
            <DistanceMeters>4055.413781508</DistanceMeters>
          </Trackpoint>
          <Trackpoint>
            <Time>2019-07-06T16:53:45.000Z</Time>
            <Position>
              <LatitudeDegrees>42.53730959258973598480224609375</LatitudeDegrees>
              <LongitudeDegrees>-0.17102376557886600494384765625</LongitudeDegrees>
            </Position>
            <AltitudeMeters>897.79998779296875</AltitudeMeters>
            <DistanceMeters>4058.9642725607</DistanceMeters>
          </Trackpoint>
          <Trackpoint>
            <Time>2019-07-06T16:53:51.000Z</Time>
            <Position>
              <LatitudeDegrees>42.537314034998416900634765625</LatitudeDegrees>
              <LongitudeDegrees>-0.17095402814447879791259765625</LongitudeDegrees>
            </Position>
            <AltitudeMeters>897.79998779296875</AltitudeMeters>
            <DistanceMeters>4064.705333353</DistanceMeters>
          </Trackpoint>
          <Trackpoint>
            <Time>2019-07-06T16:53:52.000Z</Time>
            <Position>
              <LatitudeDegrees>42.537309341132640838623046875</LatitudeDegrees>
              <LongitudeDegrees>-0.17094765789806842803955078125</LongitudeDegrees>
            </Position>
            <AltitudeMeters>897.79998779296875</AltitudeMeters>
            <DistanceMeters>4065.4414071174</DistanceMeters>
          </Trackpoint>
          <Trackpoint>
            <Time>2019-07-06T16:53:53.000Z</Time>
            <Position>
              <LatitudeDegrees>42.5373095087707042694091796875</LatitudeDegrees>
              <LongitudeDegrees>-0.17094531096518039703369140625</LongitudeDegrees>
            </Position>
            <AltitudeMeters>897.79998779296875</AltitudeMeters>
            <DistanceMeters>4065.6314605461</DistanceMeters>
          </Trackpoint>
          <Trackpoint>
            <Time>2019-07-06T16:53:55.000Z</Time>
            <Position>
              <LatitudeDegrees>42.5373136997222900390625</LatitudeDegrees>
              <LongitudeDegrees>-0.1709574647247791290283203125</LongitudeDegrees>
            </Position>
            <AltitudeMeters>897.79998779296875</AltitudeMeters>
            <DistanceMeters>4066.7314742931</DistanceMeters>
          </Trackpoint>
          <Trackpoint>
            <Time>2019-07-06T16:53:56.000Z</Time>
            <Position>
              <LatitudeDegrees>42.537326104938983917236328125</LatitudeDegrees>
              <LongitudeDegrees>-0.17096408642828464508056640625</LongitudeDegrees>
            </Position>
            <AltitudeMeters>897.79998779296875</AltitudeMeters>
            <DistanceMeters>4068.2158390233</DistanceMeters>
          </Trackpoint>
          <Trackpoint>
            <Time>2019-07-06T16:53:57.000Z</Time>
            <Position>
              <LatitudeDegrees>42.5373292900621891021728515625</LatitudeDegrees>
              <LongitudeDegrees>-0.17097179777920246124267578125</LongitudeDegrees>
            </Position>
            <AltitudeMeters>897.79998779296875</AltitudeMeters>
            <DistanceMeters>4068.9457530663</DistanceMeters>
          </Trackpoint>
          <Trackpoint>
            <Time>2019-07-06T16:53:58.000Z</Time>
            <Position>
              <LatitudeDegrees>42.537343204021453857421875</LatitudeDegrees>
              <LongitudeDegrees>-0.1709841191768646240234375</LongitudeDegrees>
            </Position>
            <AltitudeMeters>897.79998779296875</AltitudeMeters>
            <DistanceMeters>4070.7981647508</DistanceMeters>
          </Trackpoint>
          <Trackpoint>
            <Time>2019-07-06T16:54:03.000Z</Time>
            <Position>
              <LatitudeDegrees>42.537312023341655731201171875</LatitudeDegrees>
              <LongitudeDegrees>-0.17100758850574493408203125</LongitudeDegrees>
            </Position>
            <AltitudeMeters>898.4000244140625</AltitudeMeters>
            <DistanceMeters>4074.766596849</DistanceMeters>
          </Trackpoint>
          <Trackpoint>
            <Time>2019-07-06T16:54:09.000Z</Time>
            <Position>
              <LatitudeDegrees>42.53727204166352748870849609375</LatitudeDegrees>
              <LongitudeDegrees>-0.17100683413445949554443359375</LongitudeDegrees>
            </Position>
            <AltitudeMeters>898.79998779296875</AltitudeMeters>
            <DistanceMeters>4079.2176627571</DistanceMeters>
          </Trackpoint>
          <Trackpoint>
            <Time>2019-07-06T16:54:10.000Z</Time>
            <Position>
              <LatitudeDegrees>42.5372642464935779571533203125</LatitudeDegrees>
              <LongitudeDegrees>-0.171007923781871795654296875</LongitudeDegrees>
            </Position>
            <AltitudeMeters>898.79998779296875</AltitudeMeters>
            <DistanceMeters>4080.0885969804</DistanceMeters>
          </Trackpoint>
          <Trackpoint>
            <Time>2019-07-06T16:54:12.000Z</Time>
            <Position>
              <LatitudeDegrees>42.53726030699908733367919921875</LatitudeDegrees>
              <LongitudeDegrees>-0.17100733704864978790283203125</LongitudeDegrees>
            </Position>
            <AltitudeMeters>898.79998779296875</AltitudeMeters>
            <DistanceMeters>4080.5343117791</DistanceMeters>
          </Trackpoint>
          <Trackpoint>
            <Time>2019-07-06T16:54:14.000Z</Time>
            <Position>
              <LatitudeDegrees>42.53726516850292682647705078125</LatitudeDegrees>
              <LongitudeDegrees>-0.17101404257118701934814453125</LongitudeDegrees>
            </Position>
            <AltitudeMeters>898.5999755859375</AltitudeMeters>
            <DistanceMeters>4081.3121389589</DistanceMeters>
          </Trackpoint>
          <Trackpoint>
            <Time>2019-07-06T16:54:17.000Z</Time>
            <Position>
              <LatitudeDegrees>42.537256367504596710205078125</LatitudeDegrees>
              <LongitudeDegrees>-0.17102376557886600494384765625</LongitudeDegrees>
            </Position>
            <AltitudeMeters>898.4000244140625</AltitudeMeters>
            <DistanceMeters>4082.5799534592</DistanceMeters>
          </Trackpoint>
          <Trackpoint>
            <Time>2019-07-06T16:54:23.000Z</Time>
            <Position>
              <LatitudeDegrees>42.5372131168842315673828125</LatitudeDegrees>
              <LongitudeDegrees>-0.1710312254726886749267578125</LongitudeDegrees>
            </Position>
            <AltitudeMeters>898</AltitudeMeters>
            <DistanceMeters>4087.4328329514</DistanceMeters>
          </Trackpoint>
          <Trackpoint>
            <Time>2019-07-06T16:54:30.000Z</Time>
            <Position>
              <LatitudeDegrees>42.5372613966464996337890625</LatitudeDegrees>
              <LongitudeDegrees>-0.17104924656450748443603515625</LongitudeDegrees>
            </Position>
            <AltitudeMeters>898</AltitudeMeters>
            <DistanceMeters>4093.0062935431</DistanceMeters>
          </Trackpoint>
          <Trackpoint>
            <Time>2019-07-06T16:54:35.000Z</Time>
            <Position>
              <LatitudeDegrees>42.5373598001897335052490234375</LatitudeDegrees>
              <LongitudeDegrees>-0.171138010919094085693359375</LongitudeDegrees>
            </Position>
            <AltitudeMeters>898.20001220703125</AltitudeMeters>
            <DistanceMeters>4106.1577985599</DistanceMeters>
          </Trackpoint>
          <Trackpoint>
            <Time>2019-07-06T16:54:37.000Z</Time>
            <Position>
              <LatitudeDegrees>42.53733641467988491058349609375</LatitudeDegrees>
              <LongitudeDegrees>-0.17115234397351741790771484375</LongitudeDegrees>
            </Position>
            <AltitudeMeters>898.5999755859375</AltitudeMeters>
            <DistanceMeters>4109.0149280819</DistanceMeters>
          </Trackpoint>
          <Trackpoint>
            <Time>2019-07-06T16:54:38.000Z</Time>
            <Position>
              <LatitudeDegrees>42.53732099197804927825927734375</LatitudeDegrees>
              <LongitudeDegrees>-0.1711522601544857025146484375</LongitudeDegrees>
            </Position>
            <AltitudeMeters>898.5999755859375</AltitudeMeters>
            <DistanceMeters>4110.7306800805</DistanceMeters>
          </Trackpoint>
          <Trackpoint>
            <Time>2019-07-06T16:54:40.000Z</Time>
            <Position>
              <LatitudeDegrees>42.53730389289557933807373046875</LatitudeDegrees>
              <LongitudeDegrees>-0.17116541974246501922607421875</LongitudeDegrees>
            </Position>
            <AltitudeMeters>898.5999755859375</AltitudeMeters>
            <DistanceMeters>4112.9183593338</DistanceMeters>
          </Trackpoint>
          <Trackpoint>
            <Time>2019-07-06T16:54:44.000Z</Time>
            <Position>
              <LatitudeDegrees>42.53724823705852031707763671875</LatitudeDegrees>
              <LongitudeDegrees>-0.17118570394814014434814453125</LongitudeDegrees>
            </Position>
            <AltitudeMeters>898.79998779296875</AltitudeMeters>
            <DistanceMeters>4119.3324865759</DistanceMeters>
          </Trackpoint>
          <Trackpoint>
            <Time>2019-07-06T16:54:49.000Z</Time>
            <Position>
              <LatitudeDegrees>42.53716223873198032379150390625</LatitudeDegrees>
              <LongitudeDegrees>-0.171186625957489013671875</LongitudeDegrees>
            </Position>
            <AltitudeMeters>899.4000244140625</AltitudeMeters>
            <DistanceMeters>4128.9042761474</DistanceMeters>
          </Trackpoint>
          <Trackpoint>
            <Time>2019-07-06T16:54:52.000Z</Time>
            <Position>
              <LatitudeDegrees>42.53713659010827541351318359375</LatitudeDegrees>
              <LongitudeDegrees>-0.1712189801037311553955078125</LongitudeDegrees>
            </Position>
            <AltitudeMeters>899.5999755859375</AltitudeMeters>
            <DistanceMeters>4132.8015301266</DistanceMeters>
          </Trackpoint>
          <Trackpoint>
            <Time>2019-07-06T16:54:59.000Z</Time>
            <Position>
              <LatitudeDegrees>42.53713407553732395172119140625</LatitudeDegrees>
              <LongitudeDegrees>-0.1713024638593196868896484375</LongitudeDegrees>
            </Position>
            <AltitudeMeters>899.4000244140625</AltitudeMeters>
            <DistanceMeters>4139.6526860405</DistanceMeters>
          </Trackpoint>
          <Trackpoint>
            <Time>2019-07-06T16:55:02.000Z</Time>
            <Position>
              <LatitudeDegrees>42.53712787292897701263427734375</LatitudeDegrees>
              <LongitudeDegrees>-0.1713363267481327056884765625</LongitudeDegrees>
            </Position>
            <AltitudeMeters>899.5999755859375</AltitudeMeters>
            <DistanceMeters>4142.5129743578</DistanceMeters>
          </Trackpoint>
          <Trackpoint>
            <Time>2019-07-06T16:55:06.000Z</Time>
            <Position>
              <LatitudeDegrees>42.53709711134433746337890625</LatitudeDegrees>
              <LongitudeDegrees>-0.17132920213043689727783203125</LongitudeDegrees>
            </Position>
            <AltitudeMeters>899.5999755859375</AltitudeMeters>
            <DistanceMeters>4145.9863275113</DistanceMeters>
          </Trackpoint>
          <Trackpoint>
            <Time>2019-07-06T16:55:08.000Z</Time>
            <Position>
              <LatitudeDegrees>42.53708629868924617767333984375</LatitudeDegrees>
              <LongitudeDegrees>-0.17132945358753204345703125</LongitudeDegrees>
            </Position>
            <AltitudeMeters>899.5999755859375</AltitudeMeters>
            <DistanceMeters>4147.192081345</DistanceMeters>
          </Trackpoint>
          <Trackpoint>
            <Time>2019-07-06T16:55:10.000Z</Time>
            <Position>
              <LatitudeDegrees>42.537087388336658477783203125</LatitudeDegrees>
              <LongitudeDegrees>-0.17133657820522785186767578125</LongitudeDegrees>
            </Position>
            <AltitudeMeters>899.5999755859375</AltitudeMeters>
            <DistanceMeters>4147.793083057</DistanceMeters>
          </Trackpoint>
          <Trackpoint>
            <Time>2019-07-06T16:55:13.000Z</Time>
            <Position>
              <LatitudeDegrees>42.5370761565864086151123046875</LatitudeDegrees>
              <LongitudeDegrees>-0.17136926762759685516357421875</LongitudeDegrees>
            </Position>
            <AltitudeMeters>899.5999755859375</AltitudeMeters>
            <DistanceMeters>4150.7496205585</DistanceMeters>
          </Trackpoint>
          <Trackpoint>
            <Time>2019-07-06T16:55:15.000Z</Time>
            <Position>
              <LatitudeDegrees>42.53706349991261959075927734375</LatitudeDegrees>
              <LongitudeDegrees>-0.171397514641284942626953125</LongitudeDegrees>
            </Position>
            <AltitudeMeters>899.5999755859375</AltitudeMeters>
            <DistanceMeters>4153.4607978351</DistanceMeters>
          </Trackpoint>
          <Trackpoint>
            <Time>2019-07-06T16:55:17.000Z</Time>
            <Position>
              <LatitudeDegrees>42.5370557047426700592041015625</LatitudeDegrees>
              <LongitudeDegrees>-0.17143162898719310760498046875</LongitudeDegrees>
            </Position>
            <AltitudeMeters>899.79998779296875</AltitudeMeters>
            <DistanceMeters>4156.3912590101</DistanceMeters>
          </Trackpoint>
          <Trackpoint>
            <Time>2019-07-06T16:55:23.000Z</Time>
            <Position>
              <LatitudeDegrees>42.53701639361679553985595703125</LatitudeDegrees>
              <LongitudeDegrees>-0.1715029589831829071044921875</LongitudeDegrees>
            </Position>
            <AltitudeMeters>899.79998779296875</AltitudeMeters>
            <DistanceMeters>4163.6965825337</DistanceMeters>
          </Trackpoint>
          <Trackpoint>
            <Time>2019-07-06T16:55:26.000Z</Time>
            <Position>
              <LatitudeDegrees>42.5369909964501857757568359375</LatitudeDegrees>
              <LongitudeDegrees>-0.171524584293365478515625</LongitudeDegrees>
            </Position>
            <AltitudeMeters>900</AltitudeMeters>
            <DistanceMeters>4167.0347128984</DistanceMeters>
          </Trackpoint>
          <Trackpoint>
            <Time>2019-07-06T16:55:27.000Z</Time>
            <Position>
              <LatitudeDegrees>42.53699275664985179901123046875</LatitudeDegrees>
              <LongitudeDegrees>-0.171539671719074249267578125</LongitudeDegrees>
            </Position>
            <AltitudeMeters>900</AltitudeMeters>
            <DistanceMeters>4168.2809765737</DistanceMeters>
          </Trackpoint>
          <Trackpoint>
            <Time>2019-07-06T16:55:29.000Z</Time>
            <Position>
              <LatitudeDegrees>42.53698579967021942138671875</LatitudeDegrees>
              <LongitudeDegrees>-0.17154729925096035003662109375</LongitudeDegrees>
            </Position>
            <AltitudeMeters>900</AltitudeMeters>
            <DistanceMeters>4169.2730845982</DistanceMeters>
          </Trackpoint>
          <Trackpoint>
            <Time>2019-07-06T16:55:32.000Z</Time>
            <Position>
              <LatitudeDegrees>42.53698655404150485992431640625</LatitudeDegrees>
              <LongitudeDegrees>-0.17156741581857204437255859375</LongitudeDegrees>
            </Position>
            <AltitudeMeters>900</AltitudeMeters>
            <DistanceMeters>4170.9244728282</DistanceMeters>
          </Trackpoint>
          <Trackpoint>
            <Time>2019-07-06T16:55:34.000Z</Time>
            <Position>
              <LatitudeDegrees>42.536989487707614898681640625</LatitudeDegrees>
              <LongitudeDegrees>-0.17158535309135913848876953125</LongitudeDegrees>
            </Position>
            <AltitudeMeters>900</AltitudeMeters>
            <DistanceMeters>4172.4269771081</DistanceMeters>
          </Trackpoint>
          <Trackpoint>
            <Time>2019-07-06T16:55:38.000Z</Time>
            <Position>
              <LatitudeDegrees>42.5369732268154621124267578125</LatitudeDegrees>
              <LongitudeDegrees>-0.171628184616565704345703125</LongitudeDegrees>
            </Position>
            <AltitudeMeters>900</AltitudeMeters>
            <DistanceMeters>4176.3794487712</DistanceMeters>
          </Trackpoint>
          <Trackpoint>
            <Time>2019-07-06T16:55:41.000Z</Time>
            <Position>
              <LatitudeDegrees>42.5369527749717235565185546875</LatitudeDegrees>
              <LongitudeDegrees>-0.1716474629938602447509765625</LongitudeDegrees>
            </Position>
            <AltitudeMeters>900</AltitudeMeters>
            <DistanceMeters>4179.1499297723</DistanceMeters>
          </Trackpoint>
          <Trackpoint>
            <Time>2019-07-06T16:55:44.000Z</Time>
            <Position>
              <LatitudeDegrees>42.53691916354000568389892578125</LatitudeDegrees>
              <LongitudeDegrees>-0.171659030020236968994140625</LongitudeDegrees>
            </Position>
            <AltitudeMeters>900.20001220703125</AltitudeMeters>
            <DistanceMeters>4183.0099331573</DistanceMeters>
          </Trackpoint>
          <Trackpoint>
            <Time>2019-07-06T16:55:57.000Z</Time>
            <Position>
              <LatitudeDegrees>42.53689653240144252777099609375</LatitudeDegrees>
              <LongitudeDegrees>-0.17179221846163272857666015625</LongitudeDegrees>
            </Position>
            <AltitudeMeters>900.5999755859375</AltitudeMeters>
            <DistanceMeters>4194.2198637456</DistanceMeters>
          </Trackpoint>
          <Trackpoint>
            <Time>2019-07-06T16:56:01.000Z</Time>
            <Position>
              <LatitudeDegrees>42.53689996898174285888671875</LatitudeDegrees>
              <LongitudeDegrees>-0.1718355529010295867919921875</LongitudeDegrees>
            </Position>
            <AltitudeMeters>900.79998779296875</AltitudeMeters>
            <DistanceMeters>4197.7944347924</DistanceMeters>
          </Trackpoint>
          <Trackpoint>
            <Time>2019-07-06T16:56:05.000Z</Time>
            <Position>
              <LatitudeDegrees>42.5369031541049480438232421875</LatitudeDegrees>
              <LongitudeDegrees>-0.1719119958579540252685546875</LongitudeDegrees>
            </Position>
            <AltitudeMeters>900.79998779296875</AltitudeMeters>
            <DistanceMeters>4204.0741118406</DistanceMeters>
          </Trackpoint>
          <Trackpoint>
            <Time>2019-07-06T16:56:07.000Z</Time>
            <Position>
              <LatitudeDegrees>42.5368957780301570892333984375</LatitudeDegrees>
              <LongitudeDegrees>-0.17194074578583240509033203125</LongitudeDegrees>
            </Position>
            <AltitudeMeters>900.79998779296875</AltitudeMeters>
            <DistanceMeters>4206.5720675694</DistanceMeters>
          </Trackpoint>
          <Trackpoint>
            <Time>2019-07-06T16:56:09.000Z</Time>
            <Position>
              <LatitudeDegrees>42.5368645973503589630126953125</LatitudeDegrees>
              <LongitudeDegrees>-0.1719535700976848602294921875</LongitudeDegrees>
            </Position>
            <AltitudeMeters>900.79998779296875</AltitudeMeters>
            <DistanceMeters>4210.1980558902</DistanceMeters>
          </Trackpoint>
          <Trackpoint>
            <Time>2019-07-06T16:56:15.000Z</Time>
            <Position>
              <LatitudeDegrees>42.53686350770294666290283203125</LatitudeDegrees>
              <LongitudeDegrees>-0.17201836220920085906982421875</LongitudeDegrees>
            </Position>
            <AltitudeMeters>900.79998779296875</AltitudeMeters>
            <DistanceMeters>4215.5127599381</DistanceMeters>
          </Trackpoint>
          <Trackpoint>
            <Time>2019-07-06T16:56:18.000Z</Time>
            <Position>
              <LatitudeDegrees>42.5368820317089557647705078125</LatitudeDegrees>
              <LongitudeDegrees>-0.17203948460519313812255859375</LongitudeDegrees>
            </Position>
            <AltitudeMeters>901</AltitudeMeters>
            <DistanceMeters>4218.2055561399</DistanceMeters>
          </Trackpoint>
          <Trackpoint>
            <Time>2019-07-06T16:56:20.000Z</Time>
            <Position>
              <LatitudeDegrees>42.53689116798341274261474609375</LatitudeDegrees>
              <LongitudeDegrees>-0.17204585485160350799560546875</LongitudeDegrees>
            </Position>
            <AltitudeMeters>900.79998779296875</AltitudeMeters>
            <DistanceMeters>4219.3537682983</DistanceMeters>
          </Trackpoint>
          <Trackpoint>
            <Time>2019-07-06T16:56:22.000Z</Time>
            <Position>
              <LatitudeDegrees>42.53690424375236034393310546875</LatitudeDegrees>
              <LongitudeDegrees>-0.1720518060028553009033203125</LongitudeDegrees>
            </Position>
            <AltitudeMeters>901</AltitudeMeters>
            <DistanceMeters>4220.8919100435</DistanceMeters>
          </Trackpoint>
          <Trackpoint>
            <Time>2019-07-06T16:56:24.000Z</Time>
            <Position>
              <LatitudeDegrees>42.53688228316605091094970703125</LatitudeDegrees>
              <LongitudeDegrees>-0.17205155454576015472412109375</LongitudeDegrees>
            </Position>
            <AltitudeMeters>901</AltitudeMeters>
            <DistanceMeters>4223.333190538</DistanceMeters>
          </Trackpoint>
          <Trackpoint>
            <Time>2019-07-06T16:56:26.000Z</Time>
            <Position>
              <LatitudeDegrees>42.53685445524752140045166015625</LatitudeDegrees>
              <LongitudeDegrees>-0.17204769887030124664306640625</LongitudeDegrees>
            </Position>
            <AltitudeMeters>901</AltitudeMeters>
            <DistanceMeters>4226.4444992575</DistanceMeters>
          </Trackpoint>
          <Trackpoint>
            <Time>2019-07-06T16:56:28.000Z</Time>
            <Position>
              <LatitudeDegrees>42.5368317402899265289306640625</LatitudeDegrees>
              <LongitudeDegrees>-0.1720373891294002532958984375</LongitudeDegrees>
            </Position>
            <AltitudeMeters>900.79998779296875</AltitudeMeters>
            <DistanceMeters>4229.1086389095</DistanceMeters>
          </Trackpoint>
          <Trackpoint>
            <Time>2019-07-06T16:56:34.000Z</Time>
            <Position>
              <LatitudeDegrees>42.5368059240281581878662109375</LatitudeDegrees>
              <LongitudeDegrees>-0.1720554940402507781982421875</LongitudeDegrees>
            </Position>
            <AltitudeMeters>900.79998779296875</AltitudeMeters>
            <DistanceMeters>4232.3423408936</DistanceMeters>
          </Trackpoint>
          <Trackpoint>
            <Time>2019-07-06T16:56:38.000Z</Time>
            <Position>
              <LatitudeDegrees>42.53680936060845851898193359375</LatitudeDegrees>
              <LongitudeDegrees>-0.17206597141921520233154296875</LongitudeDegrees>
            </Position>
            <AltitudeMeters>900.79998779296875</AltitudeMeters>
            <DistanceMeters>4233.2782454908</DistanceMeters>
          </Trackpoint>
          <Trackpoint>
            <Time>2019-07-06T16:56:40.000Z</Time>
            <Position>
              <LatitudeDegrees>42.5367757491767406463623046875</LatitudeDegrees>
              <LongitudeDegrees>-0.1720709167420864105224609375</LongitudeDegrees>
            </Position>
            <AltitudeMeters>900.79998779296875</AltitudeMeters>
            <DistanceMeters>4237.0411114018</DistanceMeters>
          </Trackpoint>
          <Trackpoint>
            <Time>2019-07-06T16:56:44.000Z</Time>
            <Position>
              <LatitudeDegrees>42.53679142333567142486572265625</LatitudeDegrees>
              <LongitudeDegrees>-0.1721178553998470306396484375</LongitudeDegrees>
            </Position>
            <AltitudeMeters>901</AltitudeMeters>
            <DistanceMeters>4241.2673971477</DistanceMeters>
          </Trackpoint>
          <Trackpoint>
            <Time>2019-07-06T16:56:45.000Z</Time>
            <Position>
              <LatitudeDegrees>42.53680181689560413360595703125</LatitudeDegrees>
              <LongitudeDegrees>-0.1721262373030185699462890625</LongitudeDegrees>
            </Position>
            <AltitudeMeters>901.20001220703125</AltitudeMeters>
            <DistanceMeters>4242.6146333427</DistanceMeters>
          </Trackpoint>
          <Trackpoint>
            <Time>2019-07-06T16:56:46.000Z</Time>
            <Position>
              <LatitudeDegrees>42.53681690432131290435791015625</LatitudeDegrees>
              <LongitudeDegrees>-0.17213906161487102508544921875</LongitudeDegrees>
            </Position>
            <AltitudeMeters>901.4000244140625</AltitudeMeters>
            <DistanceMeters>4244.5988493918</DistanceMeters>
          </Trackpoint>
          <Trackpoint>
            <Time>2019-07-06T16:56:53.000Z</Time>
            <Position>
              <LatitudeDegrees>42.536877505481243133544921875</LatitudeDegrees>
              <LongitudeDegrees>-0.17224165610969066619873046875</LongitudeDegrees>
            </Position>
            <AltitudeMeters>901.4000244140625</AltitudeMeters>
            <DistanceMeters>4255.3826021916</DistanceMeters>
          </Trackpoint>
          <Trackpoint>
            <Time>2019-07-06T16:56:56.000Z</Time>
            <Position>
              <LatitudeDegrees>42.5369155593216419219970703125</LatitudeDegrees>
              <LongitudeDegrees>-0.172289349138736724853515625</LongitudeDegrees>
            </Position>
            <AltitudeMeters>901.20001220703125</AltitudeMeters>
            <DistanceMeters>4261.1487743592</DistanceMeters>
          </Trackpoint>
          <Trackpoint>
            <Time>2019-07-06T16:57:16.000Z</Time>
            <Position>
              <LatitudeDegrees>42.53689133562147617340087890625</LatitudeDegrees>
              <LongitudeDegrees>-0.17234073020517826080322265625</LongitudeDegrees>
            </Position>
            <AltitudeMeters>901</AltitudeMeters>
            <DistanceMeters>4266.1519105659</DistanceMeters>
          </Trackpoint>
          <Trackpoint>
            <Time>2019-07-06T16:57:17.000Z</Time>
            <Position>
              <LatitudeDegrees>42.53689234144985675811767578125</LatitudeDegrees>
              <LongitudeDegrees>-0.17233972437679767608642578125</LongitudeDegrees>
            </Position>
            <AltitudeMeters>901</AltitudeMeters>
            <DistanceMeters>4266.3165016632</DistanceMeters>
          </Trackpoint>
          <Trackpoint>
            <Time>2019-07-06T16:57:18.000Z</Time>
            <Position>
              <LatitudeDegrees>42.53689435310661792755126953125</LatitudeDegrees>
              <LongitudeDegrees>-0.172338970005512237548828125</LongitudeDegrees>
            </Position>
            <AltitudeMeters>901.20001220703125</AltitudeMeters>
            <DistanceMeters>4266.5679187174</DistanceMeters>
          </Trackpoint>
          <Trackpoint>
            <Time>2019-07-06T16:57:19.000Z</Time>
            <Position>
              <LatitudeDegrees>42.536890916526317596435546875</LatitudeDegrees>
              <LongitudeDegrees>-0.17233804799616336822509765625</LongitudeDegrees>
            </Position>
            <AltitudeMeters>901.20001220703125</AltitudeMeters>
            <DistanceMeters>4266.959723898</DistanceMeters>
          </Trackpoint>
          <Trackpoint>
            <Time>2019-07-06T16:57:39.000Z</Time>
            <Position>
              <LatitudeDegrees>42.536819167435169219970703125</LatitudeDegrees>
              <LongitudeDegrees>-0.17228289507329463958740234375</LongitudeDegrees>
            </Position>
            <AltitudeMeters>901.5999755859375</AltitudeMeters>
            <DistanceMeters>4276.1375533292</DistanceMeters>
          </Trackpoint>
          <Trackpoint>
            <Time>2019-07-06T16:57:44.000Z</Time>
            <Position>
              <LatitudeDegrees>42.53678019158542156219482421875</LatitudeDegrees>
              <LongitudeDegrees>-0.1722580008208751678466796875</LongitudeDegrees>
            </Position>
            <AltitudeMeters>901.5999755859375</AltitudeMeters>
            <DistanceMeters>4280.9305184317</DistanceMeters>
          </Trackpoint>
          <Trackpoint>
            <Time>2019-07-06T16:57:46.000Z</Time>
            <Position>
              <LatitudeDegrees>42.5368402898311614990234375</LatitudeDegrees>
              <LongitudeDegrees>-0.17225976102054119110107421875</LongitudeDegrees>
            </Position>
            <AltitudeMeters>901.5999755859375</AltitudeMeters>
            <DistanceMeters>4287.6202911375</DistanceMeters>
          </Trackpoint>
          <Trackpoint>
            <Time>2019-07-06T16:57:49.000Z</Time>
            <Position>
              <LatitudeDegrees>42.53686820156872272491455078125</LatitudeDegrees>
              <LongitudeDegrees>-0.17225691117346286773681640625</LongitudeDegrees>
            </Position>
            <AltitudeMeters>901.5999755859375</AltitudeMeters>
            <DistanceMeters>4290.7345008448</DistanceMeters>
          </Trackpoint>
          <Trackpoint>
            <Time>2019-07-06T16:57:52.000Z</Time>
            <Position>
              <LatitudeDegrees>42.53684557043015956878662109375</LatitudeDegrees>
              <LongitudeDegrees>-0.17223981209099292755126953125</LongitudeDegrees>
            </Position>
            <AltitudeMeters>901.20001220703125</AltitudeMeters>
            <DistanceMeters>4293.6183698441</DistanceMeters>
          </Trackpoint>
          <Trackpoint>
            <Time>2019-07-06T16:58:12.000Z</Time>
            <Position>
              <LatitudeDegrees>42.536935508251190185546875</LatitudeDegrees>
              <LongitudeDegrees>-0.17237425781786441802978515625</LongitudeDegrees>
            </Position>
            <AltitudeMeters>901.20001220703125</AltitudeMeters>
            <DistanceMeters>4308.5112116688</DistanceMeters>
          </Trackpoint>
          <Trackpoint>
            <Time>2019-07-06T16:58:25.000Z</Time>
            <Position>
              <LatitudeDegrees>42.53686652518808841705322265625</LatitudeDegrees>
              <LongitudeDegrees>-0.17233218066394329071044921875</LongitudeDegrees>
            </Position>
            <AltitudeMeters>901.4000244140625</AltitudeMeters>
            <DistanceMeters>4316.9295274108</DistanceMeters>
          </Trackpoint>
          <Trackpoint>
            <Time>2019-07-06T16:58:39.000Z</Time>
            <Position>
              <LatitudeDegrees>42.5368116237223148345947265625</LatitudeDegrees>
              <LongitudeDegrees>-0.17239093780517578125</LongitudeDegrees>
            </Position>
            <AltitudeMeters>901.5999755859375</AltitudeMeters>
            <DistanceMeters>4324.7112812384</DistanceMeters>
          </Trackpoint>
          <Trackpoint>
            <Time>2019-07-06T16:58:40.000Z</Time>
            <Position>
              <LatitudeDegrees>42.53681522794067859649658203125</LatitudeDegrees>
              <LongitudeDegrees>-0.17240367829799652099609375</LongitudeDegrees>
            </Position>
            <AltitudeMeters>901.5999755859375</AltitudeMeters>
            <DistanceMeters>4325.827592373</DistanceMeters>
          </Trackpoint>
          <Trackpoint>
            <Time>2019-07-06T16:58:41.000Z</Time>
            <Position>
              <LatitudeDegrees>42.53681589849293231964111328125</LatitudeDegrees>
              <LongitudeDegrees>-0.17241214402019977569580078125</LongitudeDegrees>
            </Position>
            <AltitudeMeters>901.79998779296875</AltitudeMeters>
            <DistanceMeters>4326.5258932594</DistanceMeters>
          </Trackpoint>
          <Trackpoint>
            <Time>2019-07-06T16:58:42.000Z</Time>
            <Position>
              <LatitudeDegrees>42.5368112884461879730224609375</LatitudeDegrees>
              <LongitudeDegrees>-0.17241482622921466827392578125</LongitudeDegrees>
            </Position>
            <AltitudeMeters>901.79998779296875</AltitudeMeters>
            <DistanceMeters>4327.0799894596</DistanceMeters>
          </Trackpoint>
          <Trackpoint>
            <Time>2019-07-06T16:58:45.000Z</Time>
            <Position>
              <LatitudeDegrees>42.5367941893637180328369140625</LatitudeDegrees>
              <LongitudeDegrees>-0.172429494559764862060546875</LongitudeDegrees>
            </Position>
            <AltitudeMeters>902</AltitudeMeters>
            <DistanceMeters>4329.3307388649</DistanceMeters>
          </Trackpoint>
          <Trackpoint>
            <Time>2019-07-06T16:58:50.000Z</Time>
            <Position>
              <LatitudeDegrees>42.53677918575704097747802734375</LatitudeDegrees>
              <LongitudeDegrees>-0.17244122922420501708984375</LongitudeDegrees>
            </Position>
            <AltitudeMeters>902.5999755859375</AltitudeMeters>
            <DistanceMeters>4331.2595705047</DistanceMeters>
          </Trackpoint>
          <Trackpoint>
            <Time>2019-07-06T16:58:52.000Z</Time>
            <Position>
              <LatitudeDegrees>42.5367734022438526153564453125</LatitudeDegrees>
              <LongitudeDegrees>-0.1724539697170257568359375</LongitudeDegrees>
            </Position>
            <AltitudeMeters>903</AltitudeMeters>
            <DistanceMeters>4332.4875862889</DistanceMeters>
          </Trackpoint>
          <Trackpoint>
            <Time>2019-07-06T16:58:57.000Z</Time>
            <Position>
              <LatitudeDegrees>42.53675320185720920562744140625</LatitudeDegrees>
              <LongitudeDegrees>-0.1724688895046710968017578125</LongitudeDegrees>
            </Position>
            <AltitudeMeters>904</AltitudeMeters>
            <DistanceMeters>4335.0480228724</DistanceMeters>
          </Trackpoint>
          <Trackpoint>
            <Time>2019-07-06T16:58:58.000Z</Time>
            <Position>
              <LatitudeDegrees>42.53674440085887908935546875</LatitudeDegrees>
              <LongitudeDegrees>-0.17246226780116558074951171875</LongitudeDegrees>
            </Position>
            <AltitudeMeters>904.20001220703125</AltitudeMeters>
            <DistanceMeters>4336.1683713118</DistanceMeters>
          </Trackpoint>
          <Trackpoint>
            <Time>2019-07-06T16:58:59.000Z</Time>
            <Position>
              <LatitudeDegrees>42.53673694096505641937255859375</LatitudeDegrees>
              <LongitudeDegrees>-0.17245019786059856414794921875</LongitudeDegrees>
            </Position>
            <AltitudeMeters>904.4000244140625</AltitudeMeters>
            <DistanceMeters>4337.4608743649</DistanceMeters>
          </Trackpoint>
          <Trackpoint>
            <Time>2019-07-06T16:59:00.000Z</Time>
            <Position>
              <LatitudeDegrees>42.53673761151731014251708984375</LatitudeDegrees>
              <LongitudeDegrees>-0.172452628612518310546875</LongitudeDegrees>
            </Position>
            <AltitudeMeters>904.4000244140625</AltitudeMeters>
            <DistanceMeters>4337.6509277936</DistanceMeters>
          </Trackpoint>
          <Trackpoint>
            <Time>2019-07-06T16:59:01.000Z</Time>
            <Position>
              <LatitudeDegrees>42.5367355160415172576904296875</LatitudeDegrees>
              <LongitudeDegrees>-0.1724470965564250946044921875</LongitudeDegrees>
            </Position>
            <AltitudeMeters>904.5999755859375</AltitudeMeters>
            <DistanceMeters>4338.1626623116</DistanceMeters>
          </Trackpoint>
          <Trackpoint>
            <Time>2019-07-06T16:59:02.000Z</Time>
            <Position>
              <LatitudeDegrees>42.5367465801537036895751953125</LatitudeDegrees>
              <LongitudeDegrees>-0.1724454201757907867431640625</LongitudeDegrees>
            </Position>
            <AltitudeMeters>904.5999755859375</AltitudeMeters>
            <DistanceMeters>4339.4016590813</DistanceMeters>
          </Trackpoint>
          <Trackpoint>
            <Time>2019-07-06T16:59:03.000Z</Time>
            <Position>
              <LatitudeDegrees>42.53675001673400402069091796875</LatitudeDegrees>
              <LongitudeDegrees>-0.17245405353605747222900390625</LongitudeDegrees>
            </Position>
            <AltitudeMeters>904.5999755859375</AltitudeMeters>
            <DistanceMeters>4340.2079874908</DistanceMeters>
          </Trackpoint>
          <Trackpoint>
            <Time>2019-07-06T16:59:07.000Z</Time>
            <Position>
              <LatitudeDegrees>42.53686434589326381683349609375</LatitudeDegrees>
              <LongitudeDegrees>-0.17250954173505306243896484375</LongitudeDegrees>
            </Position>
            <AltitudeMeters>905</AltitudeMeters>
            <DistanceMeters>4353.7218420854</DistanceMeters>
          </Trackpoint>
          <Trackpoint>
            <Time>2019-07-06T16:59:08.000Z</Time>
            <Position>
              <LatitudeDegrees>42.53686518408358097076416015625</LatitudeDegrees>
              <LongitudeDegrees>-0.17251289449632167816162109375</LongitudeDegrees>
            </Position>
            <AltitudeMeters>905.20001220703125</AltitudeMeters>
            <DistanceMeters>4353.9906182219</DistanceMeters>
          </Trackpoint>
          <Trackpoint>
            <Time>2019-07-06T16:59:10.000Z</Time>
            <Position>
              <LatitudeDegrees>42.53688915632665157318115234375</LatitudeDegrees>
              <LongitudeDegrees>-0.1725342683494091033935546875</LongitudeDegrees>
            </Position>
            <AltitudeMeters>905.4000244140625</AltitudeMeters>
            <DistanceMeters>4357.1821580115</DistanceMeters>
          </Trackpoint>
          <Trackpoint>
            <Time>2019-07-06T16:59:14.000Z</Time>
            <Position>
              <LatitudeDegrees>42.5369169004261493682861328125</LatitudeDegrees>
              <LongitudeDegrees>-0.17251364886760711669921875</LongitudeDegrees>
            </Position>
            <AltitudeMeters>906</AltitudeMeters>
            <DistanceMeters>4360.7032792758</DistanceMeters>
          </Trackpoint>
          <Trackpoint>
            <Time>2019-07-06T16:59:15.000Z</Time>
            <Position>
              <LatitudeDegrees>42.53692050464451313018798828125</LatitudeDegrees>
              <LongitudeDegrees>-0.1724990643560886383056640625</LongitudeDegrees>
            </Position>
            <AltitudeMeters>906.20001220703125</AltitudeMeters>
            <DistanceMeters>4361.9675274834</DistanceMeters>
          </Trackpoint>
          <Trackpoint>
            <Time>2019-07-06T16:59:16.000Z</Time>
            <Position>
              <LatitudeDegrees>42.53691463731229305267333984375</LatitudeDegrees>
              <LongitudeDegrees>-0.17248657532036304473876953125</LongitudeDegrees>
            </Position>
            <AltitudeMeters>906.4000244140625</AltitudeMeters>
            <DistanceMeters>4363.1807473565</DistanceMeters>
          </Trackpoint>
          <Trackpoint>
            <Time>2019-07-06T16:59:18.000Z</Time>
            <Position>
              <LatitudeDegrees>42.53693886101245880126953125</LatitudeDegrees>
              <LongitudeDegrees>-0.17246729694306850433349609375</LongitudeDegrees>
            </Position>
            <AltitudeMeters>906.20001220703125</AltitudeMeters>
            <DistanceMeters>4366.3065340914</DistanceMeters>
          </Trackpoint>
          <Trackpoint>
            <Time>2019-07-06T16:59:21.000Z</Time>
            <Position>
              <LatitudeDegrees>42.53695101477205753326416015625</LatitudeDegrees>
              <LongitudeDegrees>-0.17244785092771053314208984375</LongitudeDegrees>
            </Position>
            <AltitudeMeters>906.20001220703125</AltitudeMeters>
            <DistanceMeters>4368.3971218076</DistanceMeters>
          </Trackpoint>
          <Trackpoint>
            <Time>2019-07-06T16:59:23.000Z</Time>
            <Position>
              <LatitudeDegrees>42.5369464047253131866455078125</LatitudeDegrees>
              <LongitudeDegrees>-0.17243997193872928619384765625</LongitudeDegrees>
            </Position>
            <AltitudeMeters>906.20001220703125</AltitudeMeters>
            <DistanceMeters>4369.2145725136</DistanceMeters>
          </Trackpoint>
          <Trackpoint>
            <Time>2019-07-06T16:59:25.000Z</Time>
            <Position>
              <LatitudeDegrees>42.53694347105920314788818359375</LatitudeDegrees>
              <LongitudeDegrees>-0.172444917261600494384765625</LongitudeDegrees>
            </Position>
            <AltitudeMeters>906.20001220703125</AltitudeMeters>
            <DistanceMeters>4369.7350552639</DistanceMeters>
          </Trackpoint>
          <Trackpoint>
            <Time>2019-07-06T16:59:34.000Z</Time>
            <Position>
              <LatitudeDegrees>42.53700801171362400054931640625</LatitudeDegrees>
              <LongitudeDegrees>-0.1724078692495822906494140625</LongitudeDegrees>
            </Position>
            <AltitudeMeters>906.5999755859375</AltitudeMeters>
            <DistanceMeters>4377.534195917</DistanceMeters>
          </Trackpoint>
          <Trackpoint>
            <Time>2019-07-06T16:59:44.000Z</Time>
            <Position>
              <LatitudeDegrees>42.5369142182171344757080078125</LatitudeDegrees>
              <LongitudeDegrees>-0.17250157892704010009765625</LongitudeDegrees>
            </Position>
            <AltitudeMeters>906.4000244140625</AltitudeMeters>
            <DistanceMeters>4390.4972469678</DistanceMeters>
          </Trackpoint>
          <Trackpoint>
            <Time>2019-07-06T16:59:46.000Z</Time>
            <Position>
              <LatitudeDegrees>42.53692955709993839263916015625</LatitudeDegrees>
              <LongitudeDegrees>-0.17252110876142978668212890625</LongitudeDegrees>
            </Position>
            <AltitudeMeters>906.4000244140625</AltitudeMeters>
            <DistanceMeters>4392.836525986</DistanceMeters>
          </Trackpoint>
          <Trackpoint>
            <Time>2019-07-06T16:59:50.000Z</Time>
            <Position>
              <LatitudeDegrees>42.53691136837005615234375</LatitudeDegrees>
              <LongitudeDegrees>-0.17253686673939228057861328125</LongitudeDegrees>
            </Position>
            <AltitudeMeters>905.79998779296875</AltitudeMeters>
            <DistanceMeters>4395.2386539692</DistanceMeters>
          </Trackpoint>
          <Trackpoint>
            <Time>2019-07-06T16:59:52.000Z</Time>
            <Position>
              <LatitudeDegrees>42.53689787350594997406005859375</LatitudeDegrees>
              <LongitudeDegrees>-0.17254675738513469696044921875</LongitudeDegrees>
            </Position>
            <AltitudeMeters>905.79998779296875</AltitudeMeters>
            <DistanceMeters>4396.946493157</DistanceMeters>
          </Trackpoint>
          <Trackpoint>
            <Time>2019-07-06T16:59:57.000Z</Time>
            <Position>
              <LatitudeDegrees>42.5369286350905895233154296875</LatitudeDegrees>
              <LongitudeDegrees>-0.1725993119180202484130859375</LongitudeDegrees>
            </Position>
            <AltitudeMeters>905.5999755859375</AltitudeMeters>
            <DistanceMeters>4402.451485123</DistanceMeters>
          </Trackpoint>
          <Trackpoint>
            <Time>2019-07-06T16:59:58.000Z</Time>
            <Position>
              <LatitudeDegrees>42.53694464452564716339111328125</LatitudeDegrees>
              <LongitudeDegrees>-0.17260341905057430267333984375</LongitudeDegrees>
            </Position>
            <AltitudeMeters>905.5999755859375</AltitudeMeters>
            <DistanceMeters>4404.2644792834</DistanceMeters>
          </Trackpoint>
          <Trackpoint>
            <Time>2019-07-06T17:00:12.000Z</Time>
            <Position>
              <LatitudeDegrees>42.5368713028728961944580078125</LatitudeDegrees>
              <LongitudeDegrees>-0.17266326583921909332275390625</LongitudeDegrees>
            </Position>
            <AltitudeMeters>905.79998779296875</AltitudeMeters>
            <DistanceMeters>4413.7894558205</DistanceMeters>
          </Trackpoint>
          <Trackpoint>
            <Time>2019-07-06T17:00:14.000Z</Time>
            <Position>
              <LatitudeDegrees>42.53686652518808841705322265625</LatitudeDegrees>
              <LongitudeDegrees>-0.172678939998149871826171875</LongitudeDegrees>
            </Position>
            <AltitudeMeters>905.79998779296875</AltitudeMeters>
            <DistanceMeters>4415.1795768077</DistanceMeters>
          </Trackpoint>
          <Trackpoint>
            <Time>2019-07-06T17:00:22.000Z</Time>
            <Position>
              <LatitudeDegrees>42.5368156470358371734619140625</LatitudeDegrees>
              <LongitudeDegrees>-0.17268489114940166473388671875</LongitudeDegrees>
            </Position>
            <AltitudeMeters>905.5999755859375</AltitudeMeters>
            <DistanceMeters>4420.8637314077</DistanceMeters>
          </Trackpoint>
          <Trackpoint>
            <Time>2019-07-06T17:00:43.000Z</Time>
            <Position>
              <LatitudeDegrees>42.536754794418811798095703125</LatitudeDegrees>
              <LongitudeDegrees>-0.17275764606893062591552734375</LongitudeDegrees>
            </Position>
            <AltitudeMeters>905.5999755859375</AltitudeMeters>
            <DistanceMeters>4429.8907691183</DistanceMeters>
          </Trackpoint>
          <Trackpoint>
            <Time>2019-07-06T17:00:44.000Z</Time>
            <Position>
              <LatitudeDegrees>42.53674800507724285125732421875</LatitudeDegrees>
              <LongitudeDegrees>-0.17275664024055004119873046875</LongitudeDegrees>
            </Position>
            <AltitudeMeters>905.79998779296875</AltitudeMeters>
            <DistanceMeters>4430.6509828333</DistanceMeters>
          </Trackpoint>
          <Trackpoint>
            <Time>2019-07-06T17:00:45.000Z</Time>
            <Position>
              <LatitudeDegrees>42.53674699924886226654052734375</LatitudeDegrees>
              <LongitudeDegrees>-0.17275898717343807220458984375</LongitudeDegrees>
            </Position>
            <AltitudeMeters>905.79998779296875</AltitudeMeters>
            <DistanceMeters>4430.8837497954</DistanceMeters>
          </Trackpoint>
          <Trackpoint>
            <Time>2019-07-06T17:00:49.000Z</Time>
            <Position>
              <LatitudeDegrees>42.5366905890405178070068359375</LatitudeDegrees>
              <LongitudeDegrees>-0.17275446094572544097900390625</LongitudeDegrees>
            </Position>
            <AltitudeMeters>905.79998779296875</AltitudeMeters>
            <DistanceMeters>4437.1734846786</DistanceMeters>
          </Trackpoint>
          <Trackpoint>
            <Time>2019-07-06T17:00:53.000Z</Time>
            <Position>
              <LatitudeDegrees>42.53665530122816562652587890625</LatitudeDegrees>
              <LongitudeDegrees>-0.17278547398746013641357421875</LongitudeDegrees>
            </Position>
            <AltitudeMeters>906</AltitudeMeters>
            <DistanceMeters>4441.8520427151</DistanceMeters>
          </Trackpoint>
          <Trackpoint>
            <Time>2019-07-06T17:00:54.000Z</Time>
            <Position>
              <LatitudeDegrees>42.536656223237514495849609375</LatitudeDegrees>
              <LongitudeDegrees>-0.17279536463320255279541015625</LongitudeDegrees>
            </Position>
            <AltitudeMeters>906</AltitudeMeters>
            <DistanceMeters>4442.6694934211</DistanceMeters>
          </Trackpoint>
          <Trackpoint>
            <Time>2019-07-06T17:00:58.000Z</Time>
            <Position>
              <LatitudeDegrees>42.53665949217975139617919921875</LatitudeDegrees>
              <LongitudeDegrees>-0.1728417165577411651611328125</LongitudeDegrees>
            </Position>
            <AltitudeMeters>905.79998779296875</AltitudeMeters>
            <DistanceMeters>4446.4883379397</DistanceMeters>
          </Trackpoint>
          <Trackpoint>
            <Time>2019-07-06T17:01:02.000Z</Time>
            <Position>
              <LatitudeDegrees>42.5366364419460296630859375</LatitudeDegrees>
              <LongitudeDegrees>-0.17288169823586940765380859375</LongitudeDegrees>
            </Position>
            <AltitudeMeters>905.5999755859375</AltitudeMeters>
            <DistanceMeters>4450.6511154615</DistanceMeters>
          </Trackpoint>
          <Trackpoint>
            <Time>2019-07-06T17:01:04.000Z</Time>
            <Position>
              <LatitudeDegrees>42.53663920797407627105712890625</LatitudeDegrees>
              <LongitudeDegrees>-0.1728973723948001861572265625</LongitudeDegrees>
            </Position>
            <AltitudeMeters>905.5999755859375</AltitudeMeters>
            <DistanceMeters>4451.9712687684</DistanceMeters>
          </Trackpoint>
          <Trackpoint>
            <Time>2019-07-06T17:01:07.000Z</Time>
            <Position>
              <LatitudeDegrees>42.5366312451660633087158203125</LatitudeDegrees>
              <LongitudeDegrees>-0.17292964272201061248779296875</LongitudeDegrees>
            </Position>
            <AltitudeMeters>905.5999755859375</AltitudeMeters>
            <DistanceMeters>4454.7612375665</DistanceMeters>
          </Trackpoint>
          <Trackpoint>
            <Time>2019-07-06T17:01:10.000Z</Time>
            <Position>
              <LatitudeDegrees>42.5366201810538768768310546875</LatitudeDegrees>
              <LongitudeDegrees>-0.172960571944713592529296875</LongitudeDegrees>
            </Position>
            <AltitudeMeters>905.5999755859375</AltitudeMeters>
            <DistanceMeters>4457.5801854679</DistanceMeters>
          </Trackpoint>
          <Trackpoint>
            <Time>2019-07-06T17:01:12.000Z</Time>
            <Position>
              <LatitudeDegrees>42.53662177361547946929931640625</LatitudeDegrees>
              <LongitudeDegrees>-0.172963254153728485107421875</LongitudeDegrees>
            </Position>
            <AltitudeMeters>905.5999755859375</AltitudeMeters>
            <DistanceMeters>4457.8489616044</DistanceMeters>
          </Trackpoint>
          <Trackpoint>
            <Time>2019-07-06T17:01:19.000Z</Time>
            <Position>
              <LatitudeDegrees>42.53664172254502773284912109375</LatitudeDegrees>
              <LongitudeDegrees>-0.17301396466791629791259765625</LongitudeDegrees>
            </Position>
            <AltitudeMeters>905.79998779296875</AltitudeMeters>
            <DistanceMeters>4462.5640489</DistanceMeters>
          </Trackpoint>
          <Trackpoint>
            <Time>2019-07-06T17:01:23.000Z</Time>
            <Position>
              <LatitudeDegrees>42.53664256073534488677978515625</LatitudeDegrees>
              <LongitudeDegrees>-0.17305520363152027130126953125</LongitudeDegrees>
            </Position>
            <AltitudeMeters>905.79998779296875</AltitudeMeters>
            <DistanceMeters>4465.9491880415</DistanceMeters>
          </Trackpoint>
          <Trackpoint>
            <Time>2019-07-06T17:01:29.000Z</Time>
            <Position>
              <LatitudeDegrees>42.53658070228993892669677734375</LatitudeDegrees>
              <LongitudeDegrees>-0.1730681955814361572265625</LongitudeDegrees>
            </Position>
            <AltitudeMeters>905.5999755859375</AltitudeMeters>
            <DistanceMeters>4472.9166618278</DistanceMeters>
          </Trackpoint>
          <Trackpoint>
            <Time>2019-07-06T17:01:34.000Z</Time>
            <Position>
              <LatitudeDegrees>42.53653929568827152252197265625</LatitudeDegrees>
              <LongitudeDegrees>-0.17308856360614299774169921875</LongitudeDegrees>
            </Position>
            <AltitudeMeters>905.5999755859375</AltitudeMeters>
            <DistanceMeters>4477.8186036285</DistanceMeters>
          </Trackpoint>
          <Trackpoint>
            <Time>2019-07-06T17:01:38.000Z</Time>
            <Position>
              <LatitudeDegrees>42.53653393127024173736572265625</LatitudeDegrees>
              <LongitudeDegrees>-0.17310247756540775299072265625</LongitudeDegrees>
            </Position>
            <AltitudeMeters>905.79998779296875</AltitudeMeters>
            <DistanceMeters>4479.1076086966</DistanceMeters>
          </Trackpoint>
          <Trackpoint>
            <Time>2019-07-06T17:01:40.000Z</Time>
            <Position>
              <LatitudeDegrees>42.53654147498309612274169921875</LatitudeDegrees>
              <LongitudeDegrees>-0.17311823554337024688720703125</LongitudeDegrees>
            </Position>
            <AltitudeMeters>905.5999755859375</AltitudeMeters>
            <DistanceMeters>4480.6516100507</DistanceMeters>
          </Trackpoint>
          <Trackpoint>
            <Time>2019-07-06T17:01:41.000Z</Time>
            <Position>
              <LatitudeDegrees>42.5365373678505420684814453125</LatitudeDegrees>
              <LongitudeDegrees>-0.1731230132281780242919921875</LongitudeDegrees>
            </Position>
            <AltitudeMeters>905.5999755859375</AltitudeMeters>
            <DistanceMeters>4481.2526117626</DistanceMeters>
          </Trackpoint>
          <Trackpoint>
            <Time>2019-07-06T17:01:44.000Z</Time>
            <Position>
              <LatitudeDegrees>42.53653476946055889129638671875</LatitudeDegrees>
              <LongitudeDegrees>-0.1731283776462078094482421875</LongitudeDegrees>
            </Position>
            <AltitudeMeters>905.5999755859375</AltitudeMeters>
            <DistanceMeters>4481.7730945129</DistanceMeters>
          </Trackpoint>
          <Trackpoint>
            <Time>2019-07-06T17:01:47.000Z</Time>
            <Position>
              <LatitudeDegrees>42.53652689047157764434814453125</LatitudeDegrees>
              <LongitudeDegrees>-0.17314136959612369537353515625</LongitudeDegrees>
            </Position>
            <AltitudeMeters>905.5999755859375</AltitudeMeters>
            <DistanceMeters>4483.1534372709</DistanceMeters>
          </Trackpoint>
          <Trackpoint>
            <Time>2019-07-06T17:02:07.000Z</Time>
            <Position>
              <LatitudeDegrees>42.5365658663213253021240234375</LatitudeDegrees>
              <LongitudeDegrees>-0.1732034794986248016357421875</LongitudeDegrees>
            </Position>
            <AltitudeMeters>906</AltitudeMeters>
            <DistanceMeters>4489.8438848593</DistanceMeters>
          </Trackpoint>
          <Trackpoint>
            <Time>2019-07-06T17:02:24.000Z</Time>
            <Position>
              <LatitudeDegrees>42.53655128180980682373046875</LatitudeDegrees>
              <LongitudeDegrees>-0.1732363365590572357177734375</LongitudeDegrees>
            </Position>
            <AltitudeMeters>907.20001220703125</AltitudeMeters>
            <DistanceMeters>4492.9883933592</DistanceMeters>
          </Trackpoint>
          <Trackpoint>
            <Time>2019-07-06T17:02:32.000Z</Time>
            <Position>
              <LatitudeDegrees>42.53649001009762287139892578125</LatitudeDegrees>
              <LongitudeDegrees>-0.17326575703918933868408203125</LongitudeDegrees>
            </Position>
            <AltitudeMeters>908</AltitudeMeters>
            <DistanceMeters>4500.2210438305</DistanceMeters>
          </Trackpoint>
          <Trackpoint>
            <Time>2019-07-06T17:02:34.000Z</Time>
            <Position>
              <LatitudeDegrees>42.536503337323665618896484375</LatitudeDegrees>
              <LongitudeDegrees>-0.17327380366623401641845703125</LongitudeDegrees>
            </Position>
            <AltitudeMeters>908</AltitudeMeters>
            <DistanceMeters>4501.8392904646</DistanceMeters>
          </Trackpoint>
          <Trackpoint>
            <Time>2019-07-06T17:02:41.000Z</Time>
            <Position>
              <LatitudeDegrees>42.536514066159725189208984375</LatitudeDegrees>
              <LongitudeDegrees>-0.17335049808025360107421875</LongitudeDegrees>
            </Position>
            <AltitudeMeters>908.20001220703125</AltitudeMeters>
            <DistanceMeters>4508.2407345909</DistanceMeters>
          </Trackpoint>
          <Trackpoint>
            <Time>2019-07-06T17:02:43.000Z</Time>
            <Position>
              <LatitudeDegrees>42.53647827543318271636962890625</LatitudeDegrees>
              <LongitudeDegrees>-0.1733667589724063873291015625</LongitudeDegrees>
            </Position>
            <AltitudeMeters>908.4000244140625</AltitudeMeters>
            <DistanceMeters>4512.4413023349</DistanceMeters>
          </Trackpoint>
          <Trackpoint>
            <Time>2019-07-06T17:02:46.000Z</Time>
            <Position>
              <LatitudeDegrees>42.53649470396339893341064453125</LatitudeDegrees>
              <LongitudeDegrees>-0.17339450307190418243408203125</LongitudeDegrees>
            </Position>
            <AltitudeMeters>908.4000244140625</AltitudeMeters>
            <DistanceMeters>4515.3609585069</DistanceMeters>
          </Trackpoint>
          <Trackpoint>
            <Time>2019-07-06T17:03:08.000Z</Time>
            <Position>
              <LatitudeDegrees>42.53642848692834377288818359375</LatitudeDegrees>
              <LongitudeDegrees>-0.1734673418104648590087890625</LongitudeDegrees>
            </Position>
            <AltitudeMeters>909.4000244140625</AltitudeMeters>
            <DistanceMeters>4524.8479375792</DistanceMeters>
          </Trackpoint>
          <Trackpoint>
            <Time>2019-07-06T17:03:18.000Z</Time>
            <Position>
              <LatitudeDegrees>42.5364324264228343963623046875</LatitudeDegrees>
              <LongitudeDegrees>-0.17349240370094776153564453125</LongitudeDegrees>
            </Position>
            <AltitudeMeters>908.20001220703125</AltitudeMeters>
            <DistanceMeters>4526.951443571</DistanceMeters>
          </Trackpoint>
          <Trackpoint>
            <Time>2019-07-06T17:03:25.000Z</Time>
            <Position>
              <LatitudeDegrees>42.5363774411380290985107421875</LatitudeDegrees>
              <LongitudeDegrees>-0.1734827645123004913330078125</LongitudeDegrees>
            </Position>
            <AltitudeMeters>908</AltitudeMeters>
            <DistanceMeters>4533.1215977252</DistanceMeters>
          </Trackpoint>
          <Trackpoint>
            <Time>2019-07-06T17:03:28.000Z</Time>
            <Position>
              <LatitudeDegrees>42.5363767705857753753662109375</LatitudeDegrees>
              <LongitudeDegrees>-0.17351939342916011810302734375</LongitudeDegrees>
            </Position>
            <AltitudeMeters>908</AltitudeMeters>
            <DistanceMeters>4536.126606285</DistanceMeters>
          </Trackpoint>
          <Trackpoint>
            <Time>2019-07-06T17:03:30.000Z</Time>
            <Position>
              <LatitudeDegrees>42.536372244358062744140625</LatitudeDegrees>
              <LongitudeDegrees>-0.173537917435169219970703125</LongitudeDegrees>
            </Position>
            <AltitudeMeters>908.20001220703125</AltitudeMeters>
            <DistanceMeters>4537.7280249404</DistanceMeters>
          </Trackpoint>
          <Trackpoint>
            <Time>2019-07-06T17:03:43.000Z</Time>
            <Position>
              <LatitudeDegrees>42.53629404120147228240966796875</LatitudeDegrees>
              <LongitudeDegrees>-0.1736011169850826263427734375</LongitudeDegrees>
            </Position>
            <AltitudeMeters>908.79998779296875</AltitudeMeters>
            <DistanceMeters>4547.8589601817</DistanceMeters>
          </Trackpoint>
          <Trackpoint>
            <Time>2019-07-06T17:03:47.000Z</Time>
            <Position>
              <LatitudeDegrees>42.5362761877477169036865234375</LatitudeDegrees>
              <LongitudeDegrees>-0.17363389022648334503173828125</LongitudeDegrees>
            </Position>
            <AltitudeMeters>909</AltitudeMeters>
            <DistanceMeters>4551.2024964291</DistanceMeters>
          </Trackpoint>
          <Trackpoint>
            <Time>2019-07-06T17:03:49.000Z</Time>
            <Position>
              <LatitudeDegrees>42.53627979196608066558837890625</LatitudeDegrees>
              <LongitudeDegrees>-0.17365761101245880126953125</LongitudeDegrees>
            </Position>
            <AltitudeMeters>909</AltitudeMeters>
            <DistanceMeters>4553.1912582254</DistanceMeters>
          </Trackpoint>
          <Trackpoint>
            <Time>2019-07-06T17:04:00.000Z</Time>
            <Position>
              <LatitudeDegrees>42.53626755438745021820068359375</LatitudeDegrees>
              <LongitudeDegrees>-0.173769928514957427978515625</LongitudeDegrees>
            </Position>
            <AltitudeMeters>909</AltitudeMeters>
            <DistanceMeters>4562.5029065228</DistanceMeters>
          </Trackpoint>
          <Trackpoint>
            <Time>2019-07-06T17:04:01.000Z</Time>
            <Position>
              <LatitudeDegrees>42.53628440201282501220703125</LatitudeDegrees>
              <LongitudeDegrees>-0.17377831041812896728515625</LongitudeDegrees>
            </Position>
            <AltitudeMeters>909.20001220703125</AltitudeMeters>
            <DistanceMeters>4564.4962036997</DistanceMeters>
          </Trackpoint>
          <Trackpoint>
            <Time>2019-07-06T17:04:03.000Z</Time>
            <Position>
              <LatitudeDegrees>42.53630611114203929901123046875</LatitudeDegrees>
              <LongitudeDegrees>-0.17378509975969791412353515625</LongitudeDegrees>
            </Position>
            <AltitudeMeters>909.4000244140625</AltitudeMeters>
            <DistanceMeters>4566.9741972392</DistanceMeters>
          </Trackpoint>
          <Trackpoint>
            <Time>2019-07-06T17:04:23.000Z</Time>
            <Position>
              <LatitudeDegrees>42.53622983582317829132080078125</LatitudeDegrees>
              <LongitudeDegrees>-0.17378845252096652984619140625</LongitudeDegrees>
            </Position>
            <AltitudeMeters>909.5999755859375</AltitudeMeters>
            <DistanceMeters>4575.4683311437</DistanceMeters>
          </Trackpoint>
          <Trackpoint>
            <Time>2019-07-06T17:04:30.000Z</Time>
            <Position>
              <LatitudeDegrees>42.53614249639213085174560546875</LatitudeDegrees>
              <LongitudeDegrees>-0.17381544224917888641357421875</LongitudeDegrees>
            </Position>
            <AltitudeMeters>910.4000244140625</AltitudeMeters>
            <DistanceMeters>4585.4379876783</DistanceMeters>
          </Trackpoint>
          <Trackpoint>
            <Time>2019-07-06T17:04:31.000Z</Time>
            <Position>
              <LatitudeDegrees>42.5361256487667560577392578125</LatitudeDegrees>
              <LongitudeDegrees>-0.1738113351166248321533203125</LongitudeDegrees>
            </Position>
            <AltitudeMeters>910.4000244140625</AltitudeMeters>
            <DistanceMeters>4587.3408961506</DistanceMeters>
          </Trackpoint>
          <Trackpoint>
            <Time>2019-07-06T17:04:33.000Z</Time>
            <Position>
              <LatitudeDegrees>42.53612757660448551177978515625</LatitudeDegrees>
              <LongitudeDegrees>-0.1738126762211322784423828125</LongitudeDegrees>
            </Position>
            <AltitudeMeters>910.4000244140625</AltitudeMeters>
            <DistanceMeters>4587.5736631127</DistanceMeters>
          </Trackpoint>
          <Trackpoint>
            <Time>2019-07-06T17:04:34.000Z</Time>
            <Position>
              <LatitudeDegrees>42.53612615168094635009765625</LatitudeDegrees>
              <LongitudeDegrees>-0.17381359823048114776611328125</LongitudeDegrees>
            </Position>
            <AltitudeMeters>910.4000244140625</AltitudeMeters>
            <DistanceMeters>4587.7637165415</DistanceMeters>
          </Trackpoint>
          <Trackpoint>
            <Time>2019-07-06T17:04:35.000Z</Time>
            <Position>
              <LatitudeDegrees>42.53611969761550426483154296875</LatitudeDegrees>
              <LongitudeDegrees>-0.17381309531629085540771484375</LongitudeDegrees>
            </Position>
            <AltitudeMeters>910.4000244140625</AltitudeMeters>
            <DistanceMeters>4588.474831357</DistanceMeters>
          </Trackpoint>
          <Trackpoint>
            <Time>2019-07-06T17:04:37.000Z</Time>
            <Position>
              <LatitudeDegrees>42.53610963933169841766357421875</LatitudeDegrees>
              <LongitudeDegrees>-0.17382767982780933380126953125</LongitudeDegrees>
            </Position>
            <AltitudeMeters>910.4000244140625</AltitudeMeters>
            <DistanceMeters>4590.1124920984</DistanceMeters>
          </Trackpoint>
          <Trackpoint>
            <Time>2019-07-06T17:04:40.000Z</Time>
            <Position>
              <LatitudeDegrees>42.53610746003687381744384765625</LatitudeDegrees>
              <LongitudeDegrees>-0.17383405007421970367431640625</LongitudeDegrees>
            </Position>
            <AltitudeMeters>910.4000244140625</AltitudeMeters>
            <DistanceMeters>4590.6826523846</DistanceMeters>
          </Trackpoint>
          <Trackpoint>
            <Time>2019-07-06T17:04:56.000Z</Time>
            <Position>
              <LatitudeDegrees>42.5361072085797786712646484375</LatitudeDegrees>
              <LongitudeDegrees>-0.17392675392329692840576171875</LongitudeDegrees>
            </Position>
            <AltitudeMeters>910.79998779296875</AltitudeMeters>
            <DistanceMeters>4598.2847895342</DistanceMeters>
          </Trackpoint>
          <Trackpoint>
            <Time>2019-07-06T17:05:08.000Z</Time>
            <Position>
              <LatitudeDegrees>42.53606890328228473663330078125</LatitudeDegrees>
              <LongitudeDegrees>-0.17393848858773708343505859375</LongitudeDegrees>
            </Position>
            <AltitudeMeters>911.20001220703125</AltitudeMeters>
            <DistanceMeters>4602.6549853741</DistanceMeters>
          </Trackpoint>
          <Trackpoint>
            <Time>2019-07-06T17:05:11.000Z</Time>
            <Position>
              <LatitudeDegrees>42.53602229990065097808837890625</LatitudeDegrees>
              <LongitudeDegrees>-0.1739404164254665374755859375</LongitudeDegrees>
            </Position>
            <AltitudeMeters>911</AltitudeMeters>
            <DistanceMeters>4607.8450449144</DistanceMeters>
          </Trackpoint>
          <Trackpoint>
            <Time>2019-07-06T17:05:12.000Z</Time>
            <Position>
              <LatitudeDegrees>42.53601274453103542327880859375</LatitudeDegrees>
              <LongitudeDegrees>-0.173946954309940338134765625</LongitudeDegrees>
            </Position>
            <AltitudeMeters>911.20001220703125</AltitudeMeters>
            <DistanceMeters>4609.0357262327</DistanceMeters>
          </Trackpoint>
          <Trackpoint>
            <Time>2019-07-06T17:05:14.000Z</Time>
            <Position>
              <LatitudeDegrees>42.53601257689297199249267578125</LatitudeDegrees>
              <LongitudeDegrees>-0.17397117801010608673095703125</LongitudeDegrees>
            </Position>
            <AltitudeMeters>911.20001220703125</AltitudeMeters>
            <DistanceMeters>4611.0199422818</DistanceMeters>
          </Trackpoint>
          <Trackpoint>
            <Time>2019-07-06T17:05:17.000Z</Time>
            <Position>
              <LatitudeDegrees>42.53601559437811374664306640625</LatitudeDegrees>
              <LongitudeDegrees>-0.173997916281223297119140625</LongitudeDegrees>
            </Position>
            <AltitudeMeters>911.20001220703125</AltitudeMeters>
            <DistanceMeters>4613.2383632658</DistanceMeters>
          </Trackpoint>
          <Trackpoint>
            <Time>2019-07-06T17:05:22.000Z</Time>
            <Position>
              <LatitudeDegrees>42.53598173148930072784423828125</LatitudeDegrees>
              <LongitudeDegrees>-0.17401560209691524505615234375</LongitudeDegrees>
            </Position>
            <AltitudeMeters>911.20001220703125</AltitudeMeters>
            <DistanceMeters>4617.2767191265</DistanceMeters>
          </Trackpoint>
          <Trackpoint>
            <Time>2019-07-06T17:05:27.000Z</Time>
            <Position>
              <LatitudeDegrees>42.5359942205250263214111328125</LatitudeDegrees>
              <LongitudeDegrees>-0.17404644750058650970458984375</LongitudeDegrees>
            </Position>
            <AltitudeMeters>911</AltitudeMeters>
            <DistanceMeters>4620.1637176644</DistanceMeters>
          </Trackpoint>
          <Trackpoint>
            <Time>2019-07-06T17:05:28.000Z</Time>
            <Position>
              <LatitudeDegrees>42.53598659299314022064208984375</LatitudeDegrees>
              <LongitudeDegrees>-0.1740472018718719482421875</LongitudeDegrees>
            </Position>
            <AltitudeMeters>911</AltitudeMeters>
            <DistanceMeters>4621.0189580937</DistanceMeters>
          </Trackpoint>
          <Trackpoint>
            <Time>2019-07-06T17:05:31.000Z</Time>
            <Position>
              <LatitudeDegrees>42.535981647670269012451171875</LatitudeDegrees>
              <LongitudeDegrees>-0.1740632951259613037109375</LongitudeDegrees>
            </Position>
            <AltitudeMeters>911.20001220703125</AltitudeMeters>
            <DistanceMeters>4622.4506799077</DistanceMeters>
          </Trackpoint>
          <Trackpoint>
            <Time>2019-07-06T17:05:33.000Z</Time>
            <Position>
              <LatitudeDegrees>42.535981647670269012451171875</LatitudeDegrees>
              <LongitudeDegrees>-0.17408517189323902130126953125</LongitudeDegrees>
            </Position>
            <AltitudeMeters>911.20001220703125</AltitudeMeters>
            <DistanceMeters>4624.2486697205</DistanceMeters>
          </Trackpoint>
          <Trackpoint>
            <Time>2019-07-06T17:05:39.000Z</Time>
            <Position>
              <LatitudeDegrees>42.536016516387462615966796875</LatitudeDegrees>
              <LongitudeDegrees>-0.17415055073797702789306640625</LongitudeDegrees>
            </Position>
            <AltitudeMeters>911.20001220703125</AltitudeMeters>
            <DistanceMeters>4630.8678789562</DistanceMeters>
          </Trackpoint>
          <Trackpoint>
            <Time>2019-07-06T17:05:43.000Z</Time>
            <Position>
              <LatitudeDegrees>42.53603353165090084075927734375</LatitudeDegrees>
              <LongitudeDegrees>-0.17418600618839263916015625</LongitudeDegrees>
            </Position>
            <AltitudeMeters>911.20001220703125</AltitudeMeters>
            <DistanceMeters>4634.3386313208</DistanceMeters>
          </Trackpoint>
          <Trackpoint>
            <Time>2019-07-06T17:05:48.000Z</Time>
            <Position>
              <LatitudeDegrees>42.53604610450565814971923828125</LatitudeDegrees>
              <LongitudeDegrees>-0.17421743832528591156005859375</LongitudeDegrees>
            </Position>
            <AltitudeMeters>911</AltitudeMeters>
            <DistanceMeters>4637.2706328172</DistanceMeters>
          </Trackpoint>
          <Trackpoint>
            <Time>2019-07-06T17:05:58.000Z</Time>
            <Position>
              <LatitudeDegrees>42.53609086386859416961669921875</LatitudeDegrees>
              <LongitudeDegrees>-0.17423696815967559814453125</LongitudeDegrees>
            </Position>
            <AltitudeMeters>911.20001220703125</AltitudeMeters>
            <DistanceMeters>4642.5031457678</DistanceMeters>
          </Trackpoint>
          <Trackpoint>
            <Time>2019-07-06T17:06:01.000Z</Time>
            <Position>
              <LatitudeDegrees>42.536119781434535980224609375</LatitudeDegrees>
              <LongitudeDegrees>-0.17427443526685237884521484375</LongitudeDegrees>
            </Position>
            <AltitudeMeters>911.4000244140625</AltitudeMeters>
            <DistanceMeters>4646.9531971879</DistanceMeters>
          </Trackpoint>
          <Trackpoint>
            <Time>2019-07-06T17:06:09.000Z</Time>
            <Position>
              <LatitudeDegrees>42.53610930405557155609130859375</LatitudeDegrees>
              <LongitudeDegrees>-0.17432556487619876861572265625</LongitudeDegrees>
            </Position>
            <AltitudeMeters>911.5999755859375</AltitudeMeters>
            <DistanceMeters>4651.3057941574</DistanceMeters>
          </Trackpoint>
          <Trackpoint>
            <Time>2019-07-06T17:06:28.000Z</Time>
            <Position>
              <LatitudeDegrees>42.536101005971431732177734375</LatitudeDegrees>
              <LongitudeDegrees>-0.17437468282878398895263671875</LongitudeDegrees>
            </Position>
            <AltitudeMeters>911.79998779296875</AltitudeMeters>
            <DistanceMeters>4655.4391831582</DistanceMeters>
          </Trackpoint>
          <Trackpoint>
            <Time>2019-07-06T17:06:36.000Z</Time>
            <Position>
              <LatitudeDegrees>42.536127828061580657958984375</LatitudeDegrees>
              <LongitudeDegrees>-0.17438809387385845184326171875</LongitudeDegrees>
            </Position>
            <AltitudeMeters>911.4000244140625</AltitudeMeters>
            <DistanceMeters>4658.6222234926</DistanceMeters>
          </Trackpoint>
          <Trackpoint>
            <Time>2019-07-06T17:06:37.000Z</Time>
            <Position>
              <LatitudeDegrees>42.53612154163420200347900390625</LatitudeDegrees>
              <LongitudeDegrees>-0.17438851296901702880859375</LongitudeDegrees>
            </Position>
            <AltitudeMeters>911.4000244140625</AltitudeMeters>
            <DistanceMeters>4659.3333383081</DistanceMeters>
          </Trackpoint>
          <Trackpoint>
            <Time>2019-07-06T17:07:10.000Z</Time>
            <Position>
              <LatitudeDegrees>42.5361806340515613555908203125</LatitudeDegrees>
              <LongitudeDegrees>-0.17445087432861328125</LongitudeDegrees>
            </Position>
            <AltitudeMeters>912</AltitudeMeters>
            <DistanceMeters>4667.6653985396</DistanceMeters>
          </Trackpoint>
          <Trackpoint>
            <Time>2019-07-06T17:07:20.000Z</Time>
            <Position>
              <LatitudeDegrees>42.5361635349690914154052734375</LatitudeDegrees>
              <LongitudeDegrees>-0.1744590885937213897705078125</LongitudeDegrees>
            </Position>
            <AltitudeMeters>912.4000244140625</AltitudeMeters>
            <DistanceMeters>4669.6856941993</DistanceMeters>
          </Trackpoint>
          <Trackpoint>
            <Time>2019-07-06T17:07:24.000Z</Time>
            <Position>
              <LatitudeDegrees>42.5361635349690914154052734375</LatitudeDegrees>
              <LongitudeDegrees>-0.17449311912059783935546875</LongitudeDegrees>
            </Position>
            <AltitudeMeters>913.5999755859375</AltitudeMeters>
            <DistanceMeters>4672.478897745</DistanceMeters>
          </Trackpoint>
          <Trackpoint>
            <Time>2019-07-06T17:07:28.000Z</Time>
            <Position>
              <LatitudeDegrees>42.5362019240856170654296875</LatitudeDegrees>
              <LongitudeDegrees>-0.1745368726551532745361328125</LongitudeDegrees>
            </Position>
            <AltitudeMeters>913.79998779296875</AltitudeMeters>
            <DistanceMeters>4678.0588353413</DistanceMeters>
          </Trackpoint>
          <Trackpoint>
            <Time>2019-07-06T17:07:35.000Z</Time>
            <Position>
              <LatitudeDegrees>42.53631449304521083831787109375</LatitudeDegrees>
              <LongitudeDegrees>-0.17451968975365161895751953125</LongitudeDegrees>
            </Position>
            <AltitudeMeters>913.20001220703125</AltitudeMeters>
            <DistanceMeters>4690.6669861066</DistanceMeters>
          </Trackpoint>
          <Trackpoint>
            <Time>2019-07-06T17:07:37.000Z</Time>
            <Position>
              <LatitudeDegrees>42.53632488660514354705810546875</LatitudeDegrees>
              <LongitudeDegrees>-0.17452756874263286590576171875</LongitudeDegrees>
            </Position>
            <AltitudeMeters>913</AltitudeMeters>
            <DistanceMeters>4691.990555081</DistanceMeters>
          </Trackpoint>
          <Trackpoint>
            <Time>2019-07-06T17:07:42.000Z</Time>
            <Position>
              <LatitudeDegrees>42.536358498036861419677734375</LatitudeDegrees>
              <LongitudeDegrees>-0.174545757472515106201171875</LongitudeDegrees>
            </Position>
            <AltitudeMeters>913</AltitudeMeters>
            <DistanceMeters>4696.0154721162</DistanceMeters>
          </Trackpoint>
          <Trackpoint>
            <Time>2019-07-06T17:07:44.000Z</Time>
            <Position>
              <LatitudeDegrees>42.536348439753055572509765625</LatitudeDegrees>
              <LongitudeDegrees>-0.174539722502231597900390625</LongitudeDegrees>
            </Position>
            <AltitudeMeters>913.20001220703125</AltitudeMeters>
            <DistanceMeters>4697.2398056859</DistanceMeters>
          </Trackpoint>
          <Trackpoint>
            <Time>2019-07-06T17:08:02.000Z</Time>
            <Position>
              <LatitudeDegrees>42.53635388799011707305908203125</LatitudeDegrees>
              <LongitudeDegrees>-0.1746230386197566986083984375</LongitudeDegrees>
            </Position>
            <AltitudeMeters>913.5999755859375</AltitudeMeters>
            <DistanceMeters>4704.0995234898</DistanceMeters>
          </Trackpoint>
          <Trackpoint>
            <Time>2019-07-06T17:08:14.000Z</Time>
            <Position>
              <LatitudeDegrees>42.53626688383519649505615234375</LatitudeDegrees>
              <LongitudeDegrees>-0.17460954375565052032470703125</LongitudeDegrees>
            </Position>
            <AltitudeMeters>913.4000244140625</AltitudeMeters>
            <DistanceMeters>4713.8461333717</DistanceMeters>
          </Trackpoint>
          <Trackpoint>
            <Time>2019-07-06T17:08:18.000Z</Time>
            <Position>
              <LatitudeDegrees>42.5363134033977985382080078125</LatitudeDegrees>
              <LongitudeDegrees>-0.17461381852626800537109375</LongitudeDegrees>
            </Position>
            <AltitudeMeters>913.4000244140625</AltitudeMeters>
            <DistanceMeters>4719.0353228996</DistanceMeters>
          </Trackpoint>
          <Trackpoint>
            <Time>2019-07-06T17:08:43.000Z</Time>
            <Position>
              <LatitudeDegrees>42.53644608892500400543212890625</LatitudeDegrees>
              <LongitudeDegrees>-0.174649022519588470458984375</LongitudeDegrees>
            </Position>
            <AltitudeMeters>913.79998779296875</AltitudeMeters>
            <DistanceMeters>4734.0828863845</DistanceMeters>
          </Trackpoint>
          <Trackpoint>
            <Time>2019-07-06T17:08:45.000Z</Time>
            <Position>
              <LatitudeDegrees>42.53645866177976131439208984375</LatitudeDegrees>
              <LongitudeDegrees>-0.1746548898518085479736328125</LongitudeDegrees>
            </Position>
            <AltitudeMeters>914</AltitudeMeters>
            <DistanceMeters>4735.5672511147</DistanceMeters>
          </Trackpoint>
          <Trackpoint>
            <Time>2019-07-06T17:08:49.000Z</Time>
            <Position>
              <LatitudeDegrees>42.53646100871264934539794921875</LatitudeDegrees>
              <LongitudeDegrees>-0.174690596759319305419921875</LongitudeDegrees>
            </Position>
            <AltitudeMeters>914.20001220703125</AltitudeMeters>
            <DistanceMeters>4738.5084775992</DistanceMeters>
          </Trackpoint>
          <Trackpoint>
            <Time>2019-07-06T17:09:03.000Z</Time>
            <Position>
              <LatitudeDegrees>42.5364857353270053863525390625</LatitudeDegrees>
              <LongitudeDegrees>-0.1747058518230915069580078125</LongitudeDegrees>
            </Position>
            <AltitudeMeters>914.4000244140625</AltitudeMeters>
            <DistanceMeters>4741.5314624423</DistanceMeters>
          </Trackpoint>
          <Trackpoint>
            <Time>2019-07-06T17:09:10.000Z</Time>
            <Position>
              <LatitudeDegrees>42.53648162819445133209228515625</LatitudeDegrees>
              <LongitudeDegrees>-0.17477030865848064422607421875</LongitudeDegrees>
            </Position>
            <AltitudeMeters>914.5999755859375</AltitudeMeters>
            <DistanceMeters>4746.8376643186</DistanceMeters>
          </Trackpoint>
          <Trackpoint>
            <Time>2019-07-06T17:09:11.000Z</Time>
            <Position>
              <LatitudeDegrees>42.536471821367740631103515625</LatitudeDegrees>
              <LongitudeDegrees>-0.17477802000939846038818359375</LongitudeDegrees>
            </Position>
            <AltitudeMeters>914.5999755859375</AltitudeMeters>
            <DistanceMeters>4748.1054788188</DistanceMeters>
          </Trackpoint>
          <Trackpoint>
            <Time>2019-07-06T17:09:13.000Z</Time>
            <Position>
              <LatitudeDegrees>42.53646679222583770751953125</LatitudeDegrees>
              <LongitudeDegrees>-0.1747836358845233917236328125</LongitudeDegrees>
            </Position>
            <AltitudeMeters>914.79998779296875</AltitudeMeters>
            <DistanceMeters>4748.8291807145</DistanceMeters>
          </Trackpoint>
          <Trackpoint>
            <Time>2019-07-06T17:09:39.000Z</Time>
            <Position>
              <LatitudeDegrees>42.53662780858576297760009765625</LatitudeDegrees>
              <LongitudeDegrees>-0.17490123398602008819580078125</LongitudeDegrees>
            </Position>
            <AltitudeMeters>914.79998779296875</AltitudeMeters>
            <DistanceMeters>4769.1808771138</DistanceMeters>
          </Trackpoint>
          <Trackpoint>
            <Time>2019-07-06T17:09:45.000Z</Time>
            <Position>
              <LatitudeDegrees>42.536628730595111846923828125</LatitudeDegrees>
              <LongitudeDegrees>-0.17490458674728870391845703125</LongitudeDegrees>
            </Position>
            <AltitudeMeters>914.79998779296875</AltitudeMeters>
            <DistanceMeters>4769.4813779698</DistanceMeters>
          </Trackpoint>
          <Trackpoint>
            <Time>2019-07-06T17:10:21.000Z</Time>
            <Position>
              <LatitudeDegrees>42.53671179525554180145263671875</LatitudeDegrees>
              <LongitudeDegrees>-0.1750065945088863372802734375</LongitudeDegrees>
            </Position>
            <AltitudeMeters>914.79998779296875</AltitudeMeters>
            <DistanceMeters>4781.9494478277</DistanceMeters>
          </Trackpoint>
          <Trackpoint>
            <Time>2019-07-06T17:10:33.000Z</Time>
            <Position>
              <LatitudeDegrees>42.5367962010204792022705078125</LatitudeDegrees>
              <LongitudeDegrees>-0.17504037357866764068603515625</LongitudeDegrees>
            </Position>
            <AltitudeMeters>915.4000244140625</AltitudeMeters>
            <DistanceMeters>4791.7441163847</DistanceMeters>
          </Trackpoint>
          <Trackpoint>
            <Time>2019-07-06T17:10:37.000Z</Time>
            <Position>
              <LatitudeDegrees>42.53678999841213226318359375</LatitudeDegrees>
              <LongitudeDegrees>-0.1750434748828411102294921875</LongitudeDegrees>
            </Position>
            <AltitudeMeters>915.5999755859375</AltitudeMeters>
            <DistanceMeters>4792.4801901491</DistanceMeters>
          </Trackpoint>
          <Trackpoint>
            <Time>2019-07-06T17:10:43.000Z</Time>
            <Position>
              <LatitudeDegrees>42.53679645247757434844970703125</LatitudeDegrees>
              <LongitudeDegrees>-0.17507390119135379791259765625</LongitudeDegrees>
            </Position>
            <AltitudeMeters>915.79998779296875</AltitudeMeters>
            <DistanceMeters>4795.079131699</DistanceMeters>
          </Trackpoint>
          <Trackpoint>
            <Time>2019-07-06T17:11:13.000Z</Time>
            <Position>
              <LatitudeDegrees>42.5368796847760677337646484375</LatitudeDegrees>
              <LongitudeDegrees>-0.1752493344247341156005859375</LongitudeDegrees>
            </Position>
            <AltitudeMeters>916.20001220703125</AltitudeMeters>
            <DistanceMeters>4812.1913296562</DistanceMeters>
          </Trackpoint>
          <Trackpoint>
            <Time>2019-07-06T17:11:48.000Z</Time>
            <Position>
              <LatitudeDegrees>42.53695587627589702606201171875</LatitudeDegrees>
              <LongitudeDegrees>-0.17533206380903720855712890625</LongitudeDegrees>
            </Position>
            <AltitudeMeters>916</AltitudeMeters>
            <DistanceMeters>4823.0518479915</DistanceMeters>
          </Trackpoint>
          <Trackpoint>
            <Time>2019-07-06T17:11:57.000Z</Time>
            <Position>
              <LatitudeDegrees>42.53694732673466205596923828125</LatitudeDegrees>
              <LongitudeDegrees>-0.1753214187920093536376953125</LongitudeDegrees>
            </Position>
            <AltitudeMeters>916</AltitudeMeters>
            <DistanceMeters>4824.3408530596</DistanceMeters>
          </Trackpoint>
          <Trackpoint>
            <Time>2019-07-06T17:11:58.000Z</Time>
            <Position>
              <LatitudeDegrees>42.5369504280388355255126953125</LatitudeDegrees>
              <LongitudeDegrees>-0.17532636411488056182861328125</LongitudeDegrees>
            </Position>
            <AltitudeMeters>916</AltitudeMeters>
            <DistanceMeters>4824.8699394134</DistanceMeters>
          </Trackpoint>
          <Trackpoint>
            <Time>2019-07-06T17:11:59.000Z</Time>
            <Position>
              <LatitudeDegrees>42.53695168532431125640869140625</LatitudeDegrees>
              <LongitudeDegrees>-0.17533005215227603912353515625</LongitudeDegrees>
            </Position>
            <AltitudeMeters>916</AltitudeMeters>
            <DistanceMeters>4825.1991216081</DistanceMeters>
          </Trackpoint>
          <Trackpoint>
            <Time>2019-07-06T17:12:18.000Z</Time>
            <Position>
              <LatitudeDegrees>42.53690189681947231292724609375</LatitudeDegrees>
              <LongitudeDegrees>-0.17540666274726390838623046875</LongitudeDegrees>
            </Position>
            <AltitudeMeters>916</AltitudeMeters>
            <DistanceMeters>4833.577115652</DistanceMeters>
          </Trackpoint>
          <Trackpoint>
            <Time>2019-07-06T17:12:21.000Z</Time>
            <Position>
              <LatitudeDegrees>42.53689569421112537384033203125</LatitudeDegrees>
              <LongitudeDegrees>-0.1754226721823215484619140625</LongitudeDegrees>
            </Position>
            <AltitudeMeters>916.79998779296875</AltitudeMeters>
            <DistanceMeters>4835.0584355283</DistanceMeters>
          </Trackpoint>
          <Trackpoint>
            <Time>2019-07-06T17:12:23.000Z</Time>
            <Position>
              <LatitudeDegrees>42.53688882105052471160888671875</LatitudeDegrees>
              <LongitudeDegrees>-0.17543817870318889617919921875</LongitudeDegrees>
            </Position>
            <AltitudeMeters>917.4000244140625</AltitudeMeters>
            <DistanceMeters>4836.5397554046</DistanceMeters>
          </Trackpoint>
          <Trackpoint>
            <Time>2019-07-06T17:12:26.000Z</Time>
            <Position>
              <LatitudeDegrees>42.5368912518024444580078125</LatitudeDegrees>
              <LongitudeDegrees>-0.17545041628181934356689453125</LongitudeDegrees>
            </Position>
            <AltitudeMeters>917.79998779296875</AltitudeMeters>
            <DistanceMeters>4837.5720097436</DistanceMeters>
          </Trackpoint>
          <Trackpoint>
            <Time>2019-07-06T17:13:00.000Z</Time>
            <Position>
              <LatitudeDegrees>42.5368729792535305023193359375</LatitudeDegrees>
              <LongitudeDegrees>-0.17554680816829204559326171875</LongitudeDegrees>
            </Position>
            <AltitudeMeters>916.79998779296875</AltitudeMeters>
            <DistanceMeters>4845.7349096008</DistanceMeters>
          </Trackpoint>
          <Trackpoint>
            <Time>2019-07-06T17:13:04.000Z</Time>
            <Position>
              <LatitudeDegrees>42.5368840433657169342041015625</LatitudeDegrees>
              <LongitudeDegrees>-0.17559550702571868896484375</LongitudeDegrees>
            </Position>
            <AltitudeMeters>916.5999755859375</AltitudeMeters>
            <DistanceMeters>4849.913924777</DistanceMeters>
          </Trackpoint>
          <Trackpoint>
            <Time>2019-07-06T17:13:09.000Z</Time>
            <Position>
              <LatitudeDegrees>42.53690139390528202056884765625</LatitudeDegrees>
              <LongitudeDegrees>-0.175644122064113616943359375</LongitudeDegrees>
            </Position>
            <AltitudeMeters>916.4000244140625</AltitudeMeters>
            <DistanceMeters>4854.344656792</DistanceMeters>
          </Trackpoint>
          <Trackpoint>
            <Time>2019-07-06T17:13:22.000Z</Time>
            <Position>
              <LatitudeDegrees>42.5369108654558658599853515625</LatitudeDegrees>
              <LongitudeDegrees>-0.175669603049755096435546875</LongitudeDegrees>
            </Position>
            <AltitudeMeters>917.20001220703125</AltitudeMeters>
            <DistanceMeters>4856.6877928269</DistanceMeters>
          </Trackpoint>
          <Trackpoint>
            <Time>2019-07-06T17:13:28.000Z</Time>
            <Position>
              <LatitudeDegrees>42.53690131008625030517578125</LatitudeDegrees>
              <LongitudeDegrees>-0.17568041570484638214111328125</LongitudeDegrees>
            </Position>
            <AltitudeMeters>917.79998779296875</AltitudeMeters>
            <DistanceMeters>4858.071402673</DistanceMeters>
          </Trackpoint>
          <Trackpoint>
            <Time>2019-07-06T17:13:33.000Z</Time>
            <Position>
              <LatitudeDegrees>42.53691799007356166839599609375</LatitudeDegrees>
              <LongitudeDegrees>-0.17572785727679729461669921875</LongitudeDegrees>
            </Position>
            <AltitudeMeters>917.5999755859375</AltitudeMeters>
            <DistanceMeters>4862.3823071398</DistanceMeters>
          </Trackpoint>
          <Trackpoint>
            <Time>2019-07-06T17:13:37.000Z</Time>
            <Position>
              <LatitudeDegrees>42.53693592734634876251220703125</LatitudeDegrees>
              <LongitudeDegrees>-0.1757435314357280731201171875</LongitudeDegrees>
            </Position>
            <AltitudeMeters>917.5999755859375</AltitudeMeters>
            <DistanceMeters>4864.757974999</DistanceMeters>
          </Trackpoint>
          <Trackpoint>
            <Time>2019-07-06T17:13:40.000Z</Time>
            <Position>
              <LatitudeDegrees>42.5369475781917572021484375</LatitudeDegrees>
              <LongitudeDegrees>-0.17575467936694622039794921875</LongitudeDegrees>
            </Position>
            <AltitudeMeters>917.79998779296875</AltitudeMeters>
            <DistanceMeters>4866.3423869566</DistanceMeters>
          </Trackpoint>
          <Trackpoint>
            <Time>2019-07-06T17:13:47.000Z</Time>
            <Position>
              <LatitudeDegrees>42.536933831870555877685546875</LatitudeDegrees>
              <LongitudeDegrees>-0.1757908053696155548095703125</LongitudeDegrees>
            </Position>
            <AltitudeMeters>919</AltitudeMeters>
            <DistanceMeters>4869.6764571572</DistanceMeters>
          </Trackpoint>
          <Trackpoint>
            <Time>2019-07-06T17:13:52.000Z</Time>
            <Position>
              <LatitudeDegrees>42.5369185768067836761474609375</LatitudeDegrees>
              <LongitudeDegrees>-0.17581938765943050384521484375</LongitudeDegrees>
            </Position>
            <AltitudeMeters>919.4000244140625</AltitudeMeters>
            <DistanceMeters>4872.5712647398</DistanceMeters>
          </Trackpoint>
          <Trackpoint>
            <Time>2019-07-06T17:13:53.000Z</Time>
            <Position>
              <LatitudeDegrees>42.53691564314067363739013671875</LatitudeDegrees>
              <LongitudeDegrees>-0.17582206986844539642333984375</LongitudeDegrees>
            </Position>
            <AltitudeMeters>919.4000244140625</AltitudeMeters>
            <DistanceMeters>4872.9513715972</DistanceMeters>
          </Trackpoint>
          <Trackpoint>
            <Time>2019-07-06T17:13:56.000Z</Time>
            <Position>
              <LatitudeDegrees>42.53690524958074092864990234375</LatitudeDegrees>
              <LongitudeDegrees>-0.17583531327545642852783203125</LongitudeDegrees>
            </Position>
            <AltitudeMeters>919.5999755859375</AltitudeMeters>
            <DistanceMeters>4874.5414726646</DistanceMeters>
          </Trackpoint>
          <Trackpoint>
            <Time>2019-07-06T17:13:57.000Z</Time>
            <Position>
              <LatitudeDegrees>42.5369060039520263671875</LatitudeDegrees>
              <LongitudeDegrees>-0.175839252769947052001953125</LongitudeDegrees>
            </Position>
            <AltitudeMeters>919.5999755859375</AltitudeMeters>
            <DistanceMeters>4874.8566406212</DistanceMeters>
          </Trackpoint>
          <Trackpoint>
            <Time>2019-07-06T17:14:06.000Z</Time>
            <Position>
              <LatitudeDegrees>42.53697364591062068939208984375</LatitudeDegrees>
              <LongitudeDegrees>-0.17580782063305377960205078125</LongitudeDegrees>
            </Position>
            <AltitudeMeters>919.4000244140625</AltitudeMeters>
            <DistanceMeters>4882.8139577586</DistanceMeters>
          </Trackpoint>
          <Trackpoint>
            <Time>2019-07-06T17:14:14.000Z</Time>
            <Position>
              <LatitudeDegrees>42.53704019822180271148681640625</LatitudeDegrees>
              <LongitudeDegrees>-0.175791643559932708740234375</LongitudeDegrees>
            </Position>
            <AltitudeMeters>919.5999755859375</AltitudeMeters>
            <DistanceMeters>4890.3396895806</DistanceMeters>
          </Trackpoint>
          <Trackpoint>
            <Time>2019-07-06T17:14:15.000Z</Time>
            <Position>
              <LatitudeDegrees>42.53704288043081760406494140625</LatitudeDegrees>
              <LongitudeDegrees>-0.1757861115038394927978515625</LongitudeDegrees>
            </Position>
            <AltitudeMeters>919.5999755859375</AltitudeMeters>
            <DistanceMeters>4890.8937857808</DistanceMeters>
          </Trackpoint>
          <Trackpoint>
            <Time>2019-07-06T17:14:17.000Z</Time>
            <Position>
              <LatitudeDegrees>42.53706551156938076019287109375</LatitudeDegrees>
              <LongitudeDegrees>-0.17578552477061748504638671875</LongitudeDegrees>
            </Position>
            <AltitudeMeters>919.4000244140625</AltitudeMeters>
            <DistanceMeters>4893.4151294338</DistanceMeters>
          </Trackpoint>
          <Trackpoint>
            <Time>2019-07-06T17:14:28.000Z</Time>
            <Position>
              <LatitudeDegrees>42.537101805210113525390625</LatitudeDegrees>
              <LongitudeDegrees>-0.17577127553522586822509765625</LongitudeDegrees>
            </Position>
            <AltitudeMeters>919.5999755859375</AltitudeMeters>
            <DistanceMeters>4897.6199944349</DistanceMeters>
          </Trackpoint>
          <Trackpoint>
            <Time>2019-07-06T17:14:33.000Z</Time>
            <Position>
              <LatitudeDegrees>42.53706718795001506805419921875</LatitudeDegrees>
              <LongitudeDegrees>-0.1757505722343921661376953125</LongitudeDegrees>
            </Position>
            <AltitudeMeters>919.5999755859375</AltitudeMeters>
            <DistanceMeters>4901.8312970998</DistanceMeters>
          </Trackpoint>
          <Trackpoint>
            <Time>2019-07-06T17:14:42.000Z</Time>
            <Position>
              <LatitudeDegrees>42.53704019822180271148681640625</LatitudeDegrees>
              <LongitudeDegrees>-0.1757146976888179779052734375</LongitudeDegrees>
            </Position>
            <AltitudeMeters>919.5999755859375</AltitudeMeters>
            <DistanceMeters>4906.0383090834</DistanceMeters>
          </Trackpoint>
          <Trackpoint>
            <Time>2019-07-06T17:14:54.000Z</Time>
            <Position>
              <LatitudeDegrees>42.53689485602080821990966796875</LatitudeDegrees>
              <LongitudeDegrees>-0.17572534270584583282470703125</LongitudeDegrees>
            </Position>
            <AltitudeMeters>919.79998779296875</AltitudeMeters>
            <DistanceMeters>4922.2386220979</DistanceMeters>
          </Trackpoint>
          <Trackpoint>
            <Time>2019-07-06T17:14:55.000Z</Time>
            <Position>
              <LatitudeDegrees>42.5368843786418437957763671875</LatitudeDegrees>
              <LongitudeDegrees>-0.17572215758264064788818359375</LongitudeDegrees>
            </Position>
            <AltitudeMeters>919.79998779296875</AltitudeMeters>
            <DistanceMeters>4923.4368633735</DistanceMeters>
          </Trackpoint>
          <Trackpoint>
            <Time>2019-07-06T17:14:56.000Z</Time>
            <Position>
              <LatitudeDegrees>42.5368803553283214569091796875</LatitudeDegrees>
              <LongitudeDegrees>-0.17572249285876750946044921875</LongitudeDegrees>
            </Position>
            <AltitudeMeters>919.79998779296875</AltitudeMeters>
            <DistanceMeters>4923.8825781722</DistanceMeters>
          </Trackpoint>
          <Trackpoint>
            <Time>2019-07-06T17:14:59.000Z</Time>
            <Position>
              <LatitudeDegrees>42.5368786789476871490478515625</LatitudeDegrees>
              <LongitudeDegrees>-0.17570371739566326141357421875</LongitudeDegrees>
            </Position>
            <AltitudeMeters>920</AltitudeMeters>
            <DistanceMeters>4925.4324169813</DistanceMeters>
          </Trackpoint>
          <Trackpoint>
            <Time>2019-07-06T17:15:05.000Z</Time>
            <Position>
              <LatitudeDegrees>42.5368605740368366241455078125</LatitudeDegrees>
              <LongitudeDegrees>-0.17569030635058879852294921875</LongitudeDegrees>
            </Position>
            <AltitudeMeters>920</AltitudeMeters>
            <DistanceMeters>4927.7288412982</DistanceMeters>
          </Trackpoint>
          <Trackpoint>
            <Time>2019-07-06T17:15:11.000Z</Time>
            <Position>
              <LatitudeDegrees>42.53688127733767032623291015625</LatitudeDegrees>
              <LongitudeDegrees>-0.1757542602717876434326171875</LongitudeDegrees>
            </Position>
            <AltitudeMeters>919.4000244140625</AltitudeMeters>
            <DistanceMeters>4933.4573051235</DistanceMeters>
          </Trackpoint>
          <Trackpoint>
            <Time>2019-07-06T17:15:12.000Z</Time>
            <Position>
              <LatitudeDegrees>42.5368820317089557647705078125</LatitudeDegrees>
              <LongitudeDegrees>-0.1757659949362277984619140625</LongitudeDegrees>
            </Position>
            <AltitudeMeters>919.4000244140625</AltitudeMeters>
            <DistanceMeters>4934.4263912652</DistanceMeters>
          </Trackpoint>
          <Trackpoint>
            <Time>2019-07-06T17:15:14.000Z</Time>
            <Position>
              <LatitudeDegrees>42.53689133562147617340087890625</LatitudeDegrees>
              <LongitudeDegrees>-0.17577814869582653045654296875</LongitudeDegrees>
            </Position>
            <AltitudeMeters>919.4000244140625</AltitudeMeters>
            <DistanceMeters>4935.8675427431</DistanceMeters>
          </Trackpoint>
          <Trackpoint>
            <Time>2019-07-06T17:15:16.000Z</Time>
            <Position>
              <LatitudeDegrees>42.536898292601108551025390625</LatitudeDegrees>
              <LongitudeDegrees>-0.17578619532287120819091796875</LongitudeDegrees>
            </Position>
            <AltitudeMeters>919.5999755859375</AltitudeMeters>
            <DistanceMeters>4936.8821504084</DistanceMeters>
          </Trackpoint>
          <Trackpoint>
            <Time>2019-07-06T17:15:17.000Z</Time>
            <Position>
              <LatitudeDegrees>42.53689887933433055877685546875</LatitudeDegrees>
              <LongitudeDegrees>-0.1757847703993320465087890625</LongitudeDegrees>
            </Position>
            <AltitudeMeters>919.5999755859375</AltitudeMeters>
            <DistanceMeters>4937.0165384767</DistanceMeters>
          </Trackpoint>
          <Trackpoint>
            <Time>2019-07-06T17:15:20.000Z</Time>
            <Position>
              <LatitudeDegrees>42.5369101949036121368408203125</LatitudeDegrees>
              <LongitudeDegrees>-0.1757763884961605072021484375</LongitudeDegrees>
            </Position>
            <AltitudeMeters>919.5999755859375</AltitudeMeters>
            <DistanceMeters>4938.4482602907</DistanceMeters>
          </Trackpoint>
          <Trackpoint>
            <Time>2019-07-06T17:15:23.000Z</Time>
            <Position>
              <LatitudeDegrees>42.53692888654768466949462890625</LatitudeDegrees>
              <LongitudeDegrees>-0.17576909624040126800537109375</LongitudeDegrees>
            </Position>
            <AltitudeMeters>919.5999755859375</AltitudeMeters>
            <DistanceMeters>4940.6131181785</DistanceMeters>
          </Trackpoint>
          <Trackpoint>
            <Time>2019-07-06T17:15:25.000Z</Time>
            <Position>
              <LatitudeDegrees>42.5369422137737274169921875</LatitudeDegrees>
              <LongitudeDegrees>-0.17576389946043491363525390625</LongitudeDegrees>
            </Position>
            <AltitudeMeters>919.5999755859375</AltitudeMeters>
            <DistanceMeters>4942.1571195325</DistanceMeters>
          </Trackpoint>
          <Trackpoint>
            <Time>2019-07-06T17:15:35.000Z</Time>
            <Position>
              <LatitudeDegrees>42.53694690763950347900390625</LatitudeDegrees>
              <LongitudeDegrees>-0.1757616363465785980224609375</LongitudeDegrees>
            </Position>
            <AltitudeMeters>919.5999755859375</AltitudeMeters>
            <DistanceMeters>4942.7193051563</DistanceMeters>
          </Trackpoint>
          <Trackpoint>
            <Time>2019-07-06T17:15:38.000Z</Time>
            <Position>
              <LatitudeDegrees>42.53692368976771831512451171875</LatitudeDegrees>
              <LongitudeDegrees>-0.17578602768480777740478515625</LongitudeDegrees>
            </Position>
            <AltitudeMeters>919.5999755859375</AltitudeMeters>
            <DistanceMeters>4945.9891079806</DistanceMeters>
          </Trackpoint>
          <Trackpoint>
            <Time>2019-07-06T17:16:07.000Z</Time>
            <Position>
              <LatitudeDegrees>42.53702863119542598724365234375</LatitudeDegrees>
              <LongitudeDegrees>-0.17585643567144870758056640625</LongitudeDegrees>
            </Position>
            <AltitudeMeters>919.5999755859375</AltitudeMeters>
            <DistanceMeters>4959.0192076463</DistanceMeters>
          </Trackpoint>
          <Trackpoint>
            <Time>2019-07-06T17:16:12.000Z</Time>
            <Position>
              <LatitudeDegrees>42.53700683824717998504638671875</LatitudeDegrees>
              <LongitudeDegrees>-0.17583715729415416717529296875</LongitudeDegrees>
            </Position>
            <AltitudeMeters>919.4000244140625</AltitudeMeters>
            <DistanceMeters>4961.9155745113</DistanceMeters>
          </Trackpoint>
          <Trackpoint>
            <Time>2019-07-06T17:16:14.000Z</Time>
            <Position>
              <LatitudeDegrees>42.53698051907122135162353515625</LatitudeDegrees>
              <LongitudeDegrees>-0.1758451201021671295166015625</LongitudeDegrees>
            </Position>
            <AltitudeMeters>919.4000244140625</AltitudeMeters>
            <DistanceMeters>4964.9175765584</DistanceMeters>
          </Trackpoint>
          <Trackpoint>
            <Time>2019-07-06T17:16:18.000Z</Time>
            <Position>
              <LatitudeDegrees>42.5369420461356639862060546875</LatitudeDegrees>
              <LongitudeDegrees>-0.1758494786918163299560546875</LongitudeDegrees>
            </Position>
            <AltitudeMeters>920</AltitudeMeters>
            <DistanceMeters>4969.2137930627</DistanceMeters>
          </Trackpoint>
          <Trackpoint>
            <Time>2019-07-06T17:16:39.000Z</Time>
            <Position>
              <LatitudeDegrees>42.536913715302944183349609375</LatitudeDegrees>
              <LongitudeDegrees>-0.175854004919528961181640625</LongitudeDegrees>
            </Position>
            <AltitudeMeters>919.79998779296875</AltitudeMeters>
            <DistanceMeters>4972.3883111854</DistanceMeters>
          </Trackpoint>
          <Trackpoint>
            <Time>2019-07-06T17:16:48.000Z</Time>
            <Position>
              <LatitudeDegrees>42.5369122065603733062744140625</LatitudeDegrees>
              <LongitudeDegrees>-0.17585643567144870758056640625</LongitudeDegrees>
            </Position>
            <AltitudeMeters>920</AltitudeMeters>
            <DistanceMeters>4972.6570873219</DistanceMeters>
          </Trackpoint>
          <Trackpoint>
            <Time>2019-07-06T17:17:07.000Z</Time>
            <Position>
              <LatitudeDegrees>42.53691229037940502166748046875</LatitudeDegrees>
              <LongitudeDegrees>-0.17584922723472118377685546875</LongitudeDegrees>
            </Position>
            <AltitudeMeters>920</AltitudeMeters>
            <DistanceMeters>4973.2580890338</DistanceMeters>
          </Trackpoint>
          <Trackpoint>
            <Time>2019-07-06T17:17:10.000Z</Time>
            <Position>
              <LatitudeDegrees>42.536907680332660675048828125</LatitudeDegrees>
              <LongitudeDegrees>-0.17584168352186679840087890625</LongitudeDegrees>
            </Position>
            <AltitudeMeters>920</AltitudeMeters>
            <DistanceMeters>4974.0644174433</DistanceMeters>
          </Trackpoint>
          <Trackpoint>
            <Time>2019-07-06T17:17:12.000Z</Time>
            <Position>
              <LatitudeDegrees>42.5369046628475189208984375</LatitudeDegrees>
              <LongitudeDegrees>-0.17583179287612438201904296875</LongitudeDegrees>
            </Position>
            <AltitudeMeters>920</AltitudeMeters>
            <DistanceMeters>4974.9456589393</DistanceMeters>
          </Trackpoint>
          <Trackpoint>
            <Time>2019-07-06T17:17:13.000Z</Time>
            <Position>
              <LatitudeDegrees>42.53690399229526519775390625</LatitudeDegrees>
              <LongitudeDegrees>-0.175826847553253173828125</LongitudeDegrees>
            </Position>
            <AltitudeMeters>920</AltitudeMeters>
            <DistanceMeters>4975.348823144</DistanceMeters>
          </Trackpoint>
          <Trackpoint>
            <Time>2019-07-06T17:17:14.000Z</Time>
            <Position>
              <LatitudeDegrees>42.53690089099109172821044921875</LatitudeDegrees>
              <LongitudeDegrees>-0.17581947147846221923828125</LongitudeDegrees>
            </Position>
            <AltitudeMeters>920</AltitudeMeters>
            <DistanceMeters>4976.0471240304</DistanceMeters>
          </Trackpoint>
          <Trackpoint>
            <Time>2019-07-06T17:17:15.000Z</Time>
            <Position>
              <LatitudeDegrees>42.53690022043883800506591796875</LatitudeDegrees>
              <LongitudeDegrees>-0.1758162863552570343017578125</LongitudeDegrees>
            </Position>
            <AltitudeMeters>920.20001220703125</AltitudeMeters>
            <DistanceMeters>4976.3322041735</DistanceMeters>
          </Trackpoint>
          <Trackpoint>
            <Time>2019-07-06T17:17:16.000Z</Time>
            <Position>
              <LatitudeDegrees>42.536895275115966796875</LatitudeDegrees>
              <LongitudeDegrees>-0.17581544816493988037109375</LongitudeDegrees>
            </Position>
            <AltitudeMeters>920.20001220703125</AltitudeMeters>
            <DistanceMeters>4976.8863003738</DistanceMeters>
          </Trackpoint>
          <Trackpoint>
            <Time>2019-07-06T17:17:17.000Z</Time>
            <Position>
              <LatitudeDegrees>42.53688898868858814239501953125</LatitudeDegrees>
              <LongitudeDegrees>-0.17581352032721042633056640625</LongitudeDegrees>
            </Position>
            <AltitudeMeters>920.4000244140625</AltitudeMeters>
            <DistanceMeters>4977.6100022694</DistanceMeters>
          </Trackpoint>
          <Trackpoint>
            <Time>2019-07-06T17:17:18.000Z</Time>
            <Position>
              <LatitudeDegrees>42.53688563592731952667236328125</LatitudeDegrees>
              <LongitudeDegrees>-0.17581100575625896453857421875</LongitudeDegrees>
            </Position>
            <AltitudeMeters>920.4000244140625</AltitudeMeters>
            <DistanceMeters>4978.0349746554</DistanceMeters>
          </Trackpoint>
          <Trackpoint>
            <Time>2019-07-06T17:17:19.000Z</Time>
            <Position>
              <LatitudeDegrees>42.5368806906044483184814453125</LatitudeDegrees>
              <LongitudeDegrees>-0.17580882646143436431884765625</LongitudeDegrees>
            </Position>
            <AltitudeMeters>920.5999755859375</AltitudeMeters>
            <DistanceMeters>4978.6207586641</DistanceMeters>
          </Trackpoint>
          <Trackpoint>
            <Time>2019-07-06T17:17:20.000Z</Time>
            <Position>
              <LatitudeDegrees>42.53687591291964054107666015625</LatitudeDegrees>
              <LongitudeDegrees>-0.17580564133822917938232421875</LongitudeDegrees>
            </Position>
            <AltitudeMeters>920.5999755859375</AltitudeMeters>
            <DistanceMeters>4979.2217603761</DistanceMeters>
          </Trackpoint>
          <Trackpoint>
            <Time>2019-07-06T17:17:22.000Z</Time>
            <Position>
              <LatitudeDegrees>42.53686686046421527862548828125</LatitudeDegrees>
              <LongitudeDegrees>-0.175792314112186431884765625</LongitudeDegrees>
            </Position>
            <AltitudeMeters>921</AltitudeMeters>
            <DistanceMeters>4980.7061251063</DistanceMeters>
          </Trackpoint>
          <Trackpoint>
            <Time>2019-07-06T17:17:23.000Z</Time>
            <Position>
              <LatitudeDegrees>42.53685948438942432403564453125</LatitudeDegrees>
              <LongitudeDegrees>-0.17578552477061748504638671875</LongitudeDegrees>
            </Position>
            <AltitudeMeters>921</AltitudeMeters>
            <DistanceMeters>4981.6982331309</DistanceMeters>
          </Trackpoint>
          <Trackpoint>
            <Time>2019-07-06T17:17:24.000Z</Time>
            <Position>
              <LatitudeDegrees>42.5368505157530307769775390625</LatitudeDegrees>
              <LongitudeDegrees>-0.17577496357262134552001953125</LongitudeDegrees>
            </Position>
            <AltitudeMeters>921.20001220703125</AltitudeMeters>
            <DistanceMeters>4983.0218021053</DistanceMeters>
          </Trackpoint>
          <Trackpoint>
            <Time>2019-07-06T17:17:25.000Z</Time>
            <Position>
              <LatitudeDegrees>42.53684205003082752227783203125</LatitudeDegrees>
              <LongitudeDegrees>-0.17577060498297214508056640625</LongitudeDegrees>
            </Position>
            <AltitudeMeters>921.4000244140625</AltitudeMeters>
            <DistanceMeters>4984.0274703218</DistanceMeters>
          </Trackpoint>
          <Trackpoint>
            <Time>2019-07-06T17:17:26.000Z</Time>
            <Position>
              <LatitudeDegrees>42.5368337519466876983642578125</LatitudeDegrees>
              <LongitudeDegrees>-0.1757680065929889678955078125</LongitudeDegrees>
            </Position>
            <AltitudeMeters>921.4000244140625</AltitudeMeters>
            <DistanceMeters>4984.9777374655</DistanceMeters>
          </Trackpoint>
          <Trackpoint>
            <Time>2019-07-06T17:17:27.000Z</Time>
            <Position>
              <LatitudeDegrees>42.5368283875286579132080078125</LatitudeDegrees>
              <LongitudeDegrees>-0.17577060498297214508056640625</LongitudeDegrees>
            </Position>
            <AltitudeMeters>921.4000244140625</AltitudeMeters>
            <DistanceMeters>4985.6080733788</DistanceMeters>
          </Trackpoint>
          <Trackpoint>
            <Time>2019-07-06T17:17:28.000Z</Time>
            <Position>
              <LatitudeDegrees>42.53681807778775691986083984375</LatitudeDegrees>
              <LongitudeDegrees>-0.17575736157596111297607421875</LongitudeDegrees>
            </Position>
            <AltitudeMeters>921.5999755859375</AltitudeMeters>
            <DistanceMeters>4987.1924853364</DistanceMeters>
          </Trackpoint>
          <Trackpoint>
            <Time>2019-07-06T17:17:29.000Z</Time>
            <Position>
              <LatitudeDegrees>42.53681237809360027313232421875</LatitudeDegrees>
              <LongitudeDegrees>-0.175751410424709320068359375</LongitudeDegrees>
            </Position>
            <AltitudeMeters>921.5999755859375</AltitudeMeters>
            <DistanceMeters>4987.9988137459</DistanceMeters>
          </Trackpoint>
          <Trackpoint>
            <Time>2019-07-06T17:17:31.000Z</Time>
            <Position>
              <LatitudeDegrees>42.5368112884461879730224609375</LatitudeDegrees>
              <LongitudeDegrees>-0.17574579454958438873291015625</LongitudeDegrees>
            </Position>
            <AltitudeMeters>921.5999755859375</AltitudeMeters>
            <DistanceMeters>4988.4643476702</DistanceMeters>
          </Trackpoint>
          <Trackpoint>
            <Time>2019-07-06T17:17:33.000Z</Time>
            <Position>
              <LatitudeDegrees>42.5368106178939342498779296875</LatitudeDegrees>
              <LongitudeDegrees>-0.175734646618366241455078125</LongitudeDegrees>
            </Position>
            <AltitudeMeters>921.4000244140625</AltitudeMeters>
            <DistanceMeters>4989.3758118948</DistanceMeters>
          </Trackpoint>
          <Trackpoint>
            <Time>2019-07-06T17:17:35.000Z</Time>
            <Position>
              <LatitudeDegrees>42.53679611720144748687744140625</LatitudeDegrees>
              <LongitudeDegrees>-0.17572668381035327911376953125</LongitudeDegrees>
            </Position>
            <AltitudeMeters>921.20001220703125</AltitudeMeters>
            <DistanceMeters>4991.1150863438</DistanceMeters>
          </Trackpoint>
          <Trackpoint>
            <Time>2019-07-06T17:17:41.000Z</Time>
            <Position>
              <LatitudeDegrees>42.53677130676805973052978515625</LatitudeDegrees>
              <LongitudeDegrees>-0.17574076540768146514892578125</LongitudeDegrees>
            </Position>
            <AltitudeMeters>921.5999755859375</AltitudeMeters>
            <DistanceMeters>4994.1080507325</DistanceMeters>
          </Trackpoint>
          <Trackpoint>
            <Time>2019-07-06T17:17:43.000Z</Time>
            <Position>
              <LatitudeDegrees>42.5367549620568752288818359375</LatitudeDegrees>
              <LongitudeDegrees>-0.17575099132955074310302734375</LongitudeDegrees>
            </Position>
            <AltitudeMeters>921.5999755859375</AltitudeMeters>
            <DistanceMeters>4996.1103878523</DistanceMeters>
          </Trackpoint>
          <Trackpoint>
            <Time>2019-07-06T17:17:44.000Z</Time>
            <Position>
              <LatitudeDegrees>42.53675085492432117462158203125</LatitudeDegrees>
              <LongitudeDegrees>-0.1757490634918212890625</LongitudeDegrees>
            </Position>
            <AltitudeMeters>921.5999755859375</AltitudeMeters>
            <DistanceMeters>4996.5949309232</DistanceMeters>
          </Trackpoint>
          <Trackpoint>
            <Time>2019-07-06T17:17:48.000Z</Time>
            <Position>
              <LatitudeDegrees>42.53673769533634185791015625</LatitudeDegrees>
              <LongitudeDegrees>-0.1757488958537578582763671875</LongitudeDegrees>
            </Position>
            <AltitudeMeters>921.5999755859375</AltitudeMeters>
            <DistanceMeters>4998.0609316713</DistanceMeters>
          </Trackpoint>
          <Trackpoint>
            <Time>2019-07-06T17:17:50.000Z</Time>
            <Position>
              <LatitudeDegrees>42.53671732731163501739501953125</LatitudeDegrees>
              <LongitudeDegrees>-0.1757505722343921661376953125</LongitudeDegrees>
            </Position>
            <AltitudeMeters>921.79998779296875</AltitudeMeters>
            <DistanceMeters>5000.3336401273</DistanceMeters>
          </Trackpoint>
          <Trackpoint>
            <Time>2019-07-06T17:18:01.000Z</Time>
            <Position>
              <LatitudeDegrees>42.5366755016148090362548828125</LatitudeDegrees>
              <LongitudeDegrees>-0.17573707737028598785400390625</LongitudeDegrees>
            </Position>
            <AltitudeMeters>922</AltitudeMeters>
            <DistanceMeters>5005.1190631872</DistanceMeters>
          </Trackpoint>
          <Trackpoint>
            <Time>2019-07-06T17:18:25.000Z</Time>
            <Position>
              <LatitudeDegrees>42.53663241863250732421875</LatitudeDegrees>
              <LongitudeDegrees>-0.17575367353856563568115234375</LongitudeDegrees>
            </Position>
            <AltitudeMeters>922.4000244140625</AltitudeMeters>
            <DistanceMeters>5010.1032120912</DistanceMeters>
          </Trackpoint>
          <Trackpoint>
            <Time>2019-07-06T17:18:27.000Z</Time>
            <Position>
              <LatitudeDegrees>42.53662881441414356231689453125</LatitudeDegrees>
              <LongitudeDegrees>-0.17574478872120380401611328125</LongitudeDegrees>
            </Position>
            <AltitudeMeters>922.5999755859375</AltitudeMeters>
            <DistanceMeters>5010.9370681257</DistanceMeters>
          </Trackpoint>
          <Trackpoint>
            <Time>2019-07-06T17:18:32.000Z</Time>
            <Position>
              <LatitudeDegrees>42.53665530122816562652587890625</LatitudeDegrees>
              <LongitudeDegrees>-0.1757559366524219512939453125</LongitudeDegrees>
            </Position>
            <AltitudeMeters>922.4000244140625</AltitudeMeters>
            <DistanceMeters>5014.0236083649</DistanceMeters>
          </Trackpoint>
          <Trackpoint>
            <Time>2019-07-06T17:18:34.000Z</Time>
            <Position>
              <LatitudeDegrees>42.53665999509394168853759765625</LatitudeDegrees>
              <LongitudeDegrees>-0.17577026970684528350830078125</LongitudeDegrees>
            </Position>
            <AltitudeMeters>922.4000244140625</AltitudeMeters>
            <DistanceMeters>5015.3091059297</DistanceMeters>
          </Trackpoint>
          <Trackpoint>
            <Time>2019-07-06T17:18:39.000Z</Time>
            <Position>
              <LatitudeDegrees>42.53672034479677677154541015625</LatitudeDegrees>
              <LongitudeDegrees>-0.17577563412487506866455078125</LongitudeDegrees>
            </Position>
            <AltitudeMeters>922.4000244140625</AltitudeMeters>
            <DistanceMeters>5022.039922635</DistanceMeters>
          </Trackpoint>
          <Trackpoint>
            <Time>2019-07-06T17:18:50.000Z</Time>
            <Position>
              <LatitudeDegrees>42.53678463399410247802734375</LatitudeDegrees>
              <LongitudeDegrees>-0.175801701843738555908203125</LongitudeDegrees>
            </Position>
            <AltitudeMeters>922.5999755859375</AltitudeMeters>
            <DistanceMeters>5029.507837479</DistanceMeters>
          </Trackpoint>
          <Trackpoint>
            <Time>2019-07-06T17:18:54.000Z</Time>
            <Position>
              <LatitudeDegrees>42.53680634312331676483154296875</LatitudeDegrees>
              <LongitudeDegrees>-0.17577462829649448394775390625</LongitudeDegrees>
            </Position>
            <AltitudeMeters>922.5999755859375</AltitudeMeters>
            <DistanceMeters>5032.7886683374</DistanceMeters>
          </Trackpoint>
          <Trackpoint>
            <Time>2019-07-06T17:18:56.000Z</Time>
            <Position>
              <LatitudeDegrees>42.53682729788124561309814453125</LatitudeDegrees>
              <LongitudeDegrees>-0.175759792327880859375</LongitudeDegrees>
            </Position>
            <AltitudeMeters>922.5999755859375</AltitudeMeters>
            <DistanceMeters>5035.4186946787</DistanceMeters>
          </Trackpoint>
          <Trackpoint>
            <Time>2019-07-06T17:19:05.000Z</Time>
            <Position>
              <LatitudeDegrees>42.5367901660501956939697265625</LatitudeDegrees>
              <LongitudeDegrees>-0.17571629025042057037353515625</LongitudeDegrees>
            </Position>
            <AltitudeMeters>922.79998779296875</AltitudeMeters>
            <DistanceMeters>5040.8775638166</DistanceMeters>
          </Trackpoint>
          <Trackpoint>
            <Time>2019-07-06T17:19:06.000Z</Time>
            <Position>
              <LatitudeDegrees>42.536788322031497955322265625</LatitudeDegrees>
              <LongitudeDegrees>-0.175711177289485931396484375</LongitudeDegrees>
            </Position>
            <AltitudeMeters>922.5999755859375</AltitudeMeters>
            <DistanceMeters>5041.3526973885</DistanceMeters>
          </Trackpoint>
          <Trackpoint>
            <Time>2019-07-06T17:19:09.000Z</Time>
            <Position>
              <LatitudeDegrees>42.53678438253700733184814453125</LatitudeDegrees>
              <LongitudeDegrees>-0.1757022924721240997314453125</LongitudeDegrees>
            </Position>
            <AltitudeMeters>922.5999755859375</AltitudeMeters>
            <DistanceMeters>5042.2026421605</DistanceMeters>
          </Trackpoint>
          <Trackpoint>
            <Time>2019-07-06T17:19:12.000Z</Time>
            <Position>
              <LatitudeDegrees>42.53679343499243259429931640625</LatitudeDegrees>
              <LongitudeDegrees>-0.175719223916530609130859375</LongitudeDegrees>
            </Position>
            <AltitudeMeters>922.5999755859375</AltitudeMeters>
            <DistanceMeters>5043.9183941591</DistanceMeters>
          </Trackpoint>
          <Trackpoint>
            <Time>2019-07-06T17:19:18.000Z</Time>
            <Position>
              <LatitudeDegrees>42.536768205463886260986328125</LatitudeDegrees>
              <LongitudeDegrees>-0.17573171295225620269775390625</LongitudeDegrees>
            </Position>
            <AltitudeMeters>922.79998779296875</AltitudeMeters>
            <DistanceMeters>5046.9083399244</DistanceMeters>
          </Trackpoint>
          <Trackpoint>
            <Time>2019-07-06T17:19:21.000Z</Time>
            <Position>
              <LatitudeDegrees>42.5367606617510318756103515625</LatitudeDegrees>
              <LongitudeDegrees>-0.1757009513676166534423828125</LongitudeDegrees>
            </Position>
            <AltitudeMeters>922.79998779296875</AltitudeMeters>
            <DistanceMeters>5049.5690879268</DistanceMeters>
          </Trackpoint>
          <Trackpoint>
            <Time>2019-07-06T17:19:23.000Z</Time>
            <Position>
              <LatitudeDegrees>42.5367559678852558135986328125</LatitudeDegrees>
              <LongitudeDegrees>-0.17566968686878681182861328125</LongitudeDegrees>
            </Position>
            <AltitudeMeters>922.79998779296875</AltitudeMeters>
            <DistanceMeters>5052.1853444021</DistanceMeters>
          </Trackpoint>
          <Trackpoint>
            <Time>2019-07-06T17:19:26.000Z</Time>
            <Position>
              <LatitudeDegrees>42.5367529504001140594482421875</LatitudeDegrees>
              <LongitudeDegrees>-0.1756352372467517852783203125</LongitudeDegrees>
            </Position>
            <AltitudeMeters>922.79998779296875</AltitudeMeters>
            <DistanceMeters>5055.0298036642</DistanceMeters>
          </Trackpoint>
          <Trackpoint>
            <Time>2019-07-06T17:19:29.000Z</Time>
            <Position>
              <LatitudeDegrees>42.53673844970762729644775390625</LatitudeDegrees>
              <LongitudeDegrees>-0.175613276660442352294921875</LongitudeDegrees>
            </Position>
            <AltitudeMeters>922.79998779296875</AltitudeMeters>
            <DistanceMeters>5057.4487888927</DistanceMeters>
          </Trackpoint>
          <Trackpoint>
            <Time>2019-07-06T17:19:33.000Z</Time>
            <Position>
              <LatitudeDegrees>42.5367244519293308258056640625</LatitudeDegrees>
              <LongitudeDegrees>-0.17561562359333038330078125</LongitudeDegrees>
            </Position>
            <AltitudeMeters>922.5999755859375</AltitudeMeters>
            <DistanceMeters>5059.0160096151</DistanceMeters>
          </Trackpoint>
          <Trackpoint>
            <Time>2019-07-06T17:19:39.000Z</Time>
            <Position>
              <LatitudeDegrees>42.5366838835179805755615234375</LatitudeDegrees>
              <LongitudeDegrees>-0.175582431256771087646484375</LongitudeDegrees>
            </Position>
            <AltitudeMeters>922.79998779296875</AltitudeMeters>
            <DistanceMeters>5064.2880656936</DistanceMeters>
          </Trackpoint>
          <Trackpoint>
            <Time>2019-07-06T17:19:40.000Z</Time>
            <Position>
              <LatitudeDegrees>42.53668162040412425994873046875</LatitudeDegrees>
              <LongitudeDegrees>-0.175580419600009918212890625</LongitudeDegrees>
            </Position>
            <AltitudeMeters>922.79998779296875</AltitudeMeters>
            <DistanceMeters>5064.5885665495</DistanceMeters>
          </Trackpoint>
          <Trackpoint>
            <Time>2019-07-06T17:19:42.000Z</Time>
            <Position>
              <LatitudeDegrees>42.53668581135571002960205078125</LatitudeDegrees>
              <LongitudeDegrees>-0.1755760610103607177734375</LongitudeDegrees>
            </Position>
            <AltitudeMeters>923</AltitudeMeters>
            <DistanceMeters>5065.1743505583</DistanceMeters>
          </Trackpoint>
          <Trackpoint>
            <Time>2019-07-06T17:19:43.000Z</Time>
            <Position>
              <LatitudeDegrees>42.536691762506961822509765625</LatitudeDegrees>
              <LongitudeDegrees>-0.1755728758871555328369140625</LongitudeDegrees>
            </Position>
            <AltitudeMeters>922.79998779296875</AltitudeMeters>
            <DistanceMeters>5065.8980524539</DistanceMeters>
          </Trackpoint>
          <Trackpoint>
            <Time>2019-07-06T17:19:44.000Z</Time>
            <Position>
              <LatitudeDegrees>42.5366993062198162078857421875</LatitudeDegrees>
              <LongitudeDegrees>-0.1755738817155361175537109375</LongitudeDegrees>
            </Position>
            <AltitudeMeters>922.79998779296875</AltitudeMeters>
            <DistanceMeters>5066.7479972259</DistanceMeters>
          </Trackpoint>
          <Trackpoint>
            <Time>2019-07-06T17:19:45.000Z</Time>
            <Position>
              <LatitudeDegrees>42.53670525737106800079345703125</LatitudeDegrees>
              <LongitudeDegrees>-0.1755715347826480865478515625</LongitudeDegrees>
            </Position>
            <AltitudeMeters>922.79998779296875</AltitudeMeters>
            <DistanceMeters>5067.439802149</DistanceMeters>
          </Trackpoint>
          <Trackpoint>
            <Time>2019-07-06T17:19:47.000Z</Time>
            <Position>
              <LatitudeDegrees>42.53669871948659420013427734375</LatitudeDegrees>
              <LongitudeDegrees>-0.1755765639245510101318359375</LongitudeDegrees>
            </Position>
            <AltitudeMeters>922.79998779296875</AltitudeMeters>
            <DistanceMeters>5068.2790553662</DistanceMeters>
          </Trackpoint>
          <Trackpoint>
            <Time>2019-07-06T17:19:50.000Z</Time>
            <Position>
              <LatitudeDegrees>42.53669880330562591552734375</LatitudeDegrees>
              <LongitudeDegrees>-0.17557312734425067901611328125</LongitudeDegrees>
            </Position>
            <AltitudeMeters>922.79998779296875</AltitudeMeters>
            <DistanceMeters>5068.5641355093</DistanceMeters>
          </Trackpoint>
          <Trackpoint>
            <Time>2019-07-06T17:19:56.000Z</Time>
            <Position>
              <LatitudeDegrees>42.53670777194201946258544921875</LatitudeDegrees>
              <LongitudeDegrees>-0.175594501197338104248046875</LongitudeDegrees>
            </Position>
            <AltitudeMeters>923</AltitudeMeters>
            <DistanceMeters>5070.5799565331</DistanceMeters>
          </Trackpoint>
          <Trackpoint>
            <Time>2019-07-06T17:20:00.000Z</Time>
            <Position>
              <LatitudeDegrees>42.53674565814435482025146484375</LatitudeDegrees>
              <LongitudeDegrees>-0.17558804713189601898193359375</LongitudeDegrees>
            </Position>
            <AltitudeMeters>922.5999755859375</AltitudeMeters>
            <DistanceMeters>5074.8286178294</DistanceMeters>
          </Trackpoint>
          <Trackpoint>
            <Time>2019-07-06T17:20:06.000Z</Time>
            <Position>
              <LatitudeDegrees>42.5367469154298305511474609375</LatitudeDegrees>
              <LongitudeDegrees>-0.17560665495693683624267578125</LongitudeDegrees>
            </Position>
            <AltitudeMeters>922.4000244140625</AltitudeMeters>
            <DistanceMeters>5076.3608775579</DistanceMeters>
          </Trackpoint>
          <Trackpoint>
            <Time>2019-07-06T17:20:15.000Z</Time>
            <Position>
              <LatitudeDegrees>42.53678505308926105499267578125</LatitudeDegrees>
              <LongitudeDegrees>-0.17560581676661968231201171875</LongitudeDegrees>
            </Position>
            <AltitudeMeters>922.4000244140625</AltitudeMeters>
            <DistanceMeters>5080.6063495672</DistanceMeters>
          </Trackpoint>
          <Trackpoint>
            <Time>2019-07-06T17:20:24.000Z</Time>
            <Position>
              <LatitudeDegrees>42.5367522798478603363037109375</LatitudeDegrees>
              <LongitudeDegrees>-0.1756147854030132293701171875</LongitudeDegrees>
            </Position>
            <AltitudeMeters>923</AltitudeMeters>
            <DistanceMeters>5084.3281955158</DistanceMeters>
          </Trackpoint>
          <Trackpoint>
            <Time>2019-07-06T17:20:35.000Z</Time>
            <Position>
              <LatitudeDegrees>42.5369293056428432464599609375</LatitudeDegrees>
              <LongitudeDegrees>-0.175706483423709869384765625</LongitudeDegrees>
            </Position>
            <AltitudeMeters>923</AltitudeMeters>
            <DistanceMeters>5105.4181325789</DistanceMeters>
          </Trackpoint>
          <Trackpoint>
            <Time>2019-07-06T17:20:36.000Z</Time>
            <Position>
              <LatitudeDegrees>42.5369296409189701080322265625</LatitudeDegrees>
              <LongitudeDegrees>-0.1757063157856464385986328125</LongitudeDegrees>
            </Position>
            <AltitudeMeters>923</AltitudeMeters>
            <DistanceMeters>5105.4181325789</DistanceMeters>
          </Trackpoint>
          <Trackpoint>
            <Time>2019-07-06T17:20:40.000Z</Time>
            <Position>
              <LatitudeDegrees>42.5369648449122905731201171875</LatitudeDegrees>
              <LongitudeDegrees>-0.17570807598531246185302734375</LongitudeDegrees>
            </Position>
            <AltitudeMeters>922.4000244140625</AltitudeMeters>
            <DistanceMeters>5109.3384884438</DistanceMeters>
          </Trackpoint>
          <Trackpoint>
            <Time>2019-07-06T17:20:42.000Z</Time>
            <Position>
              <LatitudeDegrees>42.53695637919008731842041015625</LatitudeDegrees>
              <LongitudeDegrees>-0.175709165632724761962890625</LongitudeDegrees>
            </Position>
            <AltitudeMeters>922.20001220703125</AltitudeMeters>
            <DistanceMeters>5110.2887555875</DistanceMeters>
          </Trackpoint>
          <Trackpoint>
            <Time>2019-07-06T17:20:45.000Z</Time>
            <Position>
              <LatitudeDegrees>42.53696165978908538818359375</LatitudeDegrees>
              <LongitudeDegrees>-0.17567060887813568115234375</LongitudeDegrees>
            </Position>
            <AltitudeMeters>922</AltitudeMeters>
            <DistanceMeters>5113.5056590061</DistanceMeters>
          </Trackpoint>
          <Trackpoint>
            <Time>2019-07-06T17:20:46.000Z</Time>
            <Position>
              <LatitudeDegrees>42.5369678623974323272705078125</LatitudeDegrees>
              <LongitudeDegrees>-0.17566080205142498016357421875</LongitudeDegrees>
            </Position>
            <AltitudeMeters>922</AltitudeMeters>
            <DistanceMeters>5114.5723312294</DistanceMeters>
          </Trackpoint>
          <Trackpoint>
            <Time>2019-07-06T17:20:47.000Z</Time>
            <Position>
              <LatitudeDegrees>42.53697280772030353546142578125</LatitudeDegrees>
              <LongitudeDegrees>-0.175655186176300048828125</LongitudeDegrees>
            </Position>
            <AltitudeMeters>922</AltitudeMeters>
            <DistanceMeters>5115.283446045</DistanceMeters>
          </Trackpoint>
          <Trackpoint>
            <Time>2019-07-06T17:20:52.000Z</Time>
            <Position>
              <LatitudeDegrees>42.5369464047253131866455078125</LatitudeDegrees>
              <LongitudeDegrees>-0.17561520449817180633544921875</LongitudeDegrees>
            </Position>
            <AltitudeMeters>922</AltitudeMeters>
            <DistanceMeters>5119.687603649</DistanceMeters>
          </Trackpoint>
          <Trackpoint>
            <Time>2019-07-06T17:20:58.000Z</Time>
            <Position>
              <LatitudeDegrees>42.536911703646183013916015625</LatitudeDegrees>
              <LongitudeDegrees>-0.1755634881556034088134765625</LongitudeDegrees>
            </Position>
            <AltitudeMeters>923</AltitudeMeters>
            <DistanceMeters>5125.4239438204</DistanceMeters>
          </Trackpoint>
          <Trackpoint>
            <Time>2019-07-06T17:20:59.000Z</Time>
            <Position>
              <LatitudeDegrees>42.53690726123750209808349609375</LatitudeDegrees>
              <LongitudeDegrees>-0.1755587942898273468017578125</LongitudeDegrees>
            </Position>
            <AltitudeMeters>923.4000244140625</AltitudeMeters>
            <DistanceMeters>5126.0470756581</DistanceMeters>
          </Trackpoint>
          <Trackpoint>
            <Time>2019-07-06T17:21:03.000Z</Time>
            <Position>
              <LatitudeDegrees>42.5369274616241455078125</LatitudeDegrees>
              <LongitudeDegrees>-0.1755232550203800201416015625</LongitudeDegrees>
            </Position>
            <AltitudeMeters>924.20001220703125</AltitudeMeters>
            <DistanceMeters>5129.7286710653</DistanceMeters>
          </Trackpoint>
          <Trackpoint>
            <Time>2019-07-06T17:21:05.000Z</Time>
            <Position>
              <LatitudeDegrees>42.5369256176054477691650390625</LatitudeDegrees>
              <LongitudeDegrees>-0.1754987798631191253662109375</LongitudeDegrees>
            </Position>
            <AltitudeMeters>924.4000244140625</AltitudeMeters>
            <DistanceMeters>5131.744492089</DistanceMeters>
          </Trackpoint>
          <Trackpoint>
            <Time>2019-07-06T17:21:10.000Z</Time>
            <Position>
              <LatitudeDegrees>42.536899633705615997314453125</LatitudeDegrees>
              <LongitudeDegrees>-0.175468437373638153076171875</LongitudeDegrees>
            </Position>
            <AltitudeMeters>924.79998779296875</AltitudeMeters>
            <DistanceMeters>5135.5597880445</DistanceMeters>
          </Trackpoint>
          <Trackpoint>
            <Time>2019-07-06T17:21:14.000Z</Time>
            <Position>
              <LatitudeDegrees>42.53687222488224506378173828125</LatitudeDegrees>
              <LongitudeDegrees>-0.17543214373290538787841796875</LongitudeDegrees>
            </Position>
            <AltitudeMeters>925</AltitudeMeters>
            <DistanceMeters>5139.8222420096</DistanceMeters>
          </Trackpoint>
          <Trackpoint>
            <Time>2019-07-06T17:21:19.000Z</Time>
            <Position>
              <LatitudeDegrees>42.53684842027723789215087890625</LatitudeDegrees>
              <LongitudeDegrees>-0.17543993890285491943359375</LongitudeDegrees>
            </Position>
            <AltitudeMeters>925.5999755859375</AltitudeMeters>
            <DistanceMeters>5142.5467094506</DistanceMeters>
          </Trackpoint>
          <Trackpoint>
            <Time>2019-07-06T17:21:20.000Z</Time>
            <Position>
              <LatitudeDegrees>42.53684959374368190765380859375</LatitudeDegrees>
              <LongitudeDegrees>-0.1754384301602840423583984375</LongitudeDegrees>
            </Position>
            <AltitudeMeters>925.5999755859375</AltitudeMeters>
            <DistanceMeters>5142.7367628794</DistanceMeters>
          </Trackpoint>
          <Trackpoint>
            <Time>2019-07-06T17:21:21.000Z</Time>
            <Position>
              <LatitudeDegrees>42.536864764988422393798828125</LatitudeDegrees>
              <LongitudeDegrees>-0.1754320599138736724853515625</LongitudeDegrees>
            </Position>
            <AltitudeMeters>925.79998779296875</AltitudeMeters>
            <DistanceMeters>5144.5043619429</DistanceMeters>
          </Trackpoint>
          <Trackpoint>
            <Time>2019-07-06T17:21:22.000Z</Time>
            <Position>
              <LatitudeDegrees>42.53686803393065929412841796875</LatitudeDegrees>
              <LongitudeDegrees>-0.1754307188093662261962890625</LongitudeDegrees>
            </Position>
            <AltitudeMeters>925.79998779296875</AltitudeMeters>
            <DistanceMeters>5144.8599193507</DistanceMeters>
          </Trackpoint>
          <Trackpoint>
            <Time>2019-07-06T17:21:23.000Z</Time>
            <Position>
              <LatitudeDegrees>42.536835260689258575439453125</LatitudeDegrees>
              <LongitudeDegrees>-0.17543415538966655731201171875</LongitudeDegrees>
            </Position>
            <AltitudeMeters>926</AltitudeMeters>
            <DistanceMeters>5148.5181393127</DistanceMeters>
          </Trackpoint>
          <Trackpoint>
            <Time>2019-07-06T17:21:24.000Z</Time>
            <Position>
              <LatitudeDegrees>42.5368096120655536651611328125</LatitudeDegrees>
              <LongitudeDegrees>-0.17543013207614421844482421875</LongitudeDegrees>
            </Position>
            <AltitudeMeters>926</AltitudeMeters>
            <DistanceMeters>5151.3925992526</DistanceMeters>
          </Trackpoint>
          <Trackpoint>
            <Time>2019-07-06T17:21:25.000Z</Time>
            <Position>
              <LatitudeDegrees>42.53678672946989536285400390625</LatitudeDegrees>
              <LongitudeDegrees>-0.17542996443808078765869140625</LongitudeDegrees>
            </Position>
            <AltitudeMeters>926</AltitudeMeters>
            <DistanceMeters>5153.9388896694</DistanceMeters>
          </Trackpoint>
          <Trackpoint>
            <Time>2019-07-06T17:21:27.000Z</Time>
            <Position>
              <LatitudeDegrees>42.53676124848425388336181640625</LatitudeDegrees>
              <LongitudeDegrees>-0.1754216663539409637451171875</LongitudeDegrees>
            </Position>
            <AltitudeMeters>926.20001220703125</AltitudeMeters>
            <DistanceMeters>5156.8539028655</DistanceMeters>
          </Trackpoint>
          <Trackpoint>
            <Time>2019-07-06T17:21:31.000Z</Time>
            <Position>
              <LatitudeDegrees>42.53672855906188488006591796875</LatitudeDegrees>
              <LongitudeDegrees>-0.17542979680001735687255859375</LongitudeDegrees>
            </Position>
            <AltitudeMeters>926.5999755859375</AltitudeMeters>
            <DistanceMeters>5160.5526277556</DistanceMeters>
          </Trackpoint>
          <Trackpoint>
            <Time>2019-07-06T17:21:36.000Z</Time>
            <Position>
              <LatitudeDegrees>42.536660917103290557861328125</LatitudeDegrees>
              <LongitudeDegrees>-0.1754196546971797943115234375</LongitudeDegrees>
            </Position>
            <AltitudeMeters>927</AltitudeMeters>
            <DistanceMeters>5168.1273954567</DistanceMeters>
          </Trackpoint>
          <Trackpoint>
            <Time>2019-07-06T17:21:41.000Z</Time>
            <Position>
              <LatitudeDegrees>42.5366778485476970672607421875</LatitudeDegrees>
              <LongitudeDegrees>-0.17540230415761470794677734375</LongitudeDegrees>
            </Position>
            <AltitudeMeters>927.5999755859375</AltitudeMeters>
            <DistanceMeters>5170.4858964827</DistanceMeters>
          </Trackpoint>
          <Trackpoint>
            <Time>2019-07-06T17:21:44.000Z</Time>
            <Position>
              <LatitudeDegrees>42.53669687546789646148681640625</LatitudeDegrees>
              <LongitudeDegrees>-0.175379253923892974853515625</LongitudeDegrees>
            </Position>
            <AltitudeMeters>928</AltitudeMeters>
            <DistanceMeters>5173.3239994033</DistanceMeters>
          </Trackpoint>
          <Trackpoint>
            <Time>2019-07-06T17:21:50.000Z</Time>
            <Position>
              <LatitudeDegrees>42.53669553436338901519775390625</LatitudeDegrees>
              <LongitudeDegrees>-0.1753247715532779693603515625</LongitudeDegrees>
            </Position>
            <AltitudeMeters>928.79998779296875</AltitudeMeters>
            <DistanceMeters>5177.7942968397</DistanceMeters>
          </Trackpoint>
          <Trackpoint>
            <Time>2019-07-06T17:21:58.000Z</Time>
            <Position>
              <LatitudeDegrees>42.5366312451660633087158203125</LatitudeDegrees>
              <LongitudeDegrees>-0.17530373297631740570068359375</LongitudeDegrees>
            </Position>
            <AltitudeMeters>929.79998779296875</AltitudeMeters>
            <DistanceMeters>5185.1550344837</DistanceMeters>
          </Trackpoint>
          <Trackpoint>
            <Time>2019-07-06T17:21:59.000Z</Time>
            <Position>
              <LatitudeDegrees>42.53663887269794940948486328125</LatitudeDegrees>
              <LongitudeDegrees>-0.175296105444431304931640625</LongitudeDegrees>
            </Position>
            <AltitudeMeters>929.79998779296875</AltitudeMeters>
            <DistanceMeters>5186.2046388502</DistanceMeters>
          </Trackpoint>
          <Trackpoint>
            <Time>2019-07-06T17:22:10.000Z</Time>
            <Position>
              <LatitudeDegrees>42.536629736423492431640625</LatitudeDegrees>
              <LongitudeDegrees>-0.1752235181629657745361328125</LongitudeDegrees>
            </Position>
            <AltitudeMeters>931</AltitudeMeters>
            <DistanceMeters>5192.2431360706</DistanceMeters>
          </Trackpoint>
          <Trackpoint>
            <Time>2019-07-06T17:22:13.000Z</Time>
            <Position>
              <LatitudeDegrees>42.5366117991507053375244140625</LatitudeDegrees>
              <LongitudeDegrees>-0.17522460781037807464599609375</LongitudeDegrees>
            </Position>
            <AltitudeMeters>931.5999755859375</AltitudeMeters>
            <DistanceMeters>5194.240958332</DistanceMeters>
          </Trackpoint>
          <Trackpoint>
            <Time>2019-07-06T17:22:15.000Z</Time>
            <Position>
              <LatitudeDegrees>42.53663577139377593994140625</LatitudeDegrees>
              <LongitudeDegrees>-0.1751983724534511566162109375</LongitudeDegrees>
            </Position>
            <AltitudeMeters>932</AltitudeMeters>
            <DistanceMeters>5197.6685127741</DistanceMeters>
          </Trackpoint>
          <Trackpoint>
            <Time>2019-07-06T17:22:17.000Z</Time>
            <Position>
              <LatitudeDegrees>42.5366520322859287261962890625</LatitudeDegrees>
              <LongitudeDegrees>-0.17517951317131519317626953125</LongitudeDegrees>
            </Position>
            <AltitudeMeters>932.4000244140625</AltitudeMeters>
            <DistanceMeters>5200.0498754107</DistanceMeters>
          </Trackpoint>
          <Trackpoint>
            <Time>2019-07-06T17:22:19.000Z</Time>
            <Position>
              <LatitudeDegrees>42.5366659462451934814453125</LatitudeDegrees>
              <LongitudeDegrees>-0.175172723829746246337890625</LongitudeDegrees>
            </Position>
            <AltitudeMeters>932.79998779296875</AltitudeMeters>
            <DistanceMeters>5201.6957863844</DistanceMeters>
          </Trackpoint>
          <Trackpoint>
            <Time>2019-07-06T17:22:22.000Z</Time>
            <Position>
              <LatitudeDegrees>42.53664742223918437957763671875</LatitudeDegrees>
              <LongitudeDegrees>-0.175192840397357940673828125</LongitudeDegrees>
            </Position>
            <AltitudeMeters>932.79998779296875</AltitudeMeters>
            <DistanceMeters>5204.3360929981</DistanceMeters>
          </Trackpoint>
          <Trackpoint>
            <Time>2019-07-06T17:22:25.000Z</Time>
            <Position>
              <LatitudeDegrees>42.53659042529761791229248046875</LatitudeDegrees>
              <LongitudeDegrees>-0.175231732428073883056640625</LongitudeDegrees>
            </Position>
            <AltitudeMeters>933</AltitudeMeters>
            <DistanceMeters>5211.4370751037</DistanceMeters>
          </Trackpoint>
          <Trackpoint>
            <Time>2019-07-06T17:22:26.000Z</Time>
            <Position>
              <LatitudeDegrees>42.5365930236876010894775390625</LatitudeDegrees>
              <LongitudeDegrees>-0.1752399466931819915771484375</LongitudeDegrees>
            </Position>
            <AltitudeMeters>933.20001220703125</AltitudeMeters>
            <DistanceMeters>5212.1669891467</DistanceMeters>
          </Trackpoint>
          <Trackpoint>
            <Time>2019-07-06T17:22:28.000Z</Time>
            <Position>
              <LatitudeDegrees>42.53657617606222629547119140625</LatitudeDegrees>
              <LongitudeDegrees>-0.1752702891826629638671875</LongitudeDegrees>
            </Position>
            <AltitudeMeters>933.5999755859375</AltitudeMeters>
            <DistanceMeters>5215.2826483349</DistanceMeters>
          </Trackpoint>
          <Trackpoint>
            <Time>2019-07-06T17:22:31.000Z</Time>
            <Position>
              <LatitudeDegrees>42.5365591607987880706787109375</LatitudeDegrees>
              <LongitudeDegrees>-0.17529937438666820526123046875</LongitudeDegrees>
            </Position>
            <AltitudeMeters>934</AltitudeMeters>
            <DistanceMeters>5218.3294365757</DistanceMeters>
          </Trackpoint>
          <Trackpoint>
            <Time>2019-07-06T17:22:32.000Z</Time>
            <Position>
              <LatitudeDegrees>42.53655555658042430877685546875</LatitudeDegrees>
              <LongitudeDegrees>-0.17531278543174266815185546875</LongitudeDegrees>
            </Position>
            <AltitudeMeters>934.20001220703125</AltitudeMeters>
            <DistanceMeters>5219.5010045932</DistanceMeters>
          </Trackpoint>
          <Trackpoint>
            <Time>2019-07-06T17:22:34.000Z</Time>
            <Position>
              <LatitudeDegrees>42.5365340150892734527587890625</LatitudeDegrees>
              <LongitudeDegrees>-0.17532368190586566925048828125</LongitudeDegrees>
            </Position>
            <AltitudeMeters>934.5999755859375</AltitudeMeters>
            <DistanceMeters>5222.059677183</DistanceMeters>
          </Trackpoint>
          <Trackpoint>
            <Time>2019-07-06T17:22:37.000Z</Time>
            <Position>
              <LatitudeDegrees>42.5365105457603931427001953125</LatitudeDegrees>
              <LongitudeDegrees>-0.175356455147266387939453125</LongitudeDegrees>
            </Position>
            <AltitudeMeters>935.20001220703125</AltitudeMeters>
            <DistanceMeters>5225.8081167179</DistanceMeters>
          </Trackpoint>
          <Trackpoint>
            <Time>2019-07-06T17:22:39.000Z</Time>
            <Position>
              <LatitudeDegrees>42.53650300204753875732421875</LatitudeDegrees>
              <LongitudeDegrees>-0.1753639988601207733154296875</LongitudeDegrees>
            </Position>
            <AltitudeMeters>935.4000244140625</AltitudeMeters>
            <DistanceMeters>5226.8490822184</DistanceMeters>
          </Trackpoint>
          <Trackpoint>
            <Time>2019-07-06T17:22:42.000Z</Time>
            <Position>
              <LatitudeDegrees>42.536483891308307647705078125</LatitudeDegrees>
              <LongitudeDegrees>-0.17536894418299198150634765625</LongitudeDegrees>
            </Position>
            <AltitudeMeters>935.79998779296875</AltitudeMeters>
            <DistanceMeters>5229.0139401062</DistanceMeters>
          </Trackpoint>
          <Trackpoint>
            <Time>2019-07-06T17:22:46.000Z</Time>
            <Position>
              <LatitudeDegrees>42.5364716537296772003173828125</LatitudeDegrees>
              <LongitudeDegrees>-0.17535570077598094940185546875</LongitudeDegrees>
            </Position>
            <AltitudeMeters>936</AltitudeMeters>
            <DistanceMeters>5230.7583986932</DistanceMeters>
          </Trackpoint>
          <Trackpoint>
            <Time>2019-07-06T17:22:48.000Z</Time>
            <Position>
              <LatitudeDegrees>42.53648481331765651702880859375</LatitudeDegrees>
              <LongitudeDegrees>-0.17533675767481327056884765625</LongitudeDegrees>
            </Position>
            <AltitudeMeters>936.4000244140625</AltitudeMeters>
            <DistanceMeters>5232.8917431397</DistanceMeters>
          </Trackpoint>
          <Trackpoint>
            <Time>2019-07-06T17:22:51.000Z</Time>
            <Position>
              <LatitudeDegrees>42.53651163540780544281005859375</LatitudeDegrees>
              <LongitudeDegrees>-0.17530314624309539794921875</LongitudeDegrees>
            </Position>
            <AltitudeMeters>936.79998779296875</AltitudeMeters>
            <DistanceMeters>5236.9557325364</DistanceMeters>
          </Trackpoint>
          <Trackpoint>
            <Time>2019-07-06T17:22:54.000Z</Time>
            <Position>
              <LatitudeDegrees>42.5365130603313446044921875</LatitudeDegrees>
              <LongitudeDegrees>-0.17529300414025783538818359375</LongitudeDegrees>
            </Position>
            <AltitudeMeters>937.20001220703125</AltitudeMeters>
            <DistanceMeters>5237.8056773084</DistanceMeters>
          </Trackpoint>
          <Trackpoint>
            <Time>2019-07-06T17:22:55.000Z</Time>
            <Position>
              <LatitudeDegrees>42.53651029430329799652099609375</LatitudeDegrees>
              <LongitudeDegrees>-0.17528847791254520416259765625</LongitudeDegrees>
            </Position>
            <AltitudeMeters>937.4000244140625</AltitudeMeters>
            <DistanceMeters>5238.2902203793</DistanceMeters>
          </Trackpoint>
          <Trackpoint>
            <Time>2019-07-06T17:23:04.000Z</Time>
            <Position>
              <LatitudeDegrees>42.53645145334303379058837890625</LatitudeDegrees>
              <LongitudeDegrees>-0.1752831973135471343994140625</LongitudeDegrees>
            </Position>
            <AltitudeMeters>938.4000244140625</AltitudeMeters>
            <DistanceMeters>5244.8532581392</DistanceMeters>
          </Trackpoint>
          <Trackpoint>
            <Time>2019-07-06T17:23:05.000Z</Time>
            <Position>
              <LatitudeDegrees>42.53644659183919429779052734375</LatitudeDegrees>
              <LongitudeDegrees>-0.1752858795225620269775390625</LongitudeDegrees>
            </Position>
            <AltitudeMeters>938.5999755859375</AltitudeMeters>
            <DistanceMeters>5245.4390421479</DistanceMeters>
          </Trackpoint>
          <Trackpoint>
            <Time>2019-07-06T17:23:08.000Z</Time>
            <Position>
              <LatitudeDegrees>42.536430917680263519287109375</LatitudeDegrees>
              <LongitudeDegrees>-0.17528495751321315765380859375</LongitudeDegrees>
            </Position>
            <AltitudeMeters>939</AltitudeMeters>
            <DistanceMeters>5247.1860870352</DistanceMeters>
          </Trackpoint>
          <Trackpoint>
            <Time>2019-07-06T17:23:12.000Z</Time>
            <Position>
              <LatitudeDegrees>42.53637735731899738311767578125</LatitudeDegrees>
              <LongitudeDegrees>-0.17528093419969081878662109375</LongitudeDegrees>
            </Position>
            <AltitudeMeters>939.5999755859375</AltitudeMeters>
            <DistanceMeters>5253.1569112497</DistanceMeters>
          </Trackpoint>
          <Trackpoint>
            <Time>2019-07-06T17:23:13.000Z</Time>
            <Position>
              <LatitudeDegrees>42.53637048415839672088623046875</LatitudeDegrees>
              <LongitudeDegrees>-0.17527875490486621856689453125</LongitudeDegrees>
            </Position>
            <AltitudeMeters>939.5999755859375</AltitudeMeters>
            <DistanceMeters>5253.9405216109</DistanceMeters>
          </Trackpoint>
          <Trackpoint>
            <Time>2019-07-06T17:23:16.000Z</Time>
            <Position>
              <LatitudeDegrees>42.53634232096374034881591796875</LatitudeDegrees>
              <LongitudeDegrees>-0.1752711273729801177978515625</LongitudeDegrees>
            </Position>
            <AltitudeMeters>940</AltitudeMeters>
            <DistanceMeters>5257.1377151513</DistanceMeters>
          </Trackpoint>
          <Trackpoint>
            <Time>2019-07-06T17:23:18.000Z</Time>
            <Position>
              <LatitudeDegrees>42.5363258086144924163818359375</LatitudeDegrees>
              <LongitudeDegrees>-0.17526400275528430938720703125</LongitudeDegrees>
            </Position>
            <AltitudeMeters>940.5999755859375</AltitudeMeters>
            <DistanceMeters>5259.0665467911</DistanceMeters>
          </Trackpoint>
          <Trackpoint>
            <Time>2019-07-06T17:23:22.000Z</Time>
            <Position>
              <LatitudeDegrees>42.536302506923675537109375</LatitudeDegrees>
              <LongitudeDegrees>-0.17525863833725452423095703125</LongitudeDegrees>
            </Position>
            <AltitudeMeters>941.79998779296875</AltitudeMeters>
            <DistanceMeters>5261.6965731324</DistanceMeters>
          </Trackpoint>
          <Trackpoint>
            <Time>2019-07-06T17:23:26.000Z</Time>
            <Position>
              <LatitudeDegrees>42.5362812168896198272705078125</LatitudeDegrees>
              <LongitudeDegrees>-0.175255201756954193115234375</LongitudeDegrees>
            </Position>
            <AltitudeMeters>942.20001220703125</AltitudeMeters>
            <DistanceMeters>5264.0836169603</DistanceMeters>
          </Trackpoint>
          <Trackpoint>
            <Time>2019-07-06T17:23:27.000Z</Time>
            <Position>
              <LatitudeDegrees>42.53627057187259197235107421875</LatitudeDegrees>
              <LongitudeDegrees>-0.1752614043653011322021484375</LongitudeDegrees>
            </Position>
            <AltitudeMeters>942.4000244140625</AltitudeMeters>
            <DistanceMeters>5265.3726220284</DistanceMeters>
          </Trackpoint>
          <Trackpoint>
            <Time>2019-07-06T17:23:31.000Z</Time>
            <Position>
              <LatitudeDegrees>42.53621843643486499786376953125</LatitudeDegrees>
              <LongitudeDegrees>-0.17527364194393157958984375</LongitudeDegrees>
            </Position>
            <AltitudeMeters>942.79998779296875</AltitudeMeters>
            <DistanceMeters>5271.2612121436</DistanceMeters>
          </Trackpoint>
          <Trackpoint>
            <Time>2019-07-06T17:23:32.000Z</Time>
            <Position>
              <LatitudeDegrees>42.5362101383507251739501953125</LatitudeDegrees>
              <LongitudeDegrees>-0.17527875490486621856689453125</LongitudeDegrees>
            </Position>
            <AltitudeMeters>943</AltitudeMeters>
            <DistanceMeters>5272.2802601263</DistanceMeters>
          </Trackpoint>
          <Trackpoint>
            <Time>2019-07-06T17:23:35.000Z</Time>
            <Position>
              <LatitudeDegrees>42.53619329072535037994384765625</LatitudeDegrees>
              <LongitudeDegrees>-0.17526718787848949432373046875</LongitudeDegrees>
            </Position>
            <AltitudeMeters>943.4000244140625</AltitudeMeters>
            <DistanceMeters>5274.3837661181</DistanceMeters>
          </Trackpoint>
          <Trackpoint>
            <Time>2019-07-06T17:23:38.000Z</Time>
            <Position>
              <LatitudeDegrees>42.536166720092296600341796875</LatitudeDegrees>
              <LongitudeDegrees>-0.175271965563297271728515625</LongitudeDegrees>
            </Position>
            <AltitudeMeters>943.5999755859375</AltitudeMeters>
            <DistanceMeters>5277.3676654753</DistanceMeters>
          </Trackpoint>
          <Trackpoint>
            <Time>2019-07-06T17:23:39.000Z</Time>
            <Position>
              <LatitudeDegrees>42.53616328351199626922607421875</LatitudeDegrees>
              <LongitudeDegrees>-0.175269283354282379150390625</LongitudeDegrees>
            </Position>
            <AltitudeMeters>943.79998779296875</AltitudeMeters>
            <DistanceMeters>5277.7926378613</DistanceMeters>
          </Trackpoint>
          <Trackpoint>
            <Time>2019-07-06T17:23:40.000Z</Time>
            <Position>
              <LatitudeDegrees>42.53615791909396648406982421875</LatitudeDegrees>
              <LongitudeDegrees>-0.175268948078155517578125</LongitudeDegrees>
            </Position>
            <AltitudeMeters>944</AltitudeMeters>
            <DistanceMeters>5278.3860795024</DistanceMeters>
          </Trackpoint>
          <Trackpoint>
            <Time>2019-07-06T17:23:48.000Z</Time>
            <Position>
              <LatitudeDegrees>42.5360948033630847930908203125</LatitudeDegrees>
              <LongitudeDegrees>-0.17523013986647129058837890625</LongitudeDegrees>
            </Position>
            <AltitudeMeters>944.79998779296875</AltitudeMeters>
            <DistanceMeters>5286.0984794879</DistanceMeters>
          </Trackpoint>
          <Trackpoint>
            <Time>2019-07-06T17:23:49.000Z</Time>
            <Position>
              <LatitudeDegrees>42.53609136678278446197509765625</LatitudeDegrees>
              <LongitudeDegrees>-0.1752208359539508819580078125</LongitudeDegrees>
            </Position>
            <AltitudeMeters>945</AltitudeMeters>
            <DistanceMeters>5286.9589829849</DistanceMeters>
          </Trackpoint>
          <Trackpoint>
            <Time>2019-07-06T17:23:51.000Z</Time>
            <Position>
              <LatitudeDegrees>42.53608767874538898468017578125</LatitudeDegrees>
              <LongitudeDegrees>-0.175203569233417510986328125</LongitudeDegrees>
            </Position>
            <AltitudeMeters>945.20001220703125</AltitudeMeters>
            <DistanceMeters>5288.4311305137</DistanceMeters>
          </Trackpoint>
          <Trackpoint>
            <Time>2019-07-06T17:23:55.000Z</Time>
            <Position>
              <LatitudeDegrees>42.536076195538043975830078125</LatitudeDegrees>
              <LongitudeDegrees>-0.175177752971649169921875</LongitudeDegrees>
            </Position>
            <AltitudeMeters>946</AltitudeMeters>
            <DistanceMeters>5290.9018250873</DistanceMeters>
          </Trackpoint>
          <Trackpoint>
            <Time>2019-07-06T17:24:00.000Z</Time>
            <Position>
              <LatitudeDegrees>42.53605281002819538116455078125</LatitudeDegrees>
              <LongitudeDegrees>-0.1751259528100490570068359375</LongitudeDegrees>
            </Position>
            <AltitudeMeters>946.5999755859375</AltitudeMeters>
            <DistanceMeters>5295.8850680295</DistanceMeters>
          </Trackpoint>
          <Trackpoint>
            <Time>2019-07-06T17:24:04.000Z</Time>
            <Position>
              <LatitudeDegrees>42.53604325465857982635498046875</LatitudeDegrees>
              <LongitudeDegrees>-0.1751024834811687469482421875</LongitudeDegrees>
            </Position>
            <AltitudeMeters>947</AltitudeMeters>
            <DistanceMeters>5298.0850955234</DistanceMeters>
          </Trackpoint>
          <Trackpoint>
            <Time>2019-07-06T17:24:07.000Z</Time>
            <Position>
              <LatitudeDegrees>42.5360368005931377410888671875</LatitudeDegrees>
              <LongitudeDegrees>-0.17509636469185352325439453125</LongitudeDegrees>
            </Position>
            <AltitudeMeters>947</AltitudeMeters>
            <DistanceMeters>5298.9611985412</DistanceMeters>
          </Trackpoint>
          <Trackpoint>
            <Time>2019-07-06T17:24:16.000Z</Time>
            <Position>
              <LatitudeDegrees>42.5360357947647571563720703125</LatitudeDegrees>
              <LongitudeDegrees>-0.1750464923679828643798828125</LongitudeDegrees>
            </Position>
            <AltitudeMeters>947.5999755859375</AltitudeMeters>
            <DistanceMeters>5303.0528683381</DistanceMeters>
          </Trackpoint>
          <Trackpoint>
            <Time>2019-07-06T17:24:20.000Z</Time>
            <Position>
              <LatitudeDegrees>42.53602095879614353179931640625</LatitudeDegrees>
              <LongitudeDegrees>-0.17501254566013813018798828125</LongitudeDegrees>
            </Position>
            <AltitudeMeters>947.4000244140625</AltitudeMeters>
            <DistanceMeters>5306.2893616063</DistanceMeters>
          </Trackpoint>
          <Trackpoint>
            <Time>2019-07-06T17:24:25.000Z</Time>
            <Position>
              <LatitudeDegrees>42.53598676063120365142822265625</LatitudeDegrees>
              <LongitudeDegrees>-0.17496292479336261749267578125</LongitudeDegrees>
            </Position>
            <AltitudeMeters>948.20001220703125</AltitudeMeters>
            <DistanceMeters>5311.8612017704</DistanceMeters>
          </Trackpoint>
          <Trackpoint>
            <Time>2019-07-06T17:24:29.000Z</Time>
            <Position>
              <LatitudeDegrees>42.5359647162258625030517578125</LatitudeDegrees>
              <LongitudeDegrees>-0.174930989742279052734375</LongitudeDegrees>
            </Position>
            <AltitudeMeters>948.5999755859375</AltitudeMeters>
            <DistanceMeters>5315.4496400113</DistanceMeters>
          </Trackpoint>
          <Trackpoint>
            <Time>2019-07-06T17:24:30.000Z</Time>
            <Position>
              <LatitudeDegrees>42.53595926798880100250244140625</LatitudeDegrees>
              <LongitudeDegrees>-0.1749170757830142974853515625</LongitudeDegrees>
            </Position>
            <AltitudeMeters>948.5999755859375</AltitudeMeters>
            <DistanceMeters>5316.7386450795</DistanceMeters>
          </Trackpoint>
          <Trackpoint>
            <Time>2019-07-06T17:24:31.000Z</Time>
            <Position>
              <LatitudeDegrees>42.53595717251300811767578125</LatitudeDegrees>
              <LongitudeDegrees>-0.17490777187049388885498046875</LongitudeDegrees>
            </Position>
            <AltitudeMeters>948.79998779296875</AltitudeMeters>
            <DistanceMeters>5317.5393544072</DistanceMeters>
          </Trackpoint>
          <Trackpoint>
            <Time>2019-07-06T17:24:32.000Z</Time>
            <Position>
              <LatitudeDegrees>42.53595449030399322509765625</LatitudeDegrees>
              <LongitudeDegrees>-0.17490173690021038055419921875</LongitudeDegrees>
            </Position>
            <AltitudeMeters>948.79998779296875</AltitudeMeters>
            <DistanceMeters>5318.1251384159</DistanceMeters>
          </Trackpoint>
          <Trackpoint>
            <Time>2019-07-06T17:24:33.000Z</Time>
            <Position>
              <LatitudeDegrees>42.53595122136175632476806640625</LatitudeDegrees>
              <LongitudeDegrees>-0.17489385791122913360595703125</LongitudeDegrees>
            </Position>
            <AltitudeMeters>948.79998779296875</AltitudeMeters>
            <DistanceMeters>5318.8612121803</DistanceMeters>
          </Trackpoint>
          <Trackpoint>
            <Time>2019-07-06T17:24:34.000Z</Time>
            <Position>
              <LatitudeDegrees>42.5359456054866313934326171875</LatitudeDegrees>
              <LongitudeDegrees>-0.1748838834464550018310546875</LongitudeDegrees>
            </Position>
            <AltitudeMeters>949</AltitudeMeters>
            <DistanceMeters>5319.8890832539</DistanceMeters>
          </Trackpoint>
          <Trackpoint>
            <Time>2019-07-06T17:24:37.000Z</Time>
            <Position>
              <LatitudeDegrees>42.5359295122325420379638671875</LatitudeDegrees>
              <LongitudeDegrees>-0.174858905375003814697265625</LongitudeDegrees>
            </Position>
            <AltitudeMeters>949.20001220703125</AltitudeMeters>
            <DistanceMeters>5322.6102342391</DistanceMeters>
          </Trackpoint>
          <Trackpoint>
            <Time>2019-07-06T17:24:38.000Z</Time>
            <Position>
              <LatitudeDegrees>42.535935379564762115478515625</LatitudeDegrees>
              <LongitudeDegrees>-0.17484842799603939056396484375</LongitudeDegrees>
            </Position>
            <AltitudeMeters>949.20001220703125</AltitudeMeters>
            <DistanceMeters>5323.6937054836</DistanceMeters>
          </Trackpoint>
          <Trackpoint>
            <Time>2019-07-06T17:24:43.000Z</Time>
            <Position>
              <LatitudeDegrees>42.53593194298446178436279296875</LatitudeDegrees>
              <LongitudeDegrees>-0.1747943647205829620361328125</LongitudeDegrees>
            </Position>
            <AltitudeMeters>948.79998779296875</AltitudeMeters>
            <DistanceMeters>5328.1447713917</DistanceMeters>
          </Trackpoint>
          <Trackpoint>
            <Time>2019-07-06T17:24:48.000Z</Time>
            <Position>
              <LatitudeDegrees>42.5359087251126766204833984375</LatitudeDegrees>
              <LongitudeDegrees>-0.1747662015259265899658203125</LongitudeDegrees>
            </Position>
            <AltitudeMeters>949.4000244140625</AltitudeMeters>
            <DistanceMeters>5331.6103163229</DistanceMeters>
          </Trackpoint>
          <Trackpoint>
            <Time>2019-07-06T17:24:57.000Z</Time>
            <Position>
              <LatitudeDegrees>42.53583244979381561279296875</LatitudeDegrees>
              <LongitudeDegrees>-0.1747145690023899078369140625</LongitudeDegrees>
            </Position>
            <AltitudeMeters>949.79998779296875</AltitudeMeters>
            <DistanceMeters>5341.0977713027</DistanceMeters>
          </Trackpoint>
          <Trackpoint>
            <Time>2019-07-06T17:25:00.000Z</Time>
            <Position>
              <LatitudeDegrees>42.53580638207495212554931640625</LatitudeDegrees>
              <LongitudeDegrees>-0.17471062950789928436279296875</LongitudeDegrees>
            </Position>
            <AltitudeMeters>949.79998779296875</AltitudeMeters>
            <DistanceMeters>5344.0174274748</DistanceMeters>
          </Trackpoint>
          <Trackpoint>
            <Time>2019-07-06T17:25:03.000Z</Time>
            <Position>
              <LatitudeDegrees>42.53578593023121356964111328125</LatitudeDegrees>
              <LongitudeDegrees>-0.17470501363277435302734375</LongitudeDegrees>
            </Position>
            <AltitudeMeters>950.20001220703125</AltitudeMeters>
            <DistanceMeters>5346.3412144085</DistanceMeters>
          </Trackpoint>
          <Trackpoint>
            <Time>2019-07-06T17:25:09.000Z</Time>
            <Position>
              <LatitudeDegrees>42.5357266701757907867431640625</LatitudeDegrees>
              <LongitudeDegrees>-0.17466905526816844940185546875</LongitudeDegrees>
            </Position>
            <AltitudeMeters>951.4000244140625</AltitudeMeters>
            <DistanceMeters>5353.5657449709</DistanceMeters>
          </Trackpoint>
          <Trackpoint>
            <Time>2019-07-06T17:25:11.000Z</Time>
            <Position>
              <LatitudeDegrees>42.5357122533023357391357421875</LatitudeDegrees>
              <LongitudeDegrees>-0.17465748824179172515869140625</LongitudeDegrees>
            </Position>
            <AltitudeMeters>951.5999755859375</AltitudeMeters>
            <DistanceMeters>5355.4327236819</DistanceMeters>
          </Trackpoint>
          <Trackpoint>
            <Time>2019-07-06T17:25:13.000Z</Time>
            <Position>
              <LatitudeDegrees>42.5356976687908172607421875</LatitudeDegrees>
              <LongitudeDegrees>-0.17466343939304351806640625</LongitudeDegrees>
            </Position>
            <AltitudeMeters>951.5999755859375</AltitudeMeters>
            <DistanceMeters>5357.1299550702</DistanceMeters>
          </Trackpoint>
          <Trackpoint>
            <Time>2019-07-06T17:25:15.000Z</Time>
            <Position>
              <LatitudeDegrees>42.53568786196410655975341796875</LatitudeDegrees>
              <LongitudeDegrees>-0.17467550933361053466796875</LongitudeDegrees>
            </Position>
            <AltitudeMeters>951.5999755859375</AltitudeMeters>
            <DistanceMeters>5358.608223821</DistanceMeters>
          </Trackpoint>
          <Trackpoint>
            <Time>2019-07-06T17:25:21.000Z</Time>
            <Position>
              <LatitudeDegrees>42.53565835766494274139404296875</LatitudeDegrees>
              <LongitudeDegrees>-0.1746770180761814117431640625</LongitudeDegrees>
            </Position>
            <AltitudeMeters>952.4000244140625</AltitudeMeters>
            <DistanceMeters>5361.8945548188</DistanceMeters>
          </Trackpoint>
          <Trackpoint>
            <Time>2019-07-06T17:25:30.000Z</Time>
            <Position>
              <LatitudeDegrees>42.5355989299714565277099609375</LatitudeDegrees>
              <LongitudeDegrees>-0.1746587455272674560546875</LongitudeDegrees>
            </Position>
            <AltitudeMeters>953.4000244140625</AltitudeMeters>
            <DistanceMeters>5368.6761607738</DistanceMeters>
          </Trackpoint>
          <Trackpoint>
            <Time>2019-07-06T17:25:33.000Z</Time>
            <Position>
              <LatitudeDegrees>42.53557638265192508697509765625</LatitudeDegrees>
              <LongitudeDegrees>-0.174670480191707611083984375</LongitudeDegrees>
            </Position>
            <AltitudeMeters>954</AltitudeMeters>
            <DistanceMeters>5371.3639221388</DistanceMeters>
          </Trackpoint>
          <Trackpoint>
            <Time>2019-07-06T17:25:35.000Z</Time>
            <Position>
              <LatitudeDegrees>42.53556766547262668609619140625</LatitudeDegrees>
              <LongitudeDegrees>-0.17466067336499691009521484375</LongitudeDegrees>
            </Position>
            <AltitudeMeters>954.20001220703125</AltitudeMeters>
            <DistanceMeters>5372.631736639</DistanceMeters>
          </Trackpoint>
          <Trackpoint>
            <Time>2019-07-06T17:25:37.000Z</Time>
            <Position>
              <LatitudeDegrees>42.53554721362888813018798828125</LatitudeDegrees>
              <LongitudeDegrees>-0.17465832643210887908935546875</LongitudeDegrees>
            </Position>
            <AltitudeMeters>954.5999755859375</AltitudeMeters>
            <DistanceMeters>5374.9163337993</DistanceMeters>
          </Trackpoint>
          <Trackpoint>
            <Time>2019-07-06T17:25:41.000Z</Time>
            <Position>
              <LatitudeDegrees>42.53551921807229518890380859375</LatitudeDegrees>
              <LongitudeDegrees>-0.174626894295215606689453125</LongitudeDegrees>
            </Position>
            <AltitudeMeters>955</AltitudeMeters>
            <DistanceMeters>5378.9591593413</DistanceMeters>
          </Trackpoint>
          <Trackpoint>
            <Time>2019-07-06T17:25:46.000Z</Time>
            <Position>
              <LatitudeDegrees>42.53550513647496700286865234375</LatitudeDegrees>
              <LongitudeDegrees>-0.17459311522543430328369140625</LongitudeDegrees>
            </Position>
            <AltitudeMeters>955.5999755859375</AltitudeMeters>
            <DistanceMeters>5382.1421996757</DistanceMeters>
          </Trackpoint>
          <Trackpoint>
            <Time>2019-07-06T17:25:54.000Z</Time>
            <Position>
              <LatitudeDegrees>42.53560488112270832061767578125</LatitudeDegrees>
              <LongitudeDegrees>-0.1745150797069072723388671875</LongitudeDegrees>
            </Position>
            <AltitudeMeters>956.5999755859375</AltitudeMeters>
            <DistanceMeters>5394.9567203508</DistanceMeters>
          </Trackpoint>
          <Trackpoint>
            <Time>2019-07-06T17:25:56.000Z</Time>
            <Position>
              <LatitudeDegrees>42.53560354001820087432861328125</LatitudeDegrees>
              <LongitudeDegrees>-0.174490772187709808349609375</LongitudeDegrees>
            </Position>
            <AltitudeMeters>956.79998779296875</AltitudeMeters>
            <DistanceMeters>5396.9568013153</DistanceMeters>
          </Trackpoint>
          <Trackpoint>
            <Time>2019-07-06T17:25:58.000Z</Time>
            <Position>
              <LatitudeDegrees>42.5356083177030086517333984375</LatitudeDegrees>
              <LongitudeDegrees>-0.17446822486817836761474609375</LongitudeDegrees>
            </Position>
            <AltitudeMeters>957.20001220703125</AltitudeMeters>
            <DistanceMeters>5398.8809456296</DistanceMeters>
          </Trackpoint>
          <Trackpoint>
            <Time>2019-07-06T17:26:06.000Z</Time>
            <Position>
              <LatitudeDegrees>42.53560001961886882781982421875</LatitudeDegrees>
              <LongitudeDegrees>-0.174414329230785369873046875</LongitudeDegrees>
            </Position>
            <AltitudeMeters>957.5999755859375</AltitudeMeters>
            <DistanceMeters>5403.396464715</DistanceMeters>
          </Trackpoint>
          <Trackpoint>
            <Time>2019-07-06T17:26:11.000Z</Time>
            <Position>
              <LatitudeDegrees>42.5355519913136959075927734375</LatitudeDegrees>
              <LongitudeDegrees>-0.17437049187719821929931640625</LongitudeDegrees>
            </Position>
            <AltitudeMeters>958</AltitudeMeters>
            <DistanceMeters>5409.8386872613</DistanceMeters>
          </Trackpoint>
          <Trackpoint>
            <Time>2019-07-06T17:26:15.000Z</Time>
            <Position>
              <LatitudeDegrees>42.535531707108020782470703125</LatitudeDegrees>
              <LongitudeDegrees>-0.174345932900905609130859375</LongitudeDegrees>
            </Position>
            <AltitudeMeters>958</AltitudeMeters>
            <DistanceMeters>5412.8631653051</DistanceMeters>
          </Trackpoint>
          <Trackpoint>
            <Time>2019-07-06T17:26:19.000Z</Time>
            <Position>
              <LatitudeDegrees>42.53550513647496700286865234375</LatitudeDegrees>
              <LongitudeDegrees>-0.17432422377169132232666015625</LongitudeDegrees>
            </Position>
            <AltitudeMeters>958.4000244140625</AltitudeMeters>
            <DistanceMeters>5416.3156572901</DistanceMeters>
          </Trackpoint>
          <Trackpoint>
            <Time>2019-07-06T17:26:22.000Z</Time>
            <Position>
              <LatitudeDegrees>42.53550295718014240264892578125</LatitudeDegrees>
              <LongitudeDegrees>-0.17430595122277736663818359375</LongitudeDegrees>
            </Position>
            <AltitudeMeters>958.79998779296875</AltitudeMeters>
            <DistanceMeters>5417.83608472</DistanceMeters>
          </Trackpoint>
          <Trackpoint>
            <Time>2019-07-06T17:26:31.000Z</Time>
            <Position>
              <LatitudeDegrees>42.53548300825059413909912109375</LatitudeDegrees>
              <LongitudeDegrees>-0.1742072962224483489990234375</LongitudeDegrees>
            </Position>
            <AltitudeMeters>958</AltitudeMeters>
            <DistanceMeters>5426.2270027886</DistanceMeters>
          </Trackpoint>
          <Trackpoint>
            <Time>2019-07-06T17:26:32.000Z</Time>
            <Position>
              <LatitudeDegrees>42.5354829244315624237060546875</LatitudeDegrees>
              <LongitudeDegrees>-0.17419514246284961700439453125</LongitudeDegrees>
            </Position>
            <AltitudeMeters>958</AltitudeMeters>
            <DistanceMeters>5427.223651377</DistanceMeters>
          </Trackpoint>
          <Trackpoint>
            <Time>2019-07-06T17:26:40.000Z</Time>
            <Position>
              <LatitudeDegrees>42.53549717366695404052734375</LatitudeDegrees>
              <LongitudeDegrees>-0.174127332866191864013671875</LongitudeDegrees>
            </Position>
            <AltitudeMeters>957.79998779296875</AltitudeMeters>
            <DistanceMeters>5433.006243622</DistanceMeters>
          </Trackpoint>
          <Trackpoint>
            <Time>2019-07-06T17:26:47.000Z</Time>
            <Position>
              <LatitudeDegrees>42.53548954613506793975830078125</LatitudeDegrees>
              <LongitudeDegrees>-0.174039490520954132080078125</LongitudeDegrees>
            </Position>
            <AltitudeMeters>958</AltitudeMeters>
            <DistanceMeters>5440.2600878055</DistanceMeters>
          </Trackpoint>
          <Trackpoint>
            <Time>2019-07-06T17:26:48.000Z</Time>
            <Position>
              <LatitudeDegrees>42.5354973413050174713134765625</LatitudeDegrees>
              <LongitudeDegrees>-0.1740239001810550689697265625</LongitudeDegrees>
            </Position>
            <AltitudeMeters>958</AltitudeMeters>
            <DistanceMeters>5441.8011621401</DistanceMeters>
          </Trackpoint>
          <Trackpoint>
            <Time>2019-07-06T17:26:49.000Z</Time>
            <Position>
              <LatitudeDegrees>42.53550228662788867950439453125</LatitudeDegrees>
              <LongitudeDegrees>-0.17400839366018772125244140625</LongitudeDegrees>
            </Position>
            <AltitudeMeters>958</AltitudeMeters>
            <DistanceMeters>5443.1847719862</DistanceMeters>
          </Trackpoint>
          <Trackpoint>
            <Time>2019-07-06T17:26:50.000Z</Time>
            <Position>
              <LatitudeDegrees>42.53550589084625244140625</LatitudeDegrees>
              <LongitudeDegrees>-0.1739895343780517578125</LongitudeDegrees>
            </Position>
            <AltitudeMeters>958</AltitudeMeters>
            <DistanceMeters>5444.780541881</DistanceMeters>
          </Trackpoint>
          <Trackpoint>
            <Time>2019-07-06T17:26:51.000Z</Time>
            <Position>
              <LatitudeDegrees>42.5355020351707935333251953125</LatitudeDegrees>
              <LongitudeDegrees>-0.17397704534232616424560546875</LongitudeDegrees>
            </Position>
            <AltitudeMeters>958</AltitudeMeters>
            <DistanceMeters>5445.8887342814</DistanceMeters>
          </Trackpoint>
          <Trackpoint>
            <Time>2019-07-06T17:26:55.000Z</Time>
            <Position>
              <LatitudeDegrees>42.53550379537045955657958984375</LatitudeDegrees>
              <LongitudeDegrees>-0.17394351772964000701904296875</LongitudeDegrees>
            </Position>
            <AltitudeMeters>958</AltitudeMeters>
            <DistanceMeters>5448.6428701192</DistanceMeters>
          </Trackpoint>
          <Trackpoint>
            <Time>2019-07-06T17:27:00.000Z</Time>
            <Position>
              <LatitudeDegrees>42.53548284061253070831298828125</LatitudeDegrees>
              <LongitudeDegrees>-0.17389909364283084869384765625</LongitudeDegrees>
            </Position>
            <AltitudeMeters>958.4000244140625</AltitudeMeters>
            <DistanceMeters>5452.9684126738</DistanceMeters>
          </Trackpoint>
          <Trackpoint>
            <Time>2019-07-06T17:27:01.000Z</Time>
            <Position>
              <LatitudeDegrees>42.53547714091837406158447265625</LatitudeDegrees>
              <LongitudeDegrees>-0.17389087937772274017333984375</LongitudeDegrees>
            </Position>
            <AltitudeMeters>958.5999755859375</AltitudeMeters>
            <DistanceMeters>5453.8946185161</DistanceMeters>
          </Trackpoint>
          <Trackpoint>
            <Time>2019-07-06T17:27:02.000Z</Time>
            <Position>
              <LatitudeDegrees>42.53546909429132938385009765625</LatitudeDegrees>
              <LongitudeDegrees>-0.1738840900361537933349609375</LongitudeDegrees>
            </Position>
            <AltitudeMeters>958.5999755859375</AltitudeMeters>
            <DistanceMeters>5454.9442228826</DistanceMeters>
          </Trackpoint>
          <Trackpoint>
            <Time>2019-07-06T17:27:03.000Z</Time>
            <Position>
              <LatitudeDegrees>42.53546926192939281463623046875</LatitudeDegrees>
              <LongitudeDegrees>-0.173871852457523345947265625</LongitudeDegrees>
            </Position>
            <AltitudeMeters>958.79998779296875</AltitudeMeters>
            <DistanceMeters>5455.940871471</DistanceMeters>
          </Trackpoint>
          <Trackpoint>
            <Time>2019-07-06T17:27:04.000Z</Time>
            <Position>
              <LatitudeDegrees>42.53546909429132938385009765625</LatitudeDegrees>
              <LongitudeDegrees>-0.173869840800762176513671875</LongitudeDegrees>
            </Position>
            <AltitudeMeters>958.79998779296875</AltitudeMeters>
            <DistanceMeters>5456.0752595392</DistanceMeters>
          </Trackpoint>
          <Trackpoint>
            <Time>2019-07-06T17:27:11.000Z</Time>
            <Position>
              <LatitudeDegrees>42.53544579260051250457763671875</LatitudeDegrees>
              <LongitudeDegrees>-0.17378342337906360626220703125</LongitudeDegrees>
            </Position>
            <AltitudeMeters>959.4000244140625</AltitudeMeters>
            <DistanceMeters>5463.6225585401</DistanceMeters>
          </Trackpoint>
          <Trackpoint>
            <Time>2019-07-06T17:27:16.000Z</Time>
            <Position>
              <LatitudeDegrees>42.535407654941082000732421875</LatitudeDegrees>
              <LongitudeDegrees>-0.17373447306454181671142578125</LongitudeDegrees>
            </Position>
            <AltitudeMeters>959.79998779296875</AltitudeMeters>
            <DistanceMeters>5469.4665083269</DistanceMeters>
          </Trackpoint>
          <Trackpoint>
            <Time>2019-07-06T17:27:19.000Z</Time>
            <Position>
              <LatitudeDegrees>42.5353991053998470306396484375</LatitudeDegrees>
              <LongitudeDegrees>-0.17371653579175472259521484375</LongitudeDegrees>
            </Position>
            <AltitudeMeters>960.20001220703125</AltitudeMeters>
            <DistanceMeters>5471.2187143625</DistanceMeters>
          </Trackpoint>
          <Trackpoint>
            <Time>2019-07-06T17:27:21.000Z</Time>
            <Position>
              <LatitudeDegrees>42.53539600409567356109619140625</LatitudeDegrees>
              <LongitudeDegrees>-0.17369759269058704376220703125</LongitudeDegrees>
            </Position>
            <AltitudeMeters>960.5999755859375</AltitudeMeters>
            <DistanceMeters>5472.8088154298</DistanceMeters>
          </Trackpoint>
          <Trackpoint>
            <Time>2019-07-06T17:27:22.000Z</Time>
            <Position>
              <LatitudeDegrees>42.53539399243891239166259765625</LatitudeDegrees>
              <LongitudeDegrees>-0.1736862771213054656982421875</LongitudeDegrees>
            </Position>
            <AltitudeMeters>960.79998779296875</AltitudeMeters>
            <DistanceMeters>5473.7685382009</DistanceMeters>
          </Trackpoint>
          <Trackpoint>
            <Time>2019-07-06T17:27:25.000Z</Time>
            <Position>
              <LatitudeDegrees>42.535394914448261260986328125</LatitudeDegrees>
              <LongitudeDegrees>-0.17364285886287689208984375</LongitudeDegrees>
            </Position>
            <AltitudeMeters>961.4000244140625</AltitudeMeters>
            <DistanceMeters>5477.3317232199</DistanceMeters>
          </Trackpoint>
          <Trackpoint>
            <Time>2019-07-06T17:27:31.000Z</Time>
            <Position>
              <LatitudeDegrees>42.53535845316946506500244140625</LatitudeDegrees>
              <LongitudeDegrees>-0.17359768040478229522705078125</LongitudeDegrees>
            </Position>
            <AltitudeMeters>962</AltitudeMeters>
            <DistanceMeters>5482.8268643126</DistanceMeters>
          </Trackpoint>
          <Trackpoint>
            <Time>2019-07-06T17:27:45.000Z</Time>
            <Position>
              <LatitudeDegrees>42.53533548675477504730224609375</LatitudeDegrees>
              <LongitudeDegrees>-0.1734623126685619354248046875</LongitudeDegrees>
            </Position>
            <AltitudeMeters>962.79998779296875</AltitudeMeters>
            <DistanceMeters>5494.2197708253</DistanceMeters>
          </Trackpoint>
          <Trackpoint>
            <Time>2019-07-06T17:27:47.000Z</Time>
            <Position>
              <LatitudeDegrees>42.53532727248966693878173828125</LatitudeDegrees>
              <LongitudeDegrees>-0.17344663850963115692138671875</LongitudeDegrees>
            </Position>
            <AltitudeMeters>963</AltitudeMeters>
            <DistanceMeters>5495.7984731717</DistanceMeters>
          </Trackpoint>
          <Trackpoint>
            <Time>2019-07-06T17:27:53.000Z</Time>
            <Position>
              <LatitudeDegrees>42.53530531190335750579833984375</LatitudeDegrees>
              <LongitudeDegrees>-0.17339366488158702850341796875</LongitudeDegrees>
            </Position>
            <AltitudeMeters>964</AltitudeMeters>
            <DistanceMeters>5500.7835278728</DistanceMeters>
          </Trackpoint>
          <Trackpoint>
            <Time>2019-07-06T17:27:59.000Z</Time>
            <Position>
              <LatitudeDegrees>42.5352834351360797882080078125</LatitudeDegrees>
              <LongitudeDegrees>-0.1733302138745784759521484375</LongitudeDegrees>
            </Position>
            <AltitudeMeters>965.20001220703125</AltitudeMeters>
            <DistanceMeters>5506.5293054076</DistanceMeters>
          </Trackpoint>
          <Trackpoint>
            <Time>2019-07-06T17:28:07.000Z</Time>
            <Position>
              <LatitudeDegrees>42.535263486206531524658203125</LatitudeDegrees>
              <LongitudeDegrees>-0.1732728816568851470947265625</LongitudeDegrees>
            </Position>
            <AltitudeMeters>966.20001220703125</AltitudeMeters>
            <DistanceMeters>5511.7280570651</DistanceMeters>
          </Trackpoint>
          <Trackpoint>
            <Time>2019-07-06T17:28:13.000Z</Time>
            <Position>
              <LatitudeDegrees>42.5352884642779827117919921875</LatitudeDegrees>
              <LongitudeDegrees>-0.173207335174083709716796875</LongitudeDegrees>
            </Position>
            <AltitudeMeters>967.20001220703125</AltitudeMeters>
            <DistanceMeters>5517.7799980808</DistanceMeters>
          </Trackpoint>
          <Trackpoint>
            <Time>2019-07-06T17:28:15.000Z</Time>
            <Position>
              <LatitudeDegrees>42.535286955535411834716796875</LatitudeDegrees>
              <LongitudeDegrees>-0.1731890626251697540283203125</LongitudeDegrees>
            </Position>
            <AltitudeMeters>967.4000244140625</AltitudeMeters>
            <DistanceMeters>5519.2885004056</DistanceMeters>
          </Trackpoint>
          <Trackpoint>
            <Time>2019-07-06T17:28:23.000Z</Time>
            <Position>
              <LatitudeDegrees>42.535272203385829925537109375</LatitudeDegrees>
              <LongitudeDegrees>-0.17320490442216396331787109375</LongitudeDegrees>
            </Position>
            <AltitudeMeters>968.4000244140625</AltitudeMeters>
            <DistanceMeters>5521.3834030648</DistanceMeters>
          </Trackpoint>
          <Trackpoint>
            <Time>2019-07-06T17:28:29.000Z</Time>
            <Position>
              <LatitudeDegrees>42.535212524235248565673828125</LatitudeDegrees>
              <LongitudeDegrees>-0.17322736792266368865966796875</LongitudeDegrees>
            </Position>
            <AltitudeMeters>969.4000244140625</AltitudeMeters>
            <DistanceMeters>5528.2766071274</DistanceMeters>
          </Trackpoint>
          <Trackpoint>
            <Time>2019-07-06T17:28:32.000Z</Time>
            <Position>
              <LatitudeDegrees>42.535186707973480224609375</LatitudeDegrees>
              <LongitudeDegrees>-0.173230804502964019775390625</LongitudeDegrees>
            </Position>
            <AltitudeMeters>969.79998779296875</AltitudeMeters>
            <DistanceMeters>5531.1636056653</DistanceMeters>
          </Trackpoint>
          <Trackpoint>
            <Time>2019-07-06T17:28:35.000Z</Time>
            <Position>
              <LatitudeDegrees>42.535173632204532623291015625</LatitudeDegrees>
              <LongitudeDegrees>-0.17322451807558536529541015625</LongitudeDegrees>
            </Position>
            <AltitudeMeters>970.4000244140625</AltitudeMeters>
            <DistanceMeters>5532.7076070193</DistanceMeters>
          </Trackpoint>
          <Trackpoint>
            <Time>2019-07-06T17:28:41.000Z</Time>
            <Position>
              <LatitudeDegrees>42.53513314761221408843994140625</LatitudeDegrees>
              <LongitudeDegrees>-0.17318311147391796112060546875</LongitudeDegrees>
            </Position>
            <AltitudeMeters>971.20001220703125</AltitudeMeters>
            <DistanceMeters>5538.350305801</DistanceMeters>
          </Trackpoint>
          <Trackpoint>
            <Time>2019-07-06T17:28:43.000Z</Time>
            <Position>
              <LatitudeDegrees>42.53514052368700504302978515625</LatitudeDegrees>
              <LongitudeDegrees>-0.17316299490630626678466796875</LongitudeDegrees>
            </Position>
            <AltitudeMeters>971.4000244140625</AltitudeMeters>
            <DistanceMeters>5540.1929421577</DistanceMeters>
          </Trackpoint>
          <Trackpoint>
            <Time>2019-07-06T17:28:49.000Z</Time>
            <Position>
              <LatitudeDegrees>42.5351022183895111083984375</LatitudeDegrees>
              <LongitudeDegrees>-0.17312309704720973968505859375</LongitudeDegrees>
            </Position>
            <AltitudeMeters>972.4000244140625</AltitudeMeters>
            <DistanceMeters>5545.5684648877</DistanceMeters>
          </Trackpoint>
          <Trackpoint>
            <Time>2019-07-06T17:28:59.000Z</Time>
            <Position>
              <LatitudeDegrees>42.535106241703033447265625</LatitudeDegrees>
              <LongitudeDegrees>-0.17303676344454288482666015625</LongitudeDegrees>
            </Position>
            <AltitudeMeters>973.5999755859375</AltitudeMeters>
            <DistanceMeters>5552.6630858147</DistanceMeters>
          </Trackpoint>
          <Trackpoint>
            <Time>2019-07-06T17:29:03.000Z</Time>
            <Position>
              <LatitudeDegrees>42.53508537076413631439208984375</LatitudeDegrees>
              <LongitudeDegrees>-0.17303156666457653045654296875</LongitudeDegrees>
            </Position>
            <AltitudeMeters>974.5999755859375</AltitudeMeters>
            <DistanceMeters>5555.0254124734</DistanceMeters>
          </Trackpoint>
          <Trackpoint>
            <Time>2019-07-06T17:29:11.000Z</Time>
            <Position>
              <LatitudeDegrees>42.53502778708934783935546875</LatitudeDegrees>
              <LongitudeDegrees>-0.17303072847425937652587890625</LongitudeDegrees>
            </Position>
            <AltitudeMeters>975.5999755859375</AltitudeMeters>
            <DistanceMeters>5561.4353147987</DistanceMeters>
          </Trackpoint>
          <Trackpoint>
            <Time>2019-07-06T17:29:20.000Z</Time>
            <Position>
              <LatitudeDegrees>42.534974478185176849365234375</LatitudeDegrees>
              <LongitudeDegrees>-0.173022262752056121826171875</LongitudeDegrees>
            </Position>
            <AltitudeMeters>976.5999755859375</AltitudeMeters>
            <DistanceMeters>5567.4091629811</DistanceMeters>
          </Trackpoint>
          <Trackpoint>
            <Time>2019-07-06T17:29:24.000Z</Time>
            <Position>
              <LatitudeDegrees>42.5349659286439418792724609375</LatitudeDegrees>
              <LongitudeDegrees>-0.1730288006365299224853515625</LongitudeDegrees>
            </Position>
            <AltitudeMeters>977.79998779296875</AltitudeMeters>
            <DistanceMeters>5568.5009368087</DistanceMeters>
          </Trackpoint>
          <Trackpoint>
            <Time>2019-07-06T17:29:29.000Z</Time>
            <Position>
              <LatitudeDegrees>42.53494597971439361572265625</LatitudeDegrees>
              <LongitudeDegrees>-0.17300977371633052825927734375</LongitudeDegrees>
            </Position>
            <AltitudeMeters>978.79998779296875</AltitudeMeters>
            <DistanceMeters>5571.2154427266</DistanceMeters>
          </Trackpoint>
          <Trackpoint>
            <Time>2019-07-06T17:29:39.000Z</Time>
            <Position>
              <LatitudeDegrees>42.5348918326199054718017578125</LatitudeDegrees>
              <LongitudeDegrees>-0.17295277677476406097412109375</LongitudeDegrees>
            </Position>
            <AltitudeMeters>979.79998779296875</AltitudeMeters>
            <DistanceMeters>5578.8424835979</DistanceMeters>
          </Trackpoint>
          <Trackpoint>
            <Time>2019-07-06T17:29:50.000Z</Time>
            <Position>
              <LatitudeDegrees>42.53490096889436244964599609375</LatitudeDegrees>
              <LongitudeDegrees>-0.172854959964752197265625</LongitudeDegrees>
            </Position>
            <AltitudeMeters>980.79998779296875</AltitudeMeters>
            <DistanceMeters>5586.9286930641</DistanceMeters>
          </Trackpoint>
          <Trackpoint>
            <Time>2019-07-06T17:30:04.000Z</Time>
            <Position>
              <LatitudeDegrees>42.53486140631139278411865234375</LatitudeDegrees>
              <LongitudeDegrees>-0.17276552505791187286376953125</LongitudeDegrees>
            </Position>
            <AltitudeMeters>982</AltitudeMeters>
            <DistanceMeters>5595.4837365811</DistanceMeters>
          </Trackpoint>
          <Trackpoint>
            <Time>2019-07-06T17:30:07.000Z</Time>
            <Position>
              <LatitudeDegrees>42.5348475761711597442626953125</LatitudeDegrees>
              <LongitudeDegrees>-0.17277625389397144317626953125</LongitudeDegrees>
            </Position>
            <AltitudeMeters>983</AltitudeMeters>
            <DistanceMeters>5597.2564369513</DistanceMeters>
          </Trackpoint>
          <Trackpoint>
            <Time>2019-07-06T17:30:14.000Z</Time>
            <Position>
              <LatitudeDegrees>42.53481698222458362579345703125</LatitudeDegrees>
              <LongitudeDegrees>-0.172774493694305419921875</LongitudeDegrees>
            </Position>
            <AltitudeMeters>984</AltitudeMeters>
            <DistanceMeters>5600.6641749557</DistanceMeters>
          </Trackpoint>
          <Trackpoint>
            <Time>2019-07-06T17:30:15.000Z</Time>
            <Position>
              <LatitudeDegrees>42.5348137132823467254638671875</LatitudeDegrees>
              <LongitudeDegrees>-0.1727649383246898651123046875</LongitudeDegrees>
            </Position>
            <AltitudeMeters>984</AltitudeMeters>
            <DistanceMeters>5601.5299095252</DistanceMeters>
          </Trackpoint>
          <Trackpoint>
            <Time>2019-07-06T17:30:23.000Z</Time>
            <Position>
              <LatitudeDegrees>42.53481430001556873321533203125</LatitudeDegrees>
              <LongitudeDegrees>-0.172710120677947998046875</LongitudeDegrees>
            </Position>
            <AltitudeMeters>985</AltitudeMeters>
            <DistanceMeters>5606.0263905002</DistanceMeters>
          </Trackpoint>
          <Trackpoint>
            <Time>2019-07-06T17:30:28.000Z</Time>
            <Position>
              <LatitudeDegrees>42.53482603468000888824462890625</LatitudeDegrees>
              <LongitudeDegrees>-0.17265823669731616973876953125</LongitudeDegrees>
            </Position>
            <AltitudeMeters>986</AltitudeMeters>
            <DistanceMeters>5610.4774564083</DistanceMeters>
          </Trackpoint>
          <Trackpoint>
            <Time>2019-07-06T17:30:40.000Z</Time>
            <Position>
              <LatitudeDegrees>42.53478295169770717620849609375</LatitudeDegrees>
              <LongitudeDegrees>-0.17257307656109333038330078125</LongitudeDegrees>
            </Position>
            <AltitudeMeters>987.20001220703125</AltitudeMeters>
            <DistanceMeters>5618.9492358894</DistanceMeters>
          </Trackpoint>
          <Trackpoint>
            <Time>2019-07-06T17:30:44.000Z</Time>
            <Position>
              <LatitudeDegrees>42.5347764976322650909423828125</LatitudeDegrees>
              <LongitudeDegrees>-0.1725500263273715972900390625</LongitudeDegrees>
            </Position>
            <AltitudeMeters>987.5999755859375</AltitudeMeters>
            <DistanceMeters>5620.9717651547</DistanceMeters>
          </Trackpoint>
          <Trackpoint>
            <Time>2019-07-06T17:30:47.000Z</Time>
            <Position>
              <LatitudeDegrees>42.53477591089904308319091796875</LatitudeDegrees>
              <LongitudeDegrees>-0.1725332625210285186767578125</LongitudeDegrees>
            </Position>
            <AltitudeMeters>988.20001220703125</AltitudeMeters>
            <DistanceMeters>5622.3455504279</DistanceMeters>
          </Trackpoint>
          <Trackpoint>
            <Time>2019-07-06T17:30:49.000Z</Time>
            <Position>
              <LatitudeDegrees>42.53476987592875957489013671875</LatitudeDegrees>
              <LongitudeDegrees>-0.1725188456475734710693359375</LongitudeDegrees>
            </Position>
            <AltitudeMeters>988.4000244140625</AltitudeMeters>
            <DistanceMeters>5623.7061259204</DistanceMeters>
          </Trackpoint>
          <Trackpoint>
            <Time>2019-07-06T17:30:51.000Z</Time>
            <Position>
              <LatitudeDegrees>42.534760572016239166259765625</LatitudeDegrees>
              <LongitudeDegrees>-0.17251306213438510894775390625</LongitudeDegrees>
            </Position>
            <AltitudeMeters>988.5999755859375</AltitudeMeters>
            <DistanceMeters>5624.8464464929</DistanceMeters>
          </Trackpoint>
          <Trackpoint>
            <Time>2019-07-06T17:30:54.000Z</Time>
            <Position>
              <LatitudeDegrees>42.53474741242825984954833984375</LatitudeDegrees>
              <LongitudeDegrees>-0.17249613068997859954833984375</LongitudeDegrees>
            </Position>
            <AltitudeMeters>989</AltitudeMeters>
            <DistanceMeters>5626.8667421526</DistanceMeters>
          </Trackpoint>
          <Trackpoint>
            <Time>2019-07-06T17:30:56.000Z</Time>
            <Position>
              <LatitudeDegrees>42.53473098389804363250732421875</LatitudeDegrees>
              <LongitudeDegrees>-0.1724806241691112518310546875</LongitudeDegrees>
            </Position>
            <AltitudeMeters>989.20001220703125</AltitudeMeters>
            <DistanceMeters>5629.0932892479</DistanceMeters>
          </Trackpoint>
          <Trackpoint>
            <Time>2019-07-06T17:31:04.000Z</Time>
            <Position>
              <LatitudeDegrees>42.53466275520622730255126953125</LatitudeDegrees>
              <LongitudeDegrees>-0.1724310033023357391357421875</LongitudeDegrees>
            </Position>
            <AltitudeMeters>990.4000244140625</AltitudeMeters>
            <DistanceMeters>5637.7088117724</DistanceMeters>
          </Trackpoint>
          <Trackpoint>
            <Time>2019-07-06T17:31:12.000Z</Time>
            <Position>
              <LatitudeDegrees>42.5346316583454608917236328125</LatitudeDegrees>
              <LongitudeDegrees>-0.172383897006511688232421875</LongitudeDegrees>
            </Position>
            <AltitudeMeters>991.4000244140625</AltitudeMeters>
            <DistanceMeters>5642.8962608375</DistanceMeters>
          </Trackpoint>
          <Trackpoint>
            <Time>2019-07-06T17:31:18.000Z</Time>
            <Position>
              <LatitudeDegrees>42.5346075184643268585205078125</LatitudeDegrees>
              <LongitudeDegrees>-0.17236352898180484771728515625</LongitudeDegrees>
            </Position>
            <AltitudeMeters>992</AltitudeMeters>
            <DistanceMeters>5646.0608073731</DistanceMeters>
          </Trackpoint>
          <Trackpoint>
            <Time>2019-07-06T17:31:21.000Z</Time>
            <Position>
              <LatitudeDegrees>42.5345951132476329803466796875</LatitudeDegrees>
              <LongitudeDegrees>-0.1723619364202022552490234375</LongitudeDegrees>
            </Position>
            <AltitudeMeters>992.4000244140625</AltitudeMeters>
            <DistanceMeters>5647.4476766109</DistanceMeters>
          </Trackpoint>
          <Trackpoint>
            <Time>2019-07-06T17:31:29.000Z</Time>
            <Position>
              <LatitudeDegrees>42.5345508567988872528076171875</LatitudeDegrees>
              <LongitudeDegrees>-0.17232748679816722869873046875</LongitudeDegrees>
            </Position>
            <AltitudeMeters>993.20001220703125</AltitudeMeters>
            <DistanceMeters>5653.1254730941</DistanceMeters>
          </Trackpoint>
          <Trackpoint>
            <Time>2019-07-06T17:31:38.000Z</Time>
            <Position>
              <LatitudeDegrees>42.53454088233411312103271484375</LatitudeDegrees>
              <LongitudeDegrees>-0.17231558449566364288330078125</LongitudeDegrees>
            </Position>
            <AltitudeMeters>993.4000244140625</AltitudeMeters>
            <DistanceMeters>5654.6037418448</DistanceMeters>
          </Trackpoint>
          <Trackpoint>
            <Time>2019-07-06T17:31:53.000Z</Time>
            <Position>
              <LatitudeDegrees>42.5345817022025585174560546875</LatitudeDegrees>
              <LongitudeDegrees>-0.172318853437900543212890625</LongitudeDegrees>
            </Position>
            <AltitudeMeters>993.4000244140625</AltitudeMeters>
            <DistanceMeters>5659.1551147545</DistanceMeters>
          </Trackpoint>
          <Trackpoint>
            <Time>2019-07-06T17:32:04.000Z</Time>
            <Position>
              <LatitudeDegrees>42.53453333862125873565673828125</LatitudeDegrees>
              <LongitudeDegrees>-0.17226814292371273040771484375</LongitudeDegrees>
            </Position>
            <AltitudeMeters>994</AltitudeMeters>
            <DistanceMeters>5665.9573284896</DistanceMeters>
          </Trackpoint>
          <Trackpoint>
            <Time>2019-07-06T17:32:05.000Z</Time>
            <Position>
              <LatitudeDegrees>42.5345310755074024200439453125</LatitudeDegrees>
              <LongitudeDegrees>-0.17226831056177616119384765625</LongitudeDegrees>
            </Position>
            <AltitudeMeters>994</AltitudeMeters>
            <DistanceMeters>5666.2087455438</DistanceMeters>
          </Trackpoint>
          <Trackpoint>
            <Time>2019-07-06T17:32:07.000Z</Time>
            <Position>
              <LatitudeDegrees>42.5345324166119098663330078125</LatitudeDegrees>
              <LongitudeDegrees>-0.17226822674274444580078125</LongitudeDegrees>
            </Position>
            <AltitudeMeters>994</AltitudeMeters>
            <DistanceMeters>5666.3987989725</DistanceMeters>
          </Trackpoint>
          <Trackpoint>
            <Time>2019-07-06T17:32:08.000Z</Time>
            <Position>
              <LatitudeDegrees>42.53453635610640048980712890625</LatitudeDegrees>
              <LongitudeDegrees>-0.17226847819983959197998046875</LongitudeDegrees>
            </Position>
            <AltitudeMeters>994.20001220703125</AltitudeMeters>
            <DistanceMeters>5666.8445137712</DistanceMeters>
          </Trackpoint>
          <Trackpoint>
            <Time>2019-07-06T17:32:15.000Z</Time>
            <Position>
              <LatitudeDegrees>42.53451573662459850311279296875</LatitudeDegrees>
              <LongitudeDegrees>-0.17227686010301113128662109375</LongitudeDegrees>
            </Position>
            <AltitudeMeters>994</AltitudeMeters>
            <DistanceMeters>5669.2409963224</DistanceMeters>
          </Trackpoint>
          <Trackpoint>
            <Time>2019-07-06T17:32:19.000Z</Time>
            <Position>
              <LatitudeDegrees>42.53452043049037456512451171875</LatitudeDegrees>
              <LongitudeDegrees>-0.17226562835276126861572265625</LongitudeDegrees>
            </Position>
            <AltitudeMeters>994</AltitudeMeters>
            <DistanceMeters>5670.29916903</DistanceMeters>
          </Trackpoint>
          <Trackpoint>
            <Time>2019-07-06T17:32:20.000Z</Time>
            <Position>
              <LatitudeDegrees>42.53452755510807037353515625</LatitudeDegrees>
              <LongitudeDegrees>-0.1722600124776363372802734375</LongitudeDegrees>
            </Position>
            <AltitudeMeters>994</AltitudeMeters>
            <DistanceMeters>5671.2106332546</DistanceMeters>
          </Trackpoint>
          <Trackpoint>
            <Time>2019-07-06T17:32:21.000Z</Time>
            <Position>
              <LatitudeDegrees>42.5345320813357830047607421875</LatitudeDegrees>
              <LongitudeDegrees>-0.17225523479282855987548828125</LongitudeDegrees>
            </Position>
            <AltitudeMeters>994</AltitudeMeters>
            <DistanceMeters>5671.8480918337</DistanceMeters>
          </Trackpoint>
          <Trackpoint>
            <Time>2019-07-06T17:32:22.000Z</Time>
            <Position>
              <LatitudeDegrees>42.53453551791608333587646484375</LatitudeDegrees>
              <LongitudeDegrees>-0.17225221730768680572509765625</LongitudeDegrees>
            </Position>
            <AltitudeMeters>994</AltitudeMeters>
            <DistanceMeters>5672.313625758</DistanceMeters>
          </Trackpoint>
          <Trackpoint>
            <Time>2019-07-06T17:32:23.000Z</Time>
            <Position>
              <LatitudeDegrees>42.53453736193478107452392578125</LatitudeDegrees>
              <LongitudeDegrees>-0.1722523011267185211181640625</LongitudeDegrees>
            </Position>
            <AltitudeMeters>994</AltitudeMeters>
            <DistanceMeters>5672.5036791867</DistanceMeters>
          </Trackpoint>
          <Trackpoint>
            <Time>2019-07-06T17:32:24.000Z</Time>
            <Position>
              <LatitudeDegrees>42.5345310755074024200439453125</LatitudeDegrees>
              <LongitudeDegrees>-0.17225624062120914459228515625</LongitudeDegrees>
            </Position>
            <AltitudeMeters>994.20001220703125</AltitudeMeters>
            <DistanceMeters>5673.2756798637</DistanceMeters>
          </Trackpoint>
          <Trackpoint>
            <Time>2019-07-06T17:32:25.000Z</Time>
            <Position>
              <LatitudeDegrees>42.53452621400356292724609375</LatitudeDegrees>
              <LongitudeDegrees>-0.17225892283022403717041015625</LongitudeDegrees>
            </Position>
            <AltitudeMeters>994.20001220703125</AltitudeMeters>
            <DistanceMeters>5673.8614638724</DistanceMeters>
          </Trackpoint>
          <Trackpoint>
            <Time>2019-07-06T17:32:26.000Z</Time>
            <Position>
              <LatitudeDegrees>42.53452143631875514984130859375</LatitudeDegrees>
              <LongitudeDegrees>-0.17226026393473148345947265625</LongitudeDegrees>
            </Position>
            <AltitudeMeters>994.20001220703125</AltitudeMeters>
            <DistanceMeters>5674.3990161454</DistanceMeters>
          </Trackpoint>
          <Trackpoint>
            <Time>2019-07-06T17:32:27.000Z</Time>
            <Position>
              <LatitudeDegrees>42.5345213524997234344482421875</LatitudeDegrees>
              <LongitudeDegrees>-0.17226160503923892974853515625</LongitudeDegrees>
            </Position>
            <AltitudeMeters>994.20001220703125</AltitudeMeters>
            <DistanceMeters>5674.4940428598</DistanceMeters>
          </Trackpoint>
          <Trackpoint>
            <Time>2019-07-06T17:32:28.000Z</Time>
            <Position>
              <LatitudeDegrees>42.53451908938586711883544921875</LatitudeDegrees>
              <LongitudeDegrees>-0.1722653768956661224365234375</LongitudeDegrees>
            </Position>
            <AltitudeMeters>994.20001220703125</AltitudeMeters>
            <DistanceMeters>5674.9082547047</DistanceMeters>
          </Trackpoint>
          <Trackpoint>
            <Time>2019-07-06T17:32:29.000Z</Time>
            <Position>
              <LatitudeDegrees>42.5345240347087383270263671875</LatitudeDegrees>
              <LongitudeDegrees>-0.17226445488631725311279296875</LongitudeDegrees>
            </Position>
            <AltitudeMeters>994</AltitudeMeters>
            <DistanceMeters>5675.4784149909</DistanceMeters>
          </Trackpoint>
          <Trackpoint>
            <Time>2019-07-06T17:32:49.000Z</Time>
            <Position>
              <LatitudeDegrees>42.53453719429671764373779296875</LatitudeDegrees>
              <LongitudeDegrees>-0.1722844876348972320556640625</LongitudeDegrees>
            </Position>
            <AltitudeMeters>993.79998779296875</AltitudeMeters>
            <DistanceMeters>5677.6804937929</DistanceMeters>
          </Trackpoint>
          <Trackpoint>
            <Time>2019-07-06T17:32:50.000Z</Time>
            <Position>
              <LatitudeDegrees>42.534532248973846435546875</LatitudeDegrees>
              <LongitudeDegrees>-0.1722871698439121246337890625</LongitudeDegrees>
            </Position>
            <AltitudeMeters>993.79998779296875</AltitudeMeters>
            <DistanceMeters>5678.2662778016</DistanceMeters>
          </Trackpoint>
          <Trackpoint>
            <Time>2019-07-06T17:32:51.000Z</Time>
            <Position>
              <LatitudeDegrees>42.53452621400356292724609375</LatitudeDegrees>
              <LongitudeDegrees>-0.1722864992916584014892578125</LongitudeDegrees>
            </Position>
            <AltitudeMeters>993.5999755859375</AltitudeMeters>
            <DistanceMeters>5678.9382181429</DistanceMeters>
          </Trackpoint>
          <Trackpoint>
            <Time>2019-07-06T17:32:54.000Z</Time>
            <Position>
              <LatitudeDegrees>42.5345099531114101409912109375</LatitudeDegrees>
              <LongitudeDegrees>-0.17228138633072376251220703125</LongitudeDegrees>
            </Position>
            <AltitudeMeters>993.79998779296875</AltitudeMeters>
            <DistanceMeters>5680.7954981976</DistanceMeters>
          </Trackpoint>
          <Trackpoint>
            <Time>2019-07-06T17:32:57.000Z</Time>
            <Position>
              <LatitudeDegrees>42.5344911776483058929443359375</LatitudeDegrees>
              <LongitudeDegrees>-0.17226395197212696075439453125</LongitudeDegrees>
            </Position>
            <AltitudeMeters>994.5999755859375</AltitudeMeters>
            <DistanceMeters>5683.3257796441</DistanceMeters>
          </Trackpoint>
          <Trackpoint>
            <Time>2019-07-06T17:32:59.000Z</Time>
            <Position>
              <LatitudeDegrees>42.5344799458980560302734375</LatitudeDegrees>
              <LongitudeDegrees>-0.172251127660274505615234375</LongitudeDegrees>
            </Position>
            <AltitudeMeters>995</AltitudeMeters>
            <DistanceMeters>5684.9606810563</DistanceMeters>
          </Trackpoint>
          <Trackpoint>
            <Time>2019-07-06T17:33:02.000Z</Time>
            <Position>
              <LatitudeDegrees>42.534462846815586090087890625</LatitudeDegrees>
              <LongitudeDegrees>-0.17222665250301361083984375</LongitudeDegrees>
            </Position>
            <AltitudeMeters>995.79998779296875</AltitudeMeters>
            <DistanceMeters>5687.7279007484</DistanceMeters>
          </Trackpoint>
          <Trackpoint>
            <Time>2019-07-06T17:33:04.000Z</Time>
            <Position>
              <LatitudeDegrees>42.53445236943662166595458984375</LatitudeDegrees>
              <LongitudeDegrees>-0.1722124032676219940185546875</LongitudeDegrees>
            </Position>
            <AltitudeMeters>996</AltitudeMeters>
            <DistanceMeters>5689.3792889784</DistanceMeters>
          </Trackpoint>
          <Trackpoint>
            <Time>2019-07-06T17:33:07.000Z</Time>
            <Position>
              <LatitudeDegrees>42.53444113768637180328369140625</LatitudeDegrees>
              <LongitudeDegrees>-0.1721986569464206695556640625</LongitudeDegrees>
            </Position>
            <AltitudeMeters>996.20001220703125</AltitudeMeters>
            <DistanceMeters>5691.0631666471</DistanceMeters>
          </Trackpoint>
          <Trackpoint>
            <Time>2019-07-06T17:33:12.000Z</Time>
            <Position>
              <LatitudeDegrees>42.5344294868409633636474609375</LatitudeDegrees>
              <LongitudeDegrees>-0.172157250344753265380859375</LongitudeDegrees>
            </Position>
            <AltitudeMeters>996.79998779296875</AltitudeMeters>
            <DistanceMeters>5694.6991028284</DistanceMeters>
          </Trackpoint>
          <Trackpoint>
            <Time>2019-07-06T17:33:16.000Z</Time>
            <Position>
              <LatitudeDegrees>42.534431330859661102294921875</LatitudeDegrees>
              <LongitudeDegrees>-0.17213302664458751678466796875</LongitudeDegrees>
            </Position>
            <AltitudeMeters>997.20001220703125</AltitudeMeters>
            <DistanceMeters>5696.6969250898</DistanceMeters>
          </Trackpoint>
          <Trackpoint>
            <Time>2019-07-06T17:33:23.000Z</Time>
            <Position>
              <LatitudeDegrees>42.5344190932810306549072265625</LatitudeDegrees>
              <LongitudeDegrees>-0.17213151790201663970947265625</LongitudeDegrees>
            </Position>
            <AltitudeMeters>997.20001220703125</AltitudeMeters>
            <DistanceMeters>5698.0641214268</DistanceMeters>
          </Trackpoint>
          <Trackpoint>
            <Time>2019-07-06T17:33:27.000Z</Time>
            <Position>
              <LatitudeDegrees>42.5344261340796947479248046875</LatitudeDegrees>
              <LongitudeDegrees>-0.1721446774899959564208984375</LongitudeDegrees>
            </Position>
            <AltitudeMeters>997.20001220703125</AltitudeMeters>
            <DistanceMeters>5699.4012658229</DistanceMeters>
          </Trackpoint>
          <Trackpoint>
            <Time>2019-07-06T17:33:30.000Z</Time>
            <Position>
              <LatitudeDegrees>42.5344177521765232086181640625</LatitudeDegrees>
              <LongitudeDegrees>-0.17213805578649044036865234375</LongitudeDegrees>
            </Position>
            <AltitudeMeters>997.20001220703125</AltitudeMeters>
            <DistanceMeters>5700.4847370674</DistanceMeters>
          </Trackpoint>
          <Trackpoint>
            <Time>2019-07-06T17:33:33.000Z</Time>
            <Position>
              <LatitudeDegrees>42.53440794534981250762939453125</LatitudeDegrees>
              <LongitudeDegrees>-0.17214861698448657989501953125</LongitudeDegrees>
            </Position>
            <AltitudeMeters>997</AltitudeMeters>
            <DistanceMeters>5701.8748580546</DistanceMeters>
          </Trackpoint>
          <Trackpoint>
            <Time>2019-07-06T17:33:36.000Z</Time>
            <Position>
              <LatitudeDegrees>42.53439922817051410675048828125</LatitudeDegrees>
              <LongitudeDegrees>-0.1721584238111972808837890625</LongitudeDegrees>
            </Position>
            <AltitudeMeters>996.79998779296875</AltitudeMeters>
            <DistanceMeters>5703.1355298811</DistanceMeters>
          </Trackpoint>
          <Trackpoint>
            <Time>2019-07-06T17:33:37.000Z</Time>
            <Position>
              <LatitudeDegrees>42.53439084626734256744384765625</LatitudeDegrees>
              <LongitudeDegrees>-0.17217091284692287445068359375</LongitudeDegrees>
            </Position>
            <AltitudeMeters>996.79998779296875</AltitudeMeters>
            <DistanceMeters>5704.5191397271</DistanceMeters>
          </Trackpoint>
          <Trackpoint>
            <Time>2019-07-06T17:33:40.000Z</Time>
            <Position>
              <LatitudeDegrees>42.5343738310039043426513671875</LatitudeDegrees>
              <LongitudeDegrees>-0.17219957895576953887939453125</LongitudeDegrees>
            </Position>
            <AltitudeMeters>996.5999755859375</AltitudeMeters>
            <DistanceMeters>5707.5376405358</DistanceMeters>
          </Trackpoint>
          <Trackpoint>
            <Time>2019-07-06T17:33:47.000Z</Time>
            <Position>
              <LatitudeDegrees>42.53434541635215282440185546875</LatitudeDegrees>
              <LongitudeDegrees>-0.17222489230334758758544921875</LongitudeDegrees>
            </Position>
            <AltitudeMeters>996.79998779296875</AltitudeMeters>
            <DistanceMeters>5711.320849645</DistanceMeters>
          </Trackpoint>
          <Trackpoint>
            <Time>2019-07-06T17:33:48.000Z</Time>
            <Position>
              <LatitudeDegrees>42.53433753736317157745361328125</LatitudeDegrees>
              <LongitudeDegrees>-0.172223635017871856689453125</LongitudeDegrees>
            </Position>
            <AltitudeMeters>997</AltitudeMeters>
            <DistanceMeters>5712.2020911409</DistanceMeters>
          </Trackpoint>
          <Trackpoint>
            <Time>2019-07-06T17:33:54.000Z</Time>
            <Position>
              <LatitudeDegrees>42.53431071527302265167236328125</LatitudeDegrees>
              <LongitudeDegrees>-0.1721859164535999298095703125</LongitudeDegrees>
            </Position>
            <AltitudeMeters>997.79998779296875</AltitudeMeters>
            <DistanceMeters>5716.5014592899</DistanceMeters>
          </Trackpoint>
          <Trackpoint>
            <Time>2019-07-06T17:34:00.000Z</Time>
            <Position>
              <LatitudeDegrees>42.53427953459322452545166015625</LatitudeDegrees>
              <LongitudeDegrees>-0.17212699167430400848388671875</LongitudeDegrees>
            </Position>
            <AltitudeMeters>999.20001220703125</AltitudeMeters>
            <DistanceMeters>5722.4510726942</DistanceMeters>
          </Trackpoint>
          <Trackpoint>
            <Time>2019-07-06T17:34:04.000Z</Time>
            <Position>
              <LatitudeDegrees>42.53427081741392612457275390625</LatitudeDegrees>
              <LongitudeDegrees>-0.17207636497914791107177734375</LongitudeDegrees>
            </Position>
            <AltitudeMeters>1000</AltitudeMeters>
            <DistanceMeters>5726.715644649</DistanceMeters>
          </Trackpoint>
          <Trackpoint>
            <Time>2019-07-06T17:34:06.000Z</Time>
            <Position>
              <LatitudeDegrees>42.53427115269005298614501953125</LatitudeDegrees>
              <LongitudeDegrees>-0.17205826006829738616943359375</LongitudeDegrees>
            </Position>
            <AltitudeMeters>1000.20001220703125</AltitudeMeters>
            <DistanceMeters>5728.2000093793</DistanceMeters>
          </Trackpoint>
          <Trackpoint>
            <Time>2019-07-06T17:34:08.000Z</Time>
            <Position>
              <LatitudeDegrees>42.5342688895761966705322265625</LatitudeDegrees>
              <LongitudeDegrees>-0.1720427535474300384521484375</LongitudeDegrees>
            </Position>
            <AltitudeMeters>1000.4000244140625</AltitudeMeters>
            <DistanceMeters>5729.4960009759</DistanceMeters>
          </Trackpoint>
          <Trackpoint>
            <Time>2019-07-06T17:34:10.000Z</Time>
            <Position>
              <LatitudeDegrees>42.534257657825946807861328125</LatitudeDegrees>
              <LongitudeDegrees>-0.17203210853040218353271484375</LongitudeDegrees>
            </Position>
            <AltitudeMeters>1000.4000244140625</AltitudeMeters>
            <DistanceMeters>5731.0223560206</DistanceMeters>
          </Trackpoint>
          <Trackpoint>
            <Time>2019-07-06T17:34:17.000Z</Time>
            <Position>
              <LatitudeDegrees>42.53419973887503147125244140625</LatitudeDegrees>
              <LongitudeDegrees>-0.1719891093671321868896484375</LongitudeDegrees>
            </Position>
            <AltitudeMeters>1000.5999755859375</AltitudeMeters>
            <DistanceMeters>5738.3702010829</DistanceMeters>
          </Trackpoint>
          <Trackpoint>
            <Time>2019-07-06T17:34:19.000Z</Time>
            <Position>
              <LatitudeDegrees>42.53419504500925540924072265625</LatitudeDegrees>
              <LongitudeDegrees>-0.171967484056949615478515625</LongitudeDegrees>
            </Position>
            <AltitudeMeters>1000.5999755859375</AltitudeMeters>
            <DistanceMeters>5740.2226127673</DistanceMeters>
          </Trackpoint>
          <Trackpoint>
            <Time>2019-07-06T17:34:22.000Z</Time>
            <Position>
              <LatitudeDegrees>42.5341860763728618621826171875</LatitudeDegrees>
              <LongitudeDegrees>-0.1719331182539463043212890625</LongitudeDegrees>
            </Position>
            <AltitudeMeters>1000.79998779296875</AltitudeMeters>
            <DistanceMeters>5743.2140682251</DistanceMeters>
          </Trackpoint>
          <Trackpoint>
            <Time>2019-07-06T17:34:24.000Z</Time>
            <Position>
              <LatitudeDegrees>42.53417023457586765289306640625</LatitudeDegrees>
              <LongitudeDegrees>-0.17191878519952297210693359375</LongitudeDegrees>
            </Position>
            <AltitudeMeters>1001.4000244140625</AltitudeMeters>
            <DistanceMeters>5745.3346761731</DistanceMeters>
          </Trackpoint>
          <Trackpoint>
            <Time>2019-07-06T17:34:28.000Z</Time>
            <Position>
              <LatitudeDegrees>42.53414223901927471160888671875</LatitudeDegrees>
              <LongitudeDegrees>-0.1718942262232303619384765625</LongitudeDegrees>
            </Position>
            <AltitudeMeters>1002.4000244140625</AltitudeMeters>
            <DistanceMeters>5749.0443711067</DistanceMeters>
          </Trackpoint>
          <Trackpoint>
            <Time>2019-07-06T17:34:30.000Z</Time>
            <Position>
              <LatitudeDegrees>42.5341294147074222564697265625</LatitudeDegrees>
              <LongitudeDegrees>-0.17188576050102710723876953125</LongitudeDegrees>
            </Position>
            <AltitudeMeters>1002.5999755859375</AltitudeMeters>
            <DistanceMeters>5750.6316301681</DistanceMeters>
          </Trackpoint>
          <Trackpoint>
            <Time>2019-07-06T17:34:32.000Z</Time>
            <Position>
              <LatitudeDegrees>42.53411927260458469390869140625</LatitudeDegrees>
              <LongitudeDegrees>-0.17187670804560184478759765625</LongitudeDegrees>
            </Position>
            <AltitudeMeters>1002.79998779296875</AltitudeMeters>
            <DistanceMeters>5751.982213539</DistanceMeters>
          </Trackpoint>
          <Trackpoint>
            <Time>2019-07-06T17:34:33.000Z</Time>
            <Position>
              <LatitudeDegrees>42.5341176800429821014404296875</LatitudeDegrees>
              <LongitudeDegrees>-0.17185608856379985809326171875</LongitudeDegrees>
            </Position>
            <AltitudeMeters>1002.79998779296875</AltitudeMeters>
            <DistanceMeters>5753.6874069635</DistanceMeters>
          </Trackpoint>
          <Trackpoint>
            <Time>2019-07-06T17:34:36.000Z</Time>
            <Position>
              <LatitudeDegrees>42.53412111662328243255615234375</LatitudeDegrees>
              <LongitudeDegrees>-0.17182155512273311614990234375</LongitudeDegrees>
            </Position>
            <AltitudeMeters>1003.20001220703125</AltitudeMeters>
            <DistanceMeters>5756.5461163194</DistanceMeters>
          </Trackpoint>
          <Trackpoint>
            <Time>2019-07-06T17:34:39.000Z</Time>
            <Position>
              <LatitudeDegrees>42.5341300852596759796142578125</LatitudeDegrees>
              <LongitudeDegrees>-0.1717887818813323974609375</LongitudeDegrees>
            </Position>
            <AltitudeMeters>1003.4000244140625</AltitudeMeters>
            <DistanceMeters>5759.4127117851</DistanceMeters>
          </Trackpoint>
          <Trackpoint>
            <Time>2019-07-06T17:34:41.000Z</Time>
            <Position>
              <LatitudeDegrees>42.53413536585867404937744140625</LatitudeDegrees>
              <LongitudeDegrees>-0.1717621274292469024658203125</LongitudeDegrees>
            </Position>
            <AltitudeMeters>1003.4000244140625</AltitudeMeters>
            <DistanceMeters>5761.6774597667</DistanceMeters>
          </Trackpoint>
          <Trackpoint>
            <Time>2019-07-06T17:34:49.000Z</Time>
            <Position>
              <LatitudeDegrees>42.5341602601110935211181640625</LatitudeDegrees>
              <LongitudeDegrees>-0.17173388041555881500244140625</LongitudeDegrees>
            </Position>
            <AltitudeMeters>1003.5999755859375</AltitudeMeters>
            <DistanceMeters>5765.2897250479</DistanceMeters>
          </Trackpoint>
          <Trackpoint>
            <Time>2019-07-06T17:35:01.000Z</Time>
            <Position>
              <LatitudeDegrees>42.5342680513858795166015625</LatitudeDegrees>
              <LongitudeDegrees>-0.171729438006877899169921875</LongitudeDegrees>
            </Position>
            <AltitudeMeters>1004.4000244140625</AltitudeMeters>
            <DistanceMeters>5777.2924680505</DistanceMeters>
          </Trackpoint>
          <Trackpoint>
            <Time>2019-07-06T17:35:11.000Z</Time>
            <Position>
              <LatitudeDegrees>42.5343289040029048919677734375</LatitudeDegrees>
              <LongitudeDegrees>-0.171670429408550262451171875</LongitudeDegrees>
            </Position>
            <AltitudeMeters>1004.5999755859375</AltitudeMeters>
            <DistanceMeters>5785.6169384019</DistanceMeters>
          </Trackpoint>
          <Trackpoint>
            <Time>2019-07-06T17:35:15.000Z</Time>
            <Position>
              <LatitudeDegrees>42.53433384932577610015869140625</LatitudeDegrees>
              <LongitudeDegrees>-0.1716591976583003997802734375</LongitudeDegrees>
            </Position>
            <AltitudeMeters>1005</AltitudeMeters>
            <DistanceMeters>5786.6836106252</DistanceMeters>
          </Trackpoint>
          <Trackpoint>
            <Time>2019-07-06T17:35:19.000Z</Time>
            <Position>
              <LatitudeDegrees>42.53434038721024990081787109375</LatitudeDegrees>
              <LongitudeDegrees>-0.171657018363475799560546875</LongitudeDegrees>
            </Position>
            <AltitudeMeters>1005</AltitudeMeters>
            <DistanceMeters>5787.4318517223</DistanceMeters>
          </Trackpoint>
          <Trackpoint>
            <Time>2019-07-06T17:35:29.000Z</Time>
            <Position>
              <LatitudeDegrees>42.53435857594013214111328125</LatitudeDegrees>
              <LongitudeDegrees>-0.17164452932775020599365234375</LongitudeDegrees>
            </Position>
            <AltitudeMeters>1005</AltitudeMeters>
            <DistanceMeters>5789.7005834326</DistanceMeters>
          </Trackpoint>
          <Trackpoint>
            <Time>2019-07-06T17:35:48.000Z</Time>
            <Position>
              <LatitudeDegrees>42.53434105776250362396240234375</LatitudeDegrees>
              <LongitudeDegrees>-0.17157093621790409088134765625</LongitudeDegrees>
            </Position>
            <AltitudeMeters>1004.79998779296875</AltitudeMeters>
            <DistanceMeters>5796.0439280263</DistanceMeters>
          </Trackpoint>
          <Trackpoint>
            <Time>2019-07-06T17:36:05.000Z</Time>
            <Position>
              <LatitudeDegrees>42.53434608690440654754638671875</LatitudeDegrees>
              <LongitudeDegrees>-0.17156456597149372100830078125</LongitudeDegrees>
            </Position>
            <AltitudeMeters>1004.4000244140625</AltitudeMeters>
            <DistanceMeters>5796.8041417412</DistanceMeters>
          </Trackpoint>
          <Trackpoint>
            <Time>2019-07-06T17:36:25.000Z</Time>
            <Position>
              <LatitudeDegrees>42.5343503616750240325927734375</LatitudeDegrees>
              <LongitudeDegrees>-0.17159507609903812408447265625</LongitudeDegrees>
            </Position>
            <AltitudeMeters>1004.5999755859375</AltitudeMeters>
            <DistanceMeters>5799.350432158</DistanceMeters>
          </Trackpoint>
          <Trackpoint>
            <Time>2019-07-06T17:37:31.000Z</Time>
            <Position>
              <LatitudeDegrees>42.53432504832744598388671875</LatitudeDegrees>
              <LongitudeDegrees>-0.17158317379653453826904296875</LongitudeDegrees>
            </Position>
            <AltitudeMeters>1004.5999755859375</AltitudeMeters>
            <DistanceMeters>5802.3313037119</DistanceMeters>
          </Trackpoint>
          <Trackpoint>
            <Time>2019-07-06T17:37:52.000Z</Time>
            <Position>
              <LatitudeDegrees>42.53428825177252292633056640625</LatitudeDegrees>
              <LongitudeDegrees>-0.17160178162157535552978515625</LongitudeDegrees>
            </Position>
            <AltitudeMeters>1004.5999755859375</AltitudeMeters>
            <DistanceMeters>5806.702532573</DistanceMeters>
          </Trackpoint>
          <Trackpoint>
            <Time>2019-07-06T17:37:55.000Z</Time>
            <Position>
              <LatitudeDegrees>42.5342554785311222076416015625</LatitudeDegrees>
              <LongitudeDegrees>-0.1716394163668155670166015625</LongitudeDegrees>
            </Position>
            <AltitudeMeters>1004.5999755859375</AltitudeMeters>
            <DistanceMeters>5811.4813465814</DistanceMeters>
          </Trackpoint>
          <Trackpoint>
            <Time>2019-07-06T17:37:58.000Z</Time>
            <Position>
              <LatitudeDegrees>42.53424919210374355316162109375</LatitudeDegrees>
              <LongitudeDegrees>-0.17167839221656322479248046875</LongitudeDegrees>
            </Position>
            <AltitudeMeters>1004</AltitudeMeters>
            <DistanceMeters>5814.7539098982</DistanceMeters>
          </Trackpoint>
          <Trackpoint>
            <Time>2019-07-06T17:38:02.000Z</Time>
            <Position>
              <LatitudeDegrees>42.534242235124111175537109375</LatitudeDegrees>
              <LongitudeDegrees>-0.17170286737382411956787109375</LongitudeDegrees>
            </Position>
            <AltitudeMeters>1004</AltitudeMeters>
            <DistanceMeters>5816.9062177794</DistanceMeters>
          </Trackpoint>
          <Trackpoint>
            <Time>2019-07-06T17:38:04.000Z</Time>
            <Position>
              <LatitudeDegrees>42.53424114547669887542724609375</LatitudeDegrees>
              <LongitudeDegrees>-0.171705968677997589111328125</LongitudeDegrees>
            </Position>
            <AltitudeMeters>1004</AltitudeMeters>
            <DistanceMeters>5817.1749939159</DistanceMeters>
          </Trackpoint>
          <Trackpoint>
            <Time>2019-07-06T17:38:08.000Z</Time>
            <Position>
              <LatitudeDegrees>42.53424114547669887542724609375</LatitudeDegrees>
              <LongitudeDegrees>-0.1716967485845088958740234375</LongitudeDegrees>
            </Position>
            <AltitudeMeters>1003.79998779296875</AltitudeMeters>
            <DistanceMeters>5817.9352076309</DistanceMeters>
          </Trackpoint>
          <Trackpoint>
            <Time>2019-07-06T17:38:10.000Z</Time>
            <Position>
              <LatitudeDegrees>42.53424215130507946014404296875</LatitudeDegrees>
              <LongitudeDegrees>-0.17169096507132053375244140625</LongitudeDegrees>
            </Position>
            <AltitudeMeters>1003.4000244140625</AltitudeMeters>
            <DistanceMeters>5818.428980923</DistanceMeters>
          </Trackpoint>
          <Trackpoint>
            <Time>2019-07-06T17:38:13.000Z</Time>
            <Position>
              <LatitudeDegrees>42.53423846326768398284912109375</LatitudeDegrees>
              <LongitudeDegrees>-0.17170429229736328125</LongitudeDegrees>
            </Position>
            <AltitudeMeters>1003.20001220703125</AltitudeMeters>
            <DistanceMeters>5819.5966887388</DistanceMeters>
          </Trackpoint>
          <Trackpoint>
            <Time>2019-07-06T17:38:44.000Z</Time>
            <Position>
              <LatitudeDegrees>42.5343084521591663360595703125</LatitudeDegrees>
              <LongitudeDegrees>-0.1717443577945232391357421875</LongitudeDegrees>
            </Position>
            <AltitudeMeters>1003.5999755859375</AltitudeMeters>
            <DistanceMeters>5828.0513966066</DistanceMeters>
          </Trackpoint>
          <Trackpoint>
            <Time>2019-07-06T17:38:51.000Z</Time>
            <Position>
              <LatitudeDegrees>42.53433317877352237701416015625</LatitudeDegrees>
              <LongitudeDegrees>-0.171703286468982696533203125</LongitudeDegrees>
            </Position>
            <AltitudeMeters>1004.20001220703125</AltitudeMeters>
            <DistanceMeters>5832.4008805013</DistanceMeters>
          </Trackpoint>
          <Trackpoint>
            <Time>2019-07-06T17:38:55.000Z</Time>
            <Position>
              <LatitudeDegrees>42.53433904610574245452880859375</LatitudeDegrees>
              <LongitudeDegrees>-0.17168157733976840972900390625</LongitudeDegrees>
            </Position>
            <AltitudeMeters>1004.5999755859375</AltitudeMeters>
            <DistanceMeters>5834.2990376342</DistanceMeters>
          </Trackpoint>
          <Trackpoint>
            <Time>2019-07-06T17:38:59.000Z</Time>
            <Position>
              <LatitudeDegrees>42.534346841275691986083984375</LatitudeDegrees>
              <LongitudeDegrees>-0.171652995049953460693359375</LongitudeDegrees>
            </Position>
            <AltitudeMeters>1004.79998779296875</AltitudeMeters>
            <DistanceMeters>5836.7988002027</DistanceMeters>
          </Trackpoint>
          <Trackpoint>
            <Time>2019-07-06T17:39:00.000Z</Time>
            <Position>
              <LatitudeDegrees>42.5343530438840389251708984375</LatitudeDegrees>
              <LongitudeDegrees>-0.1716270111501216888427734375</LongitudeDegrees>
            </Position>
            <AltitudeMeters>1004.5999755859375</AltitudeMeters>
            <DistanceMeters>5839.0394970816</DistanceMeters>
          </Trackpoint>
          <Trackpoint>
            <Time>2019-07-06T17:39:05.000Z</Time>
            <Position>
              <LatitudeDegrees>42.53439738415181636810302734375</LatitudeDegrees>
              <LongitudeDegrees>-0.17159901559352874755859375</LongitudeDegrees>
            </Position>
            <AltitudeMeters>1005.4000244140625</AltitudeMeters>
            <DistanceMeters>5844.4834580374</DistanceMeters>
          </Trackpoint>
          <Trackpoint>
            <Time>2019-07-06T17:39:06.000Z</Time>
            <Position>
              <LatitudeDegrees>42.53440241329371929168701171875</LatitudeDegrees>
              <LongitudeDegrees>-0.17159926705062389373779296875</LongitudeDegrees>
            </Position>
            <AltitudeMeters>1005.5999755859375</AltitudeMeters>
            <DistanceMeters>5845.0536183237</DistanceMeters>
          </Trackpoint>
          <Trackpoint>
            <Time>2019-07-06T17:39:07.000Z</Time>
            <Position>
              <LatitudeDegrees>42.534406185150146484375</LatitudeDegrees>
              <LongitudeDegrees>-0.17158652655780315399169921875</LongitudeDegrees>
            </Position>
            <AltitudeMeters>1005.5999755859375</AltitudeMeters>
            <DistanceMeters>5846.1859923145</DistanceMeters>
          </Trackpoint>
          <Trackpoint>
            <Time>2019-07-06T17:39:09.000Z</Time>
            <Position>
              <LatitudeDegrees>42.53440945409238338470458984375</LatitudeDegrees>
              <LongitudeDegrees>-0.1715592853724956512451171875</LongitudeDegrees>
            </Position>
            <AltitudeMeters>1005.5999755859375</AltitudeMeters>
            <DistanceMeters>5848.4507402961</DistanceMeters>
          </Trackpoint>
          <Trackpoint>
            <Time>2019-07-06T17:39:10.000Z</Time>
            <Position>
              <LatitudeDegrees>42.534411214292049407958984375</LatitudeDegrees>
              <LongitudeDegrees>-0.171551071107387542724609375</LongitudeDegrees>
            </Position>
            <AltitudeMeters>1005.5999755859375</AltitudeMeters>
            <DistanceMeters>5849.1490411825</DistanceMeters>
          </Trackpoint>
          <Trackpoint>
            <Time>2019-07-06T17:39:11.000Z</Time>
            <Position>
              <LatitudeDegrees>42.534408867359161376953125</LatitudeDegrees>
              <LongitudeDegrees>-0.1715395040810108184814453125</LongitudeDegrees>
            </Position>
            <AltitudeMeters>1005.5999755859375</AltitudeMeters>
            <DistanceMeters>5850.1365877667</DistanceMeters>
          </Trackpoint>
          <Trackpoint>
            <Time>2019-07-06T17:39:12.000Z</Time>
            <Position>
              <LatitudeDegrees>42.53440895117819309234619140625</LatitudeDegrees>
              <LongitudeDegrees>-0.17153489403426647186279296875</LongitudeDegrees>
            </Position>
            <AltitudeMeters>1005.5999755859375</AltitudeMeters>
            <DistanceMeters>5850.5166946242</DistanceMeters>
          </Trackpoint>
          <Trackpoint>
            <Time>2019-07-06T17:39:13.000Z</Time>
            <Position>
              <LatitudeDegrees>42.53441431559622287750244140625</LatitudeDegrees>
              <LongitudeDegrees>-0.17152525484561920166015625</LongitudeDegrees>
            </Position>
            <AltitudeMeters>1005.5999755859375</AltitudeMeters>
            <DistanceMeters>5851.5088026487</DistanceMeters>
          </Trackpoint>
          <Trackpoint>
            <Time>2019-07-06T17:39:14.000Z</Time>
            <Position>
              <LatitudeDegrees>42.53441984765231609344482421875</LatitudeDegrees>
              <LongitudeDegrees>-0.1715200580656528472900390625</LongitudeDegrees>
            </Position>
            <AltitudeMeters>1005.4000244140625</AltitudeMeters>
            <DistanceMeters>5852.2630538111</DistanceMeters>
          </Trackpoint>
          <Trackpoint>
            <Time>2019-07-06T17:39:15.000Z</Time>
            <Position>
              <LatitudeDegrees>42.534424625337123870849609375</LatitudeDegrees>
              <LongitudeDegrees>-0.1715116761624813079833984375</LongitudeDegrees>
            </Position>
            <AltitudeMeters>1005.4000244140625</AltitudeMeters>
            <DistanceMeters>5853.1339880344</DistanceMeters>
          </Trackpoint>
          <Trackpoint>
            <Time>2019-07-06T17:39:17.000Z</Time>
            <Position>
              <LatitudeDegrees>42.5344358570873737335205078125</LatitudeDegrees>
              <LongitudeDegrees>-0.1714937388896942138671875</LongitudeDegrees>
            </Position>
            <AltitudeMeters>1005.4000244140625</AltitudeMeters>
            <DistanceMeters>5855.0628196742</DistanceMeters>
          </Trackpoint>
          <Trackpoint>
            <Time>2019-07-06T17:39:18.000Z</Time>
            <Position>
              <LatitudeDegrees>42.5344442389905452728271484375</LatitudeDegrees>
              <LongitudeDegrees>-0.17148510552942752838134765625</LongitudeDegrees>
            </Position>
            <AltitudeMeters>1005.4000244140625</AltitudeMeters>
            <DistanceMeters>5856.23052749</DistanceMeters>
          </Trackpoint>
          <Trackpoint>
            <Time>2019-07-06T17:39:22.000Z</Time>
            <Position>
              <LatitudeDegrees>42.53445337526500225067138671875</LatitudeDegrees>
              <LongitudeDegrees>-0.171472616493701934814453125</LongitudeDegrees>
            </Position>
            <AltitudeMeters>1005.4000244140625</AltitudeMeters>
            <DistanceMeters>5857.6716789679</DistanceMeters>
          </Trackpoint>
          <Trackpoint>
            <Time>2019-07-06T17:39:23.000Z</Time>
            <Position>
              <LatitudeDegrees>42.53445354290306568145751953125</LatitudeDegrees>
              <LongitudeDegrees>-0.17147353850305080413818359375</LongitudeDegrees>
            </Position>
            <AltitudeMeters>1005.4000244140625</AltitudeMeters>
            <DistanceMeters>5857.8060670361</DistanceMeters>
          </Trackpoint>
          <Trackpoint>
            <Time>2019-07-06T17:39:24.000Z</Time>
            <Position>
              <LatitudeDegrees>42.53445245325565338134765625</LatitudeDegrees>
              <LongitudeDegrees>-0.1714764721691608428955078125</LongitudeDegrees>
            </Position>
            <AltitudeMeters>1005.4000244140625</AltitudeMeters>
            <DistanceMeters>5858.0911471792</DistanceMeters>
          </Trackpoint>
          <Trackpoint>
            <Time>2019-07-06T17:39:26.000Z</Time>
            <Position>
              <LatitudeDegrees>42.53445438109338283538818359375</LatitudeDegrees>
              <LongitudeDegrees>-0.17148946411907672882080078125</LongitudeDegrees>
            </Position>
            <AltitudeMeters>1005.4000244140625</AltitudeMeters>
            <DistanceMeters>5859.1829210068</DistanceMeters>
          </Trackpoint>
          <Trackpoint>
            <Time>2019-07-06T17:39:27.000Z</Time>
            <Position>
              <LatitudeDegrees>42.534457147121429443359375</LatitudeDegrees>
              <LongitudeDegrees>-0.1714949123561382293701171875</LongitudeDegrees>
            </Position>
            <AltitudeMeters>1005.4000244140625</AltitudeMeters>
            <DistanceMeters>5859.7204732798</DistanceMeters>
          </Trackpoint>
          <Trackpoint>
            <Time>2019-07-06T17:39:29.000Z</Time>
            <Position>
              <LatitudeDegrees>42.5344673730432987213134765625</LatitudeDegrees>
              <LongitudeDegrees>-0.17150354571640491485595703125</LongitudeDegrees>
            </Position>
            <AltitudeMeters>1005.4000244140625</AltitudeMeters>
            <DistanceMeters>5861.0609900505</DistanceMeters>
          </Trackpoint>
          <Trackpoint>
            <Time>2019-07-06T17:39:41.000Z</Time>
            <Position>
              <LatitudeDegrees>42.5345216877758502960205078125</LatitudeDegrees>
              <LongitudeDegrees>-0.17141603864729404449462890625</LongitudeDegrees>
            </Position>
            <AltitudeMeters>1005</AltitudeMeters>
            <DistanceMeters>5870.4446074449</DistanceMeters>
          </Trackpoint>
          <Trackpoint>
            <Time>2019-07-06T17:39:48.000Z</Time>
            <Position>
              <LatitudeDegrees>42.534553706645965576171875</LatitudeDegrees>
              <LongitudeDegrees>-0.17133942805230617523193359375</LongitudeDegrees>
            </Position>
            <AltitudeMeters>1004.5999755859375</AltitudeMeters>
            <DistanceMeters>5877.6678879803</DistanceMeters>
          </Trackpoint>
          <Trackpoint>
            <Time>2019-07-06T17:39:50.000Z</Time>
            <Position>
              <LatitudeDegrees>42.5345605798065662384033203125</LatitudeDegrees>
              <LongitudeDegrees>-0.17132651992142200469970703125</LongitudeDegrees>
            </Position>
            <AltitudeMeters>1004.4000244140625</AltitudeMeters>
            <DistanceMeters>5878.9742893152</DistanceMeters>
          </Trackpoint>
          <Trackpoint>
            <Time>2019-07-06T17:39:53.000Z</Time>
            <Position>
              <LatitudeDegrees>42.53455362282693386077880859375</LatitudeDegrees>
              <LongitudeDegrees>-0.17132165841758251190185546875</LongitudeDegrees>
            </Position>
            <AltitudeMeters>1004.20001220703125</AltitudeMeters>
            <DistanceMeters>5879.8400238847</DistanceMeters>
          </Trackpoint>
          <Trackpoint>
            <Time>2019-07-06T17:39:56.000Z</Time>
            <Position>
              <LatitudeDegrees>42.5345397926867008209228515625</LatitudeDegrees>
              <LongitudeDegrees>-0.171334482729434967041015625</LongitudeDegrees>
            </Position>
            <AltitudeMeters>1004.20001220703125</AltitudeMeters>
            <DistanceMeters>5881.7045826612</DistanceMeters>
          </Trackpoint>
          <Trackpoint>
            <Time>2019-07-06T17:39:57.000Z</Time>
            <Position>
              <LatitudeDegrees>42.534535937011241912841796875</LatitudeDegrees>
              <LongitudeDegrees>-0.17133439891040325164794921875</LongitudeDegrees>
            </Position>
            <AltitudeMeters>1004.20001220703125</AltitudeMeters>
            <DistanceMeters>5882.1295550472</DistanceMeters>
          </Trackpoint>
          <Trackpoint>
            <Time>2019-07-06T17:40:00.000Z</Time>
            <Position>
              <LatitudeDegrees>42.534517161548137664794921875</LatitudeDegrees>
              <LongitudeDegrees>-0.171347558498382568359375</LongitudeDegrees>
            </Position>
            <AltitudeMeters>1004.20001220703125</AltitudeMeters>
            <DistanceMeters>5884.4823059605</DistanceMeters>
          </Trackpoint>
          <Trackpoint>
            <Time>2019-07-06T17:40:01.000Z</Time>
            <Position>
              <LatitudeDegrees>42.53451104275882244110107421875</LatitudeDegrees>
              <LongitudeDegrees>-0.17135501839220523834228515625</LongitudeDegrees>
            </Position>
            <AltitudeMeters>1004.4000244140625</AltitudeMeters>
            <DistanceMeters>5885.3987104069</DistanceMeters>
          </Trackpoint>
          <Trackpoint>
            <Time>2019-07-06T17:40:02.000Z</Time>
            <Position>
              <LatitudeDegrees>42.53450567834079265594482421875</LatitudeDegrees>
              <LongitudeDegrees>-0.1713644899427890777587890625</LongitudeDegrees>
            </Position>
            <AltitudeMeters>1004.5999755859375</AltitudeMeters>
            <DistanceMeters>5886.3770703116</DistanceMeters>
          </Trackpoint>
          <Trackpoint>
            <Time>2019-07-06T17:40:03.000Z</Time>
            <Position>
              <LatitudeDegrees>42.53449981100857257843017578125</LatitudeDegrees>
              <LongitudeDegrees>-0.17137639224529266357421875</LongitudeDegrees>
            </Position>
            <AltitudeMeters>1004.5999755859375</AltitudeMeters>
            <DistanceMeters>5887.548638329</DistanceMeters>
          </Trackpoint>
          <Trackpoint>
            <Time>2019-07-06T17:40:08.000Z</Time>
            <Position>
              <LatitudeDegrees>42.5344717316329479217529296875</LatitudeDegrees>
              <LongitudeDegrees>-0.1714248396456241607666015625</LongitudeDegrees>
            </Position>
            <AltitudeMeters>1004.79998779296875</AltitudeMeters>
            <DistanceMeters>5892.603845183</DistanceMeters>
          </Trackpoint>
          <Trackpoint>
            <Time>2019-07-06T17:40:09.000Z</Time>
            <Position>
              <LatitudeDegrees>42.5344653613865375518798828125</LatitudeDegrees>
              <LongitudeDegrees>-0.17143397592008113861083984375</LongitudeDegrees>
            </Position>
            <AltitudeMeters>1004.79998779296875</AltitudeMeters>
            <DistanceMeters>5893.636099522</DistanceMeters>
          </Trackpoint>
          <Trackpoint>
            <Time>2019-07-06T17:40:11.000Z</Time>
            <Position>
              <LatitudeDegrees>42.53445672802627086639404296875</LatitudeDegrees>
              <LongitudeDegrees>-0.1714535057544708251953125</LongitudeDegrees>
            </Position>
            <AltitudeMeters>1004.79998779296875</AltitudeMeters>
            <DistanceMeters>5895.503078233</DistanceMeters>
          </Trackpoint>
          <Trackpoint>
            <Time>2019-07-06T17:40:13.000Z</Time>
            <Position>
              <LatitudeDegrees>42.534441053867340087890625</LatitudeDegrees>
              <LongitudeDegrees>-0.17146716825664043426513671875</LongitudeDegrees>
            </Position>
            <AltitudeMeters>1005</AltitudeMeters>
            <DistanceMeters>5897.5784930021</DistanceMeters>
          </Trackpoint>
          <Trackpoint>
            <Time>2019-07-06T17:40:18.000Z</Time>
            <Position>
              <LatitudeDegrees>42.53440811298787593841552734375</LatitudeDegrees>
              <LongitudeDegrees>-0.17150647938251495361328125</LongitudeDegrees>
            </Position>
            <AltitudeMeters>1005.20001220703125</AltitudeMeters>
            <DistanceMeters>5902.4610539911</DistanceMeters>
          </Trackpoint>
          <Trackpoint>
            <Time>2019-07-06T17:40:21.000Z</Time>
            <Position>
              <LatitudeDegrees>42.53440492786467075347900390625</LatitudeDegrees>
              <LongitudeDegrees>-0.1715073175728321075439453125</LongitudeDegrees>
            </Position>
            <AltitudeMeters>1004.79998779296875</AltitudeMeters>
            <DistanceMeters>5902.8411608486</DistanceMeters>
          </Trackpoint>
          <Trackpoint>
            <Time>2019-07-06T17:40:30.000Z</Time>
            <Position>
              <LatitudeDegrees>42.53437777049839496612548828125</LatitudeDegrees>
              <LongitudeDegrees>-0.17151980660855770111083984375</LongitudeDegrees>
            </Position>
            <AltitudeMeters>1005.20001220703125</AltitudeMeters>
            <DistanceMeters>5906.0327006383</DistanceMeters>
          </Trackpoint>
          <Trackpoint>
            <Time>2019-07-06T17:40:34.000Z</Time>
            <Position>
              <LatitudeDegrees>42.53435128368437290191650390625</LatitudeDegrees>
              <LongitudeDegrees>-0.17150916159152984619140625</LongitudeDegrees>
            </Position>
            <AltitudeMeters>1005.5999755859375</AltitudeMeters>
            <DistanceMeters>5909.1075160859</DistanceMeters>
          </Trackpoint>
          <Trackpoint>
            <Time>2019-07-06T17:40:35.000Z</Time>
            <Position>
              <LatitudeDegrees>42.53435279242694377899169921875</LatitudeDegrees>
              <LongitudeDegrees>-0.17149600200355052947998046875</LongitudeDegrees>
            </Position>
            <AltitudeMeters>1005.5999755859375</AltitudeMeters>
            <DistanceMeters>5910.1992899134</DistanceMeters>
          </Trackpoint>
          <Trackpoint>
            <Time>2019-07-06T17:40:42.000Z</Time>
            <Position>
              <LatitudeDegrees>42.53433720208704471588134765625</LatitudeDegrees>
              <LongitudeDegrees>-0.17145090736448764801025390625</LongitudeDegrees>
            </Position>
            <AltitudeMeters>1006</AltitudeMeters>
            <DistanceMeters>5914.2854386314</DistanceMeters>
          </Trackpoint>
          <Trackpoint>
            <Time>2019-07-06T17:40:43.000Z</Time>
            <Position>
              <LatitudeDegrees>42.53433552570641040802001953125</LatitudeDegrees>
              <LongitudeDegrees>-0.1714436151087284088134765625</LongitudeDegrees>
            </Position>
            <AltitudeMeters>1006</AltitudeMeters>
            <DistanceMeters>5914.9157745446</DistanceMeters>
          </Trackpoint>
          <Trackpoint>
            <Time>2019-07-06T17:40:46.000Z</Time>
            <Position>
              <LatitudeDegrees>42.5343218632042407989501953125</LatitudeDegrees>
              <LongitudeDegrees>-0.1714268513023853302001953125</LongitudeDegrees>
            </Position>
            <AltitudeMeters>1006.20001220703125</AltitudeMeters>
            <DistanceMeters>5916.9671193774</DistanceMeters>
          </Trackpoint>
          <Trackpoint>
            <Time>2019-07-06T17:40:49.000Z</Time>
            <Position>
              <LatitudeDegrees>42.534322701394557952880859375</LatitudeDegrees>
              <LongitudeDegrees>-0.17140296287834644317626953125</LongitudeDegrees>
            </Position>
            <AltitudeMeters>1006.5999755859375</AltitudeMeters>
            <DistanceMeters>5918.9307493429</DistanceMeters>
          </Trackpoint>
          <Trackpoint>
            <Time>2019-07-06T17:40:54.000Z</Time>
            <Position>
              <LatitudeDegrees>42.53432370722293853759765625</LatitudeDegrees>
              <LongitudeDegrees>-0.17133858986198902130126953125</LongitudeDegrees>
            </Position>
            <AltitudeMeters>1007.20001220703125</AltitudeMeters>
            <DistanceMeters>5924.2122175228</DistanceMeters>
          </Trackpoint>
          <Trackpoint>
            <Time>2019-07-06T17:40:58.000Z</Time>
            <Position>
              <LatitudeDegrees>42.534328065812587738037109375</LatitudeDegrees>
              <LongitudeDegrees>-0.1712920702993869781494140625</LongitudeDegrees>
            </Position>
            <AltitudeMeters>1007.5999755859375</AltitudeMeters>
            <DistanceMeters>5928.056984764</DistanceMeters>
          </Trackpoint>
          <Trackpoint>
            <Time>2019-07-06T17:41:10.000Z</Time>
            <Position>
              <LatitudeDegrees>42.5343101285398006439208984375</LatitudeDegrees>
              <LongitudeDegrees>-0.1711955107748508453369140625</LongitudeDegrees>
            </Position>
            <AltitudeMeters>1008.79998779296875</AltitudeMeters>
            <DistanceMeters>5936.2237555221</DistanceMeters>
          </Trackpoint>
          <Trackpoint>
            <Time>2019-07-06T17:41:18.000Z</Time>
            <Position>
              <LatitudeDegrees>42.53433485515415668487548828125</LatitudeDegrees>
              <LongitudeDegrees>-0.171105153858661651611328125</LongitudeDegrees>
            </Position>
            <AltitudeMeters>1009.4000244140625</AltitudeMeters>
            <DistanceMeters>5944.1286988484</DistanceMeters>
          </Trackpoint>
          <Trackpoint>
            <Time>2019-07-06T17:41:26.000Z</Time>
            <Position>
              <LatitudeDegrees>42.5343392975628376007080078125</LatitudeDegrees>
              <LongitudeDegrees>-0.171028710901737213134765625</LongitudeDegrees>
            </Position>
            <AltitudeMeters>1009.4000244140625</AltitudeMeters>
            <DistanceMeters>5950.4177158482</DistanceMeters>
          </Trackpoint>
          <Trackpoint>
            <Time>2019-07-06T17:41:48.000Z</Time>
            <Position>
              <LatitudeDegrees>42.534363269805908203125</LatitudeDegrees>
              <LongitudeDegrees>-0.17080910503864288330078125</LongitudeDegrees>
            </Position>
            <AltitudeMeters>1008</AltitudeMeters>
            <DistanceMeters>5968.6251914121</DistanceMeters>
          </Trackpoint>
          <Trackpoint>
            <Time>2019-07-06T17:41:50.000Z</Time>
            <Position>
              <LatitudeDegrees>42.5343721546232700347900390625</LatitudeDegrees>
              <LongitudeDegrees>-0.17078773118555545806884765625</LongitudeDegrees>
            </Position>
            <AltitudeMeters>1008</AltitudeMeters>
            <DistanceMeters>5970.6365278452</DistanceMeters>
          </Trackpoint>
          <Trackpoint>
            <Time>2019-07-06T17:41:52.000Z</Time>
            <Position>
              <LatitudeDegrees>42.53439671359956264495849609375</LatitudeDegrees>
              <LongitudeDegrees>-0.170745067298412322998046875</LongitudeDegrees>
            </Position>
            <AltitudeMeters>1008</AltitudeMeters>
            <DistanceMeters>5975.0764216364</DistanceMeters>
          </Trackpoint>
          <Trackpoint>
            <Time>2019-07-06T17:41:53.000Z</Time>
            <Position>
              <LatitudeDegrees>42.53440040163695812225341796875</LatitudeDegrees>
              <LongitudeDegrees>-0.17073375172913074493408203125</LongitudeDegrees>
            </Position>
            <AltitudeMeters>1007.79998779296875</AltitudeMeters>
            <DistanceMeters>5976.0910293018</DistanceMeters>
          </Trackpoint>
          <Trackpoint>
            <Time>2019-07-06T17:41:54.000Z</Time>
            <Position>
              <LatitudeDegrees>42.53440643660724163055419921875</LatitudeDegrees>
              <LongitudeDegrees>-0.17072654329240322113037109375</LongitudeDegrees>
            </Position>
            <AltitudeMeters>1007.5999755859375</AltitudeMeters>
            <DistanceMeters>5976.9824588991</DistanceMeters>
          </Trackpoint>
          <Trackpoint>
            <Time>2019-07-06T17:41:56.000Z</Time>
            <Position>
              <LatitudeDegrees>42.53441683016717433929443359375</LatitudeDegrees>
              <LongitudeDegrees>-0.1707291416823863983154296875</LongitudeDegrees>
            </Position>
            <AltitudeMeters>1007.20001220703125</AltitudeMeters>
            <DistanceMeters>5978.1540269166</DistanceMeters>
          </Trackpoint>
          <Trackpoint>
            <Time>2019-07-06T17:41:58.000Z</Time>
            <Position>
              <LatitudeDegrees>42.53443141467869281768798828125</LatitudeDegrees>
              <LongitudeDegrees>-0.17072285525500774383544921875</LongitudeDegrees>
            </Position>
            <AltitudeMeters>1007</AltitudeMeters>
            <DistanceMeters>5979.8539164606</DistanceMeters>
          </Trackpoint>
          <Trackpoint>
            <Time>2019-07-06T17:41:59.000Z</Time>
            <Position>
              <LatitudeDegrees>42.53442563116550445556640625</LatitudeDegrees>
              <LongitudeDegrees>-0.1707267947494983673095703125</LongitudeDegrees>
            </Position>
            <AltitudeMeters>1006.5999755859375</AltitudeMeters>
            <DistanceMeters>5980.5713524211</DistanceMeters>
          </Trackpoint>
          <Trackpoint>
            <Time>2019-07-06T17:42:00.000Z</Time>
            <Position>
              <LatitudeDegrees>42.534430660307407379150390625</LatitudeDegrees>
              <LongitudeDegrees>-0.17073132097721099853515625</LongitudeDegrees>
            </Position>
            <AltitudeMeters>1006.4000244140625</AltitudeMeters>
            <DistanceMeters>5981.2432927623</DistanceMeters>
          </Trackpoint>
          <Trackpoint>
            <Time>2019-07-06T17:42:01.000Z</Time>
            <Position>
              <LatitudeDegrees>42.53443476743996143341064453125</LatitudeDegrees>
              <LongitudeDegrees>-0.17072520218789577484130859375</LongitudeDegrees>
            </Position>
            <AltitudeMeters>1006.4000244140625</AltitudeMeters>
            <DistanceMeters>5981.9152331036</DistanceMeters>
          </Trackpoint>
          <Trackpoint>
            <Time>2019-07-06T17:42:08.000Z</Time>
            <Position>
              <LatitudeDegrees>42.53445706330239772796630859375</LatitudeDegrees>
              <LongitudeDegrees>-0.17069653607904911041259765625</LongitudeDegrees>
            </Position>
            <AltitudeMeters>1005.4000244140625</AltitudeMeters>
            <DistanceMeters>5985.3335541708</DistanceMeters>
          </Trackpoint>
          <Trackpoint>
            <Time>2019-07-06T17:42:15.000Z</Time>
            <Position>
              <LatitudeDegrees>42.53453920595347881317138671875</LatitudeDegrees>
              <LongitudeDegrees>-0.1706500165164470672607421875</LongitudeDegrees>
            </Position>
            <AltitudeMeters>1005</AltitudeMeters>
            <DistanceMeters>5995.240516413</DistanceMeters>
          </Trackpoint>
          <Trackpoint>
            <Time>2019-07-06T17:42:21.000Z</Time>
            <Position>
              <LatitudeDegrees>42.5345367752015590667724609375</LatitudeDegrees>
              <LongitudeDegrees>-0.17058522440493106842041015625</LongitudeDegrees>
            </Position>
            <AltitudeMeters>1004.79998779296875</AltitudeMeters>
            <DistanceMeters>6000.5611638973</DistanceMeters>
          </Trackpoint>
          <Trackpoint>
            <Time>2019-07-06T17:42:23.000Z</Time>
            <Position>
              <LatitudeDegrees>42.53452244214713573455810546875</LatitudeDegrees>
              <LongitudeDegrees>-0.170567370951175689697265625</LongitudeDegrees>
            </Position>
            <AltitudeMeters>1004.79998779296875</AltitudeMeters>
            <DistanceMeters>6002.7239351746</DistanceMeters>
          </Trackpoint>
          <Trackpoint>
            <Time>2019-07-06T17:42:24.000Z</Time>
            <Position>
              <LatitudeDegrees>42.53452696837484836578369140625</LatitudeDegrees>
              <LongitudeDegrees>-0.17055303789675235748291015625</LongitudeDegrees>
            </Position>
            <AltitudeMeters>1005</AltitudeMeters>
            <DistanceMeters>6003.9988523326</DistanceMeters>
          </Trackpoint>
          <Trackpoint>
            <Time>2019-07-06T17:42:25.000Z</Time>
            <Position>
              <LatitudeDegrees>42.5345273874700069427490234375</LatitudeDegrees>
              <LongitudeDegrees>-0.17055018804967403411865234375</LongitudeDegrees>
            </Position>
            <AltitudeMeters>1005</AltitudeMeters>
            <DistanceMeters>6004.2316192948</DistanceMeters>
          </Trackpoint>
          <Trackpoint>
            <Time>2019-07-06T17:42:26.000Z</Time>
            <Position>
              <LatitudeDegrees>42.53453291952610015869140625</LatitudeDegrees>
              <LongitudeDegrees>-0.1705497689545154571533203125</LongitudeDegrees>
            </Position>
            <AltitudeMeters>1005</AltitudeMeters>
            <DistanceMeters>6004.84746279</DistanceMeters>
          </Trackpoint>
          <Trackpoint>
            <Time>2019-07-06T17:42:27.000Z</Time>
            <Position>
              <LatitudeDegrees>42.53453426063060760498046875</LatitudeDegrees>
              <LongitudeDegrees>-0.1705477572977542877197265625</LongitudeDegrees>
            </Position>
            <AltitudeMeters>1005</AltitudeMeters>
            <DistanceMeters>6005.0802297522</DistanceMeters>
          </Trackpoint>
          <Trackpoint>
            <Time>2019-07-06T17:42:29.000Z</Time>
            <Position>
              <LatitudeDegrees>42.53452931530773639678955078125</LatitudeDegrees>
              <LongitudeDegrees>-0.1705474220216274261474609375</LongitudeDegrees>
            </Position>
            <AltitudeMeters>1004.79998779296875</AltitudeMeters>
            <DistanceMeters>6005.6343259524</DistanceMeters>
          </Trackpoint>
          <Trackpoint>
            <Time>2019-07-06T17:42:30.000Z</Time>
            <Position>
              <LatitudeDegrees>42.53452814184129238128662109375</LatitudeDegrees>
              <LongitudeDegrees>-0.1705477572977542877197265625</LongitudeDegrees>
            </Position>
            <AltitudeMeters>1004.5999755859375</AltitudeMeters>
            <DistanceMeters>6005.7687140206</DistanceMeters>
          </Trackpoint>
          <Trackpoint>
            <Time>2019-07-06T17:42:31.000Z</Time>
            <Position>
              <LatitudeDegrees>42.53452696837484836578369140625</LatitudeDegrees>
              <LongitudeDegrees>-0.170548260211944580078125</LongitudeDegrees>
            </Position>
            <AltitudeMeters>1004.5999755859375</AltitudeMeters>
            <DistanceMeters>6005.9031020889</DistanceMeters>
          </Trackpoint>
          <Trackpoint>
            <Time>2019-07-06T17:42:35.000Z</Time>
            <Position>
              <LatitudeDegrees>42.5345334224402904510498046875</LatitudeDegrees>
              <LongitudeDegrees>-0.17055655829608440399169921875</LongitudeDegrees>
            </Position>
            <AltitudeMeters>1004.79998779296875</AltitudeMeters>
            <DistanceMeters>6006.8906486731</DistanceMeters>
          </Trackpoint>
          <Trackpoint>
            <Time>2019-07-06T17:42:49.000Z</Time>
            <Position>
              <LatitudeDegrees>42.53455177880823612213134765625</LatitudeDegrees>
              <LongitudeDegrees>-0.1705457456409931182861328125</LongitudeDegrees>
            </Position>
            <AltitudeMeters>1004.20001220703125</AltitudeMeters>
            <DistanceMeters>6009.1192226665</DistanceMeters>
          </Trackpoint>
          <Trackpoint>
            <Time>2019-07-06T17:42:59.000Z</Time>
            <Position>
              <LatitudeDegrees>42.53451674245297908782958984375</LatitudeDegrees>
              <LongitudeDegrees>-0.170551948249340057373046875</LongitudeDegrees>
            </Position>
            <AltitudeMeters>1004.4000244140625</AltitudeMeters>
            <DistanceMeters>6013.0533745478</DistanceMeters>
          </Trackpoint>
          <Trackpoint>
            <Time>2019-07-06T17:43:03.000Z</Time>
            <Position>
              <LatitudeDegrees>42.534519173204898834228515625</LatitudeDegrees>
              <LongitudeDegrees>-0.17055136151611804962158203125</LongitudeDegrees>
            </Position>
            <AltitudeMeters>1004.20001220703125</AltitudeMeters>
            <DistanceMeters>6013.3221506843</DistanceMeters>
          </Trackpoint>
          <Trackpoint>
            <Time>2019-07-06T17:43:04.000Z</Time>
            <Position>
              <LatitudeDegrees>42.534517832100391387939453125</LatitudeDegrees>
              <LongitudeDegrees>-0.17055085860192775726318359375</LongitudeDegrees>
            </Position>
            <AltitudeMeters>1004.4000244140625</AltitudeMeters>
            <DistanceMeters>6013.4867417817</DistanceMeters>
          </Trackpoint>
          <Trackpoint>
            <Time>2019-07-06T17:43:05.000Z</Time>
            <Position>
              <LatitudeDegrees>42.53451674245297908782958984375</LatitudeDegrees>
              <LongitudeDegrees>-0.17055186443030834197998046875</LongitudeDegrees>
            </Position>
            <AltitudeMeters>1004.4000244140625</AltitudeMeters>
            <DistanceMeters>6013.6211298499</DistanceMeters>
          </Trackpoint>
          <Trackpoint>
            <Time>2019-07-06T17:43:06.000Z</Time>
            <Position>
              <LatitudeDegrees>42.53451607190072536468505859375</LatitudeDegrees>
              <LongitudeDegrees>-0.17055320553481578826904296875</LongitudeDegrees>
            </Position>
            <AltitudeMeters>1004.20001220703125</AltitudeMeters>
            <DistanceMeters>6013.7555179181</DistanceMeters>
          </Trackpoint>
          <Trackpoint>
            <Time>2019-07-06T17:43:11.000Z</Time>
            <Position>
              <LatitudeDegrees>42.5345129705965518951416015625</LatitudeDegrees>
              <LongitudeDegrees>-0.170551948249340057373046875</LongitudeDegrees>
            </Position>
            <AltitudeMeters>1004.20001220703125</AltitudeMeters>
            <DistanceMeters>6014.1110753259</DistanceMeters>
          </Trackpoint>
          <Trackpoint>
            <Time>2019-07-06T17:43:15.000Z</Time>
            <Position>
              <LatitudeDegrees>42.53451288677752017974853515625</LatitudeDegrees>
              <LongitudeDegrees>-0.17055136151611804962158203125</LongitudeDegrees>
            </Position>
            <AltitudeMeters>1004.4000244140625</AltitudeMeters>
            <DistanceMeters>6014.1110753259</DistanceMeters>
          </Trackpoint>
          <Trackpoint>
            <Time>2019-07-06T17:43:21.000Z</Time>
            <Position>
              <LatitudeDegrees>42.534510791301727294921875</LatitudeDegrees>
              <LongitudeDegrees>-0.17055370844900608062744140625</LongitudeDegrees>
            </Position>
            <AltitudeMeters>1004.4000244140625</AltitudeMeters>
            <DistanceMeters>6014.4115761819</DistanceMeters>
          </Trackpoint>
          <Trackpoint>
            <Time>2019-07-06T17:43:37.000Z</Time>
            <Position>
              <LatitudeDegrees>42.53453384153544902801513671875</LatitudeDegrees>
              <LongitudeDegrees>-0.17054432071745395660400390625</LongitudeDegrees>
            </Position>
            <AltitudeMeters>1005</AltitudeMeters>
            <DistanceMeters>6017.0926097231</DistanceMeters>
          </Trackpoint>
          <Trackpoint>
            <Time>2019-07-06T17:43:42.000Z</Time>
            <Position>
              <LatitudeDegrees>42.5345327518880367279052734375</LatitudeDegrees>
              <LongitudeDegrees>-0.17054163850843906402587890625</LongitudeDegrees>
            </Position>
            <AltitudeMeters>1005</AltitudeMeters>
            <DistanceMeters>6017.3440267773</DistanceMeters>
          </Trackpoint>
          <Trackpoint>
            <Time>2019-07-06T17:43:43.000Z</Time>
            <Position>
              <LatitudeDegrees>42.53453434444963932037353515625</LatitudeDegrees>
              <LongitudeDegrees>-0.17053929157555103302001953125</LongitudeDegrees>
            </Position>
            <AltitudeMeters>1005</AltitudeMeters>
            <DistanceMeters>6017.6128029138</DistanceMeters>
          </Trackpoint>
          <Trackpoint>
            <Time>2019-07-06T17:43:44.000Z</Time>
            <Position>
              <LatitudeDegrees>42.53453669138252735137939453125</LatitudeDegrees>
              <LongitudeDegrees>-0.17053862102329730987548828125</LongitudeDegrees>
            </Position>
            <AltitudeMeters>1005</AltitudeMeters>
            <DistanceMeters>6017.8815790503</DistanceMeters>
          </Trackpoint>
          <Trackpoint>
            <Time>2019-07-06T17:43:46.000Z</Time>
            <Position>
              <LatitudeDegrees>42.5345451571047306060791015625</LatitudeDegrees>
              <LongitudeDegrees>-0.17053761519491672515869140625</LongitudeDegrees>
            </Position>
            <AltitudeMeters>1005</AltitudeMeters>
            <DistanceMeters>6018.8270829202</DistanceMeters>
          </Trackpoint>
          <Trackpoint>
            <Time>2019-07-06T17:43:58.000Z</Time>
            <Position>
              <LatitudeDegrees>42.53458631224930286407470703125</LatitudeDegrees>
              <LongitudeDegrees>-0.1705370284616947174072265625</LongitudeDegrees>
            </Position>
            <AltitudeMeters>1005</AltitudeMeters>
            <DistanceMeters>6023.4061480543</DistanceMeters>
          </Trackpoint>
          <Trackpoint>
            <Time>2019-07-06T17:44:06.000Z</Time>
            <Position>
              <LatitudeDegrees>42.53459930419921875</LatitudeDegrees>
              <LongitudeDegrees>-0.170567035675048828125</LongitudeDegrees>
            </Position>
            <AltitudeMeters>1005</AltitudeMeters>
            <DistanceMeters>6026.2601152848</DistanceMeters>
          </Trackpoint>
          <Trackpoint>
            <Time>2019-07-06T17:44:07.000Z</Time>
            <Position>
              <LatitudeDegrees>42.534598968923091888427734375</LatitudeDegrees>
              <LongitudeDegrees>-0.17058740369975566864013671875</LongitudeDegrees>
            </Position>
            <AltitudeMeters>1005</AltitudeMeters>
            <DistanceMeters>6027.9278273537</DistanceMeters>
          </Trackpoint>
          <Trackpoint>
            <Time>2019-07-06T17:44:36.000Z</Time>
            <Position>
              <LatitudeDegrees>42.534564770758152008056640625</LatitudeDegrees>
              <LongitudeDegrees>-0.17053174786269664764404296875</LongitudeDegrees>
            </Position>
            <AltitudeMeters>1005</AltitudeMeters>
            <DistanceMeters>6033.8713666232</DistanceMeters>
          </Trackpoint>
          <Trackpoint>
            <Time>2019-07-06T17:44:45.000Z</Time>
            <Position>
              <LatitudeDegrees>42.534548342227935791015625</LatitudeDegrees>
              <LongitudeDegrees>-0.17053820192813873291015625</LongitudeDegrees>
            </Position>
            <AltitudeMeters>1005</AltitudeMeters>
            <DistanceMeters>6035.776646322</DistanceMeters>
          </Trackpoint>
          <Trackpoint>
            <Time>2019-07-06T17:44:49.000Z</Time>
            <Position>
              <LatitudeDegrees>42.53454591147601604461669921875</LatitudeDegrees>
              <LongitudeDegrees>-0.1705413870513439178466796875</LongitudeDegrees>
            </Position>
            <AltitudeMeters>1005</AltitudeMeters>
            <DistanceMeters>6036.1567531794</DistanceMeters>
          </Trackpoint>
          <Trackpoint>
            <Time>2019-07-06T17:44:54.000Z</Time>
            <Position>
              <LatitudeDegrees>42.53454138524830341339111328125</LatitudeDegrees>
              <LongitudeDegrees>-0.17052889801561832427978515625</LongitudeDegrees>
            </Position>
            <AltitudeMeters>1005</AltitudeMeters>
            <DistanceMeters>6037.2970737519</DistanceMeters>
          </Trackpoint>
          <Trackpoint>
            <Time>2019-07-06T17:45:00.000Z</Time>
            <Position>
              <LatitudeDegrees>42.53453752957284450531005859375</LatitudeDegrees>
              <LongitudeDegrees>-0.17050207592546939849853515625</LongitudeDegrees>
            </Position>
            <AltitudeMeters>1005</AltitudeMeters>
            <DistanceMeters>6039.5397847407</DistanceMeters>
          </Trackpoint>
          <Trackpoint>
            <Time>2019-07-06T17:45:17.000Z</Time>
            <Position>
              <LatitudeDegrees>42.534527219831943511962890625</LatitudeDegrees>
              <LongitudeDegrees>-0.1705155707895755767822265625</LongitudeDegrees>
            </Position>
            <AltitudeMeters>1005</AltitudeMeters>
            <DistanceMeters>6041.1355546355</DistanceMeters>
          </Trackpoint>
          <Trackpoint>
            <Time>2019-07-06T17:45:19.000Z</Time>
            <Position>
              <LatitudeDegrees>42.5345206819474697113037109375</LatitudeDegrees>
              <LongitudeDegrees>-0.17052479088306427001953125</LongitudeDegrees>
            </Position>
            <AltitudeMeters>1005</AltitudeMeters>
            <DistanceMeters>6042.185159002</DistanceMeters>
          </Trackpoint>
          <Trackpoint>
            <Time>2019-07-06T17:45:38.000Z</Time>
            <Position>
              <LatitudeDegrees>42.53455110825598239898681640625</LatitudeDegrees>
              <LongitudeDegrees>-0.17053325660526752471923828125</LongitudeDegrees>
            </Position>
            <AltitudeMeters>1005</AltitudeMeters>
            <DistanceMeters>6045.6415720467</DistanceMeters>
          </Trackpoint>
          <Trackpoint>
            <Time>2019-07-06T17:45:47.000Z</Time>
            <Position>
              <LatitudeDegrees>42.53454457037150859832763671875</LatitudeDegrees>
              <LongitudeDegrees>-0.17051029019057750701904296875</LongitudeDegrees>
            </Position>
            <AltitudeMeters>1005</AltitudeMeters>
            <DistanceMeters>6047.6618677064</DistanceMeters>
          </Trackpoint>
          <Trackpoint>
            <Time>2019-07-06T17:45:53.000Z</Time>
            <Position>
              <LatitudeDegrees>42.53455043770372867584228515625</LatitudeDegrees>
              <LongitudeDegrees>-0.1705165766179561614990234375</LongitudeDegrees>
            </Position>
            <AltitudeMeters>1005</AltitudeMeters>
            <DistanceMeters>6048.4902913961</DistanceMeters>
          </Trackpoint>
          <Trackpoint>
            <Time>2019-07-06T17:46:46.000Z</Time>
            <Position>
              <LatitudeDegrees>42.53451883792877197265625</LatitudeDegrees>
              <LongitudeDegrees>-0.1705496013164520263671875</LongitudeDegrees>
            </Position>
            <AltitudeMeters>1005</AltitudeMeters>
            <DistanceMeters>6052.9281508716</DistanceMeters>
          </Trackpoint>
          <Trackpoint>
            <Time>2019-07-06T17:47:02.000Z</Time>
            <Position>
              <LatitudeDegrees>42.53452395088970661163330078125</LatitudeDegrees>
              <LongitudeDegrees>-0.17053141258656978607177734375</LongitudeDegrees>
            </Position>
            <AltitudeMeters>1005</AltitudeMeters>
            <DistanceMeters>6054.5267476418</DistanceMeters>
          </Trackpoint>
          <Trackpoint>
            <Time>2019-07-06T17:47:04.000Z</Time>
            <Position>
              <LatitudeDegrees>42.53452344797551631927490234375</LatitudeDegrees>
              <LongitudeDegrees>-0.17053225077688694000244140625</LongitudeDegrees>
            </Position>
            <AltitudeMeters>1005</AltitudeMeters>
            <DistanceMeters>6054.6611357101</DistanceMeters>
          </Trackpoint>
          <Trackpoint>
            <Time>2019-07-06T17:47:10.000Z</Time>
            <Position>
              <LatitudeDegrees>42.5345179997384548187255859375</LatitudeDegrees>
              <LongitudeDegrees>-0.170541889965534210205078125</LongitudeDegrees>
            </Position>
            <AltitudeMeters>1005</AltitudeMeters>
            <DistanceMeters>6055.6577842985</DistanceMeters>
          </Trackpoint>
          <Trackpoint>
            <Time>2019-07-06T17:47:11.000Z</Time>
            <Position>
              <LatitudeDegrees>42.53451674245297908782958984375</LatitudeDegrees>
              <LongitudeDegrees>-0.17054465599358081817626953125</LongitudeDegrees>
            </Position>
            <AltitudeMeters>1005</AltitudeMeters>
            <DistanceMeters>6055.8905512606</DistanceMeters>
          </Trackpoint>
          <Trackpoint>
            <Time>2019-07-06T17:47:13.000Z</Time>
            <Position>
              <LatitudeDegrees>42.53451506607234477996826171875</LatitudeDegrees>
              <LongitudeDegrees>-0.17054465599358081817626953125</LongitudeDegrees>
            </Position>
            <AltitudeMeters>1005</AltitudeMeters>
            <DistanceMeters>6056.0806046894</DistanceMeters>
          </Trackpoint>
          <Trackpoint>
            <Time>2019-07-06T17:47:17.000Z</Time>
            <Position>
              <LatitudeDegrees>42.53451322205364704132080078125</LatitudeDegrees>
              <LongitudeDegrees>-0.17054616473615169525146484375</LongitudeDegrees>
            </Position>
            <AltitudeMeters>1005</AltitudeMeters>
            <DistanceMeters>6056.3133716515</DistanceMeters>
          </Trackpoint>
          <Trackpoint>
            <Time>2019-07-06T17:47:27.000Z</Time>
            <Position>
              <LatitudeDegrees>42.5345112942159175872802734375</LatitudeDegrees>
              <LongitudeDegrees>-0.17054348252713680267333984375</LongitudeDegrees>
            </Position>
            <AltitudeMeters>1005</AltitudeMeters>
            <DistanceMeters>6056.6138725075</DistanceMeters>
          </Trackpoint>
          <Trackpoint>
            <Time>2019-07-06T17:47:28.000Z</Time>
            <Position>
              <LatitudeDegrees>42.53451104275882244110107421875</LatitudeDegrees>
              <LongitudeDegrees>-0.170541889965534210205078125</LongitudeDegrees>
            </Position>
            <AltitudeMeters>1005</AltitudeMeters>
            <DistanceMeters>6056.7784636048</DistanceMeters>
          </Trackpoint>
          <Trackpoint>
            <Time>2019-07-06T17:47:30.000Z</Time>
            <Position>
              <LatitudeDegrees>42.53450869582593441009521484375</LatitudeDegrees>
              <LongitudeDegrees>-0.17054515890777111053466796875</LongitudeDegrees>
            </Position>
            <AltitudeMeters>1005</AltitudeMeters>
            <DistanceMeters>6057.1585704623</DistanceMeters>
          </Trackpoint>
          <Trackpoint>
            <Time>2019-07-06T17:47:33.000Z</Time>
            <Position>
              <LatitudeDegrees>42.53450718708336353302001953125</LatitudeDegrees>
              <LongitudeDegrees>-0.17055136151611804962158203125</LongitudeDegrees>
            </Position>
            <AltitudeMeters>1005</AltitudeMeters>
            <DistanceMeters>6057.6961227353</DistanceMeters>
          </Trackpoint>
          <Trackpoint>
            <Time>2019-07-06T17:47:37.000Z</Time>
            <Position>
              <LatitudeDegrees>42.53451372496783733367919921875</LatitudeDegrees>
              <LongitudeDegrees>-0.170555301010608673095703125</LongitudeDegrees>
            </Position>
            <AltitudeMeters>1005</AltitudeMeters>
            <DistanceMeters>6058.491173269</DistanceMeters>
          </Trackpoint>
          <Trackpoint>
            <Time>2019-07-06T17:47:38.000Z</Time>
            <Position>
              <LatitudeDegrees>42.53451414406299591064453125</LatitudeDegrees>
              <LongitudeDegrees>-0.1705568097531795501708984375</LongitudeDegrees>
            </Position>
            <AltitudeMeters>1005</AltitudeMeters>
            <DistanceMeters>6058.6255613372</DistanceMeters>
          </Trackpoint>
          <Trackpoint>
            <Time>2019-07-06T17:47:39.000Z</Time>
            <Position>
              <LatitudeDegrees>42.53451414406299591064453125</LatitudeDegrees>
              <LongitudeDegrees>-0.1705571450293064117431640625</LongitudeDegrees>
            </Position>
            <AltitudeMeters>1005</AltitudeMeters>
            <DistanceMeters>6058.6255613372</DistanceMeters>
          </Trackpoint>
          <Trackpoint>
            <Time>2019-07-06T17:47:40.000Z</Time>
            <Position>
              <LatitudeDegrees>42.53451406024396419525146484375</LatitudeDegrees>
              <LongitudeDegrees>-0.17055588774383068084716796875</LongitudeDegrees>
            </Position>
            <AltitudeMeters>1005</AltitudeMeters>
            <DistanceMeters>6058.6255613372</DistanceMeters>
          </Trackpoint>
          <Trackpoint>
            <Time>2019-07-06T17:47:59.000Z</Time>
            <Position>
              <LatitudeDegrees>42.534524537622928619384765625</LatitudeDegrees>
              <LongitudeDegrees>-0.17054549418389797210693359375</LongitudeDegrees>
            </Position>
            <AltitudeMeters>1005</AltitudeMeters>
            <DistanceMeters>6060.0698423551</DistanceMeters>
          </Trackpoint>
          <Trackpoint>
            <Time>2019-07-06T17:48:13.000Z</Time>
            <Position>
              <LatitudeDegrees>42.53454859368503093719482421875</LatitudeDegrees>
              <LongitudeDegrees>-0.17055203206837177276611328125</LongitudeDegrees>
            </Position>
            <AltitudeMeters>1005</AltitudeMeters>
            <DistanceMeters>6062.8009306259</DistanceMeters>
          </Trackpoint>
          <Trackpoint>
            <Time>2019-07-06T17:48:36.000Z</Time>
            <Position>
              <LatitudeDegrees>42.53453954122960567474365234375</LatitudeDegrees>
              <LongitudeDegrees>-0.17053417861461639404296875</LongitudeDegrees>
            </Position>
            <AltitudeMeters>1005</AltitudeMeters>
            <DistanceMeters>6064.5787176647</DistanceMeters>
          </Trackpoint>
          <Trackpoint>
            <Time>2019-07-06T17:48:52.000Z</Time>
            <Position>
              <LatitudeDegrees>42.534530572593212127685546875</LatitudeDegrees>
              <LongitudeDegrees>-0.1705390401184558868408203125</LongitudeDegrees>
            </Position>
            <AltitudeMeters>1005</AltitudeMeters>
            <DistanceMeters>6065.6496143489</DistanceMeters>
          </Trackpoint>
          <Trackpoint>
            <Time>2019-07-06T17:48:54.000Z</Time>
            <Position>
              <LatitudeDegrees>42.5345309078693389892578125</LatitudeDegrees>
              <LongitudeDegrees>-0.17053979448974132537841796875</LongitudeDegrees>
            </Position>
            <AltitudeMeters>1005</AltitudeMeters>
            <DistanceMeters>6065.7446410633</DistanceMeters>
          </Trackpoint>
          <Trackpoint>
            <Time>2019-07-06T17:49:16.000Z</Time>
            <Position>
              <LatitudeDegrees>42.53452084958553314208984375</LatitudeDegrees>
              <LongitudeDegrees>-0.17052973620593547821044921875</LongitudeDegrees>
            </Position>
            <AltitudeMeters>1005</AltitudeMeters>
            <DistanceMeters>6067.1347620505</DistanceMeters>
          </Trackpoint>
          <Trackpoint>
            <Time>2019-07-06T17:49:18.000Z</Time>
            <Position>
              <LatitudeDegrees>42.5345193408429622650146484375</LatitudeDegrees>
              <LongitudeDegrees>-0.1705299876630306243896484375</LongitudeDegrees>
            </Position>
            <AltitudeMeters>1005</AltitudeMeters>
            <DistanceMeters>6067.2993531479</DistanceMeters>
          </Trackpoint>
          <Trackpoint>
            <Time>2019-07-06T17:49:20.000Z</Time>
            <Position>
              <LatitudeDegrees>42.53451841883361339569091796875</LatitudeDegrees>
              <LongitudeDegrees>-0.17052940092980861663818359375</LongitudeDegrees>
            </Position>
            <AltitudeMeters>1005</AltitudeMeters>
            <DistanceMeters>6067.3943798622</DistanceMeters>
          </Trackpoint>
          <Trackpoint>
            <Time>2019-07-06T17:49:22.000Z</Time>
            <Position>
              <LatitudeDegrees>42.53451674245297908782958984375</LatitudeDegrees>
              <LongitudeDegrees>-0.1705283112823963165283203125</LongitudeDegrees>
            </Position>
            <AltitudeMeters>1005</AltitudeMeters>
            <DistanceMeters>6067.584433291</DistanceMeters>
          </Trackpoint>
          <Trackpoint>
            <Time>2019-07-06T17:49:23.000Z</Time>
            <Position>
              <LatitudeDegrees>42.53451640717685222625732421875</LatitudeDegrees>
              <LongitudeDegrees>-0.17052856273949146270751953125</LongitudeDegrees>
            </Position>
            <AltitudeMeters>1005</AltitudeMeters>
            <DistanceMeters>6067.584433291</DistanceMeters>
          </Trackpoint>
          <Trackpoint>
            <Time>2019-07-06T17:49:26.000Z</Time>
            <Position>
              <LatitudeDegrees>42.53451280295848846435546875</LatitudeDegrees>
              <LongitudeDegrees>-0.17053040675818920135498046875</LongitudeDegrees>
            </Position>
            <AltitudeMeters>1005</AltitudeMeters>
            <DistanceMeters>6068.0199004026</DistanceMeters>
          </Trackpoint>
          <Trackpoint>
            <Time>2019-07-06T17:49:28.000Z</Time>
            <Position>
              <LatitudeDegrees>42.534507773816585540771484375</LatitudeDegrees>
              <LongitudeDegrees>-0.1705370284616947174072265625</LongitudeDegrees>
            </Position>
            <AltitudeMeters>1005</AltitudeMeters>
            <DistanceMeters>6068.8035107638</DistanceMeters>
          </Trackpoint>
          <Trackpoint>
            <Time>2019-07-06T17:49:30.000Z</Time>
            <Position>
              <LatitudeDegrees>42.5345025770366191864013671875</LatitudeDegrees>
              <LongitudeDegrees>-0.17052889801561832427978515625</LongitudeDegrees>
            </Position>
            <AltitudeMeters>1005</AltitudeMeters>
            <DistanceMeters>6069.6847522598</DistanceMeters>
          </Trackpoint>
          <Trackpoint>
            <Time>2019-07-06T17:49:31.000Z</Time>
            <Position>
              <LatitudeDegrees>42.5345005653798580169677734375</LatitudeDegrees>
              <LongitudeDegrees>-0.170524120330810546875</LongitudeDegrees>
            </Position>
            <AltitudeMeters>1005</AltitudeMeters>
            <DistanceMeters>6070.1502861841</DistanceMeters>
          </Trackpoint>
          <Trackpoint>
            <Time>2019-07-06T17:49:32.000Z</Time>
            <Position>
              <LatitudeDegrees>42.53449947573244571685791015625</LatitudeDegrees>
              <LongitudeDegrees>-0.170525126159191131591796875</LongitudeDegrees>
            </Position>
            <AltitudeMeters>1005</AltitudeMeters>
            <DistanceMeters>6070.3148772814</DistanceMeters>
          </Trackpoint>
          <Trackpoint>
            <Time>2019-07-06T17:49:33.000Z</Time>
            <Position>
              <LatitudeDegrees>42.53449939191341400146484375</LatitudeDegrees>
              <LongitudeDegrees>-0.17052621580660343170166015625</LongitudeDegrees>
            </Position>
            <AltitudeMeters>1005</AltitudeMeters>
            <DistanceMeters>6070.4492653497</DistanceMeters>
          </Trackpoint>
          <Trackpoint>
            <Time>2019-07-06T17:49:34.000Z</Time>
            <Position>
              <LatitudeDegrees>42.53450207412242889404296875</LatitudeDegrees>
              <LongitudeDegrees>-0.17052386887371540069580078125</LongitudeDegrees>
            </Position>
            <AltitudeMeters>1005</AltitudeMeters>
            <DistanceMeters>6070.8048227574</DistanceMeters>
          </Trackpoint>
          <Trackpoint>
            <Time>2019-07-06T17:49:35.000Z</Time>
            <Position>
              <LatitudeDegrees>42.53450601361691951751708984375</LatitudeDegrees>
              <LongitudeDegrees>-0.170521438121795654296875</LongitudeDegrees>
            </Position>
            <AltitudeMeters>1005</AltitudeMeters>
            <DistanceMeters>6071.2799563293</DistanceMeters>
          </Trackpoint>
          <Trackpoint>
            <Time>2019-07-06T17:49:37.000Z</Time>
            <Position>
              <LatitudeDegrees>42.5345106236636638641357421875</LatitudeDegrees>
              <LongitudeDegrees>-0.1705212704837322235107421875</LongitudeDegrees>
            </Position>
            <AltitudeMeters>1005</AltitudeMeters>
            <DistanceMeters>6071.7827904375</DistanceMeters>
          </Trackpoint>
          <Trackpoint>
            <Time>2019-07-06T17:49:39.000Z</Time>
            <Position>
              <LatitudeDegrees>42.5345109589397907257080078125</LatitudeDegrees>
              <LongitudeDegrees>-0.1705252937972545623779296875</LongitudeDegrees>
            </Position>
            <AltitudeMeters>1005</AltitudeMeters>
            <DistanceMeters>6072.1119726323</DistanceMeters>
          </Trackpoint>
          <Trackpoint>
            <Time>2019-07-06T17:49:40.000Z</Time>
            <Position>
              <LatitudeDegrees>42.53451238386332988739013671875</LatitudeDegrees>
              <LongitudeDegrees>-0.1705254614353179931640625</LongitudeDegrees>
            </Position>
            <AltitudeMeters>1005</AltitudeMeters>
            <DistanceMeters>6072.2765637296</DistanceMeters>
          </Trackpoint>
          <Trackpoint>
            <Time>2019-07-06T17:49:45.000Z</Time>
            <Position>
              <LatitudeDegrees>42.53452126868069171905517578125</LatitudeDegrees>
              <LongitudeDegrees>-0.17053141258656978607177734375</LongitudeDegrees>
            </Position>
            <AltitudeMeters>1005</AltitudeMeters>
            <DistanceMeters>6073.3806743762</DistanceMeters>
          </Trackpoint>
          <Trackpoint>
            <Time>2019-07-06T17:50:19.000Z</Time>
            <Position>
              <LatitudeDegrees>42.53451950848102569580078125</LatitudeDegrees>
              <LongitudeDegrees>-0.1705330051481723785400390625</LongitudeDegrees>
            </Position>
            <AltitudeMeters>1005</AltitudeMeters>
            <DistanceMeters>6073.6134413384</DistanceMeters>
          </Trackpoint>
          <Trackpoint>
            <Time>2019-07-06T17:50:33.000Z</Time>
            <Position>
              <LatitudeDegrees>42.5345247052609920501708984375</LatitudeDegrees>
              <LongitudeDegrees>-0.17053409479558467864990234375</LongitudeDegrees>
            </Position>
            <AltitudeMeters>1005</AltitudeMeters>
            <DistanceMeters>6074.2068829794</DistanceMeters>
          </Trackpoint>
          <Trackpoint>
            <Time>2019-07-06T17:50:37.000Z</Time>
            <Position>
              <LatitudeDegrees>42.534521855413913726806640625</LatitudeDegrees>
              <LongitudeDegrees>-0.1705308258533477783203125</LongitudeDegrees>
            </Position>
            <AltitudeMeters>1005</AltitudeMeters>
            <DistanceMeters>6074.6318553654</DistanceMeters>
          </Trackpoint>
          <Trackpoint>
            <Time>2019-07-06T17:50:38.000Z</Time>
            <Position>
              <LatitudeDegrees>42.53452227450907230377197265625</LatitudeDegrees>
              <LongitudeDegrees>-0.17052873037755489349365234375</LongitudeDegrees>
            </Position>
            <AltitudeMeters>1005</AltitudeMeters>
            <DistanceMeters>6074.8219087942</DistanceMeters>
          </Trackpoint>
          <Trackpoint>
            <Time>2019-07-06T17:50:39.000Z</Time>
            <Position>
              <LatitudeDegrees>42.534523196518421173095703125</LatitudeDegrees>
              <LongitudeDegrees>-0.1705276407301425933837890625</LongitudeDegrees>
            </Position>
            <AltitudeMeters>1005</AltitudeMeters>
            <DistanceMeters>6074.9562968624</DistanceMeters>
          </Trackpoint>
          <Trackpoint>
            <Time>2019-07-06T17:50:42.000Z</Time>
            <Position>
              <LatitudeDegrees>42.534525208175182342529296875</LatitudeDegrees>
              <LongitudeDegrees>-0.1705286465585231781005859375</LongitudeDegrees>
            </Position>
            <AltitudeMeters>1005</AltitudeMeters>
            <DistanceMeters>6075.2077139166</DistanceMeters>
          </Trackpoint>
          <Trackpoint>
            <Time>2019-07-06T17:50:43.000Z</Time>
            <Position>
              <LatitudeDegrees>42.53452579490840435028076171875</LatitudeDegrees>
              <LongitudeDegrees>-0.17052940092980861663818359375</LongitudeDegrees>
            </Position>
            <AltitudeMeters>1005</AltitudeMeters>
            <DistanceMeters>6075.3421019848</DistanceMeters>
          </Trackpoint>
          <Trackpoint>
            <Time>2019-07-06T17:50:44.000Z</Time>
            <Position>
              <LatitudeDegrees>42.53452478908002376556396484375</LatitudeDegrees>
              <LongitudeDegrees>-0.170529149472713470458984375</LongitudeDegrees>
            </Position>
            <AltitudeMeters>1005</AltitudeMeters>
            <DistanceMeters>6075.4371286992</DistanceMeters>
          </Trackpoint>
          <Trackpoint>
            <Time>2019-07-06T17:50:45.000Z</Time>
            <Position>
              <LatitudeDegrees>42.5345236994326114654541015625</LatitudeDegrees>
              <LongitudeDegrees>-0.170529149472713470458984375</LongitudeDegrees>
            </Position>
            <AltitudeMeters>1005</AltitudeMeters>
            <DistanceMeters>6075.5715167674</DistanceMeters>
          </Trackpoint>
          <Trackpoint>
            <Time>2019-07-06T17:50:46.000Z</Time>
            <Position>
              <LatitudeDegrees>42.534523196518421173095703125</LatitudeDegrees>
              <LongitudeDegrees>-0.1705303229391574859619140625</LongitudeDegrees>
            </Position>
            <AltitudeMeters>1005</AltitudeMeters>
            <DistanceMeters>6075.7059048357</DistanceMeters>
          </Trackpoint>
          <Trackpoint>
            <Time>2019-07-06T17:50:48.000Z</Time>
            <Position>
              <LatitudeDegrees>42.53452378325164318084716796875</LatitudeDegrees>
              <LongitudeDegrees>-0.1705319993197917938232421875</LongitudeDegrees>
            </Position>
            <AltitudeMeters>1005</AltitudeMeters>
            <DistanceMeters>6075.8402929039</DistanceMeters>
          </Trackpoint>
          <Trackpoint>
            <Time>2019-07-06T17:50:52.000Z</Time>
            <Position>
              <LatitudeDegrees>42.53452755510807037353515625</LatitudeDegrees>
              <LongitudeDegrees>-0.170531831681728363037109375</LongitudeDegrees>
            </Position>
            <AltitudeMeters>1005</AltitudeMeters>
            <DistanceMeters>6076.2652652899</DistanceMeters>
          </Trackpoint>
          <Trackpoint>
            <Time>2019-07-06T17:50:55.000Z</Time>
            <Position>
              <LatitudeDegrees>42.5345277227461338043212890625</LatitudeDegrees>
              <LongitudeDegrees>-0.1705299876630306243896484375</LongitudeDegrees>
            </Position>
            <AltitudeMeters>1005</AltitudeMeters>
            <DistanceMeters>6076.3996533582</DistanceMeters>
          </Trackpoint>
          <Trackpoint>
            <Time>2019-07-06T17:50:57.000Z</Time>
            <Position>
              <LatitudeDegrees>42.53452830947935581207275390625</LatitudeDegrees>
              <LongitudeDegrees>-0.17052856273949146270751953125</LongitudeDegrees>
            </Position>
            <AltitudeMeters>1005</AltitudeMeters>
            <DistanceMeters>6076.5340414264</DistanceMeters>
          </Trackpoint>
          <Trackpoint>
            <Time>2019-07-06T17:51:04.000Z</Time>
            <Position>
              <LatitudeDegrees>42.53454255871474742889404296875</LatitudeDegrees>
              <LongitudeDegrees>-0.17052202485501766204833984375</LongitudeDegrees>
            </Position>
            <AltitudeMeters>1005</AltitudeMeters>
            <DistanceMeters>6078.2098557879</DistanceMeters>
          </Trackpoint>
          <Trackpoint>
            <Time>2019-07-06T17:51:05.000Z</Time>
            <Position>
              <LatitudeDegrees>42.534545324742794036865234375</LatitudeDegrees>
              <LongitudeDegrees>-0.1705205999314785003662109375</LongitudeDegrees>
            </Position>
            <AltitudeMeters>1005</AltitudeMeters>
            <DistanceMeters>6078.5390379826</DistanceMeters>
          </Trackpoint>
          <Trackpoint>
            <Time>2019-07-06T17:51:08.000Z</Time>
            <Position>
              <LatitudeDegrees>42.5345545448362827301025390625</LatitudeDegrees>
              <LongitudeDegrees>-0.1705145649611949920654296875</LongitudeDegrees>
            </Position>
            <AltitudeMeters>1005</AltitudeMeters>
            <DistanceMeters>6079.6714119734</DistanceMeters>
          </Trackpoint>
          <Trackpoint>
            <Time>2019-07-06T17:51:31.000Z</Time>
            <Position>
              <LatitudeDegrees>42.53455513156950473785400390625</LatitudeDegrees>
              <LongitudeDegrees>-0.170525126159191131591796875</LongitudeDegrees>
            </Position>
            <AltitudeMeters>1005</AltitudeMeters>
            <DistanceMeters>6080.5371465429</DistanceMeters>
          </Trackpoint>
          <Trackpoint>
            <Time>2019-07-06T17:51:36.000Z</Time>
            <Position>
              <LatitudeDegrees>42.53455865196883678436279296875</LatitudeDegrees>
              <LongitudeDegrees>-0.1705232821404933929443359375</LongitudeDegrees>
            </Position>
            <AltitudeMeters>1005</AltitudeMeters>
            <DistanceMeters>6080.962118929</DistanceMeters>
          </Trackpoint>
          <Trackpoint>
            <Time>2019-07-06T17:51:47.000Z</Time>
            <Position>
              <LatitudeDegrees>42.5345760025084018707275390625</LatitudeDegrees>
              <LongitudeDegrees>-0.17049537040293216705322265625</LongitudeDegrees>
            </Position>
            <AltitudeMeters>1005</AltitudeMeters>
            <DistanceMeters>6083.9580988997</DistanceMeters>
          </Trackpoint>
          <Trackpoint>
            <Time>2019-07-06T17:51:56.000Z</Time>
            <Position>
              <LatitudeDegrees>42.534566111862659454345703125</LatitudeDegrees>
              <LongitudeDegrees>-0.17043451778590679168701171875</LongitudeDegrees>
            </Position>
            <AltitudeMeters>1005</AltitudeMeters>
            <DistanceMeters>6089.0683807976</DistanceMeters>
          </Trackpoint>
          <Trackpoint>
            <Time>2019-07-06T17:51:58.000Z</Time>
            <Position>
              <LatitudeDegrees>42.53455949015915393829345703125</LatitudeDegrees>
              <LongitudeDegrees>-0.17041440121829509735107421875</LongitudeDegrees>
            </Position>
            <AltitudeMeters>1005</AltitudeMeters>
            <DistanceMeters>6090.8763873443</DistanceMeters>
          </Trackpoint>
          <Trackpoint>
            <Time>2019-07-06T17:51:59.000Z</Time>
            <Position>
              <LatitudeDegrees>42.53455840051174163818359375</LatitudeDegrees>
              <LongitudeDegrees>-0.17040048725903034210205078125</LongitudeDegrees>
            </Position>
            <AltitudeMeters>1005.20001220703125</AltitudeMeters>
            <DistanceMeters>6092.0245995027</DistanceMeters>
          </Trackpoint>
          <Trackpoint>
            <Time>2019-07-06T17:52:01.000Z</Time>
            <Position>
              <LatitudeDegrees>42.53455546684563159942626953125</LatitudeDegrees>
              <LongitudeDegrees>-0.170375593006610870361328125</LongitudeDegrees>
            </Position>
            <AltitudeMeters>1005.79998779296875</AltitudeMeters>
            <DistanceMeters>6094.0934775161</DistanceMeters>
          </Trackpoint>
          <Trackpoint>
            <Time>2019-07-06T17:52:04.000Z</Time>
            <Position>
              <LatitudeDegrees>42.53455010242760181427001953125</LatitudeDegrees>
              <LongitudeDegrees>-0.17034701071679592132568359375</LongitudeDegrees>
            </Position>
            <AltitudeMeters>1006.4000244140625</AltitudeMeters>
            <DistanceMeters>6096.5124627446</DistanceMeters>
          </Trackpoint>
          <Trackpoint>
            <Time>2019-07-06T17:52:09.000Z</Time>
            <Position>
              <LatitudeDegrees>42.53453501500189304351806640625</LatitudeDegrees>
              <LongitudeDegrees>-0.17030158080160617828369140625</LongitudeDegrees>
            </Position>
            <AltitudeMeters>1006.4000244140625</AltitudeMeters>
            <DistanceMeters>6100.5986114626</DistanceMeters>
          </Trackpoint>
          <Trackpoint>
            <Time>2019-07-06T17:52:10.000Z</Time>
            <Position>
              <LatitudeDegrees>42.53452889621257781982421875</LatitudeDegrees>
              <LongitudeDegrees>-0.17029806040227413177490234375</LongitudeDegrees>
            </Position>
            <AltitudeMeters>1006.4000244140625</AltitudeMeters>
            <DistanceMeters>6101.334685227</DistanceMeters>
          </Trackpoint>
          <Trackpoint>
            <Time>2019-07-06T17:52:11.000Z</Time>
            <Position>
              <LatitudeDegrees>42.5345230288803577423095703125</LatitudeDegrees>
              <LongitudeDegrees>-0.17029185779392719268798828125</LongitudeDegrees>
            </Position>
            <AltitudeMeters>1006.5999755859375</AltitudeMeters>
            <DistanceMeters>6102.1685412614</DistanceMeters>
          </Trackpoint>
          <Trackpoint>
            <Time>2019-07-06T17:52:12.000Z</Time>
            <Position>
              <LatitudeDegrees>42.53451883792877197265625</LatitudeDegrees>
              <LongitudeDegrees>-0.170282386243343353271484375</LongitudeDegrees>
            </Position>
            <AltitudeMeters>1006.5999755859375</AltitudeMeters>
            <DistanceMeters>6103.0800054861</DistanceMeters>
          </Trackpoint>
          <Trackpoint>
            <Time>2019-07-06T17:52:13.000Z</Time>
            <Position>
              <LatitudeDegrees>42.5345129705965518951416015625</LatitudeDegrees>
              <LongitudeDegrees>-0.1702711544930934906005859375</LongitudeDegrees>
            </Position>
            <AltitudeMeters>1006.79998779296875</AltitudeMeters>
            <DistanceMeters>6104.2123794769</DistanceMeters>
          </Trackpoint>
          <Trackpoint>
            <Time>2019-07-06T17:52:15.000Z</Time>
            <Position>
              <LatitudeDegrees>42.53451003693044185638427734375</LatitudeDegrees>
              <LongitudeDegrees>-0.170244835317134857177734375</LongitudeDegrees>
            </Position>
            <AltitudeMeters>1007.20001220703125</AltitudeMeters>
            <DistanceMeters>6106.395927132</DistanceMeters>
          </Trackpoint>
          <Trackpoint>
            <Time>2019-07-06T17:52:16.000Z</Time>
            <Position>
              <LatitudeDegrees>42.53450534306466579437255859375</LatitudeDegrees>
              <LongitudeDegrees>-0.1702352799475193023681640625</LongitudeDegrees>
            </Position>
            <AltitudeMeters>1007.4000244140625</AltitudeMeters>
            <DistanceMeters>6107.3318317292</DistanceMeters>
          </Trackpoint>
          <Trackpoint>
            <Time>2019-07-06T17:52:18.000Z</Time>
            <Position>
              <LatitudeDegrees>42.53450165502727031707763671875</LatitudeDegrees>
              <LongitudeDegrees>-0.17021474428474903106689453125</LongitudeDegrees>
            </Position>
            <AltitudeMeters>1007.5999755859375</AltitudeMeters>
            <DistanceMeters>6109.0633008683</DistanceMeters>
          </Trackpoint>
          <Trackpoint>
            <Time>2019-07-06T17:52:20.000Z</Time>
            <Position>
              <LatitudeDegrees>42.53450064919888973236083984375</LatitudeDegrees>
              <LongitudeDegrees>-0.17018892802298069000244140625</LongitudeDegrees>
            </Position>
            <AltitudeMeters>1007.79998779296875</AltitudeMeters>
            <DistanceMeters>6111.1817786219</DistanceMeters>
          </Trackpoint>
          <Trackpoint>
            <Time>2019-07-06T17:52:22.000Z</Time>
            <Position>
              <LatitudeDegrees>42.5344968773424625396728515625</LatitudeDegrees>
              <LongitudeDegrees>-0.17015933990478515625</LongitudeDegrees>
            </Position>
            <AltitudeMeters>1007.79998779296875</AltitudeMeters>
            <DistanceMeters>6113.6451526029</DistanceMeters>
          </Trackpoint>
          <Trackpoint>
            <Time>2019-07-06T17:52:24.000Z</Time>
            <Position>
              <LatitudeDegrees>42.534487657248973846435546875</LatitudeDegrees>
              <LongitudeDegrees>-0.170132853090763092041015625</LongitudeDegrees>
            </Position>
            <AltitudeMeters>1008</AltitudeMeters>
            <DistanceMeters>6116.0454002508</DistanceMeters>
          </Trackpoint>
          <Trackpoint>
            <Time>2019-07-06T17:52:25.000Z</Time>
            <Position>
              <LatitudeDegrees>42.53448472358286380767822265625</LatitudeDegrees>
              <LongitudeDegrees>-0.1701212860643863677978515625</LongitudeDegrees>
            </Position>
            <AltitudeMeters>1008.20001220703125</AltitudeMeters>
            <DistanceMeters>6117.0510684673</DistanceMeters>
          </Trackpoint>
          <Trackpoint>
            <Time>2019-07-06T17:52:26.000Z</Time>
            <Position>
              <LatitudeDegrees>42.53448237664997577667236328125</LatitudeDegrees>
              <LongitudeDegrees>-0.17011164687573909759521484375</LongitudeDegrees>
            </Position>
            <AltitudeMeters>1008.20001220703125</AltitudeMeters>
            <DistanceMeters>6117.8794921571</DistanceMeters>
          </Trackpoint>
          <Trackpoint>
            <Time>2019-07-06T17:52:27.000Z</Time>
            <Position>
              <LatitudeDegrees>42.5344814546406269073486328125</LatitudeDegrees>
              <LongitudeDegrees>-0.17009823583066463470458984375</LongitudeDegrees>
            </Position>
            <AltitudeMeters>1008.20001220703125</AltitudeMeters>
            <DistanceMeters>6118.979505904</DistanceMeters>
          </Trackpoint>
          <Trackpoint>
            <Time>2019-07-06T17:52:28.000Z</Time>
            <Position>
              <LatitudeDegrees>42.53447927534580230712890625</LatitudeDegrees>
              <LongitudeDegrees>-0.1700877584517002105712890625</LongitudeDegrees>
            </Position>
            <AltitudeMeters>1008.4000244140625</AltitudeMeters>
            <DistanceMeters>6119.8709355014</DistanceMeters>
          </Trackpoint>
          <Trackpoint>
            <Time>2019-07-06T17:52:29.000Z</Time>
            <Position>
              <LatitudeDegrees>42.534478940069675445556640625</LatitudeDegrees>
              <LongitudeDegrees>-0.170075185596942901611328125</LongitudeDegrees>
            </Position>
            <AltitudeMeters>1008.4000244140625</AltitudeMeters>
            <DistanceMeters>6120.9031898404</DistanceMeters>
          </Trackpoint>
          <Trackpoint>
            <Time>2019-07-06T17:52:34.000Z</Time>
            <Position>
              <LatitudeDegrees>42.5344710610806941986083984375</LatitudeDegrees>
              <LongitudeDegrees>-0.17001508735120296478271484375</LongitudeDegrees>
            </Position>
            <AltitudeMeters>1009</AltitudeMeters>
            <DistanceMeters>6125.9099345122</DistanceMeters>
          </Trackpoint>
          <Trackpoint>
            <Time>2019-07-06T17:52:35.000Z</Time>
            <Position>
              <LatitudeDegrees>42.53446863032877445220947265625</LatitudeDegrees>
              <LongitudeDegrees>-0.1700052805244922637939453125</LongitudeDegrees>
            </Position>
            <AltitudeMeters>1009</AltitudeMeters>
            <DistanceMeters>6126.7598792842</DistanceMeters>
          </Trackpoint>
          <Trackpoint>
            <Time>2019-07-06T17:52:36.000Z</Time>
            <Position>
              <LatitudeDegrees>42.53446645103394985198974609375</LatitudeDegrees>
              <LongitudeDegrees>-0.16999530605971813201904296875</LongitudeDegrees>
            </Position>
            <AltitudeMeters>1009.20001220703125</AltitudeMeters>
            <DistanceMeters>6127.6098240563</DistanceMeters>
          </Trackpoint>
          <Trackpoint>
            <Time>2019-07-06T17:52:40.000Z</Time>
            <Position>
              <LatitudeDegrees>42.53446611575782299041748046875</LatitudeDegrees>
              <LongitudeDegrees>-0.16994367353618144989013671875</LongitudeDegrees>
            </Position>
            <AltitudeMeters>1009.20001220703125</AltitudeMeters>
            <DistanceMeters>6131.8446477619</DistanceMeters>
          </Trackpoint>
          <Trackpoint>
            <Time>2019-07-06T17:52:44.000Z</Time>
            <Position>
              <LatitudeDegrees>42.534468881785869598388671875</LatitudeDegrees>
              <LongitudeDegrees>-0.16989639960229396820068359375</LongitudeDegrees>
            </Position>
            <AltitudeMeters>1009</AltitudeMeters>
            <DistanceMeters>6135.7326225518</DistanceMeters>
          </Trackpoint>
          <Trackpoint>
            <Time>2019-07-06T17:52:46.000Z</Time>
            <Position>
              <LatitudeDegrees>42.53448422066867351531982421875</LatitudeDegrees>
              <LongitudeDegrees>-0.16986505128443241119384765625</LongitudeDegrees>
            </Position>
            <AltitudeMeters>1009.4000244140625</AltitudeMeters>
            <DistanceMeters>6138.8191627911</DistanceMeters>
          </Trackpoint>
          <Trackpoint>
            <Time>2019-07-06T17:52:47.000Z</Time>
            <Position>
              <LatitudeDegrees>42.53448665142059326171875</LatitudeDegrees>
              <LongitudeDegrees>-0.16985155642032623291015625</LongitudeDegrees>
            </Position>
            <AltitudeMeters>1009.5999755859375</AltitudeMeters>
            <DistanceMeters>6139.9634359597</DistanceMeters>
          </Trackpoint>
          <Trackpoint>
            <Time>2019-07-06T17:52:48.000Z</Time>
            <Position>
              <LatitudeDegrees>42.5344898365437984466552734375</LatitudeDegrees>
              <LongitudeDegrees>-0.1698399893939495086669921875</LongitudeDegrees>
            </Position>
            <AltitudeMeters>1010</AltitudeMeters>
            <DistanceMeters>6140.978043625</DistanceMeters>
          </Trackpoint>
          <Trackpoint>
            <Time>2019-07-06T17:52:49.000Z</Time>
            <Position>
              <LatitudeDegrees>42.534491680562496185302734375</LatitudeDegrees>
              <LongitudeDegrees>-0.16982716508209705352783203125</LongitudeDegrees>
            </Position>
            <AltitudeMeters>1010</AltitudeMeters>
            <DistanceMeters>6142.053148171</DistanceMeters>
          </Trackpoint>
          <Trackpoint>
            <Time>2019-07-06T17:52:50.000Z</Time>
            <Position>
              <LatitudeDegrees>42.5344931893050670623779296875</LatitudeDegrees>
              <LongitudeDegrees>-0.1698155142366886138916015625</LongitudeDegrees>
            </Position>
            <AltitudeMeters>1010.20001220703125</AltitudeMeters>
            <DistanceMeters>6143.0222343128</DistanceMeters>
          </Trackpoint>
          <Trackpoint>
            <Time>2019-07-06T17:52:54.000Z</Time>
            <Position>
              <LatitudeDegrees>42.534504421055316925048828125</LatitudeDegrees>
              <LongitudeDegrees>-0.16980252228677272796630859375</LongitudeDegrees>
            </Position>
            <AltitudeMeters>1010.20001220703125</AltitudeMeters>
            <DistanceMeters>6144.6653998117</DistanceMeters>
          </Trackpoint>
          <Trackpoint>
            <Time>2019-07-06T17:52:57.000Z</Time>
            <Position>
              <LatitudeDegrees>42.5345240347087383270263671875</LatitudeDegrees>
              <LongitudeDegrees>-0.16977804712951183319091796875</LongitudeDegrees>
            </Position>
            <AltitudeMeters>1010.4000244140625</AltitudeMeters>
            <DistanceMeters>6147.6310859813</DistanceMeters>
          </Trackpoint>
          <Trackpoint>
            <Time>2019-07-06T17:53:07.000Z</Time>
            <Position>
              <LatitudeDegrees>42.5345384515821933746337890625</LatitudeDegrees>
              <LongitudeDegrees>-0.1696616224944591522216796875</LongitudeDegrees>
            </Position>
            <AltitudeMeters>1010.20001220703125</AltitudeMeters>
            <DistanceMeters>6157.3135574447</DistanceMeters>
          </Trackpoint>
          <Trackpoint>
            <Time>2019-07-06T17:53:08.000Z</Time>
            <Position>
              <LatitudeDegrees>42.5345357693731784820556640625</LatitudeDegrees>
              <LongitudeDegrees>-0.16965080983936786651611328125</LongitudeDegrees>
            </Position>
            <AltitudeMeters>1010.5999755859375</AltitudeMeters>
            <DistanceMeters>6158.2494620419</DistanceMeters>
          </Trackpoint>
          <Trackpoint>
            <Time>2019-07-06T17:53:10.000Z</Time>
            <Position>
              <LatitudeDegrees>42.53453115932643413543701171875</LatitudeDegrees>
              <LongitudeDegrees>-0.16963438130915164947509765625</LongitudeDegrees>
            </Position>
            <AltitudeMeters>1010.79998779296875</AltitudeMeters>
            <DistanceMeters>6159.6906135198</DistanceMeters>
          </Trackpoint>
          <Trackpoint>
            <Time>2019-07-06T17:53:11.000Z</Time>
            <Position>
              <LatitudeDegrees>42.534529902040958404541015625</LatitudeDegrees>
              <LongitudeDegrees>-0.16962750814855098724365234375</LongitudeDegrees>
            </Position>
            <AltitudeMeters>1011</AltitudeMeters>
            <DistanceMeters>6160.2686384573</DistanceMeters>
          </Trackpoint>
          <Trackpoint>
            <Time>2019-07-06T17:53:12.000Z</Time>
            <Position>
              <LatitudeDegrees>42.534531243145465850830078125</LatitudeDegrees>
              <LongitudeDegrees>-0.1696237362921237945556640625</LongitudeDegrees>
            </Position>
            <AltitudeMeters>1011</AltitudeMeters>
            <DistanceMeters>6160.6112621485</DistanceMeters>
          </Trackpoint>
          <Trackpoint>
            <Time>2019-07-06T17:53:13.000Z</Time>
            <Position>
              <LatitudeDegrees>42.53453291952610015869140625</LatitudeDegrees>
              <LongitudeDegrees>-0.1696133427321910858154296875</LongitudeDegrees>
            </Position>
            <AltitudeMeters>1011</AltitudeMeters>
            <DistanceMeters>6161.4821963718</DistanceMeters>
          </Trackpoint>
          <Trackpoint>
            <Time>2019-07-06T17:53:14.000Z</Time>
            <Position>
              <LatitudeDegrees>42.5345441512763500213623046875</LatitudeDegrees>
              <LongitudeDegrees>-0.169587023556232452392578125</LongitudeDegrees>
            </Position>
            <AltitudeMeters>1011</AltitudeMeters>
            <DistanceMeters>6163.9747237224</DistanceMeters>
          </Trackpoint>
          <Trackpoint>
            <Time>2019-07-06T17:53:15.000Z</Time>
            <Position>
              <LatitudeDegrees>42.5345464982092380523681640625</LatitudeDegrees>
              <LongitudeDegrees>-0.16957185231149196624755859375</LongitudeDegrees>
            </Position>
            <AltitudeMeters>1011</AltitudeMeters>
            <DistanceMeters>6165.2496408805</DistanceMeters>
          </Trackpoint>
          <Trackpoint>
            <Time>2019-07-06T17:53:16.000Z</Time>
            <Position>
              <LatitudeDegrees>42.5345475040376186370849609375</LatitudeDegrees>
              <LongitudeDegrees>-0.1695603691041469573974609375</LongitudeDegrees>
            </Position>
            <AltitudeMeters>1011.20001220703125</AltitudeMeters>
            <DistanceMeters>6166.1951447503</DistanceMeters>
          </Trackpoint>
          <Trackpoint>
            <Time>2019-07-06T17:53:17.000Z</Time>
            <Position>
              <LatitudeDegrees>42.53456099890172481536865234375</LatitudeDegrees>
              <LongitudeDegrees>-0.16953882761299610137939453125</LongitudeDegrees>
            </Position>
            <AltitudeMeters>1011.20001220703125</AltitudeMeters>
            <DistanceMeters>6168.5150424982</DistanceMeters>
          </Trackpoint>
          <Trackpoint>
            <Time>2019-07-06T17:53:18.000Z</Time>
            <Position>
              <LatitudeDegrees>42.5345646031200885772705078125</LatitudeDegrees>
              <LongitudeDegrees>-0.16952977515757083892822265625</LongitudeDegrees>
            </Position>
            <AltitudeMeters>1011.20001220703125</AltitudeMeters>
            <DistanceMeters>6169.3649872703</DistanceMeters>
          </Trackpoint>
          <Trackpoint>
            <Time>2019-07-06T17:53:19.000Z</Time>
            <Position>
              <LatitudeDegrees>42.53457088954746723175048828125</LatitudeDegrees>
              <LongitudeDegrees>-0.169522650539875030517578125</LongitudeDegrees>
            </Position>
            <AltitudeMeters>1011.20001220703125</AltitudeMeters>
            <DistanceMeters>6170.2813917166</DistanceMeters>
          </Trackpoint>
          <Trackpoint>
            <Time>2019-07-06T17:53:20.000Z</Time>
            <Position>
              <LatitudeDegrees>42.5345746614038944244384765625</LatitudeDegrees>
              <LongitudeDegrees>-0.1695169508457183837890625</LongitudeDegrees>
            </Position>
            <AltitudeMeters>1011.20001220703125</AltitudeMeters>
            <DistanceMeters>6170.9117276299</DistanceMeters>
          </Trackpoint>
          <Trackpoint>
            <Time>2019-07-06T17:53:21.000Z</Time>
            <Position>
              <LatitudeDegrees>42.534577511250972747802734375</LatitudeDegrees>
              <LongitudeDegrees>-0.16951519064605236053466796875</LongitudeDegrees>
            </Position>
            <AltitudeMeters>1011</AltitudeMeters>
            <DistanceMeters>6171.2672850376</DistanceMeters>
          </Trackpoint>
          <Trackpoint>
            <Time>2019-07-06T17:53:22.000Z</Time>
            <Position>
              <LatitudeDegrees>42.534584216773509979248046875</LatitudeDegrees>
              <LongitudeDegrees>-0.169512927532196044921875</LongitudeDegrees>
            </Position>
            <AltitudeMeters>1011</AltitudeMeters>
            <DistanceMeters>6172.0392857146</DistanceMeters>
          </Trackpoint>
          <Trackpoint>
            <Time>2019-07-06T17:53:23.000Z</Time>
            <Position>
              <LatitudeDegrees>42.5345870666205883026123046875</LatitudeDegrees>
              <LongitudeDegrees>-0.1695117540657520294189453125</LongitudeDegrees>
            </Position>
            <AltitudeMeters>1011</AltitudeMeters>
            <DistanceMeters>6172.3684679094</DistanceMeters>
          </Trackpoint>
          <Trackpoint>
            <Time>2019-07-06T17:53:26.000Z</Time>
            <Position>
              <LatitudeDegrees>42.5345952808856964111328125</LatitudeDegrees>
              <LongitudeDegrees>-0.1695142686367034912109375</LongitudeDegrees>
            </Position>
            <AltitudeMeters>1011</AltitudeMeters>
            <DistanceMeters>6173.3043725066</DistanceMeters>
          </Trackpoint>
          <Trackpoint>
            <Time>2019-07-06T17:53:28.000Z</Time>
            <Position>
              <LatitudeDegrees>42.53459519706666469573974609375</LatitudeDegrees>
              <LongitudeDegrees>-0.1695147715508937835693359375</LongitudeDegrees>
            </Position>
            <AltitudeMeters>1011</AltitudeMeters>
            <DistanceMeters>6173.3043725066</DistanceMeters>
          </Trackpoint>
          <Trackpoint>
            <Time>2019-07-06T17:53:40.000Z</Time>
            <Position>
              <LatitudeDegrees>42.5346313230693340301513671875</LatitudeDegrees>
              <LongitudeDegrees>-0.16949490644037723541259765625</LongitudeDegrees>
            </Position>
            <AltitudeMeters>1009.4000244140625</AltitudeMeters>
            <DistanceMeters>6177.6424226802</DistanceMeters>
          </Trackpoint>
          <Trackpoint>
            <Time>2019-07-06T17:53:48.000Z</Time>
            <Position>
              <LatitudeDegrees>42.534639202058315277099609375</LatitudeDegrees>
              <LongitudeDegrees>-0.16953564248979091644287109375</LongitudeDegrees>
            </Position>
            <AltitudeMeters>1009.20001220703125</AltitudeMeters>
            <DistanceMeters>6181.0962221797</DistanceMeters>
          </Trackpoint>
          <Trackpoint>
            <Time>2019-07-06T17:53:56.000Z</Time>
            <Position>
              <LatitudeDegrees>42.53464959561824798583984375</LatitudeDegrees>
              <LongitudeDegrees>-0.16952910460531711578369140625</LongitudeDegrees>
            </Position>
            <AltitudeMeters>1009.4000244140625</AltitudeMeters>
            <DistanceMeters>6182.3711393377</DistanceMeters>
          </Trackpoint>
          <Trackpoint>
            <Time>2019-07-06T17:54:00.000Z</Time>
            <Position>
              <LatitudeDegrees>42.5346464104950428009033203125</LatitudeDegrees>
              <LongitudeDegrees>-0.16951435245573520660400390625</LongitudeDegrees>
            </Position>
            <AltitudeMeters>1009.4000244140625</AltitudeMeters>
            <DistanceMeters>6183.6318111642</DistanceMeters>
          </Trackpoint>
          <Trackpoint>
            <Time>2019-07-06T17:54:03.000Z</Time>
            <Position>
              <LatitudeDegrees>42.534641884267330169677734375</LatitudeDegrees>
              <LongitudeDegrees>-0.1695137657225131988525390625</LongitudeDegrees>
            </Position>
            <AltitudeMeters>1009.4000244140625</AltitudeMeters>
            <DistanceMeters>6184.1346452725</DistanceMeters>
          </Trackpoint>
          <Trackpoint>
            <Time>2019-07-06T17:54:06.000Z</Time>
            <Position>
              <LatitudeDegrees>42.53463073633611202239990234375</LatitudeDegrees>
              <LongitudeDegrees>-0.16952097415924072265625</LongitudeDegrees>
            </Position>
            <AltitudeMeters>1009.4000244140625</AltitudeMeters>
            <DistanceMeters>6185.5051400373</DistanceMeters>
          </Trackpoint>
          <Trackpoint>
            <Time>2019-07-06T17:54:10.000Z</Time>
            <Position>
              <LatitudeDegrees>42.5346276350319385528564453125</LatitudeDegrees>
              <LongitudeDegrees>-0.16950848512351512908935546875</LongitudeDegrees>
            </Position>
            <AltitudeMeters>1008.79998779296875</AltitudeMeters>
            <DistanceMeters>6186.5802445833</DistanceMeters>
          </Trackpoint>
          <Trackpoint>
            <Time>2019-07-06T17:54:13.000Z</Time>
            <Position>
              <LatitudeDegrees>42.53462855704128742218017578125</LatitudeDegrees>
              <LongitudeDegrees>-0.16949876211583614349365234375</LongitudeDegrees>
            </Position>
            <AltitudeMeters>1008.5999755859375</AltitudeMeters>
            <DistanceMeters>6187.380953911</DistanceMeters>
          </Trackpoint>
          <Trackpoint>
            <Time>2019-07-06T17:54:17.000Z</Time>
            <Position>
              <LatitudeDegrees>42.53463207744061946868896484375</LatitudeDegrees>
              <LongitudeDegrees>-0.16948367469012737274169921875</LongitudeDegrees>
            </Position>
            <AltitudeMeters>1008.5999755859375</AltitudeMeters>
            <DistanceMeters>6188.6769455077</DistanceMeters>
          </Trackpoint>
          <Trackpoint>
            <Time>2019-07-06T17:54:28.000Z</Time>
            <Position>
              <LatitudeDegrees>42.5346591509878635406494140625</LatitudeDegrees>
              <LongitudeDegrees>-0.16940337605774402618408203125</LongitudeDegrees>
            </Position>
            <AltitudeMeters>1008.4000244140625</AltitudeMeters>
            <DistanceMeters>6195.919577216</DistanceMeters>
          </Trackpoint>
          <Trackpoint>
            <Time>2019-07-06T17:54:32.000Z</Time>
            <Position>
              <LatitudeDegrees>42.53466292284429073333740234375</LatitudeDegrees>
              <LongitudeDegrees>-0.16939952038228511810302734375</LongitudeDegrees>
            </Position>
            <AltitudeMeters>1008.4000244140625</AltitudeMeters>
            <DistanceMeters>6196.4400599663</DistanceMeters>
          </Trackpoint>
          <Trackpoint>
            <Time>2019-07-06T17:54:37.000Z</Time>
            <Position>
              <LatitudeDegrees>42.534653954207897186279296875</LatitudeDegrees>
              <LongitudeDegrees>-0.16943858005106449127197265625</LongitudeDegrees>
            </Position>
            <AltitudeMeters>1008.5999755859375</AltitudeMeters>
            <DistanceMeters>6199.7943818425</DistanceMeters>
          </Trackpoint>
          <Trackpoint>
            <Time>2019-07-06T17:54:42.000Z</Time>
            <Position>
              <LatitudeDegrees>42.5346205942332744598388671875</LatitudeDegrees>
              <LongitudeDegrees>-0.16945484094321727752685546875</LongitudeDegrees>
            </Position>
            <AltitudeMeters>1008.5999755859375</AltitudeMeters>
            <DistanceMeters>6203.7399935555</DistanceMeters>
          </Trackpoint>
          <Trackpoint>
            <Time>2019-07-06T17:54:47.000Z</Time>
            <Position>
              <LatitudeDegrees>42.53460927866399288177490234375</LatitudeDegrees>
              <LongitudeDegrees>-0.16947009600698947906494140625</LongitudeDegrees>
            </Position>
            <AltitudeMeters>1008.79998779296875</AltitudeMeters>
            <DistanceMeters>6205.5152390818</DistanceMeters>
          </Trackpoint>
          <Trackpoint>
            <Time>2019-07-06T17:55:03.000Z</Time>
            <Position>
              <LatitudeDegrees>42.53461078740656375885009765625</LatitudeDegrees>
              <LongitudeDegrees>-0.16946925781667232513427734375</LongitudeDegrees>
            </Position>
            <AltitudeMeters>1008.4000244140625</AltitudeMeters>
            <DistanceMeters>6205.7052925106</DistanceMeters>
          </Trackpoint>
          <Trackpoint>
            <Time>2019-07-06T17:55:04.000Z</Time>
            <Position>
              <LatitudeDegrees>42.5346112065017223358154296875</LatitudeDegrees>
              <LongitudeDegrees>-0.16946808435022830963134765625</LongitudeDegrees>
            </Position>
            <AltitudeMeters>1008.4000244140625</AltitudeMeters>
            <DistanceMeters>6205.8003192249</DistanceMeters>
          </Trackpoint>
          <Trackpoint>
            <Time>2019-07-06T17:55:05.000Z</Time>
            <Position>
              <LatitudeDegrees>42.5346113741397857666015625</LatitudeDegrees>
              <LongitudeDegrees>-0.16946707852184772491455078125</LongitudeDegrees>
            </Position>
            <AltitudeMeters>1008.4000244140625</AltitudeMeters>
            <DistanceMeters>6205.8953459393</DistanceMeters>
          </Trackpoint>
          <Trackpoint>
            <Time>2019-07-06T17:55:08.000Z</Time>
            <Position>
              <LatitudeDegrees>42.53461162559688091278076171875</LatitudeDegrees>
              <LongitudeDegrees>-0.1694633066654205322265625</LongitudeDegrees>
            </Position>
            <AltitudeMeters>1008.4000244140625</AltitudeMeters>
            <DistanceMeters>6206.224528134</DistanceMeters>
          </Trackpoint>
          <Trackpoint>
            <Time>2019-07-06T17:55:11.000Z</Time>
            <Position>
              <LatitudeDegrees>42.53461112268269062042236328125</LatitudeDegrees>
              <LongitudeDegrees>-0.1694607920944690704345703125</LongitudeDegrees>
            </Position>
            <AltitudeMeters>1008.4000244140625</AltitudeMeters>
            <DistanceMeters>6206.4572950962</DistanceMeters>
          </Trackpoint>
          <Trackpoint>
            <Time>2019-07-06T17:55:12.000Z</Time>
            <Position>
              <LatitudeDegrees>42.53461229614913463592529296875</LatitudeDegrees>
              <LongitudeDegrees>-0.16945987008512020111083984375</LongitudeDegrees>
            </Position>
            <AltitudeMeters>1008.4000244140625</AltitudeMeters>
            <DistanceMeters>6206.6473485249</DistanceMeters>
          </Trackpoint>
          <Trackpoint>
            <Time>2019-07-06T17:55:13.000Z</Time>
            <Position>
              <LatitudeDegrees>42.534612715244293212890625</LatitudeDegrees>
              <LongitudeDegrees>-0.1694604568183422088623046875</LongitudeDegrees>
            </Position>
            <AltitudeMeters>1008.4000244140625</AltitudeMeters>
            <DistanceMeters>6206.6473485249</DistanceMeters>
          </Trackpoint>
          <Trackpoint>
            <Time>2019-07-06T17:55:38.000Z</Time>
            <Position>
              <LatitudeDegrees>42.53459117375314235687255859375</LatitudeDegrees>
              <LongitudeDegrees>-0.169518627226352691650390625</LongitudeDegrees>
            </Position>
            <AltitudeMeters>1008.79998779296875</AltitudeMeters>
            <DistanceMeters>6211.9866323096</DistanceMeters>
          </Trackpoint>
          <Trackpoint>
            <Time>2019-07-06T17:56:11.000Z</Time>
            <Position>
              <LatitudeDegrees>42.534597627818584442138671875</LatitudeDegrees>
              <LongitudeDegrees>-0.1695048809051513671875</LongitudeDegrees>
            </Position>
            <AltitudeMeters>1008.5999755859375</AltitudeMeters>
            <DistanceMeters>6213.3271490803</DistanceMeters>
          </Trackpoint>
          <Trackpoint>
            <Time>2019-07-06T17:56:28.000Z</Time>
            <Position>
              <LatitudeDegrees>42.53458597697317600250244140625</LatitudeDegrees>
              <LongitudeDegrees>-0.169479735195636749267578125</LongitudeDegrees>
            </Position>
            <AltitudeMeters>1008.5999755859375</AltitudeMeters>
            <DistanceMeters>6215.7647278585</DistanceMeters>
          </Trackpoint>
          <Trackpoint>
            <Time>2019-07-06T17:56:40.000Z</Time>
            <Position>
              <LatitudeDegrees>42.5346113741397857666015625</LatitudeDegrees>
              <LongitudeDegrees>-0.16949004493653774261474609375</LongitudeDegrees>
            </Position>
            <AltitudeMeters>1008.5999755859375</AltitudeMeters>
            <DistanceMeters>6218.7151504879</DistanceMeters>
          </Trackpoint>
          <Trackpoint>
            <Time>2019-07-06T17:56:51.000Z</Time>
            <Position>
              <LatitudeDegrees>42.53460894338786602020263671875</LatitudeDegrees>
              <LongitudeDegrees>-0.16949054785072803497314453125</LongitudeDegrees>
            </Position>
            <AltitudeMeters>1008.5999755859375</AltitudeMeters>
            <DistanceMeters>6219.000230631</DistanceMeters>
          </Trackpoint>
          <Trackpoint>
            <Time>2019-07-06T17:57:00.000Z</Time>
            <Position>
              <LatitudeDegrees>42.53460324369370937347412109375</LatitudeDegrees>
              <LongitudeDegrees>-0.1695048809051513671875</LongitudeDegrees>
            </Position>
            <AltitudeMeters>1008.5999755859375</AltitudeMeters>
            <DistanceMeters>6220.337375027</DistanceMeters>
          </Trackpoint>
          <Trackpoint>
            <Time>2019-07-06T17:57:18.000Z</Time>
            <Position>
              <LatitudeDegrees>42.53460131585597991943359375</LatitudeDegrees>
              <LongitudeDegrees>-0.1694909669458866119384765625</LongitudeDegrees>
            </Position>
            <AltitudeMeters>1008.5999755859375</AltitudeMeters>
            <DistanceMeters>6221.497323901</DistanceMeters>
          </Trackpoint>
          <Trackpoint>
            <Time>2019-07-06T17:57:25.000Z</Time>
            <Position>
              <LatitudeDegrees>42.5346008129417896270751953125</LatitudeDegrees>
              <LongitudeDegrees>-0.16949624754488468170166015625</LongitudeDegrees>
            </Position>
            <AltitudeMeters>1008.5999755859375</AltitudeMeters>
            <DistanceMeters>6221.9430386997</DistanceMeters>
          </Trackpoint>
          <Trackpoint>
            <Time>2019-07-06T17:57:28.000Z</Time>
            <Position>
              <LatitudeDegrees>42.53459368832409381866455078125</LatitudeDegrees>
              <LongitudeDegrees>-0.16950446180999279022216796875</LongitudeDegrees>
            </Position>
            <AltitudeMeters>1008.5999755859375</AltitudeMeters>
            <DistanceMeters>6222.9840042002</DistanceMeters>
          </Trackpoint>
          <Trackpoint>
            <Time>2019-07-06T17:57:31.000Z</Time>
            <Position>
              <LatitudeDegrees>42.5345952808856964111328125</LatitudeDegrees>
              <LongitudeDegrees>-0.1695090718567371368408203125</LongitudeDegrees>
            </Position>
            <AltitudeMeters>1008.5999755859375</AltitudeMeters>
            <DistanceMeters>6223.3871684049</DistanceMeters>
          </Trackpoint>
          <Trackpoint>
            <Time>2019-07-06T17:57:33.000Z</Time>
            <Position>
              <LatitudeDegrees>42.53459016792476177215576171875</LatitudeDegrees>
              <LongitudeDegrees>-0.16952030360698699951171875</LongitudeDegrees>
            </Position>
            <AltitudeMeters>1008.5999755859375</AltitudeMeters>
            <DistanceMeters>6224.4706396495</DistanceMeters>
          </Trackpoint>
          <Trackpoint>
            <Time>2019-07-06T17:57:35.000Z</Time>
            <Position>
              <LatitudeDegrees>42.534584887325763702392578125</LatitudeDegrees>
              <LongitudeDegrees>-0.16953983344137668609619140625</LongitudeDegrees>
            </Position>
            <AltitudeMeters>1008.5999755859375</AltitudeMeters>
            <DistanceMeters>6226.175833074</DistanceMeters>
          </Trackpoint>
          <Trackpoint>
            <Time>2019-07-06T17:58:02.000Z</Time>
            <Position>
              <LatitudeDegrees>42.53454909659922122955322265625</LatitudeDegrees>
              <LongitudeDegrees>-0.16958995722234249114990234375</LongitudeDegrees>
            </Position>
            <AltitudeMeters>1008.5999755859375</AltitudeMeters>
            <DistanceMeters>6231.9003546623</DistanceMeters>
          </Trackpoint>
          <Trackpoint>
            <Time>2019-07-06T17:58:09.000Z</Time>
            <Position>
              <LatitudeDegrees>42.53455664031207561492919921875</LatitudeDegrees>
              <LongitudeDegrees>-0.169591046869754791259765625</LongitudeDegrees>
            </Position>
            <AltitudeMeters>1008.5999755859375</AltitudeMeters>
            <DistanceMeters>6232.7396078795</DistanceMeters>
          </Trackpoint>
          <Trackpoint>
            <Time>2019-07-06T17:58:21.000Z</Time>
            <Position>
              <LatitudeDegrees>42.53457248210906982421875</LatitudeDegrees>
              <LongitudeDegrees>-0.16955785453319549560546875</LongitudeDegrees>
            </Position>
            <AltitudeMeters>1008.5999755859375</AltitudeMeters>
            <DistanceMeters>6235.9816765063</DistanceMeters>
          </Trackpoint>
          <Trackpoint>
            <Time>2019-07-06T17:58:26.000Z</Time>
            <Position>
              <LatitudeDegrees>42.53457985818386077880859375</LatitudeDegrees>
              <LongitudeDegrees>-0.1695389114320278167724609375</LongitudeDegrees>
            </Position>
            <AltitudeMeters>1008.5999755859375</AltitudeMeters>
            <DistanceMeters>6237.7364574235</DistanceMeters>
          </Trackpoint>
          <Trackpoint>
            <Time>2019-07-06T17:58:47.000Z</Time>
            <Position>
              <LatitudeDegrees>42.53457876853644847869873046875</LatitudeDegrees>
              <LongitudeDegrees>-0.1695089042186737060546875</LongitudeDegrees>
            </Position>
            <AltitudeMeters>1008.5999755859375</AltitudeMeters>
            <DistanceMeters>6240.2016635907</DistanceMeters>
          </Trackpoint>
          <Trackpoint>
            <Time>2019-07-06T17:58:48.000Z</Time>
            <Position>
              <LatitudeDegrees>42.5345791876316070556640625</LatitudeDegrees>
              <LongitudeDegrees>-0.16950898803770542144775390625</LongitudeDegrees>
            </Position>
            <AltitudeMeters>1008.5999755859375</AltitudeMeters>
            <DistanceMeters>6240.2016635907</DistanceMeters>
          </Trackpoint>
          <Trackpoint>
            <Time>2019-07-06T17:58:55.000Z</Time>
            <Position>
              <LatitudeDegrees>42.53457809798419475555419921875</LatitudeDegrees>
              <LongitudeDegrees>-0.16949926503002643585205078125</LongitudeDegrees>
            </Position>
            <AltitudeMeters>1008.5999755859375</AltitudeMeters>
            <DistanceMeters>6241.0079920002</DistanceMeters>
          </Trackpoint>
          <Trackpoint>
            <Time>2019-07-06T17:58:57.000Z</Time>
            <Position>
              <LatitudeDegrees>42.5345793552696704864501953125</LatitudeDegrees>
              <LongitudeDegrees>-0.169500522315502166748046875</LongitudeDegrees>
            </Position>
            <AltitudeMeters>1008.5999755859375</AltitudeMeters>
            <DistanceMeters>6241.1423800684</DistanceMeters>
          </Trackpoint>
          <Trackpoint>
            <Time>2019-07-06T17:58:58.000Z</Time>
            <Position>
              <LatitudeDegrees>42.534578852355480194091796875</LatitudeDegrees>
              <LongitudeDegrees>-0.16950211487710475921630859375</LongitudeDegrees>
            </Position>
            <AltitudeMeters>1008.5999755859375</AltitudeMeters>
            <DistanceMeters>6241.3069711658</DistanceMeters>
          </Trackpoint>
          <Trackpoint>
            <Time>2019-07-06T17:59:06.000Z</Time>
            <Position>
              <LatitudeDegrees>42.53458228893578052520751953125</LatitudeDegrees>
              <LongitudeDegrees>-0.16951519064605236053466796875</LongitudeDegrees>
            </Position>
            <AltitudeMeters>1008.5999755859375</AltitudeMeters>
            <DistanceMeters>6242.4472917382</DistanceMeters>
          </Trackpoint>
          <Trackpoint>
            <Time>2019-07-06T17:59:09.000Z</Time>
            <Position>
              <LatitudeDegrees>42.534584216773509979248046875</LatitudeDegrees>
              <LongitudeDegrees>-0.16951234079897403717041015625</LongitudeDegrees>
            </Position>
            <AltitudeMeters>1008.5999755859375</AltitudeMeters>
            <DistanceMeters>6242.7624596949</DistanceMeters>
          </Trackpoint>
          <Trackpoint>
            <Time>2019-07-06T17:59:20.000Z</Time>
            <Position>
              <LatitudeDegrees>42.53461028449237346649169921875</LatitudeDegrees>
              <LongitudeDegrees>-0.1694695092737674713134765625</LongitudeDegrees>
            </Position>
            <AltitudeMeters>1008.5999755859375</AltitudeMeters>
            <DistanceMeters>6247.3197808182</DistanceMeters>
          </Trackpoint>
          <Trackpoint>
            <Time>2019-07-06T17:59:27.000Z</Time>
            <Position>
              <LatitudeDegrees>42.53460106439888477325439453125</LatitudeDegrees>
              <LongitudeDegrees>-0.16945987008512020111083984375</LongitudeDegrees>
            </Position>
            <AltitudeMeters>1008.5999755859375</AltitudeMeters>
            <DistanceMeters>6248.6157724148</DistanceMeters>
          </Trackpoint>
          <Trackpoint>
            <Time>2019-07-06T17:59:34.000Z</Time>
            <Position>
              <LatitudeDegrees>42.53457985818386077880859375</LatitudeDegrees>
              <LongitudeDegrees>-0.16949993558228015899658203125</LongitudeDegrees>
            </Position>
            <AltitudeMeters>1008.5999755859375</AltitudeMeters>
            <DistanceMeters>6252.6608309455</DistanceMeters>
          </Trackpoint>
          <Trackpoint>
            <Time>2019-07-06T17:59:45.000Z</Time>
            <Position>
              <LatitudeDegrees>42.53456988371908664703369140625</LatitudeDegrees>
              <LongitudeDegrees>-0.16947043128311634063720703125</LongitudeDegrees>
            </Position>
            <AltitudeMeters>1008.5999755859375</AltitudeMeters>
            <DistanceMeters>6255.3215789479</DistanceMeters>
          </Trackpoint>
          <Trackpoint>
            <Time>2019-07-06T17:59:46.000Z</Time>
            <Position>
              <LatitudeDegrees>42.534569464623928070068359375</LatitudeDegrees>
              <LongitudeDegrees>-0.169460959732532501220703125</LongitudeDegrees>
            </Position>
            <AltitudeMeters>1008.5999755859375</AltitudeMeters>
            <DistanceMeters>6256.0994061277</DistanceMeters>
          </Trackpoint>
          <Trackpoint>
            <Time>2019-07-06T17:59:48.000Z</Time>
            <Position>
              <LatitudeDegrees>42.534562088549137115478515625</LatitudeDegrees>
              <LongitudeDegrees>-0.16944796778261661529541015625</LongitudeDegrees>
            </Position>
            <AltitudeMeters>1008.5999755859375</AltitudeMeters>
            <DistanceMeters>6257.4432868102</DistanceMeters>
          </Trackpoint>
          <Trackpoint>
            <Time>2019-07-06T17:59:49.000Z</Time>
            <Position>
              <LatitudeDegrees>42.5345575623214244842529296875</LatitudeDegrees>
              <LongitudeDegrees>-0.169444195926189422607421875</LongitudeDegrees>
            </Position>
            <AltitudeMeters>1008.79998779296875</AltitudeMeters>
            <DistanceMeters>6258.0290708189</DistanceMeters>
          </Trackpoint>
          <Trackpoint>
            <Time>2019-07-06T17:59:51.000Z</Time>
            <Position>
              <LatitudeDegrees>42.5345498509705066680908203125</LatitudeDegrees>
              <LongitudeDegrees>-0.16943807713687419891357421875</LongitudeDegrees>
            </Position>
            <AltitudeMeters>1009.5999755859375</AltitudeMeters>
            <DistanceMeters>6259.0257194074</DistanceMeters>
          </Trackpoint>
          <Trackpoint>
            <Time>2019-07-06T17:59:56.000Z</Time>
            <Position>
              <LatitudeDegrees>42.53453333862125873565673828125</LatitudeDegrees>
              <LongitudeDegrees>-0.16945601440966129302978515625</LongitudeDegrees>
            </Position>
            <AltitudeMeters>1010</AltitudeMeters>
            <DistanceMeters>6261.376550491</DistanceMeters>
          </Trackpoint>
          <Trackpoint>
            <Time>2019-07-06T17:59:58.000Z</Time>
            <Position>
              <LatitudeDegrees>42.534532584249973297119140625</LatitudeDegrees>
              <LongitudeDegrees>-0.1694436930119991302490234375</LongitudeDegrees>
            </Position>
            <AltitudeMeters>1010</AltitudeMeters>
            <DistanceMeters>6262.3866983209</DistanceMeters>
          </Trackpoint>
          <Trackpoint>
            <Time>2019-07-06T18:00:04.000Z</Time>
            <Position>
              <LatitudeDegrees>42.534532248973846435546875</LatitudeDegrees>
              <LongitudeDegrees>-0.169420726597309112548828125</LongitudeDegrees>
            </Position>
            <AltitudeMeters>1010</AltitudeMeters>
            <DistanceMeters>6264.2729247439</DistanceMeters>
          </Trackpoint>
          <Trackpoint>
            <Time>2019-07-06T18:00:07.000Z</Time>
            <Position>
              <LatitudeDegrees>42.5345228612422943115234375</LatitudeDegrees>
              <LongitudeDegrees>-0.16940806992352008819580078125</LongitudeDegrees>
            </Position>
            <AltitudeMeters>1010.4000244140625</AltitudeMeters>
            <DistanceMeters>6265.7450722727</DistanceMeters>
          </Trackpoint>
          <Trackpoint>
            <Time>2019-07-06T18:00:09.000Z</Time>
            <Position>
              <LatitudeDegrees>42.53451741300523281097412109375</LatitudeDegrees>
              <LongitudeDegrees>-0.16939616762101650238037109375</LongitudeDegrees>
            </Position>
            <AltitudeMeters>1010.5999755859375</AltitudeMeters>
            <DistanceMeters>6266.8932844311</DistanceMeters>
          </Trackpoint>
          <Trackpoint>
            <Time>2019-07-06T18:00:10.000Z</Time>
            <Position>
              <LatitudeDegrees>42.5345174968242645263671875</LatitudeDegrees>
              <LongitudeDegrees>-0.1693917252123355865478515625</LongitudeDegrees>
            </Position>
            <AltitudeMeters>1010.79998779296875</AltitudeMeters>
            <DistanceMeters>6267.2613213133</DistanceMeters>
          </Trackpoint>
          <Trackpoint>
            <Time>2019-07-06T18:00:13.000Z</Time>
            <Position>
              <LatitudeDegrees>42.534510791301727294921875</LatitudeDegrees>
              <LongitudeDegrees>-0.169322155416011810302734375</LongitudeDegrees>
            </Position>
            <AltitudeMeters>1011</AltitudeMeters>
            <DistanceMeters>6273.0149514929</DistanceMeters>
          </Trackpoint>
          <Trackpoint>
            <Time>2019-07-06T18:00:16.000Z</Time>
            <Position>
              <LatitudeDegrees>42.53452529199421405792236328125</LatitudeDegrees>
              <LongitudeDegrees>-0.16928200609982013702392578125</LongitudeDegrees>
            </Position>
            <AltitudeMeters>1011.20001220703125</AltitudeMeters>
            <DistanceMeters>6276.6830319039</DistanceMeters>
          </Trackpoint>
          <Trackpoint>
            <Time>2019-07-06T18:00:18.000Z</Time>
            <Position>
              <LatitudeDegrees>42.534526884555816650390625</LatitudeDegrees>
              <LongitudeDegrees>-0.16926457174122333526611328125</LongitudeDegrees>
            </Position>
            <AltitudeMeters>1011.20001220703125</AltitudeMeters>
            <DistanceMeters>6278.1241833818</DistanceMeters>
          </Trackpoint>
          <Trackpoint>
            <Time>2019-07-06T18:00:22.000Z</Time>
            <Position>
              <LatitudeDegrees>42.5345475040376186370849609375</LatitudeDegrees>
              <LongitudeDegrees>-0.1692616380751132965087890625</LongitudeDegrees>
            </Position>
            <AltitudeMeters>1011</AltitudeMeters>
            <DistanceMeters>6280.4323742538</DistanceMeters>
          </Trackpoint>
          <Trackpoint>
            <Time>2019-07-06T18:00:25.000Z</Time>
            <Position>
              <LatitudeDegrees>42.53454959951341152191162109375</LatitudeDegrees>
              <LongitudeDegrees>-0.16928686760365962982177734375</LongitudeDegrees>
            </Position>
            <AltitudeMeters>1011</AltitudeMeters>
            <DistanceMeters>6282.5143052549</DistanceMeters>
          </Trackpoint>
          <Trackpoint>
            <Time>2019-07-06T18:00:33.000Z</Time>
            <Position>
              <LatitudeDegrees>42.534575499594211578369140625</LatitudeDegrees>
              <LongitudeDegrees>-0.16926775686442852020263671875</LongitudeDegrees>
            </Position>
            <AltitudeMeters>1011.79998779296875</AltitudeMeters>
            <DistanceMeters>6285.7951361133</DistanceMeters>
          </Trackpoint>
          <Trackpoint>
            <Time>2019-07-06T18:00:37.000Z</Time>
            <Position>
              <LatitudeDegrees>42.53459268249571323394775390625</LatitudeDegrees>
              <LongitudeDegrees>-0.1692247577011585235595703125</LongitudeDegrees>
            </Position>
            <AltitudeMeters>1012.20001220703125</AltitudeMeters>
            <DistanceMeters>6289.8065693014</DistanceMeters>
          </Trackpoint>
          <Trackpoint>
            <Time>2019-07-06T18:00:41.000Z</Time>
            <Position>
              <LatitudeDegrees>42.53459720872342586517333984375</LatitudeDegrees>
              <LongitudeDegrees>-0.169172622263431549072265625</LongitudeDegrees>
            </Position>
            <AltitudeMeters>1012.4000244140625</AltitudeMeters>
            <DistanceMeters>6294.113282319</DistanceMeters>
          </Trackpoint>
          <Trackpoint>
            <Time>2019-07-06T18:00:47.000Z</Time>
            <Position>
              <LatitudeDegrees>42.5345845520496368408203125</LatitudeDegrees>
              <LongitudeDegrees>-0.16910397447645664215087890625</LongitudeDegrees>
            </Position>
            <AltitudeMeters>1012.79998779296875</AltitudeMeters>
            <DistanceMeters>6299.9169178293</DistanceMeters>
          </Trackpoint>
          <Trackpoint>
            <Time>2019-07-06T18:00:48.000Z</Time>
            <Position>
              <LatitudeDegrees>42.534582875669002532958984375</LatitudeDegrees>
              <LongitudeDegrees>-0.16909257508814334869384765625</LongitudeDegrees>
            </Position>
            <AltitudeMeters>1012.79998779296875</AltitudeMeters>
            <DistanceMeters>6300.867184973</DistanceMeters>
          </Trackpoint>
          <Trackpoint>
            <Time>2019-07-06T18:00:51.000Z</Time>
            <Position>
              <LatitudeDegrees>42.53459000028669834136962890625</LatitudeDegrees>
              <LongitudeDegrees>-0.169055275619029998779296875</LongitudeDegrees>
            </Position>
            <AltitudeMeters>1013</AltitudeMeters>
            <DistanceMeters>6304.0274483397</DistanceMeters>
          </Trackpoint>
          <Trackpoint>
            <Time>2019-07-06T18:00:54.000Z</Time>
            <Position>
              <LatitudeDegrees>42.53459192812442779541015625</LatitudeDegrees>
              <LongitudeDegrees>-0.1690356619656085968017578125</LongitudeDegrees>
            </Position>
            <AltitudeMeters>1013.20001220703125</AltitudeMeters>
            <DistanceMeters>6305.6540436791</DistanceMeters>
          </Trackpoint>
          <Trackpoint>
            <Time>2019-07-06T18:00:56.000Z</Time>
            <Position>
              <LatitudeDegrees>42.53458580933511257171630859375</LatitudeDegrees>
              <LongitudeDegrees>-0.16901965253055095672607421875</LongitudeDegrees>
            </Position>
            <AltitudeMeters>1013.20001220703125</AltitudeMeters>
            <DistanceMeters>6307.1323124298</DistanceMeters>
          </Trackpoint>
          <Trackpoint>
            <Time>2019-07-06T18:00:57.000Z</Time>
            <Position>
              <LatitudeDegrees>42.53457491286098957061767578125</LatitudeDegrees>
              <LongitudeDegrees>-0.1690153777599334716796875</LongitudeDegrees>
            </Position>
            <AltitudeMeters>1013.20001220703125</AltitudeMeters>
            <DistanceMeters>6308.40012693</DistanceMeters>
          </Trackpoint>
          <Trackpoint>
            <Time>2019-07-06T18:00:58.000Z</Time>
            <Position>
              <LatitudeDegrees>42.5345652736723423004150390625</LatitudeDegrees>
              <LongitudeDegrees>-0.169011019170284271240234375</LongitudeDegrees>
            </Position>
            <AltitudeMeters>1013.4000244140625</AltitudeMeters>
            <DistanceMeters>6309.5325009208</DistanceMeters>
          </Trackpoint>
          <Trackpoint>
            <Time>2019-07-06T18:00:59.000Z</Time>
            <Position>
              <LatitudeDegrees>42.53456435166299343109130859375</LatitudeDegrees>
              <LongitudeDegrees>-0.16900305636227130889892578125</LongitudeDegrees>
            </Position>
            <AltitudeMeters>1013.4000244140625</AltitudeMeters>
            <DistanceMeters>6310.1908653103</DistanceMeters>
          </Trackpoint>
          <Trackpoint>
            <Time>2019-07-06T18:01:00.000Z</Time>
            <Position>
              <LatitudeDegrees>42.5345508567988872528076171875</LatitudeDegrees>
              <LongitudeDegrees>-0.16900037415325641632080078125</LongitudeDegrees>
            </Position>
            <AltitudeMeters>1013.5999755859375</AltitudeMeters>
            <DistanceMeters>6311.7053419251</DistanceMeters>
          </Trackpoint>
          <Trackpoint>
            <Time>2019-07-06T18:01:01.000Z</Time>
            <Position>
              <LatitudeDegrees>42.53453962504863739013671875</LatitudeDegrees>
              <LongitudeDegrees>-0.16900263726711273193359375</LongitudeDegrees>
            </Position>
            <AltitudeMeters>1013.79998779296875</AltitudeMeters>
            <DistanceMeters>6312.9695901328</DistanceMeters>
          </Trackpoint>
          <Trackpoint>
            <Time>2019-07-06T18:01:02.000Z</Time>
            <Position>
              <LatitudeDegrees>42.53453367389738559722900390625</LatitudeDegrees>
              <LongitudeDegrees>-0.1690041460096836090087890625</LongitudeDegrees>
            </Position>
            <AltitudeMeters>1013.79998779296875</AltitudeMeters>
            <DistanceMeters>6313.641530474</DistanceMeters>
          </Trackpoint>
          <Trackpoint>
            <Time>2019-07-06T18:01:03.000Z</Time>
            <Position>
              <LatitudeDegrees>42.53452755510807037353515625</LatitudeDegrees>
              <LongitudeDegrees>-0.16900221817195415496826171875</LongitudeDegrees>
            </Position>
            <AltitudeMeters>1013.79998779296875</AltitudeMeters>
            <DistanceMeters>6314.3398313604</DistanceMeters>
          </Trackpoint>
          <Trackpoint>
            <Time>2019-07-06T18:01:04.000Z</Time>
            <Position>
              <LatitudeDegrees>42.53451808355748653411865234375</LatitudeDegrees>
              <LongitudeDegrees>-0.1689991168677806854248046875</LongitudeDegrees>
            </Position>
            <AltitudeMeters>1013.79998779296875</AltitudeMeters>
            <DistanceMeters>6315.423302605</DistanceMeters>
          </Trackpoint>
          <Trackpoint>
            <Time>2019-07-06T18:01:05.000Z</Time>
            <Position>
              <LatitudeDegrees>42.5345200113952159881591796875</LatitudeDegrees>
              <LongitudeDegrees>-0.1689873822033405303955078125</LongitudeDegrees>
            </Position>
            <AltitudeMeters>1014</AltitudeMeters>
            <DistanceMeters>6316.4108491892</DistanceMeters>
          </Trackpoint>
          <Trackpoint>
            <Time>2019-07-06T18:01:06.000Z</Time>
            <Position>
              <LatitudeDegrees>42.534515820443630218505859375</LatitudeDegrees>
              <LongitudeDegrees>-0.16897774301469326019287109375</LongitudeDegrees>
            </Position>
            <AltitudeMeters>1014.20001220703125</AltitudeMeters>
            <DistanceMeters>6317.3321673675</DistanceMeters>
          </Trackpoint>
          <Trackpoint>
            <Time>2019-07-06T18:01:07.000Z</Time>
            <Position>
              <LatitudeDegrees>42.534516155719757080078125</LatitudeDegrees>
              <LongitudeDegrees>-0.16895896755158901214599609375</LongitudeDegrees>
            </Position>
            <AltitudeMeters>1014.4000244140625</AltitudeMeters>
            <DistanceMeters>6318.8732417021</DistanceMeters>
          </Trackpoint>
          <Trackpoint>
            <Time>2019-07-06T18:01:08.000Z</Time>
            <Position>
              <LatitudeDegrees>42.5345012359321117401123046875</LatitudeDegrees>
              <LongitudeDegrees>-0.1689525134861469268798828125</LongitudeDegrees>
            </Position>
            <AltitudeMeters>1014.5999755859375</AltitudeMeters>
            <DistanceMeters>6320.6151101487</DistanceMeters>
          </Trackpoint>
          <Trackpoint>
            <Time>2019-07-06T18:01:09.000Z</Time>
            <Position>
              <LatitudeDegrees>42.53449562005698680877685546875</LatitudeDegrees>
              <LongitudeDegrees>-0.16894237138330936431884765625</LongitudeDegrees>
            </Position>
            <AltitudeMeters>1014.79998779296875</AltitudeMeters>
            <DistanceMeters>6321.6560756492</DistanceMeters>
          </Trackpoint>
          <Trackpoint>
            <Time>2019-07-06T18:01:10.000Z</Time>
            <Position>
              <LatitudeDegrees>42.5344878248870372772216796875</LatitudeDegrees>
              <LongitudeDegrees>-0.1689307205379009246826171875</LongitudeDegrees>
            </Position>
            <AltitudeMeters>1014.79998779296875</AltitudeMeters>
            <DistanceMeters>6322.9450807173</DistanceMeters>
          </Trackpoint>
          <Trackpoint>
            <Time>2019-07-06T18:01:11.000Z</Time>
            <Position>
              <LatitudeDegrees>42.5344831310212612152099609375</LatitudeDegrees>
              <LongitudeDegrees>-0.1689179800450801849365234375</LongitudeDegrees>
            </Position>
            <AltitudeMeters>1015</AltitudeMeters>
            <DistanceMeters>6324.1166487348</DistanceMeters>
          </Trackpoint>
          <Trackpoint>
            <Time>2019-07-06T18:01:13.000Z</Time>
            <Position>
              <LatitudeDegrees>42.534476257860660552978515625</LatitudeDegrees>
              <LongitudeDegrees>-0.16890699975192546844482421875</LongitudeDegrees>
            </Position>
            <AltitudeMeters>1015</AltitudeMeters>
            <DistanceMeters>6325.3035320168</DistanceMeters>
          </Trackpoint>
          <Trackpoint>
            <Time>2019-07-06T18:01:16.000Z</Time>
            <Position>
              <LatitudeDegrees>42.53445915877819061279296875</LatitudeDegrees>
              <LongitudeDegrees>-0.16890331171452999114990234375</LongitudeDegrees>
            </Position>
            <AltitudeMeters>1015.4000244140625</AltitudeMeters>
            <DistanceMeters>6327.2323636567</DistanceMeters>
          </Trackpoint>
          <Trackpoint>
            <Time>2019-07-06T18:01:19.000Z</Time>
            <Position>
              <LatitudeDegrees>42.53441297449171543121337890625</LatitudeDegrees>
              <LongitudeDegrees>-0.16887523233890533447265625</LongitudeDegrees>
            </Position>
            <AltitudeMeters>1015.5999755859375</AltitudeMeters>
            <DistanceMeters>6332.8654523853</DistanceMeters>
          </Trackpoint>
          <Trackpoint>
            <Time>2019-07-06T18:01:21.000Z</Time>
            <Position>
              <LatitudeDegrees>42.53439746797084808349609375</LatitudeDegrees>
              <LongitudeDegrees>-0.16885578632354736328125</LongitudeDegrees>
            </Position>
            <AltitudeMeters>1015.79998779296875</AltitudeMeters>
            <DistanceMeters>6335.2162834689</DistanceMeters>
          </Trackpoint>
          <Trackpoint>
            <Time>2019-07-06T18:01:22.000Z</Time>
            <Position>
              <LatitudeDegrees>42.53439185209572315216064453125</LatitudeDegrees>
              <LongitudeDegrees>-0.16885234974324703216552734375</LongitudeDegrees>
            </Position>
            <AltitudeMeters>1016</AltitudeMeters>
            <DistanceMeters>6335.9015308513</DistanceMeters>
          </Trackpoint>
          <Trackpoint>
            <Time>2019-07-06T18:01:27.000Z</Time>
            <Position>
              <LatitudeDegrees>42.53437005914747714996337890625</LatitudeDegrees>
              <LongitudeDegrees>-0.16883944161236286163330078125</LongitudeDegrees>
            </Position>
            <AltitudeMeters>1016.5999755859375</AltitudeMeters>
            <DistanceMeters>6338.5486688002</DistanceMeters>
          </Trackpoint>
          <Trackpoint>
            <Time>2019-07-06T18:01:29.000Z</Time>
            <Position>
              <LatitudeDegrees>42.5343647785484790802001953125</LatitudeDegrees>
              <LongitudeDegrees>-0.168832652270793914794921875</LongitudeDegrees>
            </Position>
            <AltitudeMeters>1016.79998779296875</AltitudeMeters>
            <DistanceMeters>6339.3549972097</DistanceMeters>
          </Trackpoint>
          <Trackpoint>
            <Time>2019-07-06T18:01:30.000Z</Time>
            <Position>
              <LatitudeDegrees>42.53436335362493991851806640625</LatitudeDegrees>
              <LongitudeDegrees>-0.1688271202147006988525390625</LongitudeDegrees>
            </Position>
            <AltitudeMeters>1017.20001220703125</AltitudeMeters>
            <DistanceMeters>6339.8395402806</DistanceMeters>
          </Trackpoint>
          <Trackpoint>
            <Time>2019-07-06T18:01:35.000Z</Time>
            <Position>
              <LatitudeDegrees>42.5343674607574939727783203125</LatitudeDegrees>
              <LongitudeDegrees>-0.16877406276762485504150390625</LongitudeDegrees>
            </Position>
            <AltitudeMeters>1017.79998779296875</AltitudeMeters>
            <DistanceMeters>6344.2148987872</DistanceMeters>
          </Trackpoint>
          <Trackpoint>
            <Time>2019-07-06T18:01:36.000Z</Time>
            <Position>
              <LatitudeDegrees>42.53437156789004802703857421875</LatitudeDegrees>
              <LongitudeDegrees>-0.16876132227480411529541015625</LongitudeDegrees>
            </Position>
            <AltitudeMeters>1017.79998779296875</AltitudeMeters>
            <DistanceMeters>6345.3552193596</DistanceMeters>
          </Trackpoint>
          <Trackpoint>
            <Time>2019-07-06T18:01:37.000Z</Time>
            <Position>
              <LatitudeDegrees>42.53437559120357036590576171875</LatitudeDegrees>
              <LongitudeDegrees>-0.1687503419816493988037109375</LongitudeDegrees>
            </Position>
            <AltitudeMeters>1018</AltitudeMeters>
            <DistanceMeters>6346.3608875761</DistanceMeters>
          </Trackpoint>
          <Trackpoint>
            <Time>2019-07-06T18:01:38.000Z</Time>
            <Position>
              <LatitudeDegrees>42.53437844105064868927001953125</LatitudeDegrees>
              <LongitudeDegrees>-0.168741457164287567138671875</LongitudeDegrees>
            </Position>
            <AltitudeMeters>1018.20001220703125</AltitudeMeters>
            <DistanceMeters>6347.1559381098</DistanceMeters>
          </Trackpoint>
          <Trackpoint>
            <Time>2019-07-06T18:01:41.000Z</Time>
            <Position>
              <LatitudeDegrees>42.5343865714967250823974609375</LatitudeDegrees>
              <LongitudeDegrees>-0.16871086321771144866943359375</LongitudeDegrees>
            </Position>
            <AltitudeMeters>1018.4000244140625</AltitudeMeters>
            <DistanceMeters>6349.8234650989</DistanceMeters>
          </Trackpoint>
          <Trackpoint>
            <Time>2019-07-06T18:01:42.000Z</Time>
            <Position>
              <LatitudeDegrees>42.53438732586801052093505859375</LatitudeDegrees>
              <LongitudeDegrees>-0.16869862563908100128173828125</LongitudeDegrees>
            </Position>
            <AltitudeMeters>1018.5999755859375</AltitudeMeters>
            <DistanceMeters>6350.8336129288</DistanceMeters>
          </Trackpoint>
          <Trackpoint>
            <Time>2019-07-06T18:01:44.000Z</Time>
            <Position>
              <LatitudeDegrees>42.53439118154346942901611328125</LatitudeDegrees>
              <LongitudeDegrees>-0.16867549158632755279541015625</LongitudeDegrees>
            </Position>
            <AltitudeMeters>1018.4000244140625</AltitudeMeters>
            <DistanceMeters>6352.781081056</DistanceMeters>
          </Trackpoint>
          <Trackpoint>
            <Time>2019-07-06T18:01:49.000Z</Time>
            <Position>
              <LatitudeDegrees>42.53440224565565586090087890625</LatitudeDegrees>
              <LongitudeDegrees>-0.16861774027347564697265625</LongitudeDegrees>
            </Position>
            <AltitudeMeters>1018.5999755859375</AltitudeMeters>
            <DistanceMeters>6357.6747261932</DistanceMeters>
          </Trackpoint>
          <Trackpoint>
            <Time>2019-07-06T18:01:51.000Z</Time>
            <Position>
              <LatitudeDegrees>42.5344066880643367767333984375</LatitudeDegrees>
              <LongitudeDegrees>-0.16859519295394420623779296875</LongitudeDegrees>
            </Position>
            <AltitudeMeters>1018.5999755859375</AltitudeMeters>
            <DistanceMeters>6359.5894614324</DistanceMeters>
          </Trackpoint>
          <Trackpoint>
            <Time>2019-07-06T18:01:53.000Z</Time>
            <Position>
              <LatitudeDegrees>42.5344123877584934234619140625</LatitudeDegrees>
              <LongitudeDegrees>-0.16857557930052280426025390625</LongitudeDegrees>
            </Position>
            <AltitudeMeters>1018.5999755859375</AltitudeMeters>
            <DistanceMeters>6361.3209305715</DistanceMeters>
          </Trackpoint>
          <Trackpoint>
            <Time>2019-07-06T18:01:57.000Z</Time>
            <Position>
              <LatitudeDegrees>42.5344207696616649627685546875</LatitudeDegrees>
              <LongitudeDegrees>-0.16853333450853824615478515625</LongitudeDegrees>
            </Position>
            <AltitudeMeters>1018.5999755859375</AltitudeMeters>
            <DistanceMeters>6364.9068514931</DistanceMeters>
          </Trackpoint>
          <Trackpoint>
            <Time>2019-07-06T18:02:00.000Z</Time>
            <Position>
              <LatitudeDegrees>42.534427307546138763427734375</LatitudeDegrees>
              <LongitudeDegrees>-0.16849025152623653411865234375</LongitudeDegrees>
            </Position>
            <AltitudeMeters>1018.79998779296875</AltitudeMeters>
            <DistanceMeters>6368.5128617648</DistanceMeters>
          </Trackpoint>
          <Trackpoint>
            <Time>2019-07-06T18:02:01.000Z</Time>
            <Position>
              <LatitudeDegrees>42.53442973829805850982666015625</LatitudeDegrees>
              <LongitudeDegrees>-0.168473236262798309326171875</LongitudeDegrees>
            </Position>
            <AltitudeMeters>1019</AltitudeMeters>
            <DistanceMeters>6369.9350913958</DistanceMeters>
          </Trackpoint>
          <Trackpoint>
            <Time>2019-07-06T18:02:03.000Z</Time>
            <Position>
              <LatitudeDegrees>42.534434683620929718017578125</LatitudeDegrees>
              <LongitudeDegrees>-0.1684465818107128143310546875</LongitudeDegrees>
            </Position>
            <AltitudeMeters>1019</AltitudeMeters>
            <DistanceMeters>6372.1878459234</DistanceMeters>
          </Trackpoint>
          <Trackpoint>
            <Time>2019-07-06T18:02:06.000Z</Time>
            <Position>
              <LatitudeDegrees>42.5344351865351200103759765625</LatitudeDegrees>
              <LongitudeDegrees>-0.16841196455061435699462890625</LongitudeDegrees>
            </Position>
            <AltitudeMeters>1019</AltitudeMeters>
            <DistanceMeters>6375.0291287922</DistanceMeters>
          </Trackpoint>
          <Trackpoint>
            <Time>2019-07-06T18:02:09.000Z</Time>
            <Position>
              <LatitudeDegrees>42.5344382040202617645263671875</LatitudeDegrees>
              <LongitudeDegrees>-0.1683687977492809295654296875</LongitudeDegrees>
            </Position>
            <AltitudeMeters>1019.20001220703125</AltitudeMeters>
            <DistanceMeters>6378.5847028699</DistanceMeters>
          </Trackpoint>
          <Trackpoint>
            <Time>2019-07-06T18:02:12.000Z</Time>
            <Position>
              <LatitudeDegrees>42.53444097004830837249755859375</LatitudeDegrees>
              <LongitudeDegrees>-0.16832806169986724853515625</LongitudeDegrees>
            </Position>
            <AltitudeMeters>1019.20001220703125</AltitudeMeters>
            <DistanceMeters>6381.9390247461</DistanceMeters>
          </Trackpoint>
          <Trackpoint>
            <Time>2019-07-06T18:02:16.000Z</Time>
            <Position>
              <LatitudeDegrees>42.53444365225732326507568359375</LatitudeDegrees>
              <LongitudeDegrees>-0.168279446661472320556640625</LongitudeDegrees>
            </Position>
            <AltitudeMeters>1019.20001220703125</AltitudeMeters>
            <DistanceMeters>6385.9369286101</DistanceMeters>
          </Trackpoint>
          <Trackpoint>
            <Time>2019-07-06T18:02:17.000Z</Time>
            <Position>
              <LatitudeDegrees>42.53444717265665531158447265625</LatitudeDegrees>
              <LongitudeDegrees>-0.1682695560157299041748046875</LongitudeDegrees>
            </Position>
            <AltitudeMeters>1019.20001220703125</AltitudeMeters>
            <DistanceMeters>6386.838431178</DistanceMeters>
          </Trackpoint>
          <Trackpoint>
            <Time>2019-07-06T18:02:20.000Z</Time>
            <Position>
              <LatitudeDegrees>42.534454129636287689208984375</LatitudeDegrees>
              <LongitudeDegrees>-0.168233178555965423583984375</LongitudeDegrees>
            </Position>
            <AltitudeMeters>1019.4000244140625</AltitudeMeters>
            <DistanceMeters>6389.9205798472</DistanceMeters>
          </Trackpoint>
          <Trackpoint>
            <Time>2019-07-06T18:02:28.000Z</Time>
            <Position>
              <LatitudeDegrees>42.534453459084033966064453125</LatitudeDegrees>
              <LongitudeDegrees>-0.1681382954120635986328125</LongitudeDegrees>
            </Position>
            <AltitudeMeters>1019.4000244140625</AltitudeMeters>
            <DistanceMeters>6397.7023336748</DistanceMeters>
          </Trackpoint>
          <Trackpoint>
            <Time>2019-07-06T18:02:39.000Z</Time>
            <Position>
              <LatitudeDegrees>42.5344371981918811798095703125</LatitudeDegrees>
              <LongitudeDegrees>-0.168000496923923492431640625</LongitudeDegrees>
            </Position>
            <AltitudeMeters>1019.4000244140625</AltitudeMeters>
            <DistanceMeters>6409.1482215411</DistanceMeters>
          </Trackpoint>
          <Trackpoint>
            <Time>2019-07-06T18:02:43.000Z</Time>
            <Position>
              <LatitudeDegrees>42.53443174995481967926025390625</LatitudeDegrees>
              <LongitudeDegrees>-0.16794157214462757110595703125</LongitudeDegrees>
            </Position>
            <AltitudeMeters>1019.5999755859375</AltitudeMeters>
            <DistanceMeters>6414.0178191366</DistanceMeters>
          </Trackpoint>
          <Trackpoint>
            <Time>2019-07-06T18:02:47.000Z</Time>
            <Position>
              <LatitudeDegrees>42.534424960613250732421875</LatitudeDegrees>
              <LongitudeDegrees>-0.167883820831775665283203125</LongitudeDegrees>
            </Position>
            <AltitudeMeters>1019.4000244140625</AltitudeMeters>
            <DistanceMeters>6418.8145508134</DistanceMeters>
          </Trackpoint>
          <Trackpoint>
            <Time>2019-07-06T18:02:58.000Z</Time>
            <Position>
              <LatitudeDegrees>42.53438028506934642791748046875</LatitudeDegrees>
              <LongitudeDegrees>-0.16775532625615596771240234375</LongitudeDegrees>
            </Position>
            <AltitudeMeters>1019.4000244140625</AltitudeMeters>
            <DistanceMeters>6430.4676315032</DistanceMeters>
          </Trackpoint>
          <Trackpoint>
            <Time>2019-07-06T18:03:06.000Z</Time>
            <Position>
              <LatitudeDegrees>42.534351535141468048095703125</LatitudeDegrees>
              <LongitudeDegrees>-0.16765155829489231109619140625</LongitudeDegrees>
            </Position>
            <AltitudeMeters>1019.5999755859375</AltitudeMeters>
            <DistanceMeters>6439.5599551801</DistanceMeters>
          </Trackpoint>
          <Trackpoint>
            <Time>2019-07-06T18:03:09.000Z</Time>
            <Position>
              <LatitudeDegrees>42.5343419797718524932861328125</LatitudeDegrees>
              <LongitudeDegrees>-0.1676204614341259002685546875</LongitudeDegrees>
            </Position>
            <AltitudeMeters>1019.79998779296875</AltitudeMeters>
            <DistanceMeters>6442.3239097151</DistanceMeters>
          </Trackpoint>
          <Trackpoint>
            <Time>2019-07-06T18:03:10.000Z</Time>
            <Position>
              <LatitudeDegrees>42.53433804027736186981201171875</LatitudeDegrees>
              <LongitudeDegrees>-0.16761082224547863006591796875</LongitudeDegrees>
            </Position>
            <AltitudeMeters>1019.79998779296875</AltitudeMeters>
            <DistanceMeters>6443.225412283</DistanceMeters>
          </Trackpoint>
          <Trackpoint>
            <Time>2019-07-06T18:03:11.000Z</Time>
            <Position>
              <LatitudeDegrees>42.53433368168771266937255859375</LatitudeDegrees>
              <LongitudeDegrees>-0.16759858466684818267822265625</LongitudeDegrees>
            </Position>
            <AltitudeMeters>1020</AltitudeMeters>
            <DistanceMeters>6444.3376714582</DistanceMeters>
          </Trackpoint>
          <Trackpoint>
            <Time>2019-07-06T18:03:12.000Z</Time>
            <Position>
              <LatitudeDegrees>42.53432907164096832275390625</LatitudeDegrees>
              <LongitudeDegrees>-0.16758584417402744293212890625</LongitudeDegrees>
            </Position>
            <AltitudeMeters>1020.20001220703125</AltitudeMeters>
            <DistanceMeters>6445.5015062689</DistanceMeters>
          </Trackpoint>
          <Trackpoint>
            <Time>2019-07-06T18:03:13.000Z</Time>
            <Position>
              <LatitudeDegrees>42.5343243777751922607421875</LatitudeDegrees>
              <LongitudeDegrees>-0.1675731875002384185791015625</LongitudeDegrees>
            </Position>
            <AltitudeMeters>1020.20001220703125</AltitudeMeters>
            <DistanceMeters>6446.6614551428</DistanceMeters>
          </Trackpoint>
          <Trackpoint>
            <Time>2019-07-06T18:03:14.000Z</Time>
            <Position>
              <LatitudeDegrees>42.53432027064263820648193359375</LatitudeDegrees>
              <LongitudeDegrees>-0.167560614645481109619140625</LongitudeDegrees>
            </Position>
            <AltitudeMeters>1020.4000244140625</AltitudeMeters>
            <DistanceMeters>6447.7858263903</DistanceMeters>
          </Trackpoint>
          <Trackpoint>
            <Time>2019-07-06T18:03:15.000Z</Time>
            <Position>
              <LatitudeDegrees>42.5343175046145915985107421875</LatitudeDegrees>
              <LongitudeDegrees>-0.1675482094287872314453125</LongitudeDegrees>
            </Position>
            <AltitudeMeters>1020.4000244140625</AltitudeMeters>
            <DistanceMeters>6448.8524986136</DistanceMeters>
          </Trackpoint>
          <Trackpoint>
            <Time>2019-07-06T18:03:16.000Z</Time>
            <Position>
              <LatitudeDegrees>42.5343138165771961212158203125</LatitudeDegrees>
              <LongitudeDegrees>-0.16753789968788623809814453125</LongitudeDegrees>
            </Position>
            <AltitudeMeters>1020.5999755859375</AltitudeMeters>
            <DistanceMeters>6449.7932150914</DistanceMeters>
          </Trackpoint>
          <Trackpoint>
            <Time>2019-07-06T18:03:17.000Z</Time>
            <Position>
              <LatitudeDegrees>42.5343082845211029052734375</LatitudeDegrees>
              <LongitudeDegrees>-0.16752499155700206756591796875</LongitudeDegrees>
            </Position>
            <AltitudeMeters>1020.79998779296875</AltitudeMeters>
            <DistanceMeters>6451.017548661</DistanceMeters>
          </Trackpoint>
          <Trackpoint>
            <Time>2019-07-06T18:03:18.000Z</Time>
            <Position>
              <LatitudeDegrees>42.534304596483707427978515625</LatitudeDegrees>
              <LongitudeDegrees>-0.16751090995967388153076171875</LongitudeDegrees>
            </Position>
            <AltitudeMeters>1021</AltitudeMeters>
            <DistanceMeters>6452.2492356515</DistanceMeters>
          </Trackpoint>
          <Trackpoint>
            <Time>2019-07-06T18:03:20.000Z</Time>
            <Position>
              <LatitudeDegrees>42.53429831005632877349853515625</LatitudeDegrees>
              <LongitudeDegrees>-0.167487524449825286865234375</LongitudeDegrees>
            </Position>
            <AltitudeMeters>1021.20001220703125</AltitudeMeters>
            <DistanceMeters>6454.2917574548</DistanceMeters>
          </Trackpoint>
          <Trackpoint>
            <Time>2019-07-06T18:03:21.000Z</Time>
            <Position>
              <LatitudeDegrees>42.53429512493312358856201171875</LatitudeDegrees>
              <LongitudeDegrees>-0.16747654415667057037353515625</LongitudeDegrees>
            </Position>
            <AltitudeMeters>1021.20001220703125</AltitudeMeters>
            <DistanceMeters>6455.2561732748</DistanceMeters>
          </Trackpoint>
          <Trackpoint>
            <Time>2019-07-06T18:03:22.000Z</Time>
            <Position>
              <LatitudeDegrees>42.53429017961025238037109375</LatitudeDegrees>
              <LongitudeDegrees>-0.16746765933930873870849609375</LongitudeDegrees>
            </Position>
            <AltitudeMeters>1021.4000244140625</AltitudeMeters>
            <DistanceMeters>6456.1676374994</DistanceMeters>
          </Trackpoint>
          <Trackpoint>
            <Time>2019-07-06T18:03:23.000Z</Time>
            <Position>
              <LatitudeDegrees>42.5342853181064128875732421875</LatitudeDegrees>
              <LongitudeDegrees>-0.16745927743613719940185546875</LongitudeDegrees>
            </Position>
            <AltitudeMeters>1021.5999755859375</AltitudeMeters>
            <DistanceMeters>6457.0385717227</DistanceMeters>
          </Trackpoint>
          <Trackpoint>
            <Time>2019-07-06T18:03:24.000Z</Time>
            <Position>
              <LatitudeDegrees>42.534279115498065948486328125</LatitudeDegrees>
              <LongitudeDegrees>-0.1674491353332996368408203125</LongitudeDegrees>
            </Position>
            <AltitudeMeters>1021.79998779296875</AltitudeMeters>
            <DistanceMeters>6458.1220429672</DistanceMeters>
          </Trackpoint>
          <Trackpoint>
            <Time>2019-07-06T18:03:25.000Z</Time>
            <Position>
              <LatitudeDegrees>42.5342725776135921478271484375</LatitudeDegrees>
              <LongitudeDegrees>-0.167442262172698974609375</LongitudeDegrees>
            </Position>
            <AltitudeMeters>1022</AltitudeMeters>
            <DistanceMeters>6459.0433611456</DistanceMeters>
          </Trackpoint>
          <Trackpoint>
            <Time>2019-07-06T18:03:26.000Z</Time>
            <Position>
              <LatitudeDegrees>42.53426847048103809356689453125</LatitudeDegrees>
              <LongitudeDegrees>-0.16743195243179798126220703125</LongitudeDegrees>
            </Position>
            <AltitudeMeters>1022</AltitudeMeters>
            <DistanceMeters>6460.0030839166</DistanceMeters>
          </Trackpoint>
          <Trackpoint>
            <Time>2019-07-06T18:03:27.000Z</Time>
            <Position>
              <LatitudeDegrees>42.53426511771976947784423828125</LatitudeDegrees>
              <LongitudeDegrees>-0.16741937957704067230224609375</LongitudeDegrees>
            </Position>
            <AltitudeMeters>1022.20001220703125</AltitudeMeters>
            <DistanceMeters>6461.1030976636</DistanceMeters>
          </Trackpoint>
          <Trackpoint>
            <Time>2019-07-06T18:03:28.000Z</Time>
            <Position>
              <LatitudeDegrees>42.53426059149205684661865234375</LatitudeDegrees>
              <LongitudeDegrees>-0.1674095727503299713134765625</LongitudeDegrees>
            </Position>
            <AltitudeMeters>1022.4000244140625</AltitudeMeters>
            <DistanceMeters>6462.0533648073</DistanceMeters>
          </Trackpoint>
          <Trackpoint>
            <Time>2019-07-06T18:03:29.000Z</Time>
            <Position>
              <LatitudeDegrees>42.534256316721439361572265625</LatitudeDegrees>
              <LongitudeDegrees>-0.16740077175199985504150390625</LongitudeDegrees>
            </Position>
            <AltitudeMeters>1022.4000244140625</AltitudeMeters>
            <DistanceMeters>6462.9138683043</DistanceMeters>
          </Trackpoint>
          <Trackpoint>
            <Time>2019-07-06T18:03:30.000Z</Time>
            <Position>
              <LatitudeDegrees>42.5342501141130924224853515625</LatitudeDegrees>
              <LongitudeDegrees>-0.16739473678171634674072265625</LongitudeDegrees>
            </Position>
            <AltitudeMeters>1022.5999755859375</AltitudeMeters>
            <DistanceMeters>6463.7638130763</DistanceMeters>
          </Trackpoint>
          <Trackpoint>
            <Time>2019-07-06T18:03:32.000Z</Time>
            <Position>
              <LatitudeDegrees>42.534238211810588836669921875</LatitudeDegrees>
              <LongitudeDegrees>-0.167379565536975860595703125</LongitudeDegrees>
            </Position>
            <AltitudeMeters>1022.79998779296875</AltitudeMeters>
            <DistanceMeters>6465.581781167</DistanceMeters>
          </Trackpoint>
          <Trackpoint>
            <Time>2019-07-06T18:03:35.000Z</Time>
            <Position>
              <LatitudeDegrees>42.53421868197619915008544921875</LatitudeDegrees>
              <LongitudeDegrees>-0.1673455350100994110107421875</LongitudeDegrees>
            </Position>
            <AltitudeMeters>1023.20001220703125</AltitudeMeters>
            <DistanceMeters>6469.1195327059</DistanceMeters>
          </Trackpoint>
          <Trackpoint>
            <Time>2019-07-06T18:03:38.000Z</Time>
            <Position>
              <LatitudeDegrees>42.53419898450374603271484375</LatitudeDegrees>
              <LongitudeDegrees>-0.16732382588088512420654296875</LongitudeDegrees>
            </Position>
            <AltitudeMeters>1023.5999755859375</AltitudeMeters>
            <DistanceMeters>6471.9448800432</DistanceMeters>
          </Trackpoint>
          <Trackpoint>
            <Time>2019-07-06T18:03:41.000Z</Time>
            <Position>
              <LatitudeDegrees>42.5341780297458171844482421875</LatitudeDegrees>
              <LongitudeDegrees>-0.16731242649257183074951171875</LongitudeDegrees>
            </Position>
            <AltitudeMeters>1024</AltitudeMeters>
            <DistanceMeters>6474.4554563432</DistanceMeters>
          </Trackpoint>
          <Trackpoint>
            <Time>2019-07-06T18:03:43.000Z</Time>
            <Position>
              <LatitudeDegrees>42.534163780510425567626953125</LatitudeDegrees>
              <LongitudeDegrees>-0.16731024719774723052978515625</LongitudeDegrees>
            </Position>
            <AltitudeMeters>1024.4000244140625</AltitudeMeters>
            <DistanceMeters>6476.051226238</DistanceMeters>
          </Trackpoint>
          <Trackpoint>
            <Time>2019-07-06T18:03:45.000Z</Time>
            <Position>
              <LatitudeDegrees>42.534151040017604827880859375</LatitudeDegrees>
              <LongitudeDegrees>-0.16730077564716339111328125</LongitudeDegrees>
            </Position>
            <AltitudeMeters>1024.800048828125</AltitudeMeters>
            <DistanceMeters>6477.6694728721</DistanceMeters>
          </Trackpoint>
          <Trackpoint>
            <Time>2019-07-06T18:03:49.000Z</Time>
            <Position>
              <LatitudeDegrees>42.53412463702261447906494140625</LatitudeDegrees>
              <LongitudeDegrees>-0.16728510148823261260986328125</LongitudeDegrees>
            </Position>
            <AltitudeMeters>1025.4000244140625</AltitudeMeters>
            <DistanceMeters>6480.8779440261</DistanceMeters>
          </Trackpoint>
          <Trackpoint>
            <Time>2019-07-06T18:03:52.000Z</Time>
            <Position>
              <LatitudeDegrees>42.5341039337217807769775390625</LatitudeDegrees>
              <LongitudeDegrees>-0.16727118752896785736083984375</LongitudeDegrees>
            </Position>
            <AltitudeMeters>1025.800048828125</AltitudeMeters>
            <DistanceMeters>6483.4489391558</DistanceMeters>
          </Trackpoint>
          <Trackpoint>
            <Time>2019-07-06T18:03:53.000Z</Time>
            <Position>
              <LatitudeDegrees>42.53409882076084613800048828125</LatitudeDegrees>
              <LongitudeDegrees>-0.16726297326385974884033203125</LongitudeDegrees>
            </Position>
            <AltitudeMeters>1026</AltitudeMeters>
            <DistanceMeters>6484.3301806517</DistanceMeters>
          </Trackpoint>
          <Trackpoint>
            <Time>2019-07-06T18:03:55.000Z</Time>
            <Position>
              <LatitudeDegrees>42.5340885110199451446533203125</LatitudeDegrees>
              <LongitudeDegrees>-0.1672546751797199249267578125</LongitudeDegrees>
            </Position>
            <AltitudeMeters>1026.199951171875</AltitudeMeters>
            <DistanceMeters>6485.6639441463</DistanceMeters>
          </Trackpoint>
          <Trackpoint>
            <Time>2019-07-06T18:04:00.000Z</Time>
            <Position>
              <LatitudeDegrees>42.53406479023396968841552734375</LatitudeDegrees>
              <LongitudeDegrees>-0.16722165048122406005859375</LongitudeDegrees>
            </Position>
            <AltitudeMeters>1026.800048828125</AltitudeMeters>
            <DistanceMeters>6489.4459596258</DistanceMeters>
          </Trackpoint>
          <Trackpoint>
            <Time>2019-07-06T18:04:04.000Z</Time>
            <Position>
              <LatitudeDegrees>42.5340419076383113861083984375</LatitudeDegrees>
              <LongitudeDegrees>-0.1672013662755489349365234375</LongitudeDegrees>
            </Position>
            <AltitudeMeters>1027.4000244140625</AltitudeMeters>
            <DistanceMeters>6492.4868144857</DistanceMeters>
          </Trackpoint>
          <Trackpoint>
            <Time>2019-07-06T18:04:09.000Z</Time>
            <Position>
              <LatitudeDegrees>42.534006871283054351806640625</LatitudeDegrees>
              <LongitudeDegrees>-0.1671675033867359161376953125</LongitudeDegrees>
            </Position>
            <AltitudeMeters>1027.800048828125</AltitudeMeters>
            <DistanceMeters>6497.2741241701</DistanceMeters>
          </Trackpoint>
          <Trackpoint>
            <Time>2019-07-06T18:04:14.000Z</Time>
            <Position>
              <LatitudeDegrees>42.533980049192905426025390625</LatitudeDegrees>
              <LongitudeDegrees>-0.1671168766915798187255859375</LongitudeDegrees>
            </Position>
            <AltitudeMeters>1028.4000244140625</AltitudeMeters>
            <DistanceMeters>6502.3879389284</DistanceMeters>
          </Trackpoint>
          <Trackpoint>
            <Time>2019-07-06T18:04:17.000Z</Time>
            <Position>
              <LatitudeDegrees>42.533970661461353302001953125</LatitudeDegrees>
              <LongitudeDegrees>-0.16707454808056354522705078125</LongitudeDegrees>
            </Position>
            <AltitudeMeters>1029</AltitudeMeters>
            <DistanceMeters>6506.0139272491</DistanceMeters>
          </Trackpoint>
          <Trackpoint>
            <Time>2019-07-06T18:04:22.000Z</Time>
            <Position>
              <LatitudeDegrees>42.53395666368305683135986328125</LatitudeDegrees>
              <LongitudeDegrees>-0.1670206524431705474853515625</LongitudeDegrees>
            </Position>
            <AltitudeMeters>1029.4000244140625</AltitudeMeters>
            <DistanceMeters>6510.7011626804</DistanceMeters>
          </Trackpoint>
          <Trackpoint>
            <Time>2019-07-06T18:04:25.000Z</Time>
            <Position>
              <LatitudeDegrees>42.533949203789234161376953125</LatitudeDegrees>
              <LongitudeDegrees>-0.1669881306588649749755859375</LongitudeDegrees>
            </Position>
            <AltitudeMeters>1029.5999755859375</AltitudeMeters>
            <DistanceMeters>6513.4959821959</DistanceMeters>
          </Trackpoint>
          <Trackpoint>
            <Time>2019-07-06T18:04:27.000Z</Time>
            <Position>
              <LatitudeDegrees>42.53394207917153835296630859375</LatitudeDegrees>
              <LongitudeDegrees>-0.166967846453189849853515625</LongitudeDegrees>
            </Position>
            <AltitudeMeters>1029.800048828125</AltitudeMeters>
            <DistanceMeters>6515.3386185525</DistanceMeters>
          </Trackpoint>
          <Trackpoint>
            <Time>2019-07-06T18:04:29.000Z</Time>
            <Position>
              <LatitudeDegrees>42.5339302606880664825439453125</LatitudeDegrees>
              <LongitudeDegrees>-0.16695535741746425628662109375</LongitudeDegrees>
            </Position>
            <AltitudeMeters>1030</AltitudeMeters>
            <DistanceMeters>6517.0063306214</DistanceMeters>
          </Trackpoint>
          <Trackpoint>
            <Time>2019-07-06T18:04:33.000Z</Time>
            <Position>
              <LatitudeDegrees>42.53390737809240818023681640625</LatitudeDegrees>
              <LongitudeDegrees>-0.16691856086254119873046875</LongitudeDegrees>
            </Position>
            <AltitudeMeters>1030.4000244140625</AltitudeMeters>
            <DistanceMeters>6520.955373799</DistanceMeters>
          </Trackpoint>
          <Trackpoint>
            <Time>2019-07-06T18:04:34.000Z</Time>
            <Position>
              <LatitudeDegrees>42.5339047797024250030517578125</LatitudeDegrees>
              <LongitudeDegrees>-0.16691051423549652099609375</LongitudeDegrees>
            </Position>
            <AltitudeMeters>1030.4000244140625</AltitudeMeters>
            <DistanceMeters>6521.6728097595</DistanceMeters>
          </Trackpoint>
          <Trackpoint>
            <Time>2019-07-06T18:04:36.000Z</Time>
            <Position>
              <LatitudeDegrees>42.53390033729374408721923828125</LatitudeDegrees>
              <LongitudeDegrees>-0.16688679344952106475830078125</LongitudeDegrees>
            </Position>
            <AltitudeMeters>1030.5999755859375</AltitudeMeters>
            <DistanceMeters>6523.6796515803</DistanceMeters>
          </Trackpoint>
          <Trackpoint>
            <Time>2019-07-06T18:04:38.000Z</Time>
            <Position>
              <LatitudeDegrees>42.5338967330753803253173828125</LatitudeDegrees>
              <LongitudeDegrees>-0.16685594804584980010986328125</LongitudeDegrees>
            </Position>
            <AltitudeMeters>1031</AltitudeMeters>
            <DistanceMeters>6526.2418509431</DistanceMeters>
          </Trackpoint>
          <Trackpoint>
            <Time>2019-07-06T18:04:40.000Z</Time>
            <Position>
              <LatitudeDegrees>42.53389027900993824005126953125</LatitudeDegrees>
              <LongitudeDegrees>-0.16682912595570087432861328125</LongitudeDegrees>
            </Position>
            <AltitudeMeters>1031</AltitudeMeters>
            <DistanceMeters>6528.5578529742</DistanceMeters>
          </Trackpoint>
          <Trackpoint>
            <Time>2019-07-06T18:04:42.000Z</Time>
            <Position>
              <LatitudeDegrees>42.53388625569641590118408203125</LatitudeDegrees>
              <LongitudeDegrees>-0.16680590808391571044921875</LongitudeDegrees>
            </Position>
            <AltitudeMeters>1031.199951171875</AltitudeMeters>
            <DistanceMeters>6530.5145727835</DistanceMeters>
          </Trackpoint>
          <Trackpoint>
            <Time>2019-07-06T18:04:44.000Z</Time>
            <Position>
              <LatitudeDegrees>42.53388390876352787017822265625</LatitudeDegrees>
              <LongitudeDegrees>-0.16677967272698879241943359375</LongitudeDegrees>
            </Position>
            <AltitudeMeters>1031.199951171875</AltitudeMeters>
            <DistanceMeters>6532.6815152726</DistanceMeters>
          </Trackpoint>
          <Trackpoint>
            <Time>2019-07-06T18:04:47.000Z</Time>
            <Position>
              <LatitudeDegrees>42.5338843278586864471435546875</LatitudeDegrees>
              <LongitudeDegrees>-0.16674631275236606597900390625</LongitudeDegrees>
            </Position>
            <AltitudeMeters>1031.5999755859375</AltitudeMeters>
            <DistanceMeters>6535.4159079465</DistanceMeters>
          </Trackpoint>
          <Trackpoint>
            <Time>2019-07-06T18:04:51.000Z</Time>
            <Position>
              <LatitudeDegrees>42.53388382494449615478515625</LatitudeDegrees>
              <LongitudeDegrees>-0.16669602133333683013916015625</LongitudeDegrees>
            </Position>
            <AltitudeMeters>1032.199951171875</AltitudeMeters>
            <DistanceMeters>6539.5405490243</DistanceMeters>
          </Trackpoint>
          <Trackpoint>
            <Time>2019-07-06T18:04:55.000Z</Time>
            <Position>
              <LatitudeDegrees>42.533898241817951202392578125</LatitudeDegrees>
              <LongitudeDegrees>-0.16664438880980014801025390625</LongitudeDegrees>
            </Position>
            <AltitudeMeters>1032.5999755859375</AltitudeMeters>
            <DistanceMeters>6544.0690480697</DistanceMeters>
          </Trackpoint>
          <Trackpoint>
            <Time>2019-07-06T18:04:58.000Z</Time>
            <Position>
              <LatitudeDegrees>42.53389296121895313262939453125</LatitudeDegrees>
              <LongitudeDegrees>-0.16661421395838260650634765625</LongitudeDegrees>
            </Position>
            <AltitudeMeters>1032.800048828125</AltitudeMeters>
            <DistanceMeters>6546.611789648</DistanceMeters>
          </Trackpoint>
          <Trackpoint>
            <Time>2019-07-06T18:04:59.000Z</Time>
            <Position>
              <LatitudeDegrees>42.533889524638652801513671875</LatitudeDegrees>
              <LongitudeDegrees>-0.1666080951690673828125</LongitudeDegrees>
            </Position>
            <AltitudeMeters>1032.800048828125</AltitudeMeters>
            <DistanceMeters>6547.2421255612</DistanceMeters>
          </Trackpoint>
          <Trackpoint>
            <Time>2019-07-06T18:05:03.000Z</Time>
            <Position>
              <LatitudeDegrees>42.5338886864483356475830078125</LatitudeDegrees>
              <LongitudeDegrees>-0.16657364554703235626220703125</LongitudeDegrees>
            </Position>
            <AltitudeMeters>1033</AltitudeMeters>
            <DistanceMeters>6550.0674728986</DistanceMeters>
          </Trackpoint>
          <Trackpoint>
            <Time>2019-07-06T18:05:04.000Z</Time>
            <Position>
              <LatitudeDegrees>42.5338886864483356475830078125</LatitudeDegrees>
              <LongitudeDegrees>-0.16656316816806793212890625</LongitudeDegrees>
            </Position>
            <AltitudeMeters>1033</AltitudeMeters>
            <DistanceMeters>6550.9279763956</DistanceMeters>
          </Trackpoint>
          <Trackpoint>
            <Time>2019-07-06T18:05:05.000Z</Time>
            <Position>
              <LatitudeDegrees>42.53389296121895313262939453125</LatitudeDegrees>
              <LongitudeDegrees>-0.1665532775223255157470703125</LongitudeDegrees>
            </Position>
            <AltitudeMeters>1033.199951171875</AltitudeMeters>
            <DistanceMeters>6551.8686928733</DistanceMeters>
          </Trackpoint>
          <Trackpoint>
            <Time>2019-07-06T18:05:08.000Z</Time>
            <Position>
              <LatitudeDegrees>42.53389396704733371734619140625</LatitudeDegrees>
              <LongitudeDegrees>-0.166518576443195343017578125</LongitudeDegrees>
            </Position>
            <AltitudeMeters>1033.5999755859375</AltitudeMeters>
            <DistanceMeters>6554.7179100857</DistanceMeters>
          </Trackpoint>
          <Trackpoint>
            <Time>2019-07-06T18:05:09.000Z</Time>
            <Position>
              <LatitudeDegrees>42.533895559608936309814453125</LatitudeDegrees>
              <LongitudeDegrees>-0.16650726087391376495361328125</LongitudeDegrees>
            </Position>
            <AltitudeMeters>1033.5999755859375</AltitudeMeters>
            <DistanceMeters>6555.6681772294</DistanceMeters>
          </Trackpoint>
          <Trackpoint>
            <Time>2019-07-06T18:05:11.000Z</Time>
            <Position>
              <LatitudeDegrees>42.5338910333812236785888671875</LatitudeDegrees>
              <LongitudeDegrees>-0.166481696069240570068359375</LongitudeDegrees>
            </Position>
            <AltitudeMeters>1034</AltitudeMeters>
            <DistanceMeters>6557.8267692346</DistanceMeters>
          </Trackpoint>
          <Trackpoint>
            <Time>2019-07-06T18:05:12.000Z</Time>
            <Position>
              <LatitudeDegrees>42.533883154392242431640625</LatitudeDegrees>
              <LongitudeDegrees>-0.16647155396640300750732421875</LongitudeDegrees>
            </Position>
            <AltitudeMeters>1034.199951171875</AltitudeMeters>
            <DistanceMeters>6559.0399891077</DistanceMeters>
          </Trackpoint>
          <Trackpoint>
            <Time>2019-07-06T18:05:13.000Z</Time>
            <Position>
              <LatitudeDegrees>42.53387619741261005401611328125</LatitudeDegrees>
              <LongitudeDegrees>-0.166464932262897491455078125</LongitudeDegrees>
            </Position>
            <AltitudeMeters>1034.199951171875</AltitudeMeters>
            <DistanceMeters>6559.9902562514</DistanceMeters>
          </Trackpoint>
          <Trackpoint>
            <Time>2019-07-06T18:05:15.000Z</Time>
            <Position>
              <LatitudeDegrees>42.53385826013982295989990234375</LatitudeDegrees>
              <LongitudeDegrees>-0.16647742129862308502197265625</LongitudeDegrees>
            </Position>
            <AltitudeMeters>1034.4000244140625</AltitudeMeters>
            <DistanceMeters>6562.2349795429</DistanceMeters>
          </Trackpoint>
          <Trackpoint>
            <Time>2019-07-06T18:05:17.000Z</Time>
            <Position>
              <LatitudeDegrees>42.5338383950293064117431640625</LatitudeDegrees>
              <LongitudeDegrees>-0.16649452038109302520751953125</LongitudeDegrees>
            </Position>
            <AltitudeMeters>1034.5999755859375</AltitudeMeters>
            <DistanceMeters>6564.8546852702</DistanceMeters>
          </Trackpoint>
          <Trackpoint>
            <Time>2019-07-06T18:05:20.000Z</Time>
            <Position>
              <LatitudeDegrees>42.5338228046894073486328125</LatitudeDegrees>
              <LongitudeDegrees>-0.16651212237775325775146484375</LongitudeDegrees>
            </Position>
            <AltitudeMeters>1034.5999755859375</AltitudeMeters>
            <DistanceMeters>6567.1114446979</DistanceMeters>
          </Trackpoint>
          <Trackpoint>
            <Time>2019-07-06T18:05:22.000Z</Time>
            <Position>
              <LatitudeDegrees>42.53381065092980861663818359375</LatitudeDegrees>
              <LongitudeDegrees>-0.16654011793434619903564453125</LongitudeDegrees>
            </Position>
            <AltitudeMeters>1034.5999755859375</AltitudeMeters>
            <DistanceMeters>6569.7772785564</DistanceMeters>
          </Trackpoint>
          <Trackpoint>
            <Time>2019-07-06T18:05:24.000Z</Time>
            <Position>
              <LatitudeDegrees>42.533796317875385284423828125</LatitudeDegrees>
              <LongitudeDegrees>-0.1665707118809223175048828125</LongitudeDegrees>
            </Position>
            <AltitudeMeters>1034.5999755859375</AltitudeMeters>
            <DistanceMeters>6572.7520852586</DistanceMeters>
          </Trackpoint>
          <Trackpoint>
            <Time>2019-07-06T18:05:26.000Z</Time>
            <Position>
              <LatitudeDegrees>42.53378190100193023681640625</LatitudeDegrees>
              <LongitudeDegrees>-0.166594684123992919921875</LongitudeDegrees>
            </Position>
            <AltitudeMeters>1034.800048828125</AltitudeMeters>
            <DistanceMeters>6575.2912730383</DistanceMeters>
          </Trackpoint>
          <Trackpoint>
            <Time>2019-07-06T18:05:29.000Z</Time>
            <Position>
              <LatitudeDegrees>42.5337653048336505889892578125</LatitudeDegrees>
              <LongitudeDegrees>-0.166639275848865509033203125</LongitudeDegrees>
            </Position>
            <AltitudeMeters>1034.800048828125</AltitudeMeters>
            <DistanceMeters>6579.3895583122</DistanceMeters>
          </Trackpoint>
          <Trackpoint>
            <Time>2019-07-06T18:05:32.000Z</Time>
            <Position>
              <LatitudeDegrees>42.5337552465498447418212890625</LatitudeDegrees>
              <LongitudeDegrees>-0.16668814234435558319091796875</LongitudeDegrees>
            </Position>
            <AltitudeMeters>1034.800048828125</AltitudeMeters>
            <DistanceMeters>6583.5512510711</DistanceMeters>
          </Trackpoint>
          <Trackpoint>
            <Time>2019-07-06T18:05:33.000Z</Time>
            <Position>
              <LatitudeDegrees>42.53375482745468616485595703125</LatitudeDegrees>
              <LongitudeDegrees>-0.1667044870555400848388671875</LongitudeDegrees>
            </Position>
            <AltitudeMeters>1034.800048828125</AltitudeMeters>
            <DistanceMeters>6584.8951317536</DistanceMeters>
          </Trackpoint>
          <Trackpoint>
            <Time>2019-07-06T18:05:34.000Z</Time>
            <Position>
              <LatitudeDegrees>42.53375231288373470306396484375</LatitudeDegrees>
              <LongitudeDegrees>-0.1667199097573757171630859375</LongitudeDegrees>
            </Position>
            <AltitudeMeters>1034.800048828125</AltitudeMeters>
            <DistanceMeters>6586.1911233502</DistanceMeters>
          </Trackpoint>
          <Trackpoint>
            <Time>2019-07-06T18:05:44.000Z</Time>
            <Position>
              <LatitudeDegrees>42.53375549800693988800048828125</LatitudeDegrees>
              <LongitudeDegrees>-0.1668841950595378875732421875</LongitudeDegrees>
            </Position>
            <AltitudeMeters>1035</AltitudeMeters>
            <DistanceMeters>6599.6701863018</DistanceMeters>
          </Trackpoint>
          <Trackpoint>
            <Time>2019-07-06T18:05:47.000Z</Time>
            <Position>
              <LatitudeDegrees>42.5337689928710460662841796875</LatitudeDegrees>
              <LongitudeDegrees>-0.16692124307155609130859375</LongitudeDegrees>
            </Position>
            <AltitudeMeters>1035</AltitudeMeters>
            <DistanceMeters>6603.0579919574</DistanceMeters>
          </Trackpoint>
          <Trackpoint>
            <Time>2019-07-06T18:05:49.000Z</Time>
            <Position>
              <LatitudeDegrees>42.53377896733582019805908203125</LatitudeDegrees>
              <LongitudeDegrees>-0.166943036019802093505859375</LongitudeDegrees>
            </Position>
            <AltitudeMeters>1035</AltitudeMeters>
            <DistanceMeters>6605.1614979492</DistanceMeters>
          </Trackpoint>
          <Trackpoint>
            <Time>2019-07-06T18:05:52.000Z</Time>
            <Position>
              <LatitudeDegrees>42.53379757516086101531982421875</LatitudeDegrees>
              <LongitudeDegrees>-0.16696876846253871917724609375</LongitudeDegrees>
            </Position>
            <AltitudeMeters>1035</AltitudeMeters>
            <DistanceMeters>6608.1180354507</DistanceMeters>
          </Trackpoint>
          <Trackpoint>
            <Time>2019-07-06T18:05:56.000Z</Time>
            <Position>
              <LatitudeDegrees>42.5338075496256351470947265625</LatitudeDegrees>
              <LongitudeDegrees>-0.16702073626220226287841796875</LongitudeDegrees>
            </Position>
            <AltitudeMeters>1034.800048828125</AltitudeMeters>
            <DistanceMeters>6612.5221930548</DistanceMeters>
          </Trackpoint>
          <Trackpoint>
            <Time>2019-07-06T18:05:58.000Z</Time>
            <Position>
              <LatitudeDegrees>42.53380469977855682373046875</LatitudeDegrees>
              <LongitudeDegrees>-0.167042948305606842041015625</LongitudeDegrees>
            </Position>
            <AltitudeMeters>1035</AltitudeMeters>
            <DistanceMeters>6614.3721657498</DistanceMeters>
          </Trackpoint>
          <Trackpoint>
            <Time>2019-07-06T18:06:01.000Z</Time>
            <Position>
              <LatitudeDegrees>42.5338075496256351470947265625</LatitudeDegrees>
              <LongitudeDegrees>-0.16708142124116420745849609375</LongitudeDegrees>
            </Position>
            <AltitudeMeters>1035.199951171875</AltitudeMeters>
            <DistanceMeters>6617.5438380466</DistanceMeters>
          </Trackpoint>
          <Trackpoint>
            <Time>2019-07-06T18:06:06.000Z</Time>
            <Position>
              <LatitudeDegrees>42.53381852991878986358642578125</LatitudeDegrees>
              <LongitudeDegrees>-0.16715434379875659942626953125</LongitudeDegrees>
            </Position>
            <AltitudeMeters>1035.5999755859375</AltitudeMeters>
            <DistanceMeters>6623.6485186676</DistanceMeters>
          </Trackpoint>
          <Trackpoint>
            <Time>2019-07-06T18:06:09.000Z</Time>
            <Position>
              <LatitudeDegrees>42.53382842056453227996826171875</LatitudeDegrees>
              <LongitudeDegrees>-0.16719223000109195709228515625</LongitudeDegrees>
            </Position>
            <AltitudeMeters>1036</AltitudeMeters>
            <DistanceMeters>6626.9458224205</DistanceMeters>
          </Trackpoint>
          <Trackpoint>
            <Time>2019-07-06T18:06:11.000Z</Time>
            <Position>
              <LatitudeDegrees>42.5338280014693737030029296875</LatitudeDegrees>
              <LongitudeDegrees>-0.16722626052796840667724609375</LongitudeDegrees>
            </Position>
            <AltitudeMeters>1036</AltitudeMeters>
            <DistanceMeters>6629.7390259661</DistanceMeters>
          </Trackpoint>
          <Trackpoint>
            <Time>2019-07-06T18:06:14.000Z</Time>
            <Position>
              <LatitudeDegrees>42.53383059985935688018798828125</LatitudeDegrees>
              <LongitudeDegrees>-0.1672694273293018341064453125</LongitudeDegrees>
            </Position>
            <AltitudeMeters>1036.199951171875</AltitudeMeters>
            <DistanceMeters>6633.2920594403</DistanceMeters>
          </Trackpoint>
          <Trackpoint>
            <Time>2019-07-06T18:06:16.000Z</Time>
            <Position>
              <LatitudeDegrees>42.5338306836783885955810546875</LatitudeDegrees>
              <LongitudeDegrees>-0.16729407012462615966796875</LongitudeDegrees>
            </Position>
            <AltitudeMeters>1036.199951171875</AltitudeMeters>
            <DistanceMeters>6635.3123551</DistanceMeters>
          </Trackpoint>
          <Trackpoint>
            <Time>2019-07-06T18:06:17.000Z</Time>
            <Position>
              <LatitudeDegrees>42.533829174935817718505859375</LatitudeDegrees>
              <LongitudeDegrees>-0.16730790026485919952392578125</LongitudeDegrees>
            </Position>
            <AltitudeMeters>1036.199951171875</AltitudeMeters>
            <DistanceMeters>6636.4566282686</DistanceMeters>
          </Trackpoint>
          <Trackpoint>
            <Time>2019-07-06T18:06:20.000Z</Time>
            <Position>
              <LatitudeDegrees>42.53381266258656978607177734375</LatitudeDegrees>
              <LongitudeDegrees>-0.16737026162445545196533203125</LongitudeDegrees>
            </Position>
            <AltitudeMeters>1036.4000244140625</AltitudeMeters>
            <DistanceMeters>6641.8922892335</DistanceMeters>
          </Trackpoint>
          <Trackpoint>
            <Time>2019-07-06T18:06:24.000Z</Time>
            <Position>
              <LatitudeDegrees>42.53382288850843906402587890625</LatitudeDegrees>
              <LongitudeDegrees>-0.16743765212595462799072265625</LongitudeDegrees>
            </Position>
            <AltitudeMeters>1036.5999755859375</AltitudeMeters>
            <DistanceMeters>6647.5365881</DistanceMeters>
          </Trackpoint>
          <Trackpoint>
            <Time>2019-07-06T18:06:25.000Z</Time>
            <Position>
              <LatitudeDegrees>42.5338219664990901947021484375</LatitudeDegrees>
              <LongitudeDegrees>-0.1674508117139339447021484375</LongitudeDegrees>
            </Position>
            <AltitudeMeters>1036.800048828125</AltitudeMeters>
            <DistanceMeters>6648.6200593445</DistanceMeters>
          </Trackpoint>
          <Trackpoint>
            <Time>2019-07-06T18:06:26.000Z</Time>
            <Position>
              <LatitudeDegrees>42.53381945192813873291015625</LatitudeDegrees>
              <LongitudeDegrees>-0.16746564768254756927490234375</LongitudeDegrees>
            </Position>
            <AltitudeMeters>1036.800048828125</AltitudeMeters>
            <DistanceMeters>6649.8663230198</DistanceMeters>
          </Trackpoint>
          <Trackpoint>
            <Time>2019-07-06T18:06:27.000Z</Time>
            <Position>
              <LatitudeDegrees>42.5338192842900753021240234375</LatitudeDegrees>
              <LongitudeDegrees>-0.1674803160130977630615234375</LongitudeDegrees>
            </Position>
            <AltitudeMeters>1037</AltitudeMeters>
            <DistanceMeters>6651.0683264437</DistanceMeters>
          </Trackpoint>
          <Trackpoint>
            <Time>2019-07-06T18:06:28.000Z</Time>
            <Position>
              <LatitudeDegrees>42.5338202901184558868408203125</LatitudeDegrees>
              <LongitudeDegrees>-0.16749515198171138763427734375</LongitudeDegrees>
            </Position>
            <AltitudeMeters>1037</AltitudeMeters>
            <DistanceMeters>6652.2926600133</DistanceMeters>
          </Trackpoint>
          <Trackpoint>
            <Time>2019-07-06T18:06:29.000Z</Time>
            <Position>
              <LatitudeDegrees>42.533820457756519317626953125</LatitudeDegrees>
              <LongitudeDegrees>-0.16751225106418132781982421875</LongitudeDegrees>
            </Position>
            <AltitudeMeters>1037</AltitudeMeters>
            <DistanceMeters>6653.695712637</DistanceMeters>
          </Trackpoint>
          <Trackpoint>
            <Time>2019-07-06T18:06:30.000Z</Time>
            <Position>
              <LatitudeDegrees>42.53382054157555103302001953125</LatitudeDegrees>
              <LongitudeDegrees>-0.16752968542277812957763671875</LongitudeDegrees>
            </Position>
            <AltitudeMeters>1037</AltitudeMeters>
            <DistanceMeters>6655.1242773979</DistanceMeters>
          </Trackpoint>
          <Trackpoint>
            <Time>2019-07-06T18:06:31.000Z</Time>
            <Position>
              <LatitudeDegrees>42.5338196195662021636962890625</LatitudeDegrees>
              <LongitudeDegrees>-0.167547203600406646728515625</LongitudeDegrees>
            </Position>
            <AltitudeMeters>1037</AltitudeMeters>
            <DistanceMeters>6656.5654288758</DistanceMeters>
          </Trackpoint>
          <Trackpoint>
            <Time>2019-07-06T18:06:33.000Z</Time>
            <Position>
              <LatitudeDegrees>42.53381408751010894775390625</LatitudeDegrees>
              <LongitudeDegrees>-0.16757930628955364227294921875</LongitudeDegrees>
            </Position>
            <AltitudeMeters>1037.199951171875</AltitudeMeters>
            <DistanceMeters>6659.2699365795</DistanceMeters>
          </Trackpoint>
          <Trackpoint>
            <Time>2019-07-06T18:06:36.000Z</Time>
            <Position>
              <LatitudeDegrees>42.533808052539825439453125</LatitudeDegrees>
              <LongitudeDegrees>-0.1676241494715213775634765625</LongitudeDegrees>
            </Position>
            <AltitudeMeters>1037.4000244140625</AltitudeMeters>
            <DistanceMeters>6663.0075197905</DistanceMeters>
          </Trackpoint>
          <Trackpoint>
            <Time>2019-07-06T18:06:43.000Z</Time>
            <Position>
              <LatitudeDegrees>42.53379053436219692230224609375</LatitudeDegrees>
              <LongitudeDegrees>-0.16771852970123291015625</LongitudeDegrees>
            </Position>
            <AltitudeMeters>1038</AltitudeMeters>
            <DistanceMeters>6670.9897637976</DistanceMeters>
          </Trackpoint>
          <Trackpoint>
            <Time>2019-07-06T18:06:47.000Z</Time>
            <Position>
              <LatitudeDegrees>42.53378332592546939849853515625</LatitudeDegrees>
              <LongitudeDegrees>-0.1677547395229339599609375</LongitudeDegrees>
            </Position>
            <AltitudeMeters>1037.800048828125</AltitudeMeters>
            <DistanceMeters>6674.066047288</DistanceMeters>
          </Trackpoint>
          <Trackpoint>
            <Time>2019-07-06T18:06:52.000Z</Time>
            <Position>
              <LatitudeDegrees>42.5337777100503444671630859375</LatitudeDegrees>
              <LongitudeDegrees>-0.16780243255198001861572265625</LongitudeDegrees>
            </Position>
            <AltitudeMeters>1037.800048828125</AltitudeMeters>
            <DistanceMeters>6678.0276470733</DistanceMeters>
          </Trackpoint>
          <Trackpoint>
            <Time>2019-07-06T18:06:59.000Z</Time>
            <Position>
              <LatitudeDegrees>42.53373303450644016265869140625</LatitudeDegrees>
              <LongitudeDegrees>-0.167913325130939483642578125</LongitudeDegrees>
            </Position>
            <AltitudeMeters>1038</AltitudeMeters>
            <DistanceMeters>6688.3929666309</DistanceMeters>
          </Trackpoint>
          <Trackpoint>
            <Time>2019-07-06T18:07:03.000Z</Time>
            <Position>
              <LatitudeDegrees>42.533715851604938507080078125</LatitudeDegrees>
              <LongitudeDegrees>-0.1679631136357784271240234375</LongitudeDegrees>
            </Position>
            <AltitudeMeters>1038.199951171875</AltitudeMeters>
            <DistanceMeters>6692.9024823645</DistanceMeters>
          </Trackpoint>
        </Track>
      </Lap>
    </Activity>
  </Activities>
</TrainingCenterDatabase>
